<?xml version='1.0' encoding='UTF-8'?><gpx version="1.1" creator="JPX - https://github.com/jenetics/jpx" xmlns="http://www.topografix.com/GPX/1/1"><trk><trkseg><trkpt lat="38.00616547698105" lon="15.423953300021758"><ele>21.0</ele><time>2026-04-26T06:04:03.02Z</time></trkpt><trkpt lat="38.00609968961412" lon="15.423995076564736"><ele>21.0</ele><time>2026-04-26T06:05:46.997Z</time></trkpt><trkpt lat="38.00602435569194" lon="15.423943212859813"><ele>21.0</ele><time>2026-04-26T06:05:48.997Z</time></trkpt><trkpt lat="38.005978794333956" lon="15.423859095567755"><ele>21.0</ele><time>2026-04-26T06:05:50.997Z</time></trkpt><trkpt lat="38.00594104357712" lon="15.42376768465881"><ele>21.0</ele><time>2026-04-26T06:05:52.997Z</time></trkpt><trkpt lat="38.005922662973305" lon="15.423653815630843"><ele>21.0</ele><time>2026-04-26T06:05:54.997Z</time></trkpt><trkpt lat="38.0059185616947" lon="15.423544177640446"><ele>22.166666666666668</ele><time>2026-04-26T06:05:56.997Z</time></trkpt><trkpt lat="38.00592919065141" lon="15.423453324632897"><ele>23.333333333333336</ele><time>2026-04-26T06:05:58.997Z</time></trkpt><trkpt lat="38.00597882860448" lon="15.423346387632316"><ele>24.5</ele><time>2026-04-26T06:06:00.997Z</time></trkpt><trkpt lat="38.00601365547249" lon="15.423272690719164"><ele>25.666666666666668</ele><time>2026-04-26T06:06:01.997Z</time></trkpt><trkpt lat="38.00603594991452" lon="15.423186382906609"><ele>26.833333333333336</ele><time>2026-04-26T06:06:02.997Z</time></trkpt><trkpt lat="38.00603076144437" lon="15.423099525685151"><ele>28.0</ele><time>2026-04-26T06:06:03.997Z</time></trkpt><trkpt lat="38.00601670775086" lon="15.422987255038722"><ele>28.333333333333336</ele><time>2026-04-26T06:06:05.997Z</time></trkpt><trkpt lat="38.00594998167747" lon="15.422926192903333"><ele>28.666666666666668</ele><time>2026-04-26T06:06:07.997Z</time></trkpt><trkpt lat="38.00587711099712" lon="15.422893759097875"><ele>29.0</ele><time>2026-04-26T06:06:09.997Z</time></trkpt><trkpt lat="38.00583552669924" lon="15.422828231024953"><ele>29.333333333333336</ele><time>2026-04-26T06:06:11.997Z</time></trkpt><trkpt lat="38.0058055169371" lon="15.422715013439047"><ele>29.666666666666668</ele><time>2026-04-26T06:06:14.996Z</time></trkpt><trkpt lat="38.00575243813484" lon="15.422643034358568"><ele>30.0</ele><time>2026-04-26T06:06:16.996Z</time></trkpt><trkpt lat="38.00566822713539" lon="15.422655067852176"><ele>28.166666666666668</ele><time>2026-04-26T06:06:20.996Z</time></trkpt><trkpt lat="38.00557640795844" lon="15.422688063008"><ele>26.333333333333332</ele><time>2026-04-26T06:06:23.996Z</time></trkpt><trkpt lat="38.00550541697515" lon="15.422753683819419"><ele>24.5</ele><time>2026-04-26T06:06:25.996Z</time></trkpt><trkpt lat="38.00543745602954" lon="15.422820599413262"><ele>22.666666666666664</ele><time>2026-04-26T06:06:27.996Z</time></trkpt><trkpt lat="38.005390902321345" lon="15.422900492481896"><ele>20.833333333333332</ele><time>2026-04-26T06:06:29.996Z</time></trkpt><trkpt lat="38.00532785620173" lon="15.4229811781461"><ele>19.0</ele><time>2026-04-26T06:06:31.996Z</time></trkpt><trkpt lat="38.00526336678678" lon="15.423047025001983"><ele>18.833333333333332</ele><time>2026-04-26T06:06:33.996Z</time></trkpt><trkpt lat="38.00519975249834" lon="15.423136290188307"><ele>18.666666666666664</ele><time>2026-04-26T06:06:38.996Z</time></trkpt><trkpt lat="38.005133786682386" lon="15.42320440859409"><ele>18.5</ele><time>2026-04-26T06:06:40.996Z</time></trkpt><trkpt lat="38.00508376734861" lon="15.423302535591336"><ele>18.333333333333332</ele><time>2026-04-26T06:06:42.996Z</time></trkpt><trkpt lat="38.005039732080135" lon="15.423397300453228"><ele>18.166666666666668</ele><time>2026-04-26T06:06:44.996Z</time></trkpt><trkpt lat="38.00499385192618" lon="15.423478187578095"><ele>18.0</ele><time>2026-04-26T06:06:46.996Z</time></trkpt><trkpt lat="38.0049288561714" lon="15.423566684581383"><ele>17.2</ele><time>2026-04-26T06:06:48.996Z</time></trkpt><trkpt lat="38.004864155886004" lon="15.423635507606786"><ele>16.4</ele><time>2026-04-26T06:06:51.995Z</time></trkpt><trkpt lat="38.00481651585551" lon="15.423690606455759"><ele>15.599999999999998</ele><time>2026-04-26T06:07:22.995Z</time></trkpt><trkpt lat="38.004724551541265" lon="15.423675336608245"><ele>14.799999999999999</ele><time>2026-04-26T06:07:25.994Z</time></trkpt><trkpt lat="38.0046213074817" lon="15.423541837932529"><ele>14.0</ele><time>2026-04-26T06:07:27.994Z</time></trkpt><trkpt lat="38.00454740098738" lon="15.423466396068537"><ele>14.0</ele><time>2026-04-26T06:07:28.994Z</time></trkpt><trkpt lat="38.00446946583317" lon="15.423397305554452"><ele>13.999999999999998</ele><time>2026-04-26T06:07:29.994Z</time></trkpt><trkpt lat="38.004435315707426" lon="15.423262726610435"><ele>13.999999999999998</ele><time>2026-04-26T06:07:30.994Z</time></trkpt><trkpt lat="38.004366938446246" lon="15.423187480702785"><ele>14.0</ele><time>2026-04-26T06:07:31.994Z</time></trkpt><trkpt lat="38.00430023144897" lon="15.42311431884858"><ele>14.0</ele><time>2026-04-26T06:07:32.994Z</time></trkpt><trkpt lat="38.00423951851942" lon="15.42304792096996"><ele>14.2</ele><time>2026-04-26T06:07:33.994Z</time></trkpt><trkpt lat="38.00417589345437" lon="15.422978338268244"><ele>14.399999999999999</ele><time>2026-04-26T06:07:34.994Z</time></trkpt><trkpt lat="38.00409740106398" lon="15.422892496115912"><ele>14.6</ele><time>2026-04-26T06:07:35.994Z</time></trkpt><trkpt lat="38.004019316264866" lon="15.422807099721751"><ele>14.8</ele><time>2026-04-26T06:07:36.994Z</time></trkpt><trkpt lat="38.00393638282759" lon="15.422716400685914"><ele>15.0</ele><time>2026-04-26T06:07:37.994Z</time></trkpt><trkpt lat="38.00384534807664" lon="15.422613567031009"><ele>15.0</ele><time>2026-04-26T06:07:38.994Z</time></trkpt><trkpt lat="38.00375665025226" lon="15.422506754219182"><ele>15.0</ele><time>2026-04-26T06:07:39.994Z</time></trkpt><trkpt lat="38.003674912054294" lon="15.422412057143456"><ele>15.0</ele><time>2026-04-26T06:07:40.994Z</time></trkpt><trkpt lat="38.0035774787877" lon="15.422303533363765"><ele>15.0</ele><time>2026-04-26T06:07:41.994Z</time></trkpt><trkpt lat="38.00347373173795" lon="15.422194077558814"><ele>15.0</ele><time>2026-04-26T06:07:42.994Z</time></trkpt><trkpt lat="38.003370198362546" lon="15.422090952330905"><ele>15.0</ele><time>2026-04-26T06:07:43.994Z</time></trkpt><trkpt lat="38.00324918681608" lon="15.4219935309873"><ele>15.0</ele><time>2026-04-26T06:07:44.994Z</time></trkpt><trkpt lat="38.003164547642896" lon="15.421865877232374"><ele>15.0</ele><time>2026-04-26T06:07:45.994Z</time></trkpt><trkpt lat="38.003051073512125" lon="15.42177331188799"><ele>15.0</ele><time>2026-04-26T06:07:46.994Z</time></trkpt><trkpt lat="38.00292733840251" lon="15.421693623128046"><ele>15.0</ele><time>2026-04-26T06:07:47.994Z</time></trkpt><trkpt lat="38.00280296511586" lon="15.421607015363152"><ele>15.0</ele><time>2026-04-26T06:07:48.994Z</time></trkpt><trkpt lat="38.002669039521926" lon="15.42151929031259"><ele>15.0</ele><time>2026-04-26T06:07:49.994Z</time></trkpt><trkpt lat="38.00253609416102" lon="15.421421552379769"><ele>15.333333333333332</ele><time>2026-04-26T06:07:50.994Z</time></trkpt><trkpt lat="38.00240389241373" lon="15.42131838984346"><ele>15.666666666666666</ele><time>2026-04-26T06:07:51.994Z</time></trkpt><trkpt lat="38.00227208938071" lon="15.42121615026808"><ele>16.0</ele><time>2026-04-26T06:07:52.994Z</time></trkpt><trkpt lat="38.00214137837457" lon="15.421112970151036"><ele>16.0</ele><time>2026-04-26T06:07:53.994Z</time></trkpt><trkpt lat="38.002007708995805" lon="15.421003271673326"><ele>16.0</ele><time>2026-04-26T06:07:54.994Z</time></trkpt><trkpt lat="38.001877529210816" lon="15.420872833718905"><ele>16.0</ele><time>2026-04-26T06:07:55.994Z</time></trkpt><trkpt lat="38.00174129457838" lon="15.420751584910136"><ele>16.0</ele><time>2026-04-26T06:07:56.994Z</time></trkpt><trkpt lat="38.00160911171816" lon="15.420611585568246"><ele>16.0</ele><time>2026-04-26T06:07:57.994Z</time></trkpt><trkpt lat="38.00150336518426" lon="15.420443969871132"><ele>16.0</ele><time>2026-04-26T06:07:58.994Z</time></trkpt><trkpt lat="38.00136651327971" lon="15.420322908591686"><ele>16.0</ele><time>2026-04-26T06:07:59.994Z</time></trkpt><trkpt lat="38.001234876269756" lon="15.420203387703374"><ele>16.0</ele><time>2026-04-26T06:08:00.994Z</time></trkpt><trkpt lat="38.00111392053303" lon="15.420074107236381"><ele>16.0</ele><time>2026-04-26T06:08:01.993Z</time></trkpt><trkpt lat="38.001003973039126" lon="15.419963158959586"><ele>16.0</ele><time>2026-04-26T06:08:02.993Z</time></trkpt><trkpt lat="38.00088627199752" lon="15.419859170391389"><ele>16.0</ele><time>2026-04-26T06:08:03.993Z</time></trkpt><trkpt lat="38.00076822022731" lon="15.419745676342693"><ele>16.0</ele><time>2026-04-26T06:08:04.993Z</time></trkpt><trkpt lat="38.00064873337784" lon="15.419642987695749"><ele>16.0</ele><time>2026-04-26T06:08:05.993Z</time></trkpt><trkpt lat="38.000530293872124" lon="15.419535683058543"><ele>15.75</ele><time>2026-04-26T06:08:06.993Z</time></trkpt><trkpt lat="38.00041707118895" lon="15.419432463055134"><ele>15.5</ele><time>2026-04-26T06:08:07.993Z</time></trkpt><trkpt lat="38.000306263626335" lon="15.419320335120142"><ele>15.25</ele><time>2026-04-26T06:08:08.993Z</time></trkpt><trkpt lat="38.000189900106754" lon="15.4191874634084"><ele>15.0</ele><time>2026-04-26T06:08:09.993Z</time></trkpt><trkpt lat="38.000094519158466" lon="15.419045670945156"><ele>15.0</ele><time>2026-04-26T06:08:10.993Z</time></trkpt><trkpt lat="37.99998171704077" lon="15.418910579901462"><ele>15.0</ele><time>2026-04-26T06:08:11.993Z</time></trkpt><trkpt lat="37.999864749564416" lon="15.418775704676472"><ele>15.0</ele><time>2026-04-26T06:08:12.993Z</time></trkpt><trkpt lat="37.99974858725241" lon="15.418643479930703"><ele>14.666666666666668</ele><time>2026-04-26T06:08:13.993Z</time></trkpt><trkpt lat="37.99962517658423" lon="15.41850609107616"><ele>14.333333333333334</ele><time>2026-04-26T06:08:14.993Z</time></trkpt><trkpt lat="37.999498624109656" lon="15.418365204536094"><ele>14.0</ele><time>2026-04-26T06:08:15.993Z</time></trkpt><trkpt lat="37.99935963929796" lon="15.418236293923357"><ele>14.0</ele><time>2026-04-26T06:08:16.993Z</time></trkpt><trkpt lat="37.99926781410031" lon="15.418073079478948"><ele>14.0</ele><time>2026-04-26T06:08:17.993Z</time></trkpt><trkpt lat="37.999166674090425" lon="15.417958276382622"><ele>14.0</ele><time>2026-04-26T06:08:18.993Z</time></trkpt><trkpt lat="37.999066738109896" lon="15.417869209489856"><ele>14.0</ele><time>2026-04-26T06:08:19.993Z</time></trkpt><trkpt lat="37.998982495179916" lon="15.417787438989395"><ele>13.666666666666668</ele><time>2026-04-26T06:08:20.993Z</time></trkpt><trkpt lat="37.99895044711498" lon="15.417658838655331"><ele>13.333333333333332</ele><time>2026-04-26T06:08:21.993Z</time></trkpt><trkpt lat="37.9989143675352" lon="15.41757731409764"><ele>13.0</ele><time>2026-04-26T06:08:22.993Z</time></trkpt><trkpt lat="37.99902870591951" lon="15.417254124862867"><ele>13.0</ele><time>2026-04-26T06:08:23.993Z</time></trkpt><trkpt lat="37.99905784810684" lon="15.417061920833682"><ele>13.0</ele><time>2026-04-26T06:08:24.993Z</time></trkpt><trkpt lat="37.99912596583216" lon="15.416839565479858"><ele>13.0</ele><time>2026-04-26T06:08:25.993Z</time></trkpt><trkpt lat="37.99926323637226" lon="15.416557422533863"><ele>16.0</ele><time>2026-04-26T06:08:26.993Z</time></trkpt><trkpt lat="37.999441114665714" lon="15.416312414655255"><ele>19.0</ele><time>2026-04-26T06:08:27.993Z</time></trkpt><trkpt lat="37.9995061958988" lon="15.415962918967447"><ele>19.0</ele><time>2026-04-26T06:08:28.993Z</time></trkpt><trkpt lat="37.999591984629916" lon="15.415624872662466"><ele>19.0</ele><time>2026-04-26T06:08:29.993Z</time></trkpt><trkpt lat="37.99962809753342" lon="15.41537770760038"><ele>20.0</ele><time>2026-04-26T06:08:30.993Z</time></trkpt><trkpt lat="37.99963170536072" lon="15.415179674765099"><ele>21.0</ele><time>2026-04-26T06:08:31.993Z</time></trkpt><trkpt lat="37.99963006253892" lon="15.415008099864545"><ele>22.0</ele><time>2026-04-26T06:08:32.993Z</time></trkpt><trkpt lat="37.999455508844655" lon="15.414844668767328"><ele>22.0</ele><time>2026-04-26T06:08:33.993Z</time></trkpt><trkpt lat="37.99932525037212" lon="15.414677655528974"><ele>22.0</ele><time>2026-04-26T06:08:34.993Z</time></trkpt><trkpt lat="37.99915686108264" lon="15.414458014482385"><ele>22.0</ele><time>2026-04-26T06:08:35.993Z</time></trkpt><trkpt lat="37.99897337313197" lon="15.414288722183143"><ele>21.333333333333332</ele><time>2026-04-26T06:08:36.993Z</time></trkpt><trkpt lat="37.998839406489004" lon="15.414138198552646"><ele>20.666666666666668</ele><time>2026-04-26T06:08:37.992Z</time></trkpt><trkpt lat="37.99870780330852" lon="15.414007025460569"><ele>20.0</ele><time>2026-04-26T06:08:38.992Z</time></trkpt><trkpt lat="37.99855893523562" lon="15.413882442655758"><ele>20.0</ele><time>2026-04-26T06:08:39.992Z</time></trkpt><trkpt lat="37.99840070450353" lon="15.413737132966933"><ele>20.0</ele><time>2026-04-26T06:08:40.992Z</time></trkpt><trkpt lat="37.99822272329407" lon="15.413573884443204"><ele>20.0</ele><time>2026-04-26T06:08:41.992Z</time></trkpt><trkpt lat="37.99804066865701" lon="15.413407245423148"><ele>20.0</ele><time>2026-04-26T06:08:42.992Z</time></trkpt><trkpt lat="37.99786016797631" lon="15.413243862594914"><ele>20.0</ele><time>2026-04-26T06:08:43.992Z</time></trkpt><trkpt lat="37.99767984276211" lon="15.413081619519051"><ele>20.0</ele><time>2026-04-26T06:08:44.992Z</time></trkpt><trkpt lat="37.99749164630395" lon="15.41291229445713"><ele>20.333333333333336</ele><time>2026-04-26T06:08:45.992Z</time></trkpt><trkpt lat="37.997304704587386" lon="15.4127439690116"><ele>20.666666666666668</ele><time>2026-04-26T06:08:46.992Z</time></trkpt><trkpt lat="37.99713887438296" lon="15.412593789481111"><ele>21.0</ele><time>2026-04-26T06:08:47.992Z</time></trkpt><trkpt lat="37.99697952452151" lon="15.412459176553176"><ele>21.0</ele><time>2026-04-26T06:08:48.992Z</time></trkpt><trkpt lat="37.9968236800618" lon="15.412380748985251"><ele>21.0</ele><time>2026-04-26T06:08:49.992Z</time></trkpt><trkpt lat="37.99666804267679" lon="15.412291878114052"><ele>21.0</ele><time>2026-04-26T06:08:50.992Z</time></trkpt><trkpt lat="37.996510099000666" lon="15.41221715522006"><ele>21.0</ele><time>2026-04-26T06:08:51.992Z</time></trkpt><trkpt lat="37.9963298725043" lon="15.41213565780371"><ele>21.0</ele><time>2026-04-26T06:08:52.992Z</time></trkpt><trkpt lat="37.99613853326445" lon="15.41205067601248"><ele>21.0</ele><time>2026-04-26T06:08:53.992Z</time></trkpt><trkpt lat="37.99597381356032" lon="15.411973011000109"><ele>21.333333333333332</ele><time>2026-04-26T06:08:54.992Z</time></trkpt><trkpt lat="37.995829550307334" lon="15.411892519932954"><ele>21.666666666666664</ele><time>2026-04-26T06:08:55.992Z</time></trkpt><trkpt lat="37.99568654640949" lon="15.411852331665331"><ele>22.0</ele><time>2026-04-26T06:08:56.992Z</time></trkpt><trkpt lat="37.9955437095102" lon="15.411944973281713"><ele>22.0</ele><time>2026-04-26T06:08:57.992Z</time></trkpt><trkpt lat="37.99532240655975" lon="15.412055122176639"><ele>22.0</ele><time>2026-04-26T06:08:58.992Z</time></trkpt><trkpt lat="37.99509206431237" lon="15.412157813420505"><ele>19.5</ele><time>2026-04-26T06:08:59.992Z</time></trkpt><trkpt lat="37.994867145228426" lon="15.4122627144151"><ele>17.0</ele><time>2026-04-26T06:09:00.992Z</time></trkpt><trkpt lat="37.99465564109024" lon="15.41236135900279"><ele>17.0</ele><time>2026-04-26T06:09:01.992Z</time></trkpt><trkpt lat="37.9944823536809" lon="15.41244218407117"><ele>17.0</ele><time>2026-04-26T06:09:02.992Z</time></trkpt><trkpt lat="37.9943110207966" lon="15.412500906540187"><ele>17.0</ele><time>2026-04-26T06:09:03.992Z</time></trkpt><trkpt lat="37.99415074180154" lon="15.412580981411649"><ele>17.0</ele><time>2026-04-26T06:09:04.992Z</time></trkpt><trkpt lat="37.994008373875054" lon="15.41265216465935"><ele>17.0</ele><time>2026-04-26T06:09:05.992Z</time></trkpt><trkpt lat="37.993885449074575" lon="15.412722314684038"><ele>17.0</ele><time>2026-04-26T06:09:06.992Z</time></trkpt><trkpt lat="37.99375851938405" lon="15.412785057579232"><ele>17.0</ele><time>2026-04-26T06:09:07.992Z</time></trkpt><trkpt lat="37.99364547707107" lon="15.412826023393594"><ele>17.0</ele><time>2026-04-26T06:09:08.992Z</time></trkpt><trkpt lat="37.993570995316865" lon="15.412880137419668"><ele>17.0</ele><time>2026-04-26T06:09:09.992Z</time></trkpt><trkpt lat="37.99347243100397" lon="15.412929831543"><ele>17.0</ele><time>2026-04-26T06:09:10.992Z</time></trkpt><trkpt lat="37.99327600927842" lon="15.412651885909867"><ele>16.333333333333336</ele><time>2026-04-26T06:09:11.992Z</time></trkpt><trkpt lat="37.99312950467183" lon="15.412489358052625"><ele>15.666666666666668</ele><time>2026-04-26T06:09:12.992Z</time></trkpt><trkpt lat="37.99298323877655" lon="15.412314806522916"><ele>15.0</ele><time>2026-04-26T06:09:13.991Z</time></trkpt><trkpt lat="37.99286425394458" lon="15.412125499953587"><ele>15.333333333333332</ele><time>2026-04-26T06:09:14.991Z</time></trkpt><trkpt lat="37.99273167045934" lon="15.412005428629541"><ele>15.666666666666666</ele><time>2026-04-26T06:09:15.991Z</time></trkpt><trkpt lat="37.99261237246062" lon="15.411895584503956"><ele>16.0</ele><time>2026-04-26T06:09:16.991Z</time></trkpt><trkpt lat="37.99248113795999" lon="15.411834317481008"><ele>16.0</ele><time>2026-04-26T06:09:17.991Z</time></trkpt><trkpt lat="37.992385041159466" lon="15.411743362300678"><ele>16.0</ele><time>2026-04-26T06:09:18.991Z</time></trkpt><trkpt lat="37.99227612319917" lon="15.411653539350109"><ele>16.0</ele><time>2026-04-26T06:09:19.991Z</time></trkpt><trkpt lat="37.99216752108946" lon="15.411561007028585"><ele>16.0</ele><time>2026-04-26T06:09:20.991Z</time></trkpt><trkpt lat="37.99207064228297" lon="15.411446026678972"><ele>16.0</ele><time>2026-04-26T06:09:21.991Z</time></trkpt><trkpt lat="37.99196112913253" lon="15.41133692007594"><ele>16.0</ele><time>2026-04-26T06:09:22.991Z</time></trkpt><trkpt lat="37.99184510842382" lon="15.411220376686813"><ele>16.0</ele><time>2026-04-26T06:09:23.991Z</time></trkpt><trkpt lat="37.99172057835283" lon="15.411091792988204"><ele>16.0</ele><time>2026-04-26T06:09:24.991Z</time></trkpt><trkpt lat="37.9915974177329" lon="15.410964960344343"><ele>16.0</ele><time>2026-04-26T06:09:25.991Z</time></trkpt><trkpt lat="37.99146670124168" lon="15.410835796232389"><ele>16.0</ele><time>2026-04-26T06:09:26.991Z</time></trkpt><trkpt lat="37.99133350887881" lon="15.41070312578938"><ele>16.0</ele><time>2026-04-26T06:09:27.991Z</time></trkpt><trkpt lat="37.9911914529891" lon="15.41055360425794"><ele>15.666666666666666</ele><time>2026-04-26T06:09:28.991Z</time></trkpt><trkpt lat="37.99104164457154" lon="15.410392582960789"><ele>15.333333333333332</ele><time>2026-04-26T06:09:29.991Z</time></trkpt><trkpt lat="37.99088722043956" lon="15.410221881688678"><ele>15.0</ele><time>2026-04-26T06:09:30.991Z</time></trkpt><trkpt lat="37.990745692499004" lon="15.41006226894025"><ele>15.0</ele><time>2026-04-26T06:09:31.991Z</time></trkpt><trkpt lat="37.990614461283364" lon="15.409913173236427"><ele>15.0</ele><time>2026-04-26T06:09:32.991Z</time></trkpt><trkpt lat="37.99048970972644" lon="15.409763750121225"><ele>15.0</ele><time>2026-04-26T06:09:33.991Z</time></trkpt><trkpt lat="37.99036701569214" lon="15.4096135391378"><ele>16.666666666666668</ele><time>2026-04-26T06:09:34.991Z</time></trkpt><trkpt lat="37.99024580399586" lon="15.409465142352014"><ele>18.333333333333336</ele><time>2026-04-26T06:09:35.991Z</time></trkpt><trkpt lat="37.9901236365334" lon="15.409315576201077"><ele>20.0</ele><time>2026-04-26T06:09:36.991Z</time></trkpt><trkpt lat="37.9900109812026" lon="15.409177655147952"><ele>19.75</ele><time>2026-04-26T06:09:37.991Z</time></trkpt><trkpt lat="37.989904475607474" lon="15.40904726342047"><ele>19.5</ele><time>2026-04-26T06:09:38.991Z</time></trkpt><trkpt lat="37.98980355258841" lon="15.4089247640602"><ele>19.25</ele><time>2026-04-26T06:09:39.991Z</time></trkpt><trkpt lat="37.989705385860944" lon="15.408805881532748"><ele>19.0</ele><time>2026-04-26T06:09:40.991Z</time></trkpt><trkpt lat="37.989610239824344" lon="15.408691518374392"><ele>19.0</ele><time>2026-04-26T06:09:41.991Z</time></trkpt><trkpt lat="37.989501668550574" lon="15.40858812372854"><ele>19.0</ele><time>2026-04-26T06:09:42.991Z</time></trkpt><trkpt lat="37.98941579222046" lon="15.408435895331232"><ele>19.0</ele><time>2026-04-26T06:09:43.991Z</time></trkpt><trkpt lat="37.98930677454717" lon="15.40830022159402"><ele>19.0</ele><time>2026-04-26T06:09:44.991Z</time></trkpt><trkpt lat="37.98919627533806" lon="15.408166040449323"><ele>17.666666666666664</ele><time>2026-04-26T06:09:45.991Z</time></trkpt><trkpt lat="37.989077070968754" lon="15.408020026498118"><ele>16.333333333333332</ele><time>2026-04-26T06:09:46.991Z</time></trkpt><trkpt lat="37.988956112200235" lon="15.40787025209632"><ele>15.0</ele><time>2026-04-26T06:09:47.991Z</time></trkpt><trkpt lat="37.98883284262564" lon="15.407719557320839"><ele>18.0</ele><time>2026-04-26T06:09:48.991Z</time></trkpt><trkpt lat="37.98871481772288" lon="15.407569420410566"><ele>21.0</ele><time>2026-04-26T06:09:49.99Z</time></trkpt><trkpt lat="37.98858615611786" lon="15.407424705176599"><ele>24.0</ele><time>2026-04-26T06:09:50.99Z</time></trkpt><trkpt lat="37.988465850550135" lon="15.407273956906918"><ele>24.333333333333336</ele><time>2026-04-26T06:09:51.99Z</time></trkpt><trkpt lat="37.98835469782356" lon="15.407129214921076"><ele>24.666666666666668</ele><time>2026-04-26T06:09:52.99Z</time></trkpt><trkpt lat="37.9882319339081" lon="15.406996361046138"><ele>25.0</ele><time>2026-04-26T06:09:53.99Z</time></trkpt><trkpt lat="37.98811187657254" lon="15.406854346324469"><ele>25.0</ele><time>2026-04-26T06:09:54.99Z</time></trkpt><trkpt lat="37.98799407051748" lon="15.406704099783399"><ele>25.0</ele><time>2026-04-26T06:09:55.99Z</time></trkpt><trkpt lat="37.98787602643522" lon="15.406555949117092"><ele>25.0</ele><time>2026-04-26T06:09:56.99Z</time></trkpt><trkpt lat="37.987762177756146" lon="15.406419948514726"><ele>24.5</ele><time>2026-04-26T06:09:57.99Z</time></trkpt><trkpt lat="37.98764338303969" lon="15.40628921134592"><ele>24.0</ele><time>2026-04-26T06:09:58.99Z</time></trkpt><trkpt lat="37.98753943598792" lon="15.406169621042206"><ele>23.5</ele><time>2026-04-26T06:09:59.99Z</time></trkpt><trkpt lat="37.98744373009811" lon="15.406065967355868"><ele>23.0</ele><time>2026-04-26T06:10:00.99Z</time></trkpt><trkpt lat="37.987345844754614" lon="15.405967815883306"><ele>23.0</ele><time>2026-04-26T06:10:01.99Z</time></trkpt><trkpt lat="37.98724317740428" lon="15.405865690335498"><ele>23.0</ele><time>2026-04-26T06:10:02.99Z</time></trkpt><trkpt lat="37.987135780909256" lon="15.405763688429452"><ele>23.0</ele><time>2026-04-26T06:10:03.99Z</time></trkpt><trkpt lat="37.987015764368216" lon="15.405655209606124"><ele>23.0</ele><time>2026-04-26T06:10:04.99Z</time></trkpt><trkpt lat="37.986885883647744" lon="15.405538551809608"><ele>22.666666666666668</ele><time>2026-04-26T06:10:05.99Z</time></trkpt><trkpt lat="37.98675549561776" lon="15.405387626866048"><ele>22.333333333333332</ele><time>2026-04-26T06:10:06.99Z</time></trkpt><trkpt lat="37.986600541856006" lon="15.405264895070795"><ele>22.0</ele><time>2026-04-26T06:10:07.99Z</time></trkpt><trkpt lat="37.98645588605077" lon="15.405098822502588"><ele>22.0</ele><time>2026-04-26T06:10:08.99Z</time></trkpt><trkpt lat="37.986290432420454" lon="15.404952286129312"><ele>22.0</ele><time>2026-04-26T06:10:09.99Z</time></trkpt><trkpt lat="37.986117205858484" lon="15.404774685397017"><ele>22.0</ele><time>2026-04-26T06:10:10.99Z</time></trkpt><trkpt lat="37.985931168967895" lon="15.404594577941985"><ele>21.0</ele><time>2026-04-26T06:10:11.99Z</time></trkpt><trkpt lat="37.98571815085057" lon="15.4043802422353"><ele>20.0</ele><time>2026-04-26T06:10:12.99Z</time></trkpt><trkpt lat="37.985491676785855" lon="15.404154441006142"><ele>20.0</ele><time>2026-04-26T06:10:13.99Z</time></trkpt><trkpt lat="37.98524861020455" lon="15.403922863035296"><ele>20.0</ele><time>2026-04-26T06:10:14.99Z</time></trkpt><trkpt lat="37.985008709026665" lon="15.403689094165772"><ele>20.5</ele><time>2026-04-26T06:10:15.99Z</time></trkpt><trkpt lat="37.984792887685224" lon="15.403461431935304"><ele>21.0</ele><time>2026-04-26T06:10:16.99Z</time></trkpt><trkpt lat="37.984599021295104" lon="15.403269032301106"><ele>21.0</ele><time>2026-04-26T06:10:17.99Z</time></trkpt><trkpt lat="37.98442361387343" lon="15.403092151133164"><ele>21.0</ele><time>2026-04-26T06:10:18.99Z</time></trkpt><trkpt lat="37.984264553797075" lon="15.402914768643766"><ele>21.0</ele><time>2026-04-26T06:10:19.99Z</time></trkpt><trkpt lat="37.984117735084546" lon="15.402728521540224"><ele>21.333333333333332</ele><time>2026-04-26T06:10:20.99Z</time></trkpt><trkpt lat="37.98396960977668" lon="15.402532462994515"><ele>21.666666666666664</ele><time>2026-04-26T06:10:21.99Z</time></trkpt><trkpt lat="37.983817774630744" lon="15.402332496986947"><ele>22.0</ele><time>2026-04-26T06:10:22.99Z</time></trkpt><trkpt lat="37.98367433376439" lon="15.402159450807114"><ele>21.333333333333332</ele><time>2026-04-26T06:10:23.99Z</time></trkpt><trkpt lat="37.983528537272704" lon="15.401982924434378"><ele>20.666666666666668</ele><time>2026-04-26T06:10:24.989Z</time></trkpt><trkpt lat="37.983387216033485" lon="15.401806486605278"><ele>20.0</ele><time>2026-04-26T06:10:25.989Z</time></trkpt><trkpt lat="37.98324675014867" lon="15.401630660182809"><ele>20.0</ele><time>2026-04-26T06:10:26.989Z</time></trkpt><trkpt lat="37.983105090270534" lon="15.401454165649087"><ele>20.0</ele><time>2026-04-26T06:10:27.989Z</time></trkpt><trkpt lat="37.9829558399481" lon="15.40128031290434"><ele>20.0</ele><time>2026-04-26T06:10:28.989Z</time></trkpt><trkpt lat="37.98281603089359" lon="15.401115392374564"><ele>19.666666666666668</ele><time>2026-04-26T06:10:29.989Z</time></trkpt><trkpt lat="37.98267489734051" lon="15.400978186445826"><ele>19.333333333333332</ele><time>2026-04-26T06:10:30.989Z</time></trkpt><trkpt lat="37.98254495913931" lon="15.400843254018481"><ele>19.0</ele><time>2026-04-26T06:10:31.989Z</time></trkpt><trkpt lat="37.98241013774729" lon="15.400713170325886"><ele>19.0</ele><time>2026-04-26T06:10:32.989Z</time></trkpt><trkpt lat="37.982269145372804" lon="15.400573562642547"><ele>19.0</ele><time>2026-04-26T06:10:33.989Z</time></trkpt><trkpt lat="37.98211077306963" lon="15.40043346610174"><ele>19.0</ele><time>2026-04-26T06:10:34.989Z</time></trkpt><trkpt lat="37.98195358484676" lon="15.400297071446792"><ele>18.666666666666664</ele><time>2026-04-26T06:10:35.989Z</time></trkpt><trkpt lat="37.981797978711484" lon="15.400156404750277"><ele>18.333333333333332</ele><time>2026-04-26T06:10:36.989Z</time></trkpt><trkpt lat="37.98163851271886" lon="15.400020723856612"><ele>18.0</ele><time>2026-04-26T06:10:37.989Z</time></trkpt><trkpt lat="37.9815022061057" lon="15.399860815699821"><ele>18.0</ele><time>2026-04-26T06:10:38.989Z</time></trkpt><trkpt lat="37.981354363810986" lon="15.399730206391641"><ele>18.0</ele><time>2026-04-26T06:10:39.989Z</time></trkpt><trkpt lat="37.98121178255425" lon="15.399592728257206"><ele>18.0</ele><time>2026-04-26T06:10:40.989Z</time></trkpt><trkpt lat="37.981080563222" lon="15.399456395994655"><ele>18.0</ele><time>2026-04-26T06:10:41.989Z</time></trkpt><trkpt lat="37.98094741215717" lon="15.399326611111197"><ele>18.0</ele><time>2026-04-26T06:10:42.989Z</time></trkpt><trkpt lat="37.980812835538764" lon="15.399199510658585"><ele>18.0</ele><time>2026-04-26T06:10:43.989Z</time></trkpt><trkpt lat="37.98068152441637" lon="15.399070442291976"><ele>18.0</ele><time>2026-04-26T06:10:44.989Z</time></trkpt><trkpt lat="37.98056386437662" lon="15.398950790516327"><ele>18.0</ele><time>2026-04-26T06:10:45.989Z</time></trkpt><trkpt lat="37.980452957500276" lon="15.398839813623622"><ele>18.0</ele><time>2026-04-26T06:10:46.989Z</time></trkpt><trkpt lat="37.98033837750896" lon="15.398734080311025"><ele>18.0</ele><time>2026-04-26T06:10:47.989Z</time></trkpt><trkpt lat="37.98021782501783" lon="15.39862865870755"><ele>17.666666666666668</ele><time>2026-04-26T06:10:48.989Z</time></trkpt><trkpt lat="37.980085893936554" lon="15.398512792511436"><ele>17.333333333333336</ele><time>2026-04-26T06:10:49.989Z</time></trkpt><trkpt lat="37.97994994603916" lon="15.398383860746792"><ele>17.0</ele><time>2026-04-26T06:10:50.989Z</time></trkpt><trkpt lat="37.97980594813241" lon="15.398250938029413"><ele>17.0</ele><time>2026-04-26T06:10:51.989Z</time></trkpt><trkpt lat="37.97965863823348" lon="15.398131518600625"><ele>17.0</ele><time>2026-04-26T06:10:52.989Z</time></trkpt><trkpt lat="37.97952405552853" lon="15.398006582858642"><ele>17.0</ele><time>2026-04-26T06:10:53.989Z</time></trkpt><trkpt lat="37.97939431178967" lon="15.397893577615493"><ele>17.666666666666668</ele><time>2026-04-26T06:10:54.989Z</time></trkpt><trkpt lat="37.97925119726787" lon="15.397797750682194"><ele>18.333333333333332</ele><time>2026-04-26T06:10:55.989Z</time></trkpt><trkpt lat="37.97909522688377" lon="15.397708223247552"><ele>19.0</ele><time>2026-04-26T06:10:56.989Z</time></trkpt><trkpt lat="37.97892516254886" lon="15.39762682487287"><ele>19.0</ele><time>2026-04-26T06:10:57.989Z</time></trkpt><trkpt lat="37.97874193910803" lon="15.397543936757076"><ele>19.0</ele><time>2026-04-26T06:10:58.989Z</time></trkpt><trkpt lat="37.97856648443502" lon="15.397442091103025"><ele>19.0</ele><time>2026-04-26T06:10:59.989Z</time></trkpt><trkpt lat="37.978410177239795" lon="15.397342401587194"><ele>19.333333333333332</ele><time>2026-04-26T06:11:00.988Z</time></trkpt><trkpt lat="37.978253854215325" lon="15.39726038431446"><ele>19.666666666666668</ele><time>2026-04-26T06:11:01.988Z</time></trkpt><trkpt lat="37.978096636456506" lon="15.39713369282139"><ele>20.0</ele><time>2026-04-26T06:11:02.988Z</time></trkpt><trkpt lat="37.97793634215273" lon="15.39699697602687"><ele>20.0</ele><time>2026-04-26T06:11:03.988Z</time></trkpt><trkpt lat="37.977778808170996" lon="15.396864734747421"><ele>20.0</ele><time>2026-04-26T06:11:04.988Z</time></trkpt><trkpt lat="37.97762695379081" lon="15.396744708469093"><ele>20.0</ele><time>2026-04-26T06:11:05.988Z</time></trkpt><trkpt lat="37.97747707184685" lon="15.396634352791443"><ele>20.333333333333336</ele><time>2026-04-26T06:11:06.988Z</time></trkpt><trkpt lat="37.977334345256004" lon="15.396524350702432"><ele>20.666666666666668</ele><time>2026-04-26T06:11:07.988Z</time></trkpt><trkpt lat="37.97719591683128" lon="15.396409503550025"><ele>21.0</ele><time>2026-04-26T06:11:08.988Z</time></trkpt><trkpt lat="37.9770616104" lon="15.396294586384428"><ele>21.0</ele><time>2026-04-26T06:11:09.988Z</time></trkpt><trkpt lat="37.97692830046238" lon="15.39618021908449"><ele>21.0</ele><time>2026-04-26T06:11:10.988Z</time></trkpt><trkpt lat="37.976803606266344" lon="15.396070930230183"><ele>21.0</ele><time>2026-04-26T06:11:11.988Z</time></trkpt><trkpt lat="37.97669106183834" lon="15.39595840392629"><ele>20.5</ele><time>2026-04-26T06:11:12.988Z</time></trkpt><trkpt lat="37.97657481539357" lon="15.395868075657143"><ele>20.0</ele><time>2026-04-26T06:11:13.988Z</time></trkpt><trkpt lat="37.976470814214075" lon="15.39578058363027"><ele>19.5</ele><time>2026-04-26T06:11:14.988Z</time></trkpt><trkpt lat="37.97637910429637" lon="15.395701851743652"><ele>19.0</ele><time>2026-04-26T06:11:15.988Z</time></trkpt><trkpt lat="37.97629607576755" lon="15.395625835575066"><ele>19.0</ele><time>2026-04-26T06:11:16.988Z</time></trkpt><trkpt lat="37.97621846682869" lon="15.39555282648597"><ele>19.0</ele><time>2026-04-26T06:11:17.988Z</time></trkpt><trkpt lat="37.97614312766388" lon="15.395490644933874"><ele>19.0</ele><time>2026-04-26T06:11:18.988Z</time></trkpt><trkpt lat="37.9760745332615" lon="15.395434056025431"><ele>19.0</ele><time>2026-04-26T06:11:19.988Z</time></trkpt><trkpt lat="37.97601356268086" lon="15.395385292385763"><ele>19.0</ele><time>2026-04-26T06:11:20.988Z</time></trkpt><trkpt lat="37.97596377538593" lon="15.395332469428265"><ele>19.0</ele><time>2026-04-26T06:11:21.988Z</time></trkpt><trkpt lat="37.97590710229474" lon="15.395286946112533"><ele>19.285714285714285</ele><time>2026-04-26T06:11:22.988Z</time></trkpt><trkpt lat="37.97585262826443" lon="15.395240332959249"><ele>19.571428571428573</ele><time>2026-04-26T06:11:23.988Z</time></trkpt><trkpt lat="37.9757952594259" lon="15.395196316703286"><ele>19.857142857142858</ele><time>2026-04-26T06:11:24.988Z</time></trkpt><trkpt lat="37.97573873345335" lon="15.395143221298955"><ele>20.142857142857142</ele><time>2026-04-26T06:11:25.988Z</time></trkpt><trkpt lat="37.975681024801354" lon="15.395093360137764"><ele>20.42857142857143</ele><time>2026-04-26T06:11:26.988Z</time></trkpt><trkpt lat="37.975624657464195" lon="15.395051428692149"><ele>20.714285714285715</ele><time>2026-04-26T06:11:27.988Z</time></trkpt><trkpt lat="37.97556771340785" lon="15.395011086516007"><ele>21.0</ele><time>2026-04-26T06:11:28.988Z</time></trkpt><trkpt lat="37.97546109022169" lon="15.394923858458762"><ele>21.0</ele><time>2026-04-26T06:11:30.988Z</time></trkpt><trkpt lat="37.97540250305243" lon="15.394885853585736"><ele>21.0</ele><time>2026-04-26T06:11:31.988Z</time></trkpt><trkpt lat="37.97534283923507" lon="15.394846229122603"><ele>21.0</ele><time>2026-04-26T06:11:32.988Z</time></trkpt><trkpt lat="37.975248406811914" lon="15.394752336485068"><ele>21.0</ele><time>2026-04-26T06:11:34.988Z</time></trkpt><trkpt lat="37.97519744024814" lon="15.394701766747392"><ele>21.0</ele><time>2026-04-26T06:11:35.988Z</time></trkpt><trkpt lat="37.975105384142964" lon="15.39462553974567"><ele>21.0</ele><time>2026-04-26T06:11:37.987Z</time></trkpt><trkpt lat="37.97501988122417" lon="15.394568393366502"><ele>21.0</ele><time>2026-04-26T06:11:39.987Z</time></trkpt><trkpt lat="37.97494253185106" lon="15.394507725134755"><ele>21.0</ele><time>2026-04-26T06:11:41.987Z</time></trkpt><trkpt lat="37.97486955883028" lon="15.394452040180866"><ele>21.0</ele><time>2026-04-26T06:11:43.987Z</time></trkpt><trkpt lat="37.9748181995417" lon="15.394403498687854"><ele>21.0</ele><time>2026-04-26T06:11:44.987Z</time></trkpt><trkpt lat="37.9747552885111" lon="15.394352613605319"><ele>21.0</ele><time>2026-04-26T06:11:45.987Z</time></trkpt><trkpt lat="37.97469314780127" lon="15.394295943521064"><ele>21.0</ele><time>2026-04-26T06:11:46.987Z</time></trkpt><trkpt lat="37.974619438002655" lon="15.394231346898477"><ele>21.0</ele><time>2026-04-26T06:11:47.987Z</time></trkpt><trkpt lat="37.97455051152519" lon="15.394170431824666"><ele>21.0</ele><time>2026-04-26T06:11:48.987Z</time></trkpt><trkpt lat="37.974518455916986" lon="15.394046383046854"><ele>21.0</ele><time>2026-04-26T06:11:49.987Z</time></trkpt><trkpt lat="37.97443232042002" lon="15.393960571683094"><ele>21.0</ele><time>2026-04-26T06:11:50.987Z</time></trkpt><trkpt lat="37.974339397580984" lon="15.393867998529787"><ele>21.0</ele><time>2026-04-26T06:11:51.987Z</time></trkpt><trkpt lat="37.97424828671623" lon="15.3937772305168"><ele>21.0</ele><time>2026-04-26T06:11:52.987Z</time></trkpt><trkpt lat="37.9741606302228" lon="15.393689903922889"><ele>21.0</ele><time>2026-04-26T06:11:53.987Z</time></trkpt><trkpt lat="37.974073099017346" lon="15.393603628415784"><ele>21.0</ele><time>2026-04-26T06:11:54.987Z</time></trkpt><trkpt lat="37.97399435507231" lon="15.393525910552851"><ele>21.0</ele><time>2026-04-26T06:11:55.987Z</time></trkpt><trkpt lat="37.973931618768766" lon="15.393464014223271"><ele>21.0</ele><time>2026-04-26T06:11:56.987Z</time></trkpt><trkpt lat="37.97385980454147" lon="15.393393589062022"><ele>21.0</ele><time>2026-04-26T06:11:57.987Z</time></trkpt><trkpt lat="37.973809972342366" lon="15.393344720734374"><ele>21.0</ele><time>2026-04-26T06:11:58.987Z</time></trkpt><trkpt lat="37.97375022840627" lon="15.393255615875706"><ele>21.0</ele><time>2026-04-26T06:12:01.987Z</time></trkpt><trkpt lat="37.97366230797543" lon="15.393163762901157"><ele>21.0</ele><time>2026-04-26T06:12:03.987Z</time></trkpt><trkpt lat="37.9735643937584" lon="15.39307394015974"><ele>21.0</ele><time>2026-04-26T06:12:05.987Z</time></trkpt><trkpt lat="37.97346501182547" lon="15.392978580326544"><ele>21.5</ele><time>2026-04-26T06:12:07.987Z</time></trkpt><trkpt lat="37.97341310936595" lon="15.392927262886523"><ele>22.0</ele><time>2026-04-26T06:12:08.987Z</time></trkpt><trkpt lat="37.97335996201949" lon="15.392884415589055"><ele>22.5</ele><time>2026-04-26T06:12:09.987Z</time></trkpt><trkpt lat="37.97326175974866" lon="15.3928016841394"><ele>23.0</ele><time>2026-04-26T06:12:11.987Z</time></trkpt><trkpt lat="37.973207618622205" lon="15.392744133032648"><ele>23.5</ele><time>2026-04-26T06:12:12.986Z</time></trkpt><trkpt lat="37.97315113886436" lon="15.392684206958998"><ele>24.0</ele><time>2026-04-26T06:12:13.986Z</time></trkpt><trkpt lat="37.97309329979896" lon="15.392638385240584"><ele>22.666666666666668</ele><time>2026-04-26T06:12:14.986Z</time></trkpt><trkpt lat="37.973039920445046" lon="15.392584313044546"><ele>21.333333333333332</ele><time>2026-04-26T06:12:15.986Z</time></trkpt><trkpt lat="37.972999176045214" lon="15.392520853691899"><ele>20.0</ele><time>2026-04-26T06:12:16.986Z</time></trkpt><trkpt lat="37.972952711595894" lon="15.392466167314293"><ele>18.666666666666664</ele><time>2026-04-26T06:12:17.986Z</time></trkpt><trkpt lat="37.97287889369089" lon="15.392342897820617"><ele>17.333333333333332</ele><time>2026-04-26T06:12:19.986Z</time></trkpt><trkpt lat="37.972799333464735" lon="15.392224793060036"><ele>16.0</ele><time>2026-04-26T06:12:21.986Z</time></trkpt><trkpt lat="37.97274781628936" lon="15.39217790638173"><ele>16.833333333333332</ele><time>2026-04-26T06:12:22.986Z</time></trkpt><trkpt lat="37.97267966500418" lon="15.39206418221004"><ele>17.666666666666664</ele><time>2026-04-26T06:12:24.986Z</time></trkpt><trkpt lat="37.972602336609825" lon="15.391964274178576"><ele>18.5</ele><time>2026-04-26T06:12:26.986Z</time></trkpt><trkpt lat="37.97256820742151" lon="15.391890508044485"><ele>19.333333333333332</ele><time>2026-04-26T06:12:27.986Z</time></trkpt><trkpt lat="37.9725060303789" lon="15.391839917245738"><ele>20.166666666666668</ele><time>2026-04-26T06:12:28.986Z</time></trkpt><trkpt lat="37.972453320843485" lon="15.391780063683493"><ele>21.0</ele><time>2026-04-26T06:12:29.986Z</time></trkpt><trkpt lat="37.9723656110488" lon="15.391669179386634"><ele>21.0</ele><time>2026-04-26T06:12:31.986Z</time></trkpt><trkpt lat="37.97228065848698" lon="15.391587936701212"><ele>21.0</ele><time>2026-04-26T06:12:33.986Z</time></trkpt><trkpt lat="37.972168952371185" lon="15.391500304824865"><ele>21.0</ele><time>2026-04-26T06:12:35.986Z</time></trkpt><trkpt lat="37.972104912169485" lon="15.391449507800028"><ele>21.0</ele><time>2026-04-26T06:12:36.986Z</time></trkpt><trkpt lat="37.972042769712786" lon="15.391402201702455"><ele>21.0</ele><time>2026-04-26T06:12:37.986Z</time></trkpt><trkpt lat="37.971965235402" lon="15.391362286543353"><ele>20.857142857142858</ele><time>2026-04-26T06:12:38.986Z</time></trkpt><trkpt lat="37.971911261268424" lon="15.39129239480927"><ele>20.714285714285715</ele><time>2026-04-26T06:12:39.986Z</time></trkpt><trkpt lat="37.971851013065205" lon="15.391237637600677"><ele>20.57142857142857</ele><time>2026-04-26T06:12:40.986Z</time></trkpt><trkpt lat="37.97179761075565" lon="15.391184187182093"><ele>20.42857142857143</ele><time>2026-04-26T06:12:41.986Z</time></trkpt><trkpt lat="37.97174305097005" lon="15.391133705254985"><ele>20.285714285714285</ele><time>2026-04-26T06:12:42.986Z</time></trkpt><trkpt lat="37.971688209329926" lon="15.39108362617371"><ele>20.142857142857142</ele><time>2026-04-26T06:12:43.986Z</time></trkpt><trkpt lat="37.97163515177603" lon="15.391035196328735"><ele>20.0</ele><time>2026-04-26T06:12:44.986Z</time></trkpt><trkpt lat="37.971580738701476" lon="15.390986091260546"><ele>20.0</ele><time>2026-04-26T06:12:45.986Z</time></trkpt><trkpt lat="37.971481739967096" lon="15.390905587816961"><ele>20.0</ele><time>2026-04-26T06:12:47.986Z</time></trkpt><trkpt lat="37.97143048890081" lon="15.39085662186084"><ele>20.0</ele><time>2026-04-26T06:12:48.985Z</time></trkpt><trkpt lat="37.97132531352424" lon="15.39078148556964"><ele>20.0</ele><time>2026-04-26T06:12:50.985Z</time></trkpt><trkpt lat="37.97126292089416" lon="15.390725931950197"><ele>20.0</ele><time>2026-04-26T06:12:51.985Z</time></trkpt><trkpt lat="37.97120582408369" lon="15.390665381425809"><ele>20.0</ele><time>2026-04-26T06:12:52.985Z</time></trkpt><trkpt lat="37.97114694684084" lon="15.390608879736348"><ele>20.0</ele><time>2026-04-26T06:12:53.985Z</time></trkpt><trkpt lat="37.97108871723352" lon="15.390556889715556"><ele>20.0</ele><time>2026-04-26T06:12:54.985Z</time></trkpt><trkpt lat="37.97103339764021" lon="15.39049614393463"><ele>20.0</ele><time>2026-04-26T06:12:55.985Z</time></trkpt><trkpt lat="37.970979228728666" lon="15.390443443736196"><ele>20.0</ele><time>2026-04-26T06:12:56.985Z</time></trkpt><trkpt lat="37.970919355320184" lon="15.390395112860507"><ele>20.0</ele><time>2026-04-26T06:12:57.985Z</time></trkpt><trkpt lat="37.97087271921092" lon="15.390322245362873"><ele>20.0</ele><time>2026-04-26T06:12:58.985Z</time></trkpt><trkpt lat="37.97081608171814" lon="15.390254548569164"><ele>20.0</ele><time>2026-04-26T06:12:59.985Z</time></trkpt><trkpt lat="37.97075721150695" lon="15.39019765213373"><ele>20.0</ele><time>2026-04-26T06:13:00.985Z</time></trkpt><trkpt lat="37.970701628671385" lon="15.390143829478301"><ele>20.0</ele><time>2026-04-26T06:13:01.985Z</time></trkpt><trkpt lat="37.97064515135" lon="15.390088191893604"><ele>20.0</ele><time>2026-04-26T06:13:02.985Z</time></trkpt><trkpt lat="37.970588452939964" lon="15.390032498511763"><ele>20.0</ele><time>2026-04-26T06:13:03.985Z</time></trkpt><trkpt lat="37.97052831961663" lon="15.3899739215848"><ele>20.0</ele><time>2026-04-26T06:13:04.985Z</time></trkpt><trkpt lat="37.97046941123768" lon="15.389916898874604"><ele>20.0</ele><time>2026-04-26T06:13:05.985Z</time></trkpt><trkpt lat="37.9704067725275" lon="15.38986002852997"><ele>20.0</ele><time>2026-04-26T06:13:06.985Z</time></trkpt><trkpt lat="37.970342883702145" lon="15.389805683329568"><ele>20.0</ele><time>2026-04-26T06:13:07.985Z</time></trkpt><trkpt lat="37.97028126429626" lon="15.389749597114667"><ele>20.0</ele><time>2026-04-26T06:13:08.985Z</time></trkpt><trkpt lat="37.97022359868578" lon="15.389690358381255"><ele>20.0</ele><time>2026-04-26T06:13:09.985Z</time></trkpt><trkpt lat="37.9701690384683" lon="15.389630689312021"><ele>20.0</ele><time>2026-04-26T06:13:10.985Z</time></trkpt><trkpt lat="37.97011619495912" lon="15.389567221868191"><ele>20.0</ele><time>2026-04-26T06:13:11.985Z</time></trkpt><trkpt lat="37.9700621463876" lon="15.389520116041034"><ele>20.0</ele><time>2026-04-26T06:13:12.985Z</time></trkpt><trkpt lat="37.97001224732854" lon="15.389471323895899"><ele>19.833333333333336</ele><time>2026-04-26T06:13:13.985Z</time></trkpt><trkpt lat="37.9699626313873" lon="15.389420189002207"><ele>19.666666666666668</ele><time>2026-04-26T06:13:14.985Z</time></trkpt><trkpt lat="37.96990380748483" lon="15.389378030462249"><ele>19.5</ele><time>2026-04-26T06:13:15.985Z</time></trkpt><trkpt lat="37.969802646378135" lon="15.389274426115877"><ele>19.333333333333332</ele><time>2026-04-26T06:13:17.985Z</time></trkpt><trkpt lat="37.96975508636027" lon="15.389220562722539"><ele>19.166666666666664</ele><time>2026-04-26T06:13:18.985Z</time></trkpt><trkpt lat="37.96966050608691" lon="15.389134892415985"><ele>19.0</ele><time>2026-04-26T06:13:20.985Z</time></trkpt><trkpt lat="37.969575326118935" lon="15.389065418091132"><ele>19.0</ele><time>2026-04-26T06:13:22.985Z</time></trkpt><trkpt lat="37.96949037930713" lon="15.388973739793427"><ele>19.0</ele><time>2026-04-26T06:13:24.984Z</time></trkpt><trkpt lat="37.9693932816776" lon="15.388875925260509"><ele>19.0</ele><time>2026-04-26T06:13:26.984Z</time></trkpt><trkpt lat="37.9693369417416" lon="15.388830158630334"><ele>19.0</ele><time>2026-04-26T06:13:27.984Z</time></trkpt><trkpt lat="37.96928010585008" lon="15.388784323227876"><ele>19.0</ele><time>2026-04-26T06:13:28.984Z</time></trkpt><trkpt lat="37.96921643955606" lon="15.388732979446992"><ele>19.0</ele><time>2026-04-26T06:13:29.984Z</time></trkpt><trkpt lat="37.96915060890641" lon="15.388679890214622"><ele>19.0</ele><time>2026-04-26T06:13:30.984Z</time></trkpt><trkpt lat="37.969077230261824" lon="15.388620596947584"><ele>19.0</ele><time>2026-04-26T06:13:31.984Z</time></trkpt><trkpt lat="37.968991128074705" lon="15.388572613888899"><ele>19.0</ele><time>2026-04-26T06:13:32.984Z</time></trkpt><trkpt lat="37.96892490687165" lon="15.388489629964983"><ele>19.0</ele><time>2026-04-26T06:13:33.984Z</time></trkpt><trkpt lat="37.96885103913055" lon="15.388407844747062"><ele>19.0</ele><time>2026-04-26T06:13:34.984Z</time></trkpt><trkpt lat="37.96876215731529" lon="15.388345329806683"><ele>19.0</ele><time>2026-04-26T06:13:35.984Z</time></trkpt><trkpt lat="37.96867756876089" lon="15.388279079840732"><ele>19.0</ele><time>2026-04-26T06:13:36.984Z</time></trkpt><trkpt lat="37.96859559202899" lon="15.388214193081822"><ele>19.0</ele><time>2026-04-26T06:13:37.984Z</time></trkpt><trkpt lat="37.96851463265991" lon="15.388149943617591"><ele>19.0</ele><time>2026-04-26T06:13:38.984Z</time></trkpt><trkpt lat="37.96842363729332" lon="15.388077729568115"><ele>19.0</ele><time>2026-04-26T06:13:39.984Z</time></trkpt><trkpt lat="37.96832389643387" lon="15.38799857508878"><ele>19.0</ele><time>2026-04-26T06:13:40.984Z</time></trkpt><trkpt lat="37.96822383491881" lon="15.387918813074709"><ele>19.0</ele><time>2026-04-26T06:13:41.984Z</time></trkpt><trkpt lat="37.96813377136894" lon="15.387846960898493"><ele>19.0</ele><time>2026-04-26T06:13:42.984Z</time></trkpt><trkpt lat="37.96804933495156" lon="15.387779598026858"><ele>19.0</ele><time>2026-04-26T06:13:43.984Z</time></trkpt><trkpt lat="37.967969190075536" lon="15.387715816326796"><ele>19.0</ele><time>2026-04-26T06:13:44.984Z</time></trkpt><trkpt lat="37.967883038672234" lon="15.38764742724194"><ele>19.0</ele><time>2026-04-26T06:13:45.984Z</time></trkpt><trkpt lat="37.96780538797153" lon="15.387585786222651"><ele>19.0</ele><time>2026-04-26T06:13:46.984Z</time></trkpt><trkpt lat="37.96772452287721" lon="15.387521593538454"><ele>19.0</ele><time>2026-04-26T06:13:47.984Z</time></trkpt><trkpt lat="37.96765110347398" lon="15.387463696721241"><ele>19.0</ele><time>2026-04-26T06:13:48.984Z</time></trkpt><trkpt lat="37.9675773832206" lon="15.387405782528456"><ele>19.0</ele><time>2026-04-26T06:13:49.984Z</time></trkpt><trkpt lat="37.96749508125176" lon="15.387341126590952"><ele>18.599999999999998</ele><time>2026-04-26T06:13:50.984Z</time></trkpt><trkpt lat="37.967404028571785" lon="15.387269719460466"><ele>18.2</ele><time>2026-04-26T06:13:51.984Z</time></trkpt><trkpt lat="37.96730931267354" lon="15.387191602511484"><ele>17.799999999999997</ele><time>2026-04-26T06:13:52.984Z</time></trkpt><trkpt lat="37.96723172104929" lon="15.38710566476962"><ele>17.4</ele><time>2026-04-26T06:13:53.984Z</time></trkpt><trkpt lat="37.9671479055094" lon="15.38705402441851"><ele>17.0</ele><time>2026-04-26T06:13:54.984Z</time></trkpt><trkpt lat="37.967082295246016" lon="15.387001876128817"><ele>17.0</ele><time>2026-04-26T06:13:55.984Z</time></trkpt><trkpt lat="37.967016767251636" lon="15.386953348097201"><ele>17.0</ele><time>2026-04-26T06:13:56.984Z</time></trkpt><trkpt lat="37.96691519466787" lon="15.386898416185785"><ele>17.0</ele><time>2026-04-26T06:13:58.984Z</time></trkpt><trkpt lat="37.96682713900525" lon="15.38687301688951"><ele>17.0</ele><time>2026-04-26T06:14:00.983Z</time></trkpt><trkpt lat="37.96678264541475" lon="15.38679079036129"><ele>17.0</ele><time>2026-04-26T06:14:02.983Z</time></trkpt><trkpt lat="37.966714068349575" lon="15.38680308800145"><ele>17.0</ele><time>2026-04-26T06:14:08.983Z</time></trkpt><trkpt lat="37.9666790868267" lon="15.386720594754761"><ele>16.4</ele><time>2026-04-26T06:16:30.979Z</time></trkpt><trkpt lat="37.96658049359671" lon="15.386644093943442"><ele>15.799999999999999</ele><time>2026-04-26T06:16:33.979Z</time></trkpt><trkpt lat="37.96646925334538" lon="15.386553214229702"><ele>15.2</ele><time>2026-04-26T06:16:35.979Z</time></trkpt><trkpt lat="37.966406496131754" lon="15.386510325141808"><ele>14.6</ele><time>2026-04-26T06:16:36.979Z</time></trkpt><trkpt lat="37.96634891579604" lon="15.386447985997565"><ele>14.0</ele><time>2026-04-26T06:16:37.979Z</time></trkpt><trkpt lat="37.966272766641914" lon="15.386349817462344"><ele>14.428571428571429</ele><time>2026-04-26T06:16:39.979Z</time></trkpt><trkpt lat="37.96622698760476" lon="15.386294472989576"><ele>14.857142857142858</ele><time>2026-04-26T06:16:41.979Z</time></trkpt><trkpt lat="37.96616857669598" lon="15.38622660283244"><ele>15.285714285714285</ele><time>2026-04-26T06:16:43.979Z</time></trkpt><trkpt lat="37.96610624862306" lon="15.386176175685016"><ele>15.714285714285714</ele><time>2026-04-26T06:16:45.979Z</time></trkpt><trkpt lat="37.966037254796454" lon="15.386176387075395"><ele>16.142857142857142</ele><time>2026-04-26T06:18:30.976Z</time></trkpt><trkpt lat="37.96610117555511" lon="15.38617211515191"><ele>16.57142857142857</ele><time>2026-04-26T06:18:51.975Z</time></trkpt><trkpt lat="37.96602629901527" lon="15.386178598674356"><ele>17.0</ele><time>2026-04-26T06:21:29.971Z</time></trkpt><trkpt lat="37.96607291312249" lon="15.386106352055359"><ele>17.0</ele><time>2026-04-26T06:25:19.989Z</time></trkpt><trkpt lat="37.96600804845248" lon="15.386132415811609"><ele>17.0</ele><time>2026-04-26T06:27:29.989Z</time></trkpt><trkpt lat="37.96606396693996" lon="15.38619020226475"><ele>17.0</ele><time>2026-04-26T06:29:14.989Z</time></trkpt><trkpt lat="37.96616603913623" lon="15.38617756419641"><ele>17.0</ele><time>2026-04-26T06:30:48.986Z</time></trkpt><trkpt lat="37.96616994695022" lon="15.38606211247577"><ele>17.0</ele><time>2026-04-26T06:30:50.986Z</time></trkpt><trkpt lat="37.96615020668626" lon="15.385985160248095"><ele>17.0</ele><time>2026-04-26T06:30:51.986Z</time></trkpt><trkpt lat="37.96613250432785" lon="15.38585046678869"><ele>17.0</ele><time>2026-04-26T06:30:53.986Z</time></trkpt><trkpt lat="37.966143076760886" lon="15.38568578218789"><ele>17.0</ele><time>2026-04-26T06:30:55.986Z</time></trkpt><trkpt lat="37.9661643849842" lon="15.38553888094883"><ele>17.0</ele><time>2026-04-26T06:30:57.986Z</time></trkpt><trkpt lat="37.96620184716629" lon="15.385387606015101"><ele>17.0</ele><time>2026-04-26T06:30:59.985Z</time></trkpt><trkpt lat="37.966232930739444" lon="15.385305902831506"><ele>17.0</ele><time>2026-04-26T06:31:00.985Z</time></trkpt><trkpt lat="37.966284816124386" lon="15.385218312191524"><ele>17.6</ele><time>2026-04-26T06:31:01.985Z</time></trkpt><trkpt lat="37.9663182174733" lon="15.385146406126317"><ele>18.2</ele><time>2026-04-26T06:31:02.985Z</time></trkpt><trkpt lat="37.966372585832396" lon="15.3850246066755"><ele>18.8</ele><time>2026-04-26T06:31:04.985Z</time></trkpt><trkpt lat="37.96641047946455" lon="15.38489656676287"><ele>19.4</ele><time>2026-04-26T06:31:06.985Z</time></trkpt><trkpt lat="37.966529425579594" lon="15.384854503038264"><ele>20.0</ele><time>2026-04-26T06:31:08.985Z</time></trkpt><trkpt lat="37.966617419332316" lon="15.384896045453482"><ele>20.0</ele><time>2026-04-26T06:31:10.985Z</time></trkpt><trkpt lat="37.96668879981206" lon="15.385017101003426"><ele>20.0</ele><time>2026-04-26T06:31:12.985Z</time></trkpt><trkpt lat="37.96670788641029" lon="15.38513091562705"><ele>20.0</ele><time>2026-04-26T06:31:14.985Z</time></trkpt><trkpt lat="37.966740252120985" lon="15.385205875509481"><ele>20.0</ele><time>2026-04-26T06:31:16.985Z</time></trkpt><trkpt lat="37.966794863344084" lon="15.38531099296439"><ele>20.0</ele><time>2026-04-26T06:31:19.987Z</time></trkpt><trkpt lat="37.96683883893465" lon="15.385378019033967"><ele>20.0</ele><time>2026-04-26T06:31:20.987Z</time></trkpt><trkpt lat="37.966885569925" lon="15.385443265417301"><ele>20.5</ele><time>2026-04-26T06:31:21.987Z</time></trkpt><trkpt lat="37.96694433223201" lon="15.385508734433099"><ele>21.0</ele><time>2026-04-26T06:31:22.987Z</time></trkpt><trkpt lat="37.96700348346798" lon="15.385575684206794"><ele>21.5</ele><time>2026-04-26T06:31:23.986Z</time></trkpt><trkpt lat="37.96705538182001" lon="15.38563234810786"><ele>22.0</ele><time>2026-04-26T06:31:24.986Z</time></trkpt><trkpt lat="37.967122214342176" lon="15.38570255180179"><ele>22.5</ele><time>2026-04-26T06:31:26.986Z</time></trkpt><trkpt lat="37.967194855921896" lon="15.385744897254932"><ele>23.0</ele><time>2026-04-26T06:31:28.986Z</time></trkpt><trkpt lat="37.96726321722851" lon="15.385762435174733"><ele>23.0</ele><time>2026-04-26T06:31:30.986Z</time></trkpt><trkpt lat="37.967327587692246" lon="15.385773598800569"><ele>23.0</ele><time>2026-04-26T06:31:33.987Z</time></trkpt><trkpt lat="37.9674006406605" lon="15.385788098548542"><ele>23.0</ele><time>2026-04-26T06:31:55.986Z</time></trkpt><trkpt lat="37.96752788353081" lon="15.385800662991695"><ele>23.0</ele><time>2026-04-26T06:31:57.986Z</time></trkpt><trkpt lat="37.967609712055086" lon="15.385834115532287"><ele>23.0</ele><time>2026-04-26T06:31:58.986Z</time></trkpt><trkpt lat="37.96769085657731" lon="15.38586043197144"><ele>23.0</ele><time>2026-04-26T06:31:59.986Z</time></trkpt><trkpt lat="37.96777316885068" lon="15.385890791294806"><ele>23.2</ele><time>2026-04-26T06:32:00.986Z</time></trkpt><trkpt lat="37.96786358443181" lon="15.385925952227446"><ele>23.4</ele><time>2026-04-26T06:32:01.986Z</time></trkpt><trkpt lat="37.96796858724688" lon="15.385960300132075"><ele>23.599999999999998</ele><time>2026-04-26T06:32:02.986Z</time></trkpt><trkpt lat="37.968081222168266" lon="15.385991374844798"><ele>23.799999999999997</ele><time>2026-04-26T06:32:03.986Z</time></trkpt><trkpt lat="37.9682022352037" lon="15.386010929353704"><ele>24.0</ele><time>2026-04-26T06:32:04.986Z</time></trkpt><trkpt lat="37.96832393039041" lon="15.386022023319288"><ele>24.25</ele><time>2026-04-26T06:32:05.986Z</time></trkpt><trkpt lat="37.96844533979884" lon="15.386021860908478"><ele>24.5</ele><time>2026-04-26T06:32:06.986Z</time></trkpt><trkpt lat="37.96857096988986" lon="15.386009485417153"><ele>24.75</ele><time>2026-04-26T06:32:07.986Z</time></trkpt><trkpt lat="37.96868908309433" lon="15.385988979735524"><ele>25.0</ele><time>2026-04-26T06:32:08.986Z</time></trkpt><trkpt lat="37.96880018282468" lon="15.385956392362454"><ele>25.0</ele><time>2026-04-26T06:32:09.986Z</time></trkpt><trkpt lat="37.968905126322234" lon="15.385919223295481"><ele>25.0</ele><time>2026-04-26T06:32:10.986Z</time></trkpt><trkpt lat="37.96900793347979" lon="15.385871360815987"><ele>25.0</ele><time>2026-04-26T06:32:11.986Z</time></trkpt><trkpt lat="37.96910493386216" lon="15.385813572680583"><ele>25.0</ele><time>2026-04-26T06:32:12.985Z</time></trkpt><trkpt lat="37.96920845581902" lon="15.385747636680293"><ele>25.0</ele><time>2026-04-26T06:32:13.985Z</time></trkpt><trkpt lat="37.96932446700379" lon="15.385691052084752"><ele>25.5</ele><time>2026-04-26T06:32:14.985Z</time></trkpt><trkpt lat="37.969426256148175" lon="15.385554747002896"><ele>26.0</ele><time>2026-04-26T06:32:15.985Z</time></trkpt><trkpt lat="37.9695352265704" lon="15.385441957631745"><ele>26.5</ele><time>2026-04-26T06:32:16.985Z</time></trkpt><trkpt lat="37.969648115637305" lon="15.385319072483775"><ele>27.0</ele><time>2026-04-26T06:32:17.985Z</time></trkpt><trkpt lat="37.969756607215736" lon="15.385186677987198"><ele>28.0</ele><time>2026-04-26T06:32:18.985Z</time></trkpt><trkpt lat="37.96986750231252" lon="15.38504316944049"><ele>29.0</ele><time>2026-04-26T06:32:19.985Z</time></trkpt><trkpt lat="37.969981266314804" lon="15.384903041189094"><ele>30.0</ele><time>2026-04-26T06:32:20.985Z</time></trkpt><trkpt lat="37.97009477631287" lon="15.38476448965796"><ele>31.333333333333336</ele><time>2026-04-26T06:32:21.985Z</time></trkpt><trkpt lat="37.970208688513516" lon="15.384633848738051"><ele>32.66666666666667</ele><time>2026-04-26T06:32:22.985Z</time></trkpt><trkpt lat="37.970321329640356" lon="15.384478055386507"><ele>34.0</ele><time>2026-04-26T06:32:23.985Z</time></trkpt><trkpt lat="37.97041370546347" lon="15.384340850644328"><ele>34.0</ele><time>2026-04-26T06:32:24.985Z</time></trkpt><trkpt lat="37.97048894271129" lon="15.384196293212295"><ele>34.0</ele><time>2026-04-26T06:32:25.985Z</time></trkpt><trkpt lat="37.97053590054491" lon="15.384043788952042"><ele>34.0</ele><time>2026-04-26T06:32:26.985Z</time></trkpt><trkpt lat="37.9705393946098" lon="15.383868190594052"><ele>34.0</ele><time>2026-04-26T06:32:27.985Z</time></trkpt><trkpt lat="37.97051364321586" lon="15.383700412007707"><ele>34.75</ele><time>2026-04-26T06:32:28.985Z</time></trkpt><trkpt lat="37.970461681183146" lon="15.383565505812555"><ele>35.5</ele><time>2026-04-26T06:32:29.985Z</time></trkpt><trkpt lat="37.97038901931632" lon="15.383450923360614"><ele>36.25</ele><time>2026-04-26T06:32:30.985Z</time></trkpt><trkpt lat="37.970291557322135" lon="15.3833657393955"><ele>37.0</ele><time>2026-04-26T06:32:31.985Z</time></trkpt><trkpt lat="37.97016470843368" lon="15.383328377761826"><ele>36.5</ele><time>2026-04-26T06:32:32.985Z</time></trkpt><trkpt lat="37.97002258463672" lon="15.383320528013426"><ele>36.0</ele><time>2026-04-26T06:32:33.985Z</time></trkpt><trkpt lat="37.969879731386335" lon="15.383365724277056"><ele>35.5</ele><time>2026-04-26T06:32:34.985Z</time></trkpt><trkpt lat="37.969751795287735" lon="15.38346319755228"><ele>35.0</ele><time>2026-04-26T06:32:35.985Z</time></trkpt><trkpt lat="37.969634958051685" lon="15.383579256151434"><ele>35.0</ele><time>2026-04-26T06:32:36.985Z</time></trkpt><trkpt lat="37.969513465824924" lon="15.383680305576918"><ele>35.0</ele><time>2026-04-26T06:32:37.985Z</time></trkpt><trkpt lat="37.969365263547" lon="15.383740475436234"><ele>35.0</ele><time>2026-04-26T06:32:38.985Z</time></trkpt><trkpt lat="37.969213744529974" lon="15.383756646637519"><ele>34.666666666666664</ele><time>2026-04-26T06:32:39.985Z</time></trkpt><trkpt lat="37.96905328807475" lon="15.383742364547297"><ele>34.333333333333336</ele><time>2026-04-26T06:32:40.985Z</time></trkpt><trkpt lat="37.96889768855132" lon="15.383699062091326"><ele>34.0</ele><time>2026-04-26T06:32:41.985Z</time></trkpt><trkpt lat="37.96874110271472" lon="15.383636982809495"><ele>34.0</ele><time>2026-04-26T06:32:42.985Z</time></trkpt><trkpt lat="37.96858412453141" lon="15.383558635568262"><ele>34.0</ele><time>2026-04-26T06:32:43.985Z</time></trkpt><trkpt lat="37.968433071730104" lon="15.383459077165188"><ele>34.0</ele><time>2026-04-26T06:32:44.985Z</time></trkpt><trkpt lat="37.96828291176505" lon="15.383348849394046"><ele>33.0</ele><time>2026-04-26T06:32:45.985Z</time></trkpt><trkpt lat="37.96812948090346" lon="15.383236910082688"><ele>32.0</ele><time>2026-04-26T06:32:46.985Z</time></trkpt><trkpt lat="37.96796983128954" lon="15.383125144250238"><ele>31.0</ele><time>2026-04-26T06:32:47.985Z</time></trkpt><trkpt lat="37.96779912547521" lon="15.383019587335617"><ele>31.0</ele><time>2026-04-26T06:32:48.984Z</time></trkpt><trkpt lat="37.9676237620241" lon="15.382915411577802"><ele>31.0</ele><time>2026-04-26T06:32:49.984Z</time></trkpt><trkpt lat="37.96745236513517" lon="15.382805058976496"><ele>31.0</ele><time>2026-04-26T06:32:50.984Z</time></trkpt><trkpt lat="37.96727943029888" lon="15.382691286881146"><ele>31.0</ele><time>2026-04-26T06:32:51.984Z</time></trkpt><trkpt lat="37.9671030338782" lon="15.382573886167545"><ele>31.0</ele><time>2026-04-26T06:32:52.984Z</time></trkpt><trkpt lat="37.9669255467413" lon="15.382451977103962"><ele>31.0</ele><time>2026-04-26T06:32:53.984Z</time></trkpt><trkpt lat="37.96674447264275" lon="15.382332893882003"><ele>30.666666666666668</ele><time>2026-04-26T06:32:54.984Z</time></trkpt><trkpt lat="37.9665628691125" lon="15.38221055240011"><ele>30.333333333333336</ele><time>2026-04-26T06:32:55.984Z</time></trkpt><trkpt lat="37.96638143113408" lon="15.382088178599904"><ele>30.0</ele><time>2026-04-26T06:32:56.984Z</time></trkpt><trkpt lat="37.96619316737618" lon="15.381961985795328"><ele>30.0</ele><time>2026-04-26T06:32:57.984Z</time></trkpt><trkpt lat="37.96600447740712" lon="15.381831947361562"><ele>30.0</ele><time>2026-04-26T06:32:58.984Z</time></trkpt><trkpt lat="37.96581529004936" lon="15.3816975978929"><ele>30.0</ele><time>2026-04-26T06:32:59.984Z</time></trkpt><trkpt lat="37.96562183602341" lon="15.381562304938415"><ele>30.5</ele><time>2026-04-26T06:33:00.984Z</time></trkpt><trkpt lat="37.96542721333253" lon="15.3814244288905"><ele>31.0</ele><time>2026-04-26T06:33:01.984Z</time></trkpt><trkpt lat="37.96522684979721" lon="15.381286015474721"><ele>37.0</ele><time>2026-04-26T06:33:02.984Z</time></trkpt><trkpt lat="37.96502406734928" lon="15.38114708009147"><ele>43.0</ele><time>2026-04-26T06:33:03.984Z</time></trkpt><trkpt lat="37.96481243878401" lon="15.381010648500869"><ele>43.0</ele><time>2026-04-26T06:33:04.984Z</time></trkpt><trkpt lat="37.9646067344003" lon="15.380866396343546"><ele>43.0</ele><time>2026-04-26T06:33:05.984Z</time></trkpt><trkpt lat="37.96440158909513" lon="15.380706211206954"><ele>43.0</ele><time>2026-04-26T06:33:06.984Z</time></trkpt><trkpt lat="37.964193372975025" lon="15.380538581510708"><ele>43.0</ele><time>2026-04-26T06:33:07.984Z</time></trkpt><trkpt lat="37.96398846892927" lon="15.380359560555885"><ele>48.5</ele><time>2026-04-26T06:33:08.984Z</time></trkpt><trkpt lat="37.96379746206367" lon="15.380166161875646"><ele>54.0</ele><time>2026-04-26T06:33:09.984Z</time></trkpt><trkpt lat="37.96361325935045" lon="15.379959455155072"><ele>54.0</ele><time>2026-04-26T06:33:10.984Z</time></trkpt><trkpt lat="37.96343915770288" lon="15.379737370841118"><ele>54.0</ele><time>2026-04-26T06:33:11.984Z</time></trkpt><trkpt lat="37.96326055508257" lon="15.37950946748159"><ele>52.0</ele><time>2026-04-26T06:33:12.984Z</time></trkpt><trkpt lat="37.96308819016453" lon="15.379276826317849"><ele>50.0</ele><time>2026-04-26T06:33:13.984Z</time></trkpt><trkpt lat="37.962930322785425" lon="15.379014775105523"><ele>51.0</ele><time>2026-04-26T06:33:14.984Z</time></trkpt><trkpt lat="37.96277893205207" lon="15.378752811769303"><ele>52.0</ele><time>2026-04-26T06:33:15.984Z</time></trkpt><trkpt lat="37.96262238586507" lon="15.378480614949414"><ele>42.5</ele><time>2026-04-26T06:33:16.984Z</time></trkpt><trkpt lat="37.962464580172835" lon="15.37822612095644"><ele>33.0</ele><time>2026-04-26T06:33:17.984Z</time></trkpt><trkpt lat="37.962300884931935" lon="15.37796315446025"><ele>31.5</ele><time>2026-04-26T06:33:18.984Z</time></trkpt><trkpt lat="37.962128502472396" lon="15.377698689073673"><ele>30.0</ele><time>2026-04-26T06:33:19.984Z</time></trkpt><trkpt lat="37.96196335813072" lon="15.377436739226757"><ele>29.0</ele><time>2026-04-26T06:33:20.984Z</time></trkpt><trkpt lat="37.961783525771" lon="15.37717353247211"><ele>28.0</ele><time>2026-04-26T06:33:21.984Z</time></trkpt><trkpt lat="37.96160333485625" lon="15.37690765293713"><ele>25.0</ele><time>2026-04-26T06:33:22.984Z</time></trkpt><trkpt lat="37.96142217263241" lon="15.376650561516094"><ele>22.0</ele><time>2026-04-26T06:33:23.984Z</time></trkpt><trkpt lat="37.961228109285365" lon="15.376411334099279"><ele>21.0</ele><time>2026-04-26T06:33:24.983Z</time></trkpt><trkpt lat="37.96102709549563" lon="15.376182071422175"><ele>20.0</ele><time>2026-04-26T06:33:25.985Z</time></trkpt><trkpt lat="37.96082053140577" lon="15.375961915532356"><ele>20.0</ele><time>2026-04-26T06:33:26.984Z</time></trkpt><trkpt lat="37.960609944101705" lon="15.375752470269274"><ele>20.0</ele><time>2026-04-26T06:33:27.984Z</time></trkpt><trkpt lat="37.96040053873983" lon="15.37553771897169"><ele>20.0</ele><time>2026-04-26T06:33:28.985Z</time></trkpt><trkpt lat="37.96019217439865" lon="15.3753188304075"><ele>20.0</ele><time>2026-04-26T06:33:29.984Z</time></trkpt><trkpt lat="37.95998630191859" lon="15.375097541405244"><ele>20.0</ele><time>2026-04-26T06:33:30.984Z</time></trkpt><trkpt lat="37.95977961309127" lon="15.374877010879594"><ele>20.0</ele><time>2026-04-26T06:33:31.984Z</time></trkpt><trkpt lat="37.95957588719227" lon="15.374651416974622"><ele>20.0</ele><time>2026-04-26T06:33:32.984Z</time></trkpt><trkpt lat="37.95937316784208" lon="15.374428861903494"><ele>20.0</ele><time>2026-04-26T06:33:33.984Z</time></trkpt><trkpt lat="37.95917252585452" lon="15.374213022314079"><ele>21.0</ele><time>2026-04-26T06:33:34.985Z</time></trkpt><trkpt lat="37.958972495452706" lon="15.374001936913729"><ele>22.0</ele><time>2026-04-26T06:33:35.985Z</time></trkpt><trkpt lat="37.95877574999168" lon="15.373791602323395"><ele>23.5</ele><time>2026-04-26T06:33:36.985Z</time></trkpt><trkpt lat="37.95857807316288" lon="15.373580491949618"><ele>25.0</ele><time>2026-04-26T06:33:37.984Z</time></trkpt><trkpt lat="37.958375336912844" lon="15.373369307437024"><ele>24.5</ele><time>2026-04-26T06:33:38.984Z</time></trkpt><trkpt lat="37.95817981176837" lon="15.373155599781716"><ele>24.0</ele><time>2026-04-26T06:33:39.984Z</time></trkpt><trkpt lat="37.95797764062258" lon="15.37294333262718"><ele>24.0</ele><time>2026-04-26T06:33:40.984Z</time></trkpt><trkpt lat="37.95778156778996" lon="15.37272780066772"><ele>24.0</ele><time>2026-04-26T06:33:41.984Z</time></trkpt><trkpt lat="37.95758043033784" lon="15.372516981701438"><ele>24.0</ele><time>2026-04-26T06:33:42.984Z</time></trkpt><trkpt lat="37.9573801019198" lon="15.372303653540133"><ele>24.0</ele><time>2026-04-26T06:33:43.984Z</time></trkpt><trkpt lat="37.95718146829258" lon="15.37208761584514"><ele>24.0</ele><time>2026-04-26T06:33:44.984Z</time></trkpt><trkpt lat="37.956983269734344" lon="15.371872924538268"><ele>24.0</ele><time>2026-04-26T06:33:45.984Z</time></trkpt><trkpt lat="37.956777814454526" lon="15.371664606596264"><ele>24.5</ele><time>2026-04-26T06:33:46.984Z</time></trkpt><trkpt lat="37.956578767268" lon="15.371457795368798"><ele>25.0</ele><time>2026-04-26T06:33:47.984Z</time></trkpt><trkpt lat="37.95637604735353" lon="15.37125668585058"><ele>25.0</ele><time>2026-04-26T06:33:48.984Z</time></trkpt><trkpt lat="37.956170024595124" lon="15.371058127088235"><ele>25.0</ele><time>2026-04-26T06:33:49.984Z</time></trkpt><trkpt lat="37.955957678110195" lon="15.370875300907317"><ele>26.0</ele><time>2026-04-26T06:33:50.984Z</time></trkpt><trkpt lat="37.955736759752206" lon="15.370708178387403"><ele>27.0</ele><time>2026-04-26T06:33:51.984Z</time></trkpt><trkpt lat="37.95550990366277" lon="15.370550746240525"><ele>27.0</ele><time>2026-04-26T06:33:52.984Z</time></trkpt><trkpt lat="37.9552781642011" lon="15.370404236466415"><ele>27.0</ele><time>2026-04-26T06:33:53.984Z</time></trkpt><trkpt lat="37.95504414508064" lon="15.370272045114634"><ele>25.0</ele><time>2026-04-26T06:33:54.984Z</time></trkpt><trkpt lat="37.95480419366874" lon="15.37014524412702"><ele>23.0</ele><time>2026-04-26T06:33:55.983Z</time></trkpt><trkpt lat="37.95456319649329" lon="15.370022974560216"><ele>23.0</ele><time>2026-04-26T06:33:56.983Z</time></trkpt><trkpt lat="37.954319448445496" lon="15.369896635380478"><ele>23.0</ele><time>2026-04-26T06:33:57.983Z</time></trkpt><trkpt lat="37.95408296150184" lon="15.369770230727772"><ele>25.0</ele><time>2026-04-26T06:33:58.983Z</time></trkpt><trkpt lat="37.95384302791663" lon="15.369642515854387"><ele>27.0</ele><time>2026-04-26T06:33:59.983Z</time></trkpt><trkpt lat="37.95360385914055" lon="15.369512969685825"><ele>29.0</ele><time>2026-04-26T06:34:00.983Z</time></trkpt><trkpt lat="37.953364352477465" lon="15.369378337927762"><ele>31.0</ele><time>2026-04-26T06:34:01.983Z</time></trkpt><trkpt lat="37.95312495980373" lon="15.369254209593404"><ele>31.0</ele><time>2026-04-26T06:34:02.983Z</time></trkpt><trkpt lat="37.95288673581547" lon="15.369124702189772"><ele>31.0</ele><time>2026-04-26T06:34:03.983Z</time></trkpt><trkpt lat="37.9526467193088" lon="15.368987510564844"><ele>47.0</ele><time>2026-04-26T06:34:04.983Z</time></trkpt><trkpt lat="37.95241511970298" lon="15.368838233852932"><ele>63.0</ele><time>2026-04-26T06:34:05.983Z</time></trkpt><trkpt lat="37.952189642391765" lon="15.368670042527546"><ele>63.0</ele><time>2026-04-26T06:34:06.983Z</time></trkpt><trkpt lat="37.951975823681074" lon="15.368483913643512"><ele>63.0</ele><time>2026-04-26T06:34:07.983Z</time></trkpt><trkpt lat="37.95177414114052" lon="15.36827763262004"><ele>62.0</ele><time>2026-04-26T06:34:08.983Z</time></trkpt><trkpt lat="37.951586029736575" lon="15.368053511460664"><ele>61.0</ele><time>2026-04-26T06:34:09.983Z</time></trkpt><trkpt lat="37.95140096988592" lon="15.367829791973575"><ele>61.0</ele><time>2026-04-26T06:34:10.983Z</time></trkpt><trkpt lat="37.95121656569049" lon="15.367610959716849"><ele>61.0</ele><time>2026-04-26T06:34:11.983Z</time></trkpt><trkpt lat="37.95103486787719" lon="15.367392651207474"><ele>65.0</ele><time>2026-04-26T06:34:12.983Z</time></trkpt><trkpt lat="37.95084929169913" lon="15.367184203187922"><ele>69.0</ele><time>2026-04-26T06:34:13.983Z</time></trkpt><trkpt lat="37.95065383912729" lon="15.366976808730955"><ele>69.0</ele><time>2026-04-26T06:34:14.983Z</time></trkpt><trkpt lat="37.950460916545495" lon="15.366784169350293"><ele>69.0</ele><time>2026-04-26T06:34:15.983Z</time></trkpt><trkpt lat="37.950263428464496" lon="15.366602683599089"><ele>69.0</ele><time>2026-04-26T06:34:16.983Z</time></trkpt><trkpt lat="37.95005652862575" lon="15.366431949973611"><ele>69.0</ele><time>2026-04-26T06:34:17.983Z</time></trkpt><trkpt lat="37.94984014689653" lon="15.366272829121364"><ele>69.5</ele><time>2026-04-26T06:34:18.983Z</time></trkpt><trkpt lat="37.949629812226874" lon="15.366111712295133"><ele>70.0</ele><time>2026-04-26T06:34:19.983Z</time></trkpt><trkpt lat="37.94940408803392" lon="15.365972346075493"><ele>67.0</ele><time>2026-04-26T06:34:20.983Z</time></trkpt><trkpt lat="37.94918528354586" lon="15.365835396036656"><ele>64.0</ele><time>2026-04-26T06:34:21.983Z</time></trkpt><trkpt lat="37.948970608303426" lon="15.365696585449063"><ele>64.0</ele><time>2026-04-26T06:34:22.983Z</time></trkpt><trkpt lat="37.9487571784647" lon="15.3655601572806"><ele>64.0</ele><time>2026-04-26T06:34:23.983Z</time></trkpt><trkpt lat="37.94853665468688" lon="15.365415418182263"><ele>64.5</ele><time>2026-04-26T06:34:24.983Z</time></trkpt><trkpt lat="37.94832608979366" lon="15.365272259889254"><ele>65.0</ele><time>2026-04-26T06:34:25.983Z</time></trkpt><trkpt lat="37.94812238361494" lon="15.365130939599862"><ele>65.0</ele><time>2026-04-26T06:34:26.983Z</time></trkpt><trkpt lat="37.94792177511219" lon="15.364989872415137"><ele>65.0</ele><time>2026-04-26T06:34:27.983Z</time></trkpt><trkpt lat="37.94771676021019" lon="15.364851161764616"><ele>64.5</ele><time>2026-04-26T06:34:28.983Z</time></trkpt><trkpt lat="37.94751230235794" lon="15.364711183070757"><ele>64.0</ele><time>2026-04-26T06:34:29.983Z</time></trkpt><trkpt lat="37.94730266196049" lon="15.364575873032383"><ele>64.0</ele><time>2026-04-26T06:34:30.983Z</time></trkpt><trkpt lat="37.94708986075796" lon="15.364439054954856"><ele>64.0</ele><time>2026-04-26T06:34:31.982Z</time></trkpt><trkpt lat="37.946861743151864" lon="15.364290832545771"><ele>62.0</ele><time>2026-04-26T06:34:32.982Z</time></trkpt><trkpt lat="37.94662559260259" lon="15.364147042306117"><ele>60.0</ele><time>2026-04-26T06:34:33.982Z</time></trkpt><trkpt lat="37.946382700814915" lon="15.36399611328397"><ele>63.5</ele><time>2026-04-26T06:34:34.982Z</time></trkpt><trkpt lat="37.94613648855268" lon="15.36383329768205"><ele>67.0</ele><time>2026-04-26T06:34:35.982Z</time></trkpt><trkpt lat="37.94588148902714" lon="15.363664612184198"><ele>63.5</ele><time>2026-04-26T06:34:36.982Z</time></trkpt><trkpt lat="37.945633863625766" lon="15.363494426748975"><ele>60.0</ele><time>2026-04-26T06:34:37.982Z</time></trkpt><trkpt lat="37.94538664495875" lon="15.363324182888936"><ele>60.0</ele><time>2026-04-26T06:34:38.982Z</time></trkpt><trkpt lat="37.94514900918483" lon="15.363139965989802"><ele>60.0</ele><time>2026-04-26T06:34:39.982Z</time></trkpt><trkpt lat="37.944910026679764" lon="15.362945922734735"><ele>59.0</ele><time>2026-04-26T06:34:40.982Z</time></trkpt><trkpt lat="37.94467603436972" lon="15.36274396318063"><ele>58.0</ele><time>2026-04-26T06:34:41.982Z</time></trkpt><trkpt lat="37.944436820214044" lon="15.362542633521672"><ele>56.0</ele><time>2026-04-26T06:34:42.982Z</time></trkpt><trkpt lat="37.9442012575049" lon="15.362345007823732"><ele>54.0</ele><time>2026-04-26T06:34:43.982Z</time></trkpt><trkpt lat="37.943962642242546" lon="15.362156012015102"><ele>60.5</ele><time>2026-04-26T06:34:44.982Z</time></trkpt><trkpt lat="37.94372754489446" lon="15.361962230589931"><ele>67.0</ele><time>2026-04-26T06:34:45.982Z</time></trkpt><trkpt lat="37.943493704916115" lon="15.36176649083628"><ele>64.5</ele><time>2026-04-26T06:34:46.982Z</time></trkpt><trkpt lat="37.943261096351264" lon="15.361580801717052"><ele>62.0</ele><time>2026-04-26T06:34:47.982Z</time></trkpt><trkpt lat="37.94303271209718" lon="15.361396172387025"><ele>61.5</ele><time>2026-04-26T06:34:48.982Z</time></trkpt><trkpt lat="37.94280770244139" lon="15.361207574328757"><ele>61.0</ele><time>2026-04-26T06:34:49.982Z</time></trkpt><trkpt lat="37.9425854453895" lon="15.36101576271702"><ele>50.0</ele><time>2026-04-26T06:34:50.982Z</time></trkpt><trkpt lat="37.94236991834342" lon="15.360818541168026"><ele>39.0</ele><time>2026-04-26T06:34:51.982Z</time></trkpt><trkpt lat="37.94215695774907" lon="15.36061583210125"><ele>39.0</ele><time>2026-04-26T06:34:52.982Z</time></trkpt><trkpt lat="37.941947714741445" lon="15.360401052842455"><ele>39.0</ele><time>2026-04-26T06:34:53.982Z</time></trkpt><trkpt lat="37.94174543214727" lon="15.360180150884538"><ele>37.0</ele><time>2026-04-26T06:34:54.982Z</time></trkpt><trkpt lat="37.94154693171288" lon="15.359949779314272"><ele>35.0</ele><time>2026-04-26T06:34:55.982Z</time></trkpt><trkpt lat="37.941354393035894" lon="15.359707134803829"><ele>37.5</ele><time>2026-04-26T06:34:56.982Z</time></trkpt><trkpt lat="37.94116651629042" lon="15.359459390057454"><ele>40.0</ele><time>2026-04-26T06:34:57.982Z</time></trkpt><trkpt lat="37.9409837586645" lon="15.359206275141448"><ele>40.0</ele><time>2026-04-26T06:34:58.982Z</time></trkpt><trkpt lat="37.940799672101306" lon="15.358947497342106"><ele>40.0</ele><time>2026-04-26T06:34:59.982Z</time></trkpt><trkpt lat="37.94060369317888" lon="15.358697066587338"><ele>41.5</ele><time>2026-04-26T06:35:00.982Z</time></trkpt><trkpt lat="37.94041130338856" lon="15.358445634121487"><ele>43.0</ele><time>2026-04-26T06:35:01.982Z</time></trkpt><trkpt lat="37.940216439273264" lon="15.358189531368831"><ele>47.5</ele><time>2026-04-26T06:35:02.982Z</time></trkpt><trkpt lat="37.94002346142389" lon="15.357933485367406"><ele>52.0</ele><time>2026-04-26T06:35:03.982Z</time></trkpt><trkpt lat="37.93982484411257" lon="15.35767355957517"><ele>52.0</ele><time>2026-04-26T06:35:04.982Z</time></trkpt><trkpt lat="37.93962931495838" lon="15.357413343301472"><ele>52.0</ele><time>2026-04-26T06:35:05.982Z</time></trkpt><trkpt lat="37.939438591339396" lon="15.357160590300753"><ele>54.0</ele><time>2026-04-26T06:35:06.982Z</time></trkpt><trkpt lat="37.9392338492568" lon="15.356903480603702"><ele>56.0</ele><time>2026-04-26T06:35:07.981Z</time></trkpt><trkpt lat="37.93905356403155" lon="15.356645001384564"><ele>53.5</ele><time>2026-04-26T06:35:08.981Z</time></trkpt><trkpt lat="37.93884747742459" lon="15.356387912537937"><ele>51.0</ele><time>2026-04-26T06:35:09.981Z</time></trkpt><trkpt lat="37.93864558559721" lon="15.35612424904945"><ele>51.0</ele><time>2026-04-26T06:35:10.981Z</time></trkpt><trkpt lat="37.938448051585695" lon="15.355857407743"><ele>51.0</ele><time>2026-04-26T06:35:11.981Z</time></trkpt><trkpt lat="37.9382517672483" lon="15.355592404314041"><ele>43.5</ele><time>2026-04-26T06:35:12.981Z</time></trkpt><trkpt lat="37.93805661520675" lon="15.35532606364662"><ele>36.0</ele><time>2026-04-26T06:35:13.981Z</time></trkpt><trkpt lat="37.9378634372031" lon="15.355059380161174"><ele>36.0</ele><time>2026-04-26T06:35:14.981Z</time></trkpt><trkpt lat="37.93767412702597" lon="15.354807947087288"><ele>36.0</ele><time>2026-04-26T06:35:15.981Z</time></trkpt><trkpt lat="37.93747402640819" lon="15.354557253070467"><ele>33.5</ele><time>2026-04-26T06:35:16.981Z</time></trkpt><trkpt lat="37.93727450261293" lon="15.354309454893734"><ele>31.0</ele><time>2026-04-26T06:35:17.981Z</time></trkpt><trkpt lat="37.93707199431556" lon="15.354064411450937"><ele>29.0</ele><time>2026-04-26T06:35:18.981Z</time></trkpt><trkpt lat="37.936868342089035" lon="15.353822417997597"><ele>27.0</ele><time>2026-04-26T06:35:19.981Z</time></trkpt><trkpt lat="37.93664976900662" lon="15.353595371142386"><ele>27.0</ele><time>2026-04-26T06:35:20.981Z</time></trkpt><trkpt lat="37.93642983432015" lon="15.353380002763078"><ele>27.0</ele><time>2026-04-26T06:35:21.981Z</time></trkpt><trkpt lat="37.9362076980932" lon="15.353170119593015"><ele>24.5</ele><time>2026-04-26T06:35:22.981Z</time></trkpt><trkpt lat="37.935974652988925" lon="15.352969023732404"><ele>22.0</ele><time>2026-04-26T06:35:23.981Z</time></trkpt><trkpt lat="37.935733760297104" lon="15.35278128565835"><ele>20.0</ele><time>2026-04-26T06:35:24.981Z</time></trkpt><trkpt lat="37.93548783519797" lon="15.352593969104838"><ele>18.0</ele><time>2026-04-26T06:35:25.981Z</time></trkpt><trkpt lat="37.93523353674612" lon="15.352410529423612"><ele>17.0</ele><time>2026-04-26T06:35:26.981Z</time></trkpt><trkpt lat="37.934973164345706" lon="15.352233707839416"><ele>16.0</ele><time>2026-04-26T06:35:27.981Z</time></trkpt><trkpt lat="37.93470693121158" lon="15.352065596939527"><ele>15.5</ele><time>2026-04-26T06:35:28.981Z</time></trkpt><trkpt lat="37.93444346837306" lon="15.351904630126038"><ele>15.0</ele><time>2026-04-26T06:35:29.981Z</time></trkpt><trkpt lat="37.93418095816545" lon="15.351743903077363"><ele>13.5</ele><time>2026-04-26T06:35:30.981Z</time></trkpt><trkpt lat="37.93391661562912" lon="15.351590790193397"><ele>12.0</ele><time>2026-04-26T06:35:31.982Z</time></trkpt><trkpt lat="37.93365586752126" lon="15.351445112541123"><ele>13.5</ele><time>2026-04-26T06:35:32.982Z</time></trkpt><trkpt lat="37.93339489639134" lon="15.351299429766064"><ele>15.0</ele><time>2026-04-26T06:35:33.982Z</time></trkpt><trkpt lat="37.93313631031415" lon="15.351156531237727"><ele>16.0</ele><time>2026-04-26T06:35:34.983Z</time></trkpt><trkpt lat="37.932877233417784" lon="15.351027205969043"><ele>17.0</ele><time>2026-04-26T06:35:35.982Z</time></trkpt><trkpt lat="37.93261100798647" lon="15.350915069981243"><ele>17.5</ele><time>2026-04-26T06:35:36.982Z</time></trkpt><trkpt lat="37.93234100954192" lon="15.350824565997556"><ele>18.0</ele><time>2026-04-26T06:35:37.982Z</time></trkpt><trkpt lat="37.93206803037754" lon="15.350768289739335"><ele>18.0</ele><time>2026-04-26T06:35:38.982Z</time></trkpt><trkpt lat="37.93179264186396" lon="15.350732661678375"><ele>18.0</ele><time>2026-04-26T06:35:39.982Z</time></trkpt><trkpt lat="37.931515176845615" lon="15.350720520655418"><ele>19.0</ele><time>2026-04-26T06:35:40.982Z</time></trkpt><trkpt lat="37.93124172530077" lon="15.350723773043908"><ele>20.0</ele><time>2026-04-26T06:35:41.982Z</time></trkpt><trkpt lat="37.930964350875875" lon="15.350733011372169"><ele>22.5</ele><time>2026-04-26T06:35:42.982Z</time></trkpt><trkpt lat="37.93068814497088" lon="15.35075200371771"><ele>25.0</ele><time>2026-04-26T06:35:43.983Z</time></trkpt><trkpt lat="37.9304144845446" lon="15.35076974472885"><ele>25.0</ele><time>2026-04-26T06:35:44.982Z</time></trkpt><trkpt lat="37.9301394262697" lon="15.350786311231836"><ele>25.0</ele><time>2026-04-26T06:35:45.982Z</time></trkpt><trkpt lat="37.92986301086881" lon="15.35078832501128"><ele>26.0</ele><time>2026-04-26T06:35:46.982Z</time></trkpt><trkpt lat="37.929581186802444" lon="15.350789159251145"><ele>27.0</ele><time>2026-04-26T06:35:47.982Z</time></trkpt><trkpt lat="37.9293038195858" lon="15.350767872078531"><ele>25.5</ele><time>2026-04-26T06:35:48.982Z</time></trkpt><trkpt lat="37.929024554532724" lon="15.350726612190863"><ele>24.0</ele><time>2026-04-26T06:35:49.982Z</time></trkpt><trkpt lat="37.92874492399831" lon="15.350662139706433"><ele>24.0</ele><time>2026-04-26T06:35:50.982Z</time></trkpt><trkpt lat="37.92847630909439" lon="15.350565525879801"><ele>24.0</ele><time>2026-04-26T06:35:51.982Z</time></trkpt><trkpt lat="37.92820220574943" lon="15.350463463716656"><ele>35.5</ele><time>2026-04-26T06:35:52.982Z</time></trkpt><trkpt lat="37.92793472319572" lon="15.350337358693482"><ele>47.0</ele><time>2026-04-26T06:35:53.982Z</time></trkpt><trkpt lat="37.927680286733434" lon="15.350187055784264"><ele>37.5</ele><time>2026-04-26T06:35:54.982Z</time></trkpt><trkpt lat="37.92743732078447" lon="15.350004458462886"><ele>28.0</ele><time>2026-04-26T06:35:55.982Z</time></trkpt><trkpt lat="37.92720583442134" lon="15.349782412108713"><ele>37.0</ele><time>2026-04-26T06:35:56.982Z</time></trkpt><trkpt lat="37.92697718366191" lon="15.349560135117116"><ele>46.0</ele><time>2026-04-26T06:35:57.982Z</time></trkpt><trkpt lat="37.92675076767594" lon="15.349313034027192"><ele>44.5</ele><time>2026-04-26T06:35:58.982Z</time></trkpt><trkpt lat="37.92653329566151" lon="15.34906619358072"><ele>43.0</ele><time>2026-04-26T06:35:59.982Z</time></trkpt><trkpt lat="37.926321224202326" lon="15.348813160210579"><ele>43.0</ele><time>2026-04-26T06:36:00.982Z</time></trkpt><trkpt lat="37.9261025972686" lon="15.348561241447358"><ele>43.0</ele><time>2026-04-26T06:36:01.982Z</time></trkpt><trkpt lat="37.92588522749568" lon="15.348315543587375"><ele>35.5</ele><time>2026-04-26T06:36:02.982Z</time></trkpt><trkpt lat="37.925663354804946" lon="15.348070871276981"><ele>28.0</ele><time>2026-04-26T06:36:03.982Z</time></trkpt><trkpt lat="37.925445353141654" lon="15.347830114019501"><ele>28.0</ele><time>2026-04-26T06:36:04.982Z</time></trkpt><trkpt lat="37.92522377307409" lon="15.34759029075436"><ele>28.0</ele><time>2026-04-26T06:36:05.982Z</time></trkpt><trkpt lat="37.925008032932396" lon="15.347345500998015"><ele>39.0</ele><time>2026-04-26T06:36:06.982Z</time></trkpt><trkpt lat="37.92479148732069" lon="15.347107699088204"><ele>50.0</ele><time>2026-04-26T06:36:07.982Z</time></trkpt><trkpt lat="37.92457570842434" lon="15.346869675362319"><ele>50.0</ele><time>2026-04-26T06:36:08.982Z</time></trkpt><trkpt lat="37.924366635569406" lon="15.346626683972586"><ele>50.0</ele><time>2026-04-26T06:36:09.982Z</time></trkpt><trkpt lat="37.924172578318284" lon="15.346369205528505"><ele>51.5</ele><time>2026-04-26T06:36:10.982Z</time></trkpt><trkpt lat="37.92398184175484" lon="15.346112267511796"><ele>53.0</ele><time>2026-04-26T06:36:11.982Z</time></trkpt><trkpt lat="37.923789032021205" lon="15.345867685999803"><ele>53.0</ele><time>2026-04-26T06:36:12.982Z</time></trkpt><trkpt lat="37.92359551080894" lon="15.345620692847184"><ele>53.0</ele><time>2026-04-26T06:36:13.982Z</time></trkpt><trkpt lat="37.92339492380784" lon="15.345372125013027"><ele>47.5</ele><time>2026-04-26T06:36:14.982Z</time></trkpt><trkpt lat="37.92319556733961" lon="15.345129796604141"><ele>42.0</ele><time>2026-04-26T06:36:15.982Z</time></trkpt><trkpt lat="37.92298559809605" lon="15.34489939210748"><ele>44.0</ele><time>2026-04-26T06:36:16.982Z</time></trkpt><trkpt lat="37.9227527739407" lon="15.344691904758777"><ele>46.0</ele><time>2026-04-26T06:36:17.981Z</time></trkpt><trkpt lat="37.92252179183011" lon="15.34448905074452"><ele>46.0</ele><time>2026-04-26T06:36:18.981Z</time></trkpt><trkpt lat="37.92229340112085" lon="15.344280494430443"><ele>46.0</ele><time>2026-04-26T06:36:19.981Z</time></trkpt><trkpt lat="37.92204297314402" lon="15.344087921781558"><ele>39.0</ele><time>2026-04-26T06:36:20.981Z</time></trkpt><trkpt lat="37.92169668328061" lon="15.344036279822413"><ele>32.0</ele><time>2026-04-26T06:36:21.981Z</time></trkpt><trkpt lat="37.9213724047645" lon="15.343955183986093"><ele>32.0</ele><time>2026-04-26T06:36:22.981Z</time></trkpt><trkpt lat="37.92105755668469" lon="15.343883913565442"><ele>32.0</ele><time>2026-04-26T06:36:23.981Z</time></trkpt><trkpt lat="37.92072549300465" lon="15.343831029732597"><ele>40.5</ele><time>2026-04-26T06:36:24.981Z</time></trkpt><trkpt lat="37.920385169335574" lon="15.343792885991562"><ele>49.0</ele><time>2026-04-26T06:36:25.981Z</time></trkpt><trkpt lat="37.92005168037621" lon="15.343768312100739"><ele>49.0</ele><time>2026-04-26T06:36:26.981Z</time></trkpt><trkpt lat="37.919728595344836" lon="15.343745039595392"><ele>49.0</ele><time>2026-04-26T06:36:27.981Z</time></trkpt><trkpt lat="37.919415877632765" lon="15.343727204189882"><ele>48.0</ele><time>2026-04-26T06:36:28.981Z</time></trkpt><trkpt lat="37.91910311646514" lon="15.343690218602463"><ele>47.0</ele><time>2026-04-26T06:36:29.981Z</time></trkpt><trkpt lat="37.918796584164355" lon="15.34364896630455"><ele>47.0</ele><time>2026-04-26T06:36:30.981Z</time></trkpt><trkpt lat="37.91849287723907" lon="15.343579935947497"><ele>47.0</ele><time>2026-04-26T06:36:31.981Z</time></trkpt><trkpt lat="37.91818683576068" lon="15.343510784166773"><ele>41.5</ele><time>2026-04-26T06:36:32.981Z</time></trkpt><trkpt lat="37.91788224170476" lon="15.343425549905792"><ele>36.0</ele><time>2026-04-26T06:36:33.981Z</time></trkpt><trkpt lat="37.91758119897505" lon="15.343318471610425"><ele>32.0</ele><time>2026-04-26T06:36:34.981Z</time></trkpt><trkpt lat="37.917277621151726" lon="15.343188452226672"><ele>28.0</ele><time>2026-04-26T06:36:35.981Z</time></trkpt><trkpt lat="37.91696933090019" lon="15.343050444668926"><ele>44.0</ele><time>2026-04-26T06:36:36.981Z</time></trkpt><trkpt lat="37.91665845308878" lon="15.342898610001518"><ele>60.0</ele><time>2026-04-26T06:36:37.981Z</time></trkpt><trkpt lat="37.91634910240903" lon="15.342746065218341"><ele>60.0</ele><time>2026-04-26T06:36:38.981Z</time></trkpt><trkpt lat="37.91603864805358" lon="15.342595453272107"><ele>60.0</ele><time>2026-04-26T06:36:39.981Z</time></trkpt><trkpt lat="37.915721465299505" lon="15.342463245357695"><ele>71.5</ele><time>2026-04-26T06:36:40.981Z</time></trkpt><trkpt lat="37.91540508322041" lon="15.342308012463265"><ele>83.0</ele><time>2026-04-26T06:36:41.981Z</time></trkpt><trkpt lat="37.91510274927943" lon="15.342147295072612"><ele>108.0</ele><time>2026-04-26T06:36:42.981Z</time></trkpt><trkpt lat="37.91481212305146" lon="15.341994399342205"><ele>133.0</ele><time>2026-04-26T06:36:43.981Z</time></trkpt><trkpt lat="37.914521043368396" lon="15.34184658954726"><ele>152.5</ele><time>2026-04-26T06:36:44.981Z</time></trkpt><trkpt lat="37.914217932516095" lon="15.341702364512624"><ele>172.0</ele><time>2026-04-26T06:36:45.981Z</time></trkpt><trkpt lat="37.90777123013824" lon="15.335034525295248"><ele>104.0</ele><time>2026-04-26T06:37:05.98Z</time></trkpt><trkpt lat="37.90742780911708" lon="15.334997132111395"><ele>36.0</ele><time>2026-04-26T06:37:06.98Z</time></trkpt><trkpt lat="37.907226215043174" lon="15.334356714912166"><ele>36.0</ele><time>2026-04-26T06:37:07.98Z</time></trkpt><trkpt lat="37.90702916534793" lon="15.33396631997449"><ele>36.0</ele><time>2026-04-26T06:37:08.98Z</time></trkpt><trkpt lat="37.90683406610728" lon="15.333608714700965"><ele>29.0</ele><time>2026-04-26T06:37:09.98Z</time></trkpt><trkpt lat="37.90662535627491" lon="15.333263487106882"><ele>22.0</ele><time>2026-04-26T06:37:10.98Z</time></trkpt><trkpt lat="37.90640415328178" lon="15.332950265879225"><ele>22.0</ele><time>2026-04-26T06:37:11.98Z</time></trkpt><trkpt lat="37.906198465849776" lon="15.332646747515776"><ele>22.0</ele><time>2026-04-26T06:37:12.98Z</time></trkpt><trkpt lat="37.90599027427915" lon="15.332365723756096"><ele>37.0</ele><time>2026-04-26T06:37:13.98Z</time></trkpt><trkpt lat="37.90577409685774" lon="15.332079430212824"><ele>52.0</ele><time>2026-04-26T06:37:14.98Z</time></trkpt><trkpt lat="37.90554715965109" lon="15.331800411673228"><ele>52.0</ele><time>2026-04-26T06:37:15.98Z</time></trkpt><trkpt lat="37.9053216620927" lon="15.331538213707464"><ele>52.0</ele><time>2026-04-26T06:37:16.98Z</time></trkpt><trkpt lat="37.90510146291683" lon="15.331271105842562"><ele>76.0</ele><time>2026-04-26T06:37:17.98Z</time></trkpt><trkpt lat="37.90487740959197" lon="15.331015860044682"><ele>100.0</ele><time>2026-04-26T06:37:18.98Z</time></trkpt><trkpt lat="37.9046352613286" lon="15.330798321882828"><ele>100.0</ele><time>2026-04-26T06:37:19.98Z</time></trkpt><trkpt lat="37.904386360530616" lon="15.330591213804265"><ele>100.0</ele><time>2026-04-26T06:37:20.98Z</time></trkpt><trkpt lat="37.904141446857004" lon="15.330396660393623"><ele>91.0</ele><time>2026-04-26T06:37:21.98Z</time></trkpt><trkpt lat="37.90388605154114" lon="15.330208083281875"><ele>82.0</ele><time>2026-04-26T06:37:22.98Z</time></trkpt><trkpt lat="37.90360824487577" lon="15.330005278663116"><ele>76.5</ele><time>2026-04-26T06:37:23.98Z</time></trkpt><trkpt lat="37.90330668990182" lon="15.329786545100882"><ele>71.0</ele><time>2026-04-26T06:37:24.98Z</time></trkpt><trkpt lat="37.903007285521745" lon="15.32956959096816"><ele>71.0</ele><time>2026-04-26T06:37:25.98Z</time></trkpt><trkpt lat="37.90273222236756" lon="15.329370255322592"><ele>71.0</ele><time>2026-04-26T06:37:26.98Z</time></trkpt><trkpt lat="37.902471918621536" lon="15.329181404087523"><ele>66.0</ele><time>2026-04-26T06:37:27.98Z</time></trkpt><trkpt lat="37.90220702637998" lon="15.328989223849275"><ele>61.0</ele><time>2026-04-26T06:37:28.98Z</time></trkpt><trkpt lat="37.90194139252808" lon="15.328810226439037"><ele>63.0</ele><time>2026-04-26T06:37:29.979Z</time></trkpt><trkpt lat="37.90167479033799" lon="15.328628917736657"><ele>65.0</ele><time>2026-04-26T06:37:30.979Z</time></trkpt><trkpt lat="37.90141196812368" lon="15.32845318192149"><ele>65.0</ele><time>2026-04-26T06:37:31.979Z</time></trkpt><trkpt lat="37.90115685532928" lon="15.328288836953549"><ele>65.0</ele><time>2026-04-26T06:37:32.979Z</time></trkpt><trkpt lat="37.900898723141694" lon="15.328112905311704"><ele>64.5</ele><time>2026-04-26T06:37:33.979Z</time></trkpt><trkpt lat="37.900641570754125" lon="15.327915207878593"><ele>64.0</ele><time>2026-04-26T06:37:34.979Z</time></trkpt><trkpt lat="37.90038880291944" lon="15.327713921471544"><ele>64.0</ele><time>2026-04-26T06:37:35.979Z</time></trkpt><trkpt lat="37.900139814594176" lon="15.327495214872757"><ele>64.0</ele><time>2026-04-26T06:37:36.981Z</time></trkpt><trkpt lat="37.89989317110293" lon="15.3272641248696"><ele>68.0</ele><time>2026-04-26T06:37:37.98Z</time></trkpt><trkpt lat="37.8996447921781" lon="15.327021901179654"><ele>72.0</ele><time>2026-04-26T06:37:38.98Z</time></trkpt><trkpt lat="37.89939941383305" lon="15.326760774590468"><ele>68.5</ele><time>2026-04-26T06:37:39.981Z</time></trkpt><trkpt lat="37.89915738219274" lon="15.326492571626831"><ele>65.0</ele><time>2026-04-26T06:37:40.981Z</time></trkpt><trkpt lat="37.89892610661775" lon="15.326211754123623"><ele>65.0</ele><time>2026-04-26T06:37:41.981Z</time></trkpt><trkpt lat="37.89869872231013" lon="15.325934959257573"><ele>65.0</ele><time>2026-04-26T06:37:42.981Z</time></trkpt><trkpt lat="37.89848262989744" lon="15.325671096527886"><ele>56.0</ele><time>2026-04-26T06:37:43.981Z</time></trkpt><trkpt lat="37.8982572812653" lon="15.325398216130555"><ele>47.0</ele><time>2026-04-26T06:37:44.981Z</time></trkpt><trkpt lat="37.89802350842384" lon="15.325133348180403"><ele>47.0</ele><time>2026-04-26T06:37:45.981Z</time></trkpt><trkpt lat="37.89777591157297" lon="15.324880485267895"><ele>47.0</ele><time>2026-04-26T06:37:46.981Z</time></trkpt><trkpt lat="37.89752724311162" lon="15.324625550132666"><ele>55.5</ele><time>2026-04-26T06:37:47.981Z</time></trkpt><trkpt lat="37.89727280214679" lon="15.324387714632792"><ele>64.0</ele><time>2026-04-26T06:37:48.981Z</time></trkpt><trkpt lat="37.89701774875574" lon="15.324155351857769"><ele>64.0</ele><time>2026-04-26T06:37:49.981Z</time></trkpt><trkpt lat="37.89675988965873" lon="15.32391596599377"><ele>64.0</ele><time>2026-04-26T06:37:50.981Z</time></trkpt><trkpt lat="37.89649884919114" lon="15.323693478324437"><ele>62.5</ele><time>2026-04-26T06:37:51.981Z</time></trkpt><trkpt lat="37.89623661091857" lon="15.323472683701686"><ele>61.0</ele><time>2026-04-26T06:37:52.98Z</time></trkpt><trkpt lat="37.8959734995696" lon="15.323253711505064"><ele>64.0</ele><time>2026-04-26T06:37:53.98Z</time></trkpt><trkpt lat="37.8957135268494" lon="15.323038475052495"><ele>67.0</ele><time>2026-04-26T06:37:54.98Z</time></trkpt><trkpt lat="37.89545975219856" lon="15.322816351342283"><ele>67.0</ele><time>2026-04-26T06:37:55.98Z</time></trkpt><trkpt lat="37.89521228366577" lon="15.322587605442509"><ele>67.0</ele><time>2026-04-26T06:37:56.98Z</time></trkpt><trkpt lat="37.89496818410258" lon="15.322359448071547"><ele>65.0</ele><time>2026-04-26T06:37:57.98Z</time></trkpt><trkpt lat="37.894726595594484" lon="15.322122617046062"><ele>63.0</ele><time>2026-04-26T06:37:58.98Z</time></trkpt><trkpt lat="37.894486821341204" lon="15.321882281274988"><ele>63.0</ele><time>2026-04-26T06:37:59.98Z</time></trkpt><trkpt lat="37.89425693515847" lon="15.321641591735585"><ele>63.0</ele><time>2026-04-26T06:38:00.98Z</time></trkpt><trkpt lat="37.89402989871588" lon="15.321396163094702"><ele>63.5</ele><time>2026-04-26T06:38:01.98Z</time></trkpt><trkpt lat="37.893804788324275" lon="15.321151087580576"><ele>64.0</ele><time>2026-04-26T06:38:02.98Z</time></trkpt><trkpt lat="37.893583707221964" lon="15.32091706039437"><ele>58.5</ele><time>2026-04-26T06:38:03.98Z</time></trkpt><trkpt lat="37.89336234298182" lon="15.320679033415008"><ele>53.0</ele><time>2026-04-26T06:38:04.98Z</time></trkpt><trkpt lat="37.893140723075405" lon="15.320448276597467"><ele>53.0</ele><time>2026-04-26T06:38:05.98Z</time></trkpt><trkpt lat="37.892917746923715" lon="15.320215976962855"><ele>53.0</ele><time>2026-04-26T06:38:06.98Z</time></trkpt><trkpt lat="37.89269542082286" lon="15.319980557473412"><ele>49.5</ele><time>2026-04-26T06:38:07.98Z</time></trkpt><trkpt lat="37.89246832802916" lon="15.319735004761293"><ele>46.0</ele><time>2026-04-26T06:38:08.98Z</time></trkpt><trkpt lat="37.892243412502346" lon="15.319499217524141"><ele>46.0</ele><time>2026-04-26T06:38:09.98Z</time></trkpt><trkpt lat="37.89201959995096" lon="15.31926674746108"><ele>46.0</ele><time>2026-04-26T06:38:10.98Z</time></trkpt><trkpt lat="37.89178872913798" lon="15.319033594473224"><ele>54.5</ele><time>2026-04-26T06:38:11.98Z</time></trkpt><trkpt lat="37.89155681248947" lon="15.31880629873182"><ele>63.0</ele><time>2026-04-26T06:38:12.98Z</time></trkpt><trkpt lat="37.89132773296644" lon="15.318570688958552"><ele>63.0</ele><time>2026-04-26T06:38:13.98Z</time></trkpt><trkpt lat="37.89109642210639" lon="15.318326367370883"><ele>63.0</ele><time>2026-04-26T06:38:14.98Z</time></trkpt><trkpt lat="37.890860756350136" lon="15.318083692084507"><ele>57.5</ele><time>2026-04-26T06:38:15.98Z</time></trkpt><trkpt lat="37.89063425705433" lon="15.317833137733597"><ele>52.0</ele><time>2026-04-26T06:38:16.98Z</time></trkpt><trkpt lat="37.89041780555073" lon="15.317599016759795"><ele>52.0</ele><time>2026-04-26T06:38:17.98Z</time></trkpt><trkpt lat="37.89021256055098" lon="15.317351755624255"><ele>52.0</ele><time>2026-04-26T06:38:18.98Z</time></trkpt><trkpt lat="37.88999793081837" lon="15.31711770176582"><ele>52.0</ele><time>2026-04-26T06:38:19.98Z</time></trkpt><trkpt lat="37.88978754403873" lon="15.316871730670838"><ele>52.0</ele><time>2026-04-26T06:38:20.98Z</time></trkpt><trkpt lat="37.88959231069756" lon="15.316622289906986"><ele>53.5</ele><time>2026-04-26T06:38:21.98Z</time></trkpt><trkpt lat="37.88939893407241" lon="15.31636782739226"><ele>55.0</ele><time>2026-04-26T06:38:22.98Z</time></trkpt><trkpt lat="37.88921069686471" lon="15.316106761836954"><ele>55.0</ele><time>2026-04-26T06:38:23.98Z</time></trkpt><trkpt lat="37.88903439150715" lon="15.315833167020424"><ele>55.0</ele><time>2026-04-26T06:38:24.98Z</time></trkpt><trkpt lat="37.88887114768994" lon="15.315557361035031"><ele>59.0</ele><time>2026-04-26T06:38:25.98Z</time></trkpt><trkpt lat="37.88871251192685" lon="15.315281735445193"><ele>63.0</ele><time>2026-04-26T06:38:26.98Z</time></trkpt><trkpt lat="37.8885641260525" lon="15.315000385010109"><ele>51.5</ele><time>2026-04-26T06:38:27.979Z</time></trkpt><trkpt lat="37.88841122143364" lon="15.314710395141388"><ele>40.0</ele><time>2026-04-26T06:38:28.979Z</time></trkpt><trkpt lat="37.88825918362568" lon="15.314418737445495"><ele>40.0</ele><time>2026-04-26T06:38:29.979Z</time></trkpt><trkpt lat="37.88809896447577" lon="15.31411808641909"><ele>40.0</ele><time>2026-04-26T06:38:30.979Z</time></trkpt><trkpt lat="37.88794138262378" lon="15.313819576313144"><ele>48.0</ele><time>2026-04-26T06:38:31.979Z</time></trkpt><trkpt lat="37.8877768815865" lon="15.313525598909534"><ele>56.0</ele><time>2026-04-26T06:38:32.979Z</time></trkpt><trkpt lat="37.88760847289881" lon="15.313241602801645"><ele>61.0</ele><time>2026-04-26T06:38:33.979Z</time></trkpt><trkpt lat="37.88742527603242" lon="15.31297464941414"><ele>66.0</ele><time>2026-04-26T06:38:34.979Z</time></trkpt><trkpt lat="37.887233219174675" lon="15.312719221369996"><ele>66.0</ele><time>2026-04-26T06:38:35.979Z</time></trkpt><trkpt lat="37.88703313724166" lon="15.312478799194952"><ele>66.0</ele><time>2026-04-26T06:38:36.979Z</time></trkpt><trkpt lat="37.88682086524579" lon="15.312233005736097"><ele>68.5</ele><time>2026-04-26T06:38:37.979Z</time></trkpt><trkpt lat="37.88660382556414" lon="15.311995353177403"><ele>71.0</ele><time>2026-04-26T06:38:38.979Z</time></trkpt><trkpt lat="37.886386861415716" lon="15.311754417875317"><ele>71.0</ele><time>2026-04-26T06:38:39.979Z</time></trkpt><trkpt lat="37.88617390038997" lon="15.311528612007281"><ele>71.0</ele><time>2026-04-26T06:38:40.979Z</time></trkpt><trkpt lat="37.88596469544227" lon="15.3112909980432"><ele>68.0</ele><time>2026-04-26T06:38:41.979Z</time></trkpt><trkpt lat="37.88575662112423" lon="15.311052868395358"><ele>65.0</ele><time>2026-04-26T06:38:42.979Z</time></trkpt><trkpt lat="37.88554870759362" lon="15.310819292776555"><ele>65.0</ele><time>2026-04-26T06:38:43.979Z</time></trkpt><trkpt lat="37.88534227825037" lon="15.3105829800375"><ele>65.0</ele><time>2026-04-26T06:38:44.979Z</time></trkpt><trkpt lat="37.885135564194805" lon="15.31034416373709"><ele>62.5</ele><time>2026-04-26T06:38:45.979Z</time></trkpt><trkpt lat="37.88493641226693" lon="15.31010266242792"><ele>60.0</ele><time>2026-04-26T06:38:46.979Z</time></trkpt><trkpt lat="37.88472779742495" lon="15.309865295120888"><ele>70.5</ele><time>2026-04-26T06:38:47.979Z</time></trkpt><trkpt lat="37.88451930821968" lon="15.309624823193774"><ele>81.0</ele><time>2026-04-26T06:38:48.979Z</time></trkpt><trkpt lat="37.88430776636234" lon="15.309382899229982"><ele>66.5</ele><time>2026-04-26T06:38:49.979Z</time></trkpt><trkpt lat="37.88409301640428" lon="15.30914092668221"><ele>52.0</ele><time>2026-04-26T06:38:50.979Z</time></trkpt><trkpt lat="37.88388554801975" lon="15.308892205202268"><ele>52.0</ele><time>2026-04-26T06:38:51.979Z</time></trkpt><trkpt lat="37.88367916086215" lon="15.308644661507213"><ele>52.0</ele><time>2026-04-26T06:38:52.979Z</time></trkpt><trkpt lat="37.88346900046082" lon="15.308397342133052"><ele>45.0</ele><time>2026-04-26T06:38:53.979Z</time></trkpt><trkpt lat="37.88326015739954" lon="15.30814677459221"><ele>38.0</ele><time>2026-04-26T06:38:54.979Z</time></trkpt><trkpt lat="37.88304721759424" lon="15.307888246813947"><ele>53.5</ele><time>2026-04-26T06:38:55.979Z</time></trkpt><trkpt lat="37.88283700192904" lon="15.307605508798488"><ele>69.0</ele><time>2026-04-26T06:38:56.979Z</time></trkpt><trkpt lat="37.88263889959971" lon="15.307301525398843"><ele>64.5</ele><time>2026-04-26T06:38:57.979Z</time></trkpt><trkpt lat="37.882461285190786" lon="15.306969742946736"><ele>60.0</ele><time>2026-04-26T06:38:58.979Z</time></trkpt><trkpt lat="37.88231387168044" lon="15.306628830557472"><ele>55.5</ele><time>2026-04-26T06:38:59.979Z</time></trkpt><trkpt lat="37.88217490064052" lon="15.306307110576247"><ele>51.0</ele><time>2026-04-26T06:39:00.979Z</time></trkpt><trkpt lat="37.88205079163713" lon="15.305996362390202"><ele>51.0</ele><time>2026-04-26T06:39:01.979Z</time></trkpt><trkpt lat="37.88190748554674" lon="15.305698159090282"><ele>51.0</ele><time>2026-04-26T06:39:02.979Z</time></trkpt><trkpt lat="37.88177618072527" lon="15.305386942071648"><ele>38.0</ele><time>2026-04-26T06:39:03.978Z</time></trkpt><trkpt lat="37.88163917426451" lon="15.305086137733015"><ele>25.0</ele><time>2026-04-26T06:39:04.978Z</time></trkpt><trkpt lat="37.88147729594117" lon="15.30479597788659"><ele>29.0</ele><time>2026-04-26T06:39:05.978Z</time></trkpt><trkpt lat="37.88129758993526" lon="15.304509280104249"><ele>33.0</ele><time>2026-04-26T06:39:06.978Z</time></trkpt><trkpt lat="37.88109825161749" lon="15.304241919534567"><ele>33.0</ele><time>2026-04-26T06:39:07.978Z</time></trkpt><trkpt lat="37.88088746462651" lon="15.303999896109515"><ele>33.0</ele><time>2026-04-26T06:39:08.978Z</time></trkpt><trkpt lat="37.88066022549021" lon="15.303770899079149"><ele>26.5</ele><time>2026-04-26T06:39:09.978Z</time></trkpt><trkpt lat="37.880431136134284" lon="15.30355712162039"><ele>20.0</ele><time>2026-04-26T06:39:10.978Z</time></trkpt><trkpt lat="37.8801848968259" lon="15.303369838182215"><ele>22.5</ele><time>2026-04-26T06:39:11.978Z</time></trkpt><trkpt lat="37.87993524969513" lon="15.303204337801512"><ele>25.0</ele><time>2026-04-26T06:39:12.978Z</time></trkpt><trkpt lat="37.87967896646322" lon="15.303067762682524"><ele>25.0</ele><time>2026-04-26T06:39:13.978Z</time></trkpt><trkpt lat="37.87941895057605" lon="15.302949480688826"><ele>25.0</ele><time>2026-04-26T06:39:14.978Z</time></trkpt><trkpt lat="37.879159358889815" lon="15.302838619859138"><ele>31.5</ele><time>2026-04-26T06:39:15.978Z</time></trkpt><trkpt lat="37.8788955860166" lon="15.302732373097301"><ele>38.0</ele><time>2026-04-26T06:39:16.978Z</time></trkpt><trkpt lat="37.8786310275872" lon="15.302623652603511"><ele>38.0</ele><time>2026-04-26T06:39:17.978Z</time></trkpt><trkpt lat="37.878358532271484" lon="15.30250537408557"><ele>38.0</ele><time>2026-04-26T06:39:18.978Z</time></trkpt><trkpt lat="37.878085241517155" lon="15.302376092184995"><ele>45.5</ele><time>2026-04-26T06:39:19.978Z</time></trkpt><trkpt lat="37.87780632985862" lon="15.30224638984566"><ele>53.0</ele><time>2026-04-26T06:39:20.978Z</time></trkpt><trkpt lat="37.877529885097864" lon="15.302125336952797"><ele>53.0</ele><time>2026-04-26T06:39:21.978Z</time></trkpt><trkpt lat="37.877254806698716" lon="15.302001986659814"><ele>53.0</ele><time>2026-04-26T06:39:22.978Z</time></trkpt><trkpt lat="37.87698428473812" lon="15.301876946611163"><ele>40.0</ele><time>2026-04-26T06:39:23.978Z</time></trkpt><trkpt lat="37.87671270002529" lon="15.301758117905953"><ele>27.0</ele><time>2026-04-26T06:39:24.978Z</time></trkpt><trkpt lat="37.87643878261918" lon="15.30164235351418"><ele>27.0</ele><time>2026-04-26T06:39:25.978Z</time></trkpt><trkpt lat="37.876161265715" lon="15.301528097588607"><ele>27.0</ele><time>2026-04-26T06:39:26.978Z</time></trkpt><trkpt lat="37.87588304983228" lon="15.301411159741733"><ele>36.0</ele><time>2026-04-26T06:39:27.978Z</time></trkpt><trkpt lat="37.87560433697688" lon="15.301293336867282"><ele>45.0</ele><time>2026-04-26T06:39:28.978Z</time></trkpt><trkpt lat="37.875321360529156" lon="15.301174615432688"><ele>49.5</ele><time>2026-04-26T06:39:29.978Z</time></trkpt><trkpt lat="37.87503923235472" lon="15.301052793589625"><ele>54.0</ele><time>2026-04-26T06:39:30.978Z</time></trkpt><trkpt lat="37.87475536575611" lon="15.30092116805519"><ele>54.0</ele><time>2026-04-26T06:39:31.978Z</time></trkpt><trkpt lat="37.87445716529476" lon="15.300773825475916"><ele>54.0</ele><time>2026-04-26T06:39:32.978Z</time></trkpt><trkpt lat="37.874147088239035" lon="15.300613954372924"><ele>56.5</ele><time>2026-04-26T06:39:33.978Z</time></trkpt><trkpt lat="37.87384895667529" lon="15.300433988819085"><ele>59.0</ele><time>2026-04-26T06:39:34.978Z</time></trkpt><trkpt lat="37.873552984339604" lon="15.3002495476588"><ele>44.0</ele><time>2026-04-26T06:39:35.978Z</time></trkpt><trkpt lat="37.87327509048596" lon="15.300050275346988"><ele>29.0</ele><time>2026-04-26T06:39:36.978Z</time></trkpt><trkpt lat="37.87300125723252" lon="15.29985292404149"><ele>33.0</ele><time>2026-04-26T06:39:37.978Z</time></trkpt><trkpt lat="37.87273622385724" lon="15.299651617809168"><ele>37.0</ele><time>2026-04-26T06:39:38.978Z</time></trkpt><trkpt lat="37.87246877495196" lon="15.299474657952473"><ele>37.0</ele><time>2026-04-26T06:39:39.977Z</time></trkpt><trkpt lat="37.87219273226492" lon="15.299298854130232"><ele>37.0</ele><time>2026-04-26T06:39:40.977Z</time></trkpt><trkpt lat="37.87191803106198" lon="15.299142717947847"><ele>31.0</ele><time>2026-04-26T06:39:41.977Z</time></trkpt><trkpt lat="37.871643781091095" lon="15.298993876845177"><ele>25.0</ele><time>2026-04-26T06:39:42.979Z</time></trkpt><trkpt lat="37.87136117416182" lon="15.29885150437181"><ele>37.0</ele><time>2026-04-26T06:39:43.979Z</time></trkpt><trkpt lat="37.871076611267426" lon="15.298713398391817"><ele>49.0</ele><time>2026-04-26T06:39:44.979Z</time></trkpt><trkpt lat="37.87078245866913" lon="15.298585805134634"><ele>49.5</ele><time>2026-04-26T06:39:45.979Z</time></trkpt><trkpt lat="37.87048266997167" lon="15.29845857583905"><ele>50.0</ele><time>2026-04-26T06:39:46.979Z</time></trkpt><trkpt lat="37.87018691151644" lon="15.298326517684849"><ele>41.0</ele><time>2026-04-26T06:39:47.979Z</time></trkpt><trkpt lat="37.86989470923617" lon="15.298194360016232"><ele>32.0</ele><time>2026-04-26T06:39:48.979Z</time></trkpt><trkpt lat="37.86960406174431" lon="15.298056382404429"><ele>43.5</ele><time>2026-04-26T06:39:49.979Z</time></trkpt><trkpt lat="37.86931384332066" lon="15.297916601269455"><ele>55.0</ele><time>2026-04-26T06:39:50.979Z</time></trkpt><trkpt lat="37.86903782293877" lon="15.297762255293467"><ele>55.0</ele><time>2026-04-26T06:39:51.979Z</time></trkpt><trkpt lat="37.86875752341416" lon="15.297613141087504"><ele>55.0</ele><time>2026-04-26T06:39:52.978Z</time></trkpt><trkpt lat="37.86848037279707" lon="15.297455017351892"><ele>48.0</ele><time>2026-04-26T06:39:53.978Z</time></trkpt><trkpt lat="37.8682096334738" lon="15.297288438640692"><ele>41.0</ele><time>2026-04-26T06:39:54.979Z</time></trkpt><trkpt lat="37.86793570502434" lon="15.297119883875956"><ele>51.5</ele><time>2026-04-26T06:39:55.979Z</time></trkpt><trkpt lat="37.86767197662514" lon="15.29695543015458"><ele>62.0</ele><time>2026-04-26T06:39:56.978Z</time></trkpt><trkpt lat="37.86740649736268" lon="15.296797739815373"><ele>62.0</ele><time>2026-04-26T06:39:57.978Z</time></trkpt><trkpt lat="37.86714284510477" lon="15.296635100281472"><ele>62.0</ele><time>2026-04-26T06:39:58.978Z</time></trkpt><trkpt lat="37.86688337821812" lon="15.296472348939567"><ele>60.0</ele><time>2026-04-26T06:39:59.978Z</time></trkpt><trkpt lat="37.86662985118257" lon="15.296305529573468"><ele>58.0</ele><time>2026-04-26T06:40:00.978Z</time></trkpt><trkpt lat="37.86637158482639" lon="15.296166322360744"><ele>58.0</ele><time>2026-04-26T06:40:01.978Z</time></trkpt><trkpt lat="37.866120230377355" lon="15.296016058026932"><ele>58.0</ele><time>2026-04-26T06:40:02.978Z</time></trkpt><trkpt lat="37.86586186238541" lon="15.295874271957258"><ele>55.5</ele><time>2026-04-26T06:40:03.978Z</time></trkpt><trkpt lat="37.86559620065256" lon="15.295733368250414"><ele>53.0</ele><time>2026-04-26T06:40:04.978Z</time></trkpt><trkpt lat="37.865315852701166" lon="15.295591510039275"><ele>62.0</ele><time>2026-04-26T06:40:05.978Z</time></trkpt><trkpt lat="37.86503186533492" lon="15.2954520916891"><ele>71.0</ele><time>2026-04-26T06:40:06.978Z</time></trkpt><trkpt lat="37.864734696502026" lon="15.295304454279005"><ele>71.0</ele><time>2026-04-26T06:40:07.978Z</time></trkpt><trkpt lat="37.86443312212254" lon="15.295155335407081"><ele>71.0</ele><time>2026-04-26T06:40:08.978Z</time></trkpt><trkpt lat="37.864127688497646" lon="15.295002566812878"><ele>75.0</ele><time>2026-04-26T06:40:09.978Z</time></trkpt><trkpt lat="37.86384005553438" lon="15.294842757017195"><ele>79.0</ele><time>2026-04-26T06:40:10.978Z</time></trkpt><trkpt lat="37.86354215386465" lon="15.294680249587554"><ele>75.0</ele><time>2026-04-26T06:40:11.978Z</time></trkpt><trkpt lat="37.8632525780659" lon="15.294525502105644"><ele>71.0</ele><time>2026-04-26T06:40:12.978Z</time></trkpt><trkpt lat="37.862961409296496" lon="15.294380356747755"><ele>71.0</ele><time>2026-04-26T06:40:13.978Z</time></trkpt><trkpt lat="37.862666478679785" lon="15.2942315707779"><ele>71.0</ele><time>2026-04-26T06:40:14.978Z</time></trkpt><trkpt lat="37.862370988047196" lon="15.294097474312192"><ele>78.5</ele><time>2026-04-26T06:40:15.978Z</time></trkpt><trkpt lat="37.862079282297614" lon="15.293961871738682"><ele>86.0</ele><time>2026-04-26T06:40:16.978Z</time></trkpt><trkpt lat="37.86179237299603" lon="15.29382051988579"><ele>72.0</ele><time>2026-04-26T06:40:17.978Z</time></trkpt><trkpt lat="37.861512115108276" lon="15.293677456583067"><ele>58.0</ele><time>2026-04-26T06:40:18.978Z</time></trkpt><trkpt lat="37.86120787140807" lon="15.2935149482013"><ele>51.0</ele><time>2026-04-26T06:40:19.978Z</time></trkpt><trkpt lat="37.86091720330745" lon="15.293330874785653"><ele>44.0</ele><time>2026-04-26T06:40:20.978Z</time></trkpt><trkpt lat="37.86065190756496" lon="15.293133301798688"><ele>50.5</ele><time>2026-04-26T06:40:21.978Z</time></trkpt><trkpt lat="37.86037354475154" lon="15.292926205500194"><ele>57.0</ele><time>2026-04-26T06:40:22.978Z</time></trkpt><trkpt lat="37.86010826636254" lon="15.292709774608664"><ele>62.5</ele><time>2026-04-26T06:40:23.978Z</time></trkpt><trkpt lat="37.85985496916472" lon="15.292499548726274"><ele>68.0</ele><time>2026-04-26T06:40:24.978Z</time></trkpt><trkpt lat="37.85960427597013" lon="15.292283436233697"><ele>74.0</ele><time>2026-04-26T06:40:25.978Z</time></trkpt><trkpt lat="37.85937385157629" lon="15.29205442850461"><ele>80.0</ele><time>2026-04-26T06:40:26.978Z</time></trkpt><trkpt lat="37.859140399970606" lon="15.291818640208433"><ele>80.0</ele><time>2026-04-26T06:40:27.978Z</time></trkpt><trkpt lat="37.858912800951906" lon="15.291564175823014"><ele>80.0</ele><time>2026-04-26T06:40:28.978Z</time></trkpt><trkpt lat="37.858694082381916" lon="15.291310828985353"><ele>91.0</ele><time>2026-04-26T06:40:29.978Z</time></trkpt><trkpt lat="37.85847727249803" lon="15.291042278152972"><ele>102.0</ele><time>2026-04-26T06:40:30.978Z</time></trkpt><trkpt lat="37.8582744426027" lon="15.290761068047022"><ele>110.0</ele><time>2026-04-26T06:40:31.978Z</time></trkpt><trkpt lat="37.858068066093935" lon="15.290488100477782"><ele>118.0</ele><time>2026-04-26T06:40:32.977Z</time></trkpt><trkpt lat="37.85785808190362" lon="15.29022608278869"><ele>118.0</ele><time>2026-04-26T06:40:33.977Z</time></trkpt><trkpt lat="37.857649027721806" lon="15.289966994053577"><ele>118.0</ele><time>2026-04-26T06:40:34.977Z</time></trkpt><trkpt lat="37.857439775836276" lon="15.289710209636219"><ele>134.0</ele><time>2026-04-26T06:40:35.977Z</time></trkpt><trkpt lat="37.85724246034554" lon="15.289455353346916"><ele>150.0</ele><time>2026-04-26T06:40:36.977Z</time></trkpt><trkpt lat="37.85704051792372" lon="15.28917406128226"><ele>158.0</ele><time>2026-04-26T06:40:37.977Z</time></trkpt><trkpt lat="37.85683762207933" lon="15.28889884377572"><ele>166.0</ele><time>2026-04-26T06:40:38.977Z</time></trkpt><trkpt lat="37.8504716246167" lon="15.275655252962528"><ele>77.0</ele><time>2026-04-26T06:41:15.976Z</time></trkpt><trkpt lat="37.849791652890204" lon="15.275741002638167"><ele>79.0</ele><time>2026-04-26T06:41:16.976Z</time></trkpt><trkpt lat="37.849772240116025" lon="15.275235942477636"><ele>81.0</ele><time>2026-04-26T06:41:17.976Z</time></trkpt><trkpt lat="37.84957011695567" lon="15.274939502168019"><ele>95.5</ele><time>2026-04-26T06:41:18.976Z</time></trkpt><trkpt lat="37.84936002235681" lon="15.27468308600713"><ele>110.0</ele><time>2026-04-26T06:41:19.976Z</time></trkpt><trkpt lat="37.84912708308496" lon="15.27442693682033"><ele>110.0</ele><time>2026-04-26T06:41:20.976Z</time></trkpt><trkpt lat="37.848881448657515" lon="15.274198741869384"><ele>110.0</ele><time>2026-04-26T06:41:21.976Z</time></trkpt><trkpt lat="37.84864239379146" lon="15.273965477428163"><ele>113.5</ele><time>2026-04-26T06:41:22.976Z</time></trkpt><trkpt lat="37.84839980541444" lon="15.273738740844934"><ele>117.0</ele><time>2026-04-26T06:41:23.976Z</time></trkpt><trkpt lat="37.84816014535701" lon="15.273520497802469"><ele>117.0</ele><time>2026-04-26T06:41:24.976Z</time></trkpt><trkpt lat="37.847913367652886" lon="15.273295974104142"><ele>117.0</ele><time>2026-04-26T06:41:25.976Z</time></trkpt><trkpt lat="37.8476647601458" lon="15.2730770825464"><ele>112.0</ele><time>2026-04-26T06:41:26.976Z</time></trkpt><trkpt lat="37.84741536607702" lon="15.2728606888133"><ele>107.0</ele><time>2026-04-26T06:41:27.976Z</time></trkpt><trkpt lat="37.847150462540995" lon="15.272648598456453"><ele>107.0</ele><time>2026-04-26T06:41:28.976Z</time></trkpt><trkpt lat="37.846875805872855" lon="15.272427395490453"><ele>107.0</ele><time>2026-04-26T06:41:29.976Z</time></trkpt><trkpt lat="37.84659750466846" lon="15.272200619945798"><ele>126.0</ele><time>2026-04-26T06:41:30.976Z</time></trkpt><trkpt lat="37.846316568493066" lon="15.271975917500702"><ele>145.0</ele><time>2026-04-26T06:41:31.976Z</time></trkpt><trkpt lat="37.846036286712746" lon="15.27174335295597"><ele>165.5</ele><time>2026-04-26T06:41:32.976Z</time></trkpt><trkpt lat="37.845760241098446" lon="15.271512148892166"><ele>186.0</ele><time>2026-04-26T06:41:33.976Z</time></trkpt><trkpt lat="37.84547509078024" lon="15.271310979088355"><ele>184.5</ele><time>2026-04-26T06:41:34.976Z</time></trkpt><trkpt lat="37.845178129627264" lon="15.271107676136376"><ele>183.0</ele><time>2026-04-26T06:41:35.976Z</time></trkpt><trkpt lat="37.84487660255545" lon="15.270901552508661"><ele>133.0</ele><time>2026-04-26T06:41:36.976Z</time></trkpt><trkpt lat="37.842827616469776" lon="15.269592987169856"><ele>126.0</ele><time>2026-04-26T06:41:41.616Z</time></trkpt><trkpt lat="37.8418105016226" lon="15.268718834984433"><ele>116.5</ele><time>2026-04-26T06:41:45.975Z</time></trkpt><trkpt lat="37.84149910156658" lon="15.268519419859851"><ele>107.0</ele><time>2026-04-26T06:41:46.975Z</time></trkpt><trkpt lat="37.84125852687213" lon="15.26828136704606"><ele>112.5</ele><time>2026-04-26T06:41:47.975Z</time></trkpt><trkpt lat="37.84098497468433" lon="15.267967668191224"><ele>118.0</ele><time>2026-04-26T06:41:48.975Z</time></trkpt><trkpt lat="37.84074146829301" lon="15.267634381683267"><ele>104.5</ele><time>2026-04-26T06:41:49.975Z</time></trkpt><trkpt lat="37.840528669166154" lon="15.26729190302454"><ele>91.0</ele><time>2026-04-26T06:41:50.975Z</time></trkpt><trkpt lat="37.840317049593494" lon="15.266954714222251"><ele>85.5</ele><time>2026-04-26T06:41:51.977Z</time></trkpt><trkpt lat="37.840148474189036" lon="15.26659916495439"><ele>80.0</ele><time>2026-04-26T06:41:52.978Z</time></trkpt><trkpt lat="37.8399996295097" lon="15.266216782884786"><ele>76.5</ele><time>2026-04-26T06:41:53.978Z</time></trkpt><trkpt lat="37.839881679124275" lon="15.26582406438508"><ele>73.0</ele><time>2026-04-26T06:41:54.978Z</time></trkpt><trkpt lat="37.839779888319114" lon="15.265425211876495"><ele>73.0</ele><time>2026-04-26T06:41:55.978Z</time></trkpt><trkpt lat="37.83970454687904" lon="15.265017948126117"><ele>73.0</ele><time>2026-04-26T06:41:56.978Z</time></trkpt><trkpt lat="37.839646036011025" lon="15.264609165912463"><ele>82.0</ele><time>2026-04-26T06:41:57.978Z</time></trkpt><trkpt lat="37.83959414334947" lon="15.26419533208247"><ele>91.0</ele><time>2026-04-26T06:41:58.977Z</time></trkpt><trkpt lat="37.83954659592496" lon="15.263794419783242"><ele>93.0</ele><time>2026-04-26T06:41:59.977Z</time></trkpt><trkpt lat="37.83949950339522" lon="15.263396782885769"><ele>95.0</ele><time>2026-04-26T06:42:00.977Z</time></trkpt><trkpt lat="37.83945313453298" lon="15.262987536517677"><ele>88.5</ele><time>2026-04-26T06:42:01.978Z</time></trkpt><trkpt lat="37.83939121485987" lon="15.262584268558877"><ele>82.0</ele><time>2026-04-26T06:42:02.978Z</time></trkpt><trkpt lat="37.83932162071354" lon="15.262189077418638"><ele>76.0</ele><time>2026-04-26T06:42:03.977Z</time></trkpt><trkpt lat="37.839216578726905" lon="15.261802439562603"><ele>70.0</ele><time>2026-04-26T06:42:04.978Z</time></trkpt><trkpt lat="37.83907976678111" lon="15.261419788882156"><ele>70.0</ele><time>2026-04-26T06:42:05.978Z</time></trkpt><trkpt lat="37.83892205825375" lon="15.261043267712806"><ele>70.0</ele><time>2026-04-26T06:42:06.978Z</time></trkpt><trkpt lat="37.83875937493783" lon="15.2606658380738"><ele>70.0</ele><time>2026-04-26T06:42:07.978Z</time></trkpt><trkpt lat="37.838563730555094" lon="15.260307839256916"><ele>70.0</ele><time>2026-04-26T06:42:08.978Z</time></trkpt><trkpt lat="37.83834917318927" lon="15.259980835652822"><ele>76.5</ele><time>2026-04-26T06:42:09.978Z</time></trkpt><trkpt lat="37.83812498988875" lon="15.259685999326932"><ele>83.0</ele><time>2026-04-26T06:42:10.977Z</time></trkpt><trkpt lat="37.837888955939476" lon="15.25941810946259"><ele>74.0</ele><time>2026-04-26T06:42:11.977Z</time></trkpt><trkpt lat="37.837619783050265" lon="15.25916334683564"><ele>65.0</ele><time>2026-04-26T06:42:12.977Z</time></trkpt><trkpt lat="37.83732375458867" lon="15.25893799890833"><ele>65.0</ele><time>2026-04-26T06:42:13.977Z</time></trkpt><trkpt lat="37.83703344226299" lon="15.258733107204712"><ele>65.0</ele><time>2026-04-26T06:42:14.977Z</time></trkpt><trkpt lat="37.83676202312197" lon="15.25852697790597"><ele>58.5</ele><time>2026-04-26T06:42:15.977Z</time></trkpt><trkpt lat="37.83650906788943" lon="15.258328908378719"><ele>52.0</ele><time>2026-04-26T06:42:16.977Z</time></trkpt><trkpt lat="37.83625565529911" lon="15.258129172419197"><ele>52.5</ele><time>2026-04-26T06:42:17.977Z</time></trkpt><trkpt lat="37.83600227931317" lon="15.257930384287192"><ele>53.0</ele><time>2026-04-26T06:42:18.977Z</time></trkpt><trkpt lat="37.83576575567146" lon="15.257727341467318"><ele>55.0</ele><time>2026-04-26T06:42:19.977Z</time></trkpt><trkpt lat="37.835532070002245" lon="15.257518545071996"><ele>57.0</ele><time>2026-04-26T06:42:20.977Z</time></trkpt><trkpt lat="37.8353151788367" lon="15.25730590120441"><ele>56.5</ele><time>2026-04-26T06:42:21.977Z</time></trkpt><trkpt lat="37.83511933180747" lon="15.257092805158809"><ele>56.0</ele><time>2026-04-26T06:42:22.977Z</time></trkpt><trkpt lat="37.83493404520704" lon="15.256882639944317"><ele>56.0</ele><time>2026-04-26T06:42:23.977Z</time></trkpt><trkpt lat="37.834754578192" lon="15.256664553790555"><ele>56.0</ele><time>2026-04-26T06:42:24.977Z</time></trkpt><trkpt lat="37.83458748042354" lon="15.256447951476945"><ele>55.66666666666667</ele><time>2026-04-26T06:42:25.977Z</time></trkpt><trkpt lat="37.83444371194251" lon="15.256233161572007"><ele>55.33333333333333</ele><time>2026-04-26T06:42:26.977Z</time></trkpt><trkpt lat="37.83434161585787" lon="15.255997460592523"><ele>55.0</ele><time>2026-04-26T06:42:27.977Z</time></trkpt><trkpt lat="37.8342661660556" lon="15.255754169125114"><ele>56.33333333333333</ele><time>2026-04-26T06:42:28.977Z</time></trkpt><trkpt lat="37.834224168025145" lon="15.255490597089986"><ele>57.66666666666667</ele><time>2026-04-26T06:42:29.977Z</time></trkpt><trkpt lat="37.83421229751204" lon="15.255217920754422"><ele>59.0</ele><time>2026-04-26T06:42:30.977Z</time></trkpt><trkpt lat="37.83425099230727" lon="15.254918567844104"><ele>60.66666666666667</ele><time>2026-04-26T06:42:31.977Z</time></trkpt><trkpt lat="37.834311818449" lon="15.25463584950133"><ele>62.33333333333333</ele><time>2026-04-26T06:42:32.977Z</time></trkpt><trkpt lat="37.83439152795449" lon="15.254408293969234"><ele>64.0</ele><time>2026-04-26T06:42:33.977Z</time></trkpt><trkpt lat="37.83445532714434" lon="15.2541873585895"><ele>64.0</ele><time>2026-04-26T06:42:34.977Z</time></trkpt><trkpt lat="37.83450098857689" lon="15.25398100999458"><ele>64.0</ele><time>2026-04-26T06:42:35.977Z</time></trkpt><trkpt lat="37.834544260178745" lon="15.253788763141285"><ele>64.0</ele><time>2026-04-26T06:42:36.977Z</time></trkpt><trkpt lat="37.83458043412844" lon="15.253609286033155"><ele>64.0</ele><time>2026-04-26T06:42:37.977Z</time></trkpt><trkpt lat="37.83460676391595" lon="15.253424326920111"><ele>64.0</ele><time>2026-04-26T06:42:38.977Z</time></trkpt><trkpt lat="37.83459527169674" lon="15.253225669818105"><ele>64.0</ele><time>2026-04-26T06:42:39.977Z</time></trkpt><trkpt lat="37.83454593051093" lon="15.253042985071849"><ele>63.0</ele><time>2026-04-26T06:42:40.977Z</time></trkpt><trkpt lat="37.83445776659136" lon="15.252869055089304"><ele>62.0</ele><time>2026-04-26T06:42:41.977Z</time></trkpt><trkpt lat="37.834353658115326" lon="15.252725404672116"><ele>61.0</ele><time>2026-04-26T06:42:42.977Z</time></trkpt><trkpt lat="37.8342473015716" lon="15.252616913111591"><ele>61.0</ele><time>2026-04-26T06:42:43.977Z</time></trkpt><trkpt lat="37.83411901290648" lon="15.252556537030202"><ele>61.0</ele><time>2026-04-26T06:42:44.977Z</time></trkpt><trkpt lat="37.833982763619304" lon="15.252534073878007"><ele>61.0</ele><time>2026-04-26T06:42:45.977Z</time></trkpt><trkpt lat="37.833824954554274" lon="15.252542153610326"><ele>61.0</ele><time>2026-04-26T06:42:46.976Z</time></trkpt><trkpt lat="37.83367126644299" lon="15.252572461305101"><ele>61.0</ele><time>2026-04-26T06:42:47.976Z</time></trkpt><trkpt lat="37.83350907680622" lon="15.2526555873272"><ele>61.0</ele><time>2026-04-26T06:42:48.976Z</time></trkpt><trkpt lat="37.83337282735744" lon="15.252770925331081"><ele>61.0</ele><time>2026-04-26T06:42:49.976Z</time></trkpt><trkpt lat="37.833247146174614" lon="15.252925491719708"><ele>61.0</ele><time>2026-04-26T06:42:50.976Z</time></trkpt><trkpt lat="37.833134860111294" lon="15.253113156355454"><ele>61.0</ele><time>2026-04-26T06:42:51.976Z</time></trkpt><trkpt lat="37.833018891259165" lon="15.253326430943874"><ele>61.0</ele><time>2026-04-26T06:42:52.976Z</time></trkpt><trkpt lat="37.83289305812804" lon="15.253554461878652"><ele>63.5</ele><time>2026-04-26T06:42:53.976Z</time></trkpt><trkpt lat="37.83274708835176" lon="15.253804008779255"><ele>66.0</ele><time>2026-04-26T06:42:54.976Z</time></trkpt><trkpt lat="37.832587481132585" lon="15.254074089940973"><ele>61.0</ele><time>2026-04-26T06:42:55.976Z</time></trkpt><trkpt lat="37.832431168953136" lon="15.254342150386808"><ele>56.0</ele><time>2026-04-26T06:42:56.976Z</time></trkpt><trkpt lat="37.832269368927655" lon="15.254607554337817"><ele>55.0</ele><time>2026-04-26T06:42:57.976Z</time></trkpt><trkpt lat="37.832108327046" lon="15.254873207244964"><ele>54.0</ele><time>2026-04-26T06:42:58.976Z</time></trkpt><trkpt lat="37.83192568210564" lon="15.255147773161761"><ele>51.5</ele><time>2026-04-26T06:42:59.976Z</time></trkpt><trkpt lat="37.83173028575572" lon="15.255402957776466"><ele>49.0</ele><time>2026-04-26T06:43:00.976Z</time></trkpt><trkpt lat="37.831533663524496" lon="15.255619283551246"><ele>48.5</ele><time>2026-04-26T06:43:01.976Z</time></trkpt><trkpt lat="37.83133055806403" lon="15.25580604866623"><ele>48.0</ele><time>2026-04-26T06:43:02.976Z</time></trkpt><trkpt lat="37.83113425840445" lon="15.255970859028205"><ele>47.666666666666664</ele><time>2026-04-26T06:43:03.976Z</time></trkpt><trkpt lat="37.830945511879364" lon="15.256129191068949"><ele>47.33333333333333</ele><time>2026-04-26T06:43:04.976Z</time></trkpt><trkpt lat="37.83076811108514" lon="15.256291998143032"><ele>47.0</ele><time>2026-04-26T06:43:05.976Z</time></trkpt><trkpt lat="37.83060073507666" lon="15.256449671005917"><ele>46.33333333333333</ele><time>2026-04-26T06:43:06.976Z</time></trkpt><trkpt lat="37.83043972957769" lon="15.256604883898635"><ele>45.666666666666664</ele><time>2026-04-26T06:43:07.976Z</time></trkpt><trkpt lat="37.83029288940123" lon="15.256758385905838"><ele>45.0</ele><time>2026-04-26T06:43:08.976Z</time></trkpt><trkpt lat="37.83015413935637" lon="15.256918172773986"><ele>44.0</ele><time>2026-04-26T06:43:09.976Z</time></trkpt><trkpt lat="37.8300258535057" lon="15.257078385937207"><ele>43.0</ele><time>2026-04-26T06:43:10.976Z</time></trkpt><trkpt lat="37.829908303086945" lon="15.257242611008174"><ele>42.0</ele><time>2026-04-26T06:43:11.976Z</time></trkpt><trkpt lat="37.82977603006086" lon="15.257412585643443"><ele>42.0</ele><time>2026-04-26T06:43:12.976Z</time></trkpt><trkpt lat="37.82962992948665" lon="15.257601131022298"><ele>42.0</ele><time>2026-04-26T06:43:13.976Z</time></trkpt><trkpt lat="37.82948641295618" lon="15.257792788617168"><ele>42.0</ele><time>2026-04-26T06:43:14.976Z</time></trkpt><trkpt lat="37.829347440036564" lon="15.257959733086764"><ele>41.333333333333336</ele><time>2026-04-26T06:43:15.976Z</time></trkpt><trkpt lat="37.829218993917515" lon="15.258123560207263"><ele>40.66666666666667</ele><time>2026-04-26T06:43:16.976Z</time></trkpt><trkpt lat="37.82910277835634" lon="15.258289251149687"><ele>40.0</ele><time>2026-04-26T06:43:17.976Z</time></trkpt><trkpt lat="37.82901713451954" lon="15.258420265753935"><ele>40.0</ele><time>2026-04-26T06:43:18.976Z</time></trkpt><trkpt lat="37.828944113007914" lon="15.258554621171829"><ele>40.0</ele><time>2026-04-26T06:43:19.976Z</time></trkpt><trkpt lat="37.8288501477721" lon="15.258636305430826"><ele>40.0</ele><time>2026-04-26T06:43:20.976Z</time></trkpt><trkpt lat="37.8287863446838" lon="15.258737577565308"><ele>40.0</ele><time>2026-04-26T06:43:21.976Z</time></trkpt><trkpt lat="37.828722410616706" lon="15.258828570734789"><ele>40.0</ele><time>2026-04-26T06:43:22.976Z</time></trkpt><trkpt lat="37.82866045509874" lon="15.258910889255489"><ele>40.4</ele><time>2026-04-26T06:43:23.976Z</time></trkpt><trkpt lat="37.82858098568724" lon="15.259012824859868"><ele>40.8</ele><time>2026-04-26T06:43:25.976Z</time></trkpt><trkpt lat="37.82852069799275" lon="15.259113986846298"><ele>41.2</ele><time>2026-04-26T06:43:28.976Z</time></trkpt><trkpt lat="37.82844547133068" lon="15.259175958019558"><ele>41.6</ele><time>2026-04-26T06:43:30.976Z</time></trkpt><trkpt lat="37.828346669852884" lon="15.259261577924176"><ele>42.0</ele><time>2026-04-26T06:43:32.975Z</time></trkpt><trkpt lat="37.82828003214987" lon="15.259323801221065"><ele>40.833333333333336</ele><time>2026-04-26T06:43:33.975Z</time></trkpt><trkpt lat="37.82821469556776" lon="15.259408634711354"><ele>39.666666666666664</ele><time>2026-04-26T06:43:34.975Z</time></trkpt><trkpt lat="37.82815360117421" lon="15.259475512891054"><ele>38.5</ele><time>2026-04-26T06:43:35.975Z</time></trkpt><trkpt lat="37.82809901359728" lon="15.25953552753633"><ele>37.33333333333333</ele><time>2026-04-26T06:43:36.975Z</time></trkpt><trkpt lat="37.82801664658068" lon="15.259626083447774"><ele>36.166666666666664</ele><time>2026-04-26T06:43:38.975Z</time></trkpt><trkpt lat="37.8279595612954" lon="15.259686362443484"><ele>35.0</ele><time>2026-04-26T06:43:40.975Z</time></trkpt><trkpt lat="37.827904757412604" lon="15.259733771525841"><ele>35.0</ele><time>2026-04-26T06:44:34.976Z</time></trkpt><trkpt lat="37.827815248650516" lon="15.25978632556741"><ele>35.0</ele><time>2026-04-26T06:45:07.975Z</time></trkpt><trkpt lat="37.82769048102329" lon="15.259858382823785"><ele>35.0</ele><time>2026-04-26T06:45:09.975Z</time></trkpt><trkpt lat="37.82760735280543" lon="15.259897128245914"><ele>35.0</ele><time>2026-04-26T06:45:10.975Z</time></trkpt><trkpt lat="37.82750382644609" lon="15.259828891824682"><ele>35.0</ele><time>2026-04-26T06:45:11.975Z</time></trkpt><trkpt lat="37.82739617323176" lon="15.259816938277055"><ele>34.5</ele><time>2026-04-26T06:45:12.975Z</time></trkpt><trkpt lat="37.82732382580038" lon="15.259688536539052"><ele>34.0</ele><time>2026-04-26T06:45:13.975Z</time></trkpt><trkpt lat="37.827249180337404" lon="15.259581221784806"><ele>33.5</ele><time>2026-04-26T06:45:14.975Z</time></trkpt><trkpt lat="37.82716905987393" lon="15.259458674188332"><ele>33.0</ele><time>2026-04-26T06:45:15.975Z</time></trkpt><trkpt lat="37.82707695078238" lon="15.259340446078802"><ele>33.0</ele><time>2026-04-26T06:45:16.975Z</time></trkpt><trkpt lat="37.826979413273015" lon="15.25922436281293"><ele>33.0</ele><time>2026-04-26T06:45:17.975Z</time></trkpt><trkpt lat="37.82689463407983" lon="15.25912719291256"><ele>33.0</ele><time>2026-04-26T06:45:18.975Z</time></trkpt><trkpt lat="37.82684370125539" lon="15.259037993826084"><ele>33.0</ele><time>2026-04-26T06:45:19.975Z</time></trkpt><trkpt lat="37.826802976151356" lon="15.258934256194625"><ele>33.0</ele><time>2026-04-26T06:45:20.975Z</time></trkpt><trkpt lat="37.826786502108156" lon="15.258785010899528"><ele>33.25</ele><time>2026-04-26T06:45:21.975Z</time></trkpt><trkpt lat="37.826751673718164" lon="15.258626303227846"><ele>33.5</ele><time>2026-04-26T06:45:22.975Z</time></trkpt><trkpt lat="37.82670653587377" lon="15.25848429810372"><ele>33.75</ele><time>2026-04-26T06:45:23.975Z</time></trkpt><trkpt lat="37.82668587203861" lon="15.258358690121392"><ele>34.0</ele><time>2026-04-26T06:45:24.975Z</time></trkpt><trkpt lat="37.82666232902363" lon="15.258232481367621"><ele>34.25</ele><time>2026-04-26T06:45:25.975Z</time></trkpt><trkpt lat="37.82663782855479" lon="15.25809394347396"><ele>34.5</ele><time>2026-04-26T06:45:26.975Z</time></trkpt><trkpt lat="37.82662656522331" lon="15.257936035049354"><ele>34.75</ele><time>2026-04-26T06:45:27.975Z</time></trkpt><trkpt lat="37.826625765299205" lon="15.257763755278543"><ele>35.0</ele><time>2026-04-26T06:45:28.975Z</time></trkpt><trkpt lat="37.82664623966078" lon="15.257576423687905"><ele>35.0</ele><time>2026-04-26T06:45:29.975Z</time></trkpt><trkpt lat="37.82666332612174" lon="15.25741211871585"><ele>35.0</ele><time>2026-04-26T06:45:30.975Z</time></trkpt><trkpt lat="37.8267469233981" lon="15.25727228290401"><ele>35.0</ele><time>2026-04-26T06:45:31.975Z</time></trkpt><trkpt lat="37.82680563531862" lon="15.257126117655003"><ele>35.0</ele><time>2026-04-26T06:45:32.975Z</time></trkpt><trkpt lat="37.82687282149444" lon="15.256974666397072"><ele>35.33333333333333</ele><time>2026-04-26T06:45:33.975Z</time></trkpt><trkpt lat="37.826957554728466" lon="15.256803987110116"><ele>35.666666666666664</ele><time>2026-04-26T06:45:34.975Z</time></trkpt><trkpt lat="37.82704072112761" lon="15.256616957812232"><ele>36.0</ele><time>2026-04-26T06:45:35.975Z</time></trkpt><trkpt lat="37.827146494769714" lon="15.25646143907148"><ele>36.666666666666664</ele><time>2026-04-26T06:45:36.975Z</time></trkpt><trkpt lat="37.827239612481634" lon="15.256299105684269"><ele>37.33333333333333</ele><time>2026-04-26T06:45:37.975Z</time></trkpt><trkpt lat="37.82734241622689" lon="15.256136682161767"><ele>38.0</ele><time>2026-04-26T06:45:38.975Z</time></trkpt><trkpt lat="37.82743701328593" lon="15.255962793840974"><ele>38.0</ele><time>2026-04-26T06:45:39.974Z</time></trkpt><trkpt lat="37.82754073183669" lon="15.2557946607447"><ele>38.0</ele><time>2026-04-26T06:45:40.974Z</time></trkpt><trkpt lat="37.82762769062693" lon="15.255636674954486"><ele>38.0</ele><time>2026-04-26T06:45:41.974Z</time></trkpt><trkpt lat="37.82770828994419" lon="15.255484521410791"><ele>38.666666666666664</ele><time>2026-04-26T06:45:42.974Z</time></trkpt><trkpt lat="37.82779395507459" lon="15.255323107090378"><ele>39.333333333333336</ele><time>2026-04-26T06:45:43.974Z</time></trkpt><trkpt lat="37.82788025956051" lon="15.255160982702463"><ele>40.0</ele><time>2026-04-26T06:45:44.974Z</time></trkpt><trkpt lat="37.82796596073194" lon="15.255013128882764"><ele>40.0</ele><time>2026-04-26T06:45:45.974Z</time></trkpt><trkpt lat="37.82804562535962" lon="15.254872782033111"><ele>40.0</ele><time>2026-04-26T06:45:46.974Z</time></trkpt><trkpt lat="37.82811579690112" lon="15.254728889842465"><ele>40.0</ele><time>2026-04-26T06:45:47.974Z</time></trkpt><trkpt lat="37.82818415477093" lon="15.254579325896184"><ele>40.0</ele><time>2026-04-26T06:45:48.974Z</time></trkpt><trkpt lat="37.828258690238314" lon="15.25444055073504"><ele>40.75</ele><time>2026-04-26T06:45:49.974Z</time></trkpt><trkpt lat="37.82832618790475" lon="15.254306819424034"><ele>41.5</ele><time>2026-04-26T06:45:50.974Z</time></trkpt><trkpt lat="37.828393600538746" lon="15.254180111622038"><ele>42.25</ele><time>2026-04-26T06:45:51.974Z</time></trkpt><trkpt lat="37.828468757834294" lon="15.25404699109363"><ele>43.0</ele><time>2026-04-26T06:45:52.974Z</time></trkpt><trkpt lat="37.82853957816474" lon="15.253905980829456"><ele>43.0</ele><time>2026-04-26T06:45:53.974Z</time></trkpt><trkpt lat="37.828600146820236" lon="15.253773190115968"><ele>43.0</ele><time>2026-04-26T06:45:54.974Z</time></trkpt><trkpt lat="37.82866197383955" lon="15.253647629821558"><ele>43.0</ele><time>2026-04-26T06:45:55.974Z</time></trkpt><trkpt lat="37.828716602429616" lon="15.253541296858334"><ele>43.0</ele><time>2026-04-26T06:45:56.974Z</time></trkpt><trkpt lat="37.8288340671885" lon="15.253493104247706"><ele>43.0</ele><time>2026-04-26T06:45:57.974Z</time></trkpt><trkpt lat="37.82888951486016" lon="15.253392466505032"><ele>43.0</ele><time>2026-04-26T06:45:58.974Z</time></trkpt><trkpt lat="37.82895190462121" lon="15.253282166708589"><ele>43.0</ele><time>2026-04-26T06:45:59.974Z</time></trkpt><trkpt lat="37.829023910792344" lon="15.253153796329839"><ele>43.0</ele><time>2026-04-26T06:46:00.974Z</time></trkpt><trkpt lat="37.829098741216974" lon="15.253022576933413"><ele>43.5</ele><time>2026-04-26T06:46:01.974Z</time></trkpt><trkpt lat="37.829181912624996" lon="15.252877392899853"><ele>44.0</ele><time>2026-04-26T06:46:02.974Z</time></trkpt><trkpt lat="37.829260558068604" lon="15.252739763179815"><ele>44.5</ele><time>2026-04-26T06:46:03.975Z</time></trkpt><trkpt lat="37.82933462608557" lon="15.252609463767762"><ele>45.0</ele><time>2026-04-26T06:46:04.975Z</time></trkpt><trkpt lat="37.82939809321782" lon="15.252497813280714"><ele>45.0</ele><time>2026-04-26T06:46:05.975Z</time></trkpt><trkpt lat="37.82945899005757" lon="15.25239068426035"><ele>45.0</ele><time>2026-04-26T06:46:06.975Z</time></trkpt><trkpt lat="37.82951617183774" lon="15.252289933562823"><ele>45.0</ele><time>2026-04-26T06:46:07.975Z</time></trkpt><trkpt lat="37.82957485377551" lon="15.252186567912966"><ele>45.0</ele><time>2026-04-26T06:46:08.975Z</time></trkpt><trkpt lat="37.82963235693477" lon="15.252085130059049"><ele>45.0</ele><time>2026-04-26T06:46:09.975Z</time></trkpt><trkpt lat="37.82969131641466" lon="15.251980895443834"><ele>45.4</ele><time>2026-04-26T06:46:10.975Z</time></trkpt><trkpt lat="37.829744418753634" lon="15.251885535598223"><ele>45.8</ele><time>2026-04-26T06:46:11.975Z</time></trkpt><trkpt lat="37.8298007242661" lon="15.251786556734768"><ele>46.2</ele><time>2026-04-26T06:46:12.975Z</time></trkpt><trkpt lat="37.8298574772309" lon="15.251685435891982"><ele>46.6</ele><time>2026-04-26T06:46:13.975Z</time></trkpt><trkpt lat="37.829889611402294" lon="15.251562406243101"><ele>47.0</ele><time>2026-04-26T06:46:14.975Z</time></trkpt><trkpt lat="37.82994866152286" lon="15.251460464792908"><ele>47.0</ele><time>2026-04-26T06:46:15.975Z</time></trkpt><trkpt lat="37.83000397325128" lon="15.251354637542024"><ele>47.0</ele><time>2026-04-26T06:46:16.975Z</time></trkpt><trkpt lat="37.830065652625755" lon="15.251245471348858"><ele>47.0</ele><time>2026-04-26T06:46:17.975Z</time></trkpt><trkpt lat="37.830154905273496" lon="15.251148273995247"><ele>47.0</ele><time>2026-04-26T06:46:18.975Z</time></trkpt><trkpt lat="37.83021760922412" lon="15.251034435345758"><ele>47.0</ele><time>2026-04-26T06:46:19.975Z</time></trkpt><trkpt lat="37.830279868608166" lon="15.250920851645896"><ele>48.0</ele><time>2026-04-26T06:46:20.975Z</time></trkpt><trkpt lat="37.83033786064298" lon="15.250815053073708"><ele>49.0</ele><time>2026-04-26T06:46:21.974Z</time></trkpt><trkpt lat="37.83039506034475" lon="15.250711273207187"><ele>50.0</ele><time>2026-04-26T06:46:22.974Z</time></trkpt><trkpt lat="37.83046239936537" lon="15.25058987014947"><ele>51.0</ele><time>2026-04-26T06:46:23.974Z</time></trkpt><trkpt lat="37.83054727278813" lon="15.250439571819332"><ele>51.0</ele><time>2026-04-26T06:46:24.974Z</time></trkpt><trkpt lat="37.83064302951909" lon="15.250273594797115"><ele>51.0</ele><time>2026-04-26T06:46:25.974Z</time></trkpt><trkpt lat="37.83071407062831" lon="15.250071376200193"><ele>51.0</ele><time>2026-04-26T06:46:26.974Z</time></trkpt><trkpt lat="37.83082603151738" lon="15.249892930953383"><ele>52.0</ele><time>2026-04-26T06:46:27.974Z</time></trkpt><trkpt lat="37.83093540022597" lon="15.24969306130636"><ele>53.0</ele><time>2026-04-26T06:46:28.974Z</time></trkpt><trkpt lat="37.8310453543953" lon="15.24948806220098"><ele>54.0</ele><time>2026-04-26T06:46:29.974Z</time></trkpt><trkpt lat="37.83115622836973" lon="15.249292363014195"><ele>54.0</ele><time>2026-04-26T06:46:30.974Z</time></trkpt><trkpt lat="37.831300509978135" lon="15.249134582150411"><ele>54.0</ele><time>2026-04-26T06:46:31.974Z</time></trkpt><trkpt lat="37.83140125647319" lon="15.24895799547503"><ele>54.0</ele><time>2026-04-26T06:46:32.974Z</time></trkpt><trkpt lat="37.8314992014859" lon="15.248784194704978"><ele>55.5</ele><time>2026-04-26T06:46:33.974Z</time></trkpt><trkpt lat="37.83158738269577" lon="15.24862463114439"><ele>57.0</ele><time>2026-04-26T06:46:34.974Z</time></trkpt><trkpt lat="37.8316662505753" lon="15.248481919992443"><ele>58.5</ele><time>2026-04-26T06:46:35.974Z</time></trkpt><trkpt lat="37.83173680703626" lon="15.248333973170643"><ele>60.0</ele><time>2026-04-26T06:46:36.974Z</time></trkpt><trkpt lat="37.83182504496676" lon="15.248195550185672"><ele>60.75</ele><time>2026-04-26T06:46:37.974Z</time></trkpt><trkpt lat="37.831903162086775" lon="15.24804543508608"><ele>61.5</ele><time>2026-04-26T06:46:38.974Z</time></trkpt><trkpt lat="37.83198093912977" lon="15.247901109007715"><ele>62.25</ele><time>2026-04-26T06:46:39.974Z</time></trkpt><trkpt lat="37.83207520882071" lon="15.247775446951158"><ele>63.0</ele><time>2026-04-26T06:46:40.974Z</time></trkpt><trkpt lat="37.83216051496954" lon="15.247637463808028"><ele>63.0</ele><time>2026-04-26T06:46:41.974Z</time></trkpt><trkpt lat="37.83225524987234" lon="15.24748891273509"><ele>63.0</ele><time>2026-04-26T06:46:42.974Z</time></trkpt><trkpt lat="37.83236117234425" lon="15.247347409875744"><ele>63.0</ele><time>2026-04-26T06:46:43.974Z</time></trkpt><trkpt lat="37.83245288979205" lon="15.24720775653635"><ele>63.0</ele><time>2026-04-26T06:46:44.974Z</time></trkpt><trkpt lat="37.83253558949695" lon="15.247067350141917"><ele>62.75</ele><time>2026-04-26T06:46:45.974Z</time></trkpt><trkpt lat="37.83262541756025" lon="15.246935555236568"><ele>62.5</ele><time>2026-04-26T06:46:46.974Z</time></trkpt><trkpt lat="37.8327158907461" lon="15.246798328635933"><ele>62.25</ele><time>2026-04-26T06:46:47.974Z</time></trkpt><trkpt lat="37.83280540891826" lon="15.246661524254762"><ele>62.0</ele><time>2026-04-26T06:46:48.974Z</time></trkpt><trkpt lat="37.83289471059855" lon="15.24654154305883"><ele>61.8</ele><time>2026-04-26T06:46:49.974Z</time></trkpt><trkpt lat="37.83297568119932" lon="15.246425900755908"><ele>61.6</ele><time>2026-04-26T06:46:50.974Z</time></trkpt><trkpt lat="37.83304934848341" lon="15.24631770930466"><ele>61.39999999999999</ele><time>2026-04-26T06:46:51.974Z</time></trkpt><trkpt lat="37.83311017693073" lon="15.246219612470927"><ele>61.199999999999996</ele><time>2026-04-26T06:46:52.974Z</time></trkpt><trkpt lat="37.833167469430876" lon="15.246132626952717"><ele>61.0</ele><time>2026-04-26T06:46:53.974Z</time></trkpt><trkpt lat="37.833221748598014" lon="15.24604092939561"><ele>61.0</ele><time>2026-04-26T06:46:54.974Z</time></trkpt><trkpt lat="37.83328336426474" lon="15.24594466058889"><ele>60.99999999999999</ele><time>2026-04-26T06:46:55.974Z</time></trkpt><trkpt lat="37.83334368589464" lon="15.245855300525372"><ele>60.99999999999999</ele><time>2026-04-26T06:46:56.973Z</time></trkpt><trkpt lat="37.83340187121921" lon="15.245764386670709"><ele>61.0</ele><time>2026-04-26T06:46:57.973Z</time></trkpt><trkpt lat="37.83346369856385" lon="15.2456746735338"><ele>61.0</ele><time>2026-04-26T06:46:58.973Z</time></trkpt><trkpt lat="37.83353687839726" lon="15.245574417986157"><ele>61.0</ele><time>2026-04-26T06:46:59.973Z</time></trkpt><trkpt lat="37.83360759565789" lon="15.245471977217628"><ele>60.99999999999999</ele><time>2026-04-26T06:47:00.973Z</time></trkpt><trkpt lat="37.83367343201218" lon="15.245366977338811"><ele>60.99999999999999</ele><time>2026-04-26T06:47:01.973Z</time></trkpt><trkpt lat="37.833737684312965" lon="15.245273894234991"><ele>61.0</ele><time>2026-04-26T06:47:02.973Z</time></trkpt><trkpt lat="37.83380351641918" lon="15.245180299222865"><ele>61.0</ele><time>2026-04-26T06:47:03.973Z</time></trkpt><trkpt lat="37.83387406032852" lon="15.245072990606717"><ele>61.0</ele><time>2026-04-26T06:47:04.973Z</time></trkpt><trkpt lat="37.83395536261979" lon="15.244940323149505"><ele>61.0</ele><time>2026-04-26T06:47:05.973Z</time></trkpt><trkpt lat="37.834035292702495" lon="15.244818866462332"><ele>61.0</ele><time>2026-04-26T06:47:06.973Z</time></trkpt><trkpt lat="37.834105013944104" lon="15.244717653945166"><ele>61.0</ele><time>2026-04-26T06:47:07.973Z</time></trkpt><trkpt lat="37.83416093466764" lon="15.244621550682021"><ele>60.83333333333333</ele><time>2026-04-26T06:47:08.973Z</time></trkpt><trkpt lat="37.8342212435502" lon="15.244558435451747"><ele>60.666666666666664</ele><time>2026-04-26T06:47:09.973Z</time></trkpt><trkpt lat="37.83427454528238" lon="15.244491252389453"><ele>60.5</ele><time>2026-04-26T06:47:10.973Z</time></trkpt><trkpt lat="37.8343235595865" lon="15.24441932225087"><ele>60.33333333333333</ele><time>2026-04-26T06:47:11.973Z</time></trkpt><trkpt lat="37.834377189499065" lon="15.244340376009685"><ele>60.166666666666664</ele><time>2026-04-26T06:47:12.973Z</time></trkpt><trkpt lat="37.83443148658116" lon="15.244253960622222"><ele>60.0</ele><time>2026-04-26T06:47:13.973Z</time></trkpt><trkpt lat="37.83449036525132" lon="15.24415887548125"><ele>60.0</ele><time>2026-04-26T06:47:14.973Z</time></trkpt><trkpt lat="37.83455630562061" lon="15.244064883655934"><ele>60.0</ele><time>2026-04-26T06:47:15.973Z</time></trkpt><trkpt lat="37.83462083117092" lon="15.243967289348436"><ele>60.0</ele><time>2026-04-26T06:47:16.973Z</time></trkpt><trkpt lat="37.83468708766229" lon="15.243864247411636"><ele>60.0</ele><time>2026-04-26T06:47:17.973Z</time></trkpt><trkpt lat="37.83476935360906" lon="15.24374501224342"><ele>60.0</ele><time>2026-04-26T06:47:18.973Z</time></trkpt><trkpt lat="37.83486551957937" lon="15.243611055001574"><ele>59.66666666666667</ele><time>2026-04-26T06:47:19.973Z</time></trkpt><trkpt lat="37.8349745655841" lon="15.24344431942307"><ele>59.333333333333336</ele><time>2026-04-26T06:47:20.973Z</time></trkpt><trkpt lat="37.835087089476744" lon="15.243273330099914"><ele>59.0</ele><time>2026-04-26T06:47:21.973Z</time></trkpt><trkpt lat="37.83519587279955" lon="15.24310991727809"><ele>59.0</ele><time>2026-04-26T06:47:22.973Z</time></trkpt><trkpt lat="37.83530728545524" lon="15.242935881121692"><ele>59.0</ele><time>2026-04-26T06:47:23.973Z</time></trkpt><trkpt lat="37.835413604144144" lon="15.242764488125369"><ele>59.0</ele><time>2026-04-26T06:47:24.973Z</time></trkpt><trkpt lat="37.83550962815839" lon="15.24260356184256"><ele>59.0</ele><time>2026-04-26T06:47:25.973Z</time></trkpt><trkpt lat="37.835615577087424" lon="15.242436070890754"><ele>59.0</ele><time>2026-04-26T06:47:26.973Z</time></trkpt><trkpt lat="37.835722156092864" lon="15.242267775391857"><ele>59.0</ele><time>2026-04-26T06:47:27.973Z</time></trkpt><trkpt lat="37.8358331073917" lon="15.242096899778334"><ele>59.0</ele><time>2026-04-26T06:47:28.973Z</time></trkpt><trkpt lat="37.8359563387002" lon="15.24191805626387"><ele>59.0</ele><time>2026-04-26T06:47:29.973Z</time></trkpt><trkpt lat="37.83608166895743" lon="15.241736539657849"><ele>59.0</ele><time>2026-04-26T06:47:30.973Z</time></trkpt><trkpt lat="37.836199571869514" lon="15.241550138262179"><ele>60.0</ele><time>2026-04-26T06:47:31.973Z</time></trkpt><trkpt lat="37.83631835456612" lon="15.241371255657583"><ele>61.0</ele><time>2026-04-26T06:47:32.972Z</time></trkpt><trkpt lat="37.83643529071347" lon="15.241200288947425"><ele>62.0</ele><time>2026-04-26T06:47:33.972Z</time></trkpt><trkpt lat="37.83655538672562" lon="15.241022827301652"><ele>62.0</ele><time>2026-04-26T06:47:34.972Z</time></trkpt><trkpt lat="37.836676037668525" lon="15.240849987244486"><ele>62.0</ele><time>2026-04-26T06:47:35.972Z</time></trkpt><trkpt lat="37.83678625793994" lon="15.240639723119658"><ele>62.0</ele><time>2026-04-26T06:47:36.972Z</time></trkpt><trkpt lat="37.83689355767715" lon="15.240414914034753"><ele>62.66666666666667</ele><time>2026-04-26T06:47:37.972Z</time></trkpt><trkpt lat="37.83699895588828" lon="15.240190609901557"><ele>63.33333333333333</ele><time>2026-04-26T06:47:38.972Z</time></trkpt><trkpt lat="37.837105384777736" lon="15.239970473242485"><ele>64.0</ele><time>2026-04-26T06:47:39.972Z</time></trkpt><trkpt lat="37.83720656191624" lon="15.239767246114049"><ele>64.0</ele><time>2026-04-26T06:47:40.972Z</time></trkpt><trkpt lat="37.83729706979976" lon="15.239583946470704"><ele>64.0</ele><time>2026-04-26T06:47:41.972Z</time></trkpt><trkpt lat="37.83737803077614" lon="15.239409975924373"><ele>64.0</ele><time>2026-04-26T06:47:42.972Z</time></trkpt><trkpt lat="37.83744654144664" lon="15.239239965546593"><ele>64.0</ele><time>2026-04-26T06:47:43.972Z</time></trkpt><trkpt lat="37.837502289815106" lon="15.239052103487554"><ele>64.0</ele><time>2026-04-26T06:47:44.972Z</time></trkpt><trkpt lat="37.837556564559755" lon="15.238837428318423"><ele>64.0</ele><time>2026-04-26T06:47:45.972Z</time></trkpt><trkpt lat="37.837621303135734" lon="15.238617981960438"><ele>65.0</ele><time>2026-04-26T06:47:46.972Z</time></trkpt><trkpt lat="37.837685948488875" lon="15.238403415264578"><ele>66.0</ele><time>2026-04-26T06:47:47.972Z</time></trkpt><trkpt lat="37.83774433803957" lon="15.238191601618782"><ele>67.0</ele><time>2026-04-26T06:47:48.972Z</time></trkpt><trkpt lat="37.8377962854789" lon="15.237983329535252"><ele>67.0</ele><time>2026-04-26T06:47:49.972Z</time></trkpt><trkpt lat="37.83784214784503" lon="15.237782374885173"><ele>67.0</ele><time>2026-04-26T06:47:50.972Z</time></trkpt><trkpt lat="37.837879483683174" lon="15.237581862889382"><ele>67.0</ele><time>2026-04-26T06:47:51.972Z</time></trkpt><trkpt lat="37.83789989862587" lon="15.237382114742365"><ele>66.33333333333333</ele><time>2026-04-26T06:47:52.972Z</time></trkpt><trkpt lat="37.83788656521174" lon="15.23717227609274"><ele>65.66666666666667</ele><time>2026-04-26T06:47:53.972Z</time></trkpt><trkpt lat="37.83785991590099" lon="15.236977290300121"><ele>65.0</ele><time>2026-04-26T06:47:54.972Z</time></trkpt><trkpt lat="37.83783328893884" lon="15.23680428781296"><ele>65.0</ele><time>2026-04-26T06:47:55.972Z</time></trkpt><trkpt lat="37.83781544287226" lon="15.236642874895232"><ele>65.0</ele><time>2026-04-26T06:47:56.972Z</time></trkpt><trkpt lat="37.837797651585404" lon="15.236487572810589"><ele>65.0</ele><time>2026-04-26T06:47:57.972Z</time></trkpt><trkpt lat="37.83780292566462" lon="15.236339781997104"><ele>65.0</ele><time>2026-04-26T06:47:58.972Z</time></trkpt><trkpt lat="37.83784031727619" lon="15.236187675657169"><ele>64.8</ele><time>2026-04-26T06:47:59.972Z</time></trkpt><trkpt lat="37.83787462000878" lon="15.236042649265828"><ele>64.6</ele><time>2026-04-26T06:48:00.972Z</time></trkpt><trkpt lat="37.83791906756499" lon="15.235911781085711"><ele>64.4</ele><time>2026-04-26T06:48:01.972Z</time></trkpt><trkpt lat="37.837943817934715" lon="15.235800874832295"><ele>64.2</ele><time>2026-04-26T06:48:02.972Z</time></trkpt><trkpt lat="37.838013034569414" lon="15.235690289645119"><ele>64.0</ele><time>2026-04-26T06:48:04.972Z</time></trkpt><trkpt lat="37.83810666163222" lon="15.235618257377569"><ele>63.6</ele><time>2026-04-26T06:48:06.972Z</time></trkpt><trkpt lat="37.83817834451551" lon="15.23553404460128"><ele>63.2</ele><time>2026-04-26T06:48:08.971Z</time></trkpt><trkpt lat="37.83816615215713" lon="15.235413016217253"><ele>62.800000000000004</ele><time>2026-04-26T06:48:10.974Z</time></trkpt><trkpt lat="37.8381269833702" lon="15.235267498981804"><ele>62.400000000000006</ele><time>2026-04-26T06:48:12.973Z</time></trkpt><trkpt lat="37.838122631225794" lon="15.235186866584957"><ele>62.0</ele><time>2026-04-26T06:48:13.974Z</time></trkpt><trkpt lat="37.8381349895434" lon="15.235088554936643"><ele>62.0</ele><time>2026-04-26T06:48:14.974Z</time></trkpt><trkpt lat="37.83818411807339" lon="15.234985383894067"><ele>62.0</ele><time>2026-04-26T06:48:15.974Z</time></trkpt><trkpt lat="37.83823271513546" lon="15.234848184683491"><ele>62.0</ele><time>2026-04-26T06:48:16.974Z</time></trkpt><trkpt lat="37.838292316361596" lon="15.234679918532937"><ele>62.0</ele><time>2026-04-26T06:48:17.974Z</time></trkpt><trkpt lat="37.83834959259903" lon="15.234483236698106"><ele>61.66666666666667</ele><time>2026-04-26T06:48:18.974Z</time></trkpt><trkpt lat="37.838413776273825" lon="15.23427313715178"><ele>61.33333333333333</ele><time>2026-04-26T06:48:19.974Z</time></trkpt><trkpt lat="37.8384659243358" lon="15.234053325759312"><ele>61.0</ele><time>2026-04-26T06:48:20.974Z</time></trkpt><trkpt lat="37.83855007342735" lon="15.233843486880193"><ele>64.33333333333333</ele><time>2026-04-26T06:48:21.974Z</time></trkpt><trkpt lat="37.83860875841041" lon="15.233639803426756"><ele>67.66666666666667</ele><time>2026-04-26T06:48:22.973Z</time></trkpt><trkpt lat="37.83866386824149" lon="15.23344989565302"><ele>71.0</ele><time>2026-04-26T06:48:23.973Z</time></trkpt><trkpt lat="37.838702422139384" lon="15.233267074532666"><ele>70.66666666666667</ele><time>2026-04-26T06:48:24.973Z</time></trkpt><trkpt lat="37.83871798203054" lon="15.233081682154234"><ele>70.33333333333333</ele><time>2026-04-26T06:48:25.973Z</time></trkpt><trkpt lat="37.838705724679784" lon="15.232878690377046"><ele>70.0</ele><time>2026-04-26T06:48:26.973Z</time></trkpt><trkpt lat="37.83869243614884" lon="15.232666624093016"><ele>70.0</ele><time>2026-04-26T06:48:27.973Z</time></trkpt><trkpt lat="37.83867648248056" lon="15.232442058056646"><ele>70.0</ele><time>2026-04-26T06:48:28.973Z</time></trkpt><trkpt lat="37.838634440066464" lon="15.232182386204666"><ele>70.0</ele><time>2026-04-26T06:48:29.973Z</time></trkpt><trkpt lat="37.83861096622629" lon="15.231930011864959"><ele>67.66666666666666</ele><time>2026-04-26T06:48:30.973Z</time></trkpt><trkpt lat="37.83864738766443" lon="15.231715166036892"><ele>65.33333333333333</ele><time>2026-04-26T06:48:31.973Z</time></trkpt><trkpt lat="37.838703656712084" lon="15.231525439800215"><ele>63.0</ele><time>2026-04-26T06:48:32.973Z</time></trkpt><trkpt lat="37.83877746622064" lon="15.231355582048105"><ele>62.75</ele><time>2026-04-26T06:48:33.973Z</time></trkpt><trkpt lat="37.838876792598704" lon="15.231233317303126"><ele>62.5</ele><time>2026-04-26T06:48:34.973Z</time></trkpt><trkpt lat="37.83896325598202" lon="15.231129877508007"><ele>62.25</ele><time>2026-04-26T06:48:35.973Z</time></trkpt><trkpt lat="37.83906150536555" lon="15.23104420556059"><ele>62.0</ele><time>2026-04-26T06:48:36.973Z</time></trkpt><trkpt lat="37.83919839511105" lon="15.23093355721398"><ele>61.66666666666667</ele><time>2026-04-26T06:48:37.973Z</time></trkpt><trkpt lat="37.83936017867165" lon="15.230884831936804"><ele>61.33333333333333</ele><time>2026-04-26T06:48:38.973Z</time></trkpt><trkpt lat="37.83955928461943" lon="15.23080921932705"><ele>61.0</ele><time>2026-04-26T06:48:39.973Z</time></trkpt><trkpt lat="37.83979398861145" lon="15.23072330351962"><ele>60.5</ele><time>2026-04-26T06:48:40.973Z</time></trkpt><trkpt lat="37.840056564625186" lon="15.230622767814701"><ele>60.0</ele><time>2026-04-26T06:48:41.973Z</time></trkpt><trkpt lat="37.840316667118906" lon="15.230524103902377"><ele>60.0</ele><time>2026-04-26T06:48:42.973Z</time></trkpt><trkpt lat="37.84059041203868" lon="15.23042132179666"><ele>60.0</ele><time>2026-04-26T06:48:43.973Z</time></trkpt><trkpt lat="37.84086655471897" lon="15.23029596616588"><ele>61.5</ele><time>2026-04-26T06:48:44.973Z</time></trkpt><trkpt lat="37.84114643923951" lon="15.230195422116203"><ele>63.0</ele><time>2026-04-26T06:48:45.973Z</time></trkpt><trkpt lat="37.84142423790016" lon="15.230093056165554"><ele>63.0</ele><time>2026-04-26T06:48:46.973Z</time></trkpt><trkpt lat="37.84170333427467" lon="15.229993062534529"><ele>63.0</ele><time>2026-04-26T06:48:47.973Z</time></trkpt><trkpt lat="37.841970894745565" lon="15.229893210804216"><ele>62.0</ele><time>2026-04-26T06:48:48.973Z</time></trkpt><trkpt lat="37.84223548565159" lon="15.229789476872801"><ele>61.0</ele><time>2026-04-26T06:48:49.973Z</time></trkpt><trkpt lat="37.842498173795015" lon="15.229697369930898"><ele>63.0</ele><time>2026-04-26T06:48:50.973Z</time></trkpt><trkpt lat="37.84276456332097" lon="15.229630406066795"><ele>65.0</ele><time>2026-04-26T06:48:51.973Z</time></trkpt><trkpt lat="37.843017399318306" lon="15.229545306614837"><ele>65.0</ele><time>2026-04-26T06:48:52.973Z</time></trkpt><trkpt lat="37.84326694572902" lon="15.22947719759408"><ele>65.0</ele><time>2026-04-26T06:48:53.973Z</time></trkpt><trkpt lat="37.84351754034926" lon="15.229426521604207"><ele>67.0</ele><time>2026-04-26T06:48:54.973Z</time></trkpt><trkpt lat="37.843771009086886" lon="15.229389506774881"><ele>69.0</ele><time>2026-04-26T06:48:55.973Z</time></trkpt><trkpt lat="37.8440130063436" lon="15.229351670698861"><ele>69.0</ele><time>2026-04-26T06:48:56.972Z</time></trkpt><trkpt lat="37.844231603594615" lon="15.229291543224095"><ele>69.0</ele><time>2026-04-26T06:48:57.972Z</time></trkpt><trkpt lat="37.84444640534237" lon="15.229260150009587"><ele>69.0</ele><time>2026-04-26T06:48:58.972Z</time></trkpt><trkpt lat="37.84465035496525" lon="15.229208477402974"><ele>70.0</ele><time>2026-04-26T06:48:59.972Z</time></trkpt><trkpt lat="37.844851966462606" lon="15.229108611051496"><ele>71.0</ele><time>2026-04-26T06:49:00.972Z</time></trkpt><trkpt lat="37.845048786581685" lon="15.228946447682361"><ele>70.0</ele><time>2026-04-26T06:49:01.972Z</time></trkpt><trkpt lat="37.84524149468799" lon="15.228705898274983"><ele>69.0</ele><time>2026-04-26T06:49:02.972Z</time></trkpt><trkpt lat="37.84540683141508" lon="15.228393428401024"><ele>68.0</ele><time>2026-04-26T06:49:03.972Z</time></trkpt><trkpt lat="37.845551688887596" lon="15.228057911341978"><ele>67.0</ele><time>2026-04-26T06:49:04.972Z</time></trkpt><trkpt lat="37.845735178774426" lon="15.227728833049094"><ele>67.0</ele><time>2026-04-26T06:49:05.972Z</time></trkpt><trkpt lat="37.84590712910085" lon="15.227404409249113"><ele>67.0</ele><time>2026-04-26T06:49:06.972Z</time></trkpt><trkpt lat="37.84606411465373" lon="15.227108218982785"><ele>73.5</ele><time>2026-04-26T06:49:07.972Z</time></trkpt><trkpt lat="37.84621540640174" lon="15.22681926359852"><ele>80.0</ele><time>2026-04-26T06:49:08.972Z</time></trkpt><trkpt lat="37.846367730619576" lon="15.226529111486574"><ele>76.5</ele><time>2026-04-26T06:49:09.972Z</time></trkpt><trkpt lat="37.8465182752174" lon="15.226242820371064"><ele>73.0</ele><time>2026-04-26T06:49:10.972Z</time></trkpt><trkpt lat="37.84666878594452" lon="15.225959667365903"><ele>74.5</ele><time>2026-04-26T06:49:11.972Z</time></trkpt><trkpt lat="37.846818267014434" lon="15.22567664852891"><ele>76.0</ele><time>2026-04-26T06:49:12.972Z</time></trkpt><trkpt lat="37.846966014572864" lon="15.225396776158108"><ele>76.0</ele><time>2026-04-26T06:49:13.972Z</time></trkpt><trkpt lat="37.84711047144396" lon="15.225123137497205"><ele>76.0</ele><time>2026-04-26T06:49:14.972Z</time></trkpt><trkpt lat="37.84725361106142" lon="15.224854547320081"><ele>77.33333333333333</ele><time>2026-04-26T06:49:15.972Z</time></trkpt><trkpt lat="37.84738912001644" lon="15.224616966600081"><ele>78.66666666666667</ele><time>2026-04-26T06:49:16.972Z</time></trkpt><trkpt lat="37.84753132444078" lon="15.224428113579588"><ele>80.0</ele><time>2026-04-26T06:49:17.972Z</time></trkpt><trkpt lat="37.847697165010366" lon="15.224267912357561"><ele>80.0</ele><time>2026-04-26T06:49:18.972Z</time></trkpt><trkpt lat="37.847887399769085" lon="15.224132293079514"><ele>80.0</ele><time>2026-04-26T06:49:19.972Z</time></trkpt><trkpt lat="37.84816017388426" lon="15.224017744373258"><ele>80.33333333333334</ele><time>2026-04-26T06:49:20.972Z</time></trkpt><trkpt lat="37.84838529259404" lon="15.223978045645758"><ele>80.66666666666667</ele><time>2026-04-26T06:49:21.972Z</time></trkpt><trkpt lat="37.84857793475934" lon="15.22400619785718"><ele>81.0</ele><time>2026-04-26T06:49:22.972Z</time></trkpt><trkpt lat="37.84875321239537" lon="15.224095399372244"><ele>81.0</ele><time>2026-04-26T06:49:23.972Z</time></trkpt><trkpt lat="37.848979931433625" lon="15.224194875516641"><ele>81.0</ele><time>2026-04-26T06:49:24.972Z</time></trkpt><trkpt lat="37.84921946241791" lon="15.224259570834692"><ele>79.0</ele><time>2026-04-26T06:49:25.972Z</time></trkpt><trkpt lat="37.84948812166988" lon="15.22426606754395"><ele>77.0</ele><time>2026-04-26T06:49:26.972Z</time></trkpt><trkpt lat="37.84974160592093" lon="15.224293624292951"><ele>77.0</ele><time>2026-04-26T06:49:27.972Z</time></trkpt><trkpt lat="37.84998643924886" lon="15.22434198032335"><ele>77.0</ele><time>2026-04-26T06:49:28.972Z</time></trkpt><trkpt lat="37.8502354939228" lon="15.224401875492553"><ele>77.5</ele><time>2026-04-26T06:49:29.972Z</time></trkpt><trkpt lat="37.85047066346706" lon="15.224458792923548"><ele>78.0</ele><time>2026-04-26T06:49:30.972Z</time></trkpt><trkpt lat="37.85070801337258" lon="15.224517059107253"><ele>78.0</ele><time>2026-04-26T06:49:31.971Z</time></trkpt><trkpt lat="37.85093163272038" lon="15.224586274176998"><ele>78.0</ele><time>2026-04-26T06:49:32.971Z</time></trkpt><trkpt lat="37.85115222741709" lon="15.224683457098433"><ele>81.0</ele><time>2026-04-26T06:49:33.971Z</time></trkpt><trkpt lat="37.85135419849304" lon="15.224818727812373"><ele>84.0</ele><time>2026-04-26T06:49:34.971Z</time></trkpt><trkpt lat="37.85154431150946" lon="15.224983235546725"><ele>84.0</ele><time>2026-04-26T06:49:35.971Z</time></trkpt><trkpt lat="37.851729415196" lon="15.225167941354883"><ele>84.0</ele><time>2026-04-26T06:49:36.971Z</time></trkpt><trkpt lat="37.85190658697021" lon="15.225345399109905"><ele>84.0</ele><time>2026-04-26T06:49:37.971Z</time></trkpt><trkpt lat="37.8520747376366" lon="15.225510173883649"><ele>84.0</ele><time>2026-04-26T06:49:38.971Z</time></trkpt><trkpt lat="37.852242701770926" lon="15.2256380782333"><ele>84.0</ele><time>2026-04-26T06:49:39.971Z</time></trkpt><trkpt lat="37.852392201086126" lon="15.225769629067583"><ele>86.33333333333333</ele><time>2026-04-26T06:49:40.971Z</time></trkpt><trkpt lat="37.85257300273441" lon="15.225859664007729"><ele>88.66666666666666</ele><time>2026-04-26T06:49:41.971Z</time></trkpt><trkpt lat="37.852765299474385" lon="15.225924897484635"><ele>91.0</ele><time>2026-04-26T06:49:42.971Z</time></trkpt><trkpt lat="37.852970015804935" lon="15.22590122737359"><ele>91.0</ele><time>2026-04-26T06:49:43.971Z</time></trkpt><trkpt lat="37.853173182024676" lon="15.225859217096765"><ele>91.0</ele><time>2026-04-26T06:49:44.971Z</time></trkpt><trkpt lat="37.85337357814119" lon="15.225782284506078"><ele>91.0</ele><time>2026-04-26T06:49:45.971Z</time></trkpt><trkpt lat="37.85354963129874" lon="15.225666389859327"><ele>90.66666666666666</ele><time>2026-04-26T06:49:46.971Z</time></trkpt><trkpt lat="37.85370127452809" lon="15.225494814510038"><ele>90.33333333333333</ele><time>2026-04-26T06:49:47.971Z</time></trkpt><trkpt lat="37.85384796176992" lon="15.225292538591189"><ele>90.0</ele><time>2026-04-26T06:49:48.971Z</time></trkpt><trkpt lat="37.85398759623239" lon="15.225071383772457"><ele>90.0</ele><time>2026-04-26T06:49:49.971Z</time></trkpt><trkpt lat="37.854121368805636" lon="15.224859126342254"><ele>90.0</ele><time>2026-04-26T06:49:50.971Z</time></trkpt><trkpt lat="37.85425851010069" lon="15.224653163310379"><ele>90.0</ele><time>2026-04-26T06:49:51.971Z</time></trkpt><trkpt lat="37.85440379517986" lon="15.224449516928791"><ele>89.66666666666667</ele><time>2026-04-26T06:49:52.971Z</time></trkpt><trkpt lat="37.854547863692" lon="15.224249310457672"><ele>89.33333333333334</ele><time>2026-04-26T06:49:53.971Z</time></trkpt><trkpt lat="37.854683119137995" lon="15.224070604918012"><ele>89.0</ele><time>2026-04-26T06:49:54.971Z</time></trkpt><trkpt lat="37.85481711479916" lon="15.223910207785332"><ele>89.0</ele><time>2026-04-26T06:49:55.971Z</time></trkpt><trkpt lat="37.85496028620312" lon="15.223768767934402"><ele>89.0</ele><time>2026-04-26T06:49:56.971Z</time></trkpt><trkpt lat="37.85510861984639" lon="15.223629915912413"><ele>89.0</ele><time>2026-04-26T06:49:57.971Z</time></trkpt><trkpt lat="37.85527218071801" lon="15.223511191519782"><ele>89.66666666666667</ele><time>2026-04-26T06:49:58.971Z</time></trkpt><trkpt lat="37.85544242517232" lon="15.223395602703214"><ele>90.33333333333333</ele><time>2026-04-26T06:49:59.971Z</time></trkpt><trkpt lat="37.85561621156669" lon="15.22330211683372"><ele>91.0</ele><time>2026-04-26T06:50:00.971Z</time></trkpt><trkpt lat="37.85578654584991" lon="15.223221215121017"><ele>91.33333333333333</ele><time>2026-04-26T06:50:01.971Z</time></trkpt><trkpt lat="37.855957429143714" lon="15.223159480619666"><ele>91.66666666666667</ele><time>2026-04-26T06:50:02.971Z</time></trkpt><trkpt lat="37.8561283361196" lon="15.223100926831888"><ele>92.0</ele><time>2026-04-26T06:50:03.971Z</time></trkpt><trkpt lat="37.85629585225553" lon="15.223043234211763"><ele>92.0</ele><time>2026-04-26T06:50:04.971Z</time></trkpt><trkpt lat="37.856458559853024" lon="15.222974948430059"><ele>92.0</ele><time>2026-04-26T06:50:05.971Z</time></trkpt><trkpt lat="37.85661991410232" lon="15.222913714242019"><ele>92.0</ele><time>2026-04-26T06:50:06.971Z</time></trkpt><trkpt lat="37.85678163301128" lon="15.22284991357374"><ele>94.0</ele><time>2026-04-26T06:50:07.97Z</time></trkpt><trkpt lat="37.85693615521711" lon="15.222787669565639"><ele>96.0</ele><time>2026-04-26T06:50:08.97Z</time></trkpt><trkpt lat="37.85708418290354" lon="15.222725369467904"><ele>98.0</ele><time>2026-04-26T06:50:09.97Z</time></trkpt><trkpt lat="37.85723721804527" lon="15.222660732452454"><ele>98.0</ele><time>2026-04-26T06:50:10.97Z</time></trkpt><trkpt lat="37.85739443627487" lon="15.222596511870893"><ele>98.0</ele><time>2026-04-26T06:50:11.97Z</time></trkpt><trkpt lat="37.857550473575635" lon="15.222529416728527"><ele>98.0</ele><time>2026-04-26T06:50:12.97Z</time></trkpt><trkpt lat="37.85771154067842" lon="15.222468133174342"><ele>98.33333333333333</ele><time>2026-04-26T06:50:13.97Z</time></trkpt><trkpt lat="37.85787604479182" lon="15.22241406076249"><ele>98.66666666666666</ele><time>2026-04-26T06:50:14.97Z</time></trkpt><trkpt lat="37.858046845964346" lon="15.222354166577194"><ele>99.0</ele><time>2026-04-26T06:50:15.973Z</time></trkpt><trkpt lat="37.85821656627897" lon="15.222298661721767"><ele>99.0</ele><time>2026-04-26T06:50:16.972Z</time></trkpt><trkpt lat="37.85839351596239" lon="15.222246018843318"><ele>99.0</ele><time>2026-04-26T06:50:17.972Z</time></trkpt><trkpt lat="37.85856978734378" lon="15.222191234440226"><ele>99.0</ele><time>2026-04-26T06:50:18.973Z</time></trkpt><trkpt lat="37.85874818918398" lon="15.222121890544326"><ele>100.66666666666666</ele><time>2026-04-26T06:50:19.973Z</time></trkpt><trkpt lat="37.85891532506753" lon="15.222039935777019"><ele>102.33333333333333</ele><time>2026-04-26T06:50:20.973Z</time></trkpt><trkpt lat="37.859077517709785" lon="15.221973162234669"><ele>104.0</ele><time>2026-04-26T06:50:21.973Z</time></trkpt><trkpt lat="37.85923459062608" lon="15.221900281266247"><ele>106.0</ele><time>2026-04-26T06:50:22.973Z</time></trkpt><trkpt lat="37.8593887379509" lon="15.221827322606195"><ele>108.0</ele><time>2026-04-26T06:50:23.973Z</time></trkpt><trkpt lat="37.859544668363206" lon="15.221767246890265"><ele>110.0</ele><time>2026-04-26T06:50:24.973Z</time></trkpt><trkpt lat="37.85968560935669" lon="15.221712236989477"><ele>110.0</ele><time>2026-04-26T06:50:25.973Z</time></trkpt><trkpt lat="37.85982100907044" lon="15.221644832139784"><ele>110.0</ele><time>2026-04-26T06:50:26.973Z</time></trkpt><trkpt lat="37.8599493170613" lon="15.221598528655813"><ele>110.0</ele><time>2026-04-26T06:50:27.973Z</time></trkpt><trkpt lat="37.860029613934216" lon="15.221498085016998"><ele>110.0</ele><time>2026-04-26T06:50:28.973Z</time></trkpt><trkpt lat="37.86009548951319" lon="15.221372962893597"><ele>110.5</ele><time>2026-04-26T06:50:29.973Z</time></trkpt><trkpt lat="37.86017587456539" lon="15.221266943363347"><ele>111.0</ele><time>2026-04-26T06:50:30.973Z</time></trkpt><trkpt lat="37.86022321038065" lon="15.221142877436964"><ele>111.5</ele><time>2026-04-26T06:50:31.973Z</time></trkpt><trkpt lat="37.86029914773869" lon="15.221032362255004"><ele>112.0</ele><time>2026-04-26T06:50:32.973Z</time></trkpt><trkpt lat="37.86038174962897" lon="15.220932118129593"><ele>112.0</ele><time>2026-04-26T06:50:33.973Z</time></trkpt><trkpt lat="37.86046116781772" lon="15.220825430587379"><ele>112.0</ele><time>2026-04-26T06:50:34.973Z</time></trkpt><trkpt lat="37.860578747778995" lon="15.220739718836457"><ele>112.0</ele><time>2026-04-26T06:50:35.973Z</time></trkpt><trkpt lat="37.86071264886744" lon="15.220678715499083"><ele>112.0</ele><time>2026-04-26T06:50:36.973Z</time></trkpt><trkpt lat="37.86083184553041" lon="15.220583184533266"><ele>112.0</ele><time>2026-04-26T06:50:37.973Z</time></trkpt><trkpt lat="37.860966472570276" lon="15.220539115533942"><ele>112.0</ele><time>2026-04-26T06:50:38.973Z</time></trkpt><trkpt lat="37.86109363129172" lon="15.220455174786467"><ele>112.0</ele><time>2026-04-26T06:50:39.973Z</time></trkpt><trkpt lat="37.86122887285153" lon="15.220366984864931"><ele>112.0</ele><time>2026-04-26T06:50:40.973Z</time></trkpt><trkpt lat="37.86135600275618" lon="15.220284794428572"><ele>112.0</ele><time>2026-04-26T06:50:41.973Z</time></trkpt><trkpt lat="37.861484393351425" lon="15.220204890726276"><ele>112.0</ele><time>2026-04-26T06:50:42.973Z</time></trkpt><trkpt lat="37.861613116362705" lon="15.220126875448383"><ele>112.0</ele><time>2026-04-26T06:50:43.973Z</time></trkpt><trkpt lat="37.861740163920345" lon="15.220054113005007"><ele>112.0</ele><time>2026-04-26T06:50:44.973Z</time></trkpt><trkpt lat="37.86185755713954" lon="15.219968609287298"><ele>112.25</ele><time>2026-04-26T06:50:45.973Z</time></trkpt><trkpt lat="37.86197299202659" lon="15.219903176967238"><ele>112.5</ele><time>2026-04-26T06:50:46.973Z</time></trkpt><trkpt lat="37.862081262909534" lon="15.219832434000036"><ele>112.75</ele><time>2026-04-26T06:50:47.973Z</time></trkpt><trkpt lat="37.86219517063288" lon="15.219755818138434"><ele>113.0</ele><time>2026-04-26T06:50:48.973Z</time></trkpt><trkpt lat="37.86228309450439" lon="15.219688170111176"><ele>113.0</ele><time>2026-04-26T06:50:49.973Z</time></trkpt><trkpt lat="37.86236458904792" lon="15.219609199416912"><ele>113.00000000000001</ele><time>2026-04-26T06:50:50.973Z</time></trkpt><trkpt lat="37.86245374817465" lon="15.219527384499703"><ele>113.00000000000001</ele><time>2026-04-26T06:50:51.972Z</time></trkpt><trkpt lat="37.86254615054558" lon="15.219435305729428"><ele>113.0</ele><time>2026-04-26T06:50:52.972Z</time></trkpt><trkpt lat="37.862629969452456" lon="15.219342289038645"><ele>113.0</ele><time>2026-04-26T06:50:53.972Z</time></trkpt><trkpt lat="37.86270733591013" lon="15.219250367936148"><ele>113.60000000000001</ele><time>2026-04-26T06:50:54.972Z</time></trkpt><trkpt lat="37.86279195914807" lon="15.219143766130946"><ele>114.20000000000002</ele><time>2026-04-26T06:50:55.972Z</time></trkpt><trkpt lat="37.862877246522444" lon="15.219033816434768"><ele>114.8</ele><time>2026-04-26T06:50:56.972Z</time></trkpt><trkpt lat="37.86295528684463" lon="15.218944980016893"><ele>115.4</ele><time>2026-04-26T06:50:57.972Z</time></trkpt><trkpt lat="37.86303098453926" lon="15.218861275974511"><ele>116.0</ele><time>2026-04-26T06:50:58.972Z</time></trkpt><trkpt lat="37.863113799655906" lon="15.218784595477704"><ele>116.0</ele><time>2026-04-26T06:50:59.972Z</time></trkpt><trkpt lat="37.863189324938126" lon="15.218694354217913"><ele>116.0</ele><time>2026-04-26T06:51:00.972Z</time></trkpt><trkpt lat="37.86326531942383" lon="15.218607238739676"><ele>116.0</ele><time>2026-04-26T06:51:01.972Z</time></trkpt><trkpt lat="37.863340653007114" lon="15.2185228878832"><ele>116.0</ele><time>2026-04-26T06:51:02.972Z</time></trkpt><trkpt lat="37.86341040900046" lon="15.218429393955015"><ele>116.0</ele><time>2026-04-26T06:51:03.972Z</time></trkpt><trkpt lat="37.863490851787574" lon="15.218337735033687"><ele>115.5</ele><time>2026-04-26T06:51:04.972Z</time></trkpt><trkpt lat="37.86358136772427" lon="15.21823212681798"><ele>115.0</ele><time>2026-04-26T06:51:05.972Z</time></trkpt><trkpt lat="37.86368143853526" lon="15.218098371335506"><ele>114.5</ele><time>2026-04-26T06:51:06.972Z</time></trkpt><trkpt lat="37.863786957361505" lon="15.217961024154778"><ele>114.0</ele><time>2026-04-26T06:51:07.972Z</time></trkpt><trkpt lat="37.86389860508211" lon="15.217851172768658"><ele>114.0</ele><time>2026-04-26T06:51:08.972Z</time></trkpt><trkpt lat="37.864017890109096" lon="15.217759063119063"><ele>114.0</ele><time>2026-04-26T06:51:09.972Z</time></trkpt><trkpt lat="37.86415675131056" lon="15.21775844599475"><ele>114.0</ele><time>2026-04-26T06:51:10.972Z</time></trkpt><trkpt lat="37.86430827136263" lon="15.217796883993516"><ele>114.0</ele><time>2026-04-26T06:51:11.972Z</time></trkpt><trkpt lat="37.864447310516205" lon="15.217872551016669"><ele>115.0</ele><time>2026-04-26T06:51:12.972Z</time></trkpt><trkpt lat="37.864571297745584" lon="15.218008606364869"><ele>116.0</ele><time>2026-04-26T06:51:13.972Z</time></trkpt><trkpt lat="37.8646759544697" lon="15.218180924141732"><ele>117.0</ele><time>2026-04-26T06:51:14.972Z</time></trkpt><trkpt lat="37.86477012940408" lon="15.218304644526913"><ele>118.8</ele><time>2026-04-26T06:51:15.972Z</time></trkpt><trkpt lat="37.86486484850398" lon="15.218376256127296"><ele>120.6</ele><time>2026-04-26T06:51:16.972Z</time></trkpt><trkpt lat="37.86496235780934" lon="15.21841303479818"><ele>122.39999999999999</ele><time>2026-04-26T06:51:17.972Z</time></trkpt><trkpt lat="37.865060772423945" lon="15.218406261957693"><ele>124.19999999999999</ele><time>2026-04-26T06:51:18.972Z</time></trkpt><trkpt lat="37.86511726281589" lon="15.218260216331688"><ele>126.0</ele><time>2026-04-26T06:51:19.972Z</time></trkpt><trkpt lat="37.86524796966817" lon="15.218147621844047"><ele>126.0</ele><time>2026-04-26T06:51:20.972Z</time></trkpt><trkpt lat="37.86537859125433" lon="15.218045578481085"><ele>126.0</ele><time>2026-04-26T06:51:21.972Z</time></trkpt><trkpt lat="37.86551676522132" lon="15.217964783033299"><ele>126.0</ele><time>2026-04-26T06:51:22.972Z</time></trkpt><trkpt lat="37.86566625340721" lon="15.217907146724563"><ele>126.0</ele><time>2026-04-26T06:51:23.972Z</time></trkpt><trkpt lat="37.86582186435316" lon="15.217859133179937"><ele>126.0</ele><time>2026-04-26T06:51:24.972Z</time></trkpt><trkpt lat="37.86598978800391" lon="15.217788916645604"><ele>126.0</ele><time>2026-04-26T06:51:25.972Z</time></trkpt><trkpt lat="37.866176614518444" lon="15.217685950668951"><ele>126.33333333333334</ele><time>2026-04-26T06:51:26.971Z</time></trkpt><trkpt lat="37.86637956033471" lon="15.21757001053341"><ele>126.66666666666667</ele><time>2026-04-26T06:51:27.971Z</time></trkpt><trkpt lat="37.86657990814975" lon="15.217449208276864"><ele>127.0</ele><time>2026-04-26T06:51:28.971Z</time></trkpt><trkpt lat="37.866738918866346" lon="15.217317833424636"><ele>129.25</ele><time>2026-04-26T06:51:29.971Z</time></trkpt><trkpt lat="37.86687647908291" lon="15.217220314143784"><ele>131.5</ele><time>2026-04-26T06:51:30.971Z</time></trkpt><trkpt lat="37.86699714475913" lon="15.217131275123815"><ele>133.75</ele><time>2026-04-26T06:51:31.971Z</time></trkpt><trkpt lat="37.86712050495317" lon="15.217109380002672"><ele>136.0</ele><time>2026-04-26T06:51:32.971Z</time></trkpt><trkpt lat="37.867218075362125" lon="15.217126148467017"><ele>136.0</ele><time>2026-04-26T06:51:33.971Z</time></trkpt><trkpt lat="37.86729423549276" lon="15.217214611443508"><ele>136.0</ele><time>2026-04-26T06:51:34.971Z</time></trkpt><trkpt lat="37.8674346204852" lon="15.21730568397582"><ele>136.0</ele><time>2026-04-26T06:51:35.971Z</time></trkpt><trkpt lat="37.86760759176471" lon="15.217358218986739"><ele>136.0</ele><time>2026-04-26T06:51:36.971Z</time></trkpt><trkpt lat="37.86778171325293" lon="15.217412487365104"><ele>143.0</ele><time>2026-04-26T06:51:37.971Z</time></trkpt><trkpt lat="37.86797618943725" lon="15.217457757775874"><ele>150.0</ele><time>2026-04-26T06:51:38.971Z</time></trkpt><trkpt lat="37.86818057287977" lon="15.217521135803393"><ele>157.0</ele><time>2026-04-26T06:51:39.971Z</time></trkpt><trkpt lat="37.86836988773156" lon="15.217603015199678"><ele>154.5</ele><time>2026-04-26T06:51:40.971Z</time></trkpt><trkpt lat="37.86853359779968" lon="15.21764938807167"><ele>152.0</ele><time>2026-04-26T06:51:41.971Z</time></trkpt><trkpt lat="37.86866237139387" lon="15.217708627125754"><ele>149.5</ele><time>2026-04-26T06:51:42.971Z</time></trkpt><trkpt lat="37.86875512887072" lon="15.217818956279691"><ele>147.0</ele><time>2026-04-26T06:51:43.971Z</time></trkpt><trkpt lat="37.8688397329265" lon="15.217959305414523"><ele>147.0</ele><time>2026-04-26T06:51:44.971Z</time></trkpt><trkpt lat="37.86890225776399" lon="15.218122733147364"><ele>147.0</ele><time>2026-04-26T06:51:45.971Z</time></trkpt><trkpt lat="37.86898101066179" lon="15.218219188974171"><ele>147.0</ele><time>2026-04-26T06:51:46.971Z</time></trkpt><trkpt lat="37.869069778172324" lon="15.218258280969579"><ele>147.0</ele><time>2026-04-26T06:51:47.971Z</time></trkpt><trkpt lat="37.8691616633274" lon="15.218257074648424"><ele>147.0</ele><time>2026-04-26T06:51:48.971Z</time></trkpt><trkpt lat="37.869294627844326" lon="15.218178399799163"><ele>151.33333333333334</ele><time>2026-04-26T06:51:49.971Z</time></trkpt><trkpt lat="37.8694258612604" lon="15.218063742181494"><ele>155.66666666666669</ele><time>2026-04-26T06:51:50.971Z</time></trkpt><trkpt lat="37.86956788301604" lon="15.217903023563194"><ele>160.0</ele><time>2026-04-26T06:51:51.971Z</time></trkpt><trkpt lat="37.86968630945428" lon="15.217741512084926"><ele>160.0</ele><time>2026-04-26T06:51:52.971Z</time></trkpt><trkpt lat="37.86979838304103" lon="15.217592725364598"><ele>160.0</ele><time>2026-04-26T06:51:53.971Z</time></trkpt><trkpt lat="37.86988799873897" lon="15.21744014270215"><ele>160.0</ele><time>2026-04-26T06:51:54.971Z</time></trkpt><trkpt lat="37.869952813209274" lon="15.217283159840514"><ele>158.8</ele><time>2026-04-26T06:51:55.971Z</time></trkpt><trkpt lat="37.87000990541332" lon="15.21715387775486"><ele>157.6</ele><time>2026-04-26T06:51:56.971Z</time></trkpt><trkpt lat="37.870037232745" lon="15.217023396040119"><ele>156.4</ele><time>2026-04-26T06:51:57.971Z</time></trkpt><trkpt lat="37.87011365679593" lon="15.216936426769786"><ele>155.2</ele><time>2026-04-26T06:51:58.971Z</time></trkpt><trkpt lat="37.87020883450353" lon="15.216913998178939"><ele>154.0</ele><time>2026-04-26T06:51:59.971Z</time></trkpt><trkpt lat="37.87034532578885" lon="15.216888042042973"><ele>154.0</ele><time>2026-04-26T06:52:00.971Z</time></trkpt><trkpt lat="37.8704897494896" lon="15.216799416349582"><ele>154.0</ele><time>2026-04-26T06:52:01.971Z</time></trkpt><trkpt lat="37.87063544897585" lon="15.216708430072918"><ele>154.0</ele><time>2026-04-26T06:52:02.97Z</time></trkpt><trkpt lat="37.8707850898619" lon="15.216621095390238"><ele>154.0</ele><time>2026-04-26T06:52:03.97Z</time></trkpt><trkpt lat="37.87092403212021" lon="15.21653838397695"><ele>154.0</ele><time>2026-04-26T06:52:04.97Z</time></trkpt><trkpt lat="37.87105446284496" lon="15.216462349169461"><ele>154.0</ele><time>2026-04-26T06:52:05.97Z</time></trkpt><trkpt lat="37.871169608896984" lon="15.216381534130175"><ele>154.0</ele><time>2026-04-26T06:52:06.97Z</time></trkpt><trkpt lat="37.8712819516543" lon="15.21627265982447"><ele>154.66666666666669</ele><time>2026-04-26T06:52:07.97Z</time></trkpt><trkpt lat="37.87134304997067" lon="15.216090304989528"><ele>155.33333333333334</ele><time>2026-04-26T06:52:08.97Z</time></trkpt><trkpt lat="37.87140631989311" lon="15.215911604177798"><ele>156.0</ele><time>2026-04-26T06:52:09.97Z</time></trkpt><trkpt lat="37.871481868328935" lon="15.21572747687822"><ele>153.0</ele><time>2026-04-26T06:52:10.97Z</time></trkpt><trkpt lat="37.871532452848044" lon="15.21552054978731"><ele>150.0</ele><time>2026-04-26T06:52:11.97Z</time></trkpt><trkpt lat="37.87161288785309" lon="15.21532817381313"><ele>147.0</ele><time>2026-04-26T06:52:12.97Z</time></trkpt><trkpt lat="37.87167887691828" lon="15.215136839830212"><ele>147.0</ele><time>2026-04-26T06:52:13.97Z</time></trkpt><trkpt lat="37.87174357288543" lon="15.214945341954756"><ele>147.0</ele><time>2026-04-26T06:52:14.97Z</time></trkpt><trkpt lat="37.87178926311409" lon="15.214755713903598"><ele>147.0</ele><time>2026-04-26T06:52:15.97Z</time></trkpt><trkpt lat="37.87184679684025" lon="15.214586559403555"><ele>147.75</ele><time>2026-04-26T06:52:16.97Z</time></trkpt><trkpt lat="37.87190059265265" lon="15.2144238134952"><ele>148.5</ele><time>2026-04-26T06:52:17.97Z</time></trkpt><trkpt lat="37.87194703191074" lon="15.214279019856031"><ele>149.25</ele><time>2026-04-26T06:52:18.97Z</time></trkpt><trkpt lat="37.87199799954735" lon="15.214152110514165"><ele>150.0</ele><time>2026-04-26T06:52:19.97Z</time></trkpt><trkpt lat="37.872040504593855" lon="15.214026390541708"><ele>154.8</ele><time>2026-04-26T06:52:20.97Z</time></trkpt><trkpt lat="37.8720741607299" lon="15.213917365245559"><ele>159.6</ele><time>2026-04-26T06:52:21.972Z</time></trkpt><trkpt lat="37.87211793369078" lon="15.213835405639227"><ele>164.39999999999998</ele><time>2026-04-26T06:52:22.972Z</time></trkpt><trkpt lat="37.87208338041004" lon="15.213731271523928"><ele>169.2</ele><time>2026-04-26T06:52:23.972Z</time></trkpt><trkpt lat="37.872023241399646" lon="15.213626729349263"><ele>174.0</ele><time>2026-04-26T06:52:24.972Z</time></trkpt><trkpt lat="37.871896953624564" lon="15.213578463729"><ele>170.5</ele><time>2026-04-26T06:52:25.972Z</time></trkpt><trkpt lat="37.87175899074169" lon="15.213556090864966"><ele>167.0</ele><time>2026-04-26T06:52:26.972Z</time></trkpt><trkpt lat="37.871621214941634" lon="15.213551453991988"><ele>163.5</ele><time>2026-04-26T06:52:27.972Z</time></trkpt><trkpt lat="37.87150151421228" lon="15.213524907094756"><ele>160.0</ele><time>2026-04-26T06:52:28.972Z</time></trkpt><trkpt lat="37.87140684548545" lon="15.213455052444823"><ele>160.0</ele><time>2026-04-26T06:52:29.972Z</time></trkpt><trkpt lat="37.87136096455634" lon="15.213351720572842"><ele>160.0</ele><time>2026-04-26T06:52:30.972Z</time></trkpt><trkpt lat="37.87133026338665" lon="15.213210992100604"><ele>160.0</ele><time>2026-04-26T06:52:31.972Z</time></trkpt><trkpt lat="37.87128414289737" lon="15.213022821735393"><ele>160.0</ele><time>2026-04-26T06:52:32.972Z</time></trkpt><trkpt lat="37.871182492009865" lon="15.212834332597593"><ele>156.33333333333334</ele><time>2026-04-26T06:52:33.972Z</time></trkpt><trkpt lat="37.871048950956784" lon="15.212665961281727"><ele>152.66666666666666</ele><time>2026-04-26T06:52:34.972Z</time></trkpt><trkpt lat="37.870922684693596" lon="15.212542821938424"><ele>149.0</ele><time>2026-04-26T06:52:35.972Z</time></trkpt><trkpt lat="37.87083326868778" lon="15.212419034065274"><ele>149.33333333333331</ele><time>2026-04-26T06:52:36.972Z</time></trkpt><trkpt lat="37.87078917164412" lon="15.212271340469288"><ele>149.66666666666666</ele><time>2026-04-26T06:52:37.972Z</time></trkpt><trkpt lat="37.87079696487138" lon="15.212077271994435"><ele>150.0</ele><time>2026-04-26T06:52:38.972Z</time></trkpt><trkpt lat="37.87083136302921" lon="15.211856898867136"><ele>150.0</ele><time>2026-04-26T06:52:39.972Z</time></trkpt><trkpt lat="37.87088111376349" lon="15.211619144847985"><ele>150.0</ele><time>2026-04-26T06:52:40.972Z</time></trkpt><trkpt lat="37.870919120600036" lon="15.211375444167581"><ele>150.0</ele><time>2026-04-26T06:52:41.972Z</time></trkpt><trkpt lat="37.87095280880004" lon="15.211126588892439"><ele>157.0</ele><time>2026-04-26T06:52:42.972Z</time></trkpt><trkpt lat="37.87098938071037" lon="15.210864686047247"><ele>164.0</ele><time>2026-04-26T06:52:43.972Z</time></trkpt><trkpt lat="37.87102856323668" lon="15.210607440281898"><ele>171.0</ele><time>2026-04-26T06:52:44.972Z</time></trkpt><trkpt lat="37.87106395952124" lon="15.210351026925215"><ele>171.0</ele><time>2026-04-26T06:52:45.972Z</time></trkpt><trkpt lat="37.87110995026687" lon="15.210096856445201"><ele>171.0</ele><time>2026-04-26T06:52:46.972Z</time></trkpt><trkpt lat="37.87115180426501" lon="15.20983712764647"><ele>171.0</ele><time>2026-04-26T06:52:47.972Z</time></trkpt><trkpt lat="37.87118975693192" lon="15.209578195077874"><ele>170.0</ele><time>2026-04-26T06:52:48.972Z</time></trkpt><trkpt lat="37.871231146505295" lon="15.209328561933296"><ele>169.0</ele><time>2026-04-26T06:52:49.972Z</time></trkpt><trkpt lat="37.871274593668225" lon="15.209086591769724"><ele>168.0</ele><time>2026-04-26T06:52:50.972Z</time></trkpt><trkpt lat="37.87131793203422" lon="15.208851500889534"><ele>166.0</ele><time>2026-04-26T06:52:51.972Z</time></trkpt><trkpt lat="37.871359185866766" lon="15.208611632331168"><ele>164.0</ele><time>2026-04-26T06:52:52.972Z</time></trkpt><trkpt lat="37.871391507649" lon="15.208358146225748"><ele>162.0</ele><time>2026-04-26T06:52:53.972Z</time></trkpt><trkpt lat="37.87145621818813" lon="15.208098037923936"><ele>161.66666666666666</ele><time>2026-04-26T06:52:54.972Z</time></trkpt><trkpt lat="37.871495080534444" lon="15.207824243897182"><ele>161.33333333333331</ele><time>2026-04-26T06:52:55.972Z</time></trkpt><trkpt lat="37.871543424631646" lon="15.207550249085857"><ele>161.0</ele><time>2026-04-26T06:52:56.972Z</time></trkpt><trkpt lat="37.87158739323007" lon="15.207265893193664"><ele>162.5</ele><time>2026-04-26T06:52:57.971Z</time></trkpt><trkpt lat="37.87163337683578" lon="15.20697626759018"><ele>164.0</ele><time>2026-04-26T06:52:58.971Z</time></trkpt><trkpt lat="37.87167770575767" lon="15.206695989154726"><ele>164.33333333333331</ele><time>2026-04-26T06:52:59.971Z</time></trkpt><trkpt lat="37.87172686811621" lon="15.206419706043846"><ele>164.66666666666666</ele><time>2026-04-26T06:53:00.971Z</time></trkpt><trkpt lat="37.87177571329158" lon="15.20615102468748"><ele>165.0</ele><time>2026-04-26T06:53:01.971Z</time></trkpt><trkpt lat="37.87182275282001" lon="15.205888043604643"><ele>165.66666666666666</ele><time>2026-04-26T06:53:02.971Z</time></trkpt><trkpt lat="37.87186237271863" lon="15.20562561505796"><ele>166.33333333333331</ele><time>2026-04-26T06:53:03.971Z</time></trkpt><trkpt lat="37.8719031350814" lon="15.205384251216655"><ele>167.0</ele><time>2026-04-26T06:53:04.971Z</time></trkpt><trkpt lat="37.87193621326117" lon="15.205153737523183"><ele>167.0</ele><time>2026-04-26T06:53:05.971Z</time></trkpt><trkpt lat="37.87197111935041" lon="15.204937519816717"><ele>167.0</ele><time>2026-04-26T06:53:06.971Z</time></trkpt><trkpt lat="37.87200018541019" lon="15.20473164691271"><ele>167.0</ele><time>2026-04-26T06:53:07.971Z</time></trkpt><trkpt lat="37.871990139544835" lon="15.204535750126578"><ele>166.33333333333331</ele><time>2026-04-26T06:53:08.971Z</time></trkpt><trkpt lat="37.87196167017434" lon="15.2043477232922"><ele>165.66666666666666</ele><time>2026-04-26T06:53:09.971Z</time></trkpt><trkpt lat="37.87186428339827" lon="15.204164052716616"><ele>165.0</ele><time>2026-04-26T06:53:10.971Z</time></trkpt><trkpt lat="37.87172001588875" lon="15.204020094315307"><ele>165.0</ele><time>2026-04-26T06:53:11.971Z</time></trkpt><trkpt lat="37.87154373628218" lon="15.203955431318448"><ele>165.0</ele><time>2026-04-26T06:53:12.971Z</time></trkpt><trkpt lat="37.871338310053666" lon="15.203921273109868"><ele>165.0</ele><time>2026-04-26T06:53:13.971Z</time></trkpt><trkpt lat="37.87111708685484" lon="15.203901274533008"><ele>162.33333333333334</ele><time>2026-04-26T06:53:14.971Z</time></trkpt><trkpt lat="37.87089597768852" lon="15.20387936751019"><ele>159.66666666666669</ele><time>2026-04-26T06:53:15.971Z</time></trkpt><trkpt lat="37.870681575252384" lon="15.203850063116352"><ele>157.0</ele><time>2026-04-26T06:53:16.971Z</time></trkpt><trkpt lat="37.870470814140006" lon="15.203821132742386"><ele>157.0</ele><time>2026-04-26T06:53:17.971Z</time></trkpt><trkpt lat="37.87026754977648" lon="15.203790093187674"><ele>157.0</ele><time>2026-04-26T06:53:18.971Z</time></trkpt><trkpt lat="37.870070028328094" lon="15.203769697026612"><ele>157.0</ele><time>2026-04-26T06:53:19.971Z</time></trkpt><trkpt lat="37.869872651212326" lon="15.203760930309343"><ele>157.66666666666669</ele><time>2026-04-26T06:53:20.971Z</time></trkpt><trkpt lat="37.86967428013963" lon="15.203794468524837"><ele>158.33333333333334</ele><time>2026-04-26T06:53:21.971Z</time></trkpt><trkpt lat="37.86948770360663" lon="15.203865620260355"><ele>159.0</ele><time>2026-04-26T06:53:22.971Z</time></trkpt><trkpt lat="37.8693174288174" lon="15.203965544740715"><ele>152.33333333333334</ele><time>2026-04-26T06:53:23.971Z</time></trkpt><trkpt lat="37.86915594097635" lon="15.20406873085132"><ele>145.66666666666669</ele><time>2026-04-26T06:53:24.971Z</time></trkpt><trkpt lat="37.869003917265026" lon="15.204156746151918"><ele>139.0</ele><time>2026-04-26T06:53:25.971Z</time></trkpt><trkpt lat="37.86884424123218" lon="15.204206047503122"><ele>139.0</ele><time>2026-04-26T06:53:26.971Z</time></trkpt><trkpt lat="37.868698193974325" lon="15.204149879016441"><ele>139.0</ele><time>2026-04-26T06:53:27.971Z</time></trkpt><trkpt lat="37.86857445264111" lon="15.204052124831765"><ele>139.0</ele><time>2026-04-26T06:53:28.971Z</time></trkpt><trkpt lat="37.868453003968504" lon="15.203892813286812"><ele>140.66666666666669</ele><time>2026-04-26T06:53:29.971Z</time></trkpt><trkpt lat="37.8683321608028" lon="15.20372827601169"><ele>142.33333333333334</ele><time>2026-04-26T06:53:30.971Z</time></trkpt><trkpt lat="37.86821520579197" lon="15.203569032687488"><ele>144.0</ele><time>2026-04-26T06:53:31.971Z</time></trkpt><trkpt lat="37.86811527251688" lon="15.203427608184052"><ele>144.0</ele><time>2026-04-26T06:53:32.971Z</time></trkpt><trkpt lat="37.868036675446014" lon="15.203280043446888"><ele>144.0</ele><time>2026-04-26T06:53:33.97Z</time></trkpt><trkpt lat="37.867989494786684" lon="15.203110292781126"><ele>144.0</ele><time>2026-04-26T06:53:34.97Z</time></trkpt><trkpt lat="37.86798424622" lon="15.202915137013502"><ele>144.0</ele><time>2026-04-26T06:53:35.97Z</time></trkpt><trkpt lat="37.867988463555434" lon="15.202696784776256"><ele>144.33333333333334</ele><time>2026-04-26T06:53:36.97Z</time></trkpt><trkpt lat="37.8679914347354" lon="15.202492367694333"><ele>144.66666666666669</ele><time>2026-04-26T06:53:37.97Z</time></trkpt><trkpt lat="37.867994949871964" lon="15.20229657355297"><ele>145.0</ele><time>2026-04-26T06:53:38.97Z</time></trkpt><trkpt lat="37.86799963683893" lon="15.202102021181307"><ele>142.5</ele><time>2026-04-26T06:53:39.97Z</time></trkpt><trkpt lat="37.86803399540149" lon="15.2019282967707"><ele>140.0</ele><time>2026-04-26T06:53:40.97Z</time></trkpt><trkpt lat="37.86808392882159" lon="15.20175037029281"><ele>137.5</ele><time>2026-04-26T06:53:41.97Z</time></trkpt><trkpt lat="37.86816820378272" lon="15.201588258872563"><ele>135.0</ele><time>2026-04-26T06:53:42.97Z</time></trkpt><trkpt lat="37.86827749093483" lon="15.20143011446797"><ele>132.33333333333334</ele><time>2026-04-26T06:53:43.97Z</time></trkpt><trkpt lat="37.868406882364596" lon="15.201264981563083"><ele>129.66666666666669</ele><time>2026-04-26T06:53:44.97Z</time></trkpt><trkpt lat="37.86852452369422" lon="15.201102398397827"><ele>127.0</ele><time>2026-04-26T06:53:45.97Z</time></trkpt><trkpt lat="37.86862418864764" lon="15.200925477726955"><ele>127.0</ele><time>2026-04-26T06:53:46.97Z</time></trkpt><trkpt lat="37.86869568481741" lon="15.200730646992286"><ele>127.0</ele><time>2026-04-26T06:53:47.97Z</time></trkpt><trkpt lat="37.86873761143261" lon="15.20053022773056"><ele>127.0</ele><time>2026-04-26T06:53:48.97Z</time></trkpt><trkpt lat="37.868754380471735" lon="15.20033322485426"><ele>125.33333333333334</ele><time>2026-04-26T06:53:49.97Z</time></trkpt><trkpt lat="37.86874257182097" lon="15.200124519266843"><ele>123.66666666666666</ele><time>2026-04-26T06:53:50.97Z</time></trkpt><trkpt lat="37.86868445333084" lon="15.199902921578044"><ele>122.0</ele><time>2026-04-26T06:53:51.97Z</time></trkpt><trkpt lat="37.86860466824816" lon="15.19967212052718"><ele>122.0</ele><time>2026-04-26T06:53:52.97Z</time></trkpt><trkpt lat="37.86849098483696" lon="15.199451477099093"><ele>122.0</ele><time>2026-04-26T06:53:53.97Z</time></trkpt><trkpt lat="37.868354537767736" lon="15.199272326599388"><ele>122.0</ele><time>2026-04-26T06:53:54.97Z</time></trkpt><trkpt lat="37.86818460336717" lon="15.19914767676159"><ele>121.33333333333333</ele><time>2026-04-26T06:53:55.97Z</time></trkpt><trkpt lat="37.86802506262921" lon="15.199044166174088"><ele>120.66666666666666</ele><time>2026-04-26T06:53:56.97Z</time></trkpt><trkpt lat="37.86786853163367" lon="15.198946952377815"><ele>120.0</ele><time>2026-04-26T06:53:57.97Z</time></trkpt><trkpt lat="37.86771505013659" lon="15.198854744837721"><ele>119.0</ele><time>2026-04-26T06:53:58.97Z</time></trkpt><trkpt lat="37.8675676027389" lon="15.198772115083083"><ele>118.0</ele><time>2026-04-26T06:53:59.97Z</time></trkpt><trkpt lat="37.86743273979494" lon="15.19867970758046"><ele>117.0</ele><time>2026-04-26T06:54:00.97Z</time></trkpt><trkpt lat="37.86731482229583" lon="15.198584672898935"><ele>117.0</ele><time>2026-04-26T06:54:01.97Z</time></trkpt><trkpt lat="37.867211081645735" lon="15.198474716715106"><ele>117.0</ele><time>2026-04-26T06:54:02.97Z</time></trkpt><trkpt lat="37.86715241710365" lon="15.198334295626603"><ele>117.0</ele><time>2026-04-26T06:54:03.97Z</time></trkpt><trkpt lat="37.867114939266855" lon="15.198190227456355"><ele>117.0</ele><time>2026-04-26T06:54:04.97Z</time></trkpt><trkpt lat="37.86709604195309" lon="15.198047546721373"><ele>117.0</ele><time>2026-04-26T06:54:05.97Z</time></trkpt><trkpt lat="37.867077456324836" lon="15.197917714259987"><ele>116.99999999999999</ele><time>2026-04-26T06:54:06.97Z</time></trkpt><trkpt lat="37.86708063173063" lon="15.19778083259336"><ele>116.99999999999999</ele><time>2026-04-26T06:54:07.97Z</time></trkpt><trkpt lat="37.867109224703114" lon="15.197631998997561"><ele>117.0</ele><time>2026-04-26T06:54:08.969Z</time></trkpt><trkpt lat="37.86715539920013" lon="15.19749710675904"><ele>117.0</ele><time>2026-04-26T06:54:09.969Z</time></trkpt><trkpt lat="37.86723355325304" lon="15.197353389258227"><ele>115.66666666666666</ele><time>2026-04-26T06:54:10.969Z</time></trkpt><trkpt lat="37.867335211734435" lon="15.19720356591225"><ele>114.33333333333333</ele><time>2026-04-26T06:54:11.969Z</time></trkpt><trkpt lat="37.86745089453355" lon="15.197040720761981"><ele>113.0</ele><time>2026-04-26T06:54:12.969Z</time></trkpt><trkpt lat="37.867583582405864" lon="15.196848382536222"><ele>114.5</ele><time>2026-04-26T06:54:13.969Z</time></trkpt><trkpt lat="37.86771096483785" lon="15.196628827470999"><ele>116.0</ele><time>2026-04-26T06:54:14.969Z</time></trkpt><trkpt lat="37.8678546474977" lon="15.196383120468258"><ele>116.0</ele><time>2026-04-26T06:54:15.969Z</time></trkpt><trkpt lat="37.867996991587624" lon="15.196101198299807"><ele>116.0</ele><time>2026-04-26T06:54:16.969Z</time></trkpt><trkpt lat="37.8681639904044" lon="15.19580871738843"><ele>115.0</ele><time>2026-04-26T06:54:17.969Z</time></trkpt><trkpt lat="37.86834686021059" lon="15.195507926545794"><ele>114.0</ele><time>2026-04-26T06:54:18.969Z</time></trkpt><trkpt lat="37.86853788535032" lon="15.195189578661585"><ele>116.5</ele><time>2026-04-26T06:54:19.969Z</time></trkpt><trkpt lat="37.86871609157938" lon="15.19488570763433"><ele>119.0</ele><time>2026-04-26T06:54:20.969Z</time></trkpt><trkpt lat="37.86888133539197" lon="15.194602580922549"><ele>119.0</ele><time>2026-04-26T06:54:21.969Z</time></trkpt><trkpt lat="37.8690541035801" lon="15.194353662707814"><ele>119.0</ele><time>2026-04-26T06:54:22.969Z</time></trkpt><trkpt lat="37.86923000448652" lon="15.19413066580549"><ele>121.5</ele><time>2026-04-26T06:54:23.969Z</time></trkpt><trkpt lat="37.86942508802507" lon="15.193924255208332"><ele>124.0</ele><time>2026-04-26T06:54:24.969Z</time></trkpt><trkpt lat="37.86964338392576" lon="15.193717200236227"><ele>124.0</ele><time>2026-04-26T06:54:25.969Z</time></trkpt><trkpt lat="37.86985779686912" lon="15.193507837542302"><ele>124.0</ele><time>2026-04-26T06:54:26.969Z</time></trkpt><trkpt lat="37.87006448486619" lon="15.193322650108229"><ele>126.5</ele><time>2026-04-26T06:54:27.972Z</time></trkpt><trkpt lat="37.870260765913244" lon="15.19313270333368"><ele>129.0</ele><time>2026-04-26T06:54:28.971Z</time></trkpt><trkpt lat="37.87045999197671" lon="15.19295959270504"><ele>129.0</ele><time>2026-04-26T06:54:29.971Z</time></trkpt><trkpt lat="37.870660149698594" lon="15.19280069157776"><ele>129.0</ele><time>2026-04-26T06:54:30.971Z</time></trkpt><trkpt lat="37.87087254203902" lon="15.192650984883636"><ele>130.0</ele><time>2026-04-26T06:54:31.971Z</time></trkpt><trkpt lat="37.871126096195304" lon="15.19256972927781"><ele>131.0</ele><time>2026-04-26T06:54:32.971Z</time></trkpt><trkpt lat="37.871369995711326" lon="15.192496892864238"><ele>131.0</ele><time>2026-04-26T06:54:33.971Z</time></trkpt><trkpt lat="37.87159838894367" lon="15.192429778032663"><ele>131.0</ele><time>2026-04-26T06:54:34.971Z</time></trkpt><trkpt lat="37.87181395358293" lon="15.192366432986933"><ele>130.33333333333331</ele><time>2026-04-26T06:54:35.971Z</time></trkpt><trkpt lat="37.872026141808135" lon="15.192301484294944"><ele>129.66666666666666</ele><time>2026-04-26T06:54:36.971Z</time></trkpt><trkpt lat="37.87221859077629" lon="15.192241982373341"><ele>129.0</ele><time>2026-04-26T06:54:37.971Z</time></trkpt><trkpt lat="37.87241200853431" lon="15.192182565024403"><ele>129.0</ele><time>2026-04-26T06:54:38.971Z</time></trkpt><trkpt lat="37.8726004122391" lon="15.192120244873607"><ele>129.0</ele><time>2026-04-26T06:54:39.971Z</time></trkpt><trkpt lat="37.87278930726281" lon="15.192057762192663"><ele>129.0</ele><time>2026-04-26T06:54:40.972Z</time></trkpt><trkpt lat="37.87297985471786" lon="15.191990836905262"><ele>129.0</ele><time>2026-04-26T06:54:41.972Z</time></trkpt><trkpt lat="37.87318184179209" lon="15.191920035294766"><ele>129.0</ele><time>2026-04-26T06:54:42.972Z</time></trkpt><trkpt lat="37.873396877239294" lon="15.191844659887987"><ele>129.0</ele><time>2026-04-26T06:54:43.972Z</time></trkpt><trkpt lat="37.87362813406461" lon="15.19176423492292"><ele>131.0</ele><time>2026-04-26T06:54:44.972Z</time></trkpt><trkpt lat="37.87383980062025" lon="15.191691141904007"><ele>133.0</ele><time>2026-04-26T06:54:45.971Z</time></trkpt><trkpt lat="37.87404873413614" lon="15.191617838411041"><ele>135.0</ele><time>2026-04-26T06:54:46.971Z</time></trkpt><trkpt lat="37.874265377847436" lon="15.191540166524497"><ele>136.0</ele><time>2026-04-26T06:54:47.971Z</time></trkpt><trkpt lat="37.87448050718783" lon="15.191456889666297"><ele>137.0</ele><time>2026-04-26T06:54:48.971Z</time></trkpt><trkpt lat="37.8746935527881" lon="15.191363022657127"><ele>137.0</ele><time>2026-04-26T06:54:49.971Z</time></trkpt><trkpt lat="37.87490006648637" lon="15.19126007436845"><ele>137.0</ele><time>2026-04-26T06:54:50.971Z</time></trkpt><trkpt lat="37.875105865612774" lon="15.191153511755958"><ele>137.0</ele><time>2026-04-26T06:54:51.971Z</time></trkpt><trkpt lat="37.875309899050215" lon="15.19103631844536"><ele>138.0</ele><time>2026-04-26T06:54:52.971Z</time></trkpt><trkpt lat="37.875513203472416" lon="15.190907111520355"><ele>139.0</ele><time>2026-04-26T06:54:53.971Z</time></trkpt><trkpt lat="37.87570924439804" lon="15.190779242425457"><ele>140.0</ele><time>2026-04-26T06:54:54.971Z</time></trkpt><trkpt lat="37.87589822236235" lon="15.190655842447685"><ele>143.33333333333331</ele><time>2026-04-26T06:54:55.971Z</time></trkpt><trkpt lat="37.87609011917775" lon="15.19053122779022"><ele>146.66666666666666</ele><time>2026-04-26T06:54:56.971Z</time></trkpt><trkpt lat="37.87628030078022" lon="15.19040795567781"><ele>150.0</ele><time>2026-04-26T06:54:57.971Z</time></trkpt><trkpt lat="37.876471178809716" lon="15.190284232124633"><ele>150.0</ele><time>2026-04-26T06:54:58.971Z</time></trkpt><trkpt lat="37.876658910521066" lon="15.190162547959888"><ele>150.0</ele><time>2026-04-26T06:54:59.971Z</time></trkpt><trkpt lat="37.876843967348655" lon="15.19004259760277"><ele>150.0</ele><time>2026-04-26T06:55:00.971Z</time></trkpt><trkpt lat="37.87701967575302" lon="15.18992347126892"><ele>150.66666666666666</ele><time>2026-04-26T06:55:01.971Z</time></trkpt><trkpt lat="37.87719639776094" lon="15.189785311237484"><ele>151.33333333333331</ele><time>2026-04-26T06:55:02.971Z</time></trkpt><trkpt lat="37.877364925305706" lon="15.189633213418675"><ele>152.0</ele><time>2026-04-26T06:55:03.971Z</time></trkpt><trkpt lat="37.87751836044194" lon="15.189462937151763"><ele>157.0</ele><time>2026-04-26T06:55:04.971Z</time></trkpt><trkpt lat="37.87768384048568" lon="15.189306857078256"><ele>162.0</ele><time>2026-04-26T06:55:05.971Z</time></trkpt><trkpt lat="37.87783514382547" lon="15.18915487769792"><ele>167.0</ele><time>2026-04-26T06:55:06.971Z</time></trkpt><trkpt lat="37.87798712889279" lon="15.189018805793308"><ele>162.0</ele><time>2026-04-26T06:55:07.971Z</time></trkpt><trkpt lat="37.87811586811365" lon="15.188879715511714"><ele>157.0</ele><time>2026-04-26T06:55:08.971Z</time></trkpt><trkpt lat="37.87820308564336" lon="15.188717963375494"><ele>152.0</ele><time>2026-04-26T06:55:09.971Z</time></trkpt><trkpt lat="37.87829057879124" lon="15.188534617078073"><ele>152.0</ele><time>2026-04-26T06:55:10.971Z</time></trkpt><trkpt lat="37.87833633640285" lon="15.188304498118256"><ele>152.0</ele><time>2026-04-26T06:55:11.971Z</time></trkpt><trkpt lat="37.87833315199876" lon="15.18804995600807"><ele>152.0</ele><time>2026-04-26T06:55:12.971Z</time></trkpt><trkpt lat="37.87830721186203" lon="15.18778705697821"><ele>152.33333333333331</ele><time>2026-04-26T06:55:13.971Z</time></trkpt><trkpt lat="37.87828431655665" lon="15.187551637043912"><ele>152.66666666666666</ele><time>2026-04-26T06:55:14.971Z</time></trkpt><trkpt lat="37.87828006522087" lon="15.187348477672064"><ele>153.0</ele><time>2026-04-26T06:55:15.971Z</time></trkpt><trkpt lat="37.87826427556669" lon="15.18714820833765"><ele>158.0</ele><time>2026-04-26T06:55:16.971Z</time></trkpt><trkpt lat="37.87821102658527" lon="15.186945375396327"><ele>163.0</ele><time>2026-04-26T06:55:17.971Z</time></trkpt><trkpt lat="37.87810504312774" lon="15.186767305744945"><ele>168.0</ele><time>2026-04-26T06:55:18.971Z</time></trkpt><trkpt lat="37.87791813766432" lon="15.186641997585712"><ele>168.0</ele><time>2026-04-26T06:55:19.971Z</time></trkpt><trkpt lat="37.877734712919036" lon="15.18652116770619"><ele>168.0</ele><time>2026-04-26T06:55:20.971Z</time></trkpt><trkpt lat="37.877537967093566" lon="15.186422051065835"><ele>168.0</ele><time>2026-04-26T06:55:21.97Z</time></trkpt><trkpt lat="37.87732559645917" lon="15.186331762222903"><ele>172.33333333333334</ele><time>2026-04-26T06:55:22.97Z</time></trkpt><trkpt lat="37.8771325370181" lon="15.186230846680045"><ele>176.66666666666669</ele><time>2026-04-26T06:55:23.97Z</time></trkpt><trkpt lat="37.87696145666012" lon="15.186109908630469"><ele>181.0</ele><time>2026-04-26T06:55:24.97Z</time></trkpt><trkpt lat="37.87680606089136" lon="15.185963987538988"><ele>180.0</ele><time>2026-04-26T06:55:25.97Z</time></trkpt><trkpt lat="37.876690823576254" lon="15.185742780934289"><ele>179.0</ele><time>2026-04-26T06:55:26.97Z</time></trkpt><trkpt lat="37.87657428620319" lon="15.185503965024171"><ele>178.0</ele><time>2026-04-26T06:55:27.97Z</time></trkpt><trkpt lat="37.8764545030655" lon="15.185256044694013"><ele>178.0</ele><time>2026-04-26T06:55:28.97Z</time></trkpt><trkpt lat="37.876340186740315" lon="15.185019439524238"><ele>178.0</ele><time>2026-04-26T06:55:29.97Z</time></trkpt><trkpt lat="37.876217412750286" lon="15.184796900712104"><ele>178.0</ele><time>2026-04-26T06:55:30.97Z</time></trkpt><trkpt lat="37.876105130864204" lon="15.184576549131837"><ele>180.0</ele><time>2026-04-26T06:55:31.97Z</time></trkpt><trkpt lat="37.875998184780215" lon="15.184352049454178"><ele>182.0</ele><time>2026-04-26T06:55:32.97Z</time></trkpt><trkpt lat="37.87588998832007" lon="15.184132472549216"><ele>184.0</ele><time>2026-04-26T06:55:33.97Z</time></trkpt><trkpt lat="37.875801110458454" lon="15.1839093235476"><ele>180.0</ele><time>2026-04-26T06:55:34.97Z</time></trkpt><trkpt lat="37.875723605738436" lon="15.183690071621442"><ele>176.0</ele><time>2026-04-26T06:55:35.97Z</time></trkpt><trkpt lat="37.87569513861386" lon="15.183460678321133"><ele>172.0</ele><time>2026-04-26T06:55:36.97Z</time></trkpt><trkpt lat="37.87569558339817" lon="15.18322216866083"><ele>173.0</ele><time>2026-04-26T06:55:37.97Z</time></trkpt><trkpt lat="37.87574326252211" lon="15.182993140553753"><ele>174.0</ele><time>2026-04-26T06:55:38.97Z</time></trkpt><trkpt lat="37.875822108508174" lon="15.1827644441864"><ele>175.0</ele><time>2026-04-26T06:55:39.97Z</time></trkpt><trkpt lat="37.87593643825136" lon="15.182566693861698"><ele>175.66666666666669</ele><time>2026-04-26T06:55:40.97Z</time></trkpt><trkpt lat="37.87607340875801" lon="15.182384140183919"><ele>176.33333333333334</ele><time>2026-04-26T06:55:41.97Z</time></trkpt><trkpt lat="37.876212078319305" lon="15.182173902015347"><ele>177.0</ele><time>2026-04-26T06:55:42.97Z</time></trkpt><trkpt lat="37.87632453414072" lon="15.181962227218435"><ele>177.0</ele><time>2026-04-26T06:55:43.97Z</time></trkpt><trkpt lat="37.876413848019574" lon="15.181751341316836"><ele>177.0</ele><time>2026-04-26T06:55:44.97Z</time></trkpt><trkpt lat="37.8764779846698" lon="15.181528000422574"><ele>177.0</ele><time>2026-04-26T06:55:45.97Z</time></trkpt><trkpt lat="37.876518979360135" lon="15.181282030469402"><ele>176.66666666666666</ele><time>2026-04-26T06:55:46.97Z</time></trkpt><trkpt lat="37.87656098240654" lon="15.181039313105112"><ele>176.33333333333331</ele><time>2026-04-26T06:55:47.97Z</time></trkpt><trkpt lat="37.876577613535005" lon="15.180789470588968"><ele>176.0</ele><time>2026-04-26T06:55:48.97Z</time></trkpt><trkpt lat="37.87658475649273" lon="15.180528371290363"><ele>176.0</ele><time>2026-04-26T06:55:49.97Z</time></trkpt><trkpt lat="37.876571700979056" lon="15.180273665638792"><ele>176.0</ele><time>2026-04-26T06:55:50.97Z</time></trkpt><trkpt lat="37.87653141199262" lon="15.180012162482962"><ele>176.0</ele><time>2026-04-26T06:55:51.97Z</time></trkpt><trkpt lat="37.87646707747496" lon="15.17974804920955"><ele>176.66666666666666</ele><time>2026-04-26T06:55:52.97Z</time></trkpt><trkpt lat="37.876397814398736" lon="15.17950497943299"><ele>177.33333333333334</ele><time>2026-04-26T06:55:53.97Z</time></trkpt><trkpt lat="37.876327576522996" lon="15.179282080922356"><ele>178.0</ele><time>2026-04-26T06:55:54.97Z</time></trkpt><trkpt lat="37.876290957470005" lon="15.179075652958163"><ele>179.0</ele><time>2026-04-26T06:55:55.97Z</time></trkpt><trkpt lat="37.876180257653154" lon="15.178850532097032"><ele>180.0</ele><time>2026-04-26T06:55:56.969Z</time></trkpt><trkpt lat="37.876302475399804" lon="15.178568590228553"><ele>180.0</ele><time>2026-04-26T06:55:57.969Z</time></trkpt><trkpt lat="37.87638217517911" lon="15.178338188772507"><ele>180.0</ele><time>2026-04-26T06:55:58.969Z</time></trkpt><trkpt lat="37.876510502351216" lon="15.178153864488744"><ele>180.0</ele><time>2026-04-26T06:55:59.969Z</time></trkpt><trkpt lat="37.87665623209903" lon="15.177982583460478"><ele>182.66666666666666</ele><time>2026-04-26T06:56:00.969Z</time></trkpt><trkpt lat="37.87686312585499" lon="15.177862652984752"><ele>185.33333333333331</ele><time>2026-04-26T06:56:01.969Z</time></trkpt><trkpt lat="37.87698763167073" lon="15.177681495979067"><ele>188.0</ele><time>2026-04-26T06:56:02.969Z</time></trkpt><trkpt lat="37.87711151779441" lon="15.177500147791891"><ele>188.66666666666666</ele><time>2026-04-26T06:56:03.969Z</time></trkpt><trkpt lat="37.87723545946391" lon="15.177329862495913"><ele>189.33333333333334</ele><time>2026-04-26T06:56:04.969Z</time></trkpt><trkpt lat="37.87737682970016" lon="15.177193400867774"><ele>190.0</ele><time>2026-04-26T06:56:05.969Z</time></trkpt><trkpt lat="37.877533547873085" lon="15.177081733372654"><ele>191.66666666666669</ele><time>2026-04-26T06:56:06.969Z</time></trkpt><trkpt lat="37.87770875003164" lon="15.176971811476328"><ele>193.33333333333334</ele><time>2026-04-26T06:56:07.969Z</time></trkpt><trkpt lat="37.877887466932535" lon="15.176860116407108"><ele>195.0</ele><time>2026-04-26T06:56:08.969Z</time></trkpt><trkpt lat="37.87806820051732" lon="15.176747161037675"><ele>195.0</ele><time>2026-04-26T06:56:09.969Z</time></trkpt><trkpt lat="37.87824056673068" lon="15.176639435255888"><ele>195.0</ele><time>2026-04-26T06:56:10.969Z</time></trkpt><trkpt lat="37.87840119980173" lon="15.176511347146596"><ele>195.0</ele><time>2026-04-26T06:56:11.969Z</time></trkpt><trkpt lat="37.87856848813314" lon="15.176409656798517"><ele>197.0</ele><time>2026-04-26T06:56:12.969Z</time></trkpt><trkpt lat="37.878731199543964" lon="15.176313042575543"><ele>199.0</ele><time>2026-04-26T06:56:13.969Z</time></trkpt><trkpt lat="37.8788933756187" lon="15.176215736869855"><ele>201.0</ele><time>2026-04-26T06:56:14.969Z</time></trkpt><trkpt lat="37.87905289593754" lon="15.17612537831738"><ele>201.0</ele><time>2026-04-26T06:56:15.969Z</time></trkpt><trkpt lat="37.87920816506597" lon="15.176026006308124"><ele>201.0</ele><time>2026-04-26T06:56:16.969Z</time></trkpt><trkpt lat="37.8793625532621" lon="15.175924202544646"><ele>201.0</ele><time>2026-04-26T06:56:17.969Z</time></trkpt><trkpt lat="37.87952268886179" lon="15.17582214048983"><ele>201.0</ele><time>2026-04-26T06:56:18.969Z</time></trkpt><trkpt lat="37.87968830339387" lon="15.175728681497109"><ele>201.0</ele><time>2026-04-26T06:56:19.969Z</time></trkpt><trkpt lat="37.87982486582643" lon="15.175579611331248"><ele>201.0</ele><time>2026-04-26T06:56:20.969Z</time></trkpt><trkpt lat="37.879950995374315" lon="15.175402538235062"><ele>201.0</ele><time>2026-04-26T06:56:21.969Z</time></trkpt><trkpt lat="37.88004249103634" lon="15.175199154396784"><ele>201.0</ele><time>2026-04-26T06:56:22.969Z</time></trkpt><trkpt lat="37.880100857208184" lon="15.174968885306656"><ele>201.0</ele><time>2026-04-26T06:56:23.969Z</time></trkpt><trkpt lat="37.88018646298617" lon="15.174768854770065"><ele>203.25</ele><time>2026-04-26T06:56:24.969Z</time></trkpt><trkpt lat="37.880254140470456" lon="15.17459344777225"><ele>205.5</ele><time>2026-04-26T06:56:25.969Z</time></trkpt><trkpt lat="37.880316959027105" lon="15.174465624263629"><ele>207.75</ele><time>2026-04-26T06:56:26.969Z</time></trkpt><trkpt lat="37.88038460846991" lon="15.174373284059914"><ele>210.0</ele><time>2026-04-26T06:56:27.969Z</time></trkpt><trkpt lat="37.880467746421644" lon="15.17432838232324"><ele>210.0</ele><time>2026-04-26T06:56:28.969Z</time></trkpt><trkpt lat="37.88057175858508" lon="15.174309546962062"><ele>210.0</ele><time>2026-04-26T06:56:29.969Z</time></trkpt><trkpt lat="37.88069152296568" lon="15.174421793657196"><ele>210.0</ele><time>2026-04-26T06:56:30.969Z</time></trkpt><trkpt lat="37.88081286351621" lon="15.174472802663274"><ele>210.0</ele><time>2026-04-26T06:56:31.969Z</time></trkpt><trkpt lat="37.880951261874" lon="15.174479447296562"><ele>211.66666666666669</ele><time>2026-04-26T06:56:32.968Z</time></trkpt><trkpt lat="37.88111327727204" lon="15.174481341816628"><ele>213.33333333333334</ele><time>2026-04-26T06:56:33.971Z</time></trkpt><trkpt lat="37.88128344523865" lon="15.174428456985583"><ele>215.0</ele><time>2026-04-26T06:56:34.97Z</time></trkpt><trkpt lat="37.881435328925356" lon="15.174313093227322"><ele>215.0</ele><time>2026-04-26T06:56:35.97Z</time></trkpt><trkpt lat="37.88157438649177" lon="15.174105359194517"><ele>215.0</ele><time>2026-04-26T06:56:36.971Z</time></trkpt><trkpt lat="37.88171826602244" lon="15.17395649156079"><ele>215.0</ele><time>2026-04-26T06:56:37.97Z</time></trkpt><trkpt lat="37.88185197146442" lon="15.173809824437319"><ele>215.33333333333334</ele><time>2026-04-26T06:56:38.97Z</time></trkpt><trkpt lat="37.881985631642195" lon="15.173662617863046"><ele>215.66666666666669</ele><time>2026-04-26T06:56:39.971Z</time></trkpt><trkpt lat="37.88212111221987" lon="15.173513406438326"><ele>216.0</ele><time>2026-04-26T06:56:40.971Z</time></trkpt><trkpt lat="37.88225209654974" lon="15.173340040353073"><ele>216.33333333333331</ele><time>2026-04-26T06:56:41.971Z</time></trkpt><trkpt lat="37.8823897226111" lon="15.17318698884806"><ele>216.66666666666666</ele><time>2026-04-26T06:56:42.97Z</time></trkpt><trkpt lat="37.88254531926585" lon="15.173041679769728"><ele>217.0</ele><time>2026-04-26T06:56:43.97Z</time></trkpt><trkpt lat="37.882686764720304" lon="15.17288423814004"><ele>219.0</ele><time>2026-04-26T06:56:44.97Z</time></trkpt><trkpt lat="37.882829784597604" lon="15.172725044098707"><ele>221.0</ele><time>2026-04-26T06:56:45.97Z</time></trkpt><trkpt lat="37.882960640184514" lon="15.17255635757309"><ele>223.0</ele><time>2026-04-26T06:56:46.971Z</time></trkpt><trkpt lat="37.88310022922092" lon="15.1724039062873"><ele>223.0</ele><time>2026-04-26T06:56:47.971Z</time></trkpt><trkpt lat="37.883269219785966" lon="15.17226938419426"><ele>223.0</ele><time>2026-04-26T06:56:48.971Z</time></trkpt><trkpt lat="37.88340385194704" lon="15.172118674383837"><ele>223.0</ele><time>2026-04-26T06:56:49.971Z</time></trkpt><trkpt lat="37.88354303750393" lon="15.171959658392836"><ele>223.33333333333331</ele><time>2026-04-26T06:56:50.971Z</time></trkpt><trkpt lat="37.883682246420435" lon="15.17180539152758"><ele>223.66666666666669</ele><time>2026-04-26T06:56:51.971Z</time></trkpt><trkpt lat="37.88382587109548" lon="15.171645079502383"><ele>224.0</ele><time>2026-04-26T06:56:52.971Z</time></trkpt><trkpt lat="37.88397430224565" lon="15.171474845442221"><ele>224.0</ele><time>2026-04-26T06:56:53.971Z</time></trkpt><trkpt lat="37.88411466507259" lon="15.171294752960375"><ele>224.0</ele><time>2026-04-26T06:56:54.971Z</time></trkpt><trkpt lat="37.88425033406946" lon="15.171109389699415"><ele>224.0</ele><time>2026-04-26T06:56:55.971Z</time></trkpt><trkpt lat="37.884387111842734" lon="15.17092467008224"><ele>224.33333333333334</ele><time>2026-04-26T06:56:56.971Z</time></trkpt><trkpt lat="37.884518384285094" lon="15.170746578127957"><ele>224.66666666666669</ele><time>2026-04-26T06:56:57.971Z</time></trkpt><trkpt lat="37.884637552760836" lon="15.170579061092585"><ele>225.0</ele><time>2026-04-26T06:56:58.971Z</time></trkpt><trkpt lat="37.88476460233011" lon="15.170416249366806"><ele>225.0</ele><time>2026-04-26T06:56:59.97Z</time></trkpt><trkpt lat="37.88489192302646" lon="15.170254999344186"><ele>225.0</ele><time>2026-04-26T06:57:00.97Z</time></trkpt><trkpt lat="37.88501416187556" lon="15.170089600006447"><ele>225.0</ele><time>2026-04-26T06:57:01.97Z</time></trkpt><trkpt lat="37.88512757995035" lon="15.16994255149444"><ele>225.25</ele><time>2026-04-26T06:57:02.97Z</time></trkpt><trkpt lat="37.88522797611769" lon="15.169803108332964"><ele>225.5</ele><time>2026-04-26T06:57:03.97Z</time></trkpt><trkpt lat="37.88533214260876" lon="15.169664379439734"><ele>225.75</ele><time>2026-04-26T06:57:04.97Z</time></trkpt><trkpt lat="37.88543734917774" lon="15.16953348698026"><ele>226.0</ele><time>2026-04-26T06:57:05.97Z</time></trkpt><trkpt lat="37.88553909976995" lon="15.169406212532806"><ele>226.0</ele><time>2026-04-26T06:57:06.97Z</time></trkpt><trkpt lat="37.88564289208713" lon="15.169278473643269"><ele>226.0</ele><time>2026-04-26T06:57:07.97Z</time></trkpt><trkpt lat="37.885739100954616" lon="15.169158476965425"><ele>226.0</ele><time>2026-04-26T06:57:08.97Z</time></trkpt><trkpt lat="37.88583052390266" lon="15.169037685402785"><ele>226.0</ele><time>2026-04-26T06:57:09.97Z</time></trkpt><trkpt lat="37.88592507176641" lon="15.168917517785898"><ele>226.75</ele><time>2026-04-26T06:57:10.97Z</time></trkpt><trkpt lat="37.886022035368406" lon="15.168798711723614"><ele>227.5</ele><time>2026-04-26T06:57:11.97Z</time></trkpt><trkpt lat="37.88612557937362" lon="15.168662987060104"><ele>228.25</ele><time>2026-04-26T06:57:12.97Z</time></trkpt><trkpt lat="37.88626400852691" lon="15.168550416088873"><ele>229.0</ele><time>2026-04-26T06:57:13.97Z</time></trkpt><trkpt lat="37.88638128505493" lon="15.168402215422558"><ele>229.0</ele><time>2026-04-26T06:57:14.97Z</time></trkpt><trkpt lat="37.88650648922235" lon="15.168244648365745"><ele>229.0</ele><time>2026-04-26T06:57:15.97Z</time></trkpt><trkpt lat="37.886632299322535" lon="15.168084604596736"><ele>229.0</ele><time>2026-04-26T06:57:16.97Z</time></trkpt><trkpt lat="37.88675897986515" lon="15.167922656099613"><ele>228.33333333333331</ele><time>2026-04-26T06:57:17.97Z</time></trkpt><trkpt lat="37.88688966743348" lon="15.1677527167049"><ele>227.66666666666669</ele><time>2026-04-26T06:57:18.97Z</time></trkpt><trkpt lat="37.8870131430508" lon="15.167558992949793"><ele>227.0</ele><time>2026-04-26T06:57:19.97Z</time></trkpt><trkpt lat="37.88715073042212" lon="15.167353007407424"><ele>227.0</ele><time>2026-04-26T06:57:20.97Z</time></trkpt><trkpt lat="37.88729616517118" lon="15.167126856965904"><ele>227.0</ele><time>2026-04-26T06:57:21.97Z</time></trkpt><trkpt lat="37.88745600591191" lon="15.16688612972928"><ele>230.0</ele><time>2026-04-26T06:57:22.97Z</time></trkpt><trkpt lat="37.88762809582673" lon="15.166645868263377"><ele>233.0</ele><time>2026-04-26T06:57:23.97Z</time></trkpt><trkpt lat="37.88778947519197" lon="15.16641892075623"><ele>233.0</ele><time>2026-04-26T06:57:24.97Z</time></trkpt><trkpt lat="37.88793153156188" lon="15.16619095788882"><ele>233.0</ele><time>2026-04-26T06:57:25.97Z</time></trkpt><trkpt lat="37.88806953011407" lon="15.165973197861732"><ele>233.0</ele><time>2026-04-26T06:57:26.97Z</time></trkpt><trkpt lat="37.888215472189266" lon="15.165775175473893"><ele>233.0</ele><time>2026-04-26T06:57:27.97Z</time></trkpt><trkpt lat="37.88834892107417" lon="15.16558106587566"><ele>233.0</ele><time>2026-04-26T06:57:28.97Z</time></trkpt><trkpt lat="37.88848195037197" lon="15.165386998250092"><ele>232.0</ele><time>2026-04-26T06:57:29.97Z</time></trkpt><trkpt lat="37.88859646495533" lon="15.165183349619996"><ele>231.0</ele><time>2026-04-26T06:57:30.97Z</time></trkpt><trkpt lat="37.88872419290872" lon="15.16499291459057"><ele>230.0</ele><time>2026-04-26T06:57:31.97Z</time></trkpt><trkpt lat="37.888859975723314" lon="15.164811100667283"><ele>230.0</ele><time>2026-04-26T06:57:32.97Z</time></trkpt><trkpt lat="37.8889905329334" lon="15.164627590229166"><ele>230.0</ele><time>2026-04-26T06:57:33.97Z</time></trkpt><trkpt lat="37.88912732704894" lon="15.164478333906564"><ele>230.0</ele><time>2026-04-26T06:57:34.97Z</time></trkpt><trkpt lat="37.889242522184695" lon="15.164308083600334"><ele>230.66666666666669</ele><time>2026-04-26T06:57:35.969Z</time></trkpt><trkpt lat="37.889396068842764" lon="15.164196478306758"><ele>231.33333333333331</ele><time>2026-04-26T06:57:36.969Z</time></trkpt><trkpt lat="37.889559677163824" lon="15.16409524339062"><ele>232.0</ele><time>2026-04-26T06:57:37.969Z</time></trkpt><trkpt lat="37.88972811597535" lon="15.16399764854363"><ele>232.0</ele><time>2026-04-26T06:57:38.969Z</time></trkpt><trkpt lat="37.889897257388164" lon="15.163899644344278"><ele>232.0</ele><time>2026-04-26T06:57:39.969Z</time></trkpt><trkpt lat="37.89007057094793" lon="15.163776381113793"><ele>232.0</ele><time>2026-04-26T06:57:40.969Z</time></trkpt><trkpt lat="37.89026043792091" lon="15.163689209585383"><ele>234.0</ele><time>2026-04-26T06:57:41.969Z</time></trkpt><trkpt lat="37.89044138338399" lon="15.16358436588178"><ele>236.0</ele><time>2026-04-26T06:57:42.969Z</time></trkpt><trkpt lat="37.890627656355555" lon="15.163476435240968"><ele>238.0</ele><time>2026-04-26T06:57:43.969Z</time></trkpt><trkpt lat="37.890816278912574" lon="15.163366894808766"><ele>238.0</ele><time>2026-04-26T06:57:44.969Z</time></trkpt><trkpt lat="37.89100389870561" lon="15.163257614256736"><ele>238.0</ele><time>2026-04-26T06:57:45.969Z</time></trkpt><trkpt lat="37.891196506646374" lon="15.163146041931864"><ele>238.0</ele><time>2026-04-26T06:57:46.969Z</time></trkpt><trkpt lat="37.89138438895991" lon="15.16303668243795"><ele>238.0</ele><time>2026-04-26T06:57:47.969Z</time></trkpt><trkpt lat="37.89156528457528" lon="15.162909277975682"><ele>238.0</ele><time>2026-04-26T06:57:48.969Z</time></trkpt><trkpt lat="37.89174945171308" lon="15.162813958257992"><ele>238.0</ele><time>2026-04-26T06:57:49.969Z</time></trkpt><trkpt lat="37.89191334283795" lon="15.162700044862795"><ele>238.0</ele><time>2026-04-26T06:57:50.969Z</time></trkpt><trkpt lat="37.8920567435244" lon="15.162560332849239"><ele>238.0</ele><time>2026-04-26T06:57:51.969Z</time></trkpt><trkpt lat="37.892166320995116" lon="15.1623931328937"><ele>238.0</ele><time>2026-04-26T06:57:52.969Z</time></trkpt><trkpt lat="37.892251849059434" lon="15.162186649137467"><ele>237.0</ele><time>2026-04-26T06:57:53.969Z</time></trkpt><trkpt lat="37.89230892978308" lon="15.161960182221751"><ele>236.0</ele><time>2026-04-26T06:57:54.969Z</time></trkpt><trkpt lat="37.89234934122166" lon="15.161725437013954"><ele>235.0</ele><time>2026-04-26T06:57:55.969Z</time></trkpt><trkpt lat="37.892367677792016" lon="15.1614669797627"><ele>234.0</ele><time>2026-04-26T06:57:56.969Z</time></trkpt><trkpt lat="37.89238752889303" lon="15.161200899585245"><ele>233.0</ele><time>2026-04-26T06:57:57.969Z</time></trkpt><trkpt lat="37.89243296271316" lon="15.160951589077532"><ele>232.0</ele><time>2026-04-26T06:57:58.969Z</time></trkpt><trkpt lat="37.89247119482252" lon="15.160703923811669"><ele>230.66666666666666</ele><time>2026-04-26T06:57:59.969Z</time></trkpt><trkpt lat="37.8925097012989" lon="15.160455029200948"><ele>229.33333333333331</ele><time>2026-04-26T06:58:00.969Z</time></trkpt><trkpt lat="37.892548798315666" lon="15.16020294927417"><ele>228.0</ele><time>2026-04-26T06:58:01.969Z</time></trkpt><trkpt lat="37.89258710251427" lon="15.159955850914457"><ele>230.0</ele><time>2026-04-26T06:58:02.969Z</time></trkpt><trkpt lat="37.89262562098827" lon="15.159709875229638"><ele>232.0</ele><time>2026-04-26T06:58:03.969Z</time></trkpt><trkpt lat="37.89266384940393" lon="15.159461264534926"><ele>234.0</ele><time>2026-04-26T06:58:04.969Z</time></trkpt><trkpt lat="37.89270072224823" lon="15.159220576807149"><ele>236.0</ele><time>2026-04-26T06:58:05.969Z</time></trkpt><trkpt lat="37.89272213036349" lon="15.158977393196144"><ele>238.0</ele><time>2026-04-26T06:58:06.969Z</time></trkpt><trkpt lat="37.89276335149122" lon="15.158734706115984"><ele>240.0</ele><time>2026-04-26T06:58:07.969Z</time></trkpt><trkpt lat="37.892802833706554" lon="15.158501276693979"><ele>240.0</ele><time>2026-04-26T06:58:08.969Z</time></trkpt><trkpt lat="37.89284195833751" lon="15.158270559117934"><ele>240.0</ele><time>2026-04-26T06:58:09.969Z</time></trkpt><trkpt lat="37.89287812866721" lon="15.158037262431153"><ele>240.0</ele><time>2026-04-26T06:58:10.968Z</time></trkpt><trkpt lat="37.89291870470514" lon="15.157803421412098"><ele>241.33333333333331</ele><time>2026-04-26T06:58:11.968Z</time></trkpt><trkpt lat="37.89296747125519" lon="15.157574794996057"><ele>242.66666666666666</ele><time>2026-04-26T06:58:12.968Z</time></trkpt><trkpt lat="37.8930622668124" lon="15.15738564829921"><ele>244.0</ele><time>2026-04-26T06:58:13.968Z</time></trkpt><trkpt lat="37.89316747144964" lon="15.157193844728361"><ele>245.33333333333331</ele><time>2026-04-26T06:58:14.968Z</time></trkpt><trkpt lat="37.8932918313972" lon="15.157010463498539"><ele>246.66666666666669</ele><time>2026-04-26T06:58:15.968Z</time></trkpt><trkpt lat="37.89343477436265" lon="15.1568057521056"><ele>248.0</ele><time>2026-04-26T06:58:16.968Z</time></trkpt><trkpt lat="37.89359314390474" lon="15.156578093558904"><ele>252.0</ele><time>2026-04-26T06:58:17.968Z</time></trkpt><trkpt lat="37.893752303086174" lon="15.15634776232411"><ele>256.0</ele><time>2026-04-26T06:58:18.968Z</time></trkpt><trkpt lat="37.89392395596542" lon="15.156119543560955"><ele>256.0</ele><time>2026-04-26T06:58:19.968Z</time></trkpt><trkpt lat="37.894087061831634" lon="15.155904960321822"><ele>256.0</ele><time>2026-04-26T06:58:20.968Z</time></trkpt><trkpt lat="37.89424040350235" lon="15.155691966475246"><ele>256.66666666666663</ele><time>2026-04-26T06:58:21.968Z</time></trkpt><trkpt lat="37.894380262628175" lon="15.155484938890131"><ele>257.3333333333333</ele><time>2026-04-26T06:58:22.968Z</time></trkpt><trkpt lat="37.89451668980306" lon="15.155269862764387"><ele>258.0</ele><time>2026-04-26T06:58:23.968Z</time></trkpt><trkpt lat="37.89465641322511" lon="15.155067595826278"><ele>257.6666666666667</ele><time>2026-04-26T06:58:24.968Z</time></trkpt><trkpt lat="37.89479758398543" lon="15.154864899259447"><ele>257.33333333333337</ele><time>2026-04-26T06:58:25.968Z</time></trkpt><trkpt lat="37.89494230776514" lon="15.154661415454305"><ele>257.0</ele><time>2026-04-26T06:58:26.968Z</time></trkpt><trkpt lat="37.89507703992135" lon="15.154462246773228"><ele>257.0</ele><time>2026-04-26T06:58:27.968Z</time></trkpt><trkpt lat="37.89521010724062" lon="15.154264244727194"><ele>257.0</ele><time>2026-04-26T06:58:28.968Z</time></trkpt><trkpt lat="37.89534231751137" lon="15.154077265479529"><ele>257.0</ele><time>2026-04-26T06:58:29.968Z</time></trkpt><trkpt lat="37.89547232146376" lon="15.153877831567625"><ele>257.33333333333337</ele><time>2026-04-26T06:58:30.968Z</time></trkpt><trkpt lat="37.89559156712606" lon="15.153677808208851"><ele>257.6666666666667</ele><time>2026-04-26T06:58:31.968Z</time></trkpt><trkpt lat="37.89569592703485" lon="15.153460555823518"><ele>258.0</ele><time>2026-04-26T06:58:32.968Z</time></trkpt><trkpt lat="37.89579239930215" lon="15.153230907094173"><ele>258.3333333333333</ele><time>2026-04-26T06:58:33.968Z</time></trkpt><trkpt lat="37.895878121248245" lon="15.152991061366503"><ele>258.66666666666663</ele><time>2026-04-26T06:58:34.968Z</time></trkpt><trkpt lat="37.89596417806067" lon="15.152732924243043"><ele>259.0</ele><time>2026-04-26T06:58:35.968Z</time></trkpt><trkpt lat="37.89604918231434" lon="15.152482092782366"><ele>260.3333333333333</ele><time>2026-04-26T06:58:36.968Z</time></trkpt><trkpt lat="37.8961418402802" lon="15.152230968829423"><ele>261.6666666666667</ele><time>2026-04-26T06:58:37.968Z</time></trkpt><trkpt lat="37.896231176686115" lon="15.15197665836551"><ele>263.0</ele><time>2026-04-26T06:58:38.968Z</time></trkpt><trkpt lat="37.896322742782445" lon="15.151722897036422"><ele>263.5</ele><time>2026-04-26T06:58:39.97Z</time></trkpt><trkpt lat="37.89641717711223" lon="15.15146378093186"><ele>264.0</ele><time>2026-04-26T06:58:40.97Z</time></trkpt><trkpt lat="37.89651344186182" lon="15.151202579898952"><ele>264.0</ele><time>2026-04-26T06:58:41.969Z</time></trkpt><trkpt lat="37.89662454898492" lon="15.15095384026986"><ele>264.0</ele><time>2026-04-26T06:58:42.969Z</time></trkpt><trkpt lat="37.896709901480556" lon="15.150684965068178"><ele>265.0</ele><time>2026-04-26T06:58:43.969Z</time></trkpt><trkpt lat="37.89681069318439" lon="15.150424453084469"><ele>266.0</ele><time>2026-04-26T06:58:44.969Z</time></trkpt><trkpt lat="37.896911620851164" lon="15.150161108457795"><ele>266.0</ele><time>2026-04-26T06:58:45.97Z</time></trkpt><trkpt lat="37.89702707156281" lon="15.149913736360581"><ele>266.0</ele><time>2026-04-26T06:58:46.97Z</time></trkpt><trkpt lat="37.89714859456508" lon="15.149681740473165"><ele>266.0</ele><time>2026-04-26T06:58:47.97Z</time></trkpt><trkpt lat="37.89727896203744" lon="15.149469798649104"><ele>267.0</ele><time>2026-04-26T06:58:48.969Z</time></trkpt><trkpt lat="37.8974223988319" lon="15.14926528284054"><ele>268.0</ele><time>2026-04-26T06:58:49.969Z</time></trkpt><trkpt lat="37.89757279713481" lon="15.149061949670513"><ele>269.0</ele><time>2026-04-26T06:58:50.969Z</time></trkpt><trkpt lat="37.897731001707555" lon="15.148848062631648"><ele>271.5</ele><time>2026-04-26T06:58:51.97Z</time></trkpt><trkpt lat="37.897886236805654" lon="15.148637334871067"><ele>274.0</ele><time>2026-04-26T06:58:52.97Z</time></trkpt><trkpt lat="37.89802581565092" lon="15.148409225078353"><ele>274.66666666666663</ele><time>2026-04-26T06:58:53.97Z</time></trkpt><trkpt lat="37.89816977066124" lon="15.148190514743195"><ele>275.3333333333333</ele><time>2026-04-26T06:58:54.97Z</time></trkpt><trkpt lat="37.89829239819796" lon="15.14796580218357"><ele>276.0</ele><time>2026-04-26T06:58:55.97Z</time></trkpt><trkpt lat="37.898395363052266" lon="15.147725622790144"><ele>276.5</ele><time>2026-04-26T06:58:56.97Z</time></trkpt><trkpt lat="37.89847673196334" lon="15.147459503145058"><ele>277.0</ele><time>2026-04-26T06:58:57.97Z</time></trkpt><trkpt lat="37.89855667326397" lon="15.147182151028034"><ele>278.0</ele><time>2026-04-26T06:58:58.97Z</time></trkpt><trkpt lat="37.898667292807396" lon="15.146901119154396"><ele>279.0</ele><time>2026-04-26T06:58:59.97Z</time></trkpt><trkpt lat="37.89876064972967" lon="15.146626267862496"><ele>279.3333333333333</ele><time>2026-04-26T06:59:00.97Z</time></trkpt><trkpt lat="37.89883402100885" lon="15.146365434081831"><ele>279.66666666666663</ele><time>2026-04-26T06:59:01.97Z</time></trkpt><trkpt lat="37.898940239243906" lon="15.146144567143573"><ele>280.0</ele><time>2026-04-26T06:59:02.97Z</time></trkpt><trkpt lat="37.89901716793846" lon="15.145906859446182"><ele>280.3333333333333</ele><time>2026-04-26T06:59:03.97Z</time></trkpt><trkpt lat="37.89909249528076" lon="15.145666946426365"><ele>280.6666666666667</ele><time>2026-04-26T06:59:04.97Z</time></trkpt><trkpt lat="37.89917635112645" lon="15.145439744924785"><ele>281.0</ele><time>2026-04-26T06:59:05.97Z</time></trkpt><trkpt lat="37.89927452360291" lon="15.145219834198878"><ele>281.0</ele><time>2026-04-26T06:59:06.969Z</time></trkpt><trkpt lat="37.89936984449587" lon="15.145000350835195"><ele>281.0</ele><time>2026-04-26T06:59:07.969Z</time></trkpt><trkpt lat="37.899497645991914" lon="15.144820154127823"><ele>281.0</ele><time>2026-04-26T06:59:08.969Z</time></trkpt><trkpt lat="37.89964778955103" lon="15.144673435876957"><ele>281.6666666666667</ele><time>2026-04-26T06:59:09.969Z</time></trkpt><trkpt lat="37.89980341908221" lon="15.144531178456342"><ele>282.3333333333333</ele><time>2026-04-26T06:59:10.969Z</time></trkpt><trkpt lat="37.89998044856789" lon="15.14438494029397"><ele>283.0</ele><time>2026-04-26T06:59:11.969Z</time></trkpt><trkpt lat="37.90015742043376" lon="15.144247847534526"><ele>283.0</ele><time>2026-04-26T06:59:12.969Z</time></trkpt><trkpt lat="37.900365740233745" lon="15.144132837059637"><ele>283.0</ele><time>2026-04-26T06:59:13.969Z</time></trkpt><trkpt lat="37.90054796503385" lon="15.143980090853148"><ele>283.0</ele><time>2026-04-26T06:59:14.969Z</time></trkpt><trkpt lat="37.90072368313769" lon="15.14382930381026"><ele>284.66666666666663</ele><time>2026-04-26T06:59:15.969Z</time></trkpt><trkpt lat="37.90089761210246" lon="15.14368193749871"><ele>286.3333333333333</ele><time>2026-04-26T06:59:16.969Z</time></trkpt><trkpt lat="37.90108009296321" lon="15.143543433353347"><ele>288.0</ele><time>2026-04-26T06:59:17.969Z</time></trkpt><trkpt lat="37.901241009101426" lon="15.143408921492314"><ele>288.0</ele><time>2026-04-26T06:59:18.969Z</time></trkpt><trkpt lat="37.90139200312884" lon="15.143290296010589"><ele>288.0</ele><time>2026-04-26T06:59:19.969Z</time></trkpt><trkpt lat="37.90154252558771" lon="15.143165971590863"><ele>288.0</ele><time>2026-04-26T06:59:20.969Z</time></trkpt><trkpt lat="37.90168147510118" lon="15.143045184245308"><ele>290.0</ele><time>2026-04-26T06:59:21.969Z</time></trkpt><trkpt lat="37.90182238816235" lon="15.142932190102567"><ele>292.0</ele><time>2026-04-26T06:59:22.969Z</time></trkpt><trkpt lat="37.901950098507164" lon="15.142829906995667"><ele>294.0</ele><time>2026-04-26T06:59:23.969Z</time></trkpt><trkpt lat="37.90206757241942" lon="15.142736568554234"><ele>294.0</ele><time>2026-04-26T06:59:24.969Z</time></trkpt><trkpt lat="37.90217462670803" lon="15.142652951784353"><ele>294.0</ele><time>2026-04-26T06:59:25.969Z</time></trkpt><trkpt lat="37.90227033562895" lon="15.14257834176246"><ele>294.0</ele><time>2026-04-26T06:59:26.969Z</time></trkpt><trkpt lat="37.90234717921756" lon="15.142505303423642"><ele>294.0</ele><time>2026-04-26T06:59:27.969Z</time></trkpt><trkpt lat="37.90240724608051" lon="15.142476399245233"><ele>294.0</ele><time>2026-04-26T06:59:28.969Z</time></trkpt><trkpt lat="37.90228182721293" lon="15.142180786743438"><ele>296.25</ele><time>2026-04-26T06:59:30.969Z</time></trkpt><trkpt lat="37.902222396613496" lon="15.142056380247938"><ele>298.5</ele><time>2026-04-26T06:59:31.969Z</time></trkpt><trkpt lat="37.9021184411275" lon="15.1419263113278"><ele>300.75</ele><time>2026-04-26T06:59:32.969Z</time></trkpt><trkpt lat="37.90202763581225" lon="15.14178886106443"><ele>303.0</ele><time>2026-04-26T06:59:33.969Z</time></trkpt><trkpt lat="37.90195804905102" lon="15.141622104825913"><ele>303.3333333333333</ele><time>2026-04-26T06:59:34.969Z</time></trkpt><trkpt lat="37.90187396616927" lon="15.141449584919776"><ele>303.66666666666663</ele><time>2026-04-26T06:59:35.969Z</time></trkpt><trkpt lat="37.90179252734857" lon="15.14128006706466"><ele>304.0</ele><time>2026-04-26T06:59:36.969Z</time></trkpt><trkpt lat="37.9017120276146" lon="15.141129535511475"><ele>304.0</ele><time>2026-04-26T06:59:37.969Z</time></trkpt><trkpt lat="37.901653837596044" lon="15.140982395423748"><ele>304.0</ele><time>2026-04-26T06:59:38.969Z</time></trkpt><trkpt lat="37.9015880740398" lon="15.140839794481415"><ele>304.0</ele><time>2026-04-26T06:59:39.969Z</time></trkpt><trkpt lat="37.901517207660554" lon="15.14069598765617"><ele>304.0</ele><time>2026-04-26T06:59:40.969Z</time></trkpt><trkpt lat="37.90143927785339" lon="15.140548060928952"><ele>304.3333333333333</ele><time>2026-04-26T06:59:41.969Z</time></trkpt><trkpt lat="37.90134586963333" lon="15.14039458604516"><ele>304.6666666666667</ele><time>2026-04-26T06:59:42.968Z</time></trkpt><trkpt lat="37.90128536043328" lon="15.140191432216435"><ele>305.0</ele><time>2026-04-26T06:59:43.968Z</time></trkpt><trkpt lat="37.90120020624276" lon="15.140014737954404"><ele>307.0</ele><time>2026-04-26T06:59:44.968Z</time></trkpt><trkpt lat="37.901122856872185" lon="15.139827037702307"><ele>309.0</ele><time>2026-04-26T06:59:45.968Z</time></trkpt><trkpt lat="37.901071122976916" lon="15.139622601014796"><ele>311.0</ele><time>2026-04-26T06:59:46.968Z</time></trkpt><trkpt lat="37.90106842559161" lon="15.139411776286186"><ele>311.0</ele><time>2026-04-26T06:59:47.968Z</time></trkpt><trkpt lat="37.9010891627585" lon="15.13919218803251"><ele>311.0</ele><time>2026-04-26T06:59:48.968Z</time></trkpt><trkpt lat="37.90113152850111" lon="15.138988479791761"><ele>311.0</ele><time>2026-04-26T06:59:49.968Z</time></trkpt><trkpt lat="37.90116266799232" lon="15.138790430482137"><ele>312.6666666666667</ele><time>2026-04-26T06:59:50.968Z</time></trkpt><trkpt lat="37.90118747156592" lon="15.138590763195221"><ele>314.3333333333333</ele><time>2026-04-26T06:59:51.968Z</time></trkpt><trkpt lat="37.901226488395594" lon="15.138388212420685"><ele>316.0</ele><time>2026-04-26T06:59:52.968Z</time></trkpt><trkpt lat="37.90126195171242" lon="15.138189648818894"><ele>316.8</ele><time>2026-04-26T06:59:53.968Z</time></trkpt><trkpt lat="37.901289372207025" lon="15.138019237259963"><ele>317.6</ele><time>2026-04-26T06:59:54.968Z</time></trkpt><trkpt lat="37.90131697297798" lon="15.137874311559662"><ele>318.4</ele><time>2026-04-26T06:59:55.968Z</time></trkpt><trkpt lat="37.90133643713644" lon="15.137746459997688"><ele>319.2</ele><time>2026-04-26T06:59:56.968Z</time></trkpt><trkpt lat="37.90135773876419" lon="15.137639997868462"><ele>320.0</ele><time>2026-04-26T06:59:57.968Z</time></trkpt><trkpt lat="37.90141073779691" lon="15.13757097620779"><ele>320.0</ele><time>2026-04-26T06:59:58.968Z</time></trkpt><trkpt lat="37.90148146155295" lon="15.137519159644402"><ele>320.0</ele><time>2026-04-26T06:59:59.968Z</time></trkpt><trkpt lat="37.901552443528026" lon="15.13744481479558"><ele>320.0</ele><time>2026-04-26T07:00:00.968Z</time></trkpt><trkpt lat="37.90161280988699" lon="15.137378560509244"><ele>320.0</ele><time>2026-04-26T07:00:01.968Z</time></trkpt><trkpt lat="37.90164938874038" lon="15.137296325554432"><ele>320.0</ele><time>2026-04-26T07:00:02.968Z</time></trkpt><trkpt lat="37.901690902693204" lon="15.137215245348417"><ele>320.0</ele><time>2026-04-26T07:00:03.968Z</time></trkpt><trkpt lat="37.901727318875764" lon="15.137123659982803"><ele>321.33333333333337</ele><time>2026-04-26T07:00:04.968Z</time></trkpt><trkpt lat="37.901757752674534" lon="15.13702435997807"><ele>322.6666666666667</ele><time>2026-04-26T07:00:05.968Z</time></trkpt><trkpt lat="37.90176501306716" lon="15.136918139445912"><ele>324.0</ele><time>2026-04-26T07:00:06.968Z</time></trkpt><trkpt lat="37.9017446323859" lon="15.136824586071647"><ele>325.3333333333333</ele><time>2026-04-26T07:00:07.968Z</time></trkpt><trkpt lat="37.90171822598116" lon="15.136730630914272"><ele>326.66666666666663</ele><time>2026-04-26T07:00:08.968Z</time></trkpt><trkpt lat="37.901666856344036" lon="15.136639224470546"><ele>328.0</ele><time>2026-04-26T07:00:09.968Z</time></trkpt><trkpt lat="37.90162638818682" lon="15.136564537145262"><ele>329.0</ele><time>2026-04-26T07:00:10.968Z</time></trkpt><trkpt lat="37.90159394713754" lon="15.136483231964858"><ele>330.0</ele><time>2026-04-26T07:00:11.968Z</time></trkpt><trkpt lat="37.90160039331241" lon="15.136402138979088"><ele>331.0</ele><time>2026-04-26T07:00:12.968Z</time></trkpt><trkpt lat="37.901572447437594" lon="15.136324887141411"><ele>332.0</ele><time>2026-04-26T07:00:13.968Z</time></trkpt><trkpt lat="37.901529619720066" lon="15.13620216855994"><ele>333.0</ele><time>2026-04-26T07:00:15.968Z</time></trkpt><trkpt lat="37.90150046850863" lon="15.136115073366103"><ele>334.0</ele><time>2026-04-26T07:00:17.968Z</time></trkpt><trkpt lat="37.90148354431194" lon="15.136001991934366"><ele>334.0</ele><time>2026-04-26T07:00:19.967Z</time></trkpt><trkpt lat="37.90148375479237" lon="15.135865605571302"><ele>334.0</ele><time>2026-04-26T07:00:22.967Z</time></trkpt><trkpt lat="37.901487189155425" lon="15.135764620830871"><ele>334.0</ele><time>2026-04-26T07:00:23.967Z</time></trkpt><trkpt lat="37.90149115185978" lon="15.135636665397989"><ele>334.0</ele><time>2026-04-26T07:00:24.967Z</time></trkpt><trkpt lat="37.901499861333136" lon="15.13548705770129"><ele>334.0</ele><time>2026-04-26T07:00:25.967Z</time></trkpt><trkpt lat="37.9015177964183" lon="15.13531629999553"><ele>334.0</ele><time>2026-04-26T07:00:26.967Z</time></trkpt><trkpt lat="37.90153524800003" lon="15.13515887749108"><ele>334.0</ele><time>2026-04-26T07:00:27.967Z</time></trkpt><trkpt lat="37.90154439187772" lon="15.13498767430291"><ele>334.0</ele><time>2026-04-26T07:00:28.967Z</time></trkpt><trkpt lat="37.90157397776274" lon="15.13481700758377"><ele>334.0</ele><time>2026-04-26T07:00:29.967Z</time></trkpt><trkpt lat="37.901597007677346" lon="15.134638578228119"><ele>334.0</ele><time>2026-04-26T07:00:30.967Z</time></trkpt><trkpt lat="37.90162146181606" lon="15.134467701664965"><ele>334.0</ele><time>2026-04-26T07:00:31.967Z</time></trkpt><trkpt lat="37.90162274894851" lon="15.134289947336793"><ele>334.0</ele><time>2026-04-26T07:00:32.967Z</time></trkpt><trkpt lat="37.9016461491081" lon="15.134125964294583"><ele>334.0</ele><time>2026-04-26T07:00:33.967Z</time></trkpt><trkpt lat="37.90166120661829" lon="15.13396285249121"><ele>334.0</ele><time>2026-04-26T07:00:34.967Z</time></trkpt><trkpt lat="37.901690381539545" lon="15.133821193506602"><ele>334.0</ele><time>2026-04-26T07:00:35.967Z</time></trkpt><trkpt lat="37.901718258295894" lon="15.133692409444699"><ele>334.0</ele><time>2026-04-26T07:00:36.967Z</time></trkpt><trkpt lat="37.90175047013369" lon="15.133573265598347"><ele>334.0</ele><time>2026-04-26T07:00:37.967Z</time></trkpt><trkpt lat="37.9018184305723" lon="15.133467175779586"><ele>334.0</ele><time>2026-04-26T07:00:38.967Z</time></trkpt><trkpt lat="37.90184938941" lon="15.133336292655073"><ele>333.75</ele><time>2026-04-26T07:00:39.967Z</time></trkpt><trkpt lat="37.90187134570212" lon="15.133185146685246"><ele>333.5</ele><time>2026-04-26T07:00:40.967Z</time></trkpt><trkpt lat="37.90191482059787" lon="15.13301736975684"><ele>333.25</ele><time>2026-04-26T07:00:41.967Z</time></trkpt><trkpt lat="37.90196789849765" lon="15.132846814904061"><ele>333.0</ele><time>2026-04-26T07:00:42.967Z</time></trkpt><trkpt lat="37.9020114433151" lon="15.132670329238707"><ele>333.0</ele><time>2026-04-26T07:00:43.967Z</time></trkpt><trkpt lat="37.90205948168054" lon="15.132498106469118"><ele>333.0</ele><time>2026-04-26T07:00:44.967Z</time></trkpt><trkpt lat="37.90216393004462" lon="15.132380780825741"><ele>333.0</ele><time>2026-04-26T07:00:45.969Z</time></trkpt><trkpt lat="37.902277653005314" lon="15.132272609166801"><ele>333.0</ele><time>2026-04-26T07:00:46.969Z</time></trkpt><trkpt lat="37.902398828389444" lon="15.132139846716235"><ele>332.6666666666667</ele><time>2026-04-26T07:00:47.969Z</time></trkpt><trkpt lat="37.902513515361996" lon="15.132015337228093"><ele>332.33333333333337</ele><time>2026-04-26T07:00:48.969Z</time></trkpt><trkpt lat="37.90262941914639" lon="15.131889200400716"><ele>332.0</ele><time>2026-04-26T07:00:49.969Z</time></trkpt><trkpt lat="37.90277694923334" lon="15.131800062106022"><ele>332.0</ele><time>2026-04-26T07:00:50.969Z</time></trkpt><trkpt lat="37.902928141046736" lon="15.131680893198801"><ele>332.0</ele><time>2026-04-26T07:00:51.969Z</time></trkpt><trkpt lat="37.903076472848376" lon="15.131595155699525"><ele>332.0</ele><time>2026-04-26T07:00:52.969Z</time></trkpt><trkpt lat="37.90322276995853" lon="15.131488345915534"><ele>332.0</ele><time>2026-04-26T07:00:53.969Z</time></trkpt><trkpt lat="37.90336294825345" lon="15.13135844071101"><ele>332.0</ele><time>2026-04-26T07:00:54.969Z</time></trkpt><trkpt lat="37.903487555490926" lon="15.131212854930725"><ele>332.0</ele><time>2026-04-26T07:00:55.969Z</time></trkpt><trkpt lat="37.90360987803147" lon="15.131051031619181"><ele>332.0</ele><time>2026-04-26T07:00:56.969Z</time></trkpt><trkpt lat="37.903721813181626" lon="15.130876065697551"><ele>332.0</ele><time>2026-04-26T07:00:57.969Z</time></trkpt><trkpt lat="37.90382989587537" lon="15.130711697884484"><ele>332.0</ele><time>2026-04-26T07:00:58.969Z</time></trkpt><trkpt lat="37.90393295792205" lon="15.130534927422323"><ele>332.33333333333337</ele><time>2026-04-26T07:00:59.969Z</time></trkpt><trkpt lat="37.904031560820336" lon="15.130361939912449"><ele>332.6666666666667</ele><time>2026-04-26T07:01:00.969Z</time></trkpt><trkpt lat="37.90411010333077" lon="15.130151924190182"><ele>333.0</ele><time>2026-04-26T07:01:01.969Z</time></trkpt><trkpt lat="37.90416949483437" lon="15.129930937003369"><ele>331.6666666666667</ele><time>2026-04-26T07:01:02.969Z</time></trkpt><trkpt lat="37.90422422361816" lon="15.12969422942811"><ele>330.33333333333337</ele><time>2026-04-26T07:01:03.968Z</time></trkpt><trkpt lat="37.904278410968274" lon="15.129456563285066"><ele>329.0</ele><time>2026-04-26T07:01:04.968Z</time></trkpt><trkpt lat="37.9043274504791" lon="15.129216687964124"><ele>327.6666666666667</ele><time>2026-04-26T07:01:05.968Z</time></trkpt><trkpt lat="37.90437383214612" lon="15.12899433192182"><ele>326.3333333333333</ele><time>2026-04-26T07:01:06.968Z</time></trkpt><trkpt lat="37.904430262935705" lon="15.12878408704184"><ele>325.0</ele><time>2026-04-26T07:01:07.968Z</time></trkpt><trkpt lat="37.9044887593603" lon="15.128585720263763"><ele>325.0</ele><time>2026-04-26T07:01:08.968Z</time></trkpt><trkpt lat="37.90456819526363" lon="15.128410219041374"><ele>325.0</ele><time>2026-04-26T07:01:09.968Z</time></trkpt><trkpt lat="37.90466074988869" lon="15.128239260801616"><ele>325.0</ele><time>2026-04-26T07:01:10.968Z</time></trkpt><trkpt lat="37.90475095349734" lon="15.128053676705834"><ele>327.3333333333333</ele><time>2026-04-26T07:01:11.968Z</time></trkpt><trkpt lat="37.90483267032009" lon="15.12784586787931"><ele>329.6666666666667</ele><time>2026-04-26T07:01:12.968Z</time></trkpt><trkpt lat="37.90491176530912" lon="15.127634375873079"><ele>332.0</ele><time>2026-04-26T07:01:13.968Z</time></trkpt><trkpt lat="37.9049751832037" lon="15.127424595399555"><ele>333.6666666666667</ele><time>2026-04-26T07:01:14.968Z</time></trkpt><trkpt lat="37.905010722257316" lon="15.127212023480753"><ele>335.3333333333333</ele><time>2026-04-26T07:01:15.968Z</time></trkpt><trkpt lat="37.90502377588026" lon="15.126995095560847"><ele>337.0</ele><time>2026-04-26T07:01:16.968Z</time></trkpt><trkpt lat="37.90501746056441" lon="15.126790810488526"><ele>337.0</ele><time>2026-04-26T07:01:17.968Z</time></trkpt><trkpt lat="37.90499920363447" lon="15.126605583491822"><ele>337.0</ele><time>2026-04-26T07:01:18.968Z</time></trkpt><trkpt lat="37.904965486917796" lon="15.126445584997567"><ele>337.0</ele><time>2026-04-26T07:01:19.968Z</time></trkpt><trkpt lat="37.904936188716384" lon="15.126288809801471"><ele>337.0</ele><time>2026-04-26T07:01:20.968Z</time></trkpt><trkpt lat="37.90489361012188" lon="15.126149523974592"><ele>337.20000000000005</ele><time>2026-04-26T07:01:21.968Z</time></trkpt><trkpt lat="37.90485551426755" lon="15.126023443264431"><ele>337.4</ele><time>2026-04-26T07:01:22.968Z</time></trkpt><trkpt lat="37.90482659919602" lon="15.125923868599331"><ele>337.6</ele><time>2026-04-26T07:01:23.968Z</time></trkpt><trkpt lat="37.90480914302416" lon="15.12584654879114"><ele>337.79999999999995</ele><time>2026-04-26T07:01:24.968Z</time></trkpt><trkpt lat="37.90479360414398" lon="15.125720638299816"><ele>338.0</ele><time>2026-04-26T07:01:26.968Z</time></trkpt><trkpt lat="37.90479879298246" lon="15.125554092620508"><ele>338.0</ele><time>2026-04-26T07:01:28.968Z</time></trkpt><trkpt lat="37.904817052561164" lon="15.125426568705885"><ele>338.0</ele><time>2026-04-26T07:01:29.968Z</time></trkpt><trkpt lat="37.904848302583666" lon="15.12525485818878"><ele>338.0</ele><time>2026-04-26T07:01:30.968Z</time></trkpt><trkpt lat="37.904880084597586" lon="15.12503706306215"><ele>338.0</ele><time>2026-04-26T07:01:31.968Z</time></trkpt><trkpt lat="37.904943667539875" lon="15.124795953470649"><ele>341.0</ele><time>2026-04-26T07:01:32.968Z</time></trkpt><trkpt lat="37.90500433612705" lon="15.124552753930047"><ele>344.0</ele><time>2026-04-26T07:01:33.968Z</time></trkpt><trkpt lat="37.90505367987086" lon="15.124312686672223"><ele>347.0</ele><time>2026-04-26T07:01:34.968Z</time></trkpt><trkpt lat="37.905120617089665" lon="15.124092307268889"><ele>342.33333333333337</ele><time>2026-04-26T07:01:35.968Z</time></trkpt><trkpt lat="37.9052502427693" lon="15.12392209970785"><ele>337.6666666666667</ele><time>2026-04-26T07:01:36.968Z</time></trkpt><trkpt lat="37.905391133863965" lon="15.123733365459573"><ele>333.0</ele><time>2026-04-26T07:01:37.968Z</time></trkpt><trkpt lat="37.905506772805474" lon="15.123557144482845"><ele>333.0</ele><time>2026-04-26T07:01:38.968Z</time></trkpt><trkpt lat="37.90559404210111" lon="15.123355258063912"><ele>333.0</ele><time>2026-04-26T07:01:39.967Z</time></trkpt><trkpt lat="37.90566360356704" lon="15.123132869410775"><ele>333.0</ele><time>2026-04-26T07:01:40.967Z</time></trkpt><trkpt lat="37.905685323293184" lon="15.12289839539582"><ele>335.3333333333333</ele><time>2026-04-26T07:01:41.967Z</time></trkpt><trkpt lat="37.905738364278115" lon="15.122682450623842"><ele>337.66666666666663</ele><time>2026-04-26T07:01:42.967Z</time></trkpt><trkpt lat="37.90583392257072" lon="15.12248947117462"><ele>340.0</ele><time>2026-04-26T07:01:43.967Z</time></trkpt><trkpt lat="37.90592468503748" lon="15.122298079930893"><ele>340.0</ele><time>2026-04-26T07:01:44.967Z</time></trkpt><trkpt lat="37.90600369106172" lon="15.122142536497055"><ele>340.0</ele><time>2026-04-26T07:01:45.967Z</time></trkpt><trkpt lat="37.90611168889987" lon="15.122031169204037"><ele>340.0</ele><time>2026-04-26T07:01:46.967Z</time></trkpt><trkpt lat="37.906274335098615" lon="15.121872872385921"><ele>340.0</ele><time>2026-04-26T07:01:47.967Z</time></trkpt><trkpt lat="37.9063927500408" lon="15.121646681562492"><ele>340.0</ele><time>2026-04-26T07:01:48.967Z</time></trkpt><trkpt lat="37.90648080329685" lon="15.121442449462279"><ele>340.0</ele><time>2026-04-26T07:01:49.967Z</time></trkpt><trkpt lat="37.9065546996715" lon="15.121298592625571"><ele>339.5</ele><time>2026-04-26T07:01:50.967Z</time></trkpt><trkpt lat="37.90665311190925" lon="15.12120259739115"><ele>339.0</ele><time>2026-04-26T07:01:51.967Z</time></trkpt><trkpt lat="37.90678344817459" lon="15.121094151040607"><ele>338.5</ele><time>2026-04-26T07:01:52.967Z</time></trkpt><trkpt lat="37.90691554791082" lon="15.120980417891836"><ele>338.0</ele><time>2026-04-26T07:01:53.967Z</time></trkpt><trkpt lat="37.9070354078662" lon="15.120798392528346"><ele>341.0</ele><time>2026-04-26T07:01:54.967Z</time></trkpt><trkpt lat="37.90711710095372" lon="15.120612171309691"><ele>344.0</ele><time>2026-04-26T07:01:55.967Z</time></trkpt><trkpt lat="37.907201141487775" lon="15.120429818150809"><ele>347.0</ele><time>2026-04-26T07:01:56.967Z</time></trkpt><trkpt lat="37.90720939285512" lon="15.120189366676064"><ele>347.0</ele><time>2026-04-26T07:01:57.967Z</time></trkpt><trkpt lat="37.90719030852295" lon="15.119982553783464"><ele>347.0</ele><time>2026-04-26T07:01:58.967Z</time></trkpt><trkpt lat="37.90721368282377" lon="15.119765821775832"><ele>347.0</ele><time>2026-04-26T07:01:59.967Z</time></trkpt><trkpt lat="37.907274060060836" lon="15.119544630138652"><ele>350.0</ele><time>2026-04-26T07:02:00.967Z</time></trkpt><trkpt lat="37.907322606625996" lon="15.119304351960302"><ele>353.0</ele><time>2026-04-26T07:02:01.967Z</time></trkpt><trkpt lat="37.907365675864156" lon="15.119059228831729"><ele>356.0</ele><time>2026-04-26T07:02:02.967Z</time></trkpt><trkpt lat="37.90741510669865" lon="15.118840938267592"><ele>354.33333333333337</ele><time>2026-04-26T07:02:03.967Z</time></trkpt><trkpt lat="37.90747284739122" lon="15.118629755927904"><ele>352.6666666666667</ele><time>2026-04-26T07:02:04.967Z</time></trkpt><trkpt lat="37.907540574988445" lon="15.118446575092108"><ele>351.0</ele><time>2026-04-26T07:02:05.967Z</time></trkpt><trkpt lat="37.907610755797975" lon="15.118291123652586"><ele>358.0</ele><time>2026-04-26T07:02:06.967Z</time></trkpt><trkpt lat="37.90767672009666" lon="15.118166612776678"><ele>365.0</ele><time>2026-04-26T07:02:07.967Z</time></trkpt><trkpt lat="37.90775743161438" lon="15.118096865558117"><ele>372.0</ele><time>2026-04-26T07:02:08.967Z</time></trkpt><trkpt lat="37.907852206236775" lon="15.118084925759002"><ele>379.0</ele><time>2026-04-26T07:02:09.967Z</time></trkpt><trkpt lat="37.907979352798094" lon="15.118115585301336"><ele>386.0</ele><time>2026-04-26T07:02:10.967Z</time></trkpt><trkpt lat="37.90812112322701" lon="15.118113125915597"><ele>386.0</ele><time>2026-04-26T07:02:11.967Z</time></trkpt><trkpt lat="37.908281769443754" lon="15.118054627313604"><ele>386.0</ele><time>2026-04-26T07:02:12.967Z</time></trkpt><trkpt lat="37.90844347913289" lon="15.117968336234743"><ele>386.0</ele><time>2026-04-26T07:02:13.967Z</time></trkpt><trkpt lat="37.90857455588355" lon="15.117851592470293"><ele>376.0</ele><time>2026-04-26T07:02:14.967Z</time></trkpt><trkpt lat="37.90868711923636" lon="15.117711669120872"><ele>366.0</ele><time>2026-04-26T07:02:15.966Z</time></trkpt><trkpt lat="37.90874995440418" lon="15.117536338657883"><ele>356.0</ele><time>2026-04-26T07:02:16.966Z</time></trkpt><trkpt lat="37.90878419987475" lon="15.11735961843299"><ele>356.0</ele><time>2026-04-26T07:02:17.966Z</time></trkpt><trkpt lat="37.90878678232538" lon="15.117149133749352"><ele>356.0</ele><time>2026-04-26T07:02:18.966Z</time></trkpt><trkpt lat="37.90881613891991" lon="15.116937871847977"><ele>356.0</ele><time>2026-04-26T07:02:19.966Z</time></trkpt><trkpt lat="37.90885743348238" lon="15.116740471362695"><ele>356.0</ele><time>2026-04-26T07:02:20.966Z</time></trkpt><trkpt lat="37.90892599073169" lon="15.116571323188436"><ele>356.0</ele><time>2026-04-26T07:02:21.966Z</time></trkpt><trkpt lat="37.908998787877984" lon="15.116423478782702"><ele>356.0</ele><time>2026-04-26T07:02:22.966Z</time></trkpt><trkpt lat="37.9090531885412" lon="15.116269513094876"><ele>356.0</ele><time>2026-04-26T07:02:23.966Z</time></trkpt><trkpt lat="37.90905402975637" lon="15.11609646088568"><ele>360.33333333333337</ele><time>2026-04-26T07:02:24.966Z</time></trkpt><trkpt lat="37.90903104937782" lon="15.115901075121373"><ele>364.6666666666667</ele><time>2026-04-26T07:02:25.966Z</time></trkpt><trkpt lat="37.90900902612836" lon="15.115696730134072"><ele>369.0</ele><time>2026-04-26T07:02:26.966Z</time></trkpt><trkpt lat="37.90902142821885" lon="15.115512771422827"><ele>367.75</ele><time>2026-04-26T07:02:27.966Z</time></trkpt><trkpt lat="37.90907185762661" lon="15.115384973853255"><ele>366.5</ele><time>2026-04-26T07:02:28.966Z</time></trkpt><trkpt lat="37.909144259668714" lon="15.115316160724866"><ele>365.25</ele><time>2026-04-26T07:02:29.966Z</time></trkpt><trkpt lat="37.90924816831581" lon="15.115305569321178"><ele>364.0</ele><time>2026-04-26T07:02:30.966Z</time></trkpt><trkpt lat="37.909391882672" lon="15.115242222277724"><ele>364.0</ele><time>2026-04-26T07:02:31.966Z</time></trkpt><trkpt lat="37.909508812611634" lon="15.115151789163455"><ele>364.0</ele><time>2026-04-26T07:02:32.966Z</time></trkpt><trkpt lat="37.90961120980922" lon="15.115054673689531"><ele>364.0</ele><time>2026-04-26T07:02:33.966Z</time></trkpt><trkpt lat="37.90967701271591" lon="15.114964329189888"><ele>364.0</ele><time>2026-04-26T07:02:34.966Z</time></trkpt><trkpt lat="37.909702907138545" lon="15.114804101303346"><ele>370.5</ele><time>2026-04-26T07:02:35.966Z</time></trkpt><trkpt lat="37.909677756130954" lon="15.114650936866125"><ele>377.0</ele><time>2026-04-26T07:02:36.966Z</time></trkpt><trkpt lat="37.90971708640329" lon="15.114510086830864"><ele>383.5</ele><time>2026-04-26T07:02:37.966Z</time></trkpt><trkpt lat="37.909796742987204" lon="15.114444797751956"><ele>390.0</ele><time>2026-04-26T07:02:38.966Z</time></trkpt><trkpt lat="37.909890838720045" lon="15.114320525584867"><ele>390.0</ele><time>2026-04-26T07:02:39.966Z</time></trkpt><trkpt lat="37.90999054166576" lon="15.114198309129147"><ele>390.0</ele><time>2026-04-26T07:02:40.966Z</time></trkpt><trkpt lat="37.910105314362355" lon="15.114096584276375"><ele>390.0</ele><time>2026-04-26T07:02:41.966Z</time></trkpt><trkpt lat="37.91023167398748" lon="15.114012167567953"><ele>390.0</ele><time>2026-04-26T07:02:42.966Z</time></trkpt><trkpt lat="37.910369233558065" lon="15.113940836075477"><ele>388.0</ele><time>2026-04-26T07:02:43.966Z</time></trkpt><trkpt lat="37.910497975970955" lon="15.113866478284486"><ele>386.0</ele><time>2026-04-26T07:02:44.966Z</time></trkpt><trkpt lat="37.91059225748361" lon="15.113747824266724"><ele>384.0</ele><time>2026-04-26T07:02:45.966Z</time></trkpt><trkpt lat="37.9106681907947" lon="15.113596179247697"><ele>382.0</ele><time>2026-04-26T07:02:46.966Z</time></trkpt><trkpt lat="37.91071768143626" lon="15.113418690390695"><ele>382.66666666666663</ele><time>2026-04-26T07:02:47.966Z</time></trkpt><trkpt lat="37.91073802007371" lon="15.113228241597788"><ele>383.3333333333333</ele><time>2026-04-26T07:02:48.966Z</time></trkpt><trkpt lat="37.910719592165826" lon="15.113030889692446"><ele>384.0</ele><time>2026-04-26T07:02:49.966Z</time></trkpt><trkpt lat="37.91070368134487" lon="15.11283218334721"><ele>384.0</ele><time>2026-04-26T07:02:50.965Z</time></trkpt><trkpt lat="37.910670536202076" lon="15.11263306336937"><ele>384.0</ele><time>2026-04-26T07:02:51.968Z</time></trkpt><trkpt lat="37.910637367191974" lon="15.112421176795756"><ele>384.0</ele><time>2026-04-26T07:02:52.968Z</time></trkpt><trkpt lat="37.91060096304687" lon="15.112198264781835"><ele>385.0</ele><time>2026-04-26T07:02:53.968Z</time></trkpt><trkpt lat="37.91056549658139" lon="15.11198528796322"><ele>386.0</ele><time>2026-04-26T07:02:54.968Z</time></trkpt><trkpt lat="37.91053489547226" lon="15.111801527577734"><ele>387.0</ele><time>2026-04-26T07:02:55.968Z</time></trkpt><trkpt lat="37.910505881031945" lon="15.111627295100337"><ele>389.0</ele><time>2026-04-26T07:02:56.968Z</time></trkpt><trkpt lat="37.91049259091171" lon="15.111468868124076"><ele>391.0</ele><time>2026-04-26T07:02:57.968Z</time></trkpt><trkpt lat="37.91051594635215" lon="15.111329619512254"><ele>393.0</ele><time>2026-04-26T07:02:58.968Z</time></trkpt><trkpt lat="37.91060369054797" lon="15.111214564902461"><ele>395.0</ele><time>2026-04-26T07:02:59.968Z</time></trkpt><trkpt lat="37.91071249676163" lon="15.111084879513456"><ele>395.0</ele><time>2026-04-26T07:03:00.968Z</time></trkpt><trkpt lat="37.9108123715102" lon="15.110942968265766"><ele>395.0</ele><time>2026-04-26T07:03:01.968Z</time></trkpt><trkpt lat="37.91089805871747" lon="15.11077571672237"><ele>395.0</ele><time>2026-04-26T07:03:02.968Z</time></trkpt><trkpt lat="37.9109498270641" lon="15.110595289896786"><ele>389.66666666666663</ele><time>2026-04-26T07:03:03.968Z</time></trkpt><trkpt lat="37.91096673910519" lon="15.110396598153207"><ele>384.3333333333333</ele><time>2026-04-26T07:03:04.968Z</time></trkpt><trkpt lat="37.910990107928235" lon="15.110185472168249"><ele>379.0</ele><time>2026-04-26T07:03:05.968Z</time></trkpt><trkpt lat="37.9110055292187" lon="15.10997140163545"><ele>382.3333333333333</ele><time>2026-04-26T07:03:06.968Z</time></trkpt><trkpt lat="37.91103096769595" lon="15.109767264280462"><ele>385.66666666666663</ele><time>2026-04-26T07:03:07.968Z</time></trkpt><trkpt lat="37.91112552844058" lon="15.109603075445081"><ele>389.0</ele><time>2026-04-26T07:03:08.968Z</time></trkpt><trkpt lat="37.91123884181882" lon="15.109433446521548"><ele>389.0</ele><time>2026-04-26T07:03:09.968Z</time></trkpt><trkpt lat="37.91134809336028" lon="15.109248960407825"><ele>389.0</ele><time>2026-04-26T07:03:10.968Z</time></trkpt><trkpt lat="37.91148094741862" lon="15.109082927179914"><ele>389.0</ele><time>2026-04-26T07:03:11.967Z</time></trkpt><trkpt lat="37.911596425826794" lon="15.108902512557604"><ele>387.66666666666663</ele><time>2026-04-26T07:03:12.967Z</time></trkpt><trkpt lat="37.911693010871204" lon="15.108710339742649"><ele>386.33333333333337</ele><time>2026-04-26T07:03:13.967Z</time></trkpt><trkpt lat="37.91178877595356" lon="15.108517013856325"><ele>385.0</ele><time>2026-04-26T07:03:14.967Z</time></trkpt><trkpt lat="37.91188426121483" lon="15.108319381220106"><ele>387.33333333333337</ele><time>2026-04-26T07:03:15.967Z</time></trkpt><trkpt lat="37.91198271197484" lon="15.108115200446743"><ele>389.66666666666663</ele><time>2026-04-26T07:03:16.967Z</time></trkpt><trkpt lat="37.912094121804884" lon="15.107920473066672"><ele>392.0</ele><time>2026-04-26T07:03:17.967Z</time></trkpt><trkpt lat="37.91221023368112" lon="15.107747791281115"><ele>392.0</ele><time>2026-04-26T07:03:18.967Z</time></trkpt><trkpt lat="37.91232379296695" lon="15.10759574694261"><ele>392.0</ele><time>2026-04-26T07:03:19.967Z</time></trkpt><trkpt lat="37.91241774472626" lon="15.107438614049775"><ele>392.0</ele><time>2026-04-26T07:03:20.967Z</time></trkpt><trkpt lat="37.91246402162655" lon="15.107274596452507"><ele>392.5</ele><time>2026-04-26T07:03:21.967Z</time></trkpt><trkpt lat="37.91246925109928" lon="15.107111746897877"><ele>393.0</ele><time>2026-04-26T07:03:22.967Z</time></trkpt><trkpt lat="37.912464716345056" lon="15.106952507848575"><ele>393.5</ele><time>2026-04-26T07:03:23.967Z</time></trkpt><trkpt lat="37.912458847585455" lon="15.106788713349296"><ele>394.0</ele><time>2026-04-26T07:03:24.967Z</time></trkpt><trkpt lat="37.9124500729077" lon="15.106629401113127"><ele>393.4</ele><time>2026-04-26T07:03:25.967Z</time></trkpt><trkpt lat="37.912434075610456" lon="15.106484307135204"><ele>392.79999999999995</ele><time>2026-04-26T07:03:26.967Z</time></trkpt><trkpt lat="37.91241085887604" lon="15.106330127104554"><ele>392.20000000000005</ele><time>2026-04-26T07:03:27.967Z</time></trkpt><trkpt lat="37.91237446466614" lon="15.106196592356833"><ele>391.6</ele><time>2026-04-26T07:03:28.967Z</time></trkpt><trkpt lat="37.91235174769292" lon="15.10608077636307"><ele>391.0</ele><time>2026-04-26T07:03:29.967Z</time></trkpt><trkpt lat="37.9123144600568" lon="15.105961978585412"><ele>391.00000000000006</ele><time>2026-04-26T07:03:30.967Z</time></trkpt><trkpt lat="37.912275080463246" lon="15.105857379049393"><ele>391.0</ele><time>2026-04-26T07:03:31.967Z</time></trkpt><trkpt lat="37.912237126207415" lon="15.105768291967252"><ele>391.0</ele><time>2026-04-26T07:03:32.967Z</time></trkpt><trkpt lat="37.91220279844635" lon="15.105687105944916"><ele>391.0</ele><time>2026-04-26T07:03:33.967Z</time></trkpt><trkpt lat="37.91217336193036" lon="15.105614315038709"><ele>391.00000000000006</ele><time>2026-04-26T07:03:34.967Z</time></trkpt><trkpt lat="37.91211813098523" lon="15.10547414886108"><ele>391.0</ele><time>2026-04-26T07:03:36.967Z</time></trkpt><trkpt lat="37.91216324245675" lon="15.105391025010748"><ele>388.5</ele><time>2026-04-26T07:03:37.967Z</time></trkpt><trkpt lat="37.91228506853987" lon="15.105355555232144"><ele>386.0</ele><time>2026-04-26T07:03:39.967Z</time></trkpt><trkpt lat="37.91239551955669" lon="15.105450216129642"><ele>383.5</ele><time>2026-04-26T07:03:40.967Z</time></trkpt><trkpt lat="37.91247857075355" lon="15.105561970526663"><ele>381.0</ele><time>2026-04-26T07:03:41.967Z</time></trkpt><trkpt lat="37.91256100268322" lon="15.105694092444239"><ele>380.5</ele><time>2026-04-26T07:03:42.967Z</time></trkpt><trkpt lat="37.91265307142301" lon="15.105823339066"><ele>380.0</ele><time>2026-04-26T07:03:43.967Z</time></trkpt><trkpt lat="37.9127623776082" lon="15.105940706864157"><ele>379.5</ele><time>2026-04-26T07:03:44.967Z</time></trkpt><trkpt lat="37.912886509635086" lon="15.106064029678555"><ele>379.0</ele><time>2026-04-26T07:03:45.967Z</time></trkpt><trkpt lat="37.913015190142424" lon="15.10619133771975"><ele>379.0</ele><time>2026-04-26T07:03:46.966Z</time></trkpt><trkpt lat="37.91311310402163" lon="15.106343952561243"><ele>379.0</ele><time>2026-04-26T07:03:47.966Z</time></trkpt><trkpt lat="37.91321861067595" lon="15.10649097246079"><ele>379.0</ele><time>2026-04-26T07:03:48.966Z</time></trkpt><trkpt lat="37.91328228938521" lon="15.106654050120083"><ele>379.75</ele><time>2026-04-26T07:03:49.966Z</time></trkpt><trkpt lat="37.913307027555355" lon="15.106824703211862"><ele>380.5</ele><time>2026-04-26T07:03:50.966Z</time></trkpt><trkpt lat="37.91334820744826" lon="15.106980087207674"><ele>381.25</ele><time>2026-04-26T07:03:51.966Z</time></trkpt><trkpt lat="37.91344003864617" lon="15.107106862690301"><ele>382.0</ele><time>2026-04-26T07:03:52.966Z</time></trkpt><trkpt lat="37.913571930458836" lon="15.107186759117976"><ele>378.0</ele><time>2026-04-26T07:03:53.966Z</time></trkpt><trkpt lat="37.913712802856274" lon="15.10724893196577"><ele>374.0</ele><time>2026-04-26T07:03:54.966Z</time></trkpt><trkpt lat="37.913869776000546" lon="15.107321241151746"><ele>370.0</ele><time>2026-04-26T07:03:55.966Z</time></trkpt><trkpt lat="37.91403184626752" lon="15.107386874968958"><ele>371.0</ele><time>2026-04-26T07:03:56.966Z</time></trkpt><trkpt lat="37.91418905108553" lon="15.10744174219484"><ele>372.0</ele><time>2026-04-26T07:03:57.966Z</time></trkpt><trkpt lat="37.914341705750026" lon="15.107473896034714"><ele>373.0</ele><time>2026-04-26T07:03:58.966Z</time></trkpt><trkpt lat="37.91447796189412" lon="15.107440508101476"><ele>376.5</ele><time>2026-04-26T07:03:59.966Z</time></trkpt><trkpt lat="37.91458259411449" lon="15.107346704056798"><ele>380.0</ele><time>2026-04-26T07:04:00.966Z</time></trkpt><trkpt lat="37.91463242005498" lon="15.107199908811642"><ele>383.5</ele><time>2026-04-26T07:04:01.966Z</time></trkpt><trkpt lat="37.91465624845437" lon="15.1070142325133"><ele>387.0</ele><time>2026-04-26T07:04:02.966Z</time></trkpt><trkpt lat="37.914690948621974" lon="15.106823651111952"><ele>387.0</ele><time>2026-04-26T07:04:03.966Z</time></trkpt><trkpt lat="37.91479382070645" lon="15.106644818501843"><ele>387.0</ele><time>2026-04-26T07:04:04.966Z</time></trkpt><trkpt lat="37.91490178270254" lon="15.106493337625665"><ele>387.0</ele><time>2026-04-26T07:04:05.966Z</time></trkpt><trkpt lat="37.915020974777796" lon="15.106384552253624"><ele>385.0</ele><time>2026-04-26T07:04:06.966Z</time></trkpt><trkpt lat="37.91516248560674" lon="15.106323730790004"><ele>383.0</ele><time>2026-04-26T07:04:07.966Z</time></trkpt><trkpt lat="37.91532577338655" lon="15.106298699322178"><ele>381.0</ele><time>2026-04-26T07:04:08.966Z</time></trkpt><trkpt lat="37.91551501183171" lon="15.106355685989522"><ele>381.0</ele><time>2026-04-26T07:04:09.966Z</time></trkpt><trkpt lat="37.915696508427516" lon="15.106426711170425"><ele>381.0</ele><time>2026-04-26T07:04:10.966Z</time></trkpt><trkpt lat="37.915861402683" lon="15.106464366284971"><ele>381.0</ele><time>2026-04-26T07:04:11.966Z</time></trkpt><trkpt lat="37.91602403957077" lon="15.106437371000425"><ele>382.33333333333337</ele><time>2026-04-26T07:04:12.966Z</time></trkpt><trkpt lat="37.91618638146695" lon="15.106341213511609"><ele>383.6666666666667</ele><time>2026-04-26T07:04:13.966Z</time></trkpt><trkpt lat="37.91635663851842" lon="15.106234308094923"><ele>385.0</ele><time>2026-04-26T07:04:14.966Z</time></trkpt><trkpt lat="37.91652218322344" lon="15.1061065668451"><ele>385.0</ele><time>2026-04-26T07:04:15.966Z</time></trkpt><trkpt lat="37.91668267076823" lon="15.105980850667509"><ele>385.0</ele><time>2026-04-26T07:04:16.966Z</time></trkpt><trkpt lat="37.91682957774442" lon="15.105865756465144"><ele>385.0</ele><time>2026-04-26T07:04:17.966Z</time></trkpt><trkpt lat="37.91696824620033" lon="15.105754330912903"><ele>386.75</ele><time>2026-04-26T07:04:18.966Z</time></trkpt><trkpt lat="37.917097142795214" lon="15.10565735403444"><ele>388.5</ele><time>2026-04-26T07:04:19.966Z</time></trkpt><trkpt lat="37.91721996541899" lon="15.105568565982173"><ele>390.25</ele><time>2026-04-26T07:04:20.966Z</time></trkpt><trkpt lat="37.91735471865572" lon="15.105553917543208"><ele>392.0</ele><time>2026-04-26T07:04:21.966Z</time></trkpt><trkpt lat="37.91749022097379" lon="15.105607415716312"><ele>396.3333333333333</ele><time>2026-04-26T07:04:22.965Z</time></trkpt><trkpt lat="37.917603154238485" lon="15.105723608323611"><ele>400.66666666666663</ele><time>2026-04-26T07:04:23.965Z</time></trkpt><trkpt lat="37.917685358103114" lon="15.105899852960192"><ele>405.0</ele><time>2026-04-26T07:04:24.965Z</time></trkpt><trkpt lat="37.91775418364349" lon="15.106097238633074"><ele>405.0</ele><time>2026-04-26T07:04:25.965Z</time></trkpt><trkpt lat="37.91783725103115" lon="15.106291782846448"><ele>405.0</ele><time>2026-04-26T07:04:26.965Z</time></trkpt><trkpt lat="37.91795098256741" lon="15.106460902813597"><ele>405.0</ele><time>2026-04-26T07:04:27.965Z</time></trkpt><trkpt lat="37.91810941168052" lon="15.106590882553608"><ele>405.0</ele><time>2026-04-26T07:04:28.965Z</time></trkpt><trkpt lat="37.91828120455256" lon="15.106674229705252"><ele>405.0</ele><time>2026-04-26T07:04:29.965Z</time></trkpt><trkpt lat="37.91845658648583" lon="15.106704089037319"><ele>405.0</ele><time>2026-04-26T07:04:30.965Z</time></trkpt><trkpt lat="37.91863852219198" lon="15.106689093810989"><ele>405.0</ele><time>2026-04-26T07:04:31.965Z</time></trkpt><trkpt lat="37.91883488743198" lon="15.106661432318019"><ele>405.0</ele><time>2026-04-26T07:04:32.965Z</time></trkpt><trkpt lat="37.91902487086249" lon="15.10661439512581"><ele>405.0</ele><time>2026-04-26T07:04:33.965Z</time></trkpt><trkpt lat="37.9192113284195" lon="15.10656142271878"><ele>413.33333333333337</ele><time>2026-04-26T07:04:34.965Z</time></trkpt><trkpt lat="37.91940095767602" lon="15.106496312630597"><ele>421.6666666666667</ele><time>2026-04-26T07:04:35.965Z</time></trkpt><trkpt lat="37.9196006106969" lon="15.106430965183357"><ele>430.0</ele><time>2026-04-26T07:04:36.965Z</time></trkpt><trkpt lat="37.91980108082643" lon="15.106386046793299"><ele>430.0</ele><time>2026-04-26T07:04:37.965Z</time></trkpt><trkpt lat="37.92000453110391" lon="15.106360583273515"><ele>430.0</ele><time>2026-04-26T07:04:38.965Z</time></trkpt><trkpt lat="37.92020677557883" lon="15.10635502867284"><ele>430.0</ele><time>2026-04-26T07:04:39.965Z</time></trkpt><trkpt lat="37.92040581489474" lon="15.106353957151608"><ele>431.6666666666667</ele><time>2026-04-26T07:04:40.965Z</time></trkpt><trkpt lat="37.92059836904559" lon="15.106387804041692"><ele>433.33333333333337</ele><time>2026-04-26T07:04:41.965Z</time></trkpt><trkpt lat="37.92078634595969" lon="15.106445566317255"><ele>435.0</ele><time>2026-04-26T07:04:42.965Z</time></trkpt><trkpt lat="37.92096890188378" lon="15.106522611574126"><ele>434.0</ele><time>2026-04-26T07:04:43.965Z</time></trkpt><trkpt lat="37.921121216438" lon="15.106559293017956"><ele>433.0</ele><time>2026-04-26T07:04:44.965Z</time></trkpt><trkpt lat="37.92125616622623" lon="15.10663294110473"><ele>432.0</ele><time>2026-04-26T07:04:45.965Z</time></trkpt><trkpt lat="37.921364400515024" lon="15.106755176457668"><ele>431.0</ele><time>2026-04-26T07:04:46.965Z</time></trkpt><trkpt lat="37.92140533963185" lon="15.106910572651918"><ele>431.0</ele><time>2026-04-26T07:04:47.965Z</time></trkpt><trkpt lat="37.92142553611362" lon="15.107084922142223"><ele>431.0</ele><time>2026-04-26T07:04:48.965Z</time></trkpt><trkpt lat="37.92143779737852" lon="15.107249192159207"><ele>431.0</ele><time>2026-04-26T07:04:49.965Z</time></trkpt><trkpt lat="37.92148118186374" lon="15.107379986162"><ele>431.0</ele><time>2026-04-26T07:04:50.965Z</time></trkpt><trkpt lat="37.921552884237876" lon="15.107482559578356"><ele>427.25</ele><time>2026-04-26T07:04:51.965Z</time></trkpt><trkpt lat="37.92164970369637" lon="15.107510071301254"><ele>423.5</ele><time>2026-04-26T07:04:52.965Z</time></trkpt><trkpt lat="37.92177968176985" lon="15.107465358459526"><ele>419.75</ele><time>2026-04-26T07:04:53.965Z</time></trkpt><trkpt lat="37.921942638391386" lon="15.107381315142696"><ele>416.0</ele><time>2026-04-26T07:04:54.965Z</time></trkpt><trkpt lat="37.92214182765548" lon="15.107339969891727"><ele>426.0</ele><time>2026-04-26T07:04:55.965Z</time></trkpt><trkpt lat="37.92232879869003" lon="15.1072805572635"><ele>436.0</ele><time>2026-04-26T07:04:56.965Z</time></trkpt><trkpt lat="37.92249630777486" lon="15.107233720886244"><ele>446.0</ele><time>2026-04-26T07:04:57.967Z</time></trkpt><trkpt lat="37.92265510839918" lon="15.107201043860968"><ele>450.0</ele><time>2026-04-26T07:04:58.967Z</time></trkpt><trkpt lat="37.922799084396516" lon="15.107280044228297"><ele>454.0</ele><time>2026-04-26T07:04:59.967Z</time></trkpt><trkpt lat="37.922913871301944" lon="15.107399059226347"><ele>458.0</ele><time>2026-04-26T07:05:00.968Z</time></trkpt><trkpt lat="37.92305639470717" lon="15.10753656959755"><ele>457.66666666666663</ele><time>2026-04-26T07:05:01.967Z</time></trkpt><trkpt lat="37.92320945846754" lon="15.107687897288061"><ele>457.33333333333337</ele><time>2026-04-26T07:05:02.967Z</time></trkpt><trkpt lat="37.923346779179326" lon="15.107835799905363"><ele>457.0</ele><time>2026-04-26T07:05:03.967Z</time></trkpt><trkpt lat="37.92345956232187" lon="15.108009519191373"><ele>457.0</ele><time>2026-04-26T07:05:04.967Z</time></trkpt><trkpt lat="37.9235732053952" lon="15.108196474103492"><ele>457.0</ele><time>2026-04-26T07:05:05.967Z</time></trkpt><trkpt lat="37.92370211694022" lon="15.108348613016895"><ele>457.0</ele><time>2026-04-26T07:05:06.967Z</time></trkpt><trkpt lat="37.923826421616575" lon="15.108483916213586"><ele>454.75</ele><time>2026-04-26T07:05:07.967Z</time></trkpt><trkpt lat="37.92394811270853" lon="15.108616374518908"><ele>452.5</ele><time>2026-04-26T07:05:08.967Z</time></trkpt><trkpt lat="37.92405447956568" lon="15.10873215270403"><ele>450.25</ele><time>2026-04-26T07:05:09.967Z</time></trkpt><trkpt lat="37.92416352173658" lon="15.108833627165463"><ele>448.0</ele><time>2026-04-26T07:05:10.967Z</time></trkpt><trkpt lat="37.924285274943934" lon="15.108856473565188"><ele>448.0</ele><time>2026-04-26T07:05:11.967Z</time></trkpt><trkpt lat="37.92438475147811" lon="15.108779247017218"><ele>448.0</ele><time>2026-04-26T07:05:12.967Z</time></trkpt><trkpt lat="37.924482062235455" lon="15.108692392120922"><ele>448.0</ele><time>2026-04-26T07:05:13.967Z</time></trkpt><trkpt lat="37.92458164218796" lon="15.10858863247986"><ele>448.0</ele><time>2026-04-26T07:05:14.967Z</time></trkpt><trkpt lat="37.924699278188996" lon="15.108515563146385"><ele>448.0</ele><time>2026-04-26T07:05:15.967Z</time></trkpt><trkpt lat="37.92483857698821" lon="15.108501983014996"><ele>448.0</ele><time>2026-04-26T07:05:16.967Z</time></trkpt><trkpt lat="37.924992136764935" lon="15.108550892138714"><ele>448.0</ele><time>2026-04-26T07:05:17.967Z</time></trkpt><trkpt lat="37.925154733509345" lon="15.108605430350865"><ele>450.6666666666667</ele><time>2026-04-26T07:05:18.967Z</time></trkpt><trkpt lat="37.92531886846911" lon="15.10862685287232"><ele>453.33333333333337</ele><time>2026-04-26T07:05:19.967Z</time></trkpt><trkpt lat="37.925496139017845" lon="15.108624601007785"><ele>456.0</ele><time>2026-04-26T07:05:20.967Z</time></trkpt><trkpt lat="37.92563771156943" lon="15.108570499986"><ele>456.0</ele><time>2026-04-26T07:05:21.967Z</time></trkpt><trkpt lat="37.92576343582047" lon="15.10858930466454"><ele>456.0</ele><time>2026-04-26T07:05:22.967Z</time></trkpt><trkpt lat="37.92585218779085" lon="15.108670658179221"><ele>456.0</ele><time>2026-04-26T07:05:23.967Z</time></trkpt><trkpt lat="37.92590570793614" lon="15.108783703279768"><ele>456.0</ele><time>2026-04-26T07:05:24.967Z</time></trkpt><trkpt lat="37.92592462120873" lon="15.108951406211581"><ele>448.33333333333337</ele><time>2026-04-26T07:05:25.967Z</time></trkpt><trkpt lat="37.925944018399264" lon="15.109123762837445"><ele>440.6666666666667</ele><time>2026-04-26T07:05:26.967Z</time></trkpt><trkpt lat="37.925965147216274" lon="15.109326494885948"><ele>433.0</ele><time>2026-04-26T07:05:27.967Z</time></trkpt><trkpt lat="37.92597929036434" lon="15.109520931295256"><ele>433.0</ele><time>2026-04-26T07:05:28.967Z</time></trkpt><trkpt lat="37.92601133798795" lon="15.109705488020857"><ele>433.0</ele><time>2026-04-26T07:05:29.967Z</time></trkpt><trkpt lat="37.92608904946367" lon="15.109843025795788"><ele>433.0</ele><time>2026-04-26T07:05:30.967Z</time></trkpt><trkpt lat="37.92621658173856" lon="15.109854770235668"><ele>433.0</ele><time>2026-04-26T07:05:31.967Z</time></trkpt><trkpt lat="37.926355448494874" lon="15.10986906886682"><ele>433.0</ele><time>2026-04-26T07:05:32.967Z</time></trkpt><trkpt lat="37.92653470324896" lon="15.109887606461271"><ele>433.0</ele><time>2026-04-26T07:05:33.967Z</time></trkpt><trkpt lat="37.92668648615795" lon="15.109933609207227"><ele>433.0</ele><time>2026-04-26T07:05:35.967Z</time></trkpt><trkpt lat="37.92684712563245" lon="15.109957985437033"><ele>435.6666666666667</ele><time>2026-04-26T07:05:36.967Z</time></trkpt><trkpt lat="37.927008338947275" lon="15.109983771371335"><ele>438.33333333333337</ele><time>2026-04-26T07:05:37.967Z</time></trkpt><trkpt lat="37.92717141898288" lon="15.11001061524483"><ele>441.0</ele><time>2026-04-26T07:05:38.967Z</time></trkpt><trkpt lat="37.92733899791622" lon="15.110038118229136"><ele>441.0</ele><time>2026-04-26T07:05:39.966Z</time></trkpt><trkpt lat="37.92750198906122" lon="15.110081075361155"><ele>441.0</ele><time>2026-04-26T07:05:40.966Z</time></trkpt><trkpt lat="37.927659144254136" lon="15.11013206714787"><ele>441.0</ele><time>2026-04-26T07:05:41.966Z</time></trkpt><trkpt lat="37.92782556330493" lon="15.110198644710122"><ele>439.66666666666663</ele><time>2026-04-26T07:05:42.966Z</time></trkpt><trkpt lat="37.927996502564724" lon="15.110272695202054"><ele>438.3333333333333</ele><time>2026-04-26T07:05:43.966Z</time></trkpt><trkpt lat="37.928171940440265" lon="15.110353871903861"><ele>437.0</ele><time>2026-04-26T07:05:44.966Z</time></trkpt><trkpt lat="37.92833865086302" lon="15.110418790364156"><ele>438.66666666666663</ele><time>2026-04-26T07:05:45.966Z</time></trkpt><trkpt lat="37.92849173654909" lon="15.110480780378156"><ele>440.33333333333337</ele><time>2026-04-26T07:05:46.966Z</time></trkpt><trkpt lat="37.92865069520715" lon="15.110550116135862"><ele>442.0</ele><time>2026-04-26T07:05:47.966Z</time></trkpt><trkpt lat="37.928801905071886" lon="15.110614311819008"><ele>442.0</ele><time>2026-04-26T07:05:48.966Z</time></trkpt><trkpt lat="37.92895223772105" lon="15.1106603166117"><ele>442.0</ele><time>2026-04-26T07:05:49.966Z</time></trkpt><trkpt lat="37.929102308462575" lon="15.110685671217276"><ele>442.0</ele><time>2026-04-26T07:05:50.966Z</time></trkpt><trkpt lat="37.929254624808046" lon="15.110664549265586"><ele>444.33333333333337</ele><time>2026-04-26T07:05:51.966Z</time></trkpt><trkpt lat="37.92938950742799" lon="15.11057970216836"><ele>446.66666666666663</ele><time>2026-04-26T07:05:52.966Z</time></trkpt><trkpt lat="37.929525281634994" lon="15.110473304936042"><ele>449.0</ele><time>2026-04-26T07:05:53.966Z</time></trkpt><trkpt lat="37.92965907723067" lon="15.110393521698605"><ele>449.0</ele><time>2026-04-26T07:05:54.966Z</time></trkpt><trkpt lat="37.92978832689495" lon="15.110320470851683"><ele>449.0</ele><time>2026-04-26T07:05:55.966Z</time></trkpt><trkpt lat="37.92991674426434" lon="15.110250502617424"><ele>449.0</ele><time>2026-04-26T07:05:56.966Z</time></trkpt><trkpt lat="37.93006081035847" lon="15.11023911946348"><ele>449.0</ele><time>2026-04-26T07:05:57.966Z</time></trkpt><trkpt lat="37.93020335288689" lon="15.110303998967984"><ele>450.66666666666663</ele><time>2026-04-26T07:05:58.966Z</time></trkpt><trkpt lat="37.93033665283006" lon="15.110419852882252"><ele>452.33333333333337</ele><time>2026-04-26T07:05:59.966Z</time></trkpt><trkpt lat="37.93043303984159" lon="15.110575489969264"><ele>454.0</ele><time>2026-04-26T07:06:00.966Z</time></trkpt><trkpt lat="37.93050864868392" lon="15.110750940909513"><ele>454.33333333333337</ele><time>2026-04-26T07:06:01.966Z</time></trkpt><trkpt lat="37.930595604149815" lon="15.110929008530277"><ele>454.66666666666663</ele><time>2026-04-26T07:06:02.966Z</time></trkpt><trkpt lat="37.930670500234044" lon="15.111169085427681"><ele>455.0</ele><time>2026-04-26T07:06:03.966Z</time></trkpt><trkpt lat="37.93074883504321" lon="15.111391196518031"><ele>456.0</ele><time>2026-04-26T07:06:04.966Z</time></trkpt><trkpt lat="37.930814834579905" lon="15.111575528316644"><ele>457.0</ele><time>2026-04-26T07:06:05.966Z</time></trkpt><trkpt lat="37.930892776620304" lon="15.11173467780387"><ele>458.0</ele><time>2026-04-26T07:06:06.966Z</time></trkpt><trkpt lat="37.930980932378255" lon="15.111864296236265"><ele>459.0</ele><time>2026-04-26T07:06:07.966Z</time></trkpt><trkpt lat="37.93107228575625" lon="15.111965016329513"><ele>459.0</ele><time>2026-04-26T07:06:08.966Z</time></trkpt><trkpt lat="37.93119158595509" lon="15.112028714542078"><ele>459.0</ele><time>2026-04-26T07:06:09.966Z</time></trkpt><trkpt lat="37.931346493795076" lon="15.112067929604498"><ele>459.0</ele><time>2026-04-26T07:06:10.966Z</time></trkpt><trkpt lat="37.93149236660518" lon="15.112078658004526"><ele>459.0</ele><time>2026-04-26T07:06:11.966Z</time></trkpt><trkpt lat="37.931630022493984" lon="15.112104060909939"><ele>462.25</ele><time>2026-04-26T07:06:12.966Z</time></trkpt><trkpt lat="37.9317553257985" lon="15.11214156798829"><ele>465.5</ele><time>2026-04-26T07:06:13.966Z</time></trkpt><trkpt lat="37.93186807006952" lon="15.112180444768521"><ele>468.75</ele><time>2026-04-26T07:06:14.966Z</time></trkpt><trkpt lat="37.93197500148372" lon="15.112196704154275"><ele>472.0</ele><time>2026-04-26T07:06:15.965Z</time></trkpt><trkpt lat="37.93207957649082" lon="15.112186393692202"><ele>472.0</ele><time>2026-04-26T07:06:16.965Z</time></trkpt><trkpt lat="37.93217418299963" lon="15.112151875896098"><ele>472.00000000000006</ele><time>2026-04-26T07:06:17.965Z</time></trkpt><trkpt lat="37.93226429248716" lon="15.112103052836305"><ele>472.00000000000006</ele><time>2026-04-26T07:06:18.965Z</time></trkpt><trkpt lat="37.93234149581799" lon="15.11206020182052"><ele>472.0</ele><time>2026-04-26T07:06:19.965Z</time></trkpt><trkpt lat="37.93242005401535" lon="15.112008586993397"><ele>472.0</ele><time>2026-04-26T07:06:20.965Z</time></trkpt><trkpt lat="37.932477683195934" lon="15.111925758969548"><ele>472.0</ele><time>2026-04-26T07:06:21.965Z</time></trkpt><trkpt lat="37.9325068385558" lon="15.111833305615006"><ele>472.0</ele><time>2026-04-26T07:06:22.965Z</time></trkpt><trkpt lat="37.93240741255168" lon="15.111542981869022"><ele>472.0</ele><time>2026-04-26T07:06:24.965Z</time></trkpt><trkpt lat="37.93238507509825" lon="15.111416371227797"><ele>472.0</ele><time>2026-04-26T07:06:25.965Z</time></trkpt><trkpt lat="37.93239185384734" lon="15.111306748259528"><ele>470.8</ele><time>2026-04-26T07:06:26.965Z</time></trkpt><trkpt lat="37.9324218861322" lon="15.111193607596203"><ele>469.6</ele><time>2026-04-26T07:06:27.965Z</time></trkpt><trkpt lat="37.932463276584556" lon="15.111088093321909"><ele>468.40000000000003</ele><time>2026-04-26T07:06:28.965Z</time></trkpt><trkpt lat="37.932541718530615" lon="15.111014298148199"><ele>467.20000000000005</ele><time>2026-04-26T07:06:29.965Z</time></trkpt><trkpt lat="37.9326073140838" lon="15.11094017834477"><ele>466.0</ele><time>2026-04-26T07:06:30.965Z</time></trkpt><trkpt lat="37.9326984489288" lon="15.110929642371772"><ele>466.0</ele><time>2026-04-26T07:06:31.965Z</time></trkpt><trkpt lat="37.93279812166129" lon="15.110898467761206"><ele>466.0</ele><time>2026-04-26T07:06:32.965Z</time></trkpt><trkpt lat="37.932893665689974" lon="15.110960314452312"><ele>466.0</ele><time>2026-04-26T07:06:33.965Z</time></trkpt><trkpt lat="37.93298172550829" lon="15.110991879785466"><ele>466.0</ele><time>2026-04-26T07:06:34.965Z</time></trkpt><trkpt lat="37.93306047577148" lon="15.111001017757564"><ele>466.0</ele><time>2026-04-26T07:06:35.965Z</time></trkpt><trkpt lat="37.933139996006304" lon="15.11101172256779"><ele>466.0</ele><time>2026-04-26T07:06:36.965Z</time></trkpt><trkpt lat="37.933217808923416" lon="15.110998013186354"><ele>466.0</ele><time>2026-04-26T07:06:37.965Z</time></trkpt><trkpt lat="37.933288972159545" lon="15.110964940116675"><ele>466.0</ele><time>2026-04-26T07:06:38.965Z</time></trkpt><trkpt lat="37.933333372671115" lon="15.110846875074209"><ele>466.0</ele><time>2026-04-26T07:06:39.965Z</time></trkpt><trkpt lat="37.933412476277056" lon="15.110710137027969"><ele>466.0</ele><time>2026-04-26T07:06:40.965Z</time></trkpt><trkpt lat="37.9335256467797" lon="15.110538259934147"><ele>467.25</ele><time>2026-04-26T07:06:41.965Z</time></trkpt><trkpt lat="37.93361564068661" lon="15.110359981966917"><ele>468.5</ele><time>2026-04-26T07:06:42.965Z</time></trkpt><trkpt lat="37.93370853038646" lon="15.11021702513413"><ele>469.75</ele><time>2026-04-26T07:06:43.965Z</time></trkpt><trkpt lat="37.933814790422545" lon="15.110145989675614"><ele>471.0</ele><time>2026-04-26T07:06:44.965Z</time></trkpt><trkpt lat="37.933946795801646" lon="15.11017941109025"><ele>471.0</ele><time>2026-04-26T07:06:45.965Z</time></trkpt><trkpt lat="37.93413015839781" lon="15.110237934609254"><ele>471.0</ele><time>2026-04-26T07:06:46.965Z</time></trkpt><trkpt lat="37.934330130405634" lon="15.110305157710096"><ele>471.0</ele><time>2026-04-26T07:06:47.965Z</time></trkpt><trkpt lat="37.93455462439534" lon="15.110356510560292"><ele>480.0</ele><time>2026-04-26T07:06:48.965Z</time></trkpt><trkpt lat="37.934803729035075" lon="15.110437302243595"><ele>489.0</ele><time>2026-04-26T07:06:49.965Z</time></trkpt><trkpt lat="37.935045062008314" lon="15.11051494188956"><ele>493.33333333333337</ele><time>2026-04-26T07:06:50.965Z</time></trkpt><trkpt lat="37.93525356114627" lon="15.110589744918101"><ele>497.6666666666667</ele><time>2026-04-26T07:06:51.964Z</time></trkpt><trkpt lat="37.93543743121183" lon="15.110648138781965"><ele>502.0</ele><time>2026-04-26T07:06:52.964Z</time></trkpt><trkpt lat="37.93561290792545" lon="15.110694022547685"><ele>502.0</ele><time>2026-04-26T07:06:53.964Z</time></trkpt><trkpt lat="37.93577730412161" lon="15.110710186699613"><ele>502.0</ele><time>2026-04-26T07:06:54.964Z</time></trkpt><trkpt lat="37.93595437238666" lon="15.110711334466883"><ele>502.0</ele><time>2026-04-26T07:06:55.964Z</time></trkpt><trkpt lat="37.93611568623285" lon="15.110659847551936"><ele>496.5</ele><time>2026-04-26T07:06:56.964Z</time></trkpt><trkpt lat="37.936232148197" lon="15.110608556279965"><ele>491.0</ele><time>2026-04-26T07:06:57.964Z</time></trkpt><trkpt lat="37.93634518860505" lon="15.110603903656477"><ele>485.5</ele><time>2026-04-26T07:06:58.964Z</time></trkpt><trkpt lat="37.93642718171254" lon="15.110760964761095"><ele>480.0</ele><time>2026-04-26T07:06:59.964Z</time></trkpt><trkpt lat="37.93654359586369" lon="15.110910117910178"><ele>478.66666666666663</ele><time>2026-04-26T07:07:00.964Z</time></trkpt><trkpt lat="37.93668643179222" lon="15.111067042036074"><ele>477.3333333333333</ele><time>2026-04-26T07:07:01.964Z</time></trkpt><trkpt lat="37.936790237514124" lon="15.111237643579054"><ele>476.0</ele><time>2026-04-26T07:07:02.964Z</time></trkpt><trkpt lat="37.93689573273188" lon="15.11135920400139"><ele>478.25</ele><time>2026-04-26T07:07:03.967Z</time></trkpt><trkpt lat="37.93701263451734" lon="15.111423314942709"><ele>480.5</ele><time>2026-04-26T07:07:04.967Z</time></trkpt><trkpt lat="37.93715000498013" lon="15.111445091606253"><ele>482.75</ele><time>2026-04-26T07:07:05.967Z</time></trkpt><trkpt lat="37.93726748761242" lon="15.111344693450867"><ele>485.0</ele><time>2026-04-26T07:07:06.966Z</time></trkpt><trkpt lat="37.93738480510241" lon="15.111183329041912"><ele>485.0</ele><time>2026-04-26T07:07:07.967Z</time></trkpt><trkpt lat="37.93751112385963" lon="15.11102702219753"><ele>485.0</ele><time>2026-04-26T07:07:08.967Z</time></trkpt><trkpt lat="37.937678196014566" lon="15.110831751364806"><ele>485.0</ele><time>2026-04-26T07:07:09.966Z</time></trkpt><trkpt lat="37.93782287151224" lon="15.11060204804416"><ele>490.5</ele><time>2026-04-26T07:07:10.966Z</time></trkpt><trkpt lat="37.93797558702483" lon="15.110368147514642"><ele>496.0</ele><time>2026-04-26T07:07:11.966Z</time></trkpt><trkpt lat="37.938132577315386" lon="15.110123236038811"><ele>492.0</ele><time>2026-04-26T07:07:12.966Z</time></trkpt><trkpt lat="37.93828754643646" lon="15.109835092172228"><ele>488.0</ele><time>2026-04-26T07:07:13.967Z</time></trkpt><trkpt lat="37.93843602413925" lon="15.109530925980174"><ele>495.0</ele><time>2026-04-26T07:07:14.967Z</time></trkpt><trkpt lat="37.93856715737745" lon="15.109188965010613"><ele>502.0</ele><time>2026-04-26T07:07:15.966Z</time></trkpt><trkpt lat="37.93868336979223" lon="15.108883314129018"><ele>502.0</ele><time>2026-04-26T07:07:16.967Z</time></trkpt><trkpt lat="37.9387974544099" lon="15.108624366909396"><ele>502.0</ele><time>2026-04-26T07:07:17.967Z</time></trkpt><trkpt lat="37.938908173379915" lon="15.108391771232705"><ele>502.0</ele><time>2026-04-26T07:07:18.967Z</time></trkpt><trkpt lat="37.93900999364874" lon="15.10817384612433"><ele>499.6666666666667</ele><time>2026-04-26T07:07:19.967Z</time></trkpt><trkpt lat="37.93910703999568" lon="15.107953226417704"><ele>497.33333333333337</ele><time>2026-04-26T07:07:20.967Z</time></trkpt><trkpt lat="37.93920571690607" lon="15.107732347004914"><ele>495.0</ele><time>2026-04-26T07:07:21.966Z</time></trkpt><trkpt lat="37.939313852228175" lon="15.1075351984416"><ele>498.0</ele><time>2026-04-26T07:07:22.966Z</time></trkpt><trkpt lat="37.93942759189994" lon="15.107344908144722"><ele>501.0</ele><time>2026-04-26T07:07:23.966Z</time></trkpt><trkpt lat="37.93955439644586" lon="15.107155366458013"><ele>504.0</ele><time>2026-04-26T07:07:24.966Z</time></trkpt><trkpt lat="37.939681396195546" lon="15.1069624934188"><ele>504.0</ele><time>2026-04-26T07:07:25.966Z</time></trkpt><trkpt lat="37.939822126298836" lon="15.106767981365183"><ele>504.0</ele><time>2026-04-26T07:07:26.966Z</time></trkpt><trkpt lat="37.93997585141088" lon="15.106578974280765"><ele>504.0</ele><time>2026-04-26T07:07:27.966Z</time></trkpt><trkpt lat="37.94014230875676" lon="15.106408671000072"><ele>506.33333333333337</ele><time>2026-04-26T07:07:28.966Z</time></trkpt><trkpt lat="37.940308008426456" lon="15.106244739832015"><ele>508.6666666666667</ele><time>2026-04-26T07:07:29.966Z</time></trkpt><trkpt lat="37.94046201812288" lon="15.106097521790806"><ele>511.0</ele><time>2026-04-26T07:07:30.966Z</time></trkpt><trkpt lat="37.94059367582636" lon="15.105964025523054"><ele>511.0</ele><time>2026-04-26T07:07:31.966Z</time></trkpt><trkpt lat="37.94070982837924" lon="15.105821957892893"><ele>511.0</ele><time>2026-04-26T07:07:32.966Z</time></trkpt><trkpt lat="37.94079954553045" lon="15.105652225760593"><ele>511.0</ele><time>2026-04-26T07:07:33.966Z</time></trkpt><trkpt lat="37.94084020389609" lon="15.105430267196056"><ele>510.75</ele><time>2026-04-26T07:07:34.966Z</time></trkpt><trkpt lat="37.94087823811378" lon="15.105207684526587"><ele>510.5</ele><time>2026-04-26T07:07:35.966Z</time></trkpt><trkpt lat="37.940937502409966" lon="15.105032229597256"><ele>510.25</ele><time>2026-04-26T07:07:36.966Z</time></trkpt><trkpt lat="37.940996170936906" lon="15.104900911001785"><ele>510.0</ele><time>2026-04-26T07:07:37.966Z</time></trkpt><trkpt lat="37.94105818792311" lon="15.104827362806827"><ele>512.8</ele><time>2026-04-26T07:07:38.966Z</time></trkpt><trkpt lat="37.94112966807959" lon="15.104808800066987"><ele>515.6</ele><time>2026-04-26T07:07:39.966Z</time></trkpt><trkpt lat="37.941231968970314" lon="15.1049055802042"><ele>518.4</ele><time>2026-04-26T07:07:40.966Z</time></trkpt><trkpt lat="37.941285414520166" lon="15.105033657015372"><ele>521.2</ele><time>2026-04-26T07:07:41.966Z</time></trkpt><trkpt lat="37.94126965131773" lon="15.105182431316273"><ele>524.0</ele><time>2026-04-26T07:07:42.966Z</time></trkpt><trkpt lat="37.94116619508899" lon="15.10531765990277"><ele>527.0</ele><time>2026-04-26T07:07:43.966Z</time></trkpt><trkpt lat="37.94109837709419" lon="15.105514613186577"><ele>530.0</ele><time>2026-04-26T07:07:44.966Z</time></trkpt><trkpt lat="37.94106391319134" lon="15.105733843081836"><ele>533.0</ele><time>2026-04-26T07:07:45.966Z</time></trkpt><trkpt lat="37.94106292668531" lon="15.105967840823126"><ele>533.0</ele><time>2026-04-26T07:07:46.966Z</time></trkpt><trkpt lat="37.94108456194578" lon="15.106168654045025"><ele>533.0</ele><time>2026-04-26T07:07:47.966Z</time></trkpt><trkpt lat="37.941047736518186" lon="15.106342004541675"><ele>533.0</ele><time>2026-04-26T07:07:48.966Z</time></trkpt><trkpt lat="37.94089636303365" lon="15.106437833540715"><ele>528.6666666666666</ele><time>2026-04-26T07:07:49.966Z</time></trkpt><trkpt lat="37.940814111739584" lon="15.106643010147112"><ele>524.3333333333334</ele><time>2026-04-26T07:07:50.966Z</time></trkpt><trkpt lat="37.94074114733943" lon="15.106864893388622"><ele>520.0</ele><time>2026-04-26T07:07:51.966Z</time></trkpt><trkpt lat="37.94071237541381" lon="15.10713644605509"><ele>520.0</ele><time>2026-04-26T07:07:52.966Z</time></trkpt><trkpt lat="37.94069742924612" lon="15.107406280541117"><ele>520.0</ele><time>2026-04-26T07:07:53.966Z</time></trkpt><trkpt lat="37.94068545228915" lon="15.107636515158308"><ele>520.0</ele><time>2026-04-26T07:07:54.966Z</time></trkpt><trkpt lat="37.9406923621545" lon="15.107852684693883"><ele>523.3333333333334</ele><time>2026-04-26T07:07:55.966Z</time></trkpt><trkpt lat="37.94076746040536" lon="15.108103419131064"><ele>526.6666666666666</ele><time>2026-04-26T07:07:56.965Z</time></trkpt><trkpt lat="37.94089998628299" lon="15.108338349145058"><ele>530.0</ele><time>2026-04-26T07:07:57.965Z</time></trkpt><trkpt lat="37.94105115310721" lon="15.108503163090592"><ele>535.8</ele><time>2026-04-26T07:07:58.965Z</time></trkpt><trkpt lat="37.94114147619084" lon="15.108647625059804"><ele>541.6</ele><time>2026-04-26T07:07:59.965Z</time></trkpt><trkpt lat="37.94118027565387" lon="15.108749459999421"><ele>547.4</ele><time>2026-04-26T07:08:00.965Z</time></trkpt><trkpt lat="37.94120509569932" lon="15.108829984435484"><ele>553.2</ele><time>2026-04-26T07:08:01.965Z</time></trkpt><trkpt lat="37.94110229734231" lon="15.108879909470776"><ele>559.0</ele><time>2026-04-26T07:08:02.965Z</time></trkpt><trkpt lat="37.94100522573814" lon="15.108903857431907"><ele>552.25</ele><time>2026-04-26T07:08:03.965Z</time></trkpt><trkpt lat="37.94085695713282" lon="15.108818590156849"><ele>545.5</ele><time>2026-04-26T07:08:04.965Z</time></trkpt><trkpt lat="37.94072719475086" lon="15.108792613010484"><ele>538.75</ele><time>2026-04-26T07:08:05.965Z</time></trkpt><trkpt lat="37.94065479132896" lon="15.108638784522821"><ele>532.0</ele><time>2026-04-26T07:08:06.965Z</time></trkpt><trkpt lat="37.94053140040674" lon="15.108579884807726"><ele>532.0</ele><time>2026-04-26T07:08:07.965Z</time></trkpt><trkpt lat="37.94037585616429" lon="15.108602714171788"><ele>532.0</ele><time>2026-04-26T07:08:08.965Z</time></trkpt><trkpt lat="37.94021376645687" lon="15.108612784373049"><ele>532.0</ele><time>2026-04-26T07:08:09.965Z</time></trkpt><trkpt lat="37.940089582936274" lon="15.108613384139678"><ele>532.0</ele><time>2026-04-26T07:08:10.965Z</time></trkpt><trkpt lat="37.93999053337715" lon="15.108725977960123"><ele>534.0</ele><time>2026-04-26T07:08:11.965Z</time></trkpt><trkpt lat="37.93990981061095" lon="15.108852291837165"><ele>536.0</ele><time>2026-04-26T07:08:12.965Z</time></trkpt><trkpt lat="37.939897206410386" lon="15.10902413172309"><ele>538.0</ele><time>2026-04-26T07:08:13.965Z</time></trkpt><trkpt lat="37.94001550170886" lon="15.109223167195502"><ele>538.0</ele><time>2026-04-26T07:08:14.965Z</time></trkpt><trkpt lat="37.940003065980314" lon="15.10938741433437"><ele>538.0</ele><time>2026-04-26T07:08:15.965Z</time></trkpt><trkpt lat="37.94001702282665" lon="15.10954057029332"><ele>538.0</ele><time>2026-04-26T07:08:16.965Z</time></trkpt><trkpt lat="37.93993678001465" lon="15.109687824320723"><ele>538.0</ele><time>2026-04-26T07:08:17.965Z</time></trkpt><trkpt lat="37.93984513003706" lon="15.109897980040428"><ele>542.3333333333334</ele><time>2026-04-26T07:08:18.965Z</time></trkpt><trkpt lat="37.93974985642012" lon="15.110106006016602"><ele>546.6666666666666</ele><time>2026-04-26T07:08:19.965Z</time></trkpt><trkpt lat="37.939716908548" lon="15.11033392492099"><ele>551.0</ele><time>2026-04-26T07:08:20.965Z</time></trkpt><trkpt lat="37.93970782721398" lon="15.11058561592938"><ele>557.0</ele><time>2026-04-26T07:08:21.965Z</time></trkpt><trkpt lat="37.93965225135925" lon="15.110801772540032"><ele>563.0</ele><time>2026-04-26T07:08:22.965Z</time></trkpt><trkpt lat="37.93954486973758" lon="15.111027319425549"><ele>569.0</ele><time>2026-04-26T07:08:23.965Z</time></trkpt><trkpt lat="37.939441927598786" lon="15.111244821584217"><ele>569.0</ele><time>2026-04-26T07:08:24.965Z</time></trkpt><trkpt lat="37.939348888470015" lon="15.111424066059177"><ele>569.0</ele><time>2026-04-26T07:08:25.965Z</time></trkpt><trkpt lat="37.93924141498605" lon="15.111542423482556"><ele>569.0</ele><time>2026-04-26T07:08:26.965Z</time></trkpt><trkpt lat="37.939132820023104" lon="15.111597037130627"><ele>569.0</ele><time>2026-04-26T07:08:27.965Z</time></trkpt><trkpt lat="37.939012714178844" lon="15.111626938904324"><ele>565.8</ele><time>2026-04-26T07:08:28.965Z</time></trkpt><trkpt lat="37.938931215920235" lon="15.111712751119978"><ele>562.5999999999999</ele><time>2026-04-26T07:08:29.965Z</time></trkpt><trkpt lat="37.938859216330066" lon="15.111806347665006"><ele>559.4</ele><time>2026-04-26T07:08:30.965Z</time></trkpt><trkpt lat="37.93884837835786" lon="15.111923821524798"><ele>556.1999999999999</ele><time>2026-04-26T07:08:31.965Z</time></trkpt><trkpt lat="37.938888424468374" lon="15.11201262863312"><ele>553.0</ele><time>2026-04-26T07:08:32.964Z</time></trkpt><trkpt lat="37.93897406499853" lon="15.112017583266347"><ele>563.3333333333334</ele><time>2026-04-26T07:08:33.964Z</time></trkpt><trkpt lat="37.93922155096861" lon="15.111923299821495"><ele>573.6666666666666</ele><time>2026-04-26T07:08:34.964Z</time></trkpt><trkpt lat="37.939345595828605" lon="15.111775219418352"><ele>584.0</ele><time>2026-04-26T07:08:35.964Z</time></trkpt><trkpt lat="37.93947146346243" lon="15.111609877863904"><ele>579.0</ele><time>2026-04-26T07:08:36.964Z</time></trkpt><trkpt lat="37.93959437167342" lon="15.111429405019209"><ele>574.0</ele><time>2026-04-26T07:08:37.964Z</time></trkpt><trkpt lat="37.939706400097165" lon="15.111248483975292"><ele>569.0</ele><time>2026-04-26T07:08:38.964Z</time></trkpt><trkpt lat="37.93979840146074" lon="15.11105926498924"><ele>569.0</ele><time>2026-04-26T07:08:39.964Z</time></trkpt><trkpt lat="37.93990922984218" lon="15.110897895745643"><ele>569.0</ele><time>2026-04-26T07:08:40.964Z</time></trkpt><trkpt lat="37.939985750628395" lon="15.110734729514817"><ele>569.0</ele><time>2026-04-26T07:08:41.964Z</time></trkpt><trkpt lat="37.94004877394356" lon="15.11056356741568"><ele>569.6666666666666</ele><time>2026-04-26T07:08:42.964Z</time></trkpt><trkpt lat="37.9401532017138" lon="15.110445655410594"><ele>570.3333333333334</ele><time>2026-04-26T07:08:43.964Z</time></trkpt><trkpt lat="37.94027619950421" lon="15.110350149398423"><ele>571.0</ele><time>2026-04-26T07:08:44.964Z</time></trkpt><trkpt lat="37.94042830719669" lon="15.11025341142856"><ele>571.0</ele><time>2026-04-26T07:08:45.964Z</time></trkpt><trkpt lat="37.940596761182995" lon="15.110172108309007"><ele>571.0</ele><time>2026-04-26T07:08:46.964Z</time></trkpt><trkpt lat="37.94074490936065" lon="15.110106287066943"><ele>571.0</ele><time>2026-04-26T07:08:47.964Z</time></trkpt><trkpt lat="37.94085818579328" lon="15.110059013768486"><ele>571.0</ele><time>2026-04-26T07:08:48.964Z</time></trkpt><trkpt lat="37.94093717225797" lon="15.110042058279541"><ele>571.0</ele><time>2026-04-26T07:08:49.964Z</time></trkpt><trkpt lat="37.94101934369359" lon="15.110147282828997"><ele>571.0</ele><time>2026-04-26T07:08:51.964Z</time></trkpt><trkpt lat="37.94100009477462" lon="15.11026903298726"><ele>571.0</ele><time>2026-04-26T07:08:52.964Z</time></trkpt><trkpt lat="37.940949821355545" lon="15.110340069873658"><ele>571.0</ele><time>2026-04-26T07:08:53.964Z</time></trkpt><trkpt lat="37.94082413178701" lon="15.110364795725463"><ele>571.0</ele><time>2026-04-26T07:08:54.964Z</time></trkpt><trkpt lat="37.9407067511732" lon="15.110338795966873"><ele>571.0</ele><time>2026-04-26T07:08:55.964Z</time></trkpt><trkpt lat="37.940587912960005" lon="15.110369721282696"><ele>571.0</ele><time>2026-04-26T07:08:56.964Z</time></trkpt><trkpt lat="37.940453750987956" lon="15.110429640877763"><ele>571.0</ele><time>2026-04-26T07:08:57.964Z</time></trkpt><trkpt lat="37.9403237978343" lon="15.110522483567191"><ele>571.0</ele><time>2026-04-26T07:08:58.964Z</time></trkpt><trkpt lat="37.94021298719968" lon="15.110647343239888"><ele>571.0</ele><time>2026-04-26T07:08:59.964Z</time></trkpt><trkpt lat="37.940122975063446" lon="15.110809354344624"><ele>571.0</ele><time>2026-04-26T07:09:00.964Z</time></trkpt><trkpt lat="37.940066194509576" lon="15.111002948624387"><ele>570.3333333333334</ele><time>2026-04-26T07:09:01.964Z</time></trkpt><trkpt lat="37.94005326799924" lon="15.111246175108203"><ele>569.6666666666666</ele><time>2026-04-26T07:09:02.964Z</time></trkpt><trkpt lat="37.940028949963036" lon="15.111469144582445"><ele>569.0</ele><time>2026-04-26T07:09:03.964Z</time></trkpt><trkpt lat="37.93994387700579" lon="15.111646213970282"><ele>574.0</ele><time>2026-04-26T07:09:04.964Z</time></trkpt><trkpt lat="37.93984281497153" lon="15.111809278819985"><ele>579.0</ele><time>2026-04-26T07:09:05.964Z</time></trkpt><trkpt lat="37.93974960906467" lon="15.111984684519134"><ele>584.0</ele><time>2026-04-26T07:09:06.964Z</time></trkpt><trkpt lat="37.9396480892886" lon="15.11213621201802"><ele>584.0</ele><time>2026-04-26T07:09:07.964Z</time></trkpt><trkpt lat="37.939566872516764" lon="15.112280066095545"><ele>584.0</ele><time>2026-04-26T07:09:08.963Z</time></trkpt><trkpt lat="37.93951179173356" lon="15.112419209874497"><ele>584.0</ele><time>2026-04-26T07:09:09.966Z</time></trkpt><trkpt lat="37.93951004817302" lon="15.112578856775036"><ele>584.0</ele><time>2026-04-26T07:09:10.966Z</time></trkpt><trkpt lat="37.93956347603363" lon="15.112749867517984"><ele>588.6666666666666</ele><time>2026-04-26T07:09:11.966Z</time></trkpt><trkpt lat="37.93967292544359" lon="15.11289791884861"><ele>593.3333333333334</ele><time>2026-04-26T07:09:12.966Z</time></trkpt><trkpt lat="37.939813191537255" lon="15.1130199974433"><ele>598.0</ele><time>2026-04-26T07:09:13.966Z</time></trkpt><trkpt lat="37.93991077437735" lon="15.113170626446282"><ele>594.0</ele><time>2026-04-26T07:09:14.966Z</time></trkpt><trkpt lat="37.93996360854103" lon="15.113369753169243"><ele>590.0</ele><time>2026-04-26T07:09:15.965Z</time></trkpt><trkpt lat="37.94004885662479" lon="15.113551601719939"><ele>586.0</ele><time>2026-04-26T07:09:16.966Z</time></trkpt><trkpt lat="37.94014694879132" lon="15.113738969073733"><ele>596.0</ele><time>2026-04-26T07:09:17.966Z</time></trkpt><trkpt lat="37.94028928729365" lon="15.113905910721103"><ele>606.0</ele><time>2026-04-26T07:09:18.966Z</time></trkpt><trkpt lat="37.940409549516126" lon="15.114097535171446"><ele>616.0</ele><time>2026-04-26T07:09:19.966Z</time></trkpt><trkpt lat="37.94047503259496" lon="15.1143382736059"><ele>616.0</ele><time>2026-04-26T07:09:20.966Z</time></trkpt><trkpt lat="37.94057501453264" lon="15.114588569959098"><ele>616.0</ele><time>2026-04-26T07:09:21.966Z</time></trkpt><trkpt lat="37.94064481067795" lon="15.11483813694165"><ele>616.0</ele><time>2026-04-26T07:09:22.966Z</time></trkpt><trkpt lat="37.940705656983035" lon="15.11504663140662"><ele>613.0</ele><time>2026-04-26T07:09:23.966Z</time></trkpt><trkpt lat="37.940762882302764" lon="15.115238085352953"><ele>610.0</ele><time>2026-04-26T07:09:24.966Z</time></trkpt><trkpt lat="37.94081452554351" lon="15.115405717463489"><ele>607.0</ele><time>2026-04-26T07:09:25.966Z</time></trkpt><trkpt lat="37.940878635412794" lon="15.115550914342606"><ele>604.0</ele><time>2026-04-26T07:09:26.966Z</time></trkpt><trkpt lat="37.94096079901508" lon="15.115658793136472"><ele>604.25</ele><time>2026-04-26T07:09:27.966Z</time></trkpt><trkpt lat="37.941062710137686" lon="15.11573055057691"><ele>604.5</ele><time>2026-04-26T07:09:28.966Z</time></trkpt><trkpt lat="37.94122232301037" lon="15.115761551921262"><ele>604.75</ele><time>2026-04-26T07:09:29.966Z</time></trkpt><trkpt lat="37.941363927161625" lon="15.115799325028265"><ele>605.0</ele><time>2026-04-26T07:09:30.966Z</time></trkpt><trkpt lat="37.941503918886696" lon="15.11581081582915"><ele>605.0</ele><time>2026-04-26T07:09:31.966Z</time></trkpt><trkpt lat="37.94164575059569" lon="15.115775352590038"><ele>605.0</ele><time>2026-04-26T07:09:32.966Z</time></trkpt><trkpt lat="37.94179720235549" lon="15.115700412084337"><ele>605.0</ele><time>2026-04-26T07:09:33.966Z</time></trkpt><trkpt lat="37.94195109624831" lon="15.115692944036436"><ele>607.25</ele><time>2026-04-26T07:09:34.966Z</time></trkpt><trkpt lat="37.94210890544641" lon="15.11570686922881"><ele>609.5</ele><time>2026-04-26T07:09:35.965Z</time></trkpt><trkpt lat="37.94222806065194" lon="15.115776033597463"><ele>611.75</ele><time>2026-04-26T07:09:36.965Z</time></trkpt><trkpt lat="37.94232411888129" lon="15.115882904143184"><ele>614.0</ele><time>2026-04-26T07:09:37.965Z</time></trkpt><trkpt lat="37.94242988267302" lon="15.115993148089798"><ele>618.6666666666666</ele><time>2026-04-26T07:09:38.965Z</time></trkpt><trkpt lat="37.94259714881351" lon="15.116032095388064"><ele>623.3333333333334</ele><time>2026-04-26T07:09:39.965Z</time></trkpt><trkpt lat="37.94277350827877" lon="15.116065532190682"><ele>628.0</ele><time>2026-04-26T07:09:40.965Z</time></trkpt><trkpt lat="37.94295830074268" lon="15.116037046395283"><ele>628.0</ele><time>2026-04-26T07:09:41.965Z</time></trkpt><trkpt lat="37.94312246053984" lon="15.115963078584565"><ele>628.0</ele><time>2026-04-26T07:09:42.965Z</time></trkpt><trkpt lat="37.943288575333774" lon="15.115967844022528"><ele>628.0</ele><time>2026-04-26T07:09:43.965Z</time></trkpt><trkpt lat="37.94345362047089" lon="15.11601287462439"><ele>635.0</ele><time>2026-04-26T07:09:44.965Z</time></trkpt><trkpt lat="37.943637730586985" lon="15.11609034100299"><ele>642.0</ele><time>2026-04-26T07:09:45.965Z</time></trkpt><trkpt lat="37.943802943305734" lon="15.116172191590564"><ele>649.0</ele><time>2026-04-26T07:09:46.965Z</time></trkpt><trkpt lat="37.94394322456565" lon="15.116304467274066"><ele>649.0</ele><time>2026-04-26T07:09:47.965Z</time></trkpt><trkpt lat="37.944078501667455" lon="15.116445677582083"><ele>649.0</ele><time>2026-04-26T07:09:48.965Z</time></trkpt><trkpt lat="37.94423167688399" lon="15.11654280434927"><ele>649.0</ele><time>2026-04-26T07:09:49.965Z</time></trkpt><trkpt lat="37.94436466321341" lon="15.116598476559622"><ele>648.6</ele><time>2026-04-26T07:09:50.965Z</time></trkpt><trkpt lat="37.94447184205396" lon="15.116650457461382"><ele>648.2</ele><time>2026-04-26T07:09:51.965Z</time></trkpt><trkpt lat="37.94455083710625" lon="15.116722723545976"><ele>647.8000000000001</ele><time>2026-04-26T07:09:52.965Z</time></trkpt><trkpt lat="37.94460087157462" lon="15.116823967212444"><ele>647.4000000000001</ele><time>2026-04-26T07:09:53.965Z</time></trkpt><trkpt lat="37.9445714552156" lon="15.116985117674673"><ele>647.0</ele><time>2026-04-26T07:09:54.965Z</time></trkpt><trkpt lat="37.944514922372115" lon="15.117142427801825"><ele>647.0</ele><time>2026-04-26T07:09:55.965Z</time></trkpt><trkpt lat="37.944378498324525" lon="15.117303421523287"><ele>647.0</ele><time>2026-04-26T07:09:56.965Z</time></trkpt><trkpt lat="37.94421448263902" lon="15.117443456852762"><ele>647.0</ele><time>2026-04-26T07:09:57.965Z</time></trkpt><trkpt lat="37.944037790838344" lon="15.117586596218915"><ele>640.0</ele><time>2026-04-26T07:09:58.965Z</time></trkpt><trkpt lat="37.94386293119824" lon="15.117751395876283"><ele>633.0</ele><time>2026-04-26T07:09:59.965Z</time></trkpt><trkpt lat="37.943716688415854" lon="15.117885180045768"><ele>626.0</ele><time>2026-04-26T07:10:00.965Z</time></trkpt><trkpt lat="37.9435722098948" lon="15.11800962221625"><ele>626.0</ele><time>2026-04-26T07:10:01.965Z</time></trkpt><trkpt lat="37.9434333783767" lon="15.118120852905616"><ele>626.0</ele><time>2026-04-26T07:10:02.965Z</time></trkpt><trkpt lat="37.943316922583094" lon="15.118223299833488"><ele>626.0</ele><time>2026-04-26T07:10:03.965Z</time></trkpt><trkpt lat="37.94322922437934" lon="15.118321846011636"><ele>626.0</ele><time>2026-04-26T07:10:04.965Z</time></trkpt><trkpt lat="37.94318994277035" lon="15.118446146715574"><ele>625.2</ele><time>2026-04-26T07:10:05.965Z</time></trkpt><trkpt lat="37.943190623950315" lon="15.118576480106421"><ele>624.4000000000001</ele><time>2026-04-26T07:10:06.965Z</time></trkpt><trkpt lat="37.94323337717272" lon="15.118709632811521"><ele>623.6</ele><time>2026-04-26T07:10:07.965Z</time></trkpt><trkpt lat="37.943318181722155" lon="15.118801522048798"><ele>622.8000000000001</ele><time>2026-04-26T07:10:08.965Z</time></trkpt><trkpt lat="37.94342906993968" lon="15.118811637923605"><ele>622.0</ele><time>2026-04-26T07:10:09.965Z</time></trkpt><trkpt lat="37.94356838900616" lon="15.118801673069989"><ele>630.6666666666667</ele><time>2026-04-26T07:10:10.965Z</time></trkpt><trkpt lat="37.943721735851234" lon="15.118820149481886"><ele>639.3333333333334</ele><time>2026-04-26T07:10:11.964Z</time></trkpt><trkpt lat="37.94383992143905" lon="15.118951629513788"><ele>648.0</ele><time>2026-04-26T07:10:12.964Z</time></trkpt><trkpt lat="37.9439604993687" lon="15.119108504579211"><ele>648.0</ele><time>2026-04-26T07:10:13.964Z</time></trkpt><trkpt lat="37.94408801938032" lon="15.119200835589323"><ele>648.0</ele><time>2026-04-26T07:10:14.964Z</time></trkpt><trkpt lat="37.94422062616383" lon="15.119240599434377"><ele>648.0</ele><time>2026-04-26T07:10:15.964Z</time></trkpt><trkpt lat="37.944351392841014" lon="15.11926460104737"><ele>648.0</ele><time>2026-04-26T07:10:16.964Z</time></trkpt><trkpt lat="37.94446617311467" lon="15.11924868086427"><ele>653.5999999999999</ele><time>2026-04-26T07:10:17.964Z</time></trkpt><trkpt lat="37.94455271720416" lon="15.119269875228767"><ele>659.1999999999999</ele><time>2026-04-26T07:10:18.964Z</time></trkpt><trkpt lat="37.944591169069945" lon="15.119351763861854"><ele>664.8</ele><time>2026-04-26T07:10:19.964Z</time></trkpt><trkpt lat="37.944564663543495" lon="15.11945526266874"><ele>670.4</ele><time>2026-04-26T07:10:20.964Z</time></trkpt><trkpt lat="37.94443448907469" lon="15.119587970331645"><ele>676.0</ele><time>2026-04-26T07:10:21.964Z</time></trkpt><trkpt lat="37.94429455459371" lon="15.119693592803259"><ele>666.6666666666667</ele><time>2026-04-26T07:10:22.964Z</time></trkpt><trkpt lat="37.94409982060483" lon="15.119715061848114"><ele>657.3333333333334</ele><time>2026-04-26T07:10:23.964Z</time></trkpt><trkpt lat="37.943904737354494" lon="15.119708093066727"><ele>648.0</ele><time>2026-04-26T07:10:24.964Z</time></trkpt><trkpt lat="37.943709173724606" lon="15.119745018705222"><ele>648.0</ele><time>2026-04-26T07:10:25.964Z</time></trkpt><trkpt lat="37.94351054136605" lon="15.119797516954797"><ele>648.0</ele><time>2026-04-26T07:10:26.964Z</time></trkpt><trkpt lat="37.943295105500404" lon="15.119918367807365"><ele>648.0</ele><time>2026-04-26T07:10:27.964Z</time></trkpt><trkpt lat="37.94308408604994" lon="15.120008730066097"><ele>647.3333333333334</ele><time>2026-04-26T07:10:28.964Z</time></trkpt><trkpt lat="37.94286184135645" lon="15.120063121156054"><ele>646.6666666666667</ele><time>2026-04-26T07:10:29.964Z</time></trkpt><trkpt lat="37.94265626763489" lon="15.12010699734905"><ele>646.0</ele><time>2026-04-26T07:10:30.964Z</time></trkpt><trkpt lat="37.94247945705905" lon="15.120186849180952"><ele>645.6666666666667</ele><time>2026-04-26T07:10:31.964Z</time></trkpt><trkpt lat="37.942339615996524" lon="15.120221999498076"><ele>645.3333333333334</ele><time>2026-04-26T07:10:32.964Z</time></trkpt><trkpt lat="37.94219236918159" lon="15.120201428183588"><ele>645.0</ele><time>2026-04-26T07:10:33.964Z</time></trkpt><trkpt lat="37.94201680216161" lon="15.12017991420367"><ele>645.0</ele><time>2026-04-26T07:10:34.964Z</time></trkpt><trkpt lat="37.94185774955587" lon="15.12017079778263"><ele>645.0</ele><time>2026-04-26T07:10:35.964Z</time></trkpt><trkpt lat="37.941722073683046" lon="15.120151462118196"><ele>645.0</ele><time>2026-04-26T07:10:36.964Z</time></trkpt><trkpt lat="37.9416153471456" lon="15.12015862038203"><ele>645.0</ele><time>2026-04-26T07:10:37.964Z</time></trkpt><trkpt lat="37.94152717973078" lon="15.12019989888378"><ele>645.0</ele><time>2026-04-26T07:10:38.964Z</time></trkpt><trkpt lat="37.94147816941027" lon="15.120306219640277"><ele>645.0</ele><time>2026-04-26T07:10:39.964Z</time></trkpt><trkpt lat="37.9414818052546" lon="15.120446307005908"><ele>645.0</ele><time>2026-04-26T07:10:40.964Z</time></trkpt><trkpt lat="37.94159079306216" lon="15.120538728297806"><ele>645.0</ele><time>2026-04-26T07:10:41.964Z</time></trkpt><trkpt lat="37.94171770295444" lon="15.120691005867421"><ele>654.6666666666666</ele><time>2026-04-26T07:10:42.964Z</time></trkpt><trkpt lat="37.94187311985792" lon="15.120859512886497"><ele>664.3333333333333</ele><time>2026-04-26T07:10:43.964Z</time></trkpt><trkpt lat="37.94199455279104" lon="15.121033784280892"><ele>674.0</ele><time>2026-04-26T07:10:44.964Z</time></trkpt><trkpt lat="37.94206248928177" lon="15.121225741225569"><ele>674.0</ele><time>2026-04-26T07:10:45.964Z</time></trkpt><trkpt lat="37.942047669302696" lon="15.121433720068412"><ele>674.0</ele><time>2026-04-26T07:10:46.964Z</time></trkpt><trkpt lat="37.94203134960553" lon="15.121662776512997"><ele>674.0</ele><time>2026-04-26T07:10:47.963Z</time></trkpt><trkpt lat="37.9419799541255" lon="15.12186184221968"><ele>676.25</ele><time>2026-04-26T07:10:48.963Z</time></trkpt><trkpt lat="37.941889695124814" lon="15.121974477424502"><ele>678.5</ele><time>2026-04-26T07:10:49.963Z</time></trkpt><trkpt lat="37.94176268533878" lon="15.121965284153495"><ele>680.75</ele><time>2026-04-26T07:10:50.963Z</time></trkpt><trkpt lat="37.94161693128923" lon="15.122028916427906"><ele>683.0</ele><time>2026-04-26T07:10:51.963Z</time></trkpt><trkpt lat="37.941509483386305" lon="15.122147499100969"><ele>679.6666666666666</ele><time>2026-04-26T07:10:52.963Z</time></trkpt><trkpt lat="37.94137758610488" lon="15.122279427481601"><ele>676.3333333333334</ele><time>2026-04-26T07:10:53.963Z</time></trkpt><trkpt lat="37.94125686646393" lon="15.122471123548419"><ele>673.0</ele><time>2026-04-26T07:10:54.963Z</time></trkpt><trkpt lat="37.94116455288794" lon="15.12271786376604"><ele>673.0</ele><time>2026-04-26T07:10:55.963Z</time></trkpt><trkpt lat="37.94107369184183" lon="15.122979428907266"><ele>673.0</ele><time>2026-04-26T07:10:56.963Z</time></trkpt><trkpt lat="37.94099446104587" lon="15.123208776953488"><ele>673.0</ele><time>2026-04-26T07:10:57.963Z</time></trkpt><trkpt lat="37.94094904771063" lon="15.123416613272283"><ele>678.6666666666667</ele><time>2026-04-26T07:10:58.963Z</time></trkpt><trkpt lat="37.940943614424654" lon="15.123628361348885"><ele>684.3333333333334</ele><time>2026-04-26T07:10:59.963Z</time></trkpt><trkpt lat="37.940983571699725" lon="15.123850020852062"><ele>690.0</ele><time>2026-04-26T07:11:00.963Z</time></trkpt><trkpt lat="37.941058115806044" lon="15.124053445376484"><ele>692.0</ele><time>2026-04-26T07:11:01.963Z</time></trkpt><trkpt lat="37.94118663130183" lon="15.124222370744231"><ele>694.0</ele><time>2026-04-26T07:11:02.963Z</time></trkpt><trkpt lat="37.94126462906797" lon="15.124386064661337"><ele>696.0</ele><time>2026-04-26T07:11:03.963Z</time></trkpt><trkpt lat="37.941266507021595" lon="15.124576596018589"><ele>696.0</ele><time>2026-04-26T07:11:04.963Z</time></trkpt><trkpt lat="37.94130208483674" lon="15.124735791210325"><ele>696.0</ele><time>2026-04-26T07:11:05.963Z</time></trkpt><trkpt lat="37.94134298590698" lon="15.124886122649512"><ele>696.0</ele><time>2026-04-26T07:11:06.963Z</time></trkpt><trkpt lat="37.941455803710824" lon="15.125013088223751"><ele>696.0</ele><time>2026-04-26T07:11:07.963Z</time></trkpt><trkpt lat="37.941642671305175" lon="15.125137118312535"><ele>699.6666666666666</ele><time>2026-04-26T07:11:08.963Z</time></trkpt><trkpt lat="37.941816642226" lon="15.125249566212633"><ele>703.3333333333333</ele><time>2026-04-26T07:11:09.963Z</time></trkpt><trkpt lat="37.941957546418195" lon="15.125365299855899"><ele>707.0</ele><time>2026-04-26T07:11:10.963Z</time></trkpt><trkpt lat="37.94205259212737" lon="15.125477623045494"><ele>707.0</ele><time>2026-04-26T07:11:11.963Z</time></trkpt><trkpt lat="37.94209016160989" lon="15.125604154769624"><ele>707.0</ele><time>2026-04-26T07:11:12.963Z</time></trkpt><trkpt lat="37.94206601121522" lon="15.125728901643852"><ele>707.0</ele><time>2026-04-26T07:11:13.963Z</time></trkpt><trkpt lat="37.94195724722945" lon="15.125809550756806"><ele>707.0</ele><time>2026-04-26T07:11:14.963Z</time></trkpt><trkpt lat="37.94187336344948" lon="15.12593375290723"><ele>703.6666666666666</ele><time>2026-04-26T07:11:15.965Z</time></trkpt><trkpt lat="37.94172989207534" lon="15.125928474080993"><ele>700.3333333333334</ele><time>2026-04-26T07:11:16.965Z</time></trkpt><trkpt lat="37.94161541769078" lon="15.125859444596315"><ele>697.0</ele><time>2026-04-26T07:11:17.965Z</time></trkpt><trkpt lat="37.941436117197775" lon="15.125800598929137"><ele>693.3333333333334</ele><time>2026-04-26T07:11:18.966Z</time></trkpt><trkpt lat="37.941245942221464" lon="15.12575912398943"><ele>689.6666666666666</ele><time>2026-04-26T07:11:19.965Z</time></trkpt><trkpt lat="37.94104001949017" lon="15.125723579932966"><ele>686.0</ele><time>2026-04-26T07:11:20.965Z</time></trkpt><trkpt lat="37.940827648166795" lon="15.125709396501238"><ele>685.75</ele><time>2026-04-26T07:11:21.965Z</time></trkpt><trkpt lat="37.94066452852092" lon="15.125697447042258"><ele>685.5</ele><time>2026-04-26T07:11:22.965Z</time></trkpt><trkpt lat="37.94052960960792" lon="15.125705475161048"><ele>685.25</ele><time>2026-04-26T07:11:23.965Z</time></trkpt><trkpt lat="37.94040662672659" lon="15.125787260184852"><ele>685.0</ele><time>2026-04-26T07:11:24.966Z</time></trkpt><trkpt lat="37.94032831074253" lon="15.125922753934612"><ele>685.0</ele><time>2026-04-26T07:11:25.965Z</time></trkpt><trkpt lat="37.94027783747099" lon="15.126080166678086"><ele>685.0</ele><time>2026-04-26T07:11:26.965Z</time></trkpt><trkpt lat="37.94026292793578" lon="15.126285215684366"><ele>685.0</ele><time>2026-04-26T07:11:27.965Z</time></trkpt><trkpt lat="37.940277578133845" lon="15.126545497552106"><ele>690.6666666666667</ele><time>2026-04-26T07:11:28.965Z</time></trkpt><trkpt lat="37.94028160670513" lon="15.126768493534279"><ele>696.3333333333334</ele><time>2026-04-26T07:11:29.965Z</time></trkpt><trkpt lat="37.940317619586416" lon="15.12695365205229"><ele>702.0</ele><time>2026-04-26T07:11:30.965Z</time></trkpt><trkpt lat="37.94037766145629" lon="15.127125555830473"><ele>702.0</ele><time>2026-04-26T07:11:31.965Z</time></trkpt><trkpt lat="37.94046211314071" lon="15.127308172031604"><ele>702.0</ele><time>2026-04-26T07:11:32.965Z</time></trkpt><trkpt lat="37.94055030305621" lon="15.127507908486976"><ele>702.0</ele><time>2026-04-26T07:11:33.965Z</time></trkpt><trkpt lat="37.94062675438052" lon="15.127705209754422"><ele>702.4000000000001</ele><time>2026-04-26T07:11:34.965Z</time></trkpt><trkpt lat="37.9406836199725" lon="15.12786980398225"><ele>702.8000000000001</ele><time>2026-04-26T07:11:35.965Z</time></trkpt><trkpt lat="37.94072155382546" lon="15.127992525048672"><ele>703.2</ele><time>2026-04-26T07:11:36.965Z</time></trkpt><trkpt lat="37.94076804391232" lon="15.128055083012143"><ele>703.6</ele><time>2026-04-26T07:11:37.965Z</time></trkpt><trkpt lat="37.94084417404758" lon="15.12807538705169"><ele>704.0</ele><time>2026-04-26T07:11:38.965Z</time></trkpt><trkpt lat="37.94090798447805" lon="15.127937323692116"><ele>704.0</ele><time>2026-04-26T07:11:40.965Z</time></trkpt><trkpt lat="37.94087082086994" lon="15.127772026518187"><ele>704.0</ele><time>2026-04-26T07:11:41.965Z</time></trkpt><trkpt lat="37.94079797763736" lon="15.1275663618975"><ele>704.0</ele><time>2026-04-26T07:11:42.965Z</time></trkpt><trkpt lat="37.94072295128621" lon="15.12738898900055"><ele>703.5</ele><time>2026-04-26T07:11:43.965Z</time></trkpt><trkpt lat="37.94067658187752" lon="15.127225226820814"><ele>703.0</ele><time>2026-04-26T07:11:44.965Z</time></trkpt><trkpt lat="37.940673105530806" lon="15.1270457146275"><ele>702.5</ele><time>2026-04-26T07:11:45.965Z</time></trkpt><trkpt lat="37.940704960637625" lon="15.1268547143552"><ele>702.0</ele><time>2026-04-26T07:11:46.965Z</time></trkpt><trkpt lat="37.940738937916706" lon="15.126690441693263"><ele>702.0</ele><time>2026-04-26T07:11:47.965Z</time></trkpt><trkpt lat="37.94075866972168" lon="15.126600616932663"><ele>702.0</ele><time>2026-04-26T07:11:48.965Z</time></trkpt><trkpt lat="37.940836054268374" lon="15.12658599394238"><ele>702.0</ele><time>2026-04-26T07:11:49.965Z</time></trkpt><trkpt lat="37.94092251876864" lon="15.126702209840339"><ele>702.0</ele><time>2026-04-26T07:11:51.965Z</time></trkpt><trkpt lat="37.940906419208574" lon="15.126807603119948"><ele>702.0</ele><time>2026-04-26T07:11:52.965Z</time></trkpt><trkpt lat="37.94086035780713" lon="15.126929700655669"><ele>702.0</ele><time>2026-04-26T07:11:53.965Z</time></trkpt><trkpt lat="37.94082289244939" lon="15.127093923384313"><ele>702.0</ele><time>2026-04-26T07:11:54.965Z</time></trkpt><trkpt lat="37.94081439219099" lon="15.12728245730348"><ele>702.0</ele><time>2026-04-26T07:11:55.965Z</time></trkpt><trkpt lat="37.940864101736075" lon="15.127475750656593"><ele>702.0</ele><time>2026-04-26T07:11:56.965Z</time></trkpt><trkpt lat="37.940950004356814" lon="15.127673133399387"><ele>711.6666666666666</ele><time>2026-04-26T07:11:57.965Z</time></trkpt><trkpt lat="37.94103401570074" lon="15.127852128124456"><ele>721.3333333333333</ele><time>2026-04-26T07:11:58.965Z</time></trkpt><trkpt lat="37.941104356189946" lon="15.128034166514324"><ele>731.0</ele><time>2026-04-26T07:11:59.965Z</time></trkpt><trkpt lat="37.94107082164829" lon="15.128229909785645"><ele>736.0</ele><time>2026-04-26T07:12:00.964Z</time></trkpt><trkpt lat="37.94102704140487" lon="15.12843892918066"><ele>741.0</ele><time>2026-04-26T07:12:01.964Z</time></trkpt><trkpt lat="37.94095474257675" lon="15.128606530274217"><ele>746.0</ele><time>2026-04-26T07:12:02.964Z</time></trkpt><trkpt lat="37.94085704336394" lon="15.128744824065297"><ele>734.0</ele><time>2026-04-26T07:12:03.964Z</time></trkpt><trkpt lat="37.9406942334928" lon="15.128794052364746"><ele>722.0</ele><time>2026-04-26T07:12:04.964Z</time></trkpt><trkpt lat="37.94053476672624" lon="15.12889281635026"><ele>710.0</ele><time>2026-04-26T07:12:05.964Z</time></trkpt><trkpt lat="37.940386980953555" lon="15.12898595793081"><ele>717.0</ele><time>2026-04-26T07:12:06.964Z</time></trkpt><trkpt lat="37.94025624750066" lon="15.12906989427377"><ele>724.0</ele><time>2026-04-26T07:12:07.964Z</time></trkpt><trkpt lat="37.94016564217311" lon="15.129168526780362"><ele>731.0</ele><time>2026-04-26T07:12:08.964Z</time></trkpt><trkpt lat="37.94009510213889" lon="15.129275251909837"><ele>738.0</ele><time>2026-04-26T07:12:09.964Z</time></trkpt><trkpt lat="37.94005242729203" lon="15.129424661748672"><ele>738.0</ele><time>2026-04-26T07:12:10.964Z</time></trkpt><trkpt lat="37.940066244384525" lon="15.129621572038783"><ele>738.0</ele><time>2026-04-26T07:12:11.964Z</time></trkpt><trkpt lat="37.9401212855045" lon="15.129804049787202"><ele>738.0</ele><time>2026-04-26T07:12:12.964Z</time></trkpt><trkpt lat="37.94019415352607" lon="15.129927512565102"><ele>738.0</ele><time>2026-04-26T07:12:13.964Z</time></trkpt><trkpt lat="37.940306426021365" lon="15.130025620788564"><ele>740.0</ele><time>2026-04-26T07:12:14.964Z</time></trkpt><trkpt lat="37.940463654447036" lon="15.13011110969785"><ele>742.0</ele><time>2026-04-26T07:12:15.964Z</time></trkpt><trkpt lat="37.94062894486218" lon="15.130219250085187"><ele>744.0</ele><time>2026-04-26T07:12:16.964Z</time></trkpt><trkpt lat="37.940778557202364" lon="15.130384662758726"><ele>748.0</ele><time>2026-04-26T07:12:17.964Z</time></trkpt><trkpt lat="37.94091630894313" lon="15.130585863158526"><ele>752.0</ele><time>2026-04-26T07:12:18.964Z</time></trkpt><trkpt lat="37.94102821677838" lon="15.130800576431675"><ele>756.0</ele><time>2026-04-26T07:12:19.964Z</time></trkpt><trkpt lat="37.94113561459454" lon="15.130973388545575"><ele>756.0</ele><time>2026-04-26T07:12:20.964Z</time></trkpt><trkpt lat="37.941219218794664" lon="15.131095125687724"><ele>756.0</ele><time>2026-04-26T07:12:21.964Z</time></trkpt><trkpt lat="37.94125496431525" lon="15.131214634057558"><ele>756.0</ele><time>2026-04-26T07:12:22.964Z</time></trkpt><trkpt lat="37.941219134560235" lon="15.131322046142687"><ele>756.0</ele><time>2026-04-26T07:12:23.964Z</time></trkpt><trkpt lat="37.941173488794114" lon="15.131387865696441"><ele>756.0</ele><time>2026-04-26T07:12:24.964Z</time></trkpt><trkpt lat="37.94105156532939" lon="15.131398023336041"><ele>756.0</ele><time>2026-04-26T07:12:25.964Z</time></trkpt><trkpt lat="37.94094867943814" lon="15.13132216606546"><ele>756.0</ele><time>2026-04-26T07:12:26.964Z</time></trkpt><trkpt lat="37.9408724804205" lon="15.131202970675979"><ele>756.0</ele><time>2026-04-26T07:12:27.964Z</time></trkpt><trkpt lat="37.94073380988604" lon="15.13107679898914"><ele>756.0</ele><time>2026-04-26T07:12:28.964Z</time></trkpt><trkpt lat="37.9406029488546" lon="15.130958359275224"><ele>752.0</ele><time>2026-04-26T07:12:29.964Z</time></trkpt><trkpt lat="37.94045924208353" lon="15.130836875025494"><ele>748.0</ele><time>2026-04-26T07:12:30.964Z</time></trkpt><trkpt lat="37.940294209152306" lon="15.130758457162123"><ele>744.0</ele><time>2026-04-26T07:12:31.964Z</time></trkpt><trkpt lat="37.94011326428923" lon="15.130692277547496"><ele>738.3333333333334</ele><time>2026-04-26T07:12:32.964Z</time></trkpt><trkpt lat="37.93991494668291" lon="15.130665135721713"><ele>732.6666666666667</ele><time>2026-04-26T07:12:33.964Z</time></trkpt><trkpt lat="37.939759240558935" lon="15.130622853718362"><ele>727.0</ele><time>2026-04-26T07:12:34.964Z</time></trkpt><trkpt lat="37.93964133257503" lon="15.130608779568297"><ele>727.0</ele><time>2026-04-26T07:12:35.964Z</time></trkpt><trkpt lat="37.93956431327276" lon="15.130647784450714"><ele>727.0</ele><time>2026-04-26T07:12:36.963Z</time></trkpt><trkpt lat="37.93950464520076" lon="15.13071464193664"><ele>727.0</ele><time>2026-04-26T07:12:37.963Z</time></trkpt><trkpt lat="37.93948761520614" lon="15.130799480818622"><ele>727.0</ele><time>2026-04-26T07:12:38.963Z</time></trkpt><trkpt lat="37.93952539715269" lon="15.130896095829273"><ele>727.0</ele><time>2026-04-26T07:12:39.963Z</time></trkpt><trkpt lat="37.93962359848242" lon="15.130961993812065"><ele>727.0</ele><time>2026-04-26T07:12:40.963Z</time></trkpt><trkpt lat="37.93976361866518" lon="15.130985911630296"><ele>730.0</ele><time>2026-04-26T07:12:41.963Z</time></trkpt><trkpt lat="37.939870221524224" lon="15.13100730612869"><ele>733.0</ele><time>2026-04-26T07:12:42.963Z</time></trkpt><trkpt lat="37.939975648169884" lon="15.131041579060375"><ele>736.0</ele><time>2026-04-26T07:12:43.963Z</time></trkpt><trkpt lat="37.94008393877664" lon="15.131081964399081"><ele>739.0</ele><time>2026-04-26T07:12:44.963Z</time></trkpt><trkpt lat="37.94018970168049" lon="15.131140155480045"><ele>742.0</ele><time>2026-04-26T07:12:45.963Z</time></trkpt><trkpt lat="37.940300208921265" lon="15.131218815522384"><ele>742.0</ele><time>2026-04-26T07:12:46.963Z</time></trkpt><trkpt lat="37.94040267109411" lon="15.131300828518532"><ele>742.0</ele><time>2026-04-26T07:12:47.963Z</time></trkpt><trkpt lat="37.940483665687076" lon="15.131426391667002"><ele>742.0</ele><time>2026-04-26T07:12:48.963Z</time></trkpt><trkpt lat="37.940582233025395" lon="15.131536313090725"><ele>742.0</ele><time>2026-04-26T07:12:49.963Z</time></trkpt><trkpt lat="37.940680999048666" lon="15.1316466327352"><ele>745.5</ele><time>2026-04-26T07:12:50.963Z</time></trkpt><trkpt lat="37.94078749133188" lon="15.131748380717507"><ele>749.0</ele><time>2026-04-26T07:12:51.963Z</time></trkpt><trkpt lat="37.94089063617324" lon="15.131851595783667"><ele>752.5</ele><time>2026-04-26T07:12:52.963Z</time></trkpt><trkpt lat="37.940992246039066" lon="15.131941109655681"><ele>756.0</ele><time>2026-04-26T07:12:53.963Z</time></trkpt><trkpt lat="37.941096963855436" lon="15.132050495969157"><ele>756.0</ele><time>2026-04-26T07:12:54.963Z</time></trkpt><trkpt lat="37.941200867852494" lon="15.132155398095476"><ele>756.0</ele><time>2026-04-26T07:12:55.963Z</time></trkpt><trkpt lat="37.94130758597826" lon="15.13225083574862"><ele>756.0</ele><time>2026-04-26T07:12:56.963Z</time></trkpt><trkpt lat="37.941424602821144" lon="15.132341460036741"><ele>756.0</ele><time>2026-04-26T07:12:57.963Z</time></trkpt><trkpt lat="37.941544056715074" lon="15.132404685096299"><ele>758.75</ele><time>2026-04-26T07:12:58.963Z</time></trkpt><trkpt lat="37.94166996548092" lon="15.13245735126562"><ele>761.5</ele><time>2026-04-26T07:12:59.963Z</time></trkpt><trkpt lat="37.94178608251936" lon="15.132485977177982"><ele>764.25</ele><time>2026-04-26T07:13:00.963Z</time></trkpt><trkpt lat="37.94190023815337" lon="15.132495216885989"><ele>767.0</ele><time>2026-04-26T07:13:01.963Z</time></trkpt><trkpt lat="37.94200937009963" lon="15.132457978481263"><ele>770.25</ele><time>2026-04-26T07:13:02.963Z</time></trkpt><trkpt lat="37.94210569624739" lon="15.132384905743459"><ele>773.5</ele><time>2026-04-26T07:13:03.963Z</time></trkpt><trkpt lat="37.94214666552254" lon="15.13223555079411"><ele>776.75</ele><time>2026-04-26T07:13:04.963Z</time></trkpt><trkpt lat="37.9421520651686" lon="15.1320915851638"><ele>780.0</ele><time>2026-04-26T07:13:05.963Z</time></trkpt><trkpt lat="37.94212719225445" lon="15.131941678936952"><ele>780.0</ele><time>2026-04-26T07:13:06.963Z</time></trkpt><trkpt lat="37.94211519616998" lon="15.131787544165904"><ele>780.0</ele><time>2026-04-26T07:13:07.963Z</time></trkpt><trkpt lat="37.94215257365866" lon="15.1316356193619"><ele>780.0</ele><time>2026-04-26T07:13:08.963Z</time></trkpt><trkpt lat="37.94224816746538" lon="15.131523762080862"><ele>780.0</ele><time>2026-04-26T07:13:09.963Z</time></trkpt><trkpt lat="37.94232819389316" lon="15.131410492318002"><ele>780.8</ele><time>2026-04-26T07:13:10.963Z</time></trkpt><trkpt lat="37.94238669723476" lon="15.131307118004045"><ele>781.6</ele><time>2026-04-26T07:13:11.962Z</time></trkpt><trkpt lat="37.94244390388411" lon="15.13122088181103"><ele>782.4000000000001</ele><time>2026-04-26T07:13:12.962Z</time></trkpt><trkpt lat="37.94250625222711" lon="15.131150871045014"><ele>783.2</ele><time>2026-04-26T07:13:13.962Z</time></trkpt><trkpt lat="37.942538802976976" lon="15.131035542962346"><ele>784.0</ele><time>2026-04-26T07:13:14.962Z</time></trkpt><trkpt lat="37.942544451676326" lon="15.130890608150425"><ele>787.3333333333333</ele><time>2026-04-26T07:13:15.962Z</time></trkpt><trkpt lat="37.94249248563633" lon="15.130719794884723"><ele>790.6666666666667</ele><time>2026-04-26T07:13:16.962Z</time></trkpt><trkpt lat="37.942392426135164" lon="15.130546064160875"><ele>794.0</ele><time>2026-04-26T07:13:17.962Z</time></trkpt><trkpt lat="37.942240696645015" lon="15.130421056333942"><ele>794.0</ele><time>2026-04-26T07:13:18.962Z</time></trkpt><trkpt lat="37.94210196130273" lon="15.130340183061728"><ele>794.0</ele><time>2026-04-26T07:13:19.962Z</time></trkpt><trkpt lat="37.941969715562514" lon="15.130273952509095"><ele>794.0</ele><time>2026-04-26T07:13:20.962Z</time></trkpt><trkpt lat="37.94185590081061" lon="15.13017990368452"><ele>794.0</ele><time>2026-04-26T07:13:21.965Z</time></trkpt><trkpt lat="37.94177822551506" lon="15.130046865200677"><ele>794.0</ele><time>2026-04-26T07:13:22.965Z</time></trkpt><trkpt lat="37.941740100620564" lon="15.129909395056812"><ele>794.0</ele><time>2026-04-26T07:13:23.965Z</time></trkpt><trkpt lat="37.94175235305694" lon="15.129798592540356"><ele>794.0</ele><time>2026-04-26T07:13:24.965Z</time></trkpt><trkpt lat="37.94180636811761" lon="15.12974528906753"><ele>794.0</ele><time>2026-04-26T07:13:25.965Z</time></trkpt><trkpt lat="37.94189943310891" lon="15.129735751153296"><ele>794.0</ele><time>2026-04-26T07:13:26.965Z</time></trkpt><trkpt lat="37.94201348813791" lon="15.129744730263942"><ele>790.0</ele><time>2026-04-26T07:13:27.965Z</time></trkpt><trkpt lat="37.94216253361575" lon="15.129773543428952"><ele>786.0</ele><time>2026-04-26T07:13:28.964Z</time></trkpt><trkpt lat="37.94231276847443" lon="15.129771317413438"><ele>782.0</ele><time>2026-04-26T07:13:29.964Z</time></trkpt><trkpt lat="37.94247691972137" lon="15.129752547382688"><ele>786.0</ele><time>2026-04-26T07:13:30.965Z</time></trkpt><trkpt lat="37.94263387499594" lon="15.12971405680841"><ele>790.0</ele><time>2026-04-26T07:13:31.965Z</time></trkpt><trkpt lat="37.942805873548785" lon="15.129646406497702"><ele>794.0</ele><time>2026-04-26T07:13:32.965Z</time></trkpt><trkpt lat="37.942973562910154" lon="15.129571051017649"><ele>794.0</ele><time>2026-04-26T07:13:33.965Z</time></trkpt><trkpt lat="37.94313878877171" lon="15.129498108005043"><ele>794.0</ele><time>2026-04-26T07:13:34.965Z</time></trkpt><trkpt lat="37.943300153620335" lon="15.12941442910128"><ele>794.0</ele><time>2026-04-26T07:13:35.965Z</time></trkpt><trkpt lat="37.94347997409479" lon="15.12934558054243"><ele>797.6666666666667</ele><time>2026-04-26T07:13:36.965Z</time></trkpt><trkpt lat="37.9436575502221" lon="15.129267152879049"><ele>801.3333333333333</ele><time>2026-04-26T07:13:37.965Z</time></trkpt><trkpt lat="37.943822998268665" lon="15.129196637955474"><ele>805.0</ele><time>2026-04-26T07:13:38.965Z</time></trkpt><trkpt lat="37.94397137774649" lon="15.129134174338583"><ele>805.0</ele><time>2026-04-26T07:13:39.965Z</time></trkpt><trkpt lat="37.944101813756106" lon="15.129081158395186"><ele>805.0</ele><time>2026-04-26T07:13:40.965Z</time></trkpt><trkpt lat="37.94420794606156" lon="15.12903918644749"><ele>805.0</ele><time>2026-04-26T07:13:41.965Z</time></trkpt><trkpt lat="37.94428126129654" lon="15.129017970178243"><ele>805.0</ele><time>2026-04-26T07:13:42.964Z</time></trkpt><trkpt lat="37.94431854751537" lon="15.129089786760655"><ele>805.0</ele><time>2026-04-26T07:13:43.964Z</time></trkpt><trkpt lat="37.94431161160447" lon="15.129179546152718"><ele>805.0</ele><time>2026-04-26T07:13:44.964Z</time></trkpt><trkpt lat="37.94423166325831" lon="15.12926219295381"><ele>805.0</ele><time>2026-04-26T07:13:45.964Z</time></trkpt><trkpt lat="37.9441220642168" lon="15.129303826078761"><ele>805.0</ele><time>2026-04-26T07:13:46.964Z</time></trkpt><trkpt lat="37.943991224640556" lon="15.12933876416578"><ele>805.0</ele><time>2026-04-26T07:13:47.964Z</time></trkpt><trkpt lat="37.94385043142536" lon="15.129393426050093"><ele>805.0</ele><time>2026-04-26T07:13:48.964Z</time></trkpt><trkpt lat="37.94367128620317" lon="15.129469783492198"><ele>805.0</ele><time>2026-04-26T07:13:49.964Z</time></trkpt><trkpt lat="37.943631671195874" lon="15.129544060363827"><ele>805.0</ele><time>2026-04-26T07:13:50.964Z</time></trkpt><trkpt lat="37.943465321349585" lon="15.129604749190717"><ele>805.0</ele><time>2026-04-26T07:13:51.964Z</time></trkpt><trkpt lat="37.943330766755786" lon="15.12966583726226"><ele>806.8</ele><time>2026-04-26T07:13:52.964Z</time></trkpt><trkpt lat="37.94324058372919" lon="15.129735363655199"><ele>808.6</ele><time>2026-04-26T07:13:53.964Z</time></trkpt><trkpt lat="37.94319943816166" lon="15.129848225929303"><ele>810.4000000000001</ele><time>2026-04-26T07:13:54.964Z</time></trkpt><trkpt lat="37.94321210803021" lon="15.129973819818495"><ele>812.2</ele><time>2026-04-26T07:13:55.964Z</time></trkpt><trkpt lat="37.94327393434514" lon="15.130052459382947"><ele>814.0</ele><time>2026-04-26T07:13:56.964Z</time></trkpt><trkpt lat="37.94338571868793" lon="15.1300865401027"><ele>811.75</ele><time>2026-04-26T07:13:57.964Z</time></trkpt><trkpt lat="37.94350720974966" lon="15.130068866684464"><ele>809.5</ele><time>2026-04-26T07:13:58.964Z</time></trkpt><trkpt lat="37.94362198501045" lon="15.12998809778721"><ele>807.25</ele><time>2026-04-26T07:13:59.964Z</time></trkpt><trkpt lat="37.94376162306038" lon="15.1299152127383"><ele>805.0</ele><time>2026-04-26T07:14:00.964Z</time></trkpt><trkpt lat="37.943904258971614" lon="15.12985177602223"><ele>805.0</ele><time>2026-04-26T07:14:01.964Z</time></trkpt><trkpt lat="37.944052891333556" lon="15.129785660982323"><ele>805.0</ele><time>2026-04-26T07:14:02.964Z</time></trkpt><trkpt lat="37.944224535296506" lon="15.129713364134222"><ele>805.0</ele><time>2026-04-26T07:14:03.964Z</time></trkpt><trkpt lat="37.9444019160962" lon="15.129637115158124"><ele>812.0</ele><time>2026-04-26T07:14:04.964Z</time></trkpt><trkpt lat="37.94459955649556" lon="15.129557351183955"><ele>819.0</ele><time>2026-04-26T07:14:05.964Z</time></trkpt><trkpt lat="37.94478914582432" lon="15.12945940744411"><ele>826.0</ele><time>2026-04-26T07:14:06.964Z</time></trkpt><trkpt lat="37.94495288716361" lon="15.129330956011865"><ele>828.0</ele><time>2026-04-26T07:14:07.964Z</time></trkpt><trkpt lat="37.945099773801566" lon="15.129167232092252"><ele>830.0</ele><time>2026-04-26T07:14:08.964Z</time></trkpt><trkpt lat="37.945235445007796" lon="15.128968700749683"><ele>832.0</ele><time>2026-04-26T07:14:09.964Z</time></trkpt><trkpt lat="37.94534803265683" lon="15.128796693109116"><ele>832.0</ele><time>2026-04-26T07:14:10.964Z</time></trkpt><trkpt lat="37.94545395505524" lon="15.128654033322213"><ele>832.0</ele><time>2026-04-26T07:14:11.964Z</time></trkpt><trkpt lat="37.945560834286056" lon="15.128539972232698"><ele>832.0</ele><time>2026-04-26T07:14:12.964Z</time></trkpt><trkpt lat="37.94567370685798" lon="15.128429937165217"><ele>832.0</ele><time>2026-04-26T07:14:13.964Z</time></trkpt><trkpt lat="37.945767128450974" lon="15.128352571748136"><ele>832.0</ele><time>2026-04-26T07:14:14.964Z</time></trkpt><trkpt lat="37.94585680554937" lon="15.128262916381392"><ele>832.0</ele><time>2026-04-26T07:14:15.964Z</time></trkpt><trkpt lat="37.94594131897315" lon="15.128165372906306"><ele>832.0</ele><time>2026-04-26T07:14:16.964Z</time></trkpt><trkpt lat="37.94602123746742" lon="15.12808943210263"><ele>832.0</ele><time>2026-04-26T07:14:17.963Z</time></trkpt><trkpt lat="37.946073748997726" lon="15.128017872830046"><ele>832.0</ele><time>2026-04-26T07:14:18.963Z</time></trkpt><trkpt lat="37.94613205251438" lon="15.127935459539072"><ele>833.6666666666666</ele><time>2026-04-26T07:14:20.963Z</time></trkpt><trkpt lat="37.94609013280613" lon="15.127844375361198"><ele>835.3333333333333</ele><time>2026-04-26T07:15:25.962Z</time></trkpt><trkpt lat="37.94616617864363" lon="15.127824219841218"><ele>837.0</ele><time>2026-04-26T07:15:28.965Z</time></trkpt><trkpt lat="37.94623364256835" lon="15.12779907894605"><ele>838.6666666666667</ele><time>2026-04-26T07:15:30.965Z</time></trkpt><trkpt lat="37.94633291444777" lon="15.127708820974998"><ele>840.3333333333334</ele><time>2026-04-26T07:15:32.965Z</time></trkpt><trkpt lat="37.94638218796724" lon="15.127648491154295"><ele>842.0</ele><time>2026-04-26T07:15:33.965Z</time></trkpt><trkpt lat="37.946433426526035" lon="15.127587031753734"><ele>842.0000000000001</ele><time>2026-04-26T07:15:34.965Z</time></trkpt><trkpt lat="37.94648529475208" lon="15.12753313685982"><ele>842.0</ele><time>2026-04-26T07:15:35.965Z</time></trkpt><trkpt lat="37.94655052565107" lon="15.12748089288255"><ele>842.0</ele><time>2026-04-26T07:15:36.964Z</time></trkpt><trkpt lat="37.94660346501939" lon="15.127392885550215"><ele>842.0</ele><time>2026-04-26T07:15:37.964Z</time></trkpt><trkpt lat="37.946655126117385" lon="15.127311550792895"><ele>842.0000000000001</ele><time>2026-04-26T07:15:38.964Z</time></trkpt><trkpt lat="37.94670338614798" lon="15.127208236013509"><ele>842.0</ele><time>2026-04-26T07:15:39.965Z</time></trkpt><trkpt lat="37.946768572057024" lon="15.127118295423376"><ele>844.8</ele><time>2026-04-26T07:15:40.964Z</time></trkpt><trkpt lat="37.94680854572373" lon="15.127022479952695"><ele>847.6</ele><time>2026-04-26T07:15:41.964Z</time></trkpt><trkpt lat="37.94689103090788" lon="15.126965399716354"><ele>850.3999999999999</ele><time>2026-04-26T07:15:42.964Z</time></trkpt><trkpt lat="37.94697298555436" lon="15.12689969425081"><ele>853.1999999999999</ele><time>2026-04-26T07:15:43.964Z</time></trkpt><trkpt lat="37.94706228426766" lon="15.12685060017204"><ele>856.0</ele><time>2026-04-26T07:15:44.964Z</time></trkpt><trkpt lat="37.947155962470404" lon="15.12687928924249"><ele>856.0</ele><time>2026-04-26T07:15:45.964Z</time></trkpt><trkpt lat="37.94722197120051" lon="15.12697472876815"><ele>855.9999999999999</ele><time>2026-04-26T07:15:46.964Z</time></trkpt><trkpt lat="37.9472491194462" lon="15.127105886503953"><ele>855.9999999999999</ele><time>2026-04-26T07:15:47.964Z</time></trkpt><trkpt lat="37.947209852727894" lon="15.12721622968918"><ele>856.0</ele><time>2026-04-26T07:15:48.964Z</time></trkpt><trkpt lat="37.94713222538538" lon="15.127296321732645"><ele>856.0</ele><time>2026-04-26T07:15:49.964Z</time></trkpt><trkpt lat="37.94699917851549" lon="15.127291545351426"><ele>856.0</ele><time>2026-04-26T07:15:50.964Z</time></trkpt><trkpt lat="37.94690257254588" lon="15.127358531896105"><ele>856.0</ele><time>2026-04-26T07:15:51.964Z</time></trkpt><trkpt lat="37.946821038144265" lon="15.127466809252194"><ele>856.0</ele><time>2026-04-26T07:15:52.964Z</time></trkpt><trkpt lat="37.94676963603925" lon="15.127611667005935"><ele>856.0</ele><time>2026-04-26T07:15:53.964Z</time></trkpt><trkpt lat="37.94677598770979" lon="15.12782906304568"><ele>855.3333333333333</ele><time>2026-04-26T07:15:54.964Z</time></trkpt><trkpt lat="37.94678652519185" lon="15.12806468699574"><ele>854.6666666666667</ele><time>2026-04-26T07:15:55.964Z</time></trkpt><trkpt lat="37.94676692832193" lon="15.128276050908857"><ele>854.0</ele><time>2026-04-26T07:15:56.964Z</time></trkpt><trkpt lat="37.946694562314384" lon="15.128459140226472"><ele>854.0</ele><time>2026-04-26T07:15:57.964Z</time></trkpt><trkpt lat="37.94660322163633" lon="15.128613108673362"><ele>854.0</ele><time>2026-04-26T07:15:58.964Z</time></trkpt><trkpt lat="37.946509870389505" lon="15.1287692307955"><ele>854.0</ele><time>2026-04-26T07:15:59.964Z</time></trkpt><trkpt lat="37.94642726969981" lon="15.128902817876188"><ele>854.0</ele><time>2026-04-26T07:16:00.964Z</time></trkpt><trkpt lat="37.94633367648823" lon="15.129014116737137"><ele>854.6</ele><time>2026-04-26T07:16:01.964Z</time></trkpt><trkpt lat="37.946285726417535" lon="15.12912102999662"><ele>855.2</ele><time>2026-04-26T07:16:02.964Z</time></trkpt><trkpt lat="37.94627377873343" lon="15.1292211053735"><ele>855.8000000000001</ele><time>2026-04-26T07:16:03.964Z</time></trkpt><trkpt lat="37.946314820567274" lon="15.129307740776117"><ele>856.4000000000001</ele><time>2026-04-26T07:16:04.964Z</time></trkpt><trkpt lat="37.94640680373565" lon="15.129308249183415"><ele>857.0</ele><time>2026-04-26T07:16:05.963Z</time></trkpt><trkpt lat="37.9465357823807" lon="15.129223909654396"><ele>856.0</ele><time>2026-04-26T07:16:06.963Z</time></trkpt><trkpt lat="37.946645610499125" lon="15.12905615717011"><ele>855.0</ele><time>2026-04-26T07:16:07.963Z</time></trkpt><trkpt lat="37.946765929305634" lon="15.128919996508037"><ele>854.0</ele><time>2026-04-26T07:16:08.963Z</time></trkpt><trkpt lat="37.94687506547734" lon="15.128774909606769"><ele>861.0</ele><time>2026-04-26T07:16:09.963Z</time></trkpt><trkpt lat="37.946987062341954" lon="15.128645900610659"><ele>868.0</ele><time>2026-04-26T07:16:10.963Z</time></trkpt><trkpt lat="37.94709645962312" lon="15.128517322576007"><ele>875.0</ele><time>2026-04-26T07:16:11.963Z</time></trkpt><trkpt lat="37.94721638241303" lon="15.128385820682295"><ele>875.0</ele><time>2026-04-26T07:16:12.963Z</time></trkpt><trkpt lat="37.94733820760247" lon="15.12825621036509"><ele>875.0</ele><time>2026-04-26T07:16:13.963Z</time></trkpt><trkpt lat="37.94746129636023" lon="15.12811864301567"><ele>875.0</ele><time>2026-04-26T07:16:14.963Z</time></trkpt><trkpt lat="37.94759444207162" lon="15.127980367730741"><ele>877.6666666666667</ele><time>2026-04-26T07:16:15.963Z</time></trkpt><trkpt lat="37.947738165478754" lon="15.127850770948394"><ele>880.3333333333333</ele><time>2026-04-26T07:16:16.963Z</time></trkpt><trkpt lat="37.947886808655646" lon="15.12772431087838"><ele>883.0</ele><time>2026-04-26T07:16:17.963Z</time></trkpt><trkpt lat="37.94803500219874" lon="15.12761167750266"><ele>883.0</ele><time>2026-04-26T07:16:18.963Z</time></trkpt><trkpt lat="37.94817218851445" lon="15.127497287630868"><ele>883.0</ele><time>2026-04-26T07:16:19.963Z</time></trkpt><trkpt lat="37.94826596923991" lon="15.127371371407516"><ele>883.0</ele><time>2026-04-26T07:16:20.963Z</time></trkpt><trkpt lat="37.94831998017729" lon="15.127196456380894"><ele>883.0</ele><time>2026-04-26T07:16:21.963Z</time></trkpt><trkpt lat="37.948337012259266" lon="15.127003038988077"><ele>884.5</ele><time>2026-04-26T07:16:22.963Z</time></trkpt><trkpt lat="37.948334652300936" lon="15.126825606731472"><ele>886.0</ele><time>2026-04-26T07:16:23.963Z</time></trkpt><trkpt lat="37.94835763514585" lon="15.126689547154466"><ele>887.5</ele><time>2026-04-26T07:16:24.963Z</time></trkpt><trkpt lat="37.94843329141061" lon="15.126583672602225"><ele>889.0</ele><time>2026-04-26T07:16:25.963Z</time></trkpt><trkpt lat="37.94853630122068" lon="15.12651898107055"><ele>889.0</ele><time>2026-04-26T07:16:26.963Z</time></trkpt><trkpt lat="37.94864302328686" lon="15.126528707452362"><ele>889.0</ele><time>2026-04-26T07:16:27.963Z</time></trkpt><trkpt lat="37.9487995214537" lon="15.126575066288542"><ele>889.0</ele><time>2026-04-26T07:16:28.963Z</time></trkpt><trkpt lat="37.94894030550578" lon="15.126659012389993"><ele>889.0</ele><time>2026-04-26T07:16:29.963Z</time></trkpt><trkpt lat="37.94906934805667" lon="15.12670903640639"><ele>889.0</ele><time>2026-04-26T07:16:30.963Z</time></trkpt><trkpt lat="37.949197327638785" lon="15.126684567076365"><ele>889.0</ele><time>2026-04-26T07:16:31.963Z</time></trkpt><trkpt lat="37.949317816727174" lon="15.126604835442603"><ele>889.0</ele><time>2026-04-26T07:16:32.963Z</time></trkpt><trkpt lat="37.949430492981506" lon="15.126477060181411"><ele>889.0</ele><time>2026-04-26T07:16:33.963Z</time></trkpt><trkpt lat="37.949523860610675" lon="15.126305595417955"><ele>887.6666666666666</ele><time>2026-04-26T07:16:34.963Z</time></trkpt><trkpt lat="37.94963041044102" lon="15.126111935637532"><ele>886.3333333333333</ele><time>2026-04-26T07:16:35.963Z</time></trkpt><trkpt lat="37.94975682348744" lon="15.12591332877867"><ele>885.0</ele><time>2026-04-26T07:16:36.963Z</time></trkpt><trkpt lat="37.949894615087075" lon="15.12569914092251"><ele>885.0</ele><time>2026-04-26T07:16:37.963Z</time></trkpt><trkpt lat="37.95003973726121" lon="15.125455123425947"><ele>885.0</ele><time>2026-04-26T07:16:38.963Z</time></trkpt><trkpt lat="37.95019166324857" lon="15.125185762301507"><ele>892.5</ele><time>2026-04-26T07:16:39.963Z</time></trkpt><trkpt lat="37.95035204383936" lon="15.12492981911449"><ele>900.0</ele><time>2026-04-26T07:16:40.963Z</time></trkpt><trkpt lat="37.950520932268745" lon="15.124747100315476"><ele>900.0</ele><time>2026-04-26T07:16:41.962Z</time></trkpt><trkpt lat="37.95066429981563" lon="15.124572770964347"><ele>900.0</ele><time>2026-04-26T07:16:42.962Z</time></trkpt><trkpt lat="37.950807162485425" lon="15.124459268673418"><ele>900.0</ele><time>2026-04-26T07:16:43.962Z</time></trkpt><trkpt lat="37.95088285190113" lon="15.124306109034649"><ele>904.0</ele><time>2026-04-26T07:16:44.962Z</time></trkpt><trkpt lat="37.950917572561615" lon="15.124115893636095"><ele>908.0</ele><time>2026-04-26T07:16:45.962Z</time></trkpt><trkpt lat="37.95091899778778" lon="15.123892530667959"><ele>912.0</ele><time>2026-04-26T07:16:46.962Z</time></trkpt><trkpt lat="37.950911173026654" lon="15.123641016775927"><ele>912.0</ele><time>2026-04-26T07:16:47.962Z</time></trkpt><trkpt lat="37.95094879670894" lon="15.123428837528806"><ele>912.0</ele><time>2026-04-26T07:16:48.962Z</time></trkpt><trkpt lat="37.95098358452946" lon="15.123236313429706"><ele>912.0</ele><time>2026-04-26T07:16:49.962Z</time></trkpt><trkpt lat="37.95104668873104" lon="15.123075985903961"><ele>905.5</ele><time>2026-04-26T07:16:50.962Z</time></trkpt><trkpt lat="37.951124673631924" lon="15.122959170094187"><ele>899.0</ele><time>2026-04-26T07:16:51.962Z</time></trkpt><trkpt lat="37.95122717357321" lon="15.122887231584054"><ele>892.5</ele><time>2026-04-26T07:16:52.962Z</time></trkpt><trkpt lat="37.95138596007041" lon="15.12288139038346"><ele>886.0</ele><time>2026-04-26T07:16:53.962Z</time></trkpt><trkpt lat="37.951535051086545" lon="15.122959310943509"><ele>886.0</ele><time>2026-04-26T07:16:54.962Z</time></trkpt><trkpt lat="37.95166099306426" lon="15.123079406302146"><ele>886.0</ele><time>2026-04-26T07:16:55.962Z</time></trkpt><trkpt lat="37.95181581747836" lon="15.123195360172545"><ele>886.0</ele><time>2026-04-26T07:16:56.962Z</time></trkpt><trkpt lat="37.95197548225881" lon="15.12324606654634"><ele>897.0</ele><time>2026-04-26T07:16:57.962Z</time></trkpt><trkpt lat="37.95216434613376" lon="15.123248852691265"><ele>908.0</ele><time>2026-04-26T07:16:58.962Z</time></trkpt><trkpt lat="37.95234607812187" lon="15.123261792748767"><ele>919.0</ele><time>2026-04-26T07:16:59.962Z</time></trkpt><trkpt lat="37.95252564174459" lon="15.12329647267064"><ele>917.6666666666666</ele><time>2026-04-26T07:17:00.962Z</time></trkpt><trkpt lat="37.952698372426035" lon="15.123283945525483"><ele>916.3333333333333</ele><time>2026-04-26T07:17:01.962Z</time></trkpt><trkpt lat="37.952863812028454" lon="15.123201399100488"><ele>915.0</ele><time>2026-04-26T07:17:02.962Z</time></trkpt><trkpt lat="37.95304639772385" lon="15.123083810907161"><ele>915.0</ele><time>2026-04-26T07:17:03.962Z</time></trkpt><trkpt lat="37.95323577962904" lon="15.12291860121673"><ele>915.0</ele><time>2026-04-26T07:17:04.962Z</time></trkpt><trkpt lat="37.95341486366976" lon="15.122765958646841"><ele>915.0</ele><time>2026-04-26T07:17:05.962Z</time></trkpt><trkpt lat="37.95356764823736" lon="15.12262886556269"><ele>914.3333333333333</ele><time>2026-04-26T07:17:06.962Z</time></trkpt><trkpt lat="37.95370163294697" lon="15.122524939689223"><ele>913.6666666666666</ele><time>2026-04-26T07:17:07.962Z</time></trkpt><trkpt lat="37.95382951052773" lon="15.122422797600828"><ele>913.0</ele><time>2026-04-26T07:17:08.962Z</time></trkpt><trkpt lat="37.95395987657668" lon="15.12232936546867"><ele>913.0</ele><time>2026-04-26T07:17:09.962Z</time></trkpt><trkpt lat="37.954108607737965" lon="15.122260160528587"><ele>913.0</ele><time>2026-04-26T07:17:10.962Z</time></trkpt><trkpt lat="37.954284135610344" lon="15.122223462934539"><ele>913.0</ele><time>2026-04-26T07:17:11.962Z</time></trkpt><trkpt lat="37.95446034944016" lon="15.122165144123208"><ele>920.6666666666666</ele><time>2026-04-26T07:17:12.962Z</time></trkpt><trkpt lat="37.954643135026245" lon="15.12204941273819"><ele>928.3333333333333</ele><time>2026-04-26T07:17:13.962Z</time></trkpt><trkpt lat="37.95482310320828" lon="15.121881639278994"><ele>936.0</ele><time>2026-04-26T07:17:14.962Z</time></trkpt><trkpt lat="37.9549917824252" lon="15.121742008960924"><ele>934.6666666666667</ele><time>2026-04-26T07:17:15.962Z</time></trkpt><trkpt lat="37.955140979878536" lon="15.121599474341492"><ele>933.3333333333334</ele><time>2026-04-26T07:17:16.962Z</time></trkpt><trkpt lat="37.95528527273995" lon="15.121490316659541"><ele>932.0</ele><time>2026-04-26T07:17:17.962Z</time></trkpt><trkpt lat="37.95543412320821" lon="15.121397367615952"><ele>932.0</ele><time>2026-04-26T07:17:18.962Z</time></trkpt><trkpt lat="37.95560947377936" lon="15.121360257284655"><ele>932.0</ele><time>2026-04-26T07:17:19.961Z</time></trkpt><trkpt lat="37.9557776291459" lon="15.121309065708177"><ele>932.0</ele><time>2026-04-26T07:17:20.961Z</time></trkpt><trkpt lat="37.955925429899125" lon="15.121264869704195"><ele>934.4000000000001</ele><time>2026-04-26T07:17:21.961Z</time></trkpt><trkpt lat="37.956043143890454" lon="15.121227361511217"><ele>936.8000000000001</ele><time>2026-04-26T07:17:22.961Z</time></trkpt><trkpt lat="37.956146976176846" lon="15.12119679166783"><ele>939.2</ele><time>2026-04-26T07:17:23.961Z</time></trkpt><trkpt lat="37.95623217260958" lon="15.121202646664738"><ele>941.6</ele><time>2026-04-26T07:17:24.961Z</time></trkpt><trkpt lat="37.95629665451125" lon="15.121252749611237"><ele>944.0</ele><time>2026-04-26T07:17:25.961Z</time></trkpt><trkpt lat="37.956334477033636" lon="15.121325942033604"><ele>944.0</ele><time>2026-04-26T07:17:26.961Z</time></trkpt><trkpt lat="37.95633229922414" lon="15.121411503841001"><ele>944.0000000000001</ele><time>2026-04-26T07:17:27.961Z</time></trkpt><trkpt lat="37.95628085226626" lon="15.121486986958864"><ele>944.0000000000001</ele><time>2026-04-26T07:17:28.961Z</time></trkpt><trkpt lat="37.9561975886169" lon="15.121500576635873"><ele>944.0</ele><time>2026-04-26T07:17:29.961Z</time></trkpt><trkpt lat="37.95608714101567" lon="15.121535029124942"><ele>944.0</ele><time>2026-04-26T07:17:30.961Z</time></trkpt><trkpt lat="37.95596238260039" lon="15.121539430542652"><ele>945.6666666666667</ele><time>2026-04-26T07:17:31.961Z</time></trkpt><trkpt lat="37.955830491164186" lon="15.121597642666325"><ele>947.3333333333333</ele><time>2026-04-26T07:17:32.961Z</time></trkpt><trkpt lat="37.95570412945472" lon="15.121712024298828"><ele>949.0</ele><time>2026-04-26T07:17:33.964Z</time></trkpt><trkpt lat="37.955581612011905" lon="15.121844117834954"><ele>949.0</ele><time>2026-04-26T07:17:34.964Z</time></trkpt><trkpt lat="37.95545270449935" lon="15.121978628055693"><ele>949.0</ele><time>2026-04-26T07:17:35.964Z</time></trkpt><trkpt lat="37.95531707168585" lon="15.122103564978142"><ele>949.0</ele><time>2026-04-26T07:17:36.963Z</time></trkpt><trkpt lat="37.95519075348384" lon="15.122238030849807"><ele>949.0</ele><time>2026-04-26T07:17:37.964Z</time></trkpt><trkpt lat="37.95509310561605" lon="15.122386521491011"><ele>949.0</ele><time>2026-04-26T07:17:38.964Z</time></trkpt><trkpt lat="37.955032990918724" lon="15.122571249004581"><ele>949.0</ele><time>2026-04-26T07:17:39.964Z</time></trkpt><trkpt lat="37.95500077236347" lon="15.122777335765088"><ele>950.25</ele><time>2026-04-26T07:17:40.964Z</time></trkpt><trkpt lat="37.9549693646675" lon="15.122972317784667"><ele>951.5</ele><time>2026-04-26T07:17:41.964Z</time></trkpt><trkpt lat="37.95489384562044" lon="15.123118559686338"><ele>952.75</ele><time>2026-04-26T07:17:42.964Z</time></trkpt><trkpt lat="37.954805991215586" lon="15.123236092761298"><ele>954.0</ele><time>2026-04-26T07:17:43.964Z</time></trkpt><trkpt lat="37.95466856805383" lon="15.123275169904781"><ele>958.6666666666667</ele><time>2026-04-26T07:17:44.964Z</time></trkpt><trkpt lat="37.954520997130565" lon="15.123294949687509"><ele>963.3333333333334</ele><time>2026-04-26T07:17:45.964Z</time></trkpt><trkpt lat="37.9543772124003" lon="15.123356012125274"><ele>968.0</ele><time>2026-04-26T07:17:46.963Z</time></trkpt><trkpt lat="37.95423386051635" lon="15.123424586615469"><ele>963.3333333333334</ele><time>2026-04-26T07:17:47.963Z</time></trkpt><trkpt lat="37.954099960969785" lon="15.123560179047805"><ele>958.6666666666667</ele><time>2026-04-26T07:17:48.963Z</time></trkpt><trkpt lat="37.95397917269521" lon="15.123694183954363"><ele>954.0</ele><time>2026-04-26T07:17:49.963Z</time></trkpt><trkpt lat="37.953869917763186" lon="15.123811480459397"><ele>954.0</ele><time>2026-04-26T07:17:50.963Z</time></trkpt><trkpt lat="37.953786805994795" lon="15.123930323687299"><ele>954.0</ele><time>2026-04-26T07:17:51.963Z</time></trkpt><trkpt lat="37.9537468295968" lon="15.12408241494989"><ele>954.0</ele><time>2026-04-26T07:17:52.963Z</time></trkpt><trkpt lat="37.953751890269366" lon="15.12427027743006"><ele>954.0</ele><time>2026-04-26T07:17:53.963Z</time></trkpt><trkpt lat="37.953786219510455" lon="15.124461301666887"><ele>960.3333333333333</ele><time>2026-04-26T07:17:54.963Z</time></trkpt><trkpt lat="37.95382183012209" lon="15.124659833267161"><ele>966.6666666666666</ele><time>2026-04-26T07:17:55.963Z</time></trkpt><trkpt lat="37.9538429115928" lon="15.124863357615448"><ele>973.0</ele><time>2026-04-26T07:17:56.963Z</time></trkpt><trkpt lat="37.953836502562694" lon="15.125058546197465"><ele>975.6666666666666</ele><time>2026-04-26T07:17:57.963Z</time></trkpt><trkpt lat="37.95379299353591" lon="15.1252376201598"><ele>978.3333333333333</ele><time>2026-04-26T07:17:58.963Z</time></trkpt><trkpt lat="37.95370296907967" lon="15.125417414260147"><ele>981.0</ele><time>2026-04-26T07:17:59.963Z</time></trkpt><trkpt lat="37.95357857111875" lon="15.125571356448983"><ele>981.0</ele><time>2026-04-26T07:18:00.963Z</time></trkpt><trkpt lat="37.95346117766155" lon="15.12571668031686"><ele>981.0</ele><time>2026-04-26T07:18:01.963Z</time></trkpt><trkpt lat="37.95334786457706" lon="15.125866622308664"><ele>981.0</ele><time>2026-04-26T07:18:02.963Z</time></trkpt><trkpt lat="37.95325022514441" lon="15.12599851605472"><ele>981.5999999999999</ele><time>2026-04-26T07:18:03.963Z</time></trkpt><trkpt lat="37.95318838745552" lon="15.12611133382448"><ele>982.1999999999999</ele><time>2026-04-26T07:18:04.963Z</time></trkpt><trkpt lat="37.95318139852349" lon="15.126229485368917"><ele>982.8000000000001</ele><time>2026-04-26T07:18:05.963Z</time></trkpt><trkpt lat="37.95323098313581" lon="15.126322862396606"><ele>983.4000000000001</ele><time>2026-04-26T07:18:06.963Z</time></trkpt><trkpt lat="37.95332752744234" lon="15.12636994404837"><ele>984.0</ele><time>2026-04-26T07:18:07.963Z</time></trkpt><trkpt lat="37.953440423037485" lon="15.12634057254309"><ele>984.0</ele><time>2026-04-26T07:18:08.963Z</time></trkpt><trkpt lat="37.95355913891571" lon="15.126279842456476"><ele>984.0</ele><time>2026-04-26T07:18:09.963Z</time></trkpt><trkpt lat="37.95369540058102" lon="15.126222127553675"><ele>984.0</ele><time>2026-04-26T07:18:10.963Z</time></trkpt><trkpt lat="37.9538362983553" lon="15.126186967608804"><ele>984.0</ele><time>2026-04-26T07:18:11.963Z</time></trkpt><trkpt lat="37.95399427982288" lon="15.126146781205064"><ele>984.0</ele><time>2026-04-26T07:18:12.963Z</time></trkpt><trkpt lat="37.95415647428118" lon="15.126100819454328"><ele>984.0</ele><time>2026-04-26T07:18:13.963Z</time></trkpt><trkpt lat="37.95432729944733" lon="15.126033372072305"><ele>984.0</ele><time>2026-04-26T07:18:14.963Z</time></trkpt><trkpt lat="37.95449569951793" lon="15.125962288808232"><ele>985.0</ele><time>2026-04-26T07:18:15.962Z</time></trkpt><trkpt lat="37.954662918302816" lon="15.12588842227241"><ele>986.0</ele><time>2026-04-26T07:18:16.962Z</time></trkpt><trkpt lat="37.954831384023244" lon="15.125818520683868"><ele>987.0</ele><time>2026-04-26T07:18:17.962Z</time></trkpt><trkpt lat="37.955003985648254" lon="15.125767028391316"><ele>988.0</ele><time>2026-04-26T07:18:18.962Z</time></trkpt><trkpt lat="37.95517471722508" lon="15.125739964070608"><ele>989.0</ele><time>2026-04-26T07:18:19.962Z</time></trkpt><trkpt lat="37.955349352256476" lon="15.12577837826705"><ele>990.0</ele><time>2026-04-26T07:18:20.962Z</time></trkpt><trkpt lat="37.95552664103965" lon="15.125809468858696"><ele>990.0</ele><time>2026-04-26T07:18:21.962Z</time></trkpt><trkpt lat="37.95569235803444" lon="15.125826013404398"><ele>990.0</ele><time>2026-04-26T07:18:22.962Z</time></trkpt><trkpt lat="37.95583488914685" lon="15.12585465579988"><ele>990.0</ele><time>2026-04-26T07:18:23.962Z</time></trkpt><trkpt lat="37.95596086696771" lon="15.125836776866617"><ele>990.0</ele><time>2026-04-26T07:18:24.962Z</time></trkpt><trkpt lat="37.9561039534539" lon="15.12574518676618"><ele>1002.3333333333333</ele><time>2026-04-26T07:18:25.962Z</time></trkpt><trkpt lat="37.95624979339745" lon="15.125655975270114"><ele>1014.6666666666666</ele><time>2026-04-26T07:18:26.962Z</time></trkpt><trkpt lat="37.95640782029921" lon="15.125560190489521"><ele>1027.0</ele><time>2026-04-26T07:18:27.962Z</time></trkpt><trkpt lat="37.95657965267481" lon="15.125470682930782"><ele>1023.3333333333333</ele><time>2026-04-26T07:18:28.962Z</time></trkpt><trkpt lat="37.95677708930898" lon="15.12543111155488"><ele>1019.6666666666667</ele><time>2026-04-26T07:18:29.962Z</time></trkpt><trkpt lat="37.95697018306635" lon="15.125402155627448"><ele>1016.0</ele><time>2026-04-26T07:18:30.962Z</time></trkpt><trkpt lat="37.95715791225195" lon="15.125353815417379"><ele>1016.0</ele><time>2026-04-26T07:18:31.962Z</time></trkpt><trkpt lat="37.9573278841288" lon="15.125272616578576"><ele>1016.0</ele><time>2026-04-26T07:18:32.962Z</time></trkpt><trkpt lat="37.95748924484576" lon="15.125229039544148"><ele>1016.0</ele><time>2026-04-26T07:18:33.962Z</time></trkpt><trkpt lat="37.957640210161344" lon="15.12520230101127"><ele>1018.3333333333334</ele><time>2026-04-26T07:18:34.962Z</time></trkpt><trkpt lat="37.957785528212675" lon="15.125199257065571"><ele>1020.6666666666667</ele><time>2026-04-26T07:18:35.962Z</time></trkpt><trkpt lat="37.95793803749986" lon="15.125229068085469"><ele>1023.0</ele><time>2026-04-26T07:18:36.962Z</time></trkpt><trkpt lat="37.95809919616349" lon="15.125281626312418"><ele>1023.0</ele><time>2026-04-26T07:18:37.962Z</time></trkpt><trkpt lat="37.95825856230083" lon="15.12533028370086"><ele>1023.0</ele><time>2026-04-26T07:18:38.962Z</time></trkpt><trkpt lat="37.95840516577788" lon="15.125378778092644"><ele>1023.0</ele><time>2026-04-26T07:18:39.962Z</time></trkpt><trkpt lat="37.958518388397316" lon="15.125458539664288"><ele>1023.0</ele><time>2026-04-26T07:18:40.962Z</time></trkpt><trkpt lat="37.95861766245372" lon="15.125591623347004"><ele>1021.0</ele><time>2026-04-26T07:18:41.962Z</time></trkpt><trkpt lat="37.95871993083007" lon="15.125740417765295"><ele>1019.0</ele><time>2026-04-26T07:18:42.962Z</time></trkpt><trkpt lat="37.958840637953955" lon="15.125859280225049"><ele>1017.0</ele><time>2026-04-26T07:18:43.962Z</time></trkpt><trkpt lat="37.95900757124431" lon="15.125932386343544"><ele>1017.0</ele><time>2026-04-26T07:18:44.962Z</time></trkpt><trkpt lat="37.95917023431093" lon="15.125991321245873"><ele>1017.0</ele><time>2026-04-26T07:18:45.962Z</time></trkpt><trkpt lat="37.95934709772076" lon="15.126045745141274"><ele>1017.0</ele><time>2026-04-26T07:18:46.962Z</time></trkpt><trkpt lat="37.95951907277558" lon="15.126115603402011"><ele>1023.6666666666667</ele><time>2026-04-26T07:18:47.962Z</time></trkpt><trkpt lat="37.95966643716471" lon="15.126178047718815"><ele>1030.3333333333335</ele><time>2026-04-26T07:18:48.962Z</time></trkpt><trkpt lat="37.95981517000994" lon="15.126236144210468"><ele>1037.0</ele><time>2026-04-26T07:18:49.962Z</time></trkpt><trkpt lat="37.9599580011974" lon="15.126306564238332"><ele>1035.6666666666667</ele><time>2026-04-26T07:18:50.962Z</time></trkpt><trkpt lat="37.960111208194945" lon="15.126387735348061"><ele>1034.3333333333333</ele><time>2026-04-26T07:18:51.961Z</time></trkpt><trkpt lat="37.96024541932015" lon="15.126494359198846"><ele>1033.0</ele><time>2026-04-26T07:18:52.961Z</time></trkpt><trkpt lat="37.96037653156007" lon="15.126598023209363"><ele>1033.0</ele><time>2026-04-26T07:18:53.961Z</time></trkpt><trkpt lat="37.960507842208465" lon="15.126728386579417"><ele>1033.0</ele><time>2026-04-26T07:18:54.961Z</time></trkpt><trkpt lat="37.96065651300905" lon="15.126835371720613"><ele>1033.0</ele><time>2026-04-26T07:18:55.961Z</time></trkpt><trkpt lat="37.96080093038404" lon="15.126956525321724"><ele>1041.3333333333333</ele><time>2026-04-26T07:18:56.961Z</time></trkpt><trkpt lat="37.96095767909766" lon="15.127051708424437"><ele>1049.6666666666667</ele><time>2026-04-26T07:18:57.961Z</time></trkpt><trkpt lat="37.96109543885287" lon="15.127132705950858"><ele>1058.0</ele><time>2026-04-26T07:18:58.961Z</time></trkpt><trkpt lat="37.96118746857596" lon="15.127252089629295"><ele>1058.0</ele><time>2026-04-26T07:18:59.961Z</time></trkpt><trkpt lat="37.96125354938371" lon="15.12738752524858"><ele>1058.0</ele><time>2026-04-26T07:19:00.961Z</time></trkpt><trkpt lat="37.96127744801433" lon="15.127551903543258"><ele>1058.0</ele><time>2026-04-26T07:19:01.961Z</time></trkpt><trkpt lat="37.961318553662046" lon="15.12774982446873"><ele>1058.0</ele><time>2026-04-26T07:19:02.961Z</time></trkpt><trkpt lat="37.9613777087113" lon="15.12792645927382"><ele>1057.6666666666667</ele><time>2026-04-26T07:19:03.961Z</time></trkpt><trkpt lat="37.961472039541974" lon="15.128067296464973"><ele>1057.3333333333333</ele><time>2026-04-26T07:19:04.961Z</time></trkpt><trkpt lat="37.96161505306242" lon="15.128187822378203"><ele>1057.0</ele><time>2026-04-26T07:19:05.961Z</time></trkpt><trkpt lat="37.96176371518246" lon="15.128310569047668"><ele>1057.0</ele><time>2026-04-26T07:19:06.961Z</time></trkpt><trkpt lat="37.96190152476517" lon="15.12844410205216"><ele>1057.0</ele><time>2026-04-26T07:19:07.961Z</time></trkpt><trkpt lat="37.96204998541535" lon="15.128591793622087"><ele>1057.0</ele><time>2026-04-26T07:19:08.961Z</time></trkpt><trkpt lat="37.962196463026636" lon="15.12873139838102"><ele>1057.0</ele><time>2026-04-26T07:19:09.961Z</time></trkpt><trkpt lat="37.96232767086844" lon="15.128860953594149"><ele>1057.0</ele><time>2026-04-26T07:19:10.961Z</time></trkpt><trkpt lat="37.96245086659766" lon="15.128968104986319"><ele>1057.0</ele><time>2026-04-26T07:19:11.961Z</time></trkpt><trkpt lat="37.96258799651296" lon="15.129051188723079"><ele>1055.6666666666665</ele><time>2026-04-26T07:19:12.961Z</time></trkpt><trkpt lat="37.962762775881735" lon="15.12909898109019"><ele>1054.3333333333333</ele><time>2026-04-26T07:19:13.961Z</time></trkpt><trkpt lat="37.96292998471784" lon="15.129148811033502"><ele>1053.0</ele><time>2026-04-26T07:19:14.961Z</time></trkpt><trkpt lat="37.96304535870299" lon="15.129226907900794"><ele>1053.0</ele><time>2026-04-26T07:19:15.961Z</time></trkpt><trkpt lat="37.963084360844164" lon="15.129342410191096"><ele>1053.0</ele><time>2026-04-26T07:19:16.961Z</time></trkpt><trkpt lat="37.963165159883104" lon="15.1294427399603"><ele>1053.0</ele><time>2026-04-26T07:19:17.961Z</time></trkpt><trkpt lat="37.963254867341746" lon="15.129569137809968"><ele>1053.0</ele><time>2026-04-26T07:19:18.961Z</time></trkpt><trkpt lat="37.96337481052943" lon="15.129643568456547"><ele>1056.75</ele><time>2026-04-26T07:19:19.961Z</time></trkpt><trkpt lat="37.96351484012085" lon="15.129729633906514"><ele>1060.5</ele><time>2026-04-26T07:19:20.961Z</time></trkpt><trkpt lat="37.96364272869469" lon="15.129788987509325"><ele>1064.25</ele><time>2026-04-26T07:19:21.961Z</time></trkpt><trkpt lat="37.96376562402376" lon="15.129806973620738"><ele>1068.0</ele><time>2026-04-26T07:19:22.961Z</time></trkpt><trkpt lat="37.96389719540099" lon="15.129815427596007"><ele>1068.0</ele><time>2026-04-26T07:19:23.961Z</time></trkpt><trkpt lat="37.96404693580284" lon="15.129777442008292"><ele>1068.0</ele><time>2026-04-26T07:19:24.961Z</time></trkpt><trkpt lat="37.964213511137565" lon="15.129737408073849"><ele>1068.0</ele><time>2026-04-26T07:19:25.961Z</time></trkpt><trkpt lat="37.96438433870412" lon="15.129713137255623"><ele>1072.0</ele><time>2026-04-26T07:19:26.961Z</time></trkpt><trkpt lat="37.964527793102995" lon="15.129716486764856"><ele>1076.0</ele><time>2026-04-26T07:19:27.96Z</time></trkpt><trkpt lat="37.96467863726531" lon="15.129748117827223"><ele>1080.0</ele><time>2026-04-26T07:19:28.96Z</time></trkpt><trkpt lat="37.964811256839695" lon="15.129796939854842"><ele>1084.0</ele><time>2026-04-26T07:19:29.96Z</time></trkpt><trkpt lat="37.964948739488314" lon="15.129884121401165"><ele>1086.0</ele><time>2026-04-26T07:19:30.96Z</time></trkpt><trkpt lat="37.96507423029108" lon="15.129991002408811"><ele>1088.0</ele><time>2026-04-26T07:19:31.96Z</time></trkpt><trkpt lat="37.965208519335626" lon="15.130089923164258"><ele>1090.0</ele><time>2026-04-26T07:19:32.96Z</time></trkpt><trkpt lat="37.965343690227456" lon="15.130179776350184"><ele>1090.0</ele><time>2026-04-26T07:19:33.96Z</time></trkpt><trkpt lat="37.96547075498493" lon="15.13027191870356"><ele>1090.0</ele><time>2026-04-26T07:19:34.96Z</time></trkpt><trkpt lat="37.965599476664465" lon="15.1303446843982"><ele>1090.0</ele><time>2026-04-26T07:19:35.96Z</time></trkpt><trkpt lat="37.965710625017415" lon="15.130417732148425"><ele>1090.0</ele><time>2026-04-26T07:19:36.96Z</time></trkpt><trkpt lat="37.965808840723916" lon="15.130486020582861"><ele>1095.75</ele><time>2026-04-26T07:19:37.96Z</time></trkpt><trkpt lat="37.96587726411951" lon="15.130592067178736"><ele>1101.5</ele><time>2026-04-26T07:19:38.96Z</time></trkpt><trkpt lat="37.96593593253782" lon="15.13071141093043"><ele>1107.25</ele><time>2026-04-26T07:19:39.963Z</time></trkpt><trkpt lat="37.96598845236357" lon="15.130840530581196"><ele>1113.0</ele><time>2026-04-26T07:19:40.963Z</time></trkpt><trkpt lat="37.96604289530917" lon="15.130974428079318"><ele>1113.0</ele><time>2026-04-26T07:19:41.963Z</time></trkpt><trkpt lat="37.96611871357896" lon="15.131112975663537"><ele>1113.0</ele><time>2026-04-26T07:19:42.963Z</time></trkpt><trkpt lat="37.96616655938812" lon="15.131255259583948"><ele>1113.0</ele><time>2026-04-26T07:19:43.963Z</time></trkpt><trkpt lat="37.966247843709155" lon="15.131388104692396"><ele>1113.0</ele><time>2026-04-26T07:19:44.963Z</time></trkpt><trkpt lat="37.9663266458443" lon="15.131537467953763"><ele>1106.0</ele><time>2026-04-26T07:19:45.963Z</time></trkpt><trkpt lat="37.96639370546274" lon="15.131695391448403"><ele>1099.0</ele><time>2026-04-26T07:19:46.964Z</time></trkpt><trkpt lat="37.966477136663144" lon="15.131867342673669"><ele>1092.0</ele><time>2026-04-26T07:19:47.964Z</time></trkpt><trkpt lat="37.96655580760972" lon="15.132061542202319"><ele>1092.0</ele><time>2026-04-26T07:19:48.963Z</time></trkpt><trkpt lat="37.96663345343161" lon="15.132259925971775"><ele>1092.0</ele><time>2026-04-26T07:19:49.964Z</time></trkpt><trkpt lat="37.96671304778559" lon="15.13245210629682"><ele>1092.0</ele><time>2026-04-26T07:19:50.964Z</time></trkpt><trkpt lat="37.96678848388267" lon="15.13263050648345"><ele>1097.0</ele><time>2026-04-26T07:19:51.963Z</time></trkpt><trkpt lat="37.96687935483592" lon="15.132797969119105"><ele>1102.0</ele><time>2026-04-26T07:19:52.963Z</time></trkpt><trkpt lat="37.96697023779814" lon="15.132960745438963"><ele>1107.0</ele><time>2026-04-26T07:19:53.963Z</time></trkpt><trkpt lat="37.96704594910621" lon="15.133125171165716"><ele>1099.25</ele><time>2026-04-26T07:19:54.963Z</time></trkpt><trkpt lat="37.96711360273025" lon="15.133263891637124"><ele>1091.5</ele><time>2026-04-26T07:19:55.963Z</time></trkpt><trkpt lat="37.967199082861455" lon="15.133369765326025"><ele>1083.75</ele><time>2026-04-26T07:19:56.963Z</time></trkpt><trkpt lat="37.96729980354065" lon="15.133429920384941"><ele>1076.0</ele><time>2026-04-26T07:19:57.963Z</time></trkpt><trkpt lat="37.96741061946466" lon="15.133449946271968"><ele>1080.75</ele><time>2026-04-26T07:19:58.963Z</time></trkpt><trkpt lat="37.9675464862112" lon="15.133420845139387"><ele>1085.5</ele><time>2026-04-26T07:19:59.963Z</time></trkpt><trkpt lat="37.9676816885208" lon="15.133382329066837"><ele>1090.25</ele><time>2026-04-26T07:20:00.962Z</time></trkpt><trkpt lat="37.967817774493156" lon="15.133319997799383"><ele>1095.0</ele><time>2026-04-26T07:20:01.962Z</time></trkpt><trkpt lat="37.96793423515766" lon="15.133273728285742"><ele>1099.4</ele><time>2026-04-26T07:20:02.962Z</time></trkpt><trkpt lat="37.96803644017574" lon="15.133205730243146"><ele>1103.8</ele><time>2026-04-26T07:20:03.962Z</time></trkpt><trkpt lat="37.96813212074109" lon="15.133124630994187"><ele>1108.2</ele><time>2026-04-26T07:20:04.962Z</time></trkpt><trkpt lat="37.96820663464202" lon="15.133059280359877"><ele>1112.6</ele><time>2026-04-26T07:20:05.962Z</time></trkpt><trkpt lat="37.968285352261404" lon="15.133048493217286"><ele>1117.0</ele><time>2026-04-26T07:20:06.962Z</time></trkpt><trkpt lat="37.96836387643732" lon="15.13310517997488"><ele>1119.25</ele><time>2026-04-26T07:20:07.962Z</time></trkpt><trkpt lat="37.96843070568226" lon="15.13321823811187"><ele>1121.5</ele><time>2026-04-26T07:20:08.962Z</time></trkpt><trkpt lat="37.96845225809424" lon="15.133366257213186"><ele>1123.75</ele><time>2026-04-26T07:20:09.962Z</time></trkpt><trkpt lat="37.96842791197616" lon="15.133539588642323"><ele>1126.0</ele><time>2026-04-26T07:20:10.962Z</time></trkpt><trkpt lat="37.96838081518772" lon="15.133689534490616"><ele>1129.5</ele><time>2026-04-26T07:20:11.962Z</time></trkpt><trkpt lat="37.9683329937786" lon="15.133831051652178"><ele>1133.0</ele><time>2026-04-26T07:20:12.962Z</time></trkpt><trkpt lat="37.96833830335644" lon="15.133967738052437"><ele>1136.5</ele><time>2026-04-26T07:20:13.962Z</time></trkpt><trkpt lat="37.96839441713742" lon="15.134110224541352"><ele>1140.0</ele><time>2026-04-26T07:20:14.962Z</time></trkpt><trkpt lat="37.96844752311601" lon="15.134264362517921"><ele>1140.0</ele><time>2026-04-26T07:20:15.962Z</time></trkpt><trkpt lat="37.96844550289448" lon="15.134410256362372"><ele>1140.0</ele><time>2026-04-26T07:20:16.962Z</time></trkpt><trkpt lat="37.9683650029352" lon="15.134523603133431"><ele>1140.0</ele><time>2026-04-26T07:20:17.962Z</time></trkpt><trkpt lat="37.96828825263173" lon="15.134650717824956"><ele>1140.0</ele><time>2026-04-26T07:20:18.962Z</time></trkpt><trkpt lat="37.96818592406259" lon="15.134769787322892"><ele>1128.6666666666667</ele><time>2026-04-26T07:20:19.962Z</time></trkpt><trkpt lat="37.96811646530838" lon="15.134930025896661"><ele>1117.3333333333335</ele><time>2026-04-26T07:20:20.962Z</time></trkpt><trkpt lat="37.9680897087702" lon="15.135136526473092"><ele>1106.0</ele><time>2026-04-26T07:20:21.962Z</time></trkpt><trkpt lat="37.96806477856242" lon="15.135351494311202"><ele>1106.0</ele><time>2026-04-26T07:20:22.962Z</time></trkpt><trkpt lat="37.9680266652889" lon="15.135537080594792"><ele>1106.0</ele><time>2026-04-26T07:20:23.962Z</time></trkpt><trkpt lat="37.96798156212137" lon="15.135715730570238"><ele>1106.0</ele><time>2026-04-26T07:20:24.962Z</time></trkpt><trkpt lat="37.967959234062654" lon="15.135910664543196"><ele>1111.3333333333335</ele><time>2026-04-26T07:20:25.962Z</time></trkpt><trkpt lat="37.96797452511257" lon="15.136128780179959"><ele>1116.6666666666667</ele><time>2026-04-26T07:20:26.962Z</time></trkpt><trkpt lat="37.967977736838904" lon="15.136332457978096"><ele>1122.0</ele><time>2026-04-26T07:20:27.962Z</time></trkpt><trkpt lat="37.96798276525472" lon="15.136542791362118"><ele>1121.5</ele><time>2026-04-26T07:20:28.962Z</time></trkpt><trkpt lat="37.96799369011873" lon="15.136728622432717"><ele>1121.0</ele><time>2026-04-26T07:20:29.962Z</time></trkpt><trkpt lat="37.96800713092532" lon="15.136874520241948"><ele>1120.5</ele><time>2026-04-26T07:20:30.962Z</time></trkpt><trkpt lat="37.968051452330066" lon="15.136984528694704"><ele>1120.0</ele><time>2026-04-26T07:20:31.962Z</time></trkpt><trkpt lat="37.96813923992297" lon="15.137054823315989"><ele>1120.0</ele><time>2026-04-26T07:20:32.962Z</time></trkpt><trkpt lat="37.96824361175395" lon="15.137084907439927"><ele>1120.0</ele><time>2026-04-26T07:20:33.962Z</time></trkpt><trkpt lat="37.968364615015176" lon="15.137046320546599"><ele>1120.0</ele><time>2026-04-26T07:20:34.962Z</time></trkpt><trkpt lat="37.96848900006247" lon="15.13697757952591"><ele>1120.0</ele><time>2026-04-26T07:20:35.961Z</time></trkpt><trkpt lat="37.96863100942835" lon="15.136898651709673"><ele>1124.0</ele><time>2026-04-26T07:20:36.961Z</time></trkpt><trkpt lat="37.968783852427535" lon="15.136838098767129"><ele>1128.0</ele><time>2026-04-26T07:20:37.961Z</time></trkpt><trkpt lat="37.96894825438777" lon="15.13682245994529"><ele>1132.0</ele><time>2026-04-26T07:20:38.961Z</time></trkpt><trkpt lat="37.969098724731204" lon="15.136817497178907"><ele>1127.75</ele><time>2026-04-26T07:20:39.961Z</time></trkpt><trkpt lat="37.96924108271736" lon="15.136826344428357"><ele>1123.5</ele><time>2026-04-26T07:20:40.961Z</time></trkpt><trkpt lat="37.969355304852336" lon="15.136829423507292"><ele>1119.25</ele><time>2026-04-26T07:20:41.961Z</time></trkpt><trkpt lat="37.96946449050805" lon="15.13677249588909"><ele>1115.0</ele><time>2026-04-26T07:20:42.961Z</time></trkpt><trkpt lat="37.96958218318756" lon="15.136672063330142"><ele>1126.3333333333335</ele><time>2026-04-26T07:20:43.961Z</time></trkpt><trkpt lat="37.96970713648052" lon="15.136532077357803"><ele>1137.6666666666667</ele><time>2026-04-26T07:20:44.961Z</time></trkpt><trkpt lat="37.969838773786385" lon="15.136389021895"><ele>1149.0</ele><time>2026-04-26T07:20:45.961Z</time></trkpt><trkpt lat="37.969977128075314" lon="15.136263052738295"><ele>1137.0</ele><time>2026-04-26T07:20:46.961Z</time></trkpt><trkpt lat="37.97010816323534" lon="15.136095032776582"><ele>1125.0</ele><time>2026-04-26T07:20:47.961Z</time></trkpt><trkpt lat="37.970224632950135" lon="15.135932141458891"><ele>1113.0</ele><time>2026-04-26T07:20:48.961Z</time></trkpt><trkpt lat="37.97034081000086" lon="15.135763386962084"><ele>1121.6666666666667</ele><time>2026-04-26T07:20:49.961Z</time></trkpt><trkpt lat="37.970448618678425" lon="15.1356047514473"><ele>1130.3333333333335</ele><time>2026-04-26T07:20:50.961Z</time></trkpt><trkpt lat="37.970548136206226" lon="15.135449531658857"><ele>1139.0</ele><time>2026-04-26T07:20:51.961Z</time></trkpt><trkpt lat="37.97064517848613" lon="15.135275111200752"><ele>1139.0</ele><time>2026-04-26T07:20:52.961Z</time></trkpt><trkpt lat="37.97071248917378" lon="15.13509536465092"><ele>1139.0</ele><time>2026-04-26T07:20:53.961Z</time></trkpt><trkpt lat="37.97078960661756" lon="15.134949764563919"><ele>1139.0</ele><time>2026-04-26T07:20:54.961Z</time></trkpt><trkpt lat="37.97088709757327" lon="15.134835328645828"><ele>1139.0</ele><time>2026-04-26T07:20:55.961Z</time></trkpt><trkpt lat="37.97101117600136" lon="15.134753885306946"><ele>1141.8</ele><time>2026-04-26T07:20:56.961Z</time></trkpt><trkpt lat="37.97113605733644" lon="15.134699255436137"><ele>1144.6000000000001</ele><time>2026-04-26T07:20:57.961Z</time></trkpt><trkpt lat="37.971251791680466" lon="15.134652782507507"><ele>1147.4</ele><time>2026-04-26T07:20:58.961Z</time></trkpt><trkpt lat="37.97134231258286" lon="15.134595189654878"><ele>1150.2</ele><time>2026-04-26T07:20:59.961Z</time></trkpt><trkpt lat="37.971421474160714" lon="15.134593235446333"><ele>1153.0</ele><time>2026-04-26T07:21:00.961Z</time></trkpt><trkpt lat="37.971498019408706" lon="15.134638790274145"><ele>1153.0</ele><time>2026-04-26T07:21:01.961Z</time></trkpt><trkpt lat="37.97154048428259" lon="15.134723969439191"><ele>1153.0</ele><time>2026-04-26T07:21:02.961Z</time></trkpt><trkpt lat="37.97154618414875" lon="15.134842233818413"><ele>1153.0</ele><time>2026-04-26T07:21:03.961Z</time></trkpt><trkpt lat="37.971555101793385" lon="15.134975388436219"><ele>1153.0</ele><time>2026-04-26T07:21:04.961Z</time></trkpt><trkpt lat="37.97159657648581" lon="15.135125401999796"><ele>1153.0</ele><time>2026-04-26T07:21:05.961Z</time></trkpt><trkpt lat="37.971658912491755" lon="15.1352738952284"><ele>1157.75</ele><time>2026-04-26T07:21:06.961Z</time></trkpt><trkpt lat="37.97172224867061" lon="15.135416598225937"><ele>1162.5</ele><time>2026-04-26T07:21:07.961Z</time></trkpt><trkpt lat="37.971798510472425" lon="15.135514598793199"><ele>1167.25</ele><time>2026-04-26T07:21:08.961Z</time></trkpt><trkpt lat="37.971903742148434" lon="15.135575711832905"><ele>1172.0</ele><time>2026-04-26T07:21:09.961Z</time></trkpt><trkpt lat="37.97202277673412" lon="15.135656137788185"><ele>1168.5</ele><time>2026-04-26T07:21:10.961Z</time></trkpt><trkpt lat="37.97209561740021" lon="15.135764558104842"><ele>1165.0</ele><time>2026-04-26T07:21:11.96Z</time></trkpt><trkpt lat="37.97211846436477" lon="15.135904891019505"><ele>1161.5</ele><time>2026-04-26T07:21:12.96Z</time></trkpt><trkpt lat="37.972100539224115" lon="15.136049836202384"><ele>1158.0</ele><time>2026-04-26T07:21:13.96Z</time></trkpt><trkpt lat="37.972080021829704" lon="15.136192888743297"><ele>1158.0</ele><time>2026-04-26T07:21:14.96Z</time></trkpt><trkpt lat="37.97209969737087" lon="15.136318436327302"><ele>1158.0</ele><time>2026-04-26T07:21:15.96Z</time></trkpt><trkpt lat="37.9721680257155" lon="15.136430430282557"><ele>1158.0</ele><time>2026-04-26T07:21:16.96Z</time></trkpt><trkpt lat="37.97227731835453" lon="15.136490946547552"><ele>1158.0</ele><time>2026-04-26T07:21:17.96Z</time></trkpt><trkpt lat="37.97239535356708" lon="15.136496308622366"><ele>1164.6666666666667</ele><time>2026-04-26T07:21:18.96Z</time></trkpt><trkpt lat="37.97252921204705" lon="15.136467405713093"><ele>1171.3333333333335</ele><time>2026-04-26T07:21:19.96Z</time></trkpt><trkpt lat="37.97267939039278" lon="15.136484444689453"><ele>1178.0</ele><time>2026-04-26T07:21:20.96Z</time></trkpt><trkpt lat="37.97284573857573" lon="15.13653154552756"><ele>1167.6666666666667</ele><time>2026-04-26T07:21:21.96Z</time></trkpt><trkpt lat="37.97301993840828" lon="15.136582804410374"><ele>1157.3333333333333</ele><time>2026-04-26T07:21:22.96Z</time></trkpt><trkpt lat="37.97320165476067" lon="15.13660623830428"><ele>1147.0</ele><time>2026-04-26T07:21:23.96Z</time></trkpt><trkpt lat="37.97340754775786" lon="15.13661358025978"><ele>1147.0</ele><time>2026-04-26T07:21:24.96Z</time></trkpt><trkpt lat="37.97360284265716" lon="15.136608988789499"><ele>1147.0</ele><time>2026-04-26T07:21:25.96Z</time></trkpt><trkpt lat="37.97377782409081" lon="15.136620273719728"><ele>1147.0</ele><time>2026-04-26T07:21:26.96Z</time></trkpt><trkpt lat="37.973937593434314" lon="15.136639343424083"><ele>1147.0</ele><time>2026-04-26T07:21:27.96Z</time></trkpt><trkpt lat="37.97409073343694" lon="15.1366815577543"><ele>1147.0</ele><time>2026-04-26T07:21:28.96Z</time></trkpt><trkpt lat="37.97422886146004" lon="15.136756749151225"><ele>1147.0</ele><time>2026-04-26T07:21:29.96Z</time></trkpt><trkpt lat="37.97434578996126" lon="15.13688981719971"><ele>1145.6666666666665</ele><time>2026-04-26T07:21:30.96Z</time></trkpt><trkpt lat="37.9744440793252" lon="15.137078350314464"><ele>1144.3333333333333</ele><time>2026-04-26T07:21:31.96Z</time></trkpt><trkpt lat="37.97453296263647" lon="15.137241221386459"><ele>1143.0</ele><time>2026-04-26T07:21:32.96Z</time></trkpt><trkpt lat="37.97460397293925" lon="15.137393867255676"><ele>1141.0</ele><time>2026-04-26T07:21:33.96Z</time></trkpt><trkpt lat="37.97468766007317" lon="15.137488784297648"><ele>1139.0</ele><time>2026-04-26T07:21:34.96Z</time></trkpt><trkpt lat="37.97479043189783" lon="15.137537477099155"><ele>1137.0</ele><time>2026-04-26T07:21:35.96Z</time></trkpt><trkpt lat="37.974921238088804" lon="15.137570908471133"><ele>1135.0</ele><time>2026-04-26T07:21:36.96Z</time></trkpt><trkpt lat="37.97506286059659" lon="15.137598825101241"><ele>1134.0</ele><time>2026-04-26T07:21:37.96Z</time></trkpt><trkpt lat="37.9751892962547" lon="15.137658731437867"><ele>1133.0</ele><time>2026-04-26T07:21:38.96Z</time></trkpt><trkpt lat="37.975292139890506" lon="15.137752360431195"><ele>1132.0</ele><time>2026-04-26T07:21:39.96Z</time></trkpt><trkpt lat="37.97537644670729" lon="15.137844405053901"><ele>1131.0</ele><time>2026-04-26T07:21:40.96Z</time></trkpt><trkpt lat="37.975455984487624" lon="15.137914605108918"><ele>1131.0</ele><time>2026-04-26T07:21:41.96Z</time></trkpt><trkpt lat="37.975527346415284" lon="15.137974002125333"><ele>1131.0</ele><time>2026-04-26T07:21:42.96Z</time></trkpt><trkpt lat="37.975611368455105" lon="15.137999096762218"><ele>1131.0</ele><time>2026-04-26T07:21:43.96Z</time></trkpt><trkpt lat="37.97568551803374" lon="15.137999744637805"><ele>1131.0</ele><time>2026-04-26T07:21:44.96Z</time></trkpt><trkpt lat="37.975748239478285" lon="15.13802321227113"><ele>1131.0</ele><time>2026-04-26T07:21:45.963Z</time></trkpt><trkpt lat="37.97583206671948" lon="15.138038378814548"><ele>1131.0</ele><time>2026-04-26T07:21:47.963Z</time></trkpt><trkpt lat="37.975896624456304" lon="15.13806897981233"><ele>1129.2</ele><time>2026-04-26T07:21:50.963Z</time></trkpt><trkpt lat="37.976011527368875" lon="15.138066600873682"><ele>1127.3999999999999</ele><time>2026-04-26T07:21:59.963Z</time></trkpt><trkpt lat="37.97609001698564" lon="15.138109010769979"><ele>1125.6</ele><time>2026-04-26T07:22:00.963Z</time></trkpt><trkpt lat="37.97617755427306" lon="15.138177344759276"><ele>1123.8</ele><time>2026-04-26T07:22:01.963Z</time></trkpt><trkpt lat="37.976275275078386" lon="15.13825342427451"><ele>1122.0</ele><time>2026-04-26T07:22:02.963Z</time></trkpt><trkpt lat="37.97635814528826" lon="15.138344605954613"><ele>1122.0</ele><time>2026-04-26T07:22:03.963Z</time></trkpt><trkpt lat="37.97643413096983" lon="15.138467094237551"><ele>1122.0</ele><time>2026-04-26T07:22:04.963Z</time></trkpt><trkpt lat="37.97652411917109" lon="15.138575814873915"><ele>1122.0</ele><time>2026-04-26T07:22:05.963Z</time></trkpt><trkpt lat="37.97661778955212" lon="15.13866674554489"><ele>1122.0</ele><time>2026-04-26T07:22:06.963Z</time></trkpt><trkpt lat="37.97673169657942" lon="15.13872714661695"><ele>1118.75</ele><time>2026-04-26T07:22:07.963Z</time></trkpt><trkpt lat="37.976862411916464" lon="15.138761874312046"><ele>1115.5</ele><time>2026-04-26T07:22:08.963Z</time></trkpt><trkpt lat="37.9770107126895" lon="15.138777838222962"><ele>1112.25</ele><time>2026-04-26T07:22:09.963Z</time></trkpt><trkpt lat="37.97715276166768" lon="15.13880934956381"><ele>1109.0</ele><time>2026-04-26T07:22:10.963Z</time></trkpt><trkpt lat="37.977291210457594" lon="15.138850949244716"><ele>1109.0</ele><time>2026-04-26T07:22:11.963Z</time></trkpt><trkpt lat="37.97742785246803" lon="15.138896578091027"><ele>1109.0</ele><time>2026-04-26T07:22:12.963Z</time></trkpt><trkpt lat="37.97756297446551" lon="15.138960937314764"><ele>1109.0</ele><time>2026-04-26T07:22:13.963Z</time></trkpt><trkpt lat="37.97769894786685" lon="15.139058810572179"><ele>1109.0</ele><time>2026-04-26T07:22:14.963Z</time></trkpt><trkpt lat="37.97780778540329" lon="15.139152027973"><ele>1109.8</ele><time>2026-04-26T07:22:15.963Z</time></trkpt><trkpt lat="37.9779095518276" lon="15.139222396633023"><ele>1110.6000000000001</ele><time>2026-04-26T07:22:16.963Z</time></trkpt><trkpt lat="37.97800185340749" lon="15.139276252996824"><ele>1111.4</ele><time>2026-04-26T07:22:17.963Z</time></trkpt><trkpt lat="37.97807535991805" lon="15.139270192092035"><ele>1112.2</ele><time>2026-04-26T07:22:18.963Z</time></trkpt><trkpt lat="37.9781357998314" lon="15.139214671584991"><ele>1113.0</ele><time>2026-04-26T07:22:19.962Z</time></trkpt><trkpt lat="37.978164908086455" lon="15.139055034102226"><ele>1106.75</ele><time>2026-04-26T07:22:21.962Z</time></trkpt><trkpt lat="37.97807979885278" lon="15.138937252107322"><ele>1100.5</ele><time>2026-04-26T07:22:22.962Z</time></trkpt><trkpt lat="37.977959853677994" lon="15.13889671135886"><ele>1094.25</ele><time>2026-04-26T07:22:23.962Z</time></trkpt><trkpt lat="37.977828970725625" lon="15.138858310515342"><ele>1088.0</ele><time>2026-04-26T07:22:24.962Z</time></trkpt><trkpt lat="37.97769521735554" lon="15.13878784960941"><ele>1088.0</ele><time>2026-04-26T07:22:25.962Z</time></trkpt><trkpt lat="37.977587854249784" lon="15.13869996623019"><ele>1088.0</ele><time>2026-04-26T07:22:26.962Z</time></trkpt><trkpt lat="37.977476727705415" lon="15.138593887349806"><ele>1088.0</ele><time>2026-04-26T07:22:27.962Z</time></trkpt><trkpt lat="37.9773808300657" lon="15.138476356020618"><ele>1088.0</ele><time>2026-04-26T07:22:28.962Z</time></trkpt><trkpt lat="37.97727953976498" lon="15.138352326126194"><ele>1084.3333333333335</ele><time>2026-04-26T07:22:29.962Z</time></trkpt><trkpt lat="37.97716137181413" lon="15.138226482279787"><ele>1080.6666666666667</ele><time>2026-04-26T07:22:30.962Z</time></trkpt><trkpt lat="37.97702467054336" lon="15.138118741150928"><ele>1077.0</ele><time>2026-04-26T07:22:31.962Z</time></trkpt><trkpt lat="37.976900435342955" lon="15.138026705053894"><ele>1077.0</ele><time>2026-04-26T07:22:32.962Z</time></trkpt><trkpt lat="37.97679281562394" lon="15.137918283084542"><ele>1077.0</ele><time>2026-04-26T07:22:33.962Z</time></trkpt><trkpt lat="37.97670461503206" lon="15.137801450076957"><ele>1077.0</ele><time>2026-04-26T07:22:34.962Z</time></trkpt><trkpt lat="37.976624541054505" lon="15.137665813174259"><ele>1077.0</ele><time>2026-04-26T07:22:35.962Z</time></trkpt><trkpt lat="37.976535441976424" lon="15.137516946338542"><ele>1077.5</ele><time>2026-04-26T07:22:36.962Z</time></trkpt><trkpt lat="37.97644716508168" lon="15.137374752008323"><ele>1078.0</ele><time>2026-04-26T07:22:37.962Z</time></trkpt><trkpt lat="37.97635784204643" lon="15.137243842006718"><ele>1078.5</ele><time>2026-04-26T07:22:38.962Z</time></trkpt><trkpt lat="37.97628576765561" lon="15.137145548163964"><ele>1079.0</ele><time>2026-04-26T07:22:39.962Z</time></trkpt><trkpt lat="37.9762150899983" lon="15.137051216403343"><ele>1079.0</ele><time>2026-04-26T07:22:40.962Z</time></trkpt><trkpt lat="37.97617477990431" lon="15.136942335929515"><ele>1079.0</ele><time>2026-04-26T07:22:42.962Z</time></trkpt><trkpt lat="37.97625660956452" lon="15.136855117305359"><ele>1079.0</ele><time>2026-04-26T07:22:44.962Z</time></trkpt><trkpt lat="37.976343088339185" lon="15.136886208913966"><ele>1079.0</ele><time>2026-04-26T07:22:45.962Z</time></trkpt><trkpt lat="37.97642408453887" lon="15.136974733379038"><ele>1079.0</ele><time>2026-04-26T07:22:46.962Z</time></trkpt><trkpt lat="37.97651197653005" lon="15.137073501903593"><ele>1079.0</ele><time>2026-04-26T07:22:47.962Z</time></trkpt><trkpt lat="37.97660843076543" lon="15.13719187426323"><ele>1079.0</ele><time>2026-04-26T07:22:48.962Z</time></trkpt><trkpt lat="37.97671249622607" lon="15.137326349043358"><ele>1079.0</ele><time>2026-04-26T07:22:49.962Z</time></trkpt><trkpt lat="37.97683351477042" lon="15.13745898609166"><ele>1079.0</ele><time>2026-04-26T07:22:50.962Z</time></trkpt><trkpt lat="37.97695965273906" lon="15.137572071251618"><ele>1078.3333333333335</ele><time>2026-04-26T07:22:51.962Z</time></trkpt><trkpt lat="37.97709966903014" lon="15.137672929641694"><ele>1077.6666666666667</ele><time>2026-04-26T07:22:52.962Z</time></trkpt><trkpt lat="37.97723961145846" lon="15.1377416596725"><ele>1077.0</ele><time>2026-04-26T07:22:53.962Z</time></trkpt><trkpt lat="37.977378155226056" lon="15.137815681352732"><ele>1077.0</ele><time>2026-04-26T07:22:54.961Z</time></trkpt><trkpt lat="37.9775092121577" lon="15.13789484090189"><ele>1077.0</ele><time>2026-04-26T07:22:55.961Z</time></trkpt><trkpt lat="37.97766396526595" lon="15.137953371882174"><ele>1077.0</ele><time>2026-04-26T07:22:56.961Z</time></trkpt><trkpt lat="37.97783763154602" lon="15.137999974846295"><ele>1071.0</ele><time>2026-04-26T07:22:57.961Z</time></trkpt><trkpt lat="37.97802250112357" lon="15.138037438273448"><ele>1065.0</ele><time>2026-04-26T07:22:58.961Z</time></trkpt><trkpt lat="37.97818982936211" lon="15.13810230289981"><ele>1059.0</ele><time>2026-04-26T07:22:59.961Z</time></trkpt><trkpt lat="37.97835445214689" lon="15.138141232752387"><ele>1056.25</ele><time>2026-04-26T07:23:00.961Z</time></trkpt><trkpt lat="37.97851811359354" lon="15.138141243901623"><ele>1053.5</ele><time>2026-04-26T07:23:01.961Z</time></trkpt><trkpt lat="37.97866519544365" lon="15.138131751052072"><ele>1050.75</ele><time>2026-04-26T07:23:02.961Z</time></trkpt><trkpt lat="37.97879748809004" lon="15.138135761160973"><ele>1048.0</ele><time>2026-04-26T07:23:03.961Z</time></trkpt><trkpt lat="37.97890591163638" lon="15.138102757942447"><ele>1048.0</ele><time>2026-04-26T07:23:04.961Z</time></trkpt><trkpt lat="37.97901016970053" lon="15.13811214195705"><ele>1048.0</ele><time>2026-04-26T07:23:05.961Z</time></trkpt><trkpt lat="37.9791073066608" lon="15.138154651134544"><ele>1048.0</ele><time>2026-04-26T07:23:06.961Z</time></trkpt><trkpt lat="37.97917610131153" lon="15.138240114262011"><ele>1048.0</ele><time>2026-04-26T07:23:07.961Z</time></trkpt><trkpt lat="37.97921303486165" lon="15.138326939834611"><ele>1048.0</ele><time>2026-04-26T07:23:08.961Z</time></trkpt><trkpt lat="37.97926738450315" lon="15.138411356891266"><ele>1049.4</ele><time>2026-04-26T07:23:09.961Z</time></trkpt><trkpt lat="37.97934381099198" lon="15.138484802260631"><ele>1050.8</ele><time>2026-04-26T07:23:10.961Z</time></trkpt><trkpt lat="37.9794561081169" lon="15.138461821418158"><ele>1052.2</ele><time>2026-04-26T07:23:11.961Z</time></trkpt><trkpt lat="37.97956546780797" lon="15.138473776297534"><ele>1053.6</ele><time>2026-04-26T07:23:12.961Z</time></trkpt><trkpt lat="37.97966858999909" lon="15.138492595088925"><ele>1055.0</ele><time>2026-04-26T07:23:13.961Z</time></trkpt><trkpt lat="37.97973697813328" lon="15.138561155350772"><ele>1055.0</ele><time>2026-04-26T07:23:14.961Z</time></trkpt><trkpt lat="37.97976540198504" lon="15.138660744595096"><ele>1055.0</ele><time>2026-04-26T07:23:15.961Z</time></trkpt><trkpt lat="37.979754393194206" lon="15.138798779052893"><ele>1055.0</ele><time>2026-04-26T07:23:16.961Z</time></trkpt><trkpt lat="37.97973819143208" lon="15.138950694496621"><ele>1055.0</ele><time>2026-04-26T07:23:17.961Z</time></trkpt><trkpt lat="37.97974540247125" lon="15.139110082180624"><ele>1055.0</ele><time>2026-04-26T07:23:18.961Z</time></trkpt><trkpt lat="37.97977761755976" lon="15.139262310153258"><ele>1058.0</ele><time>2026-04-26T07:23:19.961Z</time></trkpt><trkpt lat="37.979829795391275" lon="15.139413595478734"><ele>1061.0</ele><time>2026-04-26T07:23:20.961Z</time></trkpt><trkpt lat="37.97989256055872" lon="15.139575990017441"><ele>1064.0</ele><time>2026-04-26T07:23:21.961Z</time></trkpt><trkpt lat="37.97993615755677" lon="15.13975036466265"><ele>1067.0</ele><time>2026-04-26T07:23:22.961Z</time></trkpt><trkpt lat="37.97998095693971" lon="15.139918539851188"><ele>1067.6666666666667</ele><time>2026-04-26T07:23:23.961Z</time></trkpt><trkpt lat="37.97998714778869" lon="15.140096136171891"><ele>1068.3333333333333</ele><time>2026-04-26T07:23:24.961Z</time></trkpt><trkpt lat="37.9799617084386" lon="15.140292664058252"><ele>1069.0</ele><time>2026-04-26T07:23:25.961Z</time></trkpt><trkpt lat="37.979932704193196" lon="15.140498845081677"><ele>1069.0</ele><time>2026-04-26T07:23:26.961Z</time></trkpt><trkpt lat="37.979928328841716" lon="15.140702658176695"><ele>1069.0</ele><time>2026-04-26T07:23:27.961Z</time></trkpt><trkpt lat="37.979921982590945" lon="15.140876906182402"><ele>1069.0</ele><time>2026-04-26T07:23:28.961Z</time></trkpt><trkpt lat="37.97992067267143" lon="15.141047731829197"><ele>1069.0</ele><time>2026-04-26T07:23:29.961Z</time></trkpt><trkpt lat="37.979929494781075" lon="15.14122102474129"><ele>1067.5</ele><time>2026-04-26T07:23:30.96Z</time></trkpt><trkpt lat="37.97992579972895" lon="15.14136830498644"><ele>1066.0</ele><time>2026-04-26T07:23:31.96Z</time></trkpt><trkpt lat="37.97991837273614" lon="15.141521698099412"><ele>1064.5</ele><time>2026-04-26T07:23:32.96Z</time></trkpt><trkpt lat="37.979916517852175" lon="15.14167004484286"><ele>1063.0</ele><time>2026-04-26T07:23:33.96Z</time></trkpt><trkpt lat="37.979923339057976" lon="15.141818710385467"><ele>1062.4</ele><time>2026-04-26T07:23:34.96Z</time></trkpt><trkpt lat="37.97993111725512" lon="15.141956791807814"><ele>1061.8</ele><time>2026-04-26T07:23:35.96Z</time></trkpt><trkpt lat="37.97997014530738" lon="15.14207042001975"><ele>1061.2</ele><time>2026-04-26T07:23:36.96Z</time></trkpt><trkpt lat="37.98004491280902" lon="15.142143843368052"><ele>1060.6</ele><time>2026-04-26T07:23:37.96Z</time></trkpt><trkpt lat="37.980150673166186" lon="15.142181458638044"><ele>1060.0</ele><time>2026-04-26T07:23:38.96Z</time></trkpt><trkpt lat="37.980279150790935" lon="15.142194064089537"><ele>1055.6</ele><time>2026-04-26T07:23:39.96Z</time></trkpt><trkpt lat="37.98040241167123" lon="15.142226895408326"><ele>1051.2</ele><time>2026-04-26T07:23:40.96Z</time></trkpt><trkpt lat="37.980508041427775" lon="15.142292985031961"><ele>1046.8</ele><time>2026-04-26T07:23:41.96Z</time></trkpt><trkpt lat="37.980576037701724" lon="15.142391862593179"><ele>1042.4</ele><time>2026-04-26T07:23:42.96Z</time></trkpt><trkpt lat="37.98060445188524" lon="15.142516291724291"><ele>1038.0</ele><time>2026-04-26T07:23:43.96Z</time></trkpt><trkpt lat="37.98060380599779" lon="15.142670648644119"><ele>1038.0</ele><time>2026-04-26T07:23:44.96Z</time></trkpt><trkpt lat="37.98055832413897" lon="15.142851782210698"><ele>1038.0</ele><time>2026-04-26T07:23:45.96Z</time></trkpt><trkpt lat="37.980502985607906" lon="15.143021965705625"><ele>1038.0</ele><time>2026-04-26T07:23:46.96Z</time></trkpt><trkpt lat="37.980466536607054" lon="15.143208007159394"><ele>1038.0</ele><time>2026-04-26T07:23:47.96Z</time></trkpt><trkpt lat="37.98048379361084" lon="15.143422921993361"><ele>1038.0</ele><time>2026-04-26T07:23:48.96Z</time></trkpt><trkpt lat="37.98051249984927" lon="15.143629538226902"><ele>1038.0</ele><time>2026-04-26T07:23:49.96Z</time></trkpt><trkpt lat="37.98054449921225" lon="15.143802293929378"><ele>1038.0</ele><time>2026-04-26T07:23:50.96Z</time></trkpt><trkpt lat="37.98052943543437" lon="15.143959365752538"><ele>1038.0</ele><time>2026-04-26T07:23:51.962Z</time></trkpt><trkpt lat="37.98048508799218" lon="15.144080806268635"><ele>1034.75</ele><time>2026-04-26T07:23:52.963Z</time></trkpt><trkpt lat="37.98042293271153" lon="15.144173880378613"><ele>1031.5</ele><time>2026-04-26T07:23:53.963Z</time></trkpt><trkpt lat="37.98033029133753" lon="15.144217536603904"><ele>1028.25</ele><time>2026-04-26T07:23:54.962Z</time></trkpt><trkpt lat="37.9801650068069" lon="15.144344288613041"><ele>1025.0</ele><time>2026-04-26T07:23:55.962Z</time></trkpt><trkpt lat="37.98009839535775" lon="15.14448226983427"><ele>1025.0</ele><time>2026-04-26T07:23:57.962Z</time></trkpt><trkpt lat="37.98016576125392" lon="15.144612109120844"><ele>1025.0</ele><time>2026-04-26T07:23:58.962Z</time></trkpt><trkpt lat="37.9802518086215" lon="15.14464234420138"><ele>1025.0</ele><time>2026-04-26T07:24:00.962Z</time></trkpt><trkpt lat="37.980330431167395" lon="15.14458946284429"><ele>1025.0</ele><time>2026-04-26T07:24:01.962Z</time></trkpt><trkpt lat="37.980405532204635" lon="15.144492039941964"><ele>1025.0</ele><time>2026-04-26T07:24:02.962Z</time></trkpt><trkpt lat="37.98049521376517" lon="15.144404328210845"><ele>1025.0</ele><time>2026-04-26T07:24:03.962Z</time></trkpt><trkpt lat="37.98059602640339" lon="15.144352097415789"><ele>1025.0</ele><time>2026-04-26T07:24:04.963Z</time></trkpt><trkpt lat="37.98072696663488" lon="15.144318087762368"><ele>1025.0</ele><time>2026-04-26T07:24:05.963Z</time></trkpt><trkpt lat="37.98085536651183" lon="15.144258247805643"><ele>1025.0</ele><time>2026-04-26T07:24:06.963Z</time></trkpt><trkpt lat="37.98096290773418" lon="15.144175980007647"><ele>1023.5</ele><time>2026-04-26T07:24:07.963Z</time></trkpt><trkpt lat="37.98105479598131" lon="15.144077648716074"><ele>1022.0</ele><time>2026-04-26T07:24:08.963Z</time></trkpt><trkpt lat="37.98115668351372" lon="15.143950841705447"><ele>1020.5</ele><time>2026-04-26T07:24:09.963Z</time></trkpt><trkpt lat="37.98126398782795" lon="15.143815658776555"><ele>1019.0</ele><time>2026-04-26T07:24:10.963Z</time></trkpt><trkpt lat="37.98136146998556" lon="15.143691312641362"><ele>1019.0</ele><time>2026-04-26T07:24:11.963Z</time></trkpt><trkpt lat="37.98145559675953" lon="15.143571319999225"><ele>1019.0</ele><time>2026-04-26T07:24:12.963Z</time></trkpt><trkpt lat="37.981545898775074" lon="15.143442769238675"><ele>1019.0</ele><time>2026-04-26T07:24:13.962Z</time></trkpt><trkpt lat="37.98161803493311" lon="15.143315813117184"><ele>1019.0</ele><time>2026-04-26T07:24:14.962Z</time></trkpt><trkpt lat="37.98168659577712" lon="15.14317415572753"><ele>1017.5</ele><time>2026-04-26T07:24:15.962Z</time></trkpt><trkpt lat="37.98172260291275" lon="15.143038888843206"><ele>1016.0</ele><time>2026-04-26T07:24:16.962Z</time></trkpt><trkpt lat="37.981717638300914" lon="15.142890535378857"><ele>1014.5</ele><time>2026-04-26T07:24:17.962Z</time></trkpt><trkpt lat="37.98168893151704" lon="15.142723764685853"><ele>1013.0</ele><time>2026-04-26T07:24:18.962Z</time></trkpt><trkpt lat="37.981646541133024" lon="15.14254729511666"><ele>1010.5</ele><time>2026-04-26T07:24:19.962Z</time></trkpt><trkpt lat="37.98159730135407" lon="15.142355725659808"><ele>1008.0</ele><time>2026-04-26T07:24:20.962Z</time></trkpt><trkpt lat="37.98154852322642" lon="15.142181357224496"><ele>1005.5</ele><time>2026-04-26T07:24:21.962Z</time></trkpt><trkpt lat="37.98149644565936" lon="15.142032328068181"><ele>1003.0</ele><time>2026-04-26T07:24:22.962Z</time></trkpt><trkpt lat="37.981425845358864" lon="15.141897541064731"><ele>1003.0</ele><time>2026-04-26T07:24:23.962Z</time></trkpt><trkpt lat="37.9813448667499" lon="15.141780069657605"><ele>1003.0</ele><time>2026-04-26T07:24:24.962Z</time></trkpt><trkpt lat="37.98129206998138" lon="15.141700264396453"><ele>1003.0</ele><time>2026-04-26T07:24:25.962Z</time></trkpt><trkpt lat="37.98127688046831" lon="15.141567513373188"><ele>1003.0</ele><time>2026-04-26T07:24:27.962Z</time></trkpt><trkpt lat="37.981341360072165" lon="15.141520258638726"><ele>1003.0</ele><time>2026-04-26T07:24:28.962Z</time></trkpt><trkpt lat="37.98142328824368" lon="15.141534165845103"><ele>1003.0</ele><time>2026-04-26T07:24:29.962Z</time></trkpt><trkpt lat="37.9814936800518" lon="15.14159908280399"><ele>1003.0</ele><time>2026-04-26T07:24:30.962Z</time></trkpt><trkpt lat="37.98154609357129" lon="15.141722985198703"><ele>1003.0</ele><time>2026-04-26T07:24:31.962Z</time></trkpt><trkpt lat="37.98159466712886" lon="15.141872817780149"><ele>1003.0</ele><time>2026-04-26T07:24:32.962Z</time></trkpt><trkpt lat="37.981653669779426" lon="15.142031747303067"><ele>998.0</ele><time>2026-04-26T07:24:33.962Z</time></trkpt><trkpt lat="37.98172968954016" lon="15.142204084688677"><ele>993.0</ele><time>2026-04-26T07:24:34.962Z</time></trkpt><trkpt lat="37.981819300512555" lon="15.142380079477967"><ele>988.0</ele><time>2026-04-26T07:24:35.962Z</time></trkpt><trkpt lat="37.981924615259224" lon="15.142551755738934"><ele>988.0</ele><time>2026-04-26T07:24:36.962Z</time></trkpt><trkpt lat="37.98202086625421" lon="15.14270993237676"><ele>988.0</ele><time>2026-04-26T07:24:37.962Z</time></trkpt><trkpt lat="37.9821174297935" lon="15.1428621934422"><ele>988.0</ele><time>2026-04-26T07:24:38.962Z</time></trkpt><trkpt lat="37.98220459205062" lon="15.143000502495749"><ele>988.0</ele><time>2026-04-26T07:24:39.962Z</time></trkpt><trkpt lat="37.982281445628246" lon="15.143127833083707"><ele>988.0</ele><time>2026-04-26T07:24:40.962Z</time></trkpt><trkpt lat="37.98236411008631" lon="15.143270970689743"><ele>988.0</ele><time>2026-04-26T07:24:41.962Z</time></trkpt><trkpt lat="37.98243686044094" lon="15.143425271635037"><ele>988.0</ele><time>2026-04-26T07:24:42.962Z</time></trkpt><trkpt lat="37.98251316856219" lon="15.143570399973939"><ele>983.75</ele><time>2026-04-26T07:24:43.962Z</time></trkpt><trkpt lat="37.982593371157854" lon="15.143706555262478"><ele>979.5</ele><time>2026-04-26T07:24:44.962Z</time></trkpt><trkpt lat="37.982670445522665" lon="15.143815755020444"><ele>975.25</ele><time>2026-04-26T07:24:45.962Z</time></trkpt><trkpt lat="37.982772988355244" lon="15.14391617321736"><ele>971.0</ele><time>2026-04-26T07:24:46.962Z</time></trkpt><trkpt lat="37.9828882070528" lon="15.144026030228915"><ele>969.75</ele><time>2026-04-26T07:24:47.962Z</time></trkpt><trkpt lat="37.983021621454576" lon="15.144106231337462"><ele>968.5</ele><time>2026-04-26T07:24:48.961Z</time></trkpt><trkpt lat="37.98315882601813" lon="15.144196099528259"><ele>967.25</ele><time>2026-04-26T07:24:49.961Z</time></trkpt><trkpt lat="37.98327992306492" lon="15.144271601844853"><ele>966.0</ele><time>2026-04-26T07:24:50.961Z</time></trkpt><trkpt lat="37.98339782931207" lon="15.14434091525416"><ele>966.0</ele><time>2026-04-26T07:24:51.961Z</time></trkpt><trkpt lat="37.98351064778003" lon="15.144408945160063"><ele>965.9999999999999</ele><time>2026-04-26T07:24:52.961Z</time></trkpt><trkpt lat="37.983591851163546" lon="15.144479913258133"><ele>965.9999999999999</ele><time>2026-04-26T07:24:53.961Z</time></trkpt><trkpt lat="37.98365845390103" lon="15.144575658609266"><ele>966.0</ele><time>2026-04-26T07:24:54.961Z</time></trkpt><trkpt lat="37.98369036766765" lon="15.144697062609016"><ele>966.0</ele><time>2026-04-26T07:24:55.961Z</time></trkpt><trkpt lat="37.98370174311734" lon="15.144846214981468"><ele>968.4</ele><time>2026-04-26T07:24:56.961Z</time></trkpt><trkpt lat="37.983719563299665" lon="15.14499636418746"><ele>970.8</ele><time>2026-04-26T07:24:57.961Z</time></trkpt><trkpt lat="37.98374232154643" lon="15.145137909206568"><ele>973.1999999999999</ele><time>2026-04-26T07:24:58.961Z</time></trkpt><trkpt lat="37.98379755635757" lon="15.145256443080974"><ele>975.5999999999999</ele><time>2026-04-26T07:24:59.961Z</time></trkpt><trkpt lat="37.98386924963082" lon="15.145329869304186"><ele>978.0</ele><time>2026-04-26T07:25:00.961Z</time></trkpt><trkpt lat="37.983922098828074" lon="15.145386318144132"><ele>978.0</ele><time>2026-04-26T07:25:01.961Z</time></trkpt><trkpt lat="37.98401058305685" lon="15.14543182035139"><ele>978.0</ele><time>2026-04-26T07:25:02.961Z</time></trkpt><trkpt lat="37.98411841655654" lon="15.14543872874305"><ele>978.0</ele><time>2026-04-26T07:25:03.961Z</time></trkpt><trkpt lat="37.984196260062554" lon="15.145431544102838"><ele>978.0</ele><time>2026-04-26T07:25:04.961Z</time></trkpt><trkpt lat="37.98429789245586" lon="15.145422163846108"><ele>978.0</ele><time>2026-04-26T07:25:05.961Z</time></trkpt><trkpt lat="37.98439408474671" lon="15.145413285687"><ele>973.0</ele><time>2026-04-26T07:25:06.961Z</time></trkpt><trkpt lat="37.984509502643405" lon="15.145411340637986"><ele>968.0</ele><time>2026-04-26T07:25:08.961Z</time></trkpt><trkpt lat="37.9848600039157" lon="15.145632935641169"><ele>969.5999999999999</ele><time>2026-04-26T07:25:09.961Z</time></trkpt><trkpt lat="37.984934203366414" lon="15.145744234204452"><ele>971.1999999999999</ele><time>2026-04-26T07:25:10.961Z</time></trkpt><trkpt lat="37.98500760829208" lon="15.145827584359532"><ele>972.8</ele><time>2026-04-26T07:25:11.961Z</time></trkpt><trkpt lat="37.98506784200333" lon="15.145905033586265"><ele>974.4</ele><time>2026-04-26T07:25:12.961Z</time></trkpt><trkpt lat="37.98514744168195" lon="15.145968085930887"><ele>976.0</ele><time>2026-04-26T07:25:14.961Z</time></trkpt><trkpt lat="37.98519977231642" lon="15.146024148875078"><ele>976.5999999999999</ele><time>2026-04-26T07:25:16.961Z</time></trkpt><trkpt lat="37.98527059643133" lon="15.146152404494373"><ele>977.1999999999999</ele><time>2026-04-26T07:26:32.961Z</time></trkpt><trkpt lat="37.98530920598001" lon="15.146235317193288"><ele>977.8000000000001</ele><time>2026-04-26T07:26:33.961Z</time></trkpt><trkpt lat="37.98536556942071" lon="15.146323998677007"><ele>978.4000000000001</ele><time>2026-04-26T07:26:34.961Z</time></trkpt><trkpt lat="37.985448570262186" lon="15.146415016854913"><ele>979.0</ele><time>2026-04-26T07:26:35.961Z</time></trkpt><trkpt lat="37.98552407759641" lon="15.146495729727851"><ele>979.0</ele><time>2026-04-26T07:26:36.961Z</time></trkpt><trkpt lat="37.985597988172934" lon="15.14658156140943"><ele>979.0000000000001</ele><time>2026-04-26T07:26:37.961Z</time></trkpt><trkpt lat="37.98566093209289" lon="15.14666812240265"><ele>979.0000000000001</ele><time>2026-04-26T07:26:38.961Z</time></trkpt><trkpt lat="37.985712614088065" lon="15.146757170242905"><ele>979.0</ele><time>2026-04-26T07:26:39.961Z</time></trkpt><trkpt lat="37.98574931607346" lon="15.146853620320362"><ele>979.0</ele><time>2026-04-26T07:26:40.961Z</time></trkpt><trkpt lat="37.98577246475793" lon="15.14696993020027"><ele>979.0</ele><time>2026-04-26T07:26:41.961Z</time></trkpt><trkpt lat="37.985781381952485" lon="15.147096775615674"><ele>979.0000000000001</ele><time>2026-04-26T07:26:42.961Z</time></trkpt><trkpt lat="37.98576462153895" lon="15.14723743943996"><ele>979.0000000000001</ele><time>2026-04-26T07:26:43.961Z</time></trkpt><trkpt lat="37.98576013656986" lon="15.14737788034309"><ele>979.0</ele><time>2026-04-26T07:26:44.961Z</time></trkpt><trkpt lat="37.98575146832577" lon="15.147524393671125"><ele>979.0</ele><time>2026-04-26T07:26:45.961Z</time></trkpt><trkpt lat="37.985747515400256" lon="15.147664799610974"><ele>976.0</ele><time>2026-04-26T07:26:46.961Z</time></trkpt><trkpt lat="37.98577089732936" lon="15.14780158158094"><ele>973.0</ele><time>2026-04-26T07:26:47.961Z</time></trkpt><trkpt lat="37.985787793363684" lon="15.147949458900811"><ele>970.0</ele><time>2026-04-26T07:26:48.961Z</time></trkpt><trkpt lat="37.9858115835288" lon="15.148109313592672"><ele>967.0</ele><time>2026-04-26T07:26:49.961Z</time></trkpt><trkpt lat="37.985833885827624" lon="15.148254660177148"><ele>965.5</ele><time>2026-04-26T07:26:50.961Z</time></trkpt><trkpt lat="37.98580516906404" lon="15.148390349977639"><ele>964.0</ele><time>2026-04-26T07:26:51.961Z</time></trkpt><trkpt lat="37.985781166043246" lon="15.148558010511882"><ele>962.5</ele><time>2026-04-26T07:26:52.961Z</time></trkpt><trkpt lat="37.985740393724086" lon="15.148708887891297"><ele>961.0</ele><time>2026-04-26T07:26:53.961Z</time></trkpt><trkpt lat="37.98569755453502" lon="15.148866326386578"><ele>961.0</ele><time>2026-04-26T07:26:54.961Z</time></trkpt><trkpt lat="37.98565181306037" lon="15.149013160410775"><ele>960.9999999999999</ele><time>2026-04-26T07:26:55.961Z</time></trkpt><trkpt lat="37.98561208064233" lon="15.149157678433928"><ele>960.9999999999999</ele><time>2026-04-26T07:26:56.961Z</time></trkpt><trkpt lat="37.98557795275898" lon="15.14927900716926"><ele>961.0</ele><time>2026-04-26T07:26:57.961Z</time></trkpt><trkpt lat="37.98554958436749" lon="15.149369660847832"><ele>961.0</ele><time>2026-04-26T07:26:58.961Z</time></trkpt><trkpt lat="37.98555262213835" lon="15.14946263034917"><ele>960.4</ele><time>2026-04-26T07:26:59.961Z</time></trkpt><trkpt lat="37.985602332463934" lon="15.149545114255275"><ele>959.8</ele><time>2026-04-26T07:27:00.961Z</time></trkpt><trkpt lat="37.98570205359944" lon="15.149577710030936"><ele>959.1999999999999</ele><time>2026-04-26T07:27:01.961Z</time></trkpt><trkpt lat="37.98581162165366" lon="15.149575493533554"><ele>958.5999999999999</ele><time>2026-04-26T07:27:02.96Z</time></trkpt><trkpt lat="37.985927928992965" lon="15.149555303219781"><ele>958.0</ele><time>2026-04-26T07:27:03.96Z</time></trkpt><trkpt lat="37.98604884067022" lon="15.149548357993202"><ele>958.0</ele><time>2026-04-26T07:27:04.96Z</time></trkpt><trkpt lat="37.986146628894026" lon="15.14954839849528"><ele>958.0</ele><time>2026-04-26T07:27:05.96Z</time></trkpt><trkpt lat="37.98621652712671" lon="15.149578383984403"><ele>958.0</ele><time>2026-04-26T07:27:06.96Z</time></trkpt><trkpt lat="37.98626433058409" lon="15.149666994477952"><ele>958.0</ele><time>2026-04-26T07:27:08.96Z</time></trkpt><trkpt lat="37.98614378749475" lon="15.14973219141837"><ele>958.0</ele><time>2026-04-26T07:27:10.96Z</time></trkpt><trkpt lat="37.98605111168058" lon="15.149681565365084"><ele>958.0</ele><time>2026-04-26T07:27:11.96Z</time></trkpt><trkpt lat="37.985947928770905" lon="15.149679421174236"><ele>958.0</ele><time>2026-04-26T07:27:12.96Z</time></trkpt><trkpt lat="37.98583653420685" lon="15.149709344586151"><ele>958.0</ele><time>2026-04-26T07:27:13.96Z</time></trkpt><trkpt lat="37.98570441373654" lon="15.14973721638074"><ele>958.0</ele><time>2026-04-26T07:27:14.96Z</time></trkpt><trkpt lat="37.985558132601135" lon="15.149758699622293"><ele>957.5</ele><time>2026-04-26T07:27:15.96Z</time></trkpt><trkpt lat="37.9854263894793" lon="15.149811018355416"><ele>957.0</ele><time>2026-04-26T07:27:16.96Z</time></trkpt><trkpt lat="37.985293132703944" lon="15.149864984238475"><ele>956.5</ele><time>2026-04-26T07:27:17.96Z</time></trkpt><trkpt lat="37.98517437814219" lon="15.149902667427359"><ele>956.0</ele><time>2026-04-26T07:27:18.96Z</time></trkpt><trkpt lat="37.985065138359055" lon="15.1499089285137"><ele>950.6666666666667</ele><time>2026-04-26T07:27:19.96Z</time></trkpt><trkpt lat="37.984980015040854" lon="15.149900561004571"><ele>945.3333333333334</ele><time>2026-04-26T07:27:20.96Z</time></trkpt><trkpt lat="37.984913101709076" lon="15.149898670791641"><ele>940.0</ele><time>2026-04-26T07:27:21.96Z</time></trkpt><trkpt lat="37.98486313987184" lon="15.14995109687753"><ele>934.6666666666667</ele><time>2026-04-26T07:27:22.96Z</time></trkpt><trkpt lat="37.98486844467937" lon="15.150036040727716"><ele>929.3333333333334</ele><time>2026-04-26T07:27:23.96Z</time></trkpt><trkpt lat="37.98491199703009" lon="15.150131166056154"><ele>924.0</ele><time>2026-04-26T07:27:24.96Z</time></trkpt><trkpt lat="37.98499547081579" lon="15.150151946593175"><ele>927.25</ele><time>2026-04-26T07:27:25.96Z</time></trkpt><trkpt lat="37.98509164230352" lon="15.150132853494743"><ele>930.5</ele><time>2026-04-26T07:27:26.96Z</time></trkpt><trkpt lat="37.985205788609996" lon="15.15011879678007"><ele>933.75</ele><time>2026-04-26T07:27:27.96Z</time></trkpt><trkpt lat="37.98532042416711" lon="15.150104265277026"><ele>937.0</ele><time>2026-04-26T07:27:28.96Z</time></trkpt><trkpt lat="37.98544412586155" lon="15.150057272547162"><ele>937.0</ele><time>2026-04-26T07:27:29.96Z</time></trkpt><trkpt lat="37.9855561604078" lon="15.150052077465258"><ele>937.0</ele><time>2026-04-26T07:27:30.96Z</time></trkpt><trkpt lat="37.98568761939405" lon="15.150102949353979"><ele>937.0</ele><time>2026-04-26T07:27:31.96Z</time></trkpt><trkpt lat="37.985806701006275" lon="15.150158521830033"><ele>937.0</ele><time>2026-04-26T07:27:32.96Z</time></trkpt><trkpt lat="37.98588451329634" lon="15.150199939106544"><ele>937.0</ele><time>2026-04-26T07:27:33.96Z</time></trkpt><trkpt lat="37.98593266036122" lon="15.150269621622998"><ele>937.0</ele><time>2026-04-26T07:27:35.96Z</time></trkpt><trkpt lat="37.98588785737833" lon="15.150340944150132"><ele>937.0</ele><time>2026-04-26T07:27:36.96Z</time></trkpt><trkpt lat="37.98580087762114" lon="15.150369236891054"><ele>937.0</ele><time>2026-04-26T07:27:37.96Z</time></trkpt><trkpt lat="37.98569563369427" lon="15.150288995993492"><ele>937.0</ele><time>2026-04-26T07:27:38.959Z</time></trkpt><trkpt lat="37.98558271925105" lon="15.150254544045055"><ele>937.0</ele><time>2026-04-26T07:27:39.959Z</time></trkpt><trkpt lat="37.98545571929538" lon="15.150257557199692"><ele>937.0</ele><time>2026-04-26T07:27:40.959Z</time></trkpt><trkpt lat="37.98530421920488" lon="15.150283337108302"><ele>937.0</ele><time>2026-04-26T07:27:41.959Z</time></trkpt><trkpt lat="37.985150123209834" lon="15.150378143833429"><ele>932.6666666666666</ele><time>2026-04-26T07:27:42.959Z</time></trkpt><trkpt lat="37.98499134854235" lon="15.150509339258925"><ele>928.3333333333333</ele><time>2026-04-26T07:27:43.959Z</time></trkpt><trkpt lat="37.98483666912742" lon="15.150581526125956"><ele>924.0</ele><time>2026-04-26T07:27:44.959Z</time></trkpt><trkpt lat="37.98471429221843" lon="15.150655023733856"><ele>924.0</ele><time>2026-04-26T07:27:45.959Z</time></trkpt><trkpt lat="37.98460342451238" lon="15.150683786082581"><ele>924.0000000000001</ele><time>2026-04-26T07:27:46.959Z</time></trkpt><trkpt lat="37.98450653847471" lon="15.150707934770509"><ele>924.0000000000001</ele><time>2026-04-26T07:27:47.959Z</time></trkpt><trkpt lat="37.98442772025292" lon="15.150717624340295"><ele>924.0</ele><time>2026-04-26T07:27:48.959Z</time></trkpt><trkpt lat="37.9843560051034" lon="15.1508408887579"><ele>924.0</ele><time>2026-04-26T07:27:50.959Z</time></trkpt><trkpt lat="37.98447116687713" lon="15.150975058609"><ele>919.5</ele><time>2026-04-26T07:27:52.959Z</time></trkpt><trkpt lat="37.98457549217235" lon="15.150983063654383"><ele>915.0</ele><time>2026-04-26T07:27:53.959Z</time></trkpt><trkpt lat="37.984693442401316" lon="15.15092971909877"><ele>910.5</ele><time>2026-04-26T07:27:54.959Z</time></trkpt><trkpt lat="37.98482468435572" lon="15.150862723483353"><ele>906.0</ele><time>2026-04-26T07:27:55.959Z</time></trkpt><trkpt lat="37.98498736195747" lon="15.150873881971423"><ele>906.25</ele><time>2026-04-26T07:27:56.959Z</time></trkpt><trkpt lat="37.98513070590289" lon="15.150858700753822"><ele>906.5</ele><time>2026-04-26T07:27:57.959Z</time></trkpt><trkpt lat="37.98525822438166" lon="15.150885164913248"><ele>906.75</ele><time>2026-04-26T07:27:58.959Z</time></trkpt><trkpt lat="37.98538111284665" lon="15.150960668622254"><ele>907.0</ele><time>2026-04-26T07:27:59.959Z</time></trkpt><trkpt lat="37.98550808127392" lon="15.151041764030364"><ele>907.0</ele><time>2026-04-26T07:28:00.959Z</time></trkpt><trkpt lat="37.985625204474594" lon="15.151110700788953"><ele>907.0</ele><time>2026-04-26T07:28:01.959Z</time></trkpt><trkpt lat="37.985724299541424" lon="15.151168210063476"><ele>907.0</ele><time>2026-04-26T07:28:02.962Z</time></trkpt><trkpt lat="37.98578260357965" lon="15.1512147556452"><ele>907.0</ele><time>2026-04-26T07:28:03.962Z</time></trkpt><trkpt lat="37.98582415029739" lon="15.151287925157893"><ele>907.0</ele><time>2026-04-26T07:28:05.962Z</time></trkpt><trkpt lat="37.985742086119664" lon="15.151359402605747"><ele>907.0</ele><time>2026-04-26T07:28:06.962Z</time></trkpt><trkpt lat="37.985641187409904" lon="15.151338351375722"><ele>907.0</ele><time>2026-04-26T07:28:07.962Z</time></trkpt><trkpt lat="37.98554885751617" lon="15.151213870507712"><ele>907.0</ele><time>2026-04-26T07:28:08.962Z</time></trkpt><trkpt lat="37.985433764745764" lon="15.15117116692795"><ele>907.0</ele><time>2026-04-26T07:28:09.962Z</time></trkpt><trkpt lat="37.98532438926752" lon="15.151169175514864"><ele>907.0</ele><time>2026-04-26T07:28:10.962Z</time></trkpt><trkpt lat="37.985209917339816" lon="15.151167520608805"><ele>907.0</ele><time>2026-04-26T07:28:11.962Z</time></trkpt><trkpt lat="37.98510078371055" lon="15.15119380736927"><ele>907.0</ele><time>2026-04-26T07:28:12.962Z</time></trkpt><trkpt lat="37.984974169275716" lon="15.151273178369356"><ele>907.0</ele><time>2026-04-26T07:28:13.962Z</time></trkpt><trkpt lat="37.98485879991354" lon="15.151386306618486"><ele>906.75</ele><time>2026-04-26T07:28:14.962Z</time></trkpt><trkpt lat="37.984727062804545" lon="15.151487027451587"><ele>906.5</ele><time>2026-04-26T07:28:15.962Z</time></trkpt><trkpt lat="37.984609411739136" lon="15.151575252299487"><ele>906.25</ele><time>2026-04-26T07:28:16.962Z</time></trkpt><trkpt lat="37.98448103389096" lon="15.151630189648225"><ele>906.0</ele><time>2026-04-26T07:28:17.962Z</time></trkpt><trkpt lat="37.984387603505866" lon="15.151663310257337"><ele>902.0</ele><time>2026-04-26T07:28:18.962Z</time></trkpt><trkpt lat="37.9843354261553" lon="15.151754062486644"><ele>898.0</ele><time>2026-04-26T07:28:20.962Z</time></trkpt><trkpt lat="37.9843681108369" lon="15.15182905364417"><ele>894.0</ele><time>2026-04-26T07:28:21.962Z</time></trkpt><trkpt lat="37.984428954899585" lon="15.15188708549411"><ele>890.0</ele><time>2026-04-26T07:28:22.962Z</time></trkpt><trkpt lat="37.9844941437074" lon="15.151914111650319"><ele>886.0</ele><time>2026-04-26T07:28:23.961Z</time></trkpt><trkpt lat="37.98460021766686" lon="15.151830753236249"><ele>882.0</ele><time>2026-04-26T07:28:24.961Z</time></trkpt><trkpt lat="37.98470540190374" lon="15.1517300916833"><ele>882.0</ele><time>2026-04-26T07:28:25.961Z</time></trkpt><trkpt lat="37.98481641320584" lon="15.151668353877213"><ele>882.0</ele><time>2026-04-26T07:28:26.961Z</time></trkpt><trkpt lat="37.984923290592036" lon="15.151606609820297"><ele>882.0</ele><time>2026-04-26T07:28:27.961Z</time></trkpt><trkpt lat="37.98504900371188" lon="15.151559291701593"><ele>882.0</ele><time>2026-04-26T07:28:28.961Z</time></trkpt><trkpt lat="37.98515999503668" lon="15.15154498018512"><ele>881.5</ele><time>2026-04-26T07:28:29.961Z</time></trkpt><trkpt lat="37.985270283500356" lon="15.15155325307047"><ele>881.0</ele><time>2026-04-26T07:28:30.961Z</time></trkpt><trkpt lat="37.985389519080094" lon="15.151612113411893"><ele>880.5</ele><time>2026-04-26T07:28:31.961Z</time></trkpt><trkpt lat="37.985520894590564" lon="15.151676385319327"><ele>880.0</ele><time>2026-04-26T07:28:32.961Z</time></trkpt><trkpt lat="37.98560356892578" lon="15.151723723922732"><ele>879.9999999999999</ele><time>2026-04-26T07:28:33.961Z</time></trkpt><trkpt lat="37.985657303303626" lon="15.151822618928287"><ele>880.0</ele><time>2026-04-26T07:28:35.961Z</time></trkpt><trkpt lat="37.98561191894289" lon="15.151907810537349"><ele>880.0</ele><time>2026-04-26T07:28:36.961Z</time></trkpt><trkpt lat="37.98552912529739" lon="15.151921502662397"><ele>880.0</ele><time>2026-04-26T07:28:37.961Z</time></trkpt><trkpt lat="37.98546023440828" lon="15.151844856047509"><ele>879.9999999999999</ele><time>2026-04-26T07:28:38.961Z</time></trkpt><trkpt lat="37.985413043616354" lon="15.151738618022176"><ele>880.0</ele><time>2026-04-26T07:28:39.961Z</time></trkpt><trkpt lat="37.98533043752164" lon="15.151677440453549"><ele>880.0</ele><time>2026-04-26T07:28:40.961Z</time></trkpt><trkpt lat="37.98523957365783" lon="15.151662474248637"><ele>880.0</ele><time>2026-04-26T07:28:41.961Z</time></trkpt><trkpt lat="37.98513825208532" lon="15.151683205245453"><ele>880.0</ele><time>2026-04-26T07:28:42.961Z</time></trkpt><trkpt lat="37.98503354221912" lon="15.151759672123328"><ele>880.0</ele><time>2026-04-26T07:28:43.961Z</time></trkpt><trkpt lat="37.98494023761327" lon="15.151860245699876"><ele>880.0</ele><time>2026-04-26T07:28:44.961Z</time></trkpt><trkpt lat="37.98484066640128" lon="15.151989396537479"><ele>880.5</ele><time>2026-04-26T07:28:45.961Z</time></trkpt><trkpt lat="37.98473674923562" lon="15.152092980179777"><ele>881.0</ele><time>2026-04-26T07:28:46.961Z</time></trkpt><trkpt lat="37.984625910576376" lon="15.152157885386615"><ele>881.5</ele><time>2026-04-26T07:28:47.961Z</time></trkpt><trkpt lat="37.98452725197278" lon="15.15221457854335"><ele>882.0</ele><time>2026-04-26T07:28:48.961Z</time></trkpt><trkpt lat="37.98442855957245" lon="15.152266975160122"><ele>882.0</ele><time>2026-04-26T07:28:49.961Z</time></trkpt><trkpt lat="37.984312219475015" lon="15.15229153845419"><ele>882.0</ele><time>2026-04-26T07:28:50.961Z</time></trkpt><trkpt lat="37.984189580448074" lon="15.152306867862414"><ele>882.0</ele><time>2026-04-26T07:28:51.961Z</time></trkpt><trkpt lat="37.984070996251695" lon="15.152309065011725"><ele>882.0</ele><time>2026-04-26T07:28:52.961Z</time></trkpt><trkpt lat="37.98395103467495" lon="15.152309367735564"><ele>881.6</ele><time>2026-04-26T07:28:53.961Z</time></trkpt><trkpt lat="37.983836896018154" lon="15.152308521381936"><ele>881.2</ele><time>2026-04-26T07:28:54.961Z</time></trkpt><trkpt lat="37.98375070902525" lon="15.1523095906656"><ele>880.8</ele><time>2026-04-26T07:28:55.961Z</time></trkpt><trkpt lat="37.983687685416385" lon="15.152324361016346"><ele>880.4</ele><time>2026-04-26T07:28:56.961Z</time></trkpt><trkpt lat="37.983680107617296" lon="15.152489041118663"><ele>880.0</ele><time>2026-04-26T07:28:58.96Z</time></trkpt><trkpt lat="37.98373658983973" lon="15.152566781226977"><ele>874.25</ele><time>2026-04-26T07:28:59.96Z</time></trkpt><trkpt lat="37.98383531040042" lon="15.152600627015616"><ele>868.5</ele><time>2026-04-26T07:29:00.96Z</time></trkpt><trkpt lat="37.98398138897371" lon="15.152592364277305"><ele>862.75</ele><time>2026-04-26T07:29:01.96Z</time></trkpt><trkpt lat="37.98411897088051" lon="15.152595414845818"><ele>857.0</ele><time>2026-04-26T07:29:02.96Z</time></trkpt><trkpt lat="37.98426116651895" lon="15.152601854416538"><ele>855.5</ele><time>2026-04-26T07:29:03.96Z</time></trkpt><trkpt lat="37.98440945208783" lon="15.15261232090862"><ele>854.0</ele><time>2026-04-26T07:29:04.96Z</time></trkpt><trkpt lat="37.98455830306241" lon="15.152600893453492"><ele>852.5</ele><time>2026-04-26T07:29:05.96Z</time></trkpt><trkpt lat="37.98467893474569" lon="15.152567497488107"><ele>851.0</ele><time>2026-04-26T07:29:06.96Z</time></trkpt><trkpt lat="37.98479376653949" lon="15.152523044009433"><ele>851.0000000000001</ele><time>2026-04-26T07:29:07.96Z</time></trkpt><trkpt lat="37.98488092882211" lon="15.152495427988308"><ele>851.0</ele><time>2026-04-26T07:29:08.96Z</time></trkpt><trkpt lat="37.98496195137996" lon="15.15249611634569"><ele>851.0</ele><time>2026-04-26T07:29:10.96Z</time></trkpt><trkpt lat="37.984937548671134" lon="15.152602640984608"><ele>851.0</ele><time>2026-04-26T07:29:12.96Z</time></trkpt><trkpt lat="37.98487415179288" lon="15.152650938747916"><ele>851.0000000000001</ele><time>2026-04-26T07:29:13.96Z</time></trkpt><trkpt lat="37.98477779611428" lon="15.152658943240391"><ele>851.0</ele><time>2026-04-26T07:29:14.96Z</time></trkpt><trkpt lat="37.98467028142665" lon="15.152711616314356"><ele>851.0</ele><time>2026-04-26T07:29:15.96Z</time></trkpt><trkpt lat="37.984564065886" lon="15.152791462658294"><ele>851.0</ele><time>2026-04-26T07:29:16.96Z</time></trkpt><trkpt lat="37.98445819291013" lon="15.152864700895977"><ele>851.0</ele><time>2026-04-26T07:29:17.96Z</time></trkpt><trkpt lat="37.98433831524799" lon="15.152918194587308"><ele>851.0</ele><time>2026-04-26T07:29:18.96Z</time></trkpt><trkpt lat="37.984201308097944" lon="15.152961273070702"><ele>852.5</ele><time>2026-04-26T07:29:19.96Z</time></trkpt><trkpt lat="37.984063313883055" lon="15.153003715740198"><ele>854.0</ele><time>2026-04-26T07:29:20.96Z</time></trkpt><trkpt lat="37.98393479037969" lon="15.153051523905273"><ele>855.5</ele><time>2026-04-26T07:29:21.96Z</time></trkpt><trkpt lat="37.98381345352842" lon="15.1530964103835"><ele>857.0</ele><time>2026-04-26T07:29:22.96Z</time></trkpt><trkpt lat="37.98371221134388" lon="15.153166819732931"><ele>850.75</ele><time>2026-04-26T07:29:23.96Z</time></trkpt><trkpt lat="37.98362938310341" lon="15.153264099039681"><ele>844.5</ele><time>2026-04-26T07:29:24.96Z</time></trkpt><trkpt lat="37.9835355025208" lon="15.153393839674418"><ele>838.25</ele><time>2026-04-26T07:29:25.96Z</time></trkpt><trkpt lat="37.98346211540229" lon="15.153501854363615"><ele>832.0</ele><time>2026-04-26T07:29:26.96Z</time></trkpt><trkpt lat="37.9833916505041" lon="15.153588502436591"><ele>832.8</ele><time>2026-04-26T07:29:27.96Z</time></trkpt><trkpt lat="37.9833259004978" lon="15.15365672644433"><ele>833.6</ele><time>2026-04-26T07:29:28.96Z</time></trkpt><trkpt lat="37.98324239912009" lon="15.153652874164875"><ele>834.4</ele><time>2026-04-26T07:29:29.96Z</time></trkpt><trkpt lat="37.983139237502094" lon="15.153607726773448"><ele>835.1999999999999</ele><time>2026-04-26T07:29:30.96Z</time></trkpt><trkpt lat="37.983060280462205" lon="15.153512464529067"><ele>836.0</ele><time>2026-04-26T07:29:31.96Z</time></trkpt><trkpt lat="37.9830213142577" lon="15.153392723088334"><ele>836.0</ele><time>2026-04-26T07:29:32.96Z</time></trkpt><trkpt lat="37.9829734160881" lon="15.15327419973264"><ele>836.0</ele><time>2026-04-26T07:29:33.96Z</time></trkpt><trkpt lat="37.98293199462322" lon="15.153196918401258"><ele>836.0</ele><time>2026-04-26T07:29:34.959Z</time></trkpt><trkpt lat="37.98283559015806" lon="15.153162576487947"><ele>836.0</ele><time>2026-04-26T07:29:36.959Z</time></trkpt><trkpt lat="37.982793753379084" lon="15.153271796097744"><ele>836.0</ele><time>2026-04-26T07:29:37.959Z</time></trkpt><trkpt lat="37.98281779436537" lon="15.15340461973825"><ele>836.0</ele><time>2026-04-26T07:29:38.959Z</time></trkpt><trkpt lat="37.98289359201174" lon="15.153535044937476"><ele>836.0</ele><time>2026-04-26T07:29:39.959Z</time></trkpt><trkpt lat="37.98299970278955" lon="15.15367457377759"><ele>836.0</ele><time>2026-04-26T07:29:40.959Z</time></trkpt><trkpt lat="37.98306628101254" lon="15.153808958040708"><ele>836.0</ele><time>2026-04-26T07:29:41.959Z</time></trkpt><trkpt lat="37.983124279291665" lon="15.153915301379714"><ele>836.0</ele><time>2026-04-26T07:29:42.959Z</time></trkpt><trkpt lat="37.98320140357216" lon="15.153995397592462"><ele>836.0</ele><time>2026-04-26T07:29:43.959Z</time></trkpt><trkpt lat="37.983286206199885" lon="15.154047599370033"><ele>836.0</ele><time>2026-04-26T07:29:44.959Z</time></trkpt><trkpt lat="37.983398692210685" lon="15.154060374806404"><ele>836.0</ele><time>2026-04-26T07:29:45.959Z</time></trkpt><trkpt lat="37.98352557952054" lon="15.15403226034293"><ele>836.0</ele><time>2026-04-26T07:29:46.959Z</time></trkpt><trkpt lat="37.9836550381594" lon="15.154025987736263"><ele>835.0</ele><time>2026-04-26T07:29:47.959Z</time></trkpt><trkpt lat="37.98378268217788" lon="15.15402751217605"><ele>834.0</ele><time>2026-04-26T07:29:48.959Z</time></trkpt><trkpt lat="37.98391010134206" lon="15.15403153361273"><ele>833.0</ele><time>2026-04-26T07:29:49.959Z</time></trkpt><trkpt lat="37.98401796806945" lon="15.154006621740335"><ele>832.0</ele><time>2026-04-26T07:29:50.959Z</time></trkpt><trkpt lat="37.98412823014119" lon="15.15393976479196"><ele>830.0</ele><time>2026-04-26T07:29:51.959Z</time></trkpt><trkpt lat="37.98424082173596" lon="15.153841378462976"><ele>828.0</ele><time>2026-04-26T07:29:52.959Z</time></trkpt><trkpt lat="37.984343376756776" lon="15.153756607282121"><ele>826.0</ele><time>2026-04-26T07:29:53.959Z</time></trkpt><trkpt lat="37.984431801416925" lon="15.153714317517881"><ele>824.0</ele><time>2026-04-26T07:29:54.959Z</time></trkpt><trkpt lat="37.984543688588396" lon="15.153768781198927"><ele>824.0</ele><time>2026-04-26T07:29:55.959Z</time></trkpt><trkpt lat="37.98464521421407" lon="15.153812029015775"><ele>824.0</ele><time>2026-04-26T07:29:56.959Z</time></trkpt><trkpt lat="37.98477545680755" lon="15.153843346545052"><ele>824.0</ele><time>2026-04-26T07:29:57.959Z</time></trkpt><trkpt lat="37.984897688886775" lon="15.153907519051407"><ele>824.0</ele><time>2026-04-26T07:29:58.959Z</time></trkpt><trkpt lat="37.98501255047217" lon="15.153936256977499"><ele>823.6</ele><time>2026-04-26T07:29:59.959Z</time></trkpt><trkpt lat="37.98512143060216" lon="15.1539415825254"><ele>823.2</ele><time>2026-04-26T07:30:00.959Z</time></trkpt><trkpt lat="37.985222868496116" lon="15.153927625820387"><ele>822.8000000000001</ele><time>2026-04-26T07:30:01.959Z</time></trkpt><trkpt lat="37.98533413413936" lon="15.153862966177515"><ele>822.4000000000001</ele><time>2026-04-26T07:30:02.959Z</time></trkpt><trkpt lat="37.985413486590815" lon="15.153768615896686"><ele>822.0</ele><time>2026-04-26T07:30:03.959Z</time></trkpt><trkpt lat="37.98550509174151" lon="15.153743725427125"><ele>822.0</ele><time>2026-04-26T07:30:04.959Z</time></trkpt><trkpt lat="37.985592929489584" lon="15.153711687172427"><ele>822.0</ele><time>2026-04-26T07:30:05.959Z</time></trkpt><trkpt lat="37.98567116920045" lon="15.153786770542734"><ele>822.0</ele><time>2026-04-26T07:30:06.959Z</time></trkpt><trkpt lat="37.98576692288452" lon="15.153785969177907"><ele>822.0</ele><time>2026-04-26T07:30:07.959Z</time></trkpt><trkpt lat="37.98587729920068" lon="15.153795972494187"><ele>822.0</ele><time>2026-04-26T07:30:08.961Z</time></trkpt><trkpt lat="37.985998348305436" lon="15.153746195302913"><ele>821.0</ele><time>2026-04-26T07:30:09.962Z</time></trkpt><trkpt lat="37.986101822460675" lon="15.153743356385728"><ele>820.0</ele><time>2026-04-26T07:30:10.962Z</time></trkpt><trkpt lat="37.986178784216705" lon="15.153767118912693"><ele>819.0</ele><time>2026-04-26T07:30:11.961Z</time></trkpt><trkpt lat="37.986247963913655" lon="15.153849670786967"><ele>818.0</ele><time>2026-04-26T07:30:12.961Z</time></trkpt><trkpt lat="37.98630586437989" lon="15.153933116562872"><ele>817.0</ele><time>2026-04-26T07:30:13.961Z</time></trkpt><trkpt lat="37.98636643639953" lon="15.154003426424628"><ele>816.0</ele><time>2026-04-26T07:30:14.962Z</time></trkpt><trkpt lat="37.986404155039786" lon="15.154080852054188"><ele>813.0</ele><time>2026-04-26T07:30:15.961Z</time></trkpt><trkpt lat="37.98646182584416" lon="15.154196026612725"><ele>810.0</ele><time>2026-04-26T07:30:17.961Z</time></trkpt><trkpt lat="37.98651158539169" lon="15.154283044798548"><ele>807.0</ele><time>2026-04-26T07:30:19.962Z</time></trkpt><trkpt lat="37.986536897605966" lon="15.154394662121412"><ele>804.0</ele><time>2026-04-26T07:30:21.962Z</time></trkpt><trkpt lat="37.98657245851376" lon="15.154509973284048"><ele>801.0</ele><time>2026-04-26T07:30:23.962Z</time></trkpt><trkpt lat="37.98658851080276" lon="15.154627846400611"><ele>801.0</ele><time>2026-04-26T07:30:25.962Z</time></trkpt><trkpt lat="37.98659731927728" lon="15.154756466577672"><ele>801.0</ele><time>2026-04-26T07:30:27.962Z</time></trkpt><trkpt lat="37.98657841892513" lon="15.154853529476956"><ele>801.0</ele><time>2026-04-26T07:30:29.961Z</time></trkpt><trkpt lat="37.98655960109884" lon="15.154942137354944"><ele>801.0</ele><time>2026-04-26T07:30:33.961Z</time></trkpt><trkpt lat="37.986519697239046" lon="15.155060361396709"><ele>801.0</ele><time>2026-04-26T07:30:36.961Z</time></trkpt><trkpt lat="37.98648085183975" lon="15.155195812762594"><ele>801.1428571428571</ele><time>2026-04-26T07:30:38.961Z</time></trkpt><trkpt lat="37.986442477400765" lon="15.155332659795928"><ele>801.2857142857142</ele><time>2026-04-26T07:30:40.961Z</time></trkpt><trkpt lat="37.98642608197953" lon="15.155413561437133"><ele>801.4285714285714</ele><time>2026-04-26T07:30:41.961Z</time></trkpt><trkpt lat="37.9864094588209" lon="15.155495599457627"><ele>801.5714285714286</ele><time>2026-04-26T07:30:42.961Z</time></trkpt><trkpt lat="37.98639817890317" lon="15.155577547248884"><ele>801.7142857142858</ele><time>2026-04-26T07:30:43.961Z</time></trkpt><trkpt lat="37.98640013318843" lon="15.155662042931763"><ele>801.8571428571429</ele><time>2026-04-26T07:30:44.961Z</time></trkpt><trkpt lat="37.986405337477635" lon="15.155742341534149"><ele>802.0</ele><time>2026-04-26T07:30:45.961Z</time></trkpt><trkpt lat="37.98644076941681" lon="15.155810496285444"><ele>803.3333333333333</ele><time>2026-04-26T07:30:46.961Z</time></trkpt><trkpt lat="37.9864771030529" lon="15.155903314484478"><ele>804.6666666666666</ele><time>2026-04-26T07:30:47.961Z</time></trkpt><trkpt lat="37.98650716184804" lon="15.15599688707975"><ele>806.0</ele><time>2026-04-26T07:30:48.961Z</time></trkpt><trkpt lat="37.98651621620063" lon="15.156102024953832"><ele>807.3333333333333</ele><time>2026-04-26T07:30:49.961Z</time></trkpt><trkpt lat="37.986477067373436" lon="15.156200788558536"><ele>808.6666666666666</ele><time>2026-04-26T07:30:50.961Z</time></trkpt><trkpt lat="37.98639965107604" lon="15.156251398943573"><ele>810.0</ele><time>2026-04-26T07:30:51.961Z</time></trkpt><trkpt lat="37.98633086711389" lon="15.156284684918187"><ele>810.0</ele><time>2026-04-26T07:30:52.961Z</time></trkpt><trkpt lat="37.98626759109519" lon="15.15633412117422"><ele>810.0</ele><time>2026-04-26T07:30:53.961Z</time></trkpt><trkpt lat="37.986227420349174" lon="15.156443622794258"><ele>810.0</ele><time>2026-04-26T07:30:55.961Z</time></trkpt><trkpt lat="37.986154646606195" lon="15.156529141044727"><ele>810.0</ele><time>2026-04-26T07:30:56.961Z</time></trkpt><trkpt lat="37.98608245967662" lon="15.15662648850827"><ele>810.0</ele><time>2026-04-26T07:30:57.961Z</time></trkpt><trkpt lat="37.98600141624506" lon="15.156734876893706"><ele>813.0</ele><time>2026-04-26T07:30:58.961Z</time></trkpt><trkpt lat="37.9859436967692" lon="15.156869660673035"><ele>816.0</ele><time>2026-04-26T07:30:59.961Z</time></trkpt><trkpt lat="37.98587503301152" lon="15.15701551008061"><ele>819.0</ele><time>2026-04-26T07:31:00.961Z</time></trkpt><trkpt lat="37.985814813797965" lon="15.157154815910337"><ele>822.0</ele><time>2026-04-26T07:31:01.961Z</time></trkpt><trkpt lat="37.98574954995311" lon="15.157293920322562"><ele>818.5</ele><time>2026-04-26T07:31:02.961Z</time></trkpt><trkpt lat="37.985679728369256" lon="15.157453570129068"><ele>815.0</ele><time>2026-04-26T07:31:03.961Z</time></trkpt><trkpt lat="37.9856140690424" lon="15.157592305746363"><ele>811.5</ele><time>2026-04-26T07:31:04.961Z</time></trkpt><trkpt lat="37.9855608911198" lon="15.157717545665221"><ele>808.0</ele><time>2026-04-26T07:31:05.96Z</time></trkpt><trkpt lat="37.985502446784864" lon="15.157849166166725"><ele>808.0</ele><time>2026-04-26T07:31:06.96Z</time></trkpt><trkpt lat="37.98544905314423" lon="15.15800642207316"><ele>808.0</ele><time>2026-04-26T07:31:07.96Z</time></trkpt><trkpt lat="37.98541516413008" lon="15.15819602176874"><ele>808.0</ele><time>2026-04-26T07:31:08.96Z</time></trkpt><trkpt lat="37.98539780183062" lon="15.15839758084155"><ele>808.0</ele><time>2026-04-26T07:31:09.96Z</time></trkpt><trkpt lat="37.985379126663354" lon="15.158580970350455"><ele>810.5</ele><time>2026-04-26T07:31:10.96Z</time></trkpt><trkpt lat="37.98536921583956" lon="15.158751288488329"><ele>813.0</ele><time>2026-04-26T07:31:11.96Z</time></trkpt><trkpt lat="37.985362877839904" lon="15.158914755558673"><ele>815.5</ele><time>2026-04-26T07:31:12.96Z</time></trkpt><trkpt lat="37.98535460338484" lon="15.159072277662032"><ele>818.0</ele><time>2026-04-26T07:31:13.96Z</time></trkpt><trkpt lat="37.98533377595997" lon="15.15922585048589"><ele>818.5</ele><time>2026-04-26T07:31:14.96Z</time></trkpt><trkpt lat="37.98527056247217" lon="15.15935412301956"><ele>819.0</ele><time>2026-04-26T07:31:15.96Z</time></trkpt><trkpt lat="37.98519621857307" lon="15.15946569746179"><ele>819.5</ele><time>2026-04-26T07:31:16.96Z</time></trkpt><trkpt lat="37.98512218698681" lon="15.159568822444175"><ele>820.0</ele><time>2026-04-26T07:31:17.96Z</time></trkpt><trkpt lat="37.98501917142361" lon="15.159648806677259"><ele>813.75</ele><time>2026-04-26T07:31:18.96Z</time></trkpt><trkpt lat="37.98488746862656" lon="15.159728256787405"><ele>807.5</ele><time>2026-04-26T07:31:19.96Z</time></trkpt><trkpt lat="37.98475921128725" lon="15.159800343976034"><ele>801.25</ele><time>2026-04-26T07:31:20.96Z</time></trkpt><trkpt lat="37.98465256025475" lon="15.159858692670015"><ele>795.0</ele><time>2026-04-26T07:31:21.96Z</time></trkpt><trkpt lat="37.98457659756052" lon="15.15996628724244"><ele>795.0</ele><time>2026-04-26T07:31:22.96Z</time></trkpt><trkpt lat="37.984508094157945" lon="15.160074264388639"><ele>795.0</ele><time>2026-04-26T07:31:23.96Z</time></trkpt><trkpt lat="37.984476261977846" lon="15.160222417462561"><ele>795.0</ele><time>2026-04-26T07:31:24.96Z</time></trkpt><trkpt lat="37.98447433536976" lon="15.160369217219783"><ele>795.0</ele><time>2026-04-26T07:31:25.96Z</time></trkpt><trkpt lat="37.984534222492506" lon="15.16051263452496"><ele>795.0</ele><time>2026-04-26T07:31:26.96Z</time></trkpt><trkpt lat="37.98459112568336" lon="15.160629419857463"><ele>795.0</ele><time>2026-04-26T07:31:27.96Z</time></trkpt><trkpt lat="37.98465722912515" lon="15.160604785052323"><ele>795.0</ele><time>2026-04-26T07:31:28.96Z</time></trkpt><trkpt lat="37.98474286991647" lon="15.160579192032612"><ele>795.0</ele><time>2026-04-26T07:31:29.96Z</time></trkpt><trkpt lat="37.98481025248616" lon="15.160550488213808"><ele>795.0</ele><time>2026-04-26T07:31:30.96Z</time></trkpt><trkpt lat="37.98490566419429" lon="15.160527665108189"><ele>795.0</ele><time>2026-04-26T07:31:31.96Z</time></trkpt><trkpt lat="37.98502419260342" lon="15.160503862765976"><ele>796.75</ele><time>2026-04-26T07:31:32.96Z</time></trkpt><trkpt lat="37.985134739177184" lon="15.160463350508351"><ele>798.5</ele><time>2026-04-26T07:31:33.96Z</time></trkpt><trkpt lat="37.985261293056" lon="15.160423804220052"><ele>800.25</ele><time>2026-04-26T07:31:34.96Z</time></trkpt><trkpt lat="37.98536550747717" lon="15.16039036985011"><ele>802.0</ele><time>2026-04-26T07:31:35.96Z</time></trkpt><trkpt lat="37.98546587397115" lon="15.16039665733781"><ele>802.0</ele><time>2026-04-26T07:31:36.96Z</time></trkpt><trkpt lat="37.98558070760661" lon="15.160403862471957"><ele>802.0</ele><time>2026-04-26T07:31:37.96Z</time></trkpt><trkpt lat="37.98570819599963" lon="15.160418151502244"><ele>802.0</ele><time>2026-04-26T07:31:38.96Z</time></trkpt><trkpt lat="37.98582402107356" lon="15.160493658485423"><ele>802.0</ele><time>2026-04-26T07:31:39.96Z</time></trkpt><trkpt lat="37.98591451609093" lon="15.160574131568168"><ele>805.5</ele><time>2026-04-26T07:31:40.96Z</time></trkpt><trkpt lat="37.98600698386813" lon="15.160645776353602"><ele>809.0</ele><time>2026-04-26T07:31:41.959Z</time></trkpt><trkpt lat="37.98610108715406" lon="15.160704859087287"><ele>812.5</ele><time>2026-04-26T07:31:42.959Z</time></trkpt><trkpt lat="37.986206470906936" lon="15.160743453032866"><ele>816.0</ele><time>2026-04-26T07:31:43.959Z</time></trkpt><trkpt lat="37.98639488277702" lon="15.160691108074747"><ele>815.5999999999999</ele><time>2026-04-26T07:31:44.959Z</time></trkpt><trkpt lat="37.98648746626674" lon="15.160725045939914"><ele>815.2</ele><time>2026-04-26T07:31:45.959Z</time></trkpt><trkpt lat="37.98661483297385" lon="15.160792204218122"><ele>814.8</ele><time>2026-04-26T07:31:46.959Z</time></trkpt><trkpt lat="37.986642084239975" lon="15.160886222710076"><ele>814.4000000000001</ele><time>2026-04-26T07:31:47.959Z</time></trkpt><trkpt lat="37.98675740375002" lon="15.160921862227598"><ele>814.0</ele><time>2026-04-26T07:31:48.959Z</time></trkpt><trkpt lat="37.986761799206114" lon="15.161061507059406"><ele>814.0</ele><time>2026-04-26T07:31:49.959Z</time></trkpt><trkpt lat="37.986776824346244" lon="15.161226611703079"><ele>814.0</ele><time>2026-04-26T07:31:50.959Z</time></trkpt><trkpt lat="37.98699659924904" lon="15.161616282972034"><ele>809.6</ele><time>2026-04-26T07:31:54.959Z</time></trkpt><trkpt lat="37.9870120368224" lon="15.161733126202495"><ele>805.2</ele><time>2026-04-26T07:31:55.959Z</time></trkpt><trkpt lat="37.98693582761985" lon="15.161840589150563"><ele>800.8000000000001</ele><time>2026-04-26T07:31:56.959Z</time></trkpt><trkpt lat="37.986913787864175" lon="15.16193780658857"><ele>796.4000000000001</ele><time>2026-04-26T07:31:57.959Z</time></trkpt><trkpt lat="37.98690777446593" lon="15.162042753420998"><ele>792.0</ele><time>2026-04-26T07:31:58.959Z</time></trkpt><trkpt lat="37.986959356489535" lon="15.162183000312904"><ele>792.0</ele><time>2026-04-26T07:31:59.959Z</time></trkpt><trkpt lat="37.98706272998227" lon="15.16230471013659"><ele>792.0</ele><time>2026-04-26T07:32:00.959Z</time></trkpt><trkpt lat="37.9871341489573" lon="15.16240288277088"><ele>792.0</ele><time>2026-04-26T07:32:01.959Z</time></trkpt><trkpt lat="37.98713410190577" lon="15.162549400863245"><ele>792.0</ele><time>2026-04-26T07:32:02.959Z</time></trkpt><trkpt lat="37.9871200102939" lon="15.162683516332844"><ele>791.2</ele><time>2026-04-26T07:32:03.959Z</time></trkpt><trkpt lat="37.98703789240545" lon="15.162804420002857"><ele>790.4000000000001</ele><time>2026-04-26T07:32:04.959Z</time></trkpt><trkpt lat="37.98696297001104" lon="15.162912768061265"><ele>789.5999999999999</ele><time>2026-04-26T07:32:05.959Z</time></trkpt><trkpt lat="37.986890912701874" lon="15.163016206273666"><ele>788.8</ele><time>2026-04-26T07:32:06.959Z</time></trkpt><trkpt lat="37.98683542185774" lon="15.16312045925974"><ele>788.0</ele><time>2026-04-26T07:32:07.959Z</time></trkpt><trkpt lat="37.986800496628064" lon="15.163232825575607"><ele>788.0</ele><time>2026-04-26T07:32:08.959Z</time></trkpt><trkpt lat="37.98678698579622" lon="15.163344158886026"><ele>788.0</ele><time>2026-04-26T07:32:09.959Z</time></trkpt><trkpt lat="37.98680262425193" lon="15.16348362961565"><ele>788.0</ele><time>2026-04-26T07:32:10.959Z</time></trkpt><trkpt lat="37.98684372265805" lon="15.163644921022561"><ele>788.0</ele><time>2026-04-26T07:32:11.959Z</time></trkpt><trkpt lat="37.98688493507513" lon="15.163844251387955"><ele>788.0</ele><time>2026-04-26T07:32:12.959Z</time></trkpt><trkpt lat="37.98689041329806" lon="15.16402786487231"><ele>788.0</ele><time>2026-04-26T07:32:13.959Z</time></trkpt><trkpt lat="37.9869113674542" lon="15.164183915660049"><ele>788.0</ele><time>2026-04-26T07:32:14.961Z</time></trkpt><trkpt lat="37.98693291327796" lon="15.164325078336233"><ele>788.0</ele><time>2026-04-26T07:32:15.962Z</time></trkpt><trkpt lat="37.986949633656" lon="15.164450337953589"><ele>787.0000000000001</ele><time>2026-04-26T07:32:16.962Z</time></trkpt><trkpt lat="37.98697161777694" lon="15.164570987525057"><ele>786.0</ele><time>2026-04-26T07:32:17.962Z</time></trkpt><trkpt lat="37.98698658680232" lon="15.164676906119913"><ele>785.0</ele><time>2026-04-26T07:32:18.962Z</time></trkpt><trkpt lat="37.986984346548844" lon="15.164769699283458"><ele>784.0</ele><time>2026-04-26T07:32:19.962Z</time></trkpt><trkpt lat="37.986957623395824" lon="15.164849629014078"><ele>783.0000000000001</ele><time>2026-04-26T07:32:20.961Z</time></trkpt><trkpt lat="37.98687040271619" lon="15.164926001739511"><ele>782.0</ele><time>2026-04-26T07:32:22.961Z</time></trkpt><trkpt lat="37.98676584536417" lon="15.164938276623039"><ele>780.4000000000001</ele><time>2026-04-26T07:32:24.961Z</time></trkpt><trkpt lat="37.98671601423248" lon="15.164881851997352"><ele>778.8000000000001</ele><time>2026-04-26T07:32:25.961Z</time></trkpt><trkpt lat="37.98660531311782" lon="15.164817998290046"><ele>777.2</ele><time>2026-04-26T07:32:27.961Z</time></trkpt><trkpt lat="37.98653271848605" lon="15.164766603613216"><ele>775.6</ele><time>2026-04-26T07:32:28.961Z</time></trkpt><trkpt lat="37.98644858288812" lon="15.164711478527048"><ele>774.0</ele><time>2026-04-26T07:32:29.961Z</time></trkpt><trkpt lat="37.98635898686696" lon="15.164669506761047"><ele>767.6</ele><time>2026-04-26T07:32:30.961Z</time></trkpt><trkpt lat="37.986253313049275" lon="15.164650461485015"><ele>761.2</ele><time>2026-04-26T07:32:31.961Z</time></trkpt><trkpt lat="37.986155199847396" lon="15.164643049819393"><ele>754.8000000000001</ele><time>2026-04-26T07:32:32.961Z</time></trkpt><trkpt lat="37.98606062766147" lon="15.16464336088753"><ele>748.4000000000001</ele><time>2026-04-26T07:32:33.961Z</time></trkpt><trkpt lat="37.985985483012904" lon="15.164606790737285"><ele>742.0</ele><time>2026-04-26T07:32:34.961Z</time></trkpt><trkpt lat="37.98590734333962" lon="15.164576609496775"><ele>738.2</ele><time>2026-04-26T07:32:35.961Z</time></trkpt><trkpt lat="37.985815988283555" lon="15.1645448842416"><ele>734.4000000000001</ele><time>2026-04-26T07:32:36.961Z</time></trkpt><trkpt lat="37.985731526486205" lon="15.164489964375171"><ele>730.5999999999999</ele><time>2026-04-26T07:32:37.961Z</time></trkpt><trkpt lat="37.98561042296953" lon="15.164466557514304"><ele>726.8</ele><time>2026-04-26T07:32:38.961Z</time></trkpt><trkpt lat="37.98549067068576" lon="15.16446725840001"><ele>723.0</ele><time>2026-04-26T07:32:39.961Z</time></trkpt><trkpt lat="37.98537590125033" lon="15.164455720668075"><ele>723.0</ele><time>2026-04-26T07:32:40.961Z</time></trkpt><trkpt lat="37.98527737374431" lon="15.164427965382897"><ele>723.0</ele><time>2026-04-26T07:32:41.961Z</time></trkpt><trkpt lat="37.98518282603526" lon="15.164418213270745"><ele>723.0</ele><time>2026-04-26T07:32:42.961Z</time></trkpt><trkpt lat="37.985099092516066" lon="15.164411220628311"><ele>723.0</ele><time>2026-04-26T07:32:43.961Z</time></trkpt><trkpt lat="37.98501374134413" lon="15.164421969081719"><ele>723.0</ele><time>2026-04-26T07:32:44.961Z</time></trkpt><trkpt lat="37.98493168004954" lon="15.164468678058782"><ele>721.4</ele><time>2026-04-26T07:32:45.961Z</time></trkpt><trkpt lat="37.98485854646804" lon="15.164543993589728"><ele>719.8</ele><time>2026-04-26T07:32:46.961Z</time></trkpt><trkpt lat="37.984782956250264" lon="15.164635634099556"><ele>718.2</ele><time>2026-04-26T07:32:47.961Z</time></trkpt><trkpt lat="37.98472225973399" lon="15.164738357334318"><ele>716.6</ele><time>2026-04-26T07:32:48.96Z</time></trkpt><trkpt lat="37.98467770955892" lon="15.164863345303806"><ele>715.0</ele><time>2026-04-26T07:32:49.96Z</time></trkpt><trkpt lat="37.984660121868934" lon="15.164981615355481"><ele>720.2</ele><time>2026-04-26T07:32:50.96Z</time></trkpt><trkpt lat="37.98462733268088" lon="15.165072394163293"><ele>725.4</ele><time>2026-04-26T07:32:51.96Z</time></trkpt><trkpt lat="37.98453684303441" lon="15.165136569401477"><ele>730.5999999999999</ele><time>2026-04-26T07:32:52.96Z</time></trkpt><trkpt lat="37.98441510469023" lon="15.165170175500895"><ele>735.8</ele><time>2026-04-26T07:32:53.96Z</time></trkpt><trkpt lat="37.98430546884368" lon="15.165181004546216"><ele>741.0</ele><time>2026-04-26T07:32:54.96Z</time></trkpt><trkpt lat="37.98418882847054" lon="15.165224493378808"><ele>735.5999999999999</ele><time>2026-04-26T07:32:55.96Z</time></trkpt><trkpt lat="37.98409016056158" lon="15.16527135685115"><ele>730.2</ele><time>2026-04-26T07:32:56.96Z</time></trkpt><trkpt lat="37.98398261868967" lon="15.165329846684706"><ele>724.8</ele><time>2026-04-26T07:32:57.96Z</time></trkpt><trkpt lat="37.98388061489509" lon="15.165373004279838"><ele>719.4000000000001</ele><time>2026-04-26T07:32:58.96Z</time></trkpt><trkpt lat="37.98378570494655" lon="15.16540909430775"><ele>714.0</ele><time>2026-04-26T07:32:59.96Z</time></trkpt><trkpt lat="37.983695793465316" lon="15.165448707641628"><ele>714.0</ele><time>2026-04-26T07:33:00.96Z</time></trkpt><trkpt lat="37.983628678726895" lon="15.165533116189664"><ele>714.0</ele><time>2026-04-26T07:33:01.96Z</time></trkpt><trkpt lat="37.98356909047757" lon="15.165649102574015"><ele>714.0</ele><time>2026-04-26T07:33:02.96Z</time></trkpt><trkpt lat="37.983538009485585" lon="15.165785390432376"><ele>714.0</ele><time>2026-04-26T07:33:03.96Z</time></trkpt><trkpt lat="37.98354870573857" lon="15.16597220320412"><ele>720.3333333333334</ele><time>2026-04-26T07:33:04.96Z</time></trkpt><trkpt lat="37.983523710775316" lon="15.166135704970092"><ele>726.6666666666667</ele><time>2026-04-26T07:33:05.96Z</time></trkpt><trkpt lat="37.983451176623134" lon="15.166307784712878"><ele>733.0</ele><time>2026-04-26T07:33:06.96Z</time></trkpt><trkpt lat="37.98336323349082" lon="15.16648799256825"><ele>727.75</ele><time>2026-04-26T07:33:07.96Z</time></trkpt><trkpt lat="37.983272934999995" lon="15.166639761059837"><ele>722.5</ele><time>2026-04-26T07:33:08.96Z</time></trkpt><trkpt lat="37.983201561413736" lon="15.166784164079264"><ele>717.25</ele><time>2026-04-26T07:33:09.96Z</time></trkpt><trkpt lat="37.98314665902683" lon="15.166927294565307"><ele>712.0</ele><time>2026-04-26T07:33:10.96Z</time></trkpt><trkpt lat="37.98309676039833" lon="15.167067145938477"><ele>712.0</ele><time>2026-04-26T07:33:11.96Z</time></trkpt><trkpt lat="37.983061198419335" lon="15.167217484308066"><ele>712.0</ele><time>2026-04-26T07:33:12.96Z</time></trkpt><trkpt lat="37.98302853713005" lon="15.167372669852599"><ele>712.0</ele><time>2026-04-26T07:33:13.96Z</time></trkpt><trkpt lat="37.98297680725478" lon="15.167494064699184"><ele>712.0</ele><time>2026-04-26T07:33:14.96Z</time></trkpt><trkpt lat="37.98292115409701" lon="15.167623541773958"><ele>713.6</ele><time>2026-04-26T07:33:15.96Z</time></trkpt><trkpt lat="37.982859590491266" lon="15.167739431587808"><ele>715.2</ele><time>2026-04-26T07:33:16.96Z</time></trkpt><trkpt lat="37.98280374736292" lon="15.167864974806871"><ele>716.8</ele><time>2026-04-26T07:33:17.96Z</time></trkpt><trkpt lat="37.982750708259" lon="15.167984874491898"><ele>718.4</ele><time>2026-04-26T07:33:18.96Z</time></trkpt><trkpt lat="37.982683618600525" lon="15.168062470514686"><ele>720.0</ele><time>2026-04-26T07:33:19.96Z</time></trkpt><trkpt lat="37.98264128922364" lon="15.168138671293862"><ele>723.4</ele><time>2026-04-26T07:33:20.96Z</time></trkpt><trkpt lat="37.98259290500503" lon="15.168217878633307"><ele>726.8</ele><time>2026-04-26T07:33:21.96Z</time></trkpt><trkpt lat="37.98251988766337" lon="15.168300109651687"><ele>730.2</ele><time>2026-04-26T07:33:22.96Z</time></trkpt><trkpt lat="37.98244667675256" lon="15.168397674641911"><ele>733.6</ele><time>2026-04-26T07:33:23.959Z</time></trkpt><trkpt lat="37.98236360671082" lon="15.168492909743449"><ele>737.0</ele><time>2026-04-26T07:33:24.959Z</time></trkpt><trkpt lat="37.98226401658053" lon="15.168577754266769"><ele>729.8</ele><time>2026-04-26T07:33:25.959Z</time></trkpt><trkpt lat="37.98218986233021" lon="15.168673004342626"><ele>722.6</ele><time>2026-04-26T07:33:26.959Z</time></trkpt><trkpt lat="37.982107265680206" lon="15.16877344319921"><ele>715.4</ele><time>2026-04-26T07:33:27.959Z</time></trkpt><trkpt lat="37.98202320335067" lon="15.168858286961251"><ele>708.1999999999999</ele><time>2026-04-26T07:33:28.959Z</time></trkpt><trkpt lat="37.9819163707864" lon="15.168932978468318"><ele>701.0</ele><time>2026-04-26T07:33:29.959Z</time></trkpt><trkpt lat="37.981812474406944" lon="15.168992482480338"><ele>703.1999999999999</ele><time>2026-04-26T07:33:30.959Z</time></trkpt><trkpt lat="37.981726626991225" lon="15.169049181687148"><ele>705.4</ele><time>2026-04-26T07:33:31.959Z</time></trkpt><trkpt lat="37.98166321102215" lon="15.169126401498195"><ele>707.6</ele><time>2026-04-26T07:33:32.959Z</time></trkpt><trkpt lat="37.981624542227905" lon="15.169232956080897"><ele>709.8</ele><time>2026-04-26T07:33:33.959Z</time></trkpt><trkpt lat="37.98160135094405" lon="15.169352138960873"><ele>712.0</ele><time>2026-04-26T07:33:34.959Z</time></trkpt><trkpt lat="37.981602767325754" lon="15.169472197938553"><ele>707.6666666666667</ele><time>2026-04-26T07:33:35.959Z</time></trkpt><trkpt lat="37.98160440233482" lon="15.169586879738079"><ele>703.3333333333334</ele><time>2026-04-26T07:33:36.959Z</time></trkpt><trkpt lat="37.981613997256275" lon="15.169693771096338"><ele>699.0</ele><time>2026-04-26T07:33:37.959Z</time></trkpt><trkpt lat="37.9816241396575" lon="15.169799730522755"><ele>694.6666666666666</ele><time>2026-04-26T07:33:38.959Z</time></trkpt><trkpt lat="37.981627047441506" lon="15.169902134928778"><ele>690.3333333333333</ele><time>2026-04-26T07:33:39.959Z</time></trkpt><trkpt lat="37.98163976164043" lon="15.169996579909837"><ele>686.0</ele><time>2026-04-26T07:33:40.959Z</time></trkpt><trkpt lat="37.98166425898933" lon="15.170076146302467"><ele>688.0</ele><time>2026-04-26T07:33:41.959Z</time></trkpt><trkpt lat="37.98170921739116" lon="15.17013512367072"><ele>690.0</ele><time>2026-04-26T07:33:42.959Z</time></trkpt><trkpt lat="37.98177788263298" lon="15.170231412494743"><ele>692.0</ele><time>2026-04-26T07:33:44.959Z</time></trkpt><trkpt lat="37.981832476028316" lon="15.170280275747107"><ele>694.0</ele><time>2026-04-26T07:33:46.959Z</time></trkpt><trkpt lat="37.98206676656244" lon="15.170118409692467"><ele>694.0</ele><time>2026-04-26T07:33:48.959Z</time></trkpt><trkpt lat="37.98215990259775" lon="15.170089642623497"><ele>694.0</ele><time>2026-04-26T07:33:50.959Z</time></trkpt><trkpt lat="37.98224726068095" lon="15.170055863743082"><ele>694.0</ele><time>2026-04-26T07:33:52.959Z</time></trkpt><trkpt lat="37.982337008023016" lon="15.170032820624744"><ele>694.0</ele><time>2026-04-26T07:33:54.959Z</time></trkpt><trkpt lat="37.98242979749163" lon="15.170039792756505"><ele>694.0</ele><time>2026-04-26T07:33:57.959Z</time></trkpt><trkpt lat="37.982505007770435" lon="15.170077543356001"><ele>696.5</ele><time>2026-04-26T07:33:59.958Z</time></trkpt><trkpt lat="37.98261445851126" lon="15.1701349874484"><ele>699.0</ele><time>2026-04-26T07:34:01.958Z</time></trkpt><trkpt lat="37.98268911130976" lon="15.170158526628349"><ele>701.5</ele><time>2026-04-26T07:34:02.958Z</time></trkpt><trkpt lat="37.982765812303505" lon="15.170193884838376"><ele>704.0</ele><time>2026-04-26T07:34:03.958Z</time></trkpt><trkpt lat="37.98282674976688" lon="15.170251001539317"><ele>706.5</ele><time>2026-04-26T07:34:04.958Z</time></trkpt><trkpt lat="37.98288325961678" lon="15.170325100698895"><ele>709.0</ele><time>2026-04-26T07:34:05.958Z</time></trkpt><trkpt lat="37.98294043123798" lon="15.170406715873993"><ele>709.0</ele><time>2026-04-26T07:34:06.958Z</time></trkpt><trkpt lat="37.983009535387936" lon="15.170513257868356"><ele>709.0</ele><time>2026-04-26T07:34:07.958Z</time></trkpt><trkpt lat="37.98307828466392" lon="15.17063749384467"><ele>709.0</ele><time>2026-04-26T07:34:08.958Z</time></trkpt><trkpt lat="37.983135067479644" lon="15.170764495691584"><ele>709.0</ele><time>2026-04-26T07:34:09.958Z</time></trkpt><trkpt lat="37.98320664362416" lon="15.170873976623744"><ele>710.0</ele><time>2026-04-26T07:34:10.958Z</time></trkpt><trkpt lat="37.98329157850599" lon="15.170950121427254"><ele>711.0</ele><time>2026-04-26T07:34:11.958Z</time></trkpt><trkpt lat="37.983398043799134" lon="15.17101880308343"><ele>712.0</ele><time>2026-04-26T07:34:12.958Z</time></trkpt><trkpt lat="37.98349753860074" lon="15.171068145053935"><ele>713.0</ele><time>2026-04-26T07:34:13.958Z</time></trkpt><trkpt lat="37.983613361216754" lon="15.171112185395975"><ele>713.0</ele><time>2026-04-26T07:34:14.958Z</time></trkpt><trkpt lat="37.983714955390894" lon="15.171165500234627"><ele>713.0</ele><time>2026-04-26T07:34:15.958Z</time></trkpt><trkpt lat="37.98380043077464" lon="15.171260300978608"><ele>713.0</ele><time>2026-04-26T07:34:16.958Z</time></trkpt><trkpt lat="37.98386487127355" lon="15.17139230169784"><ele>713.0</ele><time>2026-04-26T07:34:17.958Z</time></trkpt><trkpt lat="37.98393636644221" lon="15.17150909448187"><ele>708.5</ele><time>2026-04-26T07:34:18.958Z</time></trkpt><trkpt lat="37.984012461002756" lon="15.171587309989954"><ele>704.0</ele><time>2026-04-26T07:34:19.958Z</time></trkpt><trkpt lat="37.9841012715042" lon="15.171649189585432"><ele>699.5</ele><time>2026-04-26T07:34:20.961Z</time></trkpt><trkpt lat="37.98417630032643" lon="15.171673941386478"><ele>695.0</ele><time>2026-04-26T07:34:21.961Z</time></trkpt><trkpt lat="37.98425491390029" lon="15.171693937631563"><ele>690.5</ele><time>2026-04-26T07:34:22.961Z</time></trkpt><trkpt lat="37.98432872691625" lon="15.171680119311208"><ele>686.0</ele><time>2026-04-26T07:34:23.961Z</time></trkpt><trkpt lat="37.984327687961674" lon="15.171792174978817"><ele>686.0</ele><time>2026-04-26T07:34:26.961Z</time></trkpt><trkpt lat="37.9842177436896" lon="15.171788778662284"><ele>686.0</ele><time>2026-04-26T07:34:28.961Z</time></trkpt><trkpt lat="37.984152623837154" lon="15.171755360811538"><ele>686.0</ele><time>2026-04-26T07:34:29.961Z</time></trkpt><trkpt lat="37.98405895243495" lon="15.171731706540625"><ele>686.0</ele><time>2026-04-26T07:34:30.961Z</time></trkpt><trkpt lat="37.98395648215641" lon="15.171688258346645"><ele>686.0</ele><time>2026-04-26T07:34:31.961Z</time></trkpt><trkpt lat="37.983860636974256" lon="15.171616865699013"><ele>685.5</ele><time>2026-04-26T07:34:32.961Z</time></trkpt><trkpt lat="37.98374941884654" lon="15.171533441508906"><ele>685.0</ele><time>2026-04-26T07:34:33.961Z</time></trkpt><trkpt lat="37.98364515110336" lon="15.171449194160436"><ele>684.5</ele><time>2026-04-26T07:34:34.961Z</time></trkpt><trkpt lat="37.983541184787434" lon="15.17138289471335"><ele>684.0</ele><time>2026-04-26T07:34:35.961Z</time></trkpt><trkpt lat="37.98342790134137" lon="15.171370925526125"><ele>685.4000000000001</ele><time>2026-04-26T07:34:36.961Z</time></trkpt><trkpt lat="37.983330905898775" lon="15.17134800409807"><ele>686.8</ele><time>2026-04-26T07:34:37.961Z</time></trkpt><trkpt lat="37.983229487070346" lon="15.171301645862313"><ele>688.2</ele><time>2026-04-26T07:34:38.961Z</time></trkpt><trkpt lat="37.983126205343765" lon="15.171249255453768"><ele>689.5999999999999</ele><time>2026-04-26T07:34:39.961Z</time></trkpt><trkpt lat="37.98304283143314" lon="15.171183890394213"><ele>691.0</ele><time>2026-04-26T07:34:40.961Z</time></trkpt><trkpt lat="37.98297229284061" lon="15.17109249591086"><ele>691.0</ele><time>2026-04-26T07:34:41.961Z</time></trkpt><trkpt lat="37.98291199616599" lon="15.170998875995371"><ele>691.0</ele><time>2026-04-26T07:34:42.961Z</time></trkpt><trkpt lat="37.98285397299151" lon="15.170914645886892"><ele>691.0</ele><time>2026-04-26T07:34:43.961Z</time></trkpt><trkpt lat="37.98279350546134" lon="15.170845929788825"><ele>691.0</ele><time>2026-04-26T07:34:44.96Z</time></trkpt><trkpt lat="37.98271989084598" lon="15.170801923494249"><ele>691.0</ele><time>2026-04-26T07:34:45.96Z</time></trkpt><trkpt lat="37.98263681226062" lon="15.170781797873522"><ele>691.0</ele><time>2026-04-26T07:34:46.96Z</time></trkpt><trkpt lat="37.98256460984838" lon="15.170779908290806"><ele>687.3333333333334</ele><time>2026-04-26T07:34:47.96Z</time></trkpt><trkpt lat="37.98247140899095" lon="15.170810002355475"><ele>683.6666666666667</ele><time>2026-04-26T07:34:49.96Z</time></trkpt><trkpt lat="37.9824105398689" lon="15.170841078218809"><ele>680.0</ele><time>2026-04-26T07:34:52.96Z</time></trkpt><trkpt lat="37.982344563678645" lon="15.170871841601059"><ele>676.3333333333334</ele><time>2026-04-26T07:34:54.96Z</time></trkpt><trkpt lat="37.98225927529652" lon="15.170910599373213"><ele>672.6666666666666</ele><time>2026-04-26T07:34:56.96Z</time></trkpt><trkpt lat="37.98219556624897" lon="15.170915962578318"><ele>669.0</ele><time>2026-04-26T07:34:57.96Z</time></trkpt><trkpt lat="37.98207761818809" lon="15.170898548025585"><ele>669.0</ele><time>2026-04-26T07:34:59.96Z</time></trkpt><trkpt lat="37.98201178741746" lon="15.170881988495134"><ele>669.0</ele><time>2026-04-26T07:35:00.96Z</time></trkpt><trkpt lat="37.98193817895899" lon="15.17087286793621"><ele>669.0</ele><time>2026-04-26T07:35:01.96Z</time></trkpt><trkpt lat="37.98185486469815" lon="15.170868937593864"><ele>669.0</ele><time>2026-04-26T07:35:02.96Z</time></trkpt><trkpt lat="37.98177952148626" lon="15.170870037726063"><ele>669.0</ele><time>2026-04-26T07:35:03.96Z</time></trkpt><trkpt lat="37.981711519477436" lon="15.17088328615205"><ele>669.0</ele><time>2026-04-26T07:35:04.96Z</time></trkpt><trkpt lat="37.98164157930276" lon="15.170888316659285"><ele>669.0</ele><time>2026-04-26T07:35:05.96Z</time></trkpt><trkpt lat="37.98155947341272" lon="15.17089910411675"><ele>667.5</ele><time>2026-04-26T07:35:06.96Z</time></trkpt><trkpt lat="37.9814733658782" lon="15.170894748295302"><ele>666.0</ele><time>2026-04-26T07:35:07.96Z</time></trkpt><trkpt lat="37.98138934718154" lon="15.170901598344994"><ele>664.5</ele><time>2026-04-26T07:35:08.96Z</time></trkpt><trkpt lat="37.981306730840714" lon="15.17089471659061"><ele>663.0</ele><time>2026-04-26T07:35:09.96Z</time></trkpt><trkpt lat="37.98122217429776" lon="15.170869924612006"><ele>661.5</ele><time>2026-04-26T07:35:10.96Z</time></trkpt><trkpt lat="37.981141203523876" lon="15.170829243480986"><ele>660.0</ele><time>2026-04-26T07:35:11.96Z</time></trkpt><trkpt lat="37.981066704376964" lon="15.170778374033452"><ele>660.0</ele><time>2026-04-26T07:35:12.96Z</time></trkpt><trkpt lat="37.98100521083386" lon="15.170729034624722"><ele>660.0</ele><time>2026-04-26T07:35:13.96Z</time></trkpt><trkpt lat="37.98091390177086" lon="15.170626459248794"><ele>660.0</ele><time>2026-04-26T07:35:15.96Z</time></trkpt><trkpt lat="37.980901062282435" lon="15.170539472506338"><ele>660.0</ele><time>2026-04-26T07:35:16.96Z</time></trkpt><trkpt lat="37.980916150459194" lon="15.170456226587389"><ele>660.0</ele><time>2026-04-26T07:35:17.96Z</time></trkpt><trkpt lat="37.98094503946346" lon="15.170372342512048"><ele>660.0</ele><time>2026-04-26T07:35:18.96Z</time></trkpt><trkpt lat="37.98097082074316" lon="15.170288443466388"><ele>659.1428571428572</ele><time>2026-04-26T07:35:19.96Z</time></trkpt><trkpt lat="37.980986077573505" lon="15.170192127082583"><ele>658.2857142857143</ele><time>2026-04-26T07:35:20.959Z</time></trkpt><trkpt lat="37.980988352197805" lon="15.170095295340454"><ele>657.4285714285714</ele><time>2026-04-26T07:35:21.959Z</time></trkpt><trkpt lat="37.98097397580944" lon="15.170010847520253"><ele>656.5714285714287</ele><time>2026-04-26T07:35:22.959Z</time></trkpt><trkpt lat="37.980929886553476" lon="15.169942684413286"><ele>655.7142857142858</ele><time>2026-04-26T07:35:23.959Z</time></trkpt><trkpt lat="37.98085023879438" lon="15.169904832414714"><ele>654.8571428571429</ele><time>2026-04-26T07:35:24.959Z</time></trkpt><trkpt lat="37.98078276520028" lon="15.169911442662913"><ele>654.0</ele><time>2026-04-26T07:35:25.959Z</time></trkpt><trkpt lat="37.98072277685338" lon="15.169941048527866"><ele>654.0</ele><time>2026-04-26T07:35:26.959Z</time></trkpt><trkpt lat="37.98068273110158" lon="15.170004570729034"><ele>654.0</ele><time>2026-04-26T07:35:27.959Z</time></trkpt><trkpt lat="37.98065678425565" lon="15.170136305958746"><ele>654.0</ele><time>2026-04-26T07:35:29.959Z</time></trkpt><trkpt lat="37.98067721993488" lon="15.170265933965757"><ele>654.0</ele><time>2026-04-26T07:35:31.959Z</time></trkpt><trkpt lat="37.98071407313504" lon="15.170391259272929"><ele>654.0</ele><time>2026-04-26T07:35:33.959Z</time></trkpt><trkpt lat="37.98074498331356" lon="15.17052025407279"><ele>654.0</ele><time>2026-04-26T07:35:35.959Z</time></trkpt><trkpt lat="37.98076617131068" lon="15.17059893329622"><ele>654.0</ele><time>2026-04-26T07:35:36.959Z</time></trkpt><trkpt lat="37.98078782530214" lon="15.170688399989148"><ele>654.0</ele><time>2026-04-26T07:35:37.959Z</time></trkpt><trkpt lat="37.98081349684884" lon="15.170772381996363"><ele>654.0</ele><time>2026-04-26T07:35:38.959Z</time></trkpt><trkpt lat="37.980842276842644" lon="15.170851627210308"><ele>654.0</ele><time>2026-04-26T07:35:39.959Z</time></trkpt><trkpt lat="37.98088480654756" lon="15.170925300168577"><ele>654.0</ele><time>2026-04-26T07:35:40.959Z</time></trkpt><trkpt lat="37.980934315288415" lon="15.170996271289496"><ele>654.0</ele><time>2026-04-26T07:35:41.959Z</time></trkpt><trkpt lat="37.98099573889326" lon="15.171072797694968"><ele>655.5</ele><time>2026-04-26T07:35:42.959Z</time></trkpt><trkpt lat="37.98106169185386" lon="15.171159770207487"><ele>657.0</ele><time>2026-04-26T07:35:43.959Z</time></trkpt><trkpt lat="37.98113889959034" lon="15.171267041671607"><ele>658.5</ele><time>2026-04-26T07:35:44.959Z</time></trkpt><trkpt lat="37.98122666120656" lon="15.171376369746527"><ele>660.0</ele><time>2026-04-26T07:35:45.959Z</time></trkpt><trkpt lat="37.98132967424517" lon="15.17150294496438"><ele>653.6666666666666</ele><time>2026-04-26T07:35:46.959Z</time></trkpt><trkpt lat="37.98144814138315" lon="15.171639353698875"><ele>647.3333333333333</ele><time>2026-04-26T07:35:47.959Z</time></trkpt><trkpt lat="37.9815655775103" lon="15.171785024102773"><ele>641.0</ele><time>2026-04-26T07:35:48.959Z</time></trkpt><trkpt lat="37.98167602579118" lon="15.171923073250506"><ele>643.25</ele><time>2026-04-26T07:35:49.959Z</time></trkpt><trkpt lat="37.98178828047504" lon="15.172064516326435"><ele>645.5</ele><time>2026-04-26T07:35:50.959Z</time></trkpt><trkpt lat="37.98189091486018" lon="15.172197449522915"><ele>647.75</ele><time>2026-04-26T07:35:51.959Z</time></trkpt><trkpt lat="37.981989472852604" lon="15.172331332523395"><ele>650.0</ele><time>2026-04-26T07:35:52.959Z</time></trkpt><trkpt lat="37.982088059197544" lon="15.172452370878823"><ele>645.5</ele><time>2026-04-26T07:35:53.959Z</time></trkpt><trkpt lat="37.98216889508738" lon="15.1725829969089"><ele>641.0</ele><time>2026-04-26T07:35:54.959Z</time></trkpt><trkpt lat="37.982249732623735" lon="15.172702902864094"><ele>636.5</ele><time>2026-04-26T07:35:55.959Z</time></trkpt><trkpt lat="37.98233716237186" lon="15.172819289326421"><ele>632.0</ele><time>2026-04-26T07:35:56.958Z</time></trkpt><trkpt lat="37.982435066093004" lon="15.172924770571326"><ele>632.8000000000001</ele><time>2026-04-26T07:35:57.958Z</time></trkpt><trkpt lat="37.98253238751391" lon="15.173026330974926"><ele>633.6</ele><time>2026-04-26T07:35:58.958Z</time></trkpt><trkpt lat="37.98262235716919" lon="15.17311826766875"><ele>634.4000000000001</ele><time>2026-04-26T07:35:59.958Z</time></trkpt><trkpt lat="37.982685392547324" lon="15.173191735785252"><ele>635.2</ele><time>2026-04-26T07:36:00.958Z</time></trkpt><trkpt lat="37.98276577039636" lon="15.17326554340639"><ele>636.0</ele><time>2026-04-26T07:36:02.958Z</time></trkpt><trkpt lat="37.9828198396137" lon="15.173326317450352"><ele>633.6666666666666</ele><time>2026-04-26T07:36:04.958Z</time></trkpt><trkpt lat="37.98286760588029" lon="15.173386340541818"><ele>631.3333333333334</ele><time>2026-04-26T07:36:06.958Z</time></trkpt><trkpt lat="37.982924577419205" lon="15.173464914160217"><ele>629.0</ele><time>2026-04-26T07:37:38.959Z</time></trkpt><trkpt lat="37.9829859814964" lon="15.17351755164538"><ele>626.6666666666667</ele><time>2026-04-26T07:37:40.959Z</time></trkpt><trkpt lat="37.98305258305618" lon="15.173588777975983"><ele>624.3333333333334</ele><time>2026-04-26T07:37:42.959Z</time></trkpt><trkpt lat="37.983110191227524" lon="15.173677017711407"><ele>622.0</ele><time>2026-04-26T07:37:44.959Z</time></trkpt><trkpt lat="37.983197662312165" lon="15.17375888433277"><ele>622.0</ele><time>2026-04-26T07:37:46.959Z</time></trkpt><trkpt lat="37.98325068972237" lon="15.173810746689481"><ele>622.0</ele><time>2026-04-26T07:37:47.959Z</time></trkpt><trkpt lat="37.98330275697662" lon="15.173861642975249"><ele>622.0</ele><time>2026-04-26T07:37:48.959Z</time></trkpt><trkpt lat="37.98335722420142" lon="15.173919523384262"><ele>622.0</ele><time>2026-04-26T07:37:49.959Z</time></trkpt><trkpt lat="37.98341567480899" lon="15.173981512391924"><ele>622.0</ele><time>2026-04-26T07:37:50.959Z</time></trkpt><trkpt lat="37.98347975730897" lon="15.174049799076505"><ele>622.0</ele><time>2026-04-26T07:37:51.959Z</time></trkpt><trkpt lat="37.98353862684238" lon="15.174109155568503"><ele>622.0</ele><time>2026-04-26T07:37:52.959Z</time></trkpt><trkpt lat="37.983585420423104" lon="15.17417583790159"><ele>623.1666666666667</ele><time>2026-04-26T07:37:53.959Z</time></trkpt><trkpt lat="37.98361265726692" lon="15.174268127604002"><ele>624.3333333333334</ele><time>2026-04-26T07:37:54.959Z</time></trkpt><trkpt lat="37.9836175734577" lon="15.174367857991317"><ele>625.5</ele><time>2026-04-26T07:37:55.959Z</time></trkpt><trkpt lat="37.98359974399818" lon="15.174469069717265"><ele>626.6666666666666</ele><time>2026-04-26T07:37:56.958Z</time></trkpt><trkpt lat="37.98354942413727" lon="15.174577225991582"><ele>627.8333333333333</ele><time>2026-04-26T07:37:57.958Z</time></trkpt><trkpt lat="37.983488916010025" lon="15.17466454507637"><ele>629.0</ele><time>2026-04-26T07:37:58.958Z</time></trkpt><trkpt lat="37.98343127790573" lon="15.174742174586685"><ele>629.0</ele><time>2026-04-26T07:37:59.958Z</time></trkpt><trkpt lat="37.98338280884886" lon="15.174826699878732"><ele>629.0</ele><time>2026-04-26T07:38:00.958Z</time></trkpt><trkpt lat="37.98335432031955" lon="15.174929234628816"><ele>629.0</ele><time>2026-04-26T07:38:01.958Z</time></trkpt><trkpt lat="37.98337152965379" lon="15.175035816697939"><ele>629.0</ele><time>2026-04-26T07:38:02.958Z</time></trkpt><trkpt lat="37.983423567942125" lon="15.175151197944906"><ele>629.0</ele><time>2026-04-26T07:38:03.958Z</time></trkpt><trkpt lat="37.98349558350119" lon="15.175293186284332"><ele>625.3333333333333</ele><time>2026-04-26T07:38:04.958Z</time></trkpt><trkpt lat="37.983578572538626" lon="15.175442546464769"><ele>621.6666666666666</ele><time>2026-04-26T07:38:05.958Z</time></trkpt><trkpt lat="37.98366896571777" lon="15.175612474267302"><ele>618.0</ele><time>2026-04-26T07:38:06.958Z</time></trkpt><trkpt lat="37.98377208824892" lon="15.175802645398644"><ele>614.6666666666666</ele><time>2026-04-26T07:38:07.958Z</time></trkpt><trkpt lat="37.98388805170191" lon="15.176007045562493"><ele>611.3333333333333</ele><time>2026-04-26T07:38:08.958Z</time></trkpt><trkpt lat="37.98400020541655" lon="15.176220051606395"><ele>608.0</ele><time>2026-04-26T07:38:09.958Z</time></trkpt><trkpt lat="37.98410307136855" lon="15.176422498542967"><ele>608.0</ele><time>2026-04-26T07:38:10.958Z</time></trkpt><trkpt lat="37.98419984142192" lon="15.176614525913994"><ele>608.0</ele><time>2026-04-26T07:38:11.958Z</time></trkpt><trkpt lat="37.984285028623326" lon="15.176797970231448"><ele>608.0</ele><time>2026-04-26T07:38:12.958Z</time></trkpt><trkpt lat="37.98435236341027" lon="15.176988029114838"><ele>608.0</ele><time>2026-04-26T07:38:13.958Z</time></trkpt><trkpt lat="37.98441162168912" lon="15.177184247744613"><ele>608.0</ele><time>2026-04-26T07:38:14.958Z</time></trkpt><trkpt lat="37.98444409647476" lon="15.177373517047599"><ele>608.0</ele><time>2026-04-26T07:38:15.958Z</time></trkpt><trkpt lat="37.984466606078556" lon="15.17756690935043"><ele>605.6666666666666</ele><time>2026-04-26T07:38:16.958Z</time></trkpt><trkpt lat="37.984490592245834" lon="15.177774253436091"><ele>603.3333333333334</ele><time>2026-04-26T07:38:17.958Z</time></trkpt><trkpt lat="37.984523129228705" lon="15.177988097858709"><ele>601.0</ele><time>2026-04-26T07:38:18.958Z</time></trkpt><trkpt lat="37.98455106855426" lon="15.178188965746589"><ele>601.0</ele><time>2026-04-26T07:38:19.958Z</time></trkpt><trkpt lat="37.98457535460288" lon="15.178381929747392"><ele>601.0</ele><time>2026-04-26T07:38:20.958Z</time></trkpt><trkpt lat="37.98459795235588" lon="15.178579577548588"><ele>601.0</ele><time>2026-04-26T07:38:21.958Z</time></trkpt><trkpt lat="37.98459600134558" lon="15.17879032047537"><ele>601.0</ele><time>2026-04-26T07:38:22.958Z</time></trkpt><trkpt lat="37.98457043375786" lon="15.179005518581114"><ele>601.0</ele><time>2026-04-26T07:38:23.958Z</time></trkpt><trkpt lat="37.98453308479755" lon="15.1792190778717"><ele>601.0</ele><time>2026-04-26T07:38:24.958Z</time></trkpt><trkpt lat="37.984483695885224" lon="15.179425685781084"><ele>601.3333333333334</ele><time>2026-04-26T07:38:25.958Z</time></trkpt><trkpt lat="37.98443138942484" lon="15.179619267357422"><ele>601.6666666666666</ele><time>2026-04-26T07:38:26.958Z</time></trkpt><trkpt lat="37.98438562172493" lon="15.179821775468293"><ele>602.0</ele><time>2026-04-26T07:38:27.958Z</time></trkpt><trkpt lat="37.98433887554132" lon="15.180012110038296"><ele>602.0</ele><time>2026-04-26T07:38:28.958Z</time></trkpt><trkpt lat="37.9843012059708" lon="15.1802117531264"><ele>602.0</ele><time>2026-04-26T07:38:29.958Z</time></trkpt><trkpt lat="37.984291193126566" lon="15.180411163880683"><ele>602.0</ele><time>2026-04-26T07:38:30.958Z</time></trkpt><trkpt lat="37.984312079720574" lon="15.180617686431596"><ele>596.0</ele><time>2026-04-26T07:38:31.958Z</time></trkpt><trkpt lat="37.984375306917826" lon="15.18083824388076"><ele>590.0</ele><time>2026-04-26T07:38:32.961Z</time></trkpt><trkpt lat="37.98449109897607" lon="15.181083027413571"><ele>584.0</ele><time>2026-04-26T07:38:33.96Z</time></trkpt><trkpt lat="37.98462723783244" lon="15.18133225281773"><ele>577.5</ele><time>2026-04-26T07:38:34.96Z</time></trkpt><trkpt lat="37.98476899425142" lon="15.181593384754363"><ele>571.0</ele><time>2026-04-26T07:38:35.96Z</time></trkpt><trkpt lat="37.98490854663782" lon="15.181877854447261"><ele>572.0</ele><time>2026-04-26T07:38:36.961Z</time></trkpt><trkpt lat="37.985054027898364" lon="15.18219833507984"><ele>573.0</ele><time>2026-04-26T07:38:37.961Z</time></trkpt><trkpt lat="37.985214060907985" lon="15.182549212739783"><ele>573.0</ele><time>2026-04-26T07:38:38.961Z</time></trkpt><trkpt lat="37.98538426063345" lon="15.182915648140154"><ele>573.0</ele><time>2026-04-26T07:38:39.961Z</time></trkpt><trkpt lat="37.985538767798275" lon="15.183242145278557"><ele>570.0</ele><time>2026-04-26T07:38:40.961Z</time></trkpt><trkpt lat="37.985669026478426" lon="15.183525931415758"><ele>567.0</ele><time>2026-04-26T07:38:41.961Z</time></trkpt><trkpt lat="37.985784429455876" lon="15.183782991434573"><ele>567.6666666666666</ele><time>2026-04-26T07:38:42.961Z</time></trkpt><trkpt lat="37.98587938246455" lon="15.18400309527844"><ele>568.3333333333333</ele><time>2026-04-26T07:38:43.961Z</time></trkpt><trkpt lat="37.98596935946719" lon="15.184187528142342"><ele>569.0</ele><time>2026-04-26T07:38:44.961Z</time></trkpt><trkpt lat="37.98605193554147" lon="15.184361374188791"><ele>569.0</ele><time>2026-04-26T07:38:45.96Z</time></trkpt><trkpt lat="37.986144840224014" lon="15.184515447292261"><ele>569.0</ele><time>2026-04-26T07:38:46.96Z</time></trkpt><trkpt lat="37.986275881703655" lon="15.184665192070662"><ele>569.0</ele><time>2026-04-26T07:38:47.96Z</time></trkpt><trkpt lat="37.986466541830566" lon="15.184784192285012"><ele>560.0</ele><time>2026-04-26T07:38:48.96Z</time></trkpt><trkpt lat="37.986684110942576" lon="15.184846519282155"><ele>551.0</ele><time>2026-04-26T07:38:49.96Z</time></trkpt><trkpt lat="37.98689741036374" lon="15.184931115288995"><ele>542.0</ele><time>2026-04-26T07:38:50.96Z</time></trkpt><trkpt lat="37.9871239844706" lon="15.185032318749101"><ele>542.0</ele><time>2026-04-26T07:38:51.96Z</time></trkpt><trkpt lat="37.987333547931115" lon="15.185148230792244"><ele>542.0</ele><time>2026-04-26T07:38:52.96Z</time></trkpt><trkpt lat="37.987523861560085" lon="15.185243614756883"><ele>542.0</ele><time>2026-04-26T07:38:53.96Z</time></trkpt><trkpt lat="37.987700767529425" lon="15.185333517246912"><ele>542.0</ele><time>2026-04-26T07:38:54.96Z</time></trkpt><trkpt lat="37.987873153424424" lon="15.185421403743314"><ele>542.0</ele><time>2026-04-26T07:38:55.96Z</time></trkpt><trkpt lat="37.988038756699254" lon="15.185512390176067"><ele>542.0</ele><time>2026-04-26T07:38:56.96Z</time></trkpt><trkpt lat="37.98819874083866" lon="15.185597829916668"><ele>545.3333333333333</ele><time>2026-04-26T07:38:57.96Z</time></trkpt><trkpt lat="37.98836027917735" lon="15.185666520291328"><ele>548.6666666666666</ele><time>2026-04-26T07:38:58.96Z</time></trkpt><trkpt lat="37.98853990847108" lon="15.18569326533878"><ele>552.0</ele><time>2026-04-26T07:38:59.96Z</time></trkpt><trkpt lat="37.98873569463414" lon="15.185681861549542"><ele>552.0</ele><time>2026-04-26T07:39:00.96Z</time></trkpt><trkpt lat="37.988938822209725" lon="15.185635940176402"><ele>552.0</ele><time>2026-04-26T07:39:01.96Z</time></trkpt><trkpt lat="37.989145502414466" lon="15.185591644317912"><ele>552.0</ele><time>2026-04-26T07:39:02.96Z</time></trkpt><trkpt lat="37.989342456472" lon="15.185559451104577"><ele>548.3333333333334</ele><time>2026-04-26T07:39:03.96Z</time></trkpt><trkpt lat="37.98952818510166" lon="15.185523601709638"><ele>544.6666666666667</ele><time>2026-04-26T07:39:04.96Z</time></trkpt><trkpt lat="37.98970180103523" lon="15.185468276768178"><ele>541.0</ele><time>2026-04-26T07:39:05.96Z</time></trkpt><trkpt lat="37.98988276251108" lon="15.185381416899416"><ele>533.3333333333334</ele><time>2026-04-26T07:39:06.96Z</time></trkpt><trkpt lat="37.99006332021284" lon="15.185259825831801"><ele>525.6666666666666</ele><time>2026-04-26T07:39:07.96Z</time></trkpt><trkpt lat="37.99023694134222" lon="15.185150997952405"><ele>518.0</ele><time>2026-04-26T07:39:08.96Z</time></trkpt><trkpt lat="37.99040710771482" lon="15.185034446759426"><ele>518.0</ele><time>2026-04-26T07:39:09.96Z</time></trkpt><trkpt lat="37.99057624883421" lon="15.184930394348127"><ele>518.0</ele><time>2026-04-26T07:39:10.96Z</time></trkpt><trkpt lat="37.99074395627591" lon="15.184829095968967"><ele>518.0</ele><time>2026-04-26T07:39:11.96Z</time></trkpt><trkpt lat="37.99090774993957" lon="15.184735690359611"><ele>520.3333333333333</ele><time>2026-04-26T07:39:12.96Z</time></trkpt><trkpt lat="37.99106212302832" lon="15.184639335255612"><ele>522.6666666666666</ele><time>2026-04-26T07:39:13.96Z</time></trkpt><trkpt lat="37.991212459918124" lon="15.184552200758908"><ele>525.0</ele><time>2026-04-26T07:39:14.96Z</time></trkpt><trkpt lat="37.991366991614754" lon="15.184480284972329"><ele>525.0</ele><time>2026-04-26T07:39:15.96Z</time></trkpt><trkpt lat="37.99153941490222" lon="15.184438159007586"><ele>525.0</ele><time>2026-04-26T07:39:16.959Z</time></trkpt><trkpt lat="37.99172883907949" lon="15.184426452753573"><ele>525.0</ele><time>2026-04-26T07:39:17.959Z</time></trkpt><trkpt lat="37.99192067492269" lon="15.184459943814053"><ele>531.0</ele><time>2026-04-26T07:39:18.959Z</time></trkpt><trkpt lat="37.99211687742487" lon="15.184538843915394"><ele>537.0</ele><time>2026-04-26T07:39:19.959Z</time></trkpt><trkpt lat="37.99229398361236" lon="15.184657968466617"><ele>543.0</ele><time>2026-04-26T07:39:20.959Z</time></trkpt><trkpt lat="37.99242784881401" lon="15.18481624022196"><ele>544.6666666666666</ele><time>2026-04-26T07:39:21.959Z</time></trkpt><trkpt lat="37.99253899826293" lon="15.185003738980347"><ele>546.3333333333333</ele><time>2026-04-26T07:39:22.959Z</time></trkpt><trkpt lat="37.99264400041734" lon="15.185198447757271"><ele>548.0</ele><time>2026-04-26T07:39:23.959Z</time></trkpt><trkpt lat="37.99274096438126" lon="15.185388194540307"><ele>548.0</ele><time>2026-04-26T07:39:24.959Z</time></trkpt><trkpt lat="37.99283551026604" lon="15.18556072522894"><ele>548.0</ele><time>2026-04-26T07:39:25.959Z</time></trkpt><trkpt lat="37.99292789661179" lon="15.185712968633059"><ele>548.0</ele><time>2026-04-26T07:39:26.959Z</time></trkpt><trkpt lat="37.99303613682144" lon="15.185844844721414"><ele>541.3333333333333</ele><time>2026-04-26T07:39:27.959Z</time></trkpt><trkpt lat="37.993160457883974" lon="15.185959581366607"><ele>534.6666666666666</ele><time>2026-04-26T07:39:28.959Z</time></trkpt><trkpt lat="37.993311602467124" lon="15.186042228775579"><ele>528.0</ele><time>2026-04-26T07:39:29.959Z</time></trkpt><trkpt lat="37.99348544185795" lon="15.186111577388095"><ele>528.0</ele><time>2026-04-26T07:39:30.959Z</time></trkpt><trkpt lat="37.99367564476989" lon="15.18618509326992"><ele>528.0</ele><time>2026-04-26T07:39:31.959Z</time></trkpt><trkpt lat="37.993874307766916" lon="15.186276173580366"><ele>528.0</ele><time>2026-04-26T07:39:32.959Z</time></trkpt><trkpt lat="37.994062410897996" lon="15.186365990070964"><ele>524.3333333333334</ele><time>2026-04-26T07:39:33.959Z</time></trkpt><trkpt lat="37.99424066838213" lon="15.186452151578"><ele>520.6666666666667</ele><time>2026-04-26T07:39:34.959Z</time></trkpt><trkpt lat="37.99441362482365" lon="15.186538126974845"><ele>517.0</ele><time>2026-04-26T07:39:35.959Z</time></trkpt><trkpt lat="37.99457032849444" lon="15.186631967536542"><ele>517.0</ele><time>2026-04-26T07:39:36.959Z</time></trkpt><trkpt lat="37.99472129927378" lon="15.186742360878233"><ele>517.0</ele><time>2026-04-26T07:39:37.959Z</time></trkpt><trkpt lat="37.99486602236784" lon="15.186883739877569"><ele>517.0</ele><time>2026-04-26T07:39:38.959Z</time></trkpt><trkpt lat="37.994993492279555" lon="15.187046047393947"><ele>519.25</ele><time>2026-04-26T07:39:39.959Z</time></trkpt><trkpt lat="37.995117625029984" lon="15.18719718184334"><ele>521.5</ele><time>2026-04-26T07:39:40.959Z</time></trkpt><trkpt lat="37.995231459534104" lon="15.187319232066246"><ele>523.75</ele><time>2026-04-26T07:39:41.959Z</time></trkpt><trkpt lat="37.99534160506128" lon="15.187402394949697"><ele>526.0</ele><time>2026-04-26T07:39:42.959Z</time></trkpt><trkpt lat="37.99545350259486" lon="15.187467706794203"><ele>516.6666666666667</ele><time>2026-04-26T07:39:43.959Z</time></trkpt><trkpt lat="37.99560105662964" lon="15.187484645310331"><ele>507.33333333333337</ele><time>2026-04-26T07:39:44.959Z</time></trkpt><trkpt lat="37.995760013337595" lon="15.187507073951261"><ele>498.0</ele><time>2026-04-26T07:39:45.959Z</time></trkpt><trkpt lat="37.995941887835805" lon="15.187561476586927"><ele>496.66666666666663</ele><time>2026-04-26T07:39:46.959Z</time></trkpt><trkpt lat="37.996114341887406" lon="15.187614480648572"><ele>495.3333333333333</ele><time>2026-04-26T07:39:47.959Z</time></trkpt><trkpt lat="37.99628982349509" lon="15.18766645290829"><ele>494.0</ele><time>2026-04-26T07:39:48.959Z</time></trkpt><trkpt lat="37.99646977729107" lon="15.18771515574595"><ele>494.0</ele><time>2026-04-26T07:39:49.959Z</time></trkpt><trkpt lat="37.99665321058479" lon="15.187773020401501"><ele>494.0</ele><time>2026-04-26T07:39:50.959Z</time></trkpt><trkpt lat="37.99685394763103" lon="15.187817110418099"><ele>494.0</ele><time>2026-04-26T07:39:51.959Z</time></trkpt><trkpt lat="37.99706786914204" lon="15.18782758361256"><ele>494.3333333333333</ele><time>2026-04-26T07:39:52.958Z</time></trkpt><trkpt lat="37.99728856911241" lon="15.187816425496283"><ele>494.66666666666663</ele><time>2026-04-26T07:39:53.958Z</time></trkpt><trkpt lat="37.99750333196069" lon="15.187811035357885"><ele>495.0</ele><time>2026-04-26T07:39:54.958Z</time></trkpt><trkpt lat="37.997699570458586" lon="15.18780681814204"><ele>495.0</ele><time>2026-04-26T07:39:55.958Z</time></trkpt><trkpt lat="37.99788698343729" lon="15.187805891538183"><ele>495.0</ele><time>2026-04-26T07:39:56.958Z</time></trkpt><trkpt lat="37.99805778878382" lon="15.187828332110008"><ele>495.0</ele><time>2026-04-26T07:39:57.958Z</time></trkpt><trkpt lat="37.998231177229876" lon="15.187876418438636"><ele>493.33333333333337</ele><time>2026-04-26T07:39:58.958Z</time></trkpt><trkpt lat="37.99839420110078" lon="15.187969525472193"><ele>491.6666666666667</ele><time>2026-04-26T07:39:59.958Z</time></trkpt><trkpt lat="37.998561840198484" lon="15.18811275954283"><ele>490.0</ele><time>2026-04-26T07:40:00.958Z</time></trkpt><trkpt lat="37.99871298070359" lon="15.188259743790613"><ele>490.0</ele><time>2026-04-26T07:40:01.958Z</time></trkpt><trkpt lat="37.998852056323074" lon="15.188396475490915"><ele>490.0</ele><time>2026-04-26T07:40:02.958Z</time></trkpt><trkpt lat="37.998988718908464" lon="15.188512408912716"><ele>490.0</ele><time>2026-04-26T07:40:03.958Z</time></trkpt><trkpt lat="37.99913157769985" lon="15.188557759845335"><ele>488.6666666666667</ele><time>2026-04-26T07:40:04.958Z</time></trkpt><trkpt lat="37.999283672373835" lon="15.18855966178824"><ele>487.33333333333337</ele><time>2026-04-26T07:40:05.958Z</time></trkpt><trkpt lat="37.999444482187656" lon="15.188510918128003"><ele>486.0</ele><time>2026-04-26T07:40:06.958Z</time></trkpt><trkpt lat="37.999623661404186" lon="15.188447564737993"><ele>486.0</ele><time>2026-04-26T07:40:07.958Z</time></trkpt><trkpt lat="37.99981188232174" lon="15.18841131330306"><ele>486.0</ele><time>2026-04-26T07:40:08.958Z</time></trkpt><trkpt lat="38.0000125790975" lon="15.188400145943158"><ele>486.0</ele><time>2026-04-26T07:40:09.958Z</time></trkpt><trkpt lat="38.00022344004899" lon="15.18840643519913"><ele>486.0</ele><time>2026-04-26T07:40:10.958Z</time></trkpt><trkpt lat="38.000453610479575" lon="15.188457200130404"><ele>486.0</ele><time>2026-04-26T07:40:11.958Z</time></trkpt><trkpt lat="38.000680846179165" lon="15.188522441464798"><ele>487.66666666666663</ele><time>2026-04-26T07:40:12.958Z</time></trkpt><trkpt lat="38.00088917976424" lon="15.188587274589564"><ele>489.3333333333333</ele><time>2026-04-26T07:40:13.958Z</time></trkpt><trkpt lat="38.00109840762072" lon="15.188662310374903"><ele>491.0</ele><time>2026-04-26T07:40:14.958Z</time></trkpt><trkpt lat="38.00131267328366" lon="15.188747881994253"><ele>491.0</ele><time>2026-04-26T07:40:15.958Z</time></trkpt><trkpt lat="38.00151569853347" lon="15.18884524480287"><ele>491.0</ele><time>2026-04-26T07:40:16.958Z</time></trkpt><trkpt lat="38.001707809202294" lon="15.188932517028066"><ele>491.0</ele><time>2026-04-26T07:40:17.958Z</time></trkpt><trkpt lat="38.001883455497946" lon="15.189007465323622"><ele>485.0</ele><time>2026-04-26T07:40:18.958Z</time></trkpt><trkpt lat="38.00204705076963" lon="15.189100513596793"><ele>479.0</ele><time>2026-04-26T07:40:19.958Z</time></trkpt><trkpt lat="38.002207392135496" lon="15.189219921321694"><ele>473.0</ele><time>2026-04-26T07:40:20.958Z</time></trkpt><trkpt lat="38.002361195930995" lon="15.189367635251868"><ele>473.0</ele><time>2026-04-26T07:40:21.958Z</time></trkpt><trkpt lat="38.00249251159922" lon="15.189511873761282"><ele>473.0</ele><time>2026-04-26T07:40:22.958Z</time></trkpt><trkpt lat="38.002617339468806" lon="15.189655873881721"><ele>473.0</ele><time>2026-04-26T07:40:23.958Z</time></trkpt><trkpt lat="38.00272005282627" lon="15.189816613879144"><ele>472.0</ele><time>2026-04-26T07:40:24.958Z</time></trkpt><trkpt lat="38.002806056685024" lon="15.19001067755216"><ele>471.0</ele><time>2026-04-26T07:40:25.958Z</time></trkpt><trkpt lat="38.002904547014005" lon="15.190196043611781"><ele>470.0</ele><time>2026-04-26T07:40:26.958Z</time></trkpt><trkpt lat="38.00302954895939" lon="15.190337287082507"><ele>470.0</ele><time>2026-04-26T07:40:27.958Z</time></trkpt><trkpt lat="38.00318137491494" lon="15.190445665063821"><ele>470.0</ele><time>2026-04-26T07:40:28.957Z</time></trkpt><trkpt lat="38.003351282892176" lon="15.190527315195204"><ele>470.0</ele><time>2026-04-26T07:40:29.957Z</time></trkpt><trkpt lat="38.003535195603874" lon="15.190618657632786"><ele>467.66666666666663</ele><time>2026-04-26T07:40:30.957Z</time></trkpt><trkpt lat="38.00370682435177" lon="15.19072067167796"><ele>465.33333333333337</ele><time>2026-04-26T07:40:31.957Z</time></trkpt><trkpt lat="38.00389393874286" lon="15.190806959294457"><ele>463.0</ele><time>2026-04-26T07:40:32.957Z</time></trkpt><trkpt lat="38.00408161447599" lon="15.190911141101154"><ele>464.0</ele><time>2026-04-26T07:40:33.957Z</time></trkpt><trkpt lat="38.00425964874707" lon="15.191008103350093"><ele>465.0</ele><time>2026-04-26T07:40:34.957Z</time></trkpt><trkpt lat="38.004428559467236" lon="15.1910976142414"><ele>466.0</ele><time>2026-04-26T07:40:35.957Z</time></trkpt><trkpt lat="38.004596413475255" lon="15.19118966230583"><ele>466.0</ele><time>2026-04-26T07:40:36.957Z</time></trkpt><trkpt lat="38.00475675642216" lon="15.191279205830897"><ele>466.0</ele><time>2026-04-26T07:40:37.957Z</time></trkpt><trkpt lat="38.0049193328669" lon="15.19137010283143"><ele>466.0</ele><time>2026-04-26T07:40:38.961Z</time></trkpt><trkpt lat="38.005095506695874" lon="15.1914451979604"><ele>463.6666666666667</ele><time>2026-04-26T07:40:39.96Z</time></trkpt><trkpt lat="38.00529656227511" lon="15.19149445017856"><ele>461.33333333333337</ele><time>2026-04-26T07:40:40.96Z</time></trkpt><trkpt lat="38.00549967114647" lon="15.191542524833741"><ele>459.0</ele><time>2026-04-26T07:40:41.961Z</time></trkpt><trkpt lat="38.00570824347104" lon="15.191597978417798"><ele>458.66666666666663</ele><time>2026-04-26T07:40:42.96Z</time></trkpt><trkpt lat="38.00590834884333" lon="15.19166315462222"><ele>458.3333333333333</ele><time>2026-04-26T07:40:43.96Z</time></trkpt><trkpt lat="38.00608654237357" lon="15.191710325705039"><ele>458.0</ele><time>2026-04-26T07:40:44.961Z</time></trkpt><trkpt lat="38.00626175169162" lon="15.191758679734383"><ele>458.0</ele><time>2026-04-26T07:40:45.961Z</time></trkpt><trkpt lat="38.00642520711277" lon="15.191798134030439"><ele>458.0</ele><time>2026-04-26T07:40:46.961Z</time></trkpt><trkpt lat="38.006574542204135" lon="15.191819733405737"><ele>458.0</ele><time>2026-04-26T07:40:47.96Z</time></trkpt><trkpt lat="38.00669984906148" lon="15.191824421012601"><ele>458.0</ele><time>2026-04-26T07:40:48.96Z</time></trkpt><trkpt lat="38.00682231636894" lon="15.19180549423101"><ele>456.75</ele><time>2026-04-26T07:40:49.96Z</time></trkpt><trkpt lat="38.006941142048454" lon="15.19175980427112"><ele>455.5</ele><time>2026-04-26T07:40:50.96Z</time></trkpt><trkpt lat="38.007057738312305" lon="15.191685267226784"><ele>454.25</ele><time>2026-04-26T07:40:51.961Z</time></trkpt><trkpt lat="38.007171399673915" lon="15.191614980863623"><ele>453.0</ele><time>2026-04-26T07:40:52.961Z</time></trkpt><trkpt lat="38.007284731296664" lon="15.191532429703361"><ele>451.0</ele><time>2026-04-26T07:40:53.961Z</time></trkpt><trkpt lat="38.00741106493129" lon="15.191431283231429"><ele>449.0</ele><time>2026-04-26T07:40:54.961Z</time></trkpt><trkpt lat="38.00755088101037" lon="15.191312746013896"><ele>447.0</ele><time>2026-04-26T07:40:55.961Z</time></trkpt><trkpt lat="38.00768864937178" lon="15.191197942561953"><ele>447.0</ele><time>2026-04-26T07:40:56.961Z</time></trkpt><trkpt lat="38.007826116819395" lon="15.191074324152417"><ele>447.0</ele><time>2026-04-26T07:40:57.961Z</time></trkpt><trkpt lat="38.00796927848622" lon="15.190953068785976"><ele>447.0</ele><time>2026-04-26T07:40:58.961Z</time></trkpt><trkpt lat="38.008108032796386" lon="15.190821467483955"><ele>447.0</ele><time>2026-04-26T07:40:59.96Z</time></trkpt><trkpt lat="38.00823980190894" lon="15.190698826198485"><ele>447.0</ele><time>2026-04-26T07:41:00.96Z</time></trkpt><trkpt lat="38.00836789071065" lon="15.190564153521974"><ele>447.0</ele><time>2026-04-26T07:41:01.96Z</time></trkpt><trkpt lat="38.008493230728725" lon="15.190407665863994"><ele>444.66666666666663</ele><time>2026-04-26T07:41:02.96Z</time></trkpt><trkpt lat="38.00863150656974" lon="15.19025188158788"><ele>442.3333333333333</ele><time>2026-04-26T07:41:03.96Z</time></trkpt><trkpt lat="38.00877235149275" lon="15.190101567659708"><ele>440.0</ele><time>2026-04-26T07:41:04.96Z</time></trkpt><trkpt lat="38.00890573448938" lon="15.189955952561064"><ele>440.66666666666663</ele><time>2026-04-26T07:41:05.96Z</time></trkpt><trkpt lat="38.00903924313613" lon="15.189819516363675"><ele>441.33333333333337</ele><time>2026-04-26T07:41:06.96Z</time></trkpt><trkpt lat="38.00917821175908" lon="15.1896954181294"><ele>442.0</ele><time>2026-04-26T07:41:07.96Z</time></trkpt><trkpt lat="38.00931731371222" lon="15.189589514085597"><ele>442.0</ele><time>2026-04-26T07:41:08.96Z</time></trkpt><trkpt lat="38.009455483448825" lon="15.189500538297132"><ele>442.0</ele><time>2026-04-26T07:41:09.96Z</time></trkpt><trkpt lat="38.00959345540348" lon="15.189421329714241"><ele>442.0</ele><time>2026-04-26T07:41:10.96Z</time></trkpt><trkpt lat="38.00973089816666" lon="15.189339531348407"><ele>442.0</ele><time>2026-04-26T07:41:11.96Z</time></trkpt><trkpt lat="38.009892642885255" lon="15.189296320018432"><ele>442.0</ele><time>2026-04-26T07:41:12.96Z</time></trkpt><trkpt lat="38.01007422796631" lon="15.189274914227147"><ele>442.0</ele><time>2026-04-26T07:41:13.96Z</time></trkpt><trkpt lat="38.010253909406174" lon="15.189264445406623"><ele>442.33333333333337</ele><time>2026-04-26T07:41:14.96Z</time></trkpt><trkpt lat="38.01044351355548" lon="15.18924903880805"><ele>442.66666666666663</ele><time>2026-04-26T07:41:15.96Z</time></trkpt><trkpt lat="38.01064362052754" lon="15.189231258261866"><ele>443.0</ele><time>2026-04-26T07:41:16.96Z</time></trkpt><trkpt lat="38.010838115614675" lon="15.189215083883697"><ele>442.3333333333333</ele><time>2026-04-26T07:41:17.96Z</time></trkpt><trkpt lat="38.01101825290675" lon="15.189197276297264"><ele>441.66666666666663</ele><time>2026-04-26T07:41:18.96Z</time></trkpt><trkpt lat="38.01119145628739" lon="15.189180821982267"><ele>441.0</ele><time>2026-04-26T07:41:19.96Z</time></trkpt><trkpt lat="38.011361526330795" lon="15.189165510170604"><ele>441.0</ele><time>2026-04-26T07:41:20.96Z</time></trkpt><trkpt lat="38.01153172488797" lon="15.189160384064756"><ele>441.0</ele><time>2026-04-26T07:41:21.96Z</time></trkpt><trkpt lat="38.01170789192012" lon="15.189146471198207"><ele>441.0</ele><time>2026-04-26T07:41:22.96Z</time></trkpt><trkpt lat="38.01187968593487" lon="15.18913129797112"><ele>439.33333333333337</ele><time>2026-04-26T07:41:23.96Z</time></trkpt><trkpt lat="38.01204970032171" lon="15.189114665527777"><ele>437.6666666666667</ele><time>2026-04-26T07:41:24.96Z</time></trkpt><trkpt lat="38.01221441987182" lon="15.189107112118082"><ele>436.0</ele><time>2026-04-26T07:41:25.96Z</time></trkpt><trkpt lat="38.01238121397713" lon="15.189117203491218"><ele>435.33333333333337</ele><time>2026-04-26T07:41:26.96Z</time></trkpt><trkpt lat="38.01253556892745" lon="15.189144388150611"><ele>434.66666666666663</ele><time>2026-04-26T07:41:27.96Z</time></trkpt><trkpt lat="38.01269999289467" lon="15.189203929058133"><ele>434.0</ele><time>2026-04-26T07:41:28.96Z</time></trkpt><trkpt lat="38.01285424265881" lon="15.189299606082189"><ele>434.0</ele><time>2026-04-26T07:41:29.96Z</time></trkpt><trkpt lat="38.01298850952639" lon="15.189406573320026"><ele>434.0</ele><time>2026-04-26T07:41:30.96Z</time></trkpt><trkpt lat="38.01311927434516" lon="15.189511677019087"><ele>434.0</ele><time>2026-04-26T07:41:31.96Z</time></trkpt><trkpt lat="38.01324125331979" lon="15.189641022343622"><ele>432.75</ele><time>2026-04-26T07:41:32.96Z</time></trkpt><trkpt lat="38.0133412839889" lon="15.189783644348886"><ele>431.5</ele><time>2026-04-26T07:41:33.96Z</time></trkpt><trkpt lat="38.01344199721419" lon="15.189910205637462"><ele>430.25</ele><time>2026-04-26T07:41:34.96Z</time></trkpt><trkpt lat="38.01355792671552" lon="15.190003627777175"><ele>429.0</ele><time>2026-04-26T07:41:35.959Z</time></trkpt><trkpt lat="38.01369374559925" lon="15.190087835100897"><ele>429.0</ele><time>2026-04-26T07:41:36.959Z</time></trkpt><trkpt lat="38.01386722058298" lon="15.190139674438702"><ele>429.0</ele><time>2026-04-26T07:41:37.959Z</time></trkpt><trkpt lat="38.01403423598783" lon="15.190160302270664"><ele>429.0</ele><time>2026-04-26T07:41:38.959Z</time></trkpt><trkpt lat="38.01418875980272" lon="15.190173875052164"><ele>430.33333333333337</ele><time>2026-04-26T07:41:39.959Z</time></trkpt><trkpt lat="38.01435256634964" lon="15.190157531866914"><ele>431.6666666666667</ele><time>2026-04-26T07:41:40.959Z</time></trkpt><trkpt lat="38.01453976454476" lon="15.19009780918985"><ele>433.0</ele><time>2026-04-26T07:41:41.959Z</time></trkpt><trkpt lat="38.01471622236631" lon="15.190006693758454"><ele>433.0</ele><time>2026-04-26T07:41:42.959Z</time></trkpt><trkpt lat="38.01488174247466" lon="15.189930487460856"><ele>433.0</ele><time>2026-04-26T07:41:43.959Z</time></trkpt><trkpt lat="38.01505547768666" lon="15.189840882139173"><ele>433.0</ele><time>2026-04-26T07:41:44.959Z</time></trkpt><trkpt lat="38.01524481174082" lon="15.189720734450427"><ele>436.6666666666667</ele><time>2026-04-26T07:41:45.959Z</time></trkpt><trkpt lat="38.01543698910077" lon="15.18957617115753"><ele>440.33333333333337</ele><time>2026-04-26T07:41:46.959Z</time></trkpt><trkpt lat="38.0156179631455" lon="15.189423022601689"><ele>444.0</ele><time>2026-04-26T07:41:47.959Z</time></trkpt><trkpt lat="38.01578425609806" lon="15.189289929830238"><ele>442.66666666666663</ele><time>2026-04-26T07:41:48.959Z</time></trkpt><trkpt lat="38.015938100438554" lon="15.189120701335844"><ele>441.3333333333333</ele><time>2026-04-26T07:41:49.959Z</time></trkpt><trkpt lat="38.01608591895187" lon="15.18891033868574"><ele>440.0</ele><time>2026-04-26T07:41:50.959Z</time></trkpt><trkpt lat="38.01621478852544" lon="15.188668698569474"><ele>440.0</ele><time>2026-04-26T07:41:51.959Z</time></trkpt><trkpt lat="38.01635706323563" lon="15.188410461675874"><ele>440.0</ele><time>2026-04-26T07:41:52.959Z</time></trkpt><trkpt lat="38.01650704855682" lon="15.188155398171899"><ele>440.3333333333333</ele><time>2026-04-26T07:41:53.959Z</time></trkpt><trkpt lat="38.016637949432756" lon="15.187918175525194"><ele>440.66666666666663</ele><time>2026-04-26T07:41:54.959Z</time></trkpt><trkpt lat="38.016761632220756" lon="15.187709277206773"><ele>441.0</ele><time>2026-04-26T07:41:55.959Z</time></trkpt><trkpt lat="38.016894555258745" lon="15.187524678644662"><ele>440.66666666666663</ele><time>2026-04-26T07:41:56.959Z</time></trkpt><trkpt lat="38.017020706012396" lon="15.187349602250421"><ele>440.3333333333333</ele><time>2026-04-26T07:41:57.959Z</time></trkpt><trkpt lat="38.01717229999405" lon="15.187193740901446"><ele>440.0</ele><time>2026-04-26T07:41:58.959Z</time></trkpt><trkpt lat="38.01732068723639" lon="15.187066278872317"><ele>440.0</ele><time>2026-04-26T07:41:59.959Z</time></trkpt><trkpt lat="38.017459419959444" lon="15.18694833646751"><ele>440.0</ele><time>2026-04-26T07:42:00.959Z</time></trkpt><trkpt lat="38.01758891434218" lon="15.186841864234317"><ele>440.0</ele><time>2026-04-26T07:42:01.959Z</time></trkpt><trkpt lat="38.01771836828434" lon="15.186749445508624"><ele>439.66666666666663</ele><time>2026-04-26T07:42:02.959Z</time></trkpt><trkpt lat="38.0178503571141" lon="15.186662367271692"><ele>439.33333333333337</ele><time>2026-04-26T07:42:03.959Z</time></trkpt><trkpt lat="38.01799643903167" lon="15.186585255193698"><ele>439.0</ele><time>2026-04-26T07:42:04.959Z</time></trkpt><trkpt lat="38.0181724066375" lon="15.186538027483612"><ele>441.33333333333337</ele><time>2026-04-26T07:42:05.959Z</time></trkpt><trkpt lat="38.01835122783134" lon="15.186522545661216"><ele>443.66666666666663</ele><time>2026-04-26T07:42:06.959Z</time></trkpt><trkpt lat="38.01853417419977" lon="15.18655580721893"><ele>446.0</ele><time>2026-04-26T07:42:07.959Z</time></trkpt><trkpt lat="38.01871159488153" lon="15.186618213315136"><ele>446.0</ele><time>2026-04-26T07:42:08.959Z</time></trkpt><trkpt lat="38.01886347717284" lon="15.18669778486811"><ele>446.0</ele><time>2026-04-26T07:42:09.959Z</time></trkpt><trkpt lat="38.01901566982521" lon="15.186739323074523"><ele>446.0</ele><time>2026-04-26T07:42:10.958Z</time></trkpt><trkpt lat="38.01918170246319" lon="15.186742273146356"><ele>450.3333333333333</ele><time>2026-04-26T07:42:11.958Z</time></trkpt><trkpt lat="38.01936571603592" lon="15.186743915566874"><ele>454.66666666666663</ele><time>2026-04-26T07:42:12.958Z</time></trkpt><trkpt lat="38.01955849554036" lon="15.186751475330277"><ele>459.0</ele><time>2026-04-26T07:42:13.958Z</time></trkpt><trkpt lat="38.019733191700496" lon="15.186796359745616"><ele>459.0</ele><time>2026-04-26T07:42:14.958Z</time></trkpt><trkpt lat="38.01988684557776" lon="15.186838132651738"><ele>459.0</ele><time>2026-04-26T07:42:15.958Z</time></trkpt><trkpt lat="38.02000812921139" lon="15.186881025753951"><ele>459.0</ele><time>2026-04-26T07:42:16.958Z</time></trkpt><trkpt lat="38.020114022483895" lon="15.186898610252065"><ele>459.0</ele><time>2026-04-26T07:42:17.958Z</time></trkpt><trkpt lat="38.02021280895721" lon="15.18689290469829"><ele>460.5</ele><time>2026-04-26T07:42:18.958Z</time></trkpt><trkpt lat="38.020290690274116" lon="15.186857056711446"><ele>462.0</ele><time>2026-04-26T07:42:19.958Z</time></trkpt><trkpt lat="38.02034087008623" lon="15.186780419299556"><ele>463.5</ele><time>2026-04-26T07:42:21.958Z</time></trkpt><trkpt lat="38.02041668577323" lon="15.186749214062663"><ele>465.0</ele><time>2026-04-26T07:42:25.958Z</time></trkpt><trkpt lat="38.02051477611261" lon="15.186729363274404"><ele>466.5</ele><time>2026-04-26T07:42:28.958Z</time></trkpt><trkpt lat="38.020579002622796" lon="15.186741420591334"><ele>468.0</ele><time>2026-04-26T07:42:29.958Z</time></trkpt><trkpt lat="38.02065668835507" lon="15.186752102380337"><ele>468.0</ele><time>2026-04-26T07:42:30.958Z</time></trkpt><trkpt lat="38.020742322119624" lon="15.186757451213895"><ele>468.0</ele><time>2026-04-26T07:42:31.958Z</time></trkpt><trkpt lat="38.02082935578595" lon="15.186767203260988"><ele>468.0</ele><time>2026-04-26T07:42:32.958Z</time></trkpt><trkpt lat="38.02090974312256" lon="15.18675447160556"><ele>468.0</ele><time>2026-04-26T07:42:33.958Z</time></trkpt><trkpt lat="38.02097421236166" lon="15.186732035123569"><ele>468.0</ele><time>2026-04-26T07:42:34.958Z</time></trkpt><trkpt lat="38.02106055988468" lon="15.186702494634488"><ele>468.0</ele><time>2026-04-26T07:42:36.958Z</time></trkpt><trkpt lat="38.0211226396918" lon="15.18664521485295"><ele>467.0</ele><time>2026-04-26T07:42:39.958Z</time></trkpt><trkpt lat="38.02118510147687" lon="15.186591122938918"><ele>466.0</ele><time>2026-04-26T07:42:43.958Z</time></trkpt><trkpt lat="38.02124445022987" lon="15.18652340396409"><ele>465.0</ele><time>2026-04-26T07:42:47.961Z</time></trkpt><trkpt lat="38.02130324157631" lon="15.186457338842427"><ele>464.0</ele><time>2026-04-26T07:42:51.96Z</time></trkpt><trkpt lat="38.021357688226786" lon="15.186410985042189"><ele>463.0</ele><time>2026-04-26T07:42:55.96Z</time></trkpt><trkpt lat="38.021416026264454" lon="15.18636156451749"><ele>462.0</ele><time>2026-04-26T07:43:00.96Z</time></trkpt><trkpt lat="38.021504982039346" lon="15.186304355560106"><ele>465.5</ele><time>2026-04-26T07:43:20.959Z</time></trkpt><trkpt lat="38.02156882114758" lon="15.186271939943282"><ele>469.0</ele><time>2026-04-26T07:43:21.959Z</time></trkpt><trkpt lat="38.02164903891328" lon="15.186239066033215"><ele>472.5</ele><time>2026-04-26T07:43:22.959Z</time></trkpt><trkpt lat="38.02173378339997" lon="15.186214020608313"><ele>476.0</ele><time>2026-04-26T07:43:23.959Z</time></trkpt><trkpt lat="38.02182178269" lon="15.186203058515357"><ele>479.5</ele><time>2026-04-26T07:43:24.959Z</time></trkpt><trkpt lat="38.02191133449981" lon="15.186211815898995"><ele>483.0</ele><time>2026-04-26T07:43:25.959Z</time></trkpt><trkpt lat="38.022005765199786" lon="15.186235470060163"><ele>483.0</ele><time>2026-04-26T07:43:26.959Z</time></trkpt><trkpt lat="38.022103725955816" lon="15.18627064625772"><ele>482.99999999999994</ele><time>2026-04-26T07:43:27.959Z</time></trkpt><trkpt lat="38.02220326665611" lon="15.186314285632301"><ele>482.99999999999994</ele><time>2026-04-26T07:43:28.959Z</time></trkpt><trkpt lat="38.022301807943194" lon="15.186378551306747"><ele>483.0</ele><time>2026-04-26T07:43:29.959Z</time></trkpt><trkpt lat="38.022398087887176" lon="15.186458718445783"><ele>483.0</ele><time>2026-04-26T07:43:30.959Z</time></trkpt><trkpt lat="38.02249064590176" lon="15.186546040809475"><ele>475.0</ele><time>2026-04-26T07:43:31.959Z</time></trkpt><trkpt lat="38.02258461924915" lon="15.186640156110672"><ele>467.0</ele><time>2026-04-26T07:43:32.959Z</time></trkpt><trkpt lat="38.02267741712809" lon="15.186732084004976"><ele>459.0</ele><time>2026-04-26T07:43:33.959Z</time></trkpt><trkpt lat="38.02277083364463" lon="15.186827993581325"><ele>451.0</ele><time>2026-04-26T07:43:34.959Z</time></trkpt><trkpt lat="38.022876371884024" lon="15.186928246813359"><ele>451.0</ele><time>2026-04-26T07:43:35.959Z</time></trkpt><trkpt lat="38.0230018433113" lon="15.187021761529502"><ele>451.0</ele><time>2026-04-26T07:43:36.959Z</time></trkpt><trkpt lat="38.023143895363695" lon="15.18707039727213"><ele>451.0</ele><time>2026-04-26T07:43:37.959Z</time></trkpt><trkpt lat="38.0232838854325" lon="15.187110196889725"><ele>451.0</ele><time>2026-04-26T07:43:38.959Z</time></trkpt><trkpt lat="38.02342904595394" lon="15.187133565462451"><ele>454.6666666666667</ele><time>2026-04-26T07:43:39.959Z</time></trkpt><trkpt lat="38.023588634120614" lon="15.187126466513735"><ele>458.33333333333337</ele><time>2026-04-26T07:43:40.959Z</time></trkpt><trkpt lat="38.0237521371955" lon="15.187102100093671"><ele>462.0</ele><time>2026-04-26T07:43:41.959Z</time></trkpt><trkpt lat="38.0239093927439" lon="15.187091689981376"><ele>462.0</ele><time>2026-04-26T07:43:42.959Z</time></trkpt><trkpt lat="38.024074065914604" lon="15.187090506144845"><ele>462.0</ele><time>2026-04-26T07:43:43.959Z</time></trkpt><trkpt lat="38.02423308980724" lon="15.187096142241533"><ele>462.0</ele><time>2026-04-26T07:43:44.959Z</time></trkpt><trkpt lat="38.024395272749146" lon="15.187114645206693"><ele>462.0</ele><time>2026-04-26T07:43:45.959Z</time></trkpt><trkpt lat="38.02455005485876" lon="15.187115989871328"><ele>462.0</ele><time>2026-04-26T07:43:46.959Z</time></trkpt><trkpt lat="38.02469811723062" lon="15.18710531753313"><ele>462.0</ele><time>2026-04-26T07:43:47.959Z</time></trkpt><trkpt lat="38.02483603831662" lon="15.18708778706658"><ele>462.0</ele><time>2026-04-26T07:43:48.959Z</time></trkpt><trkpt lat="38.024947343508906" lon="15.187029648518667"><ele>460.75</ele><time>2026-04-26T07:43:49.959Z</time></trkpt><trkpt lat="38.02505346238732" lon="15.186937365485223"><ele>459.5</ele><time>2026-04-26T07:43:50.959Z</time></trkpt><trkpt lat="38.025144216604254" lon="15.186814798659322"><ele>458.25</ele><time>2026-04-26T07:43:51.958Z</time></trkpt><trkpt lat="38.02521535391793" lon="15.186664759037829"><ele>457.0</ele><time>2026-04-26T07:43:52.958Z</time></trkpt><trkpt lat="38.025257369013744" lon="15.186494385139547"><ele>457.0</ele><time>2026-04-26T07:43:53.958Z</time></trkpt><trkpt lat="38.025286385714" lon="15.186328572623916"><ele>457.0</ele><time>2026-04-26T07:43:54.958Z</time></trkpt><trkpt lat="38.02532308868477" lon="15.186156627163601"><ele>457.0</ele><time>2026-04-26T07:43:55.958Z</time></trkpt><trkpt lat="38.02538030632676" lon="15.185980650747265"><ele>457.0</ele><time>2026-04-26T07:43:56.958Z</time></trkpt><trkpt lat="38.025463036426565" lon="15.18581500396642"><ele>454.6666666666667</ele><time>2026-04-26T07:43:57.958Z</time></trkpt><trkpt lat="38.0255685233536" lon="15.185662470761173"><ele>452.33333333333337</ele><time>2026-04-26T07:43:58.958Z</time></trkpt><trkpt lat="38.025700380008644" lon="15.185529810762727"><ele>450.0</ele><time>2026-04-26T07:43:59.958Z</time></trkpt><trkpt lat="38.025848349131834" lon="15.185429143512582"><ele>450.0</ele><time>2026-04-26T07:44:00.958Z</time></trkpt><trkpt lat="38.02600394844429" lon="15.185347903444415"><ele>450.0</ele><time>2026-04-26T07:44:01.958Z</time></trkpt><trkpt lat="38.026139921441086" lon="15.185264959042787"><ele>450.0</ele><time>2026-04-26T07:44:02.958Z</time></trkpt><trkpt lat="38.02626603776515" lon="15.18519273337193"><ele>450.0</ele><time>2026-04-26T07:44:03.958Z</time></trkpt><trkpt lat="38.026386733206834" lon="15.18512109902092"><ele>450.0</ele><time>2026-04-26T07:44:04.958Z</time></trkpt><trkpt lat="38.02650695993559" lon="15.185053052878786"><ele>450.0</ele><time>2026-04-26T07:44:05.958Z</time></trkpt><trkpt lat="38.0266329532458" lon="15.184975653692959"><ele>450.0</ele><time>2026-04-26T07:44:06.958Z</time></trkpt><trkpt lat="38.026751286514866" lon="15.184889759991837"><ele>452.0</ele><time>2026-04-26T07:44:07.958Z</time></trkpt><trkpt lat="38.026875314735406" lon="15.184802722909122"><ele>454.0</ele><time>2026-04-26T07:44:08.958Z</time></trkpt><trkpt lat="38.0269958437666" lon="15.184715208784645"><ele>456.0</ele><time>2026-04-26T07:44:09.958Z</time></trkpt><trkpt lat="38.02712309657824" lon="15.184635742767826"><ele>458.0</ele><time>2026-04-26T07:44:10.958Z</time></trkpt><trkpt lat="38.02722228232108" lon="15.184564349026958"><ele>458.0</ele><time>2026-04-26T07:44:11.958Z</time></trkpt><trkpt lat="38.02729502640307" lon="15.18448338863851"><ele>458.0</ele><time>2026-04-26T07:44:12.958Z</time></trkpt><trkpt lat="38.02733282331179" lon="15.184360786180715"><ele>458.0</ele><time>2026-04-26T07:44:13.958Z</time></trkpt><trkpt lat="38.02734390493191" lon="15.184207313317339"><ele>458.0</ele><time>2026-04-26T07:44:14.958Z</time></trkpt><trkpt lat="38.02734290291054" lon="15.184029550409829"><ele>457.2</ele><time>2026-04-26T07:44:15.958Z</time></trkpt><trkpt lat="38.027326995728686" lon="15.183849783188414"><ele>456.4</ele><time>2026-04-26T07:44:16.958Z</time></trkpt><trkpt lat="38.027312072851615" lon="15.183711412088677"><ele>455.59999999999997</ele><time>2026-04-26T07:44:17.958Z</time></trkpt><trkpt lat="38.02731759332506" lon="15.183601356018311"><ele>454.79999999999995</ele><time>2026-04-26T07:44:18.958Z</time></trkpt><trkpt lat="38.02731250821458" lon="15.18346799702964"><ele>454.0</ele><time>2026-04-26T07:44:20.958Z</time></trkpt><trkpt lat="38.02729243295876" lon="15.183357973532784"><ele>454.0</ele><time>2026-04-26T07:44:22.958Z</time></trkpt><trkpt lat="38.02729148012892" lon="15.183256576629343"><ele>454.0</ele><time>2026-04-26T07:44:23.958Z</time></trkpt><trkpt lat="38.0272935265898" lon="15.183114521638306"><ele>454.0</ele><time>2026-04-26T07:44:24.958Z</time></trkpt><trkpt lat="38.02728922255949" lon="15.182982070384458"><ele>454.0</ele><time>2026-04-26T07:44:25.958Z</time></trkpt><trkpt lat="38.02727126930943" lon="15.182860902956598"><ele>454.0</ele><time>2026-04-26T07:44:26.958Z</time></trkpt><trkpt lat="38.02722710428579" lon="15.182754723324356"><ele>446.5</ele><time>2026-04-26T07:44:27.957Z</time></trkpt><trkpt lat="38.027135550196874" lon="15.182672518390115"><ele>439.0</ele><time>2026-04-26T07:44:28.957Z</time></trkpt><trkpt lat="38.02701221634047" lon="15.18259170679319"><ele>431.5</ele><time>2026-04-26T07:44:29.957Z</time></trkpt><trkpt lat="38.02685498373222" lon="15.182509419978748"><ele>424.0</ele><time>2026-04-26T07:44:30.957Z</time></trkpt><trkpt lat="38.02669740954548" lon="15.182408888850205"><ele>425.6666666666667</ele><time>2026-04-26T07:44:31.957Z</time></trkpt><trkpt lat="38.026551743595995" lon="15.18230187379793"><ele>427.33333333333337</ele><time>2026-04-26T07:44:32.957Z</time></trkpt><trkpt lat="38.026417949685985" lon="15.182201998530077"><ele>429.0</ele><time>2026-04-26T07:44:33.957Z</time></trkpt><trkpt lat="38.02629512162289" lon="15.182122575524879"><ele>429.0</ele><time>2026-04-26T07:44:34.957Z</time></trkpt><trkpt lat="38.026194228765334" lon="15.182051111977355"><ele>429.0</ele><time>2026-04-26T07:44:35.957Z</time></trkpt><trkpt lat="38.02611544015462" lon="15.18198609303264"><ele>429.0</ele><time>2026-04-26T07:44:36.957Z</time></trkpt><trkpt lat="38.02605937580765" lon="15.181906468775951"><ele>429.0</ele><time>2026-04-26T07:44:37.957Z</time></trkpt><trkpt lat="38.02605788403751" lon="15.181791855492067"><ele>429.0</ele><time>2026-04-26T07:44:38.957Z</time></trkpt><trkpt lat="38.02611116075302" lon="15.181681156639542"><ele>429.0</ele><time>2026-04-26T07:44:39.957Z</time></trkpt><trkpt lat="38.026217440943086" lon="15.181651833973863"><ele>429.0</ele><time>2026-04-26T07:44:40.957Z</time></trkpt><trkpt lat="38.026306320168395" lon="15.181665277372026"><ele>429.0</ele><time>2026-04-26T07:44:41.957Z</time></trkpt><trkpt lat="38.02640576779681" lon="15.181743682711987"><ele>429.0</ele><time>2026-04-26T07:44:42.957Z</time></trkpt><trkpt lat="38.026494983984975" lon="15.18185853719354"><ele>429.0</ele><time>2026-04-26T07:44:43.957Z</time></trkpt><trkpt lat="38.02658144729144" lon="15.181956671185485"><ele>423.4</ele><time>2026-04-26T07:44:44.957Z</time></trkpt><trkpt lat="38.02666279107531" lon="15.182044986736907"><ele>417.79999999999995</ele><time>2026-04-26T07:44:45.957Z</time></trkpt><trkpt lat="38.026746177897856" lon="15.182126182812762"><ele>412.20000000000005</ele><time>2026-04-26T07:44:46.957Z</time></trkpt><trkpt lat="38.026827519444396" lon="15.182192757366721"><ele>406.6</ele><time>2026-04-26T07:44:47.957Z</time></trkpt><trkpt lat="38.026904023538584" lon="15.182233596482842"><ele>401.0</ele><time>2026-04-26T07:44:48.957Z</time></trkpt><trkpt lat="38.02697802297805" lon="15.182235892009684"><ele>400.99999999999994</ele><time>2026-04-26T07:44:49.957Z</time></trkpt><trkpt lat="38.02704499806119" lon="15.18221709630386"><ele>401.0</ele><time>2026-04-26T07:44:50.96Z</time></trkpt><trkpt lat="38.02709112058788" lon="15.182160315883584"><ele>401.0</ele><time>2026-04-26T07:44:51.96Z</time></trkpt><trkpt lat="38.02712623709688" lon="15.182092350195479"><ele>401.0</ele><time>2026-04-26T07:44:52.96Z</time></trkpt><trkpt lat="38.027131557446495" lon="15.181942047129416"><ele>400.99999999999994</ele><time>2026-04-26T07:44:54.96Z</time></trkpt><trkpt lat="38.02710575798471" lon="15.18186254580337"><ele>401.0</ele><time>2026-04-26T07:44:55.96Z</time></trkpt><trkpt lat="38.02706770471124" lon="15.181754590541935"><ele>401.0</ele><time>2026-04-26T07:44:56.959Z</time></trkpt><trkpt lat="38.02702438978813" lon="15.18157687555118"><ele>401.0</ele><time>2026-04-26T07:44:57.959Z</time></trkpt><trkpt lat="38.027003939156145" lon="15.181354648107442"><ele>401.0</ele><time>2026-04-26T07:44:58.959Z</time></trkpt><trkpt lat="38.02696294404119" lon="15.181117722272473"><ele>400.25</ele><time>2026-04-26T07:44:59.96Z</time></trkpt><trkpt lat="38.02691708802884" lon="15.180922479422044"><ele>399.5</ele><time>2026-04-26T07:45:00.959Z</time></trkpt><trkpt lat="38.026877733600536" lon="15.180750770918465"><ele>398.75</ele><time>2026-04-26T07:45:01.959Z</time></trkpt><trkpt lat="38.026816461530935" lon="15.180597487128237"><ele>398.0</ele><time>2026-04-26T07:45:02.959Z</time></trkpt><trkpt lat="38.026745209895466" lon="15.180451440751986"><ele>401.3333333333333</ele><time>2026-04-26T07:45:03.96Z</time></trkpt><trkpt lat="38.02665317981834" lon="15.180290529608806"><ele>404.66666666666663</ele><time>2026-04-26T07:45:04.96Z</time></trkpt><trkpt lat="38.026527352005935" lon="15.180124319885156"><ele>408.0</ele><time>2026-04-26T07:45:05.96Z</time></trkpt><trkpt lat="38.02638839831574" lon="15.17996019468814"><ele>410.33333333333337</ele><time>2026-04-26T07:45:06.959Z</time></trkpt><trkpt lat="38.02625045095028" lon="15.17977927455223"><ele>412.6666666666667</ele><time>2026-04-26T07:45:07.959Z</time></trkpt><trkpt lat="38.02612853806084" lon="15.179597516454205"><ele>415.0</ele><time>2026-04-26T07:45:08.959Z</time></trkpt><trkpt lat="38.02602422000099" lon="15.179421454843496"><ele>415.0</ele><time>2026-04-26T07:45:09.959Z</time></trkpt><trkpt lat="38.02593343733146" lon="15.179236818992301"><ele>415.0</ele><time>2026-04-26T07:45:10.959Z</time></trkpt><trkpt lat="38.025854141925386" lon="15.179040767846631"><ele>415.0</ele><time>2026-04-26T07:45:11.959Z</time></trkpt><trkpt lat="38.025771862020264" lon="15.178844693636588"><ele>421.33333333333337</ele><time>2026-04-26T07:45:12.959Z</time></trkpt><trkpt lat="38.02567770531919" lon="15.178648607200904"><ele>427.66666666666663</ele><time>2026-04-26T07:45:13.959Z</time></trkpt><trkpt lat="38.025596818436796" lon="15.178449051999369"><ele>434.0</ele><time>2026-04-26T07:45:14.959Z</time></trkpt><trkpt lat="38.025559607362055" lon="15.178273263975047"><ele>437.5</ele><time>2026-04-26T07:45:15.959Z</time></trkpt><trkpt lat="38.02554565431614" lon="15.178109587067528"><ele>441.0</ele><time>2026-04-26T07:45:16.959Z</time></trkpt><trkpt lat="38.02555590514229" lon="15.177935555556356"><ele>444.5</ele><time>2026-04-26T07:45:17.959Z</time></trkpt><trkpt lat="38.0255828806113" lon="15.177763715563804"><ele>448.0</ele><time>2026-04-26T07:45:18.959Z</time></trkpt><trkpt lat="38.025609757093484" lon="15.17763159786674"><ele>448.0</ele><time>2026-04-26T07:45:19.959Z</time></trkpt><trkpt lat="38.025623147780834" lon="15.177540769345137"><ele>447.99999999999994</ele><time>2026-04-26T07:45:20.959Z</time></trkpt><trkpt lat="38.02563501852587" lon="15.177383275000336"><ele>447.99999999999994</ele><time>2026-04-26T07:45:22.959Z</time></trkpt><trkpt lat="38.025666965148865" lon="15.177291851630647"><ele>448.0</ele><time>2026-04-26T07:45:23.959Z</time></trkpt><trkpt lat="38.02571280843224" lon="15.177185516740911"><ele>448.0</ele><time>2026-04-26T07:45:24.959Z</time></trkpt><trkpt lat="38.0257634296439" lon="15.177070230586992"><ele>445.75</ele><time>2026-04-26T07:45:25.959Z</time></trkpt><trkpt lat="38.02583051138374" lon="15.17695351718374"><ele>443.5</ele><time>2026-04-26T07:45:26.959Z</time></trkpt><trkpt lat="38.02592318109268" lon="15.176828704274847"><ele>441.25</ele><time>2026-04-26T07:45:27.959Z</time></trkpt><trkpt lat="38.026001186952946" lon="15.17670515778594"><ele>439.0</ele><time>2026-04-26T07:45:28.959Z</time></trkpt><trkpt lat="38.02605068175635" lon="15.176575002023247"><ele>440.4</ele><time>2026-04-26T07:45:29.959Z</time></trkpt><trkpt lat="38.026105806965894" lon="15.176438746043196"><ele>441.79999999999995</ele><time>2026-04-26T07:45:30.959Z</time></trkpt><trkpt lat="38.0261567827901" lon="15.176309629220661"><ele>443.20000000000005</ele><time>2026-04-26T07:45:31.959Z</time></trkpt><trkpt lat="38.026190665855005" lon="15.176193001194411"><ele>444.6</ele><time>2026-04-26T07:45:32.959Z</time></trkpt><trkpt lat="38.0262116111415" lon="15.176082077666335"><ele>446.0</ele><time>2026-04-26T07:45:33.959Z</time></trkpt><trkpt lat="38.0262224606949" lon="15.175971877353657"><ele>446.0</ele><time>2026-04-26T07:45:34.959Z</time></trkpt><trkpt lat="38.02621885163133" lon="15.175856698007111"><ele>446.0</ele><time>2026-04-26T07:45:35.959Z</time></trkpt><trkpt lat="38.02618849550693" lon="15.175735017784259"><ele>446.0</ele><time>2026-04-26T07:45:36.959Z</time></trkpt><trkpt lat="38.026125545310556" lon="15.175631067763641"><ele>446.0</ele><time>2026-04-26T07:45:37.959Z</time></trkpt><trkpt lat="38.02604135385803" lon="15.17553625068817"><ele>446.0</ele><time>2026-04-26T07:45:38.959Z</time></trkpt><trkpt lat="38.02594759059259" lon="15.17544194584164"><ele>448.25</ele><time>2026-04-26T07:45:39.959Z</time></trkpt><trkpt lat="38.025846833315605" lon="15.175342910157122"><ele>450.5</ele><time>2026-04-26T07:45:40.959Z</time></trkpt><trkpt lat="38.02573459139003" lon="15.175235306814534"><ele>452.75</ele><time>2026-04-26T07:45:41.959Z</time></trkpt><trkpt lat="38.02562267602809" lon="15.175122461310462"><ele>455.0</ele><time>2026-04-26T07:45:42.958Z</time></trkpt><trkpt lat="38.02552025432895" lon="15.174973401718084"><ele>460.0</ele><time>2026-04-26T07:45:43.958Z</time></trkpt><trkpt lat="38.02540929467929" lon="15.174805896265962"><ele>465.0</ele><time>2026-04-26T07:45:44.958Z</time></trkpt><trkpt lat="38.02530449909422" lon="15.174667606352008"><ele>470.0</ele><time>2026-04-26T07:45:45.958Z</time></trkpt><trkpt lat="38.025198017828345" lon="15.174567923417632"><ele>470.0</ele><time>2026-04-26T07:45:46.958Z</time></trkpt><trkpt lat="38.02510473810835" lon="15.174466781054079"><ele>470.0</ele><time>2026-04-26T07:45:47.958Z</time></trkpt><trkpt lat="38.024999933524015" lon="15.174356639373144"><ele>470.0</ele><time>2026-04-26T07:45:48.958Z</time></trkpt><trkpt lat="38.024897507016206" lon="15.174243018976261"><ele>470.0</ele><time>2026-04-26T07:45:49.958Z</time></trkpt><trkpt lat="38.02479733321927" lon="15.174126530528492"><ele>472.66666666666663</ele><time>2026-04-26T07:45:50.958Z</time></trkpt><trkpt lat="38.02472040885628" lon="15.173975041057867"><ele>475.33333333333337</ele><time>2026-04-26T07:45:51.958Z</time></trkpt><trkpt lat="38.02465861462329" lon="15.173791714817833"><ele>478.0</ele><time>2026-04-26T07:45:52.958Z</time></trkpt><trkpt lat="38.02458230320826" lon="15.173614064059432"><ele>478.0</ele><time>2026-04-26T07:45:53.958Z</time></trkpt><trkpt lat="38.02449162298165" lon="15.173464769811238"><ele>478.0</ele><time>2026-04-26T07:45:54.958Z</time></trkpt><trkpt lat="38.024363207435314" lon="15.173321663649135"><ele>478.0</ele><time>2026-04-26T07:45:55.958Z</time></trkpt><trkpt lat="38.02423093655727" lon="15.173182078874364"><ele>481.2</ele><time>2026-04-26T07:45:56.958Z</time></trkpt><trkpt lat="38.024134480578574" lon="15.1730528624619"><ele>484.4</ele><time>2026-04-26T07:45:57.958Z</time></trkpt><trkpt lat="38.02405818572016" lon="15.172935551981716"><ele>487.59999999999997</ele><time>2026-04-26T07:45:58.958Z</time></trkpt><trkpt lat="38.02400016423203" lon="15.172836352638559"><ele>490.79999999999995</ele><time>2026-04-26T07:45:59.958Z</time></trkpt><trkpt lat="38.02396646924629" lon="15.172734393332497"><ele>494.0</ele><time>2026-04-26T07:46:00.958Z</time></trkpt><trkpt lat="38.02394468904371" lon="15.172649915150243"><ele>493.99999999999994</ele><time>2026-04-26T07:46:01.958Z</time></trkpt><trkpt lat="38.02396377944882" lon="15.172566101926925"><ele>494.0</ele><time>2026-04-26T07:46:02.958Z</time></trkpt><trkpt lat="38.024021468939054" lon="15.172481249854226"><ele>494.0</ele><time>2026-04-26T07:46:03.958Z</time></trkpt><trkpt lat="38.02411181369079" lon="15.172444380842263"><ele>494.0</ele><time>2026-04-26T07:46:04.958Z</time></trkpt><trkpt lat="38.02419934212806" lon="15.172463801895468"><ele>493.99999999999994</ele><time>2026-04-26T07:46:05.958Z</time></trkpt><trkpt lat="38.02426297481729" lon="15.172532319502112"><ele>494.0</ele><time>2026-04-26T07:46:06.958Z</time></trkpt><trkpt lat="38.02431080538592" lon="15.172650050803362"><ele>492.75</ele><time>2026-04-26T07:46:07.958Z</time></trkpt><trkpt lat="38.02433749480722" lon="15.172831680344938"><ele>491.5</ele><time>2026-04-26T07:46:08.958Z</time></trkpt><trkpt lat="38.024401394939986" lon="15.173006274876625"><ele>490.25</ele><time>2026-04-26T07:46:09.958Z</time></trkpt><trkpt lat="38.02449573835237" lon="15.17315068183213"><ele>489.0</ele><time>2026-04-26T07:46:10.958Z</time></trkpt><trkpt lat="38.02462727643938" lon="15.173257904577534"><ele>486.25</ele><time>2026-04-26T07:46:11.958Z</time></trkpt><trkpt lat="38.02471977696455" lon="15.17336231764857"><ele>483.5</ele><time>2026-04-26T07:46:12.958Z</time></trkpt><trkpt lat="38.02485305685074" lon="15.173409239692216"><ele>480.75</ele><time>2026-04-26T07:46:13.958Z</time></trkpt><trkpt lat="38.02491796070345" lon="15.173536050804202"><ele>478.0</ele><time>2026-04-26T07:46:14.958Z</time></trkpt><trkpt lat="38.025001720953554" lon="15.173682539463655"><ele>485.33333333333337</ele><time>2026-04-26T07:46:15.958Z</time></trkpt><trkpt lat="38.02510426615964" lon="15.173812557270086"><ele>492.66666666666663</ele><time>2026-04-26T07:46:16.958Z</time></trkpt><trkpt lat="38.02522240866108" lon="15.173899802159912"><ele>500.0</ele><time>2026-04-26T07:46:17.958Z</time></trkpt><trkpt lat="38.025385341642796" lon="15.173986230005099"><ele>500.0</ele><time>2026-04-26T07:46:18.957Z</time></trkpt><trkpt lat="38.02555596155367" lon="15.174056726167562"><ele>500.0</ele><time>2026-04-26T07:46:19.957Z</time></trkpt><trkpt lat="38.02572507161666" lon="15.174143963383957"><ele>500.0</ele><time>2026-04-26T07:46:20.957Z</time></trkpt><trkpt lat="38.02585200903068" lon="15.174240143582097"><ele>500.0</ele><time>2026-04-26T07:46:21.957Z</time></trkpt><trkpt lat="38.02594812374784" lon="15.174337297715033"><ele>500.0</ele><time>2026-04-26T07:46:22.957Z</time></trkpt><trkpt lat="38.02603212383302" lon="15.174407899422643"><ele>500.0</ele><time>2026-04-26T07:46:23.957Z</time></trkpt><trkpt lat="38.026111461882635" lon="15.174454138736637"><ele>500.0</ele><time>2026-04-26T07:46:24.957Z</time></trkpt><trkpt lat="38.026199559905244" lon="15.174391369725326"><ele>500.0</ele><time>2026-04-26T07:46:26.957Z</time></trkpt><trkpt lat="38.026224761762826" lon="15.174303006767847"><ele>500.0</ele><time>2026-04-26T07:46:27.957Z</time></trkpt><trkpt lat="38.026202311507035" lon="15.174188163500222"><ele>500.0</ele><time>2026-04-26T07:46:28.957Z</time></trkpt><trkpt lat="38.026134118889885" lon="15.174117201633127"><ele>500.0</ele><time>2026-04-26T07:46:29.957Z</time></trkpt><trkpt lat="38.02600554445054" lon="15.174039049132855"><ele>500.0</ele><time>2026-04-26T07:46:30.957Z</time></trkpt><trkpt lat="38.02587433818663" lon="15.17395660669698"><ele>500.0</ele><time>2026-04-26T07:46:31.957Z</time></trkpt><trkpt lat="38.02575496185676" lon="15.173867517094468"><ele>500.0</ele><time>2026-04-26T07:46:32.957Z</time></trkpt><trkpt lat="38.025632368689195" lon="15.173756304204282"><ele>500.0</ele><time>2026-04-26T07:46:33.957Z</time></trkpt><trkpt lat="38.02551322429065" lon="15.173660088542649"><ele>500.0</ele><time>2026-04-26T07:46:34.957Z</time></trkpt><trkpt lat="38.02541458585784" lon="15.17355962038944"><ele>500.0</ele><time>2026-04-26T07:46:35.957Z</time></trkpt><trkpt lat="38.02533818781422" lon="15.173461016458951"><ele>500.0</ele><time>2026-04-26T07:46:36.957Z</time></trkpt><trkpt lat="38.02527102985201" lon="15.173343315991744"><ele>500.0</ele><time>2026-04-26T07:46:37.957Z</time></trkpt><trkpt lat="38.02520061333781" lon="15.173219934529456"><ele>500.0</ele><time>2026-04-26T07:46:38.957Z</time></trkpt><trkpt lat="38.02514578966987" lon="15.17308236007132"><ele>504.0</ele><time>2026-04-26T07:46:39.957Z</time></trkpt><trkpt lat="38.02510005577171" lon="15.172955639465368"><ele>508.0</ele><time>2026-04-26T07:46:40.957Z</time></trkpt><trkpt lat="38.025065307445786" lon="15.172838943251525"><ele>512.0</ele><time>2026-04-26T07:46:41.957Z</time></trkpt><trkpt lat="38.025056389824194" lon="15.172730549415617"><ele>516.0</ele><time>2026-04-26T07:46:42.957Z</time></trkpt><trkpt lat="38.0250694156716" lon="15.172595867751117"><ele>520.0</ele><time>2026-04-26T07:46:43.957Z</time></trkpt><trkpt lat="38.025095009827155" lon="15.172473833680023"><ele>520.0</ele><time>2026-04-26T07:46:44.957Z</time></trkpt><trkpt lat="38.02509476827645" lon="15.172373945416519"><ele>520.0</ele><time>2026-04-26T07:46:45.957Z</time></trkpt><trkpt lat="38.02504151016763" lon="15.17228929993025"><ele>520.0</ele><time>2026-04-26T07:46:46.957Z</time></trkpt><trkpt lat="38.024945568262424" lon="15.172223117148665"><ele>520.0</ele><time>2026-04-26T07:46:47.957Z</time></trkpt><trkpt lat="38.02483412089529" lon="15.172175896147849"><ele>520.0</ele><time>2026-04-26T07:46:48.957Z</time></trkpt><trkpt lat="38.02472665865999" lon="15.172115285477792"><ele>518.2</ele><time>2026-04-26T07:46:49.957Z</time></trkpt><trkpt lat="38.02463198335529" lon="15.172051355847623"><ele>516.4</ele><time>2026-04-26T07:46:50.957Z</time></trkpt><trkpt lat="38.02455271913668" lon="15.171988357220728"><ele>514.6</ele><time>2026-04-26T07:46:51.957Z</time></trkpt><trkpt lat="38.02448311464822" lon="15.171939669671122"><ele>512.8</ele><time>2026-04-26T07:46:52.957Z</time></trkpt><trkpt lat="38.02441826361876" lon="15.171875412177284"><ele>511.0</ele><time>2026-04-26T07:46:53.956Z</time></trkpt><trkpt lat="38.02436910864524" lon="15.171776017850247"><ele>511.0</ele><time>2026-04-26T07:46:54.956Z</time></trkpt><trkpt lat="38.024329085468025" lon="15.171651440141863"><ele>511.0</ele><time>2026-04-26T07:46:55.956Z</time></trkpt><trkpt lat="38.024290322571" lon="15.17151429037327"><ele>511.0</ele><time>2026-04-26T07:46:56.959Z</time></trkpt><trkpt lat="38.02425528814238" lon="15.171381929484903"><ele>511.0</ele><time>2026-04-26T07:46:57.959Z</time></trkpt><trkpt lat="38.024194518107144" lon="15.171248576540117"><ele>509.5</ele><time>2026-04-26T07:46:58.959Z</time></trkpt><trkpt lat="38.024127004437524" lon="15.171105633283016"><ele>508.0</ele><time>2026-04-26T07:46:59.959Z</time></trkpt><trkpt lat="38.02403606915275" lon="15.170993242037488"><ele>506.5</ele><time>2026-04-26T07:47:00.959Z</time></trkpt><trkpt lat="38.0239186073021" lon="15.1708917556958"><ele>505.0</ele><time>2026-04-26T07:47:01.959Z</time></trkpt><trkpt lat="38.02379358318334" lon="15.17076826415654"><ele>512.75</ele><time>2026-04-26T07:47:02.959Z</time></trkpt><trkpt lat="38.02368204229233" lon="15.170640546184371"><ele>520.5</ele><time>2026-04-26T07:47:03.959Z</time></trkpt><trkpt lat="38.02357729955471" lon="15.17053652620726"><ele>528.25</ele><time>2026-04-26T07:47:04.958Z</time></trkpt><trkpt lat="38.02348263845629" lon="15.170443931477136"><ele>536.0</ele><time>2026-04-26T07:47:05.959Z</time></trkpt><trkpt lat="38.02338753525228" lon="15.170393404354495"><ele>533.75</ele><time>2026-04-26T07:47:06.959Z</time></trkpt><trkpt lat="38.023281458884234" lon="15.17036728947077"><ele>531.5</ele><time>2026-04-26T07:47:07.959Z</time></trkpt><trkpt lat="38.02314163164105" lon="15.170373183032055"><ele>529.25</ele><time>2026-04-26T07:47:08.959Z</time></trkpt><trkpt lat="38.02298199029072" lon="15.170393162254467"><ele>527.0</ele><time>2026-04-26T07:47:09.959Z</time></trkpt><trkpt lat="38.02283160866283" lon="15.170364849115344"><ele>527.0</ele><time>2026-04-26T07:47:10.959Z</time></trkpt><trkpt lat="38.022702481299405" lon="15.1703291766839"><ele>527.0</ele><time>2026-04-26T07:47:11.959Z</time></trkpt><trkpt lat="38.022589102523916" lon="15.170261232330846"><ele>527.0</ele><time>2026-04-26T07:47:12.959Z</time></trkpt><trkpt lat="38.0224888780381" lon="15.17018897143689"><ele>527.0</ele><time>2026-04-26T07:47:13.959Z</time></trkpt><trkpt lat="38.0223777678734" lon="15.170120816344387"><ele>528.5</ele><time>2026-04-26T07:47:14.959Z</time></trkpt><trkpt lat="38.022276518333804" lon="15.170013177807693"><ele>530.0</ele><time>2026-04-26T07:47:15.959Z</time></trkpt><trkpt lat="38.0221693576346" lon="15.16988265852052"><ele>531.5</ele><time>2026-04-26T07:47:16.959Z</time></trkpt><trkpt lat="38.0220818321137" lon="15.169730871784095"><ele>533.0</ele><time>2026-04-26T07:47:17.959Z</time></trkpt><trkpt lat="38.022013370127624" lon="15.169625568411119"><ele>534.0</ele><time>2026-04-26T07:47:18.959Z</time></trkpt><trkpt lat="38.02195413369175" lon="15.169539396811379"><ele>535.0</ele><time>2026-04-26T07:47:19.959Z</time></trkpt><trkpt lat="38.02190529392939" lon="15.16946628411145"><ele>536.0</ele><time>2026-04-26T07:47:20.959Z</time></trkpt><trkpt lat="38.021870175193904" lon="15.169395948010864"><ele>537.0</ele><time>2026-04-26T07:47:21.959Z</time></trkpt><trkpt lat="38.021836747612014" lon="15.1692629787613"><ele>538.0</ele><time>2026-04-26T07:47:23.959Z</time></trkpt><trkpt lat="38.02190090670502" lon="15.169121551653951"><ele>538.0</ele><time>2026-04-26T07:47:25.959Z</time></trkpt><trkpt lat="38.02196229889284" lon="15.169063391091395"><ele>538.0</ele><time>2026-04-26T07:47:26.958Z</time></trkpt><trkpt lat="38.022037752829974" lon="15.16903771398878"><ele>538.0</ele><time>2026-04-26T07:47:27.958Z</time></trkpt><trkpt lat="38.02212310937994" lon="15.169061490397725"><ele>538.0</ele><time>2026-04-26T07:47:28.958Z</time></trkpt><trkpt lat="38.02220005529583" lon="15.169131173545713"><ele>538.0</ele><time>2026-04-26T07:47:29.958Z</time></trkpt><trkpt lat="38.02225652591693" lon="15.169201789419533"><ele>538.0</ele><time>2026-04-26T07:47:30.958Z</time></trkpt><trkpt lat="38.0223083757524" lon="15.169275882079607"><ele>538.0</ele><time>2026-04-26T07:47:31.958Z</time></trkpt><trkpt lat="38.02236918926872" lon="15.169360000592047"><ele>538.0</ele><time>2026-04-26T07:47:32.958Z</time></trkpt><trkpt lat="38.022417075271974" lon="15.169458589983885"><ele>538.0</ele><time>2026-04-26T07:47:33.958Z</time></trkpt><trkpt lat="38.022460954722014" lon="15.169580539285207"><ele>538.0</ele><time>2026-04-26T07:47:34.958Z</time></trkpt><trkpt lat="38.02252015837667" lon="15.16969461164361"><ele>538.0</ele><time>2026-04-26T07:47:35.958Z</time></trkpt><trkpt lat="38.02260525018074" lon="15.169784872540664"><ele>535.8</ele><time>2026-04-26T07:47:36.958Z</time></trkpt><trkpt lat="38.02269916561073" lon="15.169851393236959"><ele>533.5999999999999</ele><time>2026-04-26T07:47:37.958Z</time></trkpt><trkpt lat="38.022787424011646" lon="15.169913065248826"><ele>531.4000000000001</ele><time>2026-04-26T07:47:38.958Z</time></trkpt><trkpt lat="38.02288828854441" lon="15.1699269477535"><ele>529.2</ele><time>2026-04-26T07:47:39.958Z</time></trkpt><trkpt lat="38.02300857210409" lon="15.169917234993932"><ele>527.0</ele><time>2026-04-26T07:47:40.958Z</time></trkpt><trkpt lat="38.023130177700786" lon="15.169884879908905"><ele>533.5</ele><time>2026-04-26T07:47:41.958Z</time></trkpt><trkpt lat="38.02326112759273" lon="15.169838019921906"><ele>540.0</ele><time>2026-04-26T07:47:42.958Z</time></trkpt><trkpt lat="38.02337846302985" lon="15.169781021276226"><ele>546.5</ele><time>2026-04-26T07:47:43.958Z</time></trkpt><trkpt lat="38.02346221197718" lon="15.16970466096479"><ele>553.0</ele><time>2026-04-26T07:47:44.958Z</time></trkpt><trkpt lat="38.02352945874446" lon="15.16963077648926"><ele>556.25</ele><time>2026-04-26T07:47:45.958Z</time></trkpt><trkpt lat="38.02358481223847" lon="15.169510762523828"><ele>559.5</ele><time>2026-04-26T07:47:46.958Z</time></trkpt><trkpt lat="38.023614985706146" lon="15.169367248456416"><ele>562.75</ele><time>2026-04-26T07:47:47.958Z</time></trkpt><trkpt lat="38.023630071272365" lon="15.169178471995188"><ele>566.0</ele><time>2026-04-26T07:47:48.958Z</time></trkpt><trkpt lat="38.02365239575819" lon="15.168979348273645"><ele>570.75</ele><time>2026-04-26T07:47:49.958Z</time></trkpt><trkpt lat="38.02370009480025" lon="15.168790160351996"><ele>575.5</ele><time>2026-04-26T07:47:50.958Z</time></trkpt><trkpt lat="38.023778891882124" lon="15.168623534856188"><ele>580.25</ele><time>2026-04-26T07:47:51.958Z</time></trkpt><trkpt lat="38.02382631008775" lon="15.168502544027817"><ele>585.0</ele><time>2026-04-26T07:47:52.958Z</time></trkpt><trkpt lat="38.02383562645349" lon="15.16841285048954"><ele>585.0</ele><time>2026-04-26T07:47:53.958Z</time></trkpt><trkpt lat="38.023785946188816" lon="15.1683571498031"><ele>585.0</ele><time>2026-04-26T07:47:54.958Z</time></trkpt><trkpt lat="38.02370609939531" lon="15.16832959311846"><ele>585.0</ele><time>2026-04-26T07:47:55.958Z</time></trkpt><trkpt lat="38.02359907923728" lon="15.16834639866628"><ele>585.0</ele><time>2026-04-26T07:47:56.958Z</time></trkpt><trkpt lat="38.02351550982807" lon="15.168416099614845"><ele>585.0</ele><time>2026-04-26T07:47:57.958Z</time></trkpt><trkpt lat="38.02343889345883" lon="15.168559683437097"><ele>585.0</ele><time>2026-04-26T07:47:58.958Z</time></trkpt><trkpt lat="38.02340064748151" lon="15.168788051137387"><ele>585.0</ele><time>2026-04-26T07:47:59.958Z</time></trkpt><trkpt lat="38.02335260802615" lon="15.168993169087807"><ele>585.0</ele><time>2026-04-26T07:48:00.958Z</time></trkpt><trkpt lat="38.0232750034685" lon="15.169129805606262"><ele>578.6</ele><time>2026-04-26T07:48:01.958Z</time></trkpt><trkpt lat="38.02319537371261" lon="15.169217252777955"><ele>572.2</ele><time>2026-04-26T07:48:02.957Z</time></trkpt><trkpt lat="38.02311017286585" lon="15.16926087913256"><ele>565.8</ele><time>2026-04-26T07:48:03.957Z</time></trkpt><trkpt lat="38.02299790135557" lon="15.169265372332209"><ele>559.4</ele><time>2026-04-26T07:48:04.957Z</time></trkpt><trkpt lat="38.022887341675165" lon="15.169236192497804"><ele>553.0</ele><time>2026-04-26T07:48:05.957Z</time></trkpt><trkpt lat="38.02278573565128" lon="15.169172732548404"><ele>553.0</ele><time>2026-04-26T07:48:06.957Z</time></trkpt><trkpt lat="38.02270624133783" lon="15.169055386429353"><ele>553.0</ele><time>2026-04-26T07:48:07.957Z</time></trkpt><trkpt lat="38.022649307655975" lon="15.168899122685493"><ele>553.0</ele><time>2026-04-26T07:48:08.957Z</time></trkpt><trkpt lat="38.02258397853979" lon="15.168727817305282"><ele>553.0</ele><time>2026-04-26T07:48:09.957Z</time></trkpt><trkpt lat="38.02250796153325" lon="15.168549910275473"><ele>555.6666666666667</ele><time>2026-04-26T07:48:10.957Z</time></trkpt><trkpt lat="38.02243676576846" lon="15.168348001095245"><ele>558.3333333333334</ele><time>2026-04-26T07:48:11.957Z</time></trkpt><trkpt lat="38.022352857503506" lon="15.168153962775989"><ele>561.0</ele><time>2026-04-26T07:48:12.957Z</time></trkpt><trkpt lat="38.02225622198659" lon="15.167986960751653"><ele>567.75</ele><time>2026-04-26T07:48:13.957Z</time></trkpt><trkpt lat="38.02215882530622" lon="15.167836466015258"><ele>574.5</ele><time>2026-04-26T07:48:14.957Z</time></trkpt><trkpt lat="38.02204610692631" lon="15.167731183520978"><ele>581.25</ele><time>2026-04-26T07:48:15.957Z</time></trkpt><trkpt lat="38.02191444196592" lon="15.16763634808156"><ele>588.0</ele><time>2026-04-26T07:48:16.957Z</time></trkpt><trkpt lat="38.02177382417391" lon="15.167541851997285"><ele>588.0</ele><time>2026-04-26T07:48:17.957Z</time></trkpt><trkpt lat="38.02165964129797" lon="15.16744214899458"><ele>588.0</ele><time>2026-04-26T07:48:18.957Z</time></trkpt><trkpt lat="38.021553197672034" lon="15.16736309200367"><ele>588.0</ele><time>2026-04-26T07:48:19.957Z</time></trkpt><trkpt lat="38.02145484713508" lon="15.167282745053322"><ele>588.0</ele><time>2026-04-26T07:48:20.957Z</time></trkpt><trkpt lat="38.021373463055426" lon="15.16720140881409"><ele>589.4</ele><time>2026-04-26T07:48:21.957Z</time></trkpt><trkpt lat="38.02131313702196" lon="15.167089058682787"><ele>590.8</ele><time>2026-04-26T07:48:22.957Z</time></trkpt><trkpt lat="38.02126917760627" lon="15.166954331939793"><ele>592.2</ele><time>2026-04-26T07:48:23.957Z</time></trkpt><trkpt lat="38.02122077720691" lon="15.16683360769099"><ele>593.6</ele><time>2026-04-26T07:48:24.957Z</time></trkpt><trkpt lat="38.021152796568714" lon="15.16678799229539"><ele>595.0</ele><time>2026-04-26T07:48:25.957Z</time></trkpt><trkpt lat="38.02107688871479" lon="15.166796158697139"><ele>595.0</ele><time>2026-04-26T07:48:26.957Z</time></trkpt><trkpt lat="38.02099403189201" lon="15.16686230667906"><ele>595.0</ele><time>2026-04-26T07:48:27.957Z</time></trkpt><trkpt lat="38.020900155818424" lon="15.166905966702693"><ele>595.0</ele><time>2026-04-26T07:48:28.957Z</time></trkpt><trkpt lat="38.02079415708351" lon="15.166928299758657"><ele>595.0</ele><time>2026-04-26T07:48:29.957Z</time></trkpt><trkpt lat="38.020682426371366" lon="15.166927676107397"><ele>595.0</ele><time>2026-04-26T07:48:30.957Z</time></trkpt><trkpt lat="38.02055955152949" lon="15.166909625790684"><ele>596.25</ele><time>2026-04-26T07:48:31.957Z</time></trkpt><trkpt lat="38.02043793565561" lon="15.166864423247217"><ele>597.5</ele><time>2026-04-26T07:48:32.957Z</time></trkpt><trkpt lat="38.02031892239462" lon="15.166799817731421"><ele>598.75</ele><time>2026-04-26T07:48:33.957Z</time></trkpt><trkpt lat="38.020195077498215" lon="15.166751446482797"><ele>600.0</ele><time>2026-04-26T07:48:34.957Z</time></trkpt><trkpt lat="38.02009422719602" lon="15.166718407928297"><ele>600.0</ele><time>2026-04-26T07:48:35.957Z</time></trkpt><trkpt lat="38.020017199108516" lon="15.166753871251395"><ele>600.0</ele><time>2026-04-26T07:48:36.957Z</time></trkpt><trkpt lat="38.019960829007765" lon="15.16682113444559"><ele>600.0</ele><time>2026-04-26T07:48:37.956Z</time></trkpt><trkpt lat="38.019943801513335" lon="15.166931413933217"><ele>600.0</ele><time>2026-04-26T07:48:38.956Z</time></trkpt><trkpt lat="38.01993350472353" lon="15.16705536403213"><ele>600.0</ele><time>2026-04-26T07:48:39.956Z</time></trkpt><trkpt lat="38.019918678983416" lon="15.167213304734709"><ele>609.3333333333334</ele><time>2026-04-26T07:48:40.956Z</time></trkpt><trkpt lat="38.01990445590654" lon="15.167402996503695"><ele>618.6666666666667</ele><time>2026-04-26T07:48:41.956Z</time></trkpt><trkpt lat="38.019862872862596" lon="15.1676067948358"><ele>628.0</ele><time>2026-04-26T07:48:42.956Z</time></trkpt><trkpt lat="38.019810896706986" lon="15.167801076347065"><ele>628.0</ele><time>2026-04-26T07:48:43.956Z</time></trkpt><trkpt lat="38.01974611914155" lon="15.167955045090912"><ele>628.0</ele><time>2026-04-26T07:48:44.956Z</time></trkpt><trkpt lat="38.01970753210908" lon="15.168077432563301"><ele>628.0</ele><time>2026-04-26T07:48:45.956Z</time></trkpt><trkpt lat="38.01968658840141" lon="15.168222115890583"><ele>628.0</ele><time>2026-04-26T07:48:46.956Z</time></trkpt><trkpt lat="38.01968740227757" lon="15.16837534331737"><ele>627.4</ele><time>2026-04-26T07:48:47.956Z</time></trkpt><trkpt lat="38.01969010992291" lon="15.168515621192759"><ele>626.8</ele><time>2026-04-26T07:48:48.956Z</time></trkpt><trkpt lat="38.019660810861176" lon="15.168622358245175"><ele>626.2</ele><time>2026-04-26T07:48:49.956Z</time></trkpt><trkpt lat="38.01959803283598" lon="15.168688758390005"><ele>625.6</ele><time>2026-04-26T07:48:50.956Z</time></trkpt><trkpt lat="38.019498493592025" lon="15.168738149"><ele>625.0</ele><time>2026-04-26T07:48:51.956Z</time></trkpt><trkpt lat="38.01937077380767" lon="15.168780774316497"><ele>625.0</ele><time>2026-04-26T07:48:52.956Z</time></trkpt><trkpt lat="38.01922892825255" lon="15.168840773007322"><ele>625.0</ele><time>2026-04-26T07:48:53.956Z</time></trkpt><trkpt lat="38.01912184623115" lon="15.168891074080324"><ele>625.0</ele><time>2026-04-26T07:48:54.956Z</time></trkpt><trkpt lat="38.01903134575128" lon="15.168968848150204"><ele>625.0</ele><time>2026-04-26T07:48:55.956Z</time></trkpt><trkpt lat="38.01896392583349" lon="15.169079855406904"><ele>626.0</ele><time>2026-04-26T07:48:56.956Z</time></trkpt><trkpt lat="38.01891838920306" lon="15.169220781281126"><ele>627.0</ele><time>2026-04-26T07:48:57.956Z</time></trkpt><trkpt lat="38.01890709416488" lon="15.169364291940683"><ele>628.0</ele><time>2026-04-26T07:48:58.956Z</time></trkpt><trkpt lat="38.01891952761811" lon="15.169505046464367"><ele>629.0</ele><time>2026-04-26T07:48:59.956Z</time></trkpt><trkpt lat="38.01895546290098" lon="15.169622725236742"><ele>630.0</ele><time>2026-04-26T07:49:00.956Z</time></trkpt><trkpt lat="38.0190332167326" lon="15.16971334796314"><ele>630.0</ele><time>2026-04-26T07:49:01.958Z</time></trkpt><trkpt lat="38.019144551700585" lon="15.169792099253991"><ele>630.0</ele><time>2026-04-26T07:49:02.958Z</time></trkpt><trkpt lat="38.019277710373835" lon="15.169893430382393"><ele>630.0</ele><time>2026-04-26T07:49:03.958Z</time></trkpt><trkpt lat="38.01939763607766" lon="15.170014090974362"><ele>630.0</ele><time>2026-04-26T07:49:04.957Z</time></trkpt><trkpt lat="38.01953740906972" lon="15.17015860150619"><ele>627.0</ele><time>2026-04-26T07:49:05.958Z</time></trkpt><trkpt lat="38.019676888636646" lon="15.170322290921478"><ele>624.0</ele><time>2026-04-26T07:49:06.958Z</time></trkpt><trkpt lat="38.01979444395962" lon="15.170521383121102"><ele>621.0</ele><time>2026-04-26T07:49:07.958Z</time></trkpt><trkpt lat="38.019867435907415" lon="15.170704318318517"><ele>619.5</ele><time>2026-04-26T07:49:08.958Z</time></trkpt><trkpt lat="38.01995091157507" lon="15.170840496301862"><ele>618.0</ele><time>2026-04-26T07:49:09.958Z</time></trkpt><trkpt lat="38.02001108478457" lon="15.17099452205058"><ele>616.5</ele><time>2026-04-26T07:49:10.958Z</time></trkpt><trkpt lat="38.020064088644894" lon="15.171164835686065"><ele>615.0</ele><time>2026-04-26T07:49:11.958Z</time></trkpt><trkpt lat="38.02008753374924" lon="15.171368293168102"><ele>618.0</ele><time>2026-04-26T07:49:12.958Z</time></trkpt><trkpt lat="38.0200840149471" lon="15.171561027050885"><ele>621.0</ele><time>2026-04-26T07:49:13.958Z</time></trkpt><trkpt lat="38.020090585526" lon="15.171714004473174"><ele>624.0</ele><time>2026-04-26T07:49:14.958Z</time></trkpt><trkpt lat="38.0201269156303" lon="15.171864474869084"><ele>627.0</ele><time>2026-04-26T07:49:15.958Z</time></trkpt><trkpt lat="38.020208823406435" lon="15.172016867221027"><ele>627.0</ele><time>2026-04-26T07:49:16.958Z</time></trkpt><trkpt lat="38.020302636832696" lon="15.172178893263203"><ele>627.0</ele><time>2026-04-26T07:49:17.958Z</time></trkpt><trkpt lat="38.02041213693073" lon="15.172319195474593"><ele>627.0</ele><time>2026-04-26T07:49:18.958Z</time></trkpt><trkpt lat="38.02050142849473" lon="15.172463167532971"><ele>629.8</ele><time>2026-04-26T07:49:19.958Z</time></trkpt><trkpt lat="38.02056830507468" lon="15.172575882965399"><ele>632.6</ele><time>2026-04-26T07:49:20.958Z</time></trkpt><trkpt lat="38.02061017444422" lon="15.172689611979573"><ele>635.4</ele><time>2026-04-26T07:49:21.958Z</time></trkpt><trkpt lat="38.02062241365141" lon="15.172820206049506"><ele>638.1999999999999</ele><time>2026-04-26T07:49:22.958Z</time></trkpt><trkpt lat="38.02060073412516" lon="15.172979675322106"><ele>641.0</ele><time>2026-04-26T07:49:23.958Z</time></trkpt><trkpt lat="38.020574140097594" lon="15.173125454171013"><ele>642.75</ele><time>2026-04-26T07:49:24.958Z</time></trkpt><trkpt lat="38.02054221544718" lon="15.173262665682419"><ele>644.5</ele><time>2026-04-26T07:49:25.958Z</time></trkpt><trkpt lat="38.02050491506209" lon="15.173415042275515"><ele>646.25</ele><time>2026-04-26T07:49:26.957Z</time></trkpt><trkpt lat="38.02044956196891" lon="15.173569421590727"><ele>648.0</ele><time>2026-04-26T07:49:27.957Z</time></trkpt><trkpt lat="38.02039691946026" lon="15.173722622061067"><ele>648.0</ele><time>2026-04-26T07:49:28.957Z</time></trkpt><trkpt lat="38.02039728529749" lon="15.173867730919444"><ele>648.0</ele><time>2026-04-26T07:49:29.957Z</time></trkpt><trkpt lat="38.02042155629799" lon="15.174026929622535"><ele>648.0</ele><time>2026-04-26T07:49:30.957Z</time></trkpt><trkpt lat="38.02046377816147" lon="15.174194361810734"><ele>648.0</ele><time>2026-04-26T07:49:31.957Z</time></trkpt><trkpt lat="38.020492016263226" lon="15.174378297115348"><ele>649.0</ele><time>2026-04-26T07:49:32.957Z</time></trkpt><trkpt lat="38.020492723971415" lon="15.174572301520614"><ele>650.0</ele><time>2026-04-26T07:49:33.957Z</time></trkpt><trkpt lat="38.02046394891226" lon="15.174742681647029"><ele>651.0</ele><time>2026-04-26T07:49:34.957Z</time></trkpt><trkpt lat="38.020421469740086" lon="15.174884659641469"><ele>652.0</ele><time>2026-04-26T07:49:35.957Z</time></trkpt><trkpt lat="38.02036653980775" lon="15.174972631422593"><ele>652.0</ele><time>2026-04-26T07:49:36.957Z</time></trkpt><trkpt lat="38.02027061817586" lon="15.175016506383102"><ele>652.0</ele><time>2026-04-26T07:49:37.957Z</time></trkpt><trkpt lat="38.020190288922294" lon="15.175081147843938"><ele>652.0</ele><time>2026-04-26T07:49:38.957Z</time></trkpt><trkpt lat="38.02007396258377" lon="15.17514392299768"><ele>652.0</ele><time>2026-04-26T07:49:39.957Z</time></trkpt><trkpt lat="38.01997953349278" lon="15.175271381350237"><ele>659.6666666666667</ele><time>2026-04-26T07:49:40.957Z</time></trkpt><trkpt lat="38.01988585900807" lon="15.175413111959932"><ele>667.3333333333334</ele><time>2026-04-26T07:49:41.957Z</time></trkpt><trkpt lat="38.01977740380506" lon="15.17555904672079"><ele>675.0</ele><time>2026-04-26T07:49:42.957Z</time></trkpt><trkpt lat="38.019673350636516" lon="15.1757251266267"><ele>675.0</ele><time>2026-04-26T07:49:43.957Z</time></trkpt><trkpt lat="38.01958861122442" lon="15.175902116058417"><ele>675.0</ele><time>2026-04-26T07:49:44.957Z</time></trkpt><trkpt lat="38.019507580083626" lon="15.176083393628808"><ele>675.0</ele><time>2026-04-26T07:49:45.957Z</time></trkpt><trkpt lat="38.01944858337933" lon="15.176272845035948"><ele>675.0</ele><time>2026-04-26T07:49:46.957Z</time></trkpt><trkpt lat="38.01940517982341" lon="15.176469440261515"><ele>675.0</ele><time>2026-04-26T07:49:47.957Z</time></trkpt><trkpt lat="38.01937876603131" lon="15.176682226353961"><ele>675.0</ele><time>2026-04-26T07:49:48.957Z</time></trkpt><trkpt lat="38.01936430158388" lon="15.17688345133395"><ele>672.25</ele><time>2026-04-26T07:49:49.957Z</time></trkpt><trkpt lat="38.01936049033547" lon="15.177070428353945"><ele>669.5</ele><time>2026-04-26T07:49:50.957Z</time></trkpt><trkpt lat="38.01937517146554" lon="15.177236043731094"><ele>666.75</ele><time>2026-04-26T07:49:51.957Z</time></trkpt><trkpt lat="38.0194383248049" lon="15.177392986888082"><ele>664.0</ele><time>2026-04-26T07:49:52.957Z</time></trkpt><trkpt lat="38.01952110961223" lon="15.177542317389433"><ele>664.0</ele><time>2026-04-26T07:49:53.957Z</time></trkpt><trkpt lat="38.01958812722876" lon="15.177677495481484"><ele>664.0</ele><time>2026-04-26T07:49:54.957Z</time></trkpt><trkpt lat="38.01958981550719" lon="15.177818158272729"><ele>664.0</ele><time>2026-04-26T07:49:55.957Z</time></trkpt><trkpt lat="38.01960071640212" lon="15.177972234478464"><ele>664.0</ele><time>2026-04-26T07:49:56.957Z</time></trkpt><trkpt lat="38.01964442580127" lon="15.178158342877826"><ele>661.0</ele><time>2026-04-26T07:49:57.957Z</time></trkpt><trkpt lat="38.0197234710206" lon="15.178347738546467"><ele>658.0</ele><time>2026-04-26T07:49:58.957Z</time></trkpt><trkpt lat="38.019819652240685" lon="15.178511663373802"><ele>655.0</ele><time>2026-04-26T07:49:59.957Z</time></trkpt><trkpt lat="38.01990003318621" lon="15.178633978347289"><ele>655.0</ele><time>2026-04-26T07:50:00.957Z</time></trkpt><trkpt lat="38.01993257688491" lon="15.178746910346636"><ele>655.0</ele><time>2026-04-26T07:50:01.957Z</time></trkpt><trkpt lat="38.01995769896133" lon="15.178821354762379"><ele>655.0</ele><time>2026-04-26T07:50:02.956Z</time></trkpt><trkpt lat="38.01991464134476" lon="15.178935237922575"><ele>655.0</ele><time>2026-04-26T07:50:04.956Z</time></trkpt><trkpt lat="38.01977737539078" lon="15.178904360814558"><ele>655.0</ele><time>2026-04-26T07:50:05.956Z</time></trkpt><trkpt lat="38.01969924264646" lon="15.178798379047384"><ele>655.0</ele><time>2026-04-26T07:50:06.956Z</time></trkpt><trkpt lat="38.01963592180567" lon="15.178651192633042"><ele>655.0</ele><time>2026-04-26T07:50:07.956Z</time></trkpt><trkpt lat="38.01955371244824" lon="15.178506616471367"><ele>655.0</ele><time>2026-04-26T07:50:08.956Z</time></trkpt><trkpt lat="38.01947554577983" lon="15.178364834457627"><ele>655.0</ele><time>2026-04-26T07:50:09.956Z</time></trkpt><trkpt lat="38.019385536054834" lon="15.178203876033963"><ele>655.0</ele><time>2026-04-26T07:50:10.956Z</time></trkpt><trkpt lat="38.019275284163975" lon="15.178043791516064"><ele>655.0</ele><time>2026-04-26T07:50:11.956Z</time></trkpt><trkpt lat="38.01917599435342" lon="15.177856718121754"><ele>655.0</ele><time>2026-04-26T07:50:12.956Z</time></trkpt><trkpt lat="38.01906585618459" lon="15.177669895015041"><ele>655.0</ele><time>2026-04-26T07:50:13.956Z</time></trkpt><trkpt lat="38.01897077940649" lon="15.177500520515808"><ele>655.0</ele><time>2026-04-26T07:50:14.956Z</time></trkpt><trkpt lat="38.01890678406038" lon="15.177335790655293"><ele>655.0</ele><time>2026-04-26T07:50:15.956Z</time></trkpt><trkpt lat="38.0188816520609" lon="15.177166193783162"><ele>655.0</ele><time>2026-04-26T07:50:16.956Z</time></trkpt><trkpt lat="38.018864348025495" lon="15.177002189219571"><ele>663.0</ele><time>2026-04-26T07:50:17.956Z</time></trkpt><trkpt lat="38.018874067717555" lon="15.176821965139217"><ele>671.0</ele><time>2026-04-26T07:50:18.956Z</time></trkpt><trkpt lat="38.01889480955863" lon="15.176620221510577"><ele>679.0</ele><time>2026-04-26T07:50:19.956Z</time></trkpt><trkpt lat="38.01893388294518" lon="15.176411987302362"><ele>685.3333333333334</ele><time>2026-04-26T07:50:20.956Z</time></trkpt><trkpt lat="38.018987748979846" lon="15.176247315009814"><ele>691.6666666666666</ele><time>2026-04-26T07:50:21.956Z</time></trkpt><trkpt lat="38.01906246913632" lon="15.176071894607528"><ele>698.0</ele><time>2026-04-26T07:50:22.956Z</time></trkpt><trkpt lat="38.01914693548049" lon="15.175875644309254"><ele>693.5</ele><time>2026-04-26T07:50:23.956Z</time></trkpt><trkpt lat="38.01922313501352" lon="15.175683942335324"><ele>689.0</ele><time>2026-04-26T07:50:24.956Z</time></trkpt><trkpt lat="38.01925314502874" lon="15.175507556491276"><ele>684.5</ele><time>2026-04-26T07:50:25.956Z</time></trkpt><trkpt lat="38.0192782807587" lon="15.175368067693334"><ele>680.0</ele><time>2026-04-26T07:50:26.956Z</time></trkpt><trkpt lat="38.01927202066716" lon="15.17522157808148"><ele>680.0</ele><time>2026-04-26T07:50:27.956Z</time></trkpt><trkpt lat="38.01923919779433" lon="15.17503103863261"><ele>680.0</ele><time>2026-04-26T07:50:28.956Z</time></trkpt><trkpt lat="38.01925177228534" lon="15.174830590955048"><ele>680.0</ele><time>2026-04-26T07:50:29.956Z</time></trkpt><trkpt lat="38.01928824887105" lon="15.174667863764963"><ele>680.0</ele><time>2026-04-26T07:50:30.956Z</time></trkpt><trkpt lat="38.01930226093975" lon="15.17451370140256"><ele>681.0</ele><time>2026-04-26T07:50:31.956Z</time></trkpt><trkpt lat="38.01929364911534" lon="15.174385441390614"><ele>682.0</ele><time>2026-04-26T07:50:32.956Z</time></trkpt><trkpt lat="38.019240422230574" lon="15.174254966608316"><ele>683.0</ele><time>2026-04-26T07:50:33.956Z</time></trkpt><trkpt lat="38.01916560256064" lon="15.174099445558708"><ele>684.0</ele><time>2026-04-26T07:50:34.956Z</time></trkpt><trkpt lat="38.01910445411312" lon="15.173903380973377"><ele>691.3333333333334</ele><time>2026-04-26T07:50:35.956Z</time></trkpt><trkpt lat="38.01905334847975" lon="15.173688975044433"><ele>698.6666666666667</ele><time>2026-04-26T07:50:36.956Z</time></trkpt><trkpt lat="38.01903587313888" lon="15.17349782867829"><ele>706.0</ele><time>2026-04-26T07:50:37.956Z</time></trkpt><trkpt lat="38.01901798564629" lon="15.173332246989677"><ele>706.0</ele><time>2026-04-26T07:50:38.955Z</time></trkpt><trkpt lat="38.01899686293238" lon="15.173199394886947"><ele>706.0</ele><time>2026-04-26T07:50:39.955Z</time></trkpt><trkpt lat="38.01896099675343" lon="15.173091648963199"><ele>706.0</ele><time>2026-04-26T07:50:40.955Z</time></trkpt><trkpt lat="38.018922594643314" lon="15.173020276126572"><ele>706.0</ele><time>2026-04-26T07:50:41.955Z</time></trkpt><trkpt lat="38.018852286190516" lon="15.172948816516403"><ele>706.0</ele><time>2026-04-26T07:50:42.955Z</time></trkpt><trkpt lat="38.01877774653658" lon="15.172871490671994"><ele>703.25</ele><time>2026-04-26T07:50:43.955Z</time></trkpt><trkpt lat="38.01868819816042" lon="15.172801511575411"><ele>700.5</ele><time>2026-04-26T07:50:44.955Z</time></trkpt><trkpt lat="38.01859247012423" lon="15.172734970019699"><ele>697.75</ele><time>2026-04-26T07:50:45.955Z</time></trkpt><trkpt lat="38.018473472904006" lon="15.172683361577274"><ele>695.0</ele><time>2026-04-26T07:50:46.955Z</time></trkpt><trkpt lat="38.01835877181616" lon="15.172606840239744"><ele>697.25</ele><time>2026-04-26T07:50:47.955Z</time></trkpt><trkpt lat="38.01823747698661" lon="15.172508716567876"><ele>699.5</ele><time>2026-04-26T07:50:48.955Z</time></trkpt><trkpt lat="38.0181557003757" lon="15.17240289920193"><ele>701.75</ele><time>2026-04-26T07:50:49.955Z</time></trkpt><trkpt lat="38.01810242620445" lon="15.172279647626489"><ele>704.0</ele><time>2026-04-26T07:50:50.955Z</time></trkpt><trkpt lat="38.01804867740288" lon="15.17213158944604"><ele>704.0</ele><time>2026-04-26T07:50:51.955Z</time></trkpt><trkpt lat="38.01799934994984" lon="15.171989758144742"><ele>704.0</ele><time>2026-04-26T07:50:52.955Z</time></trkpt><trkpt lat="38.01792892925844" lon="15.17181396346281"><ele>704.0</ele><time>2026-04-26T07:50:53.955Z</time></trkpt><trkpt lat="38.01783050101191" lon="15.171633425645833"><ele>702.25</ele><time>2026-04-26T07:50:54.955Z</time></trkpt><trkpt lat="38.017735898127675" lon="15.17148229569045"><ele>700.5</ele><time>2026-04-26T07:50:55.955Z</time></trkpt><trkpt lat="38.01762548401942" lon="15.17138610105918"><ele>698.75</ele><time>2026-04-26T07:50:56.955Z</time></trkpt><trkpt lat="38.017509276895865" lon="15.17130832838428"><ele>697.0</ele><time>2026-04-26T07:50:57.955Z</time></trkpt><trkpt lat="38.01735096354874" lon="15.171260007996299"><ele>701.8</ele><time>2026-04-26T07:50:58.955Z</time></trkpt><trkpt lat="38.01723329875433" lon="15.17120569821932"><ele>706.6</ele><time>2026-04-26T07:50:59.955Z</time></trkpt><trkpt lat="38.01718692634675" lon="15.171145865473873"><ele>711.4</ele><time>2026-04-26T07:51:00.955Z</time></trkpt><trkpt lat="38.0171713865338" lon="15.171062649874544"><ele>716.1999999999999</ele><time>2026-04-26T07:51:01.955Z</time></trkpt><trkpt lat="38.01719987829444" lon="15.17094013208915"><ele>721.0</ele><time>2026-04-26T07:51:02.955Z</time></trkpt><trkpt lat="38.01717091444994" lon="15.170758809634895"><ele>718.4</ele><time>2026-04-26T07:51:03.955Z</time></trkpt><trkpt lat="38.01713505718398" lon="15.170599454459243"><ele>715.8</ele><time>2026-04-26T07:51:04.955Z</time></trkpt><trkpt lat="38.017092564977084" lon="15.170480029718114"><ele>713.1999999999999</ele><time>2026-04-26T07:51:05.955Z</time></trkpt><trkpt lat="38.01703069372461" lon="15.17040497822813"><ele>710.5999999999999</ele><time>2026-04-26T07:51:06.955Z</time></trkpt><trkpt lat="38.01693131976297" lon="15.170387682531873"><ele>708.0</ele><time>2026-04-26T07:51:07.957Z</time></trkpt><trkpt lat="38.01686402126484" lon="15.170419662162809"><ele>708.0</ele><time>2026-04-26T07:51:08.957Z</time></trkpt><trkpt lat="38.01680762020963" lon="15.17048483296219"><ele>708.0</ele><time>2026-04-26T07:51:09.957Z</time></trkpt><trkpt lat="38.01678990081411" lon="15.170648696938335"><ele>708.0</ele><time>2026-04-26T07:51:11.957Z</time></trkpt><trkpt lat="38.016821593726796" lon="15.170760614982598"><ele>708.0</ele><time>2026-04-26T07:51:12.957Z</time></trkpt><trkpt lat="38.01683959136564" lon="15.170917357947808"><ele>708.0</ele><time>2026-04-26T07:51:13.957Z</time></trkpt><trkpt lat="38.01686988211308" lon="15.17109762144532"><ele>710.5999999999999</ele><time>2026-04-26T07:51:14.958Z</time></trkpt><trkpt lat="38.01688959155635" lon="15.171264552726575"><ele>713.1999999999999</ele><time>2026-04-26T07:51:15.958Z</time></trkpt><trkpt lat="38.01690067384499" lon="15.171397297721908"><ele>715.8</ele><time>2026-04-26T07:51:16.957Z</time></trkpt><trkpt lat="38.016910410080754" lon="15.171493642421709"><ele>718.4</ele><time>2026-04-26T07:51:17.958Z</time></trkpt><trkpt lat="38.01693203872596" lon="15.171582645767304"><ele>721.0</ele><time>2026-04-26T07:51:18.958Z</time></trkpt><trkpt lat="38.01696066771182" lon="15.171683242904045"><ele>722.1999999999999</ele><time>2026-04-26T07:51:19.957Z</time></trkpt><trkpt lat="38.01699659923479" lon="15.17178778427053"><ele>723.4</ele><time>2026-04-26T07:51:20.958Z</time></trkpt><trkpt lat="38.01705312646777" lon="15.17188642167639"><ele>724.6</ele><time>2026-04-26T07:51:21.958Z</time></trkpt><trkpt lat="38.01711109507995" lon="15.171982365478927"><ele>725.8</ele><time>2026-04-26T07:51:22.957Z</time></trkpt><trkpt lat="38.01715936831648" lon="15.172075183551906"><ele>727.0</ele><time>2026-04-26T07:51:23.957Z</time></trkpt><trkpt lat="38.01721275782025" lon="15.17216559669308"><ele>727.0</ele><time>2026-04-26T07:51:24.957Z</time></trkpt><trkpt lat="38.017247936124726" lon="15.172252526933983"><ele>727.0</ele><time>2026-04-26T07:51:25.957Z</time></trkpt><trkpt lat="38.01729531970486" lon="15.172336134556074"><ele>727.0</ele><time>2026-04-26T07:51:26.957Z</time></trkpt><trkpt lat="38.017353589629636" lon="15.172428126393505"><ele>727.0</ele><time>2026-04-26T07:51:27.957Z</time></trkpt><trkpt lat="38.01739785629534" lon="15.172531165159302"><ele>727.0</ele><time>2026-04-26T07:51:28.957Z</time></trkpt><trkpt lat="38.01744518923045" lon="15.1726362617455"><ele>727.0</ele><time>2026-04-26T07:51:29.957Z</time></trkpt><trkpt lat="38.017467232312406" lon="15.172752538423284"><ele>725.6</ele><time>2026-04-26T07:51:30.957Z</time></trkpt><trkpt lat="38.01750617611367" lon="15.17286792368072"><ele>724.2</ele><time>2026-04-26T07:51:31.957Z</time></trkpt><trkpt lat="38.017538019083766" lon="15.172974395182903"><ele>722.8</ele><time>2026-04-26T07:51:32.957Z</time></trkpt><trkpt lat="38.0175773134111" lon="15.173093013063284"><ele>721.4</ele><time>2026-04-26T07:51:33.957Z</time></trkpt><trkpt lat="38.01760983017846" lon="15.173204602872369"><ele>720.0</ele><time>2026-04-26T07:51:34.957Z</time></trkpt><trkpt lat="38.017638308409325" lon="15.173327338715504"><ele>722.8</ele><time>2026-04-26T07:51:35.957Z</time></trkpt><trkpt lat="38.017681949708944" lon="15.173461232047519"><ele>725.6</ele><time>2026-04-26T07:51:36.957Z</time></trkpt><trkpt lat="38.01773288748385" lon="15.173594552218365"><ele>728.4000000000001</ele><time>2026-04-26T07:51:37.957Z</time></trkpt><trkpt lat="38.01779449131296" lon="15.173720040729872"><ele>731.2</ele><time>2026-04-26T07:51:38.957Z</time></trkpt><trkpt lat="38.01783349282167" lon="15.17381290867844"><ele>734.0</ele><time>2026-04-26T07:51:39.957Z</time></trkpt><trkpt lat="38.01785813513866" lon="15.173897416997288"><ele>734.0</ele><time>2026-04-26T07:51:40.957Z</time></trkpt><trkpt lat="38.017885575990476" lon="15.173995416613831"><ele>734.0</ele><time>2026-04-26T07:51:41.957Z</time></trkpt><trkpt lat="38.017924947144664" lon="15.174110565467318"><ele>734.0</ele><time>2026-04-26T07:51:42.957Z</time></trkpt><trkpt lat="38.01796172866254" lon="15.174223942518779"><ele>734.0</ele><time>2026-04-26T07:51:43.957Z</time></trkpt><trkpt lat="38.01800423005419" lon="15.174334929151355"><ele>734.0</ele><time>2026-04-26T07:51:44.957Z</time></trkpt><trkpt lat="38.018033546963814" lon="15.17443789904115"><ele>733.5714285714286</ele><time>2026-04-26T07:51:45.957Z</time></trkpt><trkpt lat="38.018044401495175" lon="15.174540110158137"><ele>733.1428571428572</ele><time>2026-04-26T07:51:46.957Z</time></trkpt><trkpt lat="38.0180287976408" lon="15.174637217396675"><ele>732.7142857142858</ele><time>2026-04-26T07:51:47.957Z</time></trkpt><trkpt lat="38.01800447026629" lon="15.174717639459615"><ele>732.2857142857142</ele><time>2026-04-26T07:51:48.957Z</time></trkpt><trkpt lat="38.01793716998802" lon="15.174755339023669"><ele>731.8571428571429</ele><time>2026-04-26T07:51:49.957Z</time></trkpt><trkpt lat="38.01787159703746" lon="15.17478046391913"><ele>731.4285714285714</ele><time>2026-04-26T07:51:50.957Z</time></trkpt><trkpt lat="38.01779314566857" lon="15.174767507444834"><ele>731.0</ele><time>2026-04-26T07:51:51.957Z</time></trkpt><trkpt lat="38.017708530561265" lon="15.17472547306801"><ele>731.0</ele><time>2026-04-26T07:51:52.957Z</time></trkpt><trkpt lat="38.0176647954156" lon="15.174617324384112"><ele>731.0</ele><time>2026-04-26T07:51:53.957Z</time></trkpt><trkpt lat="38.0176557545361" lon="15.174504400953243"><ele>731.0</ele><time>2026-04-26T07:51:54.957Z</time></trkpt><trkpt lat="38.01765001553917" lon="15.174355476948925"><ele>731.0</ele><time>2026-04-26T07:51:55.957Z</time></trkpt><trkpt lat="38.01763471971362" lon="15.174183255405843"><ele>731.0</ele><time>2026-04-26T07:51:56.957Z</time></trkpt><trkpt lat="38.01760194500751" lon="15.17403910559206"><ele>731.5999999999999</ele><time>2026-04-26T07:51:57.957Z</time></trkpt><trkpt lat="38.017580627273425" lon="15.173927502784105"><ele>732.2</ele><time>2026-04-26T07:51:58.956Z</time></trkpt><trkpt lat="38.01753290782065" lon="15.173819824342514"><ele>732.8</ele><time>2026-04-26T07:51:59.956Z</time></trkpt><trkpt lat="38.01749206240433" lon="15.173727452516504"><ele>733.4000000000001</ele><time>2026-04-26T07:52:00.956Z</time></trkpt><trkpt lat="38.017469434520514" lon="15.173603173731351"><ele>734.0</ele><time>2026-04-26T07:52:01.956Z</time></trkpt><trkpt lat="38.017419738699864" lon="15.173473555778546"><ele>734.6</ele><time>2026-04-26T07:52:02.956Z</time></trkpt><trkpt lat="38.017358321452434" lon="15.173350185239283"><ele>735.2</ele><time>2026-04-26T07:52:03.956Z</time></trkpt><trkpt lat="38.017318879523025" lon="15.173241017100292"><ele>735.8000000000001</ele><time>2026-04-26T07:52:04.956Z</time></trkpt><trkpt lat="38.01727992033331" lon="15.173146166311893"><ele>736.4000000000001</ele><time>2026-04-26T07:52:05.956Z</time></trkpt><trkpt lat="38.017245693155544" lon="15.173052995272403"><ele>737.0</ele><time>2026-04-26T07:52:06.956Z</time></trkpt><trkpt lat="38.0172206394152" lon="15.172956448085927"><ele>737.0</ele><time>2026-04-26T07:52:07.956Z</time></trkpt><trkpt lat="38.01715901658139" lon="15.17286898892387"><ele>737.0</ele><time>2026-04-26T07:52:08.956Z</time></trkpt><trkpt lat="38.017084923197785" lon="15.172808004905571"><ele>737.0</ele><time>2026-04-26T07:52:09.956Z</time></trkpt><trkpt lat="38.016996372126066" lon="15.172758954436695"><ele>737.0</ele><time>2026-04-26T07:52:10.956Z</time></trkpt><trkpt lat="38.01690035447489" lon="15.172706657555242"><ele>737.0</ele><time>2026-04-26T07:52:11.956Z</time></trkpt><trkpt lat="38.01680614146512" lon="15.172659814081706"><ele>737.0</ele><time>2026-04-26T07:52:12.956Z</time></trkpt><trkpt lat="38.016707672140576" lon="15.172608213092404"><ele>737.0</ele><time>2026-04-26T07:52:13.956Z</time></trkpt><trkpt lat="38.01660561171169" lon="15.172557549532234"><ele>737.0</ele><time>2026-04-26T07:52:14.956Z</time></trkpt><trkpt lat="38.01650720084964" lon="15.172491999442517"><ele>737.0</ele><time>2026-04-26T07:52:15.956Z</time></trkpt><trkpt lat="38.01644429645834" lon="15.172413347839147"><ele>737.0</ele><time>2026-04-26T07:52:16.956Z</time></trkpt><trkpt lat="38.016385398413874" lon="15.172353458412006"><ele>736.2</ele><time>2026-04-26T07:52:17.956Z</time></trkpt><trkpt lat="38.01633297635075" lon="15.172262642863469"><ele>735.4000000000001</ele><time>2026-04-26T07:52:18.956Z</time></trkpt><trkpt lat="38.01628065366181" lon="15.172158895959713"><ele>734.5999999999999</ele><time>2026-04-26T07:52:19.956Z</time></trkpt><trkpt lat="38.01623233251771" lon="15.172061954787281"><ele>733.8</ele><time>2026-04-26T07:52:20.956Z</time></trkpt><trkpt lat="38.01618378652484" lon="15.171959888613817"><ele>733.0</ele><time>2026-04-26T07:52:21.956Z</time></trkpt><trkpt lat="38.01613634134424" lon="15.171851826356344"><ele>733.0</ele><time>2026-04-26T07:52:22.956Z</time></trkpt><trkpt lat="38.016085592735344" lon="15.171741888771123"><ele>733.0</ele><time>2026-04-26T07:52:23.956Z</time></trkpt><trkpt lat="38.01602759765379" lon="15.171625989457882"><ele>733.0</ele><time>2026-04-26T07:52:24.956Z</time></trkpt><trkpt lat="38.01596812536365" lon="15.171509487573948"><ele>733.0</ele><time>2026-04-26T07:52:25.956Z</time></trkpt><trkpt lat="38.015910156767035" lon="15.171397786883789"><ele>733.0</ele><time>2026-04-26T07:52:26.956Z</time></trkpt><trkpt lat="38.01585737228578" lon="15.171283767413042"><ele>729.8</ele><time>2026-04-26T07:52:27.956Z</time></trkpt><trkpt lat="38.01580845858361" lon="15.171162992996996"><ele>726.5999999999999</ele><time>2026-04-26T07:52:28.956Z</time></trkpt><trkpt lat="38.0157574131128" lon="15.171047650485564"><ele>723.4000000000001</ele><time>2026-04-26T07:52:29.956Z</time></trkpt><trkpt lat="38.01570923881684" lon="15.17093626491413"><ele>720.2</ele><time>2026-04-26T07:52:30.956Z</time></trkpt><trkpt lat="38.01566560037352" lon="15.17082595845347"><ele>717.0</ele><time>2026-04-26T07:52:31.956Z</time></trkpt><trkpt lat="38.0156268815729" lon="15.170719264745228"><ele>720.3333333333334</ele><time>2026-04-26T07:52:32.956Z</time></trkpt><trkpt lat="38.01558953605473" lon="15.17062754730113"><ele>723.6666666666666</ele><time>2026-04-26T07:52:33.955Z</time></trkpt><trkpt lat="38.01554768371831" lon="15.170539565680201"><ele>727.0</ele><time>2026-04-26T07:52:34.955Z</time></trkpt><trkpt lat="38.01551931742233" lon="15.170462389076445"><ele>730.3333333333333</ele><time>2026-04-26T07:52:35.955Z</time></trkpt><trkpt lat="38.01547651798056" lon="15.170342412338758"><ele>733.6666666666666</ele><time>2026-04-26T07:52:37.955Z</time></trkpt><trkpt lat="38.01546204418209" lon="15.170253429335657"><ele>737.0</ele><time>2026-04-26T07:52:39.955Z</time></trkpt><trkpt lat="38.015435495345066" lon="15.170150440032236"><ele>737.0</ele><time>2026-04-26T07:54:13.955Z</time></trkpt><trkpt lat="38.0154077827157" lon="15.170013192417981"><ele>737.0</ele><time>2026-04-26T07:54:15.955Z</time></trkpt><trkpt lat="38.015392730231255" lon="15.16992512179819"><ele>737.0</ele><time>2026-04-26T07:54:16.955Z</time></trkpt><trkpt lat="38.01537070819664" lon="15.169837545140297"><ele>737.0</ele><time>2026-04-26T07:54:17.955Z</time></trkpt><trkpt lat="38.01535664357251" lon="15.169730521400929"><ele>737.0</ele><time>2026-04-26T07:54:18.955Z</time></trkpt><trkpt lat="38.01534123733548" lon="15.169617174146685"><ele>737.0</ele><time>2026-04-26T07:54:19.955Z</time></trkpt><trkpt lat="38.01531976357347" lon="15.169496121577755"><ele>740.4000000000001</ele><time>2026-04-26T07:54:20.955Z</time></trkpt><trkpt lat="38.015301672170686" lon="15.169365147757123"><ele>743.8000000000001</ele><time>2026-04-26T07:54:21.955Z</time></trkpt><trkpt lat="38.01527612129501" lon="15.169233815560785"><ele>747.2</ele><time>2026-04-26T07:54:22.955Z</time></trkpt><trkpt lat="38.01526945977002" lon="15.169094572519747"><ele>750.6</ele><time>2026-04-26T07:54:23.955Z</time></trkpt><trkpt lat="38.01524284038655" lon="15.16897189250633"><ele>754.0</ele><time>2026-04-26T07:54:24.955Z</time></trkpt><trkpt lat="38.015205537603464" lon="15.16886069544711"><ele>753.0</ele><time>2026-04-26T07:54:25.955Z</time></trkpt><trkpt lat="38.01514928085577" lon="15.168749012086547"><ele>752.0</ele><time>2026-04-26T07:54:26.955Z</time></trkpt><trkpt lat="38.015083123452804" lon="15.168660556462957"><ele>751.0</ele><time>2026-04-26T07:54:27.955Z</time></trkpt><trkpt lat="38.01501826093457" lon="15.16857919654688"><ele>750.0</ele><time>2026-04-26T07:54:28.955Z</time></trkpt><trkpt lat="38.01496817479286" lon="15.168474305006622"><ele>749.0</ele><time>2026-04-26T07:54:29.955Z</time></trkpt><trkpt lat="38.014926128594986" lon="15.168359121262856"><ele>749.0</ele><time>2026-04-26T07:54:30.955Z</time></trkpt><trkpt lat="38.01487903142567" lon="15.168236772327116"><ele>749.0</ele><time>2026-04-26T07:54:31.955Z</time></trkpt><trkpt lat="38.01483698404661" lon="15.16811461635214"><ele>749.0</ele><time>2026-04-26T07:54:32.955Z</time></trkpt><trkpt lat="38.014798059416414" lon="15.167985764771549"><ele>749.0</ele><time>2026-04-26T07:54:33.955Z</time></trkpt><trkpt lat="38.01474304461875" lon="15.167857715959286"><ele>749.0</ele><time>2026-04-26T07:54:34.955Z</time></trkpt><trkpt lat="38.01468622574666" lon="15.16771770106089"><ele>757.5</ele><time>2026-04-26T07:54:35.954Z</time></trkpt><trkpt lat="38.014618418125686" lon="15.167584845559533"><ele>766.0</ele><time>2026-04-26T07:54:36.954Z</time></trkpt><trkpt lat="38.014561670479665" lon="15.167433906813178"><ele>774.5</ele><time>2026-04-26T07:54:37.954Z</time></trkpt><trkpt lat="38.01448427050119" lon="15.167307095918819"><ele>783.0</ele><time>2026-04-26T07:54:38.954Z</time></trkpt><trkpt lat="38.01439084506964" lon="15.167189719875626"><ele>785.75</ele><time>2026-04-26T07:54:39.954Z</time></trkpt><trkpt lat="38.014281008326634" lon="15.167084388645142"><ele>788.5</ele><time>2026-04-26T07:54:40.954Z</time></trkpt><trkpt lat="38.014192958979336" lon="15.16700133626942"><ele>791.25</ele><time>2026-04-26T07:54:41.954Z</time></trkpt><trkpt lat="38.014041585644264" lon="15.167030943360759"><ele>794.0</ele><time>2026-04-26T07:54:42.954Z</time></trkpt><trkpt lat="38.01393119564124" lon="15.166988487025435"><ele>794.0</ele><time>2026-04-26T07:54:43.954Z</time></trkpt><trkpt lat="38.01381990968337" lon="15.166975473732363"><ele>794.0</ele><time>2026-04-26T07:54:44.954Z</time></trkpt><trkpt lat="38.01371658960417" lon="15.166973491672968"><ele>794.0</ele><time>2026-04-26T07:54:45.954Z</time></trkpt><trkpt lat="38.01362711591043" lon="15.166941225131012"><ele>794.0</ele><time>2026-04-26T07:54:46.954Z</time></trkpt><trkpt lat="38.013547696032965" lon="15.166922057239459"><ele>794.0</ele><time>2026-04-26T07:54:47.954Z</time></trkpt><trkpt lat="38.01344573641796" lon="15.16684205877619"><ele>794.0</ele><time>2026-04-26T07:54:49.954Z</time></trkpt><trkpt lat="38.01347140806169" lon="15.166721134487831"><ele>794.0</ele><time>2026-04-26T07:54:50.954Z</time></trkpt><trkpt lat="38.01349388497359" lon="15.166624784968006"><ele>794.0</ele><time>2026-04-26T07:54:51.954Z</time></trkpt><trkpt lat="38.01352932098517" lon="15.166553560906454"><ele>794.0</ele><time>2026-04-26T07:54:52.954Z</time></trkpt><trkpt lat="38.01362125373903" lon="15.166519978863608"><ele>794.0</ele><time>2026-04-26T07:54:53.954Z</time></trkpt><trkpt lat="38.013731828436306" lon="15.166526415021291"><ele>794.0</ele><time>2026-04-26T07:54:54.954Z</time></trkpt><trkpt lat="38.013843061744375" lon="15.166537650923123"><ele>794.0</ele><time>2026-04-26T07:54:55.954Z</time></trkpt><trkpt lat="38.01395352567998" lon="15.16656165166313"><ele>794.0</ele><time>2026-04-26T07:54:56.954Z</time></trkpt><trkpt lat="38.01404825467648" lon="15.166597917383655"><ele>794.0</ele><time>2026-04-26T07:54:57.954Z</time></trkpt><trkpt lat="38.01413601978297" lon="15.166673794848927"><ele>794.0</ele><time>2026-04-26T07:54:58.954Z</time></trkpt><trkpt lat="38.01422455928044" lon="15.16673719369992"><ele>796.8000000000001</ele><time>2026-04-26T07:54:59.954Z</time></trkpt><trkpt lat="38.01431862273579" lon="15.166791223534586"><ele>799.6</ele><time>2026-04-26T07:55:00.954Z</time></trkpt><trkpt lat="38.014399055357124" lon="15.166856902502207"><ele>802.4</ele><time>2026-04-26T07:55:01.954Z</time></trkpt><trkpt lat="38.01448755785736" lon="15.166901346076688"><ele>805.2</ele><time>2026-04-26T07:55:02.954Z</time></trkpt><trkpt lat="38.01457445235242" lon="15.166931245961775"><ele>808.0</ele><time>2026-04-26T07:55:03.954Z</time></trkpt><trkpt lat="38.01465906345282" lon="15.166914817585397"><ele>808.0</ele><time>2026-04-26T07:55:04.954Z</time></trkpt><trkpt lat="38.01473625123899" lon="15.16687736344712"><ele>808.0</ele><time>2026-04-26T07:55:05.954Z</time></trkpt><trkpt lat="38.01478372006386" lon="15.166751627379945"><ele>808.0</ele><time>2026-04-26T07:55:06.954Z</time></trkpt><trkpt lat="38.01481141586388" lon="15.166598837865829"><ele>808.0</ele><time>2026-04-26T07:55:07.954Z</time></trkpt><trkpt lat="38.01482542052003" lon="15.166436660710643"><ele>808.0</ele><time>2026-04-26T07:55:08.954Z</time></trkpt><trkpt lat="38.01482203302259" lon="15.166280103757078"><ele>815.25</ele><time>2026-04-26T07:55:09.954Z</time></trkpt><trkpt lat="38.01481963638534" lon="15.166133142994255"><ele>822.5</ele><time>2026-04-26T07:55:10.954Z</time></trkpt><trkpt lat="38.01478287839669" lon="15.165985155640271"><ele>829.75</ele><time>2026-04-26T07:55:11.953Z</time></trkpt><trkpt lat="38.01473208952426" lon="15.165831130192684"><ele>837.0</ele><time>2026-04-26T07:55:12.953Z</time></trkpt><trkpt lat="38.01471957201716" lon="15.165680982941435"><ele>844.0</ele><time>2026-04-26T07:55:13.953Z</time></trkpt><trkpt lat="38.014705939643875" lon="15.165529214787567"><ele>851.0</ele><time>2026-04-26T07:55:14.953Z</time></trkpt><trkpt lat="38.01470897148115" lon="15.165371963713547"><ele>858.0</ele><time>2026-04-26T07:55:15.953Z</time></trkpt><trkpt lat="38.014732186026635" lon="15.165220279984565"><ele>865.0</ele><time>2026-04-26T07:55:16.953Z</time></trkpt><trkpt lat="38.01478651793412" lon="15.165073130989846"><ele>865.0</ele><time>2026-04-26T07:55:17.953Z</time></trkpt><trkpt lat="38.01483882229008" lon="15.16491531678429"><ele>865.0</ele><time>2026-04-26T07:55:18.953Z</time></trkpt><trkpt lat="38.01488644880916" lon="15.164757190525908"><ele>865.0</ele><time>2026-04-26T07:55:19.955Z</time></trkpt><trkpt lat="38.01492528241689" lon="15.16461028749686"><ele>865.0</ele><time>2026-04-26T07:55:20.955Z</time></trkpt><trkpt lat="38.014947928558364" lon="15.16446413104461"><ele>868.8</ele><time>2026-04-26T07:55:21.955Z</time></trkpt><trkpt lat="38.01498438498214" lon="15.164329664968587"><ele>872.6</ele><time>2026-04-26T07:55:22.955Z</time></trkpt><trkpt lat="38.015002822303295" lon="15.164183052078224"><ele>876.4000000000001</ele><time>2026-04-26T07:55:23.956Z</time></trkpt><trkpt lat="38.01501189678158" lon="15.164044263120564"><ele>880.2</ele><time>2026-04-26T07:55:24.956Z</time></trkpt><trkpt lat="38.01502778701727" lon="15.163919917292592"><ele>884.0</ele><time>2026-04-26T07:55:25.956Z</time></trkpt><trkpt lat="38.01503958510727" lon="15.163812198764543"><ele>884.6</ele><time>2026-04-26T07:55:26.955Z</time></trkpt><trkpt lat="38.015023334098146" lon="15.163709001791084"><ele>885.2</ele><time>2026-04-26T07:55:27.955Z</time></trkpt><trkpt lat="38.014978087435935" lon="15.16359795680645"><ele>885.8000000000001</ele><time>2026-04-26T07:55:28.955Z</time></trkpt><trkpt lat="38.014914119408154" lon="15.163505039311852"><ele>886.4000000000001</ele><time>2026-04-26T07:55:29.955Z</time></trkpt><trkpt lat="38.014807163824024" lon="15.163432739230315"><ele>887.0</ele><time>2026-04-26T07:55:30.955Z</time></trkpt><trkpt lat="38.014721761048136" lon="15.163353118885997"><ele>887.0</ele><time>2026-04-26T07:55:31.955Z</time></trkpt><trkpt lat="38.01470341162996" lon="15.163211335199412"><ele>887.0</ele><time>2026-04-26T07:55:32.956Z</time></trkpt><trkpt lat="38.01471413068323" lon="15.16305666030406"><ele>887.0</ele><time>2026-04-26T07:55:33.956Z</time></trkpt><trkpt lat="38.01474511799697" lon="15.162875649482741"><ele>887.0</ele><time>2026-04-26T07:55:34.956Z</time></trkpt><trkpt lat="38.014783143682365" lon="15.162726173027135"><ele>888.4000000000001</ele><time>2026-04-26T07:55:35.956Z</time></trkpt><trkpt lat="38.014811665905" lon="15.162593727380823"><ele>889.8000000000001</ele><time>2026-04-26T07:55:36.956Z</time></trkpt><trkpt lat="38.014843253221606" lon="15.16246719567559"><ele>891.2</ele><time>2026-04-26T07:55:37.956Z</time></trkpt><trkpt lat="38.01486457312297" lon="15.162332972332084"><ele>892.6</ele><time>2026-04-26T07:55:38.956Z</time></trkpt><trkpt lat="38.014875225555436" lon="15.162204597697416"><ele>894.0</ele><time>2026-04-26T07:55:39.956Z</time></trkpt><trkpt lat="38.014891248344895" lon="15.162070930452606"><ele>892.4000000000001</ele><time>2026-04-26T07:55:40.956Z</time></trkpt><trkpt lat="38.014934509549505" lon="15.161948662843017"><ele>890.8000000000001</ele><time>2026-04-26T07:55:41.956Z</time></trkpt><trkpt lat="38.01499634839532" lon="15.161836043454615"><ele>889.1999999999999</ele><time>2026-04-26T07:55:42.956Z</time></trkpt><trkpt lat="38.0150632718671" lon="15.161706577795927"><ele>887.5999999999999</ele><time>2026-04-26T07:55:43.956Z</time></trkpt><trkpt lat="38.0151041541538" lon="15.161583095554198"><ele>886.0</ele><time>2026-04-26T07:55:44.956Z</time></trkpt><trkpt lat="38.01513208823013" lon="15.161433427015641"><ele>886.0</ele><time>2026-04-26T07:55:45.956Z</time></trkpt><trkpt lat="38.015124567843365" lon="15.161284011868178"><ele>885.9999999999999</ele><time>2026-04-26T07:55:46.956Z</time></trkpt><trkpt lat="38.01515043324642" lon="15.161161391640082"><ele>885.9999999999999</ele><time>2026-04-26T07:55:47.955Z</time></trkpt><trkpt lat="38.015196546210305" lon="15.161065456029444"><ele>886.0</ele><time>2026-04-26T07:55:48.955Z</time></trkpt><trkpt lat="38.01527818729932" lon="15.161009692245083"><ele>886.0</ele><time>2026-04-26T07:55:49.955Z</time></trkpt><trkpt lat="38.01537685209422" lon="15.16099621173681"><ele>886.0</ele><time>2026-04-26T07:55:50.955Z</time></trkpt><trkpt lat="38.01548351317837" lon="15.161020515853645"><ele>885.9999999999999</ele><time>2026-04-26T07:55:51.955Z</time></trkpt><trkpt lat="38.01558317748346" lon="15.161039029508164"><ele>885.9999999999999</ele><time>2026-04-26T07:55:52.955Z</time></trkpt><trkpt lat="38.015679847186036" lon="15.161114620957427"><ele>886.0</ele><time>2026-04-26T07:55:53.955Z</time></trkpt><trkpt lat="38.01577832047577" lon="15.161203631234157"><ele>886.0</ele><time>2026-04-26T07:55:54.955Z</time></trkpt><trkpt lat="38.01587157914022" lon="15.161252989472175"><ele>883.5999999999999</ele><time>2026-04-26T07:55:55.955Z</time></trkpt><trkpt lat="38.01596964174076" lon="15.16125468391033"><ele>881.1999999999999</ele><time>2026-04-26T07:55:56.955Z</time></trkpt><trkpt lat="38.01605949298805" lon="15.161201442678813"><ele>878.8000000000001</ele><time>2026-04-26T07:55:57.955Z</time></trkpt><trkpt lat="38.01613218069528" lon="15.161098805444855"><ele>876.4000000000001</ele><time>2026-04-26T07:55:58.955Z</time></trkpt><trkpt lat="38.01618370850368" lon="15.160959311475606"><ele>874.0</ele><time>2026-04-26T07:55:59.955Z</time></trkpt><trkpt lat="38.016274095874735" lon="15.160819304191381"><ele>876.25</ele><time>2026-04-26T07:56:00.955Z</time></trkpt><trkpt lat="38.016372699569686" lon="15.160678885266114"><ele>878.5</ele><time>2026-04-26T07:56:01.955Z</time></trkpt><trkpt lat="38.01647708000023" lon="15.160551905035856"><ele>880.75</ele><time>2026-04-26T07:56:02.955Z</time></trkpt><trkpt lat="38.01660883637361" lon="15.160445413415275"><ele>883.0</ele><time>2026-04-26T07:56:03.955Z</time></trkpt><trkpt lat="38.016749429768474" lon="15.16033370417798"><ele>883.0</ele><time>2026-04-26T07:56:04.955Z</time></trkpt><trkpt lat="38.01689684554971" lon="15.160213226321806"><ele>883.0</ele><time>2026-04-26T07:56:05.955Z</time></trkpt><trkpt lat="38.01702577993649" lon="15.16009156706134"><ele>883.0</ele><time>2026-04-26T07:56:06.955Z</time></trkpt><trkpt lat="38.01714870195114" lon="15.159980461061354"><ele>883.0</ele><time>2026-04-26T07:56:07.955Z</time></trkpt><trkpt lat="38.0172641622792" lon="15.159880173597845"><ele>883.0</ele><time>2026-04-26T07:56:08.955Z</time></trkpt><trkpt lat="38.01737169707019" lon="15.15979615721648"><ele>883.0</ele><time>2026-04-26T07:56:09.955Z</time></trkpt><trkpt lat="38.017478266509976" lon="15.159718916569165"><ele>883.0</ele><time>2026-04-26T07:56:10.955Z</time></trkpt><trkpt lat="38.0175753358368" lon="15.159649413602152"><ele>883.3333333333333</ele><time>2026-04-26T07:56:11.955Z</time></trkpt><trkpt lat="38.01766176023294" lon="15.159588930218078"><ele>883.6666666666666</ele><time>2026-04-26T07:56:12.955Z</time></trkpt><trkpt lat="38.0177299073643" lon="15.159534761869452"><ele>884.0</ele><time>2026-04-26T07:56:13.955Z</time></trkpt><trkpt lat="38.01777657946182" lon="15.159445460621283"><ele>884.3333333333333</ele><time>2026-04-26T07:56:14.955Z</time></trkpt><trkpt lat="38.01780342757811" lon="15.1593524392344"><ele>884.6666666666666</ele><time>2026-04-26T07:56:15.955Z</time></trkpt><trkpt lat="38.01779958988469" lon="15.15924398796895"><ele>885.0</ele><time>2026-04-26T07:56:16.955Z</time></trkpt><trkpt lat="38.01776822350146" lon="15.159132800456877"><ele>882.25</ele><time>2026-04-26T07:56:17.955Z</time></trkpt><trkpt lat="38.01769904545654" lon="15.159024062082977"><ele>879.5</ele><time>2026-04-26T07:56:18.955Z</time></trkpt><trkpt lat="38.01760594594802" lon="15.15889634736038"><ele>876.75</ele><time>2026-04-26T07:56:19.955Z</time></trkpt><trkpt lat="38.01749626527121" lon="15.15869199656624"><ele>874.0</ele><time>2026-04-26T07:56:20.955Z</time></trkpt><trkpt lat="38.01735491029011" lon="15.158467702208112"><ele>882.5</ele><time>2026-04-26T07:56:21.955Z</time></trkpt><trkpt lat="38.01722259966725" lon="15.158214239767213"><ele>891.0</ele><time>2026-04-26T07:56:22.955Z</time></trkpt><trkpt lat="38.01710402417958" lon="15.157947770635758"><ele>891.0</ele><time>2026-04-26T07:56:23.954Z</time></trkpt><trkpt lat="38.0170120726075" lon="15.157654554827632"><ele>891.0</ele><time>2026-04-26T07:56:24.954Z</time></trkpt><trkpt lat="38.01693948820879" lon="15.157341247190843"><ele>883.6666666666667</ele><time>2026-04-26T07:56:25.954Z</time></trkpt><trkpt lat="38.01687785664064" lon="15.157050325771902"><ele>876.3333333333334</ele><time>2026-04-26T07:56:26.954Z</time></trkpt><trkpt lat="38.01682437923374" lon="15.156817529911145"><ele>869.0</ele><time>2026-04-26T07:56:27.954Z</time></trkpt><trkpt lat="38.016787118972694" lon="15.156666459697908"><ele>869.0</ele><time>2026-04-26T07:56:28.954Z</time></trkpt><trkpt lat="38.01673819325554" lon="15.156551032987405"><ele>869.0</ele><time>2026-04-26T07:56:29.954Z</time></trkpt><trkpt lat="38.01662578163335" lon="15.15647081051101"><ele>869.0</ele><time>2026-04-26T07:56:30.954Z</time></trkpt><trkpt lat="38.016469475606435" lon="15.156418266410014"><ele>869.0</ele><time>2026-04-26T07:56:31.954Z</time></trkpt><trkpt lat="38.01626159667763" lon="15.156376273508608"><ele>867.0</ele><time>2026-04-26T07:56:32.954Z</time></trkpt><trkpt lat="38.01605103609078" lon="15.156336156658146"><ele>865.0</ele><time>2026-04-26T07:56:33.954Z</time></trkpt><trkpt lat="38.01587679233671" lon="15.156258493747822"><ele>863.0</ele><time>2026-04-26T07:56:34.954Z</time></trkpt><trkpt lat="38.01573159382429" lon="15.156235451358564"><ele>863.0</ele><time>2026-04-26T07:56:35.954Z</time></trkpt><trkpt lat="38.01556286524332" lon="15.156239122863386"><ele>863.0</ele><time>2026-04-26T07:56:36.954Z</time></trkpt><trkpt lat="38.0153520015923" lon="15.156278298677025"><ele>863.0</ele><time>2026-04-26T07:56:37.954Z</time></trkpt><trkpt lat="38.015133101701736" lon="15.156353541990626"><ele>871.0</ele><time>2026-04-26T07:56:38.954Z</time></trkpt><trkpt lat="38.01495022281713" lon="15.156394565247266"><ele>879.0</ele><time>2026-04-26T07:56:39.954Z</time></trkpt><trkpt lat="38.01483118002093" lon="15.156412154120389"><ele>887.0</ele><time>2026-04-26T07:56:40.954Z</time></trkpt><trkpt lat="38.0147326094413" lon="15.15640385311383"><ele>895.0</ele><time>2026-04-26T07:56:41.954Z</time></trkpt><trkpt lat="38.01466735673989" lon="15.156352755216531"><ele>895.0</ele><time>2026-04-26T07:56:42.954Z</time></trkpt><trkpt lat="38.01465608003104" lon="15.156210723214409"><ele>895.0</ele><time>2026-04-26T07:56:43.954Z</time></trkpt><trkpt lat="38.01467415938946" lon="15.156087951519643"><ele>895.0</ele><time>2026-04-26T07:56:44.954Z</time></trkpt><trkpt lat="38.01475547788462" lon="15.155995788516737"><ele>895.0</ele><time>2026-04-26T07:56:45.954Z</time></trkpt><trkpt lat="38.014874173405424" lon="15.155853604772016"><ele>888.3333333333333</ele><time>2026-04-26T07:56:46.954Z</time></trkpt><trkpt lat="38.01500979199082" lon="15.15568949490735"><ele>881.6666666666667</ele><time>2026-04-26T07:56:47.954Z</time></trkpt><trkpt lat="38.01514429148734" lon="15.155544410951801"><ele>875.0</ele><time>2026-04-26T07:56:48.954Z</time></trkpt><trkpt lat="38.01527742980009" lon="15.155450271058676"><ele>875.0</ele><time>2026-04-26T07:56:49.954Z</time></trkpt><trkpt lat="38.01544378322081" lon="15.155376231505572"><ele>875.0</ele><time>2026-04-26T07:56:50.954Z</time></trkpt><trkpt lat="38.0156249792289" lon="15.155292307060998"><ele>875.0</ele><time>2026-04-26T07:56:51.954Z</time></trkpt><trkpt lat="38.01580529889715" lon="15.155221876576753"><ele>867.6666666666667</ele><time>2026-04-26T07:56:52.954Z</time></trkpt><trkpt lat="38.01597055119197" lon="15.155181046356661"><ele>860.3333333333333</ele><time>2026-04-26T07:56:53.954Z</time></trkpt><trkpt lat="38.01613335067425" lon="15.155149440163143"><ele>853.0</ele><time>2026-04-26T07:56:54.954Z</time></trkpt><trkpt lat="38.01626600081689" lon="15.155106866728786"><ele>853.0</ele><time>2026-04-26T07:56:55.954Z</time></trkpt><trkpt lat="38.016370695221106" lon="15.155003584759069"><ele>853.0</ele><time>2026-04-26T07:56:56.954Z</time></trkpt><trkpt lat="38.01647888737725" lon="15.154869707254292"><ele>853.0</ele><time>2026-04-26T07:56:57.954Z</time></trkpt><trkpt lat="38.01660469117274" lon="15.154716154594484"><ele>848.3333333333333</ele><time>2026-04-26T07:56:58.954Z</time></trkpt><trkpt lat="38.01672796404483" lon="15.15456100223653"><ele>843.6666666666667</ele><time>2026-04-26T07:56:59.953Z</time></trkpt><trkpt lat="38.016851890515916" lon="15.154454854229261"><ele>839.0</ele><time>2026-04-26T07:57:00.953Z</time></trkpt><trkpt lat="38.01699449973384" lon="15.154383196469725"><ele>839.0</ele><time>2026-04-26T07:57:01.953Z</time></trkpt><trkpt lat="38.017149906885436" lon="15.15430951885313"><ele>839.0</ele><time>2026-04-26T07:57:02.953Z</time></trkpt><trkpt lat="38.017324185728704" lon="15.154226560159554"><ele>839.0</ele><time>2026-04-26T07:57:03.953Z</time></trkpt><trkpt lat="38.017490358303796" lon="15.154146915086718"><ele>835.25</ele><time>2026-04-26T07:57:04.953Z</time></trkpt><trkpt lat="38.017638819555486" lon="15.154073167594696"><ele>831.5</ele><time>2026-04-26T07:57:05.953Z</time></trkpt><trkpt lat="38.01774900548281" lon="15.15399816798375"><ele>827.75</ele><time>2026-04-26T07:57:06.953Z</time></trkpt><trkpt lat="38.017851161088146" lon="15.153936475222501"><ele>824.0</ele><time>2026-04-26T07:57:07.953Z</time></trkpt><trkpt lat="38.01792342798224" lon="15.153845613199632"><ele>824.0</ele><time>2026-04-26T07:57:08.953Z</time></trkpt><trkpt lat="38.01796011551406" lon="15.15370338766421"><ele>824.0</ele><time>2026-04-26T07:57:09.953Z</time></trkpt><trkpt lat="38.01799055629329" lon="15.153523917105963"><ele>824.0</ele><time>2026-04-26T07:57:10.953Z</time></trkpt><trkpt lat="38.01803049169915" lon="15.153330011606045"><ele>824.0</ele><time>2026-04-26T07:57:11.953Z</time></trkpt><trkpt lat="38.01806971639702" lon="15.15313808047201"><ele>820.25</ele><time>2026-04-26T07:57:12.953Z</time></trkpt><trkpt lat="38.01811058591162" lon="15.152957799014459"><ele>816.5</ele><time>2026-04-26T07:57:13.953Z</time></trkpt><trkpt lat="38.01820583751957" lon="15.152846768528168"><ele>812.75</ele><time>2026-04-26T07:57:14.953Z</time></trkpt><trkpt lat="38.01832728488327" lon="15.152755827177357"><ele>809.0</ele><time>2026-04-26T07:57:15.953Z</time></trkpt><trkpt lat="38.01848188148582" lon="15.152654761040946"><ele>809.0</ele><time>2026-04-26T07:57:16.953Z</time></trkpt><trkpt lat="38.01865571340363" lon="15.152541272869934"><ele>809.0</ele><time>2026-04-26T07:57:17.953Z</time></trkpt><trkpt lat="38.01884735643322" lon="15.152416156776324"><ele>809.0</ele><time>2026-04-26T07:57:18.953Z</time></trkpt><trkpt lat="38.01904103436094" lon="15.152289711995136"><ele>807.6666666666667</ele><time>2026-04-26T07:57:19.953Z</time></trkpt><trkpt lat="38.01923497862103" lon="15.1521619467214"><ele>806.3333333333333</ele><time>2026-04-26T07:57:20.953Z</time></trkpt><trkpt lat="38.01941379990868" lon="15.152040931413111"><ele>805.0</ele><time>2026-04-26T07:57:21.953Z</time></trkpt><trkpt lat="38.0195849583073" lon="15.151926914045992"><ele>805.0</ele><time>2026-04-26T07:57:22.953Z</time></trkpt><trkpt lat="38.0197470642522" lon="15.151823922658396"><ele>805.0</ele><time>2026-04-26T07:57:23.953Z</time></trkpt><trkpt lat="38.019895248899125" lon="15.15173206856268"><ele>805.0</ele><time>2026-04-26T07:57:24.953Z</time></trkpt><trkpt lat="38.02002203694397" lon="15.15165932904493"><ele>806.5</ele><time>2026-04-26T07:57:25.954Z</time></trkpt><trkpt lat="38.02014686717238" lon="15.151629801552344"><ele>808.0</ele><time>2026-04-26T07:57:26.955Z</time></trkpt><trkpt lat="38.02026598035308" lon="15.151689714762975"><ele>809.5</ele><time>2026-04-26T07:57:27.955Z</time></trkpt><trkpt lat="38.020375049106576" lon="15.151798734510754"><ele>811.0</ele><time>2026-04-26T07:57:28.954Z</time></trkpt><trkpt lat="38.020494258156226" lon="15.1519149992972"><ele>811.0</ele><time>2026-04-26T07:57:29.954Z</time></trkpt><trkpt lat="38.02060965374518" lon="15.151990000727665"><ele>811.0</ele><time>2026-04-26T07:57:30.954Z</time></trkpt><trkpt lat="38.02069702493879" lon="15.15205766121506"><ele>811.0</ele><time>2026-04-26T07:57:31.954Z</time></trkpt><trkpt lat="38.02079873826882" lon="15.15202979692177"><ele>811.0</ele><time>2026-04-26T07:57:32.955Z</time></trkpt><trkpt lat="38.02089826612054" lon="15.151967834191538"><ele>811.0</ele><time>2026-04-26T07:57:33.955Z</time></trkpt><trkpt lat="38.0210005690207" lon="15.151866589818168"><ele>812.0</ele><time>2026-04-26T07:57:34.954Z</time></trkpt><trkpt lat="38.02111931363036" lon="15.151764058218625"><ele>813.0</ele><time>2026-04-26T07:57:35.955Z</time></trkpt><trkpt lat="38.02123266234184" lon="15.151676830727558"><ele>814.0</ele><time>2026-04-26T07:57:36.955Z</time></trkpt><trkpt lat="38.021340147351715" lon="15.151605690914746"><ele>815.0</ele><time>2026-04-26T07:57:37.954Z</time></trkpt><trkpt lat="38.021438559964274" lon="15.151509090992809"><ele>815.25</ele><time>2026-04-26T07:57:38.954Z</time></trkpt><trkpt lat="38.02151927175526" lon="15.15140306453889"><ele>815.5</ele><time>2026-04-26T07:57:39.954Z</time></trkpt><trkpt lat="38.02159230046057" lon="15.151300946937827"><ele>815.75</ele><time>2026-04-26T07:57:40.954Z</time></trkpt><trkpt lat="38.021674943449256" lon="15.151180165479133"><ele>816.0</ele><time>2026-04-26T07:57:41.954Z</time></trkpt><trkpt lat="38.021777123849326" lon="15.151069180379"><ele>816.0</ele><time>2026-04-26T07:57:42.954Z</time></trkpt><trkpt lat="38.02186949739311" lon="15.150942298700837"><ele>816.0</ele><time>2026-04-26T07:57:43.954Z</time></trkpt><trkpt lat="38.02196359890583" lon="15.150813043793885"><ele>816.0</ele><time>2026-04-26T07:57:44.954Z</time></trkpt><trkpt lat="38.02206217178248" lon="15.150682773983991"><ele>816.0</ele><time>2026-04-26T07:57:45.954Z</time></trkpt><trkpt lat="38.02215782104136" lon="15.150541873119346"><ele>816.25</ele><time>2026-04-26T07:57:46.954Z</time></trkpt><trkpt lat="38.02225125670256" lon="15.15042829573765"><ele>816.5</ele><time>2026-04-26T07:57:47.954Z</time></trkpt><trkpt lat="38.02237894542341" lon="15.150403756597012"><ele>816.75</ele><time>2026-04-26T07:57:48.954Z</time></trkpt><trkpt lat="38.02252699198403" lon="15.150415665313536"><ele>817.0</ele><time>2026-04-26T07:57:49.954Z</time></trkpt><trkpt lat="38.02268667669836" lon="15.150424340539235"><ele>817.0</ele><time>2026-04-26T07:57:50.954Z</time></trkpt><trkpt lat="38.022847849523544" lon="15.150431212617502"><ele>817.0</ele><time>2026-04-26T07:57:51.954Z</time></trkpt><trkpt lat="38.0229859248022" lon="15.150437099866508"><ele>817.0</ele><time>2026-04-26T07:57:52.954Z</time></trkpt><trkpt lat="38.02312874593021" lon="15.150432323669655"><ele>817.0</ele><time>2026-04-26T07:57:53.954Z</time></trkpt><trkpt lat="38.023273755649015" lon="15.150441681360592"><ele>815.25</ele><time>2026-04-26T07:57:54.954Z</time></trkpt><trkpt lat="38.02342062275064" lon="15.150430398645865"><ele>813.5</ele><time>2026-04-26T07:57:55.954Z</time></trkpt><trkpt lat="38.023559630815264" lon="15.150411127251578"><ele>811.75</ele><time>2026-04-26T07:57:56.954Z</time></trkpt><trkpt lat="38.02368178169971" lon="15.150392359675068"><ele>810.0</ele><time>2026-04-26T07:57:57.954Z</time></trkpt><trkpt lat="38.023807548958196" lon="15.150389780471214"><ele>810.0</ele><time>2026-04-26T07:57:58.954Z</time></trkpt><trkpt lat="38.02393248800125" lon="15.150387875766256"><ele>810.0</ele><time>2026-04-26T07:57:59.954Z</time></trkpt><trkpt lat="38.024047810331" lon="15.150358817541145"><ele>810.0</ele><time>2026-04-26T07:58:00.954Z</time></trkpt><trkpt lat="38.02414632073511" lon="15.150300994363825"><ele>810.0</ele><time>2026-04-26T07:58:01.954Z</time></trkpt><trkpt lat="38.024227869723404" lon="15.150187795737105"><ele>809.75</ele><time>2026-04-26T07:58:02.954Z</time></trkpt><trkpt lat="38.024265672839846" lon="15.150039862342675"><ele>809.5</ele><time>2026-04-26T07:58:03.954Z</time></trkpt><trkpt lat="38.02428001613805" lon="15.149871270101167"><ele>809.25</ele><time>2026-04-26T07:58:04.954Z</time></trkpt><trkpt lat="38.02433995679498" lon="15.149702636879006"><ele>809.0</ele><time>2026-04-26T07:58:05.954Z</time></trkpt><trkpt lat="38.024475034268114" lon="15.149585228491064"><ele>809.0</ele><time>2026-04-26T07:58:06.954Z</time></trkpt><trkpt lat="38.02461536215664" lon="15.149448623781415"><ele>809.0</ele><time>2026-04-26T07:58:07.954Z</time></trkpt><trkpt lat="38.02473986580343" lon="15.149297120880002"><ele>809.0</ele><time>2026-04-26T07:58:08.954Z</time></trkpt><trkpt lat="38.02486704670615" lon="15.149178160245953"><ele>809.0</ele><time>2026-04-26T07:58:09.953Z</time></trkpt><trkpt lat="38.024975057867515" lon="15.149062541168423"><ele>809.0</ele><time>2026-04-26T07:58:10.953Z</time></trkpt><trkpt lat="38.02508080379094" lon="15.148959250924863"><ele>809.0</ele><time>2026-04-26T07:58:11.953Z</time></trkpt><trkpt lat="38.02517806618994" lon="15.148867019943898"><ele>809.0</ele><time>2026-04-26T07:58:12.953Z</time></trkpt><trkpt lat="38.025250369474605" lon="15.148773847130581"><ele>803.75</ele><time>2026-04-26T07:58:13.953Z</time></trkpt><trkpt lat="38.025296121662464" lon="15.148664328368248"><ele>798.5</ele><time>2026-04-26T07:58:14.953Z</time></trkpt><trkpt lat="38.02527667192807" lon="15.148542662204628"><ele>793.25</ele><time>2026-04-26T07:58:15.953Z</time></trkpt><trkpt lat="38.02520920702287" lon="15.148411326336053"><ele>788.0</ele><time>2026-04-26T07:58:16.953Z</time></trkpt><trkpt lat="38.02509648012665" lon="15.14829376233748"><ele>786.75</ele><time>2026-04-26T07:58:17.953Z</time></trkpt><trkpt lat="38.02501691532985" lon="15.148169864784494"><ele>785.5</ele><time>2026-04-26T07:58:18.953Z</time></trkpt><trkpt lat="38.02495048801134" lon="15.148039276795195"><ele>784.25</ele><time>2026-04-26T07:58:19.953Z</time></trkpt><trkpt lat="38.02491278404987" lon="15.147876432965143"><ele>783.0</ele><time>2026-04-26T07:58:20.953Z</time></trkpt><trkpt lat="38.02487712487034" lon="15.147693538381082"><ele>782.5</ele><time>2026-04-26T07:58:21.953Z</time></trkpt><trkpt lat="38.024858176695055" lon="15.147524678711472"><ele>782.0</ele><time>2026-04-26T07:58:22.953Z</time></trkpt><trkpt lat="38.02486171754882" lon="15.147373822568378"><ele>781.5</ele><time>2026-04-26T07:58:23.953Z</time></trkpt><trkpt lat="38.02491265789979" lon="15.147225715557092"><ele>781.0</ele><time>2026-04-26T07:58:24.953Z</time></trkpt><trkpt lat="38.02499057607499" lon="15.147052649538482"><ele>781.0</ele><time>2026-04-26T07:58:25.953Z</time></trkpt><trkpt lat="38.02507475226439" lon="15.146864767596215"><ele>781.0</ele><time>2026-04-26T07:58:26.953Z</time></trkpt><trkpt lat="38.025121130808465" lon="15.146680037388013"><ele>781.0</ele><time>2026-04-26T07:58:27.953Z</time></trkpt><trkpt lat="38.02516699448295" lon="15.14650750416631"><ele>776.3333333333333</ele><time>2026-04-26T07:58:28.953Z</time></trkpt><trkpt lat="38.02520116859217" lon="15.146323953089986"><ele>771.6666666666666</ele><time>2026-04-26T07:58:29.953Z</time></trkpt><trkpt lat="38.02521751123003" lon="15.146121150780722"><ele>767.0</ele><time>2026-04-26T07:58:30.953Z</time></trkpt><trkpt lat="38.02520583280611" lon="15.14591111444507"><ele>764.6666666666666</ele><time>2026-04-26T07:58:31.953Z</time></trkpt><trkpt lat="38.02520508429525" lon="15.145682760538755"><ele>762.3333333333334</ele><time>2026-04-26T07:58:32.953Z</time></trkpt><trkpt lat="38.02519588889193" lon="15.145449626047613"><ele>760.0</ele><time>2026-04-26T07:58:33.953Z</time></trkpt><trkpt lat="38.025189845004704" lon="15.145229104227237"><ele>760.0</ele><time>2026-04-26T07:58:34.953Z</time></trkpt><trkpt lat="38.02518848375897" lon="15.145007185712128"><ele>760.0</ele><time>2026-04-26T07:58:35.953Z</time></trkpt><trkpt lat="38.025204473260004" lon="15.144800721302367"><ele>760.0</ele><time>2026-04-26T07:58:36.953Z</time></trkpt><trkpt lat="38.025251308950196" lon="15.14461902831737"><ele>758.0</ele><time>2026-04-26T07:58:37.953Z</time></trkpt><trkpt lat="38.02531860682852" lon="15.144456993596833"><ele>756.0</ele><time>2026-04-26T07:58:38.953Z</time></trkpt><trkpt lat="38.025396057643576" lon="15.144282773915416"><ele>754.0</ele><time>2026-04-26T07:58:39.953Z</time></trkpt><trkpt lat="38.025483726388806" lon="15.144090853125505"><ele>755.0</ele><time>2026-04-26T07:58:40.953Z</time></trkpt><trkpt lat="38.02557420205258" lon="15.143896791098966"><ele>756.0</ele><time>2026-04-26T07:58:41.953Z</time></trkpt><trkpt lat="38.02565527038845" lon="15.14371848412117"><ele>757.0</ele><time>2026-04-26T07:58:42.953Z</time></trkpt><trkpt lat="38.02572959345938" lon="15.143548107991425"><ele>757.0</ele><time>2026-04-26T07:58:43.953Z</time></trkpt><trkpt lat="38.02575734535427" lon="15.1433650273068"><ele>757.0</ele><time>2026-04-26T07:58:44.953Z</time></trkpt><trkpt lat="38.025775925028576" lon="15.14316479404314"><ele>757.0</ele><time>2026-04-26T07:58:45.952Z</time></trkpt><trkpt lat="38.02576333845627" lon="15.142927705437021"><ele>759.0</ele><time>2026-04-26T07:58:46.952Z</time></trkpt><trkpt lat="38.02575705574295" lon="15.142688760078823"><ele>761.0</ele><time>2026-04-26T07:58:47.952Z</time></trkpt><trkpt lat="38.02575659331074" lon="15.142450451274987"><ele>763.0</ele><time>2026-04-26T07:58:48.952Z</time></trkpt><trkpt lat="38.02576163114827" lon="15.14223387056631"><ele>763.25</ele><time>2026-04-26T07:58:49.952Z</time></trkpt><trkpt lat="38.02577620706789" lon="15.142030684209319"><ele>763.5</ele><time>2026-04-26T07:58:50.952Z</time></trkpt><trkpt lat="38.02576172802301" lon="15.141848280557284"><ele>763.75</ele><time>2026-04-26T07:58:51.952Z</time></trkpt><trkpt lat="38.025764423509365" lon="15.141670598839724"><ele>764.0</ele><time>2026-04-26T07:58:52.952Z</time></trkpt><trkpt lat="38.02576893842103" lon="15.14150195287745"><ele>764.3333333333333</ele><time>2026-04-26T07:58:53.952Z</time></trkpt><trkpt lat="38.02579306911347" lon="15.141326354719608"><ele>764.6666666666666</ele><time>2026-04-26T07:58:54.952Z</time></trkpt><trkpt lat="38.02583445477416" lon="15.141126548898868"><ele>765.0</ele><time>2026-04-26T07:58:55.952Z</time></trkpt><trkpt lat="38.02588557287813" lon="15.140922665278076"><ele>765.6666666666666</ele><time>2026-04-26T07:58:56.952Z</time></trkpt><trkpt lat="38.025940421505666" lon="15.140705505620453"><ele>766.3333333333333</ele><time>2026-04-26T07:58:57.952Z</time></trkpt><trkpt lat="38.02599190665708" lon="15.140514537578946"><ele>767.0</ele><time>2026-04-26T07:58:58.952Z</time></trkpt><trkpt lat="38.0260877620714" lon="15.1403130087219"><ele>767.0</ele><time>2026-04-26T07:58:59.952Z</time></trkpt><trkpt lat="38.02621375543107" lon="15.140115341902783"><ele>767.0</ele><time>2026-04-26T07:59:00.952Z</time></trkpt><trkpt lat="38.02634019922861" lon="15.139921903075095"><ele>767.0</ele><time>2026-04-26T07:59:01.952Z</time></trkpt><trkpt lat="38.02645632212844" lon="15.13973999435123"><ele>765.3333333333333</ele><time>2026-04-26T07:59:02.952Z</time></trkpt><trkpt lat="38.02656508998718" lon="15.139563776824229"><ele>763.6666666666666</ele><time>2026-04-26T07:59:03.952Z</time></trkpt><trkpt lat="38.02667829813317" lon="15.139416530388349"><ele>762.0</ele><time>2026-04-26T07:59:04.952Z</time></trkpt><trkpt lat="38.02681849002073" lon="15.139265681422874"><ele>762.0</ele><time>2026-04-26T07:59:05.952Z</time></trkpt><trkpt lat="38.02696011057375" lon="15.139115131397945"><ele>762.0</ele><time>2026-04-26T07:59:06.952Z</time></trkpt><trkpt lat="38.027095296233625" lon="15.138970976592509"><ele>762.0</ele><time>2026-04-26T07:59:07.952Z</time></trkpt><trkpt lat="38.02721833200322" lon="15.138844013422199"><ele>762.6666666666666</ele><time>2026-04-26T07:59:08.952Z</time></trkpt><trkpt lat="38.027338290665334" lon="15.138784128476408"><ele>763.3333333333333</ele><time>2026-04-26T07:59:09.952Z</time></trkpt><trkpt lat="38.02749491751248" lon="15.1387453117741"><ele>764.0</ele><time>2026-04-26T07:59:10.952Z</time></trkpt><trkpt lat="38.02767984434708" lon="15.138703033627273"><ele>761.3333333333333</ele><time>2026-04-26T07:59:11.952Z</time></trkpt><trkpt lat="38.02786772941714" lon="15.138656360374778"><ele>758.6666666666666</ele><time>2026-04-26T07:59:12.952Z</time></trkpt><trkpt lat="38.02804203631688" lon="15.138611230210238"><ele>756.0</ele><time>2026-04-26T07:59:13.952Z</time></trkpt><trkpt lat="38.0282091599794" lon="15.138567905377709"><ele>754.25</ele><time>2026-04-26T07:59:14.952Z</time></trkpt><trkpt lat="38.028361423945015" lon="15.138520621501184"><ele>752.5</ele><time>2026-04-26T07:59:15.952Z</time></trkpt><trkpt lat="38.02849681195078" lon="15.13845464995186"><ele>750.75</ele><time>2026-04-26T07:59:16.952Z</time></trkpt><trkpt lat="38.02860674089033" lon="15.138375346984674"><ele>749.0</ele><time>2026-04-26T07:59:17.952Z</time></trkpt><trkpt lat="38.02869422446395" lon="15.13826250096389"><ele>751.5</ele><time>2026-04-26T07:59:18.952Z</time></trkpt><trkpt lat="38.02873931157378" lon="15.138097312174228"><ele>754.0</ele><time>2026-04-26T07:59:19.952Z</time></trkpt><trkpt lat="38.02875058741981" lon="15.137931738776766"><ele>756.5</ele><time>2026-04-26T07:59:20.952Z</time></trkpt><trkpt lat="38.02874235566609" lon="15.137771698022293"><ele>759.0</ele><time>2026-04-26T07:59:21.951Z</time></trkpt><trkpt lat="38.02875967370606" lon="15.137625545489438"><ele>759.0</ele><time>2026-04-26T07:59:22.951Z</time></trkpt><trkpt lat="38.028841472322185" lon="15.137518985110598"><ele>759.0</ele><time>2026-04-26T07:59:23.951Z</time></trkpt><trkpt lat="38.02896218841067" lon="15.137410313264782"><ele>759.0</ele><time>2026-04-26T07:59:24.951Z</time></trkpt><trkpt lat="38.02909097372937" lon="15.137270679535424"><ele>759.0</ele><time>2026-04-26T07:59:25.951Z</time></trkpt><trkpt lat="38.02920313300477" lon="15.137124755795535"><ele>759.0</ele><time>2026-04-26T07:59:26.951Z</time></trkpt><trkpt lat="38.02929872969073" lon="15.13699077374466"><ele>759.0</ele><time>2026-04-26T07:59:27.951Z</time></trkpt><trkpt lat="38.029388839333436" lon="15.13690027449544"><ele>759.0</ele><time>2026-04-26T07:59:28.951Z</time></trkpt><trkpt lat="38.029477063831195" lon="15.136860977875608"><ele>759.0</ele><time>2026-04-26T07:59:29.951Z</time></trkpt><trkpt lat="38.029570511261824" lon="15.136885170476695"><ele>759.0</ele><time>2026-04-26T07:59:30.951Z</time></trkpt><trkpt lat="38.02968646843859" lon="15.136920931570987"><ele>759.0</ele><time>2026-04-26T07:59:31.954Z</time></trkpt><trkpt lat="38.02983626805837" lon="15.13692791809132"><ele>759.0</ele><time>2026-04-26T07:59:32.954Z</time></trkpt><trkpt lat="38.0300041014053" lon="15.136874063332241"><ele>759.0</ele><time>2026-04-26T07:59:33.954Z</time></trkpt><trkpt lat="38.03019210601107" lon="15.136831684980109"><ele>752.6666666666666</ele><time>2026-04-26T07:59:34.954Z</time></trkpt><trkpt lat="38.030397012291935" lon="15.136766526796787"><ele>746.3333333333333</ele><time>2026-04-26T07:59:35.953Z</time></trkpt><trkpt lat="38.03058969340711" lon="15.136711547919747"><ele>740.0</ele><time>2026-04-26T07:59:36.953Z</time></trkpt><trkpt lat="38.03076720020572" lon="15.136673083890164"><ele>743.3333333333333</ele><time>2026-04-26T07:59:37.953Z</time></trkpt><trkpt lat="38.03092891926633" lon="15.136628569710277"><ele>746.6666666666666</ele><time>2026-04-26T07:59:38.953Z</time></trkpt><trkpt lat="38.03107099182492" lon="15.136592237276345"><ele>750.0</ele><time>2026-04-26T07:59:39.953Z</time></trkpt><trkpt lat="38.03120566948056" lon="15.136545437456746"><ele>750.0</ele><time>2026-04-26T07:59:40.954Z</time></trkpt><trkpt lat="38.03132589349332" lon="15.136447002641635"><ele>750.0</ele><time>2026-04-26T07:59:41.954Z</time></trkpt><trkpt lat="38.03146648478903" lon="15.136332328560055"><ele>750.0</ele><time>2026-04-26T07:59:42.954Z</time></trkpt><trkpt lat="38.031606410703674" lon="15.136210018956165"><ele>744.25</ele><time>2026-04-26T07:59:43.953Z</time></trkpt><trkpt lat="38.03172855462821" lon="15.136085204140416"><ele>738.5</ele><time>2026-04-26T07:59:44.953Z</time></trkpt><trkpt lat="38.03182894461041" lon="15.135954154911747"><ele>732.75</ele><time>2026-04-26T07:59:45.953Z</time></trkpt><trkpt lat="38.0319070472414" lon="15.135817813314898"><ele>727.0</ele><time>2026-04-26T07:59:46.953Z</time></trkpt><trkpt lat="38.03198557373724" lon="15.135731157123903"><ele>727.0</ele><time>2026-04-26T07:59:47.953Z</time></trkpt><trkpt lat="38.032074020840874" lon="15.13567408019587"><ele>727.0</ele><time>2026-04-26T07:59:48.953Z</time></trkpt><trkpt lat="38.032179773025966" lon="15.13567246950512"><ele>727.0</ele><time>2026-04-26T07:59:49.953Z</time></trkpt><trkpt lat="38.03230289265296" lon="15.13571645384679"><ele>727.0</ele><time>2026-04-26T07:59:50.953Z</time></trkpt><trkpt lat="38.03242497521085" lon="15.135784219369958"><ele>723.5</ele><time>2026-04-26T07:59:51.953Z</time></trkpt><trkpt lat="38.03254295820535" lon="15.135809383036507"><ele>720.0</ele><time>2026-04-26T07:59:52.953Z</time></trkpt><trkpt lat="38.03266229074985" lon="15.135792760706682"><ele>716.5</ele><time>2026-04-26T07:59:53.953Z</time></trkpt><trkpt lat="38.03277256042695" lon="15.135736323708727"><ele>713.0</ele><time>2026-04-26T07:59:54.953Z</time></trkpt><trkpt lat="38.0328501959507" lon="15.135643564696633"><ele>713.0</ele><time>2026-04-26T07:59:55.953Z</time></trkpt><trkpt lat="38.032881563093" lon="15.135536345748157"><ele>713.0</ele><time>2026-04-26T07:59:56.953Z</time></trkpt><trkpt lat="38.03293097489572" lon="15.135434217058739"><ele>713.0</ele><time>2026-04-26T07:59:58.953Z</time></trkpt><trkpt lat="38.03298501876008" lon="15.135356924132928"><ele>713.0</ele><time>2026-04-26T08:00:00.953Z</time></trkpt><trkpt lat="38.03291952107633" lon="15.13524014579817"><ele>713.0</ele><time>2026-04-26T08:00:01.953Z</time></trkpt><trkpt lat="38.032875213788586" lon="15.135141024035923"><ele>713.0</ele><time>2026-04-26T08:00:04.953Z</time></trkpt><trkpt lat="38.03285129846389" lon="15.13504557514986"><ele>713.0</ele><time>2026-04-26T08:00:08.953Z</time></trkpt><trkpt lat="38.032808322209426" lon="15.134974345681785"><ele>713.0</ele><time>2026-04-26T08:00:48.952Z</time></trkpt><trkpt lat="38.03270452873405" lon="15.134849881671846"><ele>713.0</ele><time>2026-04-26T08:00:50.952Z</time></trkpt><trkpt lat="38.03263682033693" lon="15.134775418037725"><ele>713.0</ele><time>2026-04-26T08:00:51.952Z</time></trkpt><trkpt lat="38.032568585382" lon="15.134696500799862"><ele>711.1666666666666</ele><time>2026-04-26T08:00:52.952Z</time></trkpt><trkpt lat="38.032513635346504" lon="15.134614442008784"><ele>709.3333333333333</ele><time>2026-04-26T08:00:53.951Z</time></trkpt><trkpt lat="38.032493368972574" lon="15.134524064975324"><ele>707.5</ele><time>2026-04-26T08:00:54.951Z</time></trkpt><trkpt lat="38.03249744487636" lon="15.134425815053504"><ele>705.6666666666666</ele><time>2026-04-26T08:00:55.951Z</time></trkpt><trkpt lat="38.03252547563081" lon="15.134319538288036"><ele>703.8333333333334</ele><time>2026-04-26T08:00:56.951Z</time></trkpt><trkpt lat="38.03257374253566" lon="15.134196540059492"><ele>702.0</ele><time>2026-04-26T08:00:57.951Z</time></trkpt><trkpt lat="38.03261780755839" lon="15.134068605802756"><ele>701.25</ele><time>2026-04-26T08:00:58.951Z</time></trkpt><trkpt lat="38.032636557045734" lon="15.133925735922363"><ele>700.5</ele><time>2026-04-26T08:00:59.951Z</time></trkpt><trkpt lat="38.03261906545641" lon="15.13378301732684"><ele>699.75</ele><time>2026-04-26T08:01:00.951Z</time></trkpt><trkpt lat="38.03260006730908" lon="15.13363767334475"><ele>699.0</ele><time>2026-04-26T08:01:01.951Z</time></trkpt><trkpt lat="38.03258077847244" lon="15.133480535024903"><ele>699.0</ele><time>2026-04-26T08:01:02.951Z</time></trkpt><trkpt lat="38.032550778075844" lon="15.133307295567949"><ele>699.0</ele><time>2026-04-26T08:01:03.951Z</time></trkpt><trkpt lat="38.03253754180197" lon="15.133117016843563"><ele>699.0</ele><time>2026-04-26T08:01:04.951Z</time></trkpt><trkpt lat="38.032520360002856" lon="15.132934348431412"><ele>699.0</ele><time>2026-04-26T08:01:05.951Z</time></trkpt><trkpt lat="38.03249575952531" lon="15.132738082500548"><ele>702.6666666666666</ele><time>2026-04-26T08:01:06.951Z</time></trkpt><trkpt lat="38.032445596826555" lon="15.132530001939541"><ele>706.3333333333333</ele><time>2026-04-26T08:01:07.951Z</time></trkpt><trkpt lat="38.032387412957846" lon="15.132339009234316"><ele>710.0</ele><time>2026-04-26T08:01:08.951Z</time></trkpt><trkpt lat="38.032329331381185" lon="15.132146903009621"><ele>702.0</ele><time>2026-04-26T08:01:09.951Z</time></trkpt><trkpt lat="38.03227427780695" lon="15.131947934066389"><ele>694.0</ele><time>2026-04-26T08:01:10.951Z</time></trkpt><trkpt lat="38.03222618162183" lon="15.131757539950582"><ele>686.0</ele><time>2026-04-26T08:01:11.951Z</time></trkpt><trkpt lat="38.03217614724053" lon="15.131577489087782"><ele>677.5</ele><time>2026-04-26T08:01:12.951Z</time></trkpt><trkpt lat="38.03210312528845" lon="15.131419920737281"><ele>669.0</ele><time>2026-04-26T08:01:13.951Z</time></trkpt><trkpt lat="38.03201215366964" lon="15.131291087259491"><ele>660.5</ele><time>2026-04-26T08:01:14.951Z</time></trkpt><trkpt lat="38.03191399316999" lon="15.131187765893182"><ele>652.0</ele><time>2026-04-26T08:01:15.951Z</time></trkpt><trkpt lat="38.0318091268201" lon="15.13114157439342"><ele>652.0</ele><time>2026-04-26T08:01:16.951Z</time></trkpt><trkpt lat="38.031715421841284" lon="15.131157485038006"><ele>652.0</ele><time>2026-04-26T08:01:17.951Z</time></trkpt><trkpt lat="38.0316074905245" lon="15.131213086252922"><ele>652.0</ele><time>2026-04-26T08:01:18.951Z</time></trkpt><trkpt lat="38.03147246630384" lon="15.131267811148257"><ele>652.0</ele><time>2026-04-26T08:01:19.951Z</time></trkpt><trkpt lat="38.031346487558906" lon="15.13132330723885"><ele>655.25</ele><time>2026-04-26T08:01:20.951Z</time></trkpt><trkpt lat="38.03124148611066" lon="15.131411512106304"><ele>658.5</ele><time>2026-04-26T08:01:21.951Z</time></trkpt><trkpt lat="38.03114525839929" lon="15.131535991935888"><ele>661.75</ele><time>2026-04-26T08:01:22.951Z</time></trkpt><trkpt lat="38.03105982999947" lon="15.1316777087632"><ele>665.0</ele><time>2026-04-26T08:01:23.951Z</time></trkpt><trkpt lat="38.03096209905176" lon="15.13182555855864"><ele>665.0</ele><time>2026-04-26T08:01:24.951Z</time></trkpt><trkpt lat="38.03085158133014" lon="15.131955541584556"><ele>665.0</ele><time>2026-04-26T08:01:25.951Z</time></trkpt><trkpt lat="38.030720509690454" lon="15.132049009357969"><ele>665.0</ele><time>2026-04-26T08:01:26.951Z</time></trkpt><trkpt lat="38.030576642528956" lon="15.132103173516715"><ele>658.0</ele><time>2026-04-26T08:01:27.951Z</time></trkpt><trkpt lat="38.03041111772988" lon="15.132126925145924"><ele>651.0</ele><time>2026-04-26T08:01:28.951Z</time></trkpt><trkpt lat="38.03023772952068" lon="15.132158096558577"><ele>644.0</ele><time>2026-04-26T08:01:29.95Z</time></trkpt><trkpt lat="38.03006123036008" lon="15.13221452138076"><ele>638.3333333333333</ele><time>2026-04-26T08:01:30.95Z</time></trkpt><trkpt lat="38.02988624162567" lon="15.132280932240818"><ele>632.6666666666666</ele><time>2026-04-26T08:01:31.95Z</time></trkpt><trkpt lat="38.02972906129007" lon="15.132337664198873"><ele>627.0</ele><time>2026-04-26T08:01:32.95Z</time></trkpt><trkpt lat="38.029588018086784" lon="15.132397307256836"><ele>635.75</ele><time>2026-04-26T08:01:33.95Z</time></trkpt><trkpt lat="38.02944882216943" lon="15.132467688401292"><ele>644.5</ele><time>2026-04-26T08:01:34.95Z</time></trkpt><trkpt lat="38.02934482597468" lon="15.1325724839047"><ele>653.25</ele><time>2026-04-26T08:01:35.95Z</time></trkpt><trkpt lat="38.02925105088081" lon="15.132634423094016"><ele>662.0</ele><time>2026-04-26T08:01:36.95Z</time></trkpt><trkpt lat="38.02915606688979" lon="15.13264922307684"><ele>662.75</ele><time>2026-04-26T08:01:37.953Z</time></trkpt><trkpt lat="38.02904906466305" lon="15.13261397743938"><ele>663.5</ele><time>2026-04-26T08:01:38.953Z</time></trkpt><trkpt lat="38.02895268248733" lon="15.132484626867273"><ele>664.25</ele><time>2026-04-26T08:01:39.953Z</time></trkpt><trkpt lat="38.02882761396642" lon="15.132356893575345"><ele>665.0</ele><time>2026-04-26T08:01:40.952Z</time></trkpt><trkpt lat="38.0286978327927" lon="15.132239419062921"><ele>658.25</ele><time>2026-04-26T08:01:41.953Z</time></trkpt><trkpt lat="38.02858256696348" lon="15.132129614780679"><ele>651.5</ele><time>2026-04-26T08:01:42.953Z</time></trkpt><trkpt lat="38.02847573098455" lon="15.132050654995473"><ele>644.75</ele><time>2026-04-26T08:01:43.952Z</time></trkpt><trkpt lat="38.028365307152725" lon="15.132036055194682"><ele>638.0</ele><time>2026-04-26T08:01:44.953Z</time></trkpt><trkpt lat="38.028258076907285" lon="15.132073793411468"><ele>635.0</ele><time>2026-04-26T08:01:45.953Z</time></trkpt><trkpt lat="38.02815927517464" lon="15.132156819001924"><ele>632.0</ele><time>2026-04-26T08:01:46.953Z</time></trkpt><trkpt lat="38.0280584208928" lon="15.132239271106672"><ele>629.0</ele><time>2026-04-26T08:01:47.952Z</time></trkpt><trkpt lat="38.0279538361075" lon="15.13228980203999"><ele>626.0</ele><time>2026-04-26T08:01:48.952Z</time></trkpt><trkpt lat="38.02785011539893" lon="15.132265022569698"><ele>626.0</ele><time>2026-04-26T08:01:49.953Z</time></trkpt><trkpt lat="38.02775197489388" lon="15.132192411702079"><ele>626.0</ele><time>2026-04-26T08:01:50.953Z</time></trkpt><trkpt lat="38.02763334800907" lon="15.13213080324671"><ele>626.0</ele><time>2026-04-26T08:01:51.953Z</time></trkpt><trkpt lat="38.02750381722137" lon="15.132119822891832"><ele>626.0</ele><time>2026-04-26T08:01:52.953Z</time></trkpt><trkpt lat="38.0273871605969" lon="15.132136490162504"><ele>624.75</ele><time>2026-04-26T08:01:53.953Z</time></trkpt><trkpt lat="38.02726401543781" lon="15.132194765889032"><ele>623.5</ele><time>2026-04-26T08:01:54.953Z</time></trkpt><trkpt lat="38.02713621837668" lon="15.132267277383693"><ele>622.25</ele><time>2026-04-26T08:01:55.953Z</time></trkpt><trkpt lat="38.02700964987556" lon="15.132327578057817"><ele>621.0</ele><time>2026-04-26T08:01:56.953Z</time></trkpt><trkpt lat="38.02688229525152" lon="15.132372089224612"><ele>621.0</ele><time>2026-04-26T08:01:57.953Z</time></trkpt><trkpt lat="38.02675139909069" lon="15.132359798720097"><ele>621.0</ele><time>2026-04-26T08:01:58.953Z</time></trkpt><trkpt lat="38.02663436802436" lon="15.132317415563652"><ele>621.0</ele><time>2026-04-26T08:01:59.953Z</time></trkpt><trkpt lat="38.02650998798007" lon="15.132281847303908"><ele>621.0</ele><time>2026-04-26T08:02:00.953Z</time></trkpt><trkpt lat="38.02640074801421" lon="15.13220759325519"><ele>618.75</ele><time>2026-04-26T08:02:01.953Z</time></trkpt><trkpt lat="38.02628989587367" lon="15.13215878033982"><ele>616.5</ele><time>2026-04-26T08:02:02.953Z</time></trkpt><trkpt lat="38.02617389407318" lon="15.132141160510992"><ele>614.25</ele><time>2026-04-26T08:02:03.953Z</time></trkpt><trkpt lat="38.026054615315594" lon="15.132159095706692"><ele>612.0</ele><time>2026-04-26T08:02:04.953Z</time></trkpt><trkpt lat="38.025921302596146" lon="15.13220910530505"><ele>614.5</ele><time>2026-04-26T08:02:05.953Z</time></trkpt><trkpt lat="38.025787694082034" lon="15.132254507918327"><ele>617.0</ele><time>2026-04-26T08:02:06.953Z</time></trkpt><trkpt lat="38.025645136124275" lon="15.132298010739333"><ele>619.5</ele><time>2026-04-26T08:02:07.953Z</time></trkpt><trkpt lat="38.02550803555524" lon="15.132341591324739"><ele>622.0</ele><time>2026-04-26T08:02:08.953Z</time></trkpt><trkpt lat="38.025367731074645" lon="15.132401908942386"><ele>622.0</ele><time>2026-04-26T08:02:09.953Z</time></trkpt><trkpt lat="38.02521693117232" lon="15.132458234600898"><ele>622.0</ele><time>2026-04-26T08:02:10.952Z</time></trkpt><trkpt lat="38.02507829842157" lon="15.13253647477083"><ele>622.0</ele><time>2026-04-26T08:02:11.952Z</time></trkpt><trkpt lat="38.02493692857474" lon="15.132617889788472"><ele>612.6666666666667</ele><time>2026-04-26T08:02:12.952Z</time></trkpt><trkpt lat="38.02478988970266" lon="15.132706922757361"><ele>603.3333333333334</ele><time>2026-04-26T08:02:13.952Z</time></trkpt><trkpt lat="38.02464992531755" lon="15.132798724900452"><ele>594.0</ele><time>2026-04-26T08:02:14.952Z</time></trkpt><trkpt lat="38.02451564925114" lon="15.132884471392059"><ele>594.0</ele><time>2026-04-26T08:02:15.952Z</time></trkpt><trkpt lat="38.02438997004503" lon="15.13296659304961"><ele>594.0</ele><time>2026-04-26T08:02:16.952Z</time></trkpt><trkpt lat="38.024291469011835" lon="15.133071617916258"><ele>594.0</ele><time>2026-04-26T08:02:17.952Z</time></trkpt><trkpt lat="38.0242058029924" lon="15.133189991245196"><ele>594.0</ele><time>2026-04-26T08:02:18.952Z</time></trkpt><trkpt lat="38.02412433311903" lon="15.13333403570676"><ele>593.3333333333334</ele><time>2026-04-26T08:02:19.952Z</time></trkpt><trkpt lat="38.02403292529022" lon="15.133473404882068"><ele>592.6666666666667</ele><time>2026-04-26T08:02:20.952Z</time></trkpt><trkpt lat="38.02390539312934" lon="15.133568070537189"><ele>592.0</ele><time>2026-04-26T08:02:21.952Z</time></trkpt><trkpt lat="38.023773852493676" lon="15.1336877603907"><ele>592.0</ele><time>2026-04-26T08:02:22.952Z</time></trkpt><trkpt lat="38.023641403051705" lon="15.133774698105055"><ele>592.0</ele><time>2026-04-26T08:02:23.952Z</time></trkpt><trkpt lat="38.0235251252366" lon="15.133861471253041"><ele>592.0</ele><time>2026-04-26T08:02:24.952Z</time></trkpt><trkpt lat="38.023438603343514" lon="15.133957311349528"><ele>592.0</ele><time>2026-04-26T08:02:25.952Z</time></trkpt><trkpt lat="38.023389111456176" lon="15.134081242778247"><ele>588.5</ele><time>2026-04-26T08:02:26.952Z</time></trkpt><trkpt lat="38.02334846859839" lon="15.134222199353456"><ele>585.0</ele><time>2026-04-26T08:02:27.952Z</time></trkpt><trkpt lat="38.023293364720395" lon="15.13436252132992"><ele>581.5</ele><time>2026-04-26T08:02:28.952Z</time></trkpt><trkpt lat="38.02320678426588" lon="15.13445168098179"><ele>578.0</ele><time>2026-04-26T08:02:29.952Z</time></trkpt><trkpt lat="38.023080222487884" lon="15.13452024304556"><ele>578.0</ele><time>2026-04-26T08:02:30.952Z</time></trkpt><trkpt lat="38.02294631196671" lon="15.134589874428814"><ele>578.0</ele><time>2026-04-26T08:02:31.952Z</time></trkpt><trkpt lat="38.022804615590985" lon="15.134663935657265"><ele>578.0</ele><time>2026-04-26T08:02:32.952Z</time></trkpt><trkpt lat="38.02268689345694" lon="15.134744904666407"><ele>578.0</ele><time>2026-04-26T08:02:33.952Z</time></trkpt><trkpt lat="38.022607931070624" lon="15.134848370676563"><ele>577.0</ele><time>2026-04-26T08:02:34.952Z</time></trkpt><trkpt lat="38.02255432854555" lon="15.134983555012596"><ele>576.0</ele><time>2026-04-26T08:02:35.952Z</time></trkpt><trkpt lat="38.02250293732914" lon="15.135097865820851"><ele>575.0</ele><time>2026-04-26T08:02:36.952Z</time></trkpt><trkpt lat="38.02241741885794" lon="15.135177749804676"><ele>574.0</ele><time>2026-04-26T08:02:37.952Z</time></trkpt><trkpt lat="38.02230691179393" lon="15.135195783029369"><ele>573.0</ele><time>2026-04-26T08:02:38.952Z</time></trkpt><trkpt lat="38.02216529588973" lon="15.135222194111183"><ele>573.0</ele><time>2026-04-26T08:02:39.952Z</time></trkpt><trkpt lat="38.022039460082205" lon="15.135279613630038"><ele>573.0</ele><time>2026-04-26T08:02:40.952Z</time></trkpt><trkpt lat="38.02191016139622" lon="15.135340929520089"><ele>573.0</ele><time>2026-04-26T08:02:41.952Z</time></trkpt><trkpt lat="38.02178935059308" lon="15.135427361504217"><ele>573.0</ele><time>2026-04-26T08:02:42.952Z</time></trkpt><trkpt lat="38.02166934638537" lon="15.135519466681428"><ele>570.5</ele><time>2026-04-26T08:02:43.952Z</time></trkpt><trkpt lat="38.02155586245044" lon="15.13561186623392"><ele>568.0</ele><time>2026-04-26T08:02:44.952Z</time></trkpt><trkpt lat="38.02144462201232" lon="15.135698970298524"><ele>565.5</ele><time>2026-04-26T08:02:45.952Z</time></trkpt><trkpt lat="38.02135294900629" lon="15.135797355702215"><ele>563.0</ele><time>2026-04-26T08:02:46.951Z</time></trkpt><trkpt lat="38.02129519935918" lon="15.135907838550786"><ele>563.0</ele><time>2026-04-26T08:02:47.951Z</time></trkpt><trkpt lat="38.021272201782516" lon="15.13598979157839"><ele>563.0</ele><time>2026-04-26T08:02:48.951Z</time></trkpt><trkpt lat="38.02123341584056" lon="15.13607278927381"><ele>563.0</ele><time>2026-04-26T08:02:50.951Z</time></trkpt><trkpt lat="38.0212189293425" lon="15.136154226943878"><ele>563.0</ele><time>2026-04-26T08:03:03.951Z</time></trkpt><trkpt lat="38.021187700930334" lon="15.136383765840028"><ele>563.0</ele><time>2026-04-26T08:03:05.951Z</time></trkpt><trkpt lat="38.02117047407161" lon="15.136497808957413"><ele>565.8</ele><time>2026-04-26T08:03:06.951Z</time></trkpt><trkpt lat="38.02114913875464" lon="15.136612967785045"><ele>568.5999999999999</ele><time>2026-04-26T08:03:07.951Z</time></trkpt><trkpt lat="38.02111075376084" lon="15.136721515426451"><ele>571.4000000000001</ele><time>2026-04-26T08:03:08.951Z</time></trkpt><trkpt lat="38.02105847324307" lon="15.136809935806763"><ele>574.2</ele><time>2026-04-26T08:03:09.951Z</time></trkpt><trkpt lat="38.02111352698514" lon="15.136980962324662"><ele>577.0</ele><time>2026-04-26T08:03:10.951Z</time></trkpt><trkpt lat="38.02110146872456" lon="15.137095701346388"><ele>577.0</ele><time>2026-04-26T08:03:11.951Z</time></trkpt><trkpt lat="38.02103427354058" lon="15.137163710675388"><ele>577.0</ele><time>2026-04-26T08:03:12.951Z</time></trkpt><trkpt lat="38.02094968119378" lon="15.137235354007137"><ele>577.0</ele><time>2026-04-26T08:03:13.951Z</time></trkpt><trkpt lat="38.020897527762294" lon="15.13735674391507"><ele>577.0</ele><time>2026-04-26T08:03:14.951Z</time></trkpt><trkpt lat="38.020859473042584" lon="15.137501534413776"><ele>577.0</ele><time>2026-04-26T08:03:15.951Z</time></trkpt><trkpt lat="38.02083568748858" lon="15.13764712454943"><ele>579.0</ele><time>2026-04-26T08:03:16.951Z</time></trkpt><trkpt lat="38.02080445044365" lon="15.137778714031237"><ele>581.0</ele><time>2026-04-26T08:03:17.951Z</time></trkpt><trkpt lat="38.0207625336498" lon="15.137893679020753"><ele>583.0</ele><time>2026-04-26T08:03:18.951Z</time></trkpt><trkpt lat="38.02066519340449" lon="15.137959404771856"><ele>585.0</ele><time>2026-04-26T08:03:19.951Z</time></trkpt><trkpt lat="38.02055191737155" lon="15.137976817665045"><ele>587.0</ele><time>2026-04-26T08:03:20.951Z</time></trkpt><trkpt lat="38.02042333053129" lon="15.138031413122524"><ele>587.0</ele><time>2026-04-26T08:03:21.951Z</time></trkpt><trkpt lat="38.02029567464303" lon="15.138050291887211"><ele>587.0</ele><time>2026-04-26T08:03:22.95Z</time></trkpt><trkpt lat="38.020164356222985" lon="15.138034248900892"><ele>587.0</ele><time>2026-04-26T08:03:23.95Z</time></trkpt><trkpt lat="38.02004813811847" lon="15.137946176981808"><ele>587.0</ele><time>2026-04-26T08:03:24.95Z</time></trkpt><trkpt lat="38.01994742072278" lon="15.137847265509238"><ele>589.25</ele><time>2026-04-26T08:03:25.95Z</time></trkpt><trkpt lat="38.019882045075875" lon="15.137708095928563"><ele>591.5</ele><time>2026-04-26T08:03:26.95Z</time></trkpt><trkpt lat="38.01986289511706" lon="15.137551441357463"><ele>593.75</ele><time>2026-04-26T08:03:27.95Z</time></trkpt><trkpt lat="38.019832337997826" lon="15.137386684088781"><ele>596.0</ele><time>2026-04-26T08:03:28.95Z</time></trkpt><trkpt lat="38.01977026523206" lon="15.137250477058009"><ele>591.5</ele><time>2026-04-26T08:03:29.95Z</time></trkpt><trkpt lat="38.019676696068196" lon="15.137131444594264"><ele>587.0</ele><time>2026-04-26T08:03:30.95Z</time></trkpt><trkpt lat="38.01954667305934" lon="15.137040406429294"><ele>582.5</ele><time>2026-04-26T08:03:31.95Z</time></trkpt><trkpt lat="38.01939965436971" lon="15.136973865027704"><ele>578.0</ele><time>2026-04-26T08:03:32.95Z</time></trkpt><trkpt lat="38.01924252262087" lon="15.136912589208622"><ele>578.6666666666666</ele><time>2026-04-26T08:03:33.95Z</time></trkpt><trkpt lat="38.01908854113039" lon="15.136848030626847"><ele>579.3333333333334</ele><time>2026-04-26T08:03:34.95Z</time></trkpt><trkpt lat="38.01893722268168" lon="15.136790439577968"><ele>580.0</ele><time>2026-04-26T08:03:35.95Z</time></trkpt><trkpt lat="38.01878853770046" lon="15.136737637180186"><ele>580.0</ele><time>2026-04-26T08:03:36.95Z</time></trkpt><trkpt lat="38.01863869642649" lon="15.136699683378664"><ele>580.0</ele><time>2026-04-26T08:03:37.95Z</time></trkpt><trkpt lat="38.01850202759978" lon="15.136680317897298"><ele>580.0</ele><time>2026-04-26T08:03:38.95Z</time></trkpt><trkpt lat="38.018369595964415" lon="15.136684610563423"><ele>580.0</ele><time>2026-04-26T08:03:39.95Z</time></trkpt><trkpt lat="38.01824132391131" lon="15.136708581684818"><ele>578.5</ele><time>2026-04-26T08:03:40.95Z</time></trkpt><trkpt lat="38.01812662436875" lon="15.136757593461034"><ele>577.0</ele><time>2026-04-26T08:03:41.95Z</time></trkpt><trkpt lat="38.01801737927773" lon="15.136829287105703"><ele>575.5</ele><time>2026-04-26T08:03:42.95Z</time></trkpt><trkpt lat="38.01791114703215" lon="15.136907907447998"><ele>574.0</ele><time>2026-04-26T08:03:43.952Z</time></trkpt><trkpt lat="38.017813016270146" lon="15.137003347947804"><ele>574.0</ele><time>2026-04-26T08:03:44.952Z</time></trkpt><trkpt lat="38.017705676403935" lon="15.137099782423912"><ele>574.0</ele><time>2026-04-26T08:03:45.952Z</time></trkpt><trkpt lat="38.01759125522932" lon="15.13718502458622"><ele>574.0</ele><time>2026-04-26T08:03:46.952Z</time></trkpt><trkpt lat="38.01746233560527" lon="15.137234976227425"><ele>574.0</ele><time>2026-04-26T08:03:47.952Z</time></trkpt><trkpt lat="38.017325235432516" lon="15.13724924426338"><ele>574.25</ele><time>2026-04-26T08:03:48.952Z</time></trkpt><trkpt lat="38.017192097537254" lon="15.137228736742744"><ele>574.5</ele><time>2026-04-26T08:03:49.952Z</time></trkpt><trkpt lat="38.01707483507009" lon="15.137186307210996"><ele>574.75</ele><time>2026-04-26T08:03:50.952Z</time></trkpt><trkpt lat="38.01696988721539" lon="15.137120520751411"><ele>575.0</ele><time>2026-04-26T08:03:51.952Z</time></trkpt><trkpt lat="38.01687540271312" lon="15.13705422383326"><ele>575.0</ele><time>2026-04-26T08:03:52.953Z</time></trkpt><trkpt lat="38.0167794646731" lon="15.1369923328335"><ele>575.0</ele><time>2026-04-26T08:03:53.952Z</time></trkpt><trkpt lat="38.01667535638423" lon="15.136957783915793"><ele>575.0</ele><time>2026-04-26T08:03:54.952Z</time></trkpt><trkpt lat="38.01654964356352" lon="15.136974536868054"><ele>575.0</ele><time>2026-04-26T08:03:55.952Z</time></trkpt><trkpt lat="38.016423177811895" lon="15.13702044126511"><ele>576.4</ele><time>2026-04-26T08:03:56.953Z</time></trkpt><trkpt lat="38.01629151114892" lon="15.137064569741032"><ele>577.8</ele><time>2026-04-26T08:03:57.952Z</time></trkpt><trkpt lat="38.01617827685518" lon="15.137096769658632"><ele>579.2</ele><time>2026-04-26T08:03:58.952Z</time></trkpt><trkpt lat="38.01608658253273" lon="15.137064881523107"><ele>580.6</ele><time>2026-04-26T08:03:59.952Z</time></trkpt><trkpt lat="38.016027438910115" lon="15.136998262550422"><ele>582.0</ele><time>2026-04-26T08:04:00.952Z</time></trkpt><trkpt lat="38.01600899935628" lon="15.136890519046494"><ele>582.0</ele><time>2026-04-26T08:04:01.952Z</time></trkpt><trkpt lat="38.01597192237836" lon="15.136752619414278"><ele>582.0</ele><time>2026-04-26T08:04:02.952Z</time></trkpt><trkpt lat="38.015918810747486" lon="15.136632496144864"><ele>582.0</ele><time>2026-04-26T08:04:03.952Z</time></trkpt><trkpt lat="38.015880528121095" lon="15.136500307428557"><ele>582.0</ele><time>2026-04-26T08:04:04.952Z</time></trkpt><trkpt lat="38.01583807037263" lon="15.136385329089471"><ele>582.0</ele><time>2026-04-26T08:04:05.952Z</time></trkpt><trkpt lat="38.0157792245697" lon="15.136297381865466"><ele>581.2</ele><time>2026-04-26T08:04:06.952Z</time></trkpt><trkpt lat="38.015696356563524" lon="15.136240250000194"><ele>580.4000000000001</ele><time>2026-04-26T08:04:07.952Z</time></trkpt><trkpt lat="38.015601766062204" lon="15.136233690743612"><ele>579.5999999999999</ele><time>2026-04-26T08:04:08.952Z</time></trkpt><trkpt lat="38.01549083336302" lon="15.136294466615738"><ele>578.8</ele><time>2026-04-26T08:04:09.952Z</time></trkpt><trkpt lat="38.01536855490762" lon="15.136372861328034"><ele>578.0</ele><time>2026-04-26T08:04:10.952Z</time></trkpt><trkpt lat="38.01524158483271" lon="15.136425093976106"><ele>578.0</ele><time>2026-04-26T08:04:11.952Z</time></trkpt><trkpt lat="38.01510773264596" lon="15.136471687716641"><ele>578.0</ele><time>2026-04-26T08:04:12.952Z</time></trkpt><trkpt lat="38.0149807474653" lon="15.136528824645263"><ele>578.0</ele><time>2026-04-26T08:04:13.952Z</time></trkpt><trkpt lat="38.01486116906367" lon="15.136558267294753"><ele>578.0</ele><time>2026-04-26T08:04:14.952Z</time></trkpt><trkpt lat="38.01476465908723" lon="15.136533247721658"><ele>581.6</ele><time>2026-04-26T08:04:15.952Z</time></trkpt><trkpt lat="38.0146933668958" lon="15.136486435777094"><ele>585.1999999999999</ele><time>2026-04-26T08:04:16.952Z</time></trkpt><trkpt lat="38.01465340334124" lon="15.136383536000087"><ele>588.8</ele><time>2026-04-26T08:04:17.952Z</time></trkpt><trkpt lat="38.014638392657595" lon="15.136259606570372"><ele>592.4</ele><time>2026-04-26T08:04:18.952Z</time></trkpt><trkpt lat="38.01459720366873" lon="15.136114117141553"><ele>596.0</ele><time>2026-04-26T08:04:19.952Z</time></trkpt><trkpt lat="38.01455596342645" lon="15.13595734071226"><ele>596.0</ele><time>2026-04-26T08:04:20.952Z</time></trkpt><trkpt lat="38.014518175897244" lon="15.135800618963385"><ele>596.0</ele><time>2026-04-26T08:04:21.952Z</time></trkpt><trkpt lat="38.01454822980009" lon="15.135646626414559"><ele>596.0</ele><time>2026-04-26T08:04:22.952Z</time></trkpt><trkpt lat="38.01455897212352" lon="15.135493488972315"><ele>596.0</ele><time>2026-04-26T08:04:23.952Z</time></trkpt><trkpt lat="38.01456356153733" lon="15.135323947302618"><ele>598.5</ele><time>2026-04-26T08:04:24.952Z</time></trkpt><trkpt lat="38.01456638159139" lon="15.135166981993143"><ele>601.0</ele><time>2026-04-26T08:04:25.952Z</time></trkpt><trkpt lat="38.01457156579015" lon="15.135019053026449"><ele>603.5</ele><time>2026-04-26T08:04:26.952Z</time></trkpt><trkpt lat="38.01457793239362" lon="15.134870789274938"><ele>606.0</ele><time>2026-04-26T08:04:27.952Z</time></trkpt><trkpt lat="38.01465100223911" lon="15.134759091120026"><ele>608.25</ele><time>2026-04-26T08:04:28.952Z</time></trkpt><trkpt lat="38.014758995673446" lon="15.134661354276007"><ele>610.5</ele><time>2026-04-26T08:04:29.952Z</time></trkpt><trkpt lat="38.01487080477909" lon="15.134541478315802"><ele>612.75</ele><time>2026-04-26T08:04:30.952Z</time></trkpt><trkpt lat="38.01498267583949" lon="15.13444041389841"><ele>615.0</ele><time>2026-04-26T08:04:31.952Z</time></trkpt><trkpt lat="38.01507831118497" lon="15.13434537541728"><ele>615.25</ele><time>2026-04-26T08:04:32.952Z</time></trkpt><trkpt lat="38.015160824721654" lon="15.134259665904626"><ele>615.5</ele><time>2026-04-26T08:04:33.951Z</time></trkpt><trkpt lat="38.015239115467" lon="15.13415552691942"><ele>615.75</ele><time>2026-04-26T08:04:34.951Z</time></trkpt><trkpt lat="38.015313754463385" lon="15.134036860798892"><ele>616.0</ele><time>2026-04-26T08:04:35.951Z</time></trkpt><trkpt lat="38.01538545512743" lon="15.133897843141531"><ele>616.0</ele><time>2026-04-26T08:04:36.951Z</time></trkpt><trkpt lat="38.01545286274686" lon="15.133750821256829"><ele>616.0</ele><time>2026-04-26T08:04:37.951Z</time></trkpt><trkpt lat="38.01552946716488" lon="15.133593541522657"><ele>616.0</ele><time>2026-04-26T08:04:38.951Z</time></trkpt><trkpt lat="38.015622022616505" lon="15.133451944501555"><ele>616.0</ele><time>2026-04-26T08:04:39.951Z</time></trkpt><trkpt lat="38.01569595585744" lon="15.133303103978424"><ele>614.2</ele><time>2026-04-26T08:04:40.951Z</time></trkpt><trkpt lat="38.01575548498843" lon="15.133177290183154"><ele>612.4000000000001</ele><time>2026-04-26T08:04:41.951Z</time></trkpt><trkpt lat="38.01580498769753" lon="15.133069295301144"><ele>610.6</ele><time>2026-04-26T08:04:42.951Z</time></trkpt><trkpt lat="38.015848781219624" lon="15.132959000361858"><ele>608.8000000000001</ele><time>2026-04-26T08:04:43.951Z</time></trkpt><trkpt lat="38.015882140759565" lon="15.132840316353711"><ele>607.0</ele><time>2026-04-26T08:04:44.951Z</time></trkpt><trkpt lat="38.01593858339377" lon="15.132714336363327"><ele>607.0</ele><time>2026-04-26T08:04:45.951Z</time></trkpt><trkpt lat="38.01597520996239" lon="15.132575386030863"><ele>607.0</ele><time>2026-04-26T08:04:46.951Z</time></trkpt><trkpt lat="38.01602538923498" lon="15.132424070146815"><ele>607.0</ele><time>2026-04-26T08:04:47.951Z</time></trkpt><trkpt lat="38.01606773705641" lon="15.13228579785491"><ele>607.0</ele><time>2026-04-26T08:04:48.951Z</time></trkpt><trkpt lat="38.016083722420014" lon="15.132151975797752"><ele>607.1666666666667</ele><time>2026-04-26T08:04:49.951Z</time></trkpt><trkpt lat="38.01609571546842" lon="15.132041002146119"><ele>607.3333333333334</ele><time>2026-04-26T08:04:50.951Z</time></trkpt><trkpt lat="38.016093099974555" lon="15.131934483829822"><ele>607.5</ele><time>2026-04-26T08:04:51.951Z</time></trkpt><trkpt lat="38.01607902743416" lon="15.131829362860323"><ele>607.6666666666666</ele><time>2026-04-26T08:04:52.951Z</time></trkpt><trkpt lat="38.01607111825619" lon="15.131717669241437"><ele>607.8333333333333</ele><time>2026-04-26T08:04:53.951Z</time></trkpt><trkpt lat="38.01605548559326" lon="15.131622723777973"><ele>608.0</ele><time>2026-04-26T08:04:54.951Z</time></trkpt><trkpt lat="38.01603836824983" lon="15.131537587434934"><ele>608.0</ele><time>2026-04-26T08:04:55.951Z</time></trkpt><trkpt lat="38.01600234471814" lon="15.13146632381069"><ele>608.0</ele><time>2026-04-26T08:04:56.951Z</time></trkpt><trkpt lat="38.01592669362737" lon="15.131420127817258"><ele>608.0</ele><time>2026-04-26T08:04:57.951Z</time></trkpt><trkpt lat="38.01585416733852" lon="15.131360640936553"><ele>608.0</ele><time>2026-04-26T08:04:58.951Z</time></trkpt><trkpt lat="38.015777915231425" lon="15.13130895923242"><ele>608.0</ele><time>2026-04-26T08:04:59.951Z</time></trkpt><trkpt lat="38.015715927987024" lon="15.131282804031748"><ele>608.0</ele><time>2026-04-26T08:05:00.951Z</time></trkpt><trkpt lat="38.015633384428554" lon="15.131277399072038"><ele>610.3333333333333</ele><time>2026-04-26T08:05:01.951Z</time></trkpt><trkpt lat="38.01555728942001" lon="15.131280386934055"><ele>612.6666666666666</ele><time>2026-04-26T08:05:02.951Z</time></trkpt><trkpt lat="38.015467169940415" lon="15.131337962057485"><ele>615.0</ele><time>2026-04-26T08:05:03.951Z</time></trkpt><trkpt lat="38.01539425055258" lon="15.131345537807182"><ele>617.3333333333334</ele><time>2026-04-26T08:05:04.951Z</time></trkpt><trkpt lat="38.01532869717974" lon="15.13136894511667"><ele>619.6666666666667</ele><time>2026-04-26T08:05:05.951Z</time></trkpt><trkpt lat="38.01525894081061" lon="15.131328988174886"><ele>622.0</ele><time>2026-04-26T08:05:06.951Z</time></trkpt><trkpt lat="38.01515484617346" lon="15.131227902430778"><ele>622.0</ele><time>2026-04-26T08:05:08.95Z</time></trkpt><trkpt lat="38.0151059505562" lon="15.131162504993386"><ele>622.0</ele><time>2026-04-26T08:05:09.95Z</time></trkpt><trkpt lat="38.01504076497019" lon="15.131107500423145"><ele>622.0</ele><time>2026-04-26T08:05:10.95Z</time></trkpt><trkpt lat="38.0149793236507" lon="15.13105616755895"><ele>622.0</ele><time>2026-04-26T08:05:11.95Z</time></trkpt><trkpt lat="38.014914194441985" lon="15.130976909671826"><ele>622.0</ele><time>2026-04-26T08:05:13.95Z</time></trkpt><trkpt lat="38.01488906337481" lon="15.130900626719795"><ele>622.0</ele><time>2026-04-26T08:05:16.95Z</time></trkpt><trkpt lat="38.01494038382992" lon="15.130843534123953"><ele>622.0</ele><time>2026-04-26T08:05:18.95Z</time></trkpt><trkpt lat="38.01497070532087" lon="15.130760763670377"><ele>621.7142857142857</ele><time>2026-04-26T08:05:22.95Z</time></trkpt><trkpt lat="38.01501473063435" lon="15.130695763159137"><ele>621.4285714285714</ele><time>2026-04-26T08:06:31.951Z</time></trkpt><trkpt lat="38.01504687695641" lon="15.13062367194933"><ele>621.1428571428571</ele><time>2026-04-26T08:07:13.95Z</time></trkpt><trkpt lat="38.01507519987286" lon="15.130549978701548"><ele>620.8571428571429</ele><time>2026-04-26T08:07:27.95Z</time></trkpt><trkpt lat="38.01500663947866" lon="15.130572337532172"><ele>620.5714285714286</ele><time>2026-04-26T08:11:53.948Z</time></trkpt><trkpt lat="38.015071654251805" lon="15.130582753590435"><ele>620.2857142857143</ele><time>2026-04-26T08:16:53.946Z</time></trkpt><trkpt lat="38.01501130637289" lon="15.130541254823925"><ele>620.0</ele><time>2026-04-26T08:17:13.946Z</time></trkpt><trkpt lat="38.01506594615237" lon="15.130608375036196"><ele>620.0</ele><time>2026-04-26T08:17:46.945Z</time></trkpt><trkpt lat="38.01503522696156" lon="15.130534365471183"><ele>620.0</ele><time>2026-04-26T08:18:19.947Z</time></trkpt><trkpt lat="38.014993984649486" lon="15.130444850511275"><ele>620.0</ele><time>2026-04-26T08:20:30.945Z</time></trkpt><trkpt lat="38.01499237179603" lon="15.130535502700367"><ele>620.0</ele><time>2026-04-26T08:20:47.945Z</time></trkpt><trkpt lat="38.01498614019055" lon="15.130624661215403"><ele>620.0</ele><time>2026-04-26T08:22:07.943Z</time></trkpt><trkpt lat="38.01502883006568" lon="15.13069186931517"><ele>620.0</ele><time>2026-04-26T08:22:30.944Z</time></trkpt><trkpt lat="38.01496432631367" lon="15.130793984884834"><ele>620.3333333333333</ele><time>2026-04-26T08:24:15.941Z</time></trkpt><trkpt lat="38.014906147332155" lon="15.130881820547836"><ele>620.6666666666666</ele><time>2026-04-26T08:24:17.941Z</time></trkpt><trkpt lat="38.01489030869933" lon="15.130969826647874"><ele>621.0</ele><time>2026-04-26T08:24:19.941Z</time></trkpt><trkpt lat="38.014937637178015" lon="15.131032510186085"><ele>621.3333333333334</ele><time>2026-04-26T08:24:21.941Z</time></trkpt><trkpt lat="38.015008817049434" lon="15.131091770130963"><ele>621.6666666666667</ele><time>2026-04-26T08:24:23.941Z</time></trkpt><trkpt lat="38.015073921660154" lon="15.13115907312786"><ele>622.0</ele><time>2026-04-26T08:24:25.941Z</time></trkpt><trkpt lat="38.015148490341225" lon="15.131227914336332"><ele>622.0</ele><time>2026-04-26T08:24:27.941Z</time></trkpt><trkpt lat="38.015211608044055" lon="15.131296853254208"><ele>622.0</ele><time>2026-04-26T08:24:29.941Z</time></trkpt><trkpt lat="38.01529393640182" lon="15.131349587295153"><ele>622.0</ele><time>2026-04-26T08:24:31.94Z</time></trkpt><trkpt lat="38.01540046767778" lon="15.131373050465712"><ele>622.0</ele><time>2026-04-26T08:24:33.941Z</time></trkpt><trkpt lat="38.01551676574831" lon="15.131342036393388"><ele>622.0</ele><time>2026-04-26T08:24:35.942Z</time></trkpt><trkpt lat="38.0156354778204" lon="15.131312620578209"><ele>622.0</ele><time>2026-04-26T08:24:37.941Z</time></trkpt><trkpt lat="38.01570243296025" lon="15.131307906068479"><ele>622.0</ele><time>2026-04-26T08:24:38.941Z</time></trkpt><trkpt lat="38.01576465418536" lon="15.131347437495137"><ele>622.0</ele><time>2026-04-26T08:24:39.942Z</time></trkpt><trkpt lat="38.015839596521985" lon="15.131419724081871"><ele>622.0</ele><time>2026-04-26T08:24:41.941Z</time></trkpt><trkpt lat="38.01591159085645" lon="15.131459644018504"><ele>622.0</ele><time>2026-04-26T08:24:43.941Z</time></trkpt><trkpt lat="38.01598053006103" lon="15.131533448475468"><ele>622.0</ele><time>2026-04-26T08:24:45.941Z</time></trkpt><trkpt lat="38.01603369071413" lon="15.13166210767301"><ele>619.0</ele><time>2026-04-26T08:24:47.941Z</time></trkpt><trkpt lat="38.0160247120178" lon="15.13181362880213"><ele>616.0</ele><time>2026-04-26T08:24:49.941Z</time></trkpt><trkpt lat="38.01603893513138" lon="15.131952133457139"><ele>613.0</ele><time>2026-04-26T08:24:51.941Z</time></trkpt><trkpt lat="38.0160268341916" lon="15.132085481592924"><ele>610.0</ele><time>2026-04-26T08:24:53.941Z</time></trkpt><trkpt lat="38.01603181232605" lon="15.13225991132226"><ele>610.0</ele><time>2026-04-26T08:24:55.941Z</time></trkpt><trkpt lat="38.01600614576171" lon="15.13237436725672"><ele>610.0</ele><time>2026-04-26T08:24:56.941Z</time></trkpt><trkpt lat="38.015964511493486" lon="15.132504314027063"><ele>610.0</ele><time>2026-04-26T08:24:57.941Z</time></trkpt><trkpt lat="38.01592827653722" lon="15.13262105049999"><ele>610.0</ele><time>2026-04-26T08:24:58.941Z</time></trkpt><trkpt lat="38.01589759859369" lon="15.13273982119026"><ele>610.0</ele><time>2026-04-26T08:24:59.941Z</time></trkpt><trkpt lat="38.015868164101306" lon="15.132848261201236"><ele>611.2</ele><time>2026-04-26T08:25:00.941Z</time></trkpt><trkpt lat="38.01581725489842" lon="15.132959341420875"><ele>612.4</ele><time>2026-04-26T08:25:01.941Z</time></trkpt><trkpt lat="38.01577207700113" lon="15.133078473260381"><ele>613.6</ele><time>2026-04-26T08:25:02.941Z</time></trkpt><trkpt lat="38.015710779749256" lon="15.13319770264444"><ele>614.8</ele><time>2026-04-26T08:25:03.941Z</time></trkpt><trkpt lat="38.01565317101679" lon="15.133312276020826"><ele>616.0</ele><time>2026-04-26T08:25:04.941Z</time></trkpt><trkpt lat="38.01560020001757" lon="15.133398856226968"><ele>616.0</ele><time>2026-04-26T08:25:05.941Z</time></trkpt><trkpt lat="38.01554057232049" lon="15.133507718762617"><ele>616.0</ele><time>2026-04-26T08:25:07.941Z</time></trkpt><trkpt lat="38.015484669515175" lon="15.133621548321758"><ele>616.0</ele><time>2026-04-26T08:25:09.941Z</time></trkpt><trkpt lat="38.01543320710753" lon="15.133727982855213"><ele>616.0</ele><time>2026-04-26T08:25:11.941Z</time></trkpt><trkpt lat="38.01538175474301" lon="15.133828087519555"><ele>616.0</ele><time>2026-04-26T08:25:13.94Z</time></trkpt><trkpt lat="38.015329088435884" lon="15.133941733139487"><ele>615.8</ele><time>2026-04-26T08:25:15.94Z</time></trkpt><trkpt lat="38.01526575383574" lon="15.134066107579036"><ele>615.6</ele><time>2026-04-26T08:25:17.94Z</time></trkpt><trkpt lat="38.01521448395542" lon="15.13417247280878"><ele>615.4</ele><time>2026-04-26T08:25:19.94Z</time></trkpt><trkpt lat="38.015148605410786" lon="15.134245002253726"><ele>615.2</ele><time>2026-04-26T08:25:21.94Z</time></trkpt><trkpt lat="38.01507362996017" lon="15.13432943230914"><ele>615.0</ele><time>2026-04-26T08:25:23.94Z</time></trkpt><trkpt lat="38.0149804533407" lon="15.134394721818698"><ele>615.0</ele><time>2026-04-26T08:25:25.94Z</time></trkpt><trkpt lat="38.01491417636719" lon="15.134483587146079"><ele>615.0</ele><time>2026-04-26T08:25:27.94Z</time></trkpt><trkpt lat="38.0148315386674" lon="15.134537904895115"><ele>615.0</ele><time>2026-04-26T08:25:29.94Z</time></trkpt><trkpt lat="38.014763622494925" lon="15.134624356582185"><ele>615.0</ele><time>2026-04-26T08:25:31.94Z</time></trkpt><trkpt lat="38.0146961896426" lon="15.134694866042679"><ele>615.0</ele><time>2026-04-26T08:25:33.94Z</time></trkpt><trkpt lat="38.01462058476246" lon="15.134774830596164"><ele>615.0</ele><time>2026-04-26T08:25:35.94Z</time></trkpt><trkpt lat="38.01455989594916" lon="15.134869516975701"><ele>615.0</ele><time>2026-04-26T08:25:37.94Z</time></trkpt><trkpt lat="38.01454628227062" lon="15.13495869460562"><ele>615.0</ele><time>2026-04-26T08:25:38.94Z</time></trkpt><trkpt lat="38.01453738500466" lon="15.135071866420066"><ele>615.0</ele><time>2026-04-26T08:25:39.94Z</time></trkpt><trkpt lat="38.0145259083474" lon="15.135186425775876"><ele>615.0</ele><time>2026-04-26T08:25:40.94Z</time></trkpt><trkpt lat="38.01451940000234" lon="15.135298947530888"><ele>615.0</ele><time>2026-04-26T08:25:41.94Z</time></trkpt><trkpt lat="38.01451472637927" lon="15.135417834507185"><ele>613.5</ele><time>2026-04-26T08:25:42.94Z</time></trkpt><trkpt lat="38.01451402274382" lon="15.13553740226654"><ele>612.0</ele><time>2026-04-26T08:25:43.94Z</time></trkpt><trkpt lat="38.01451056768995" lon="15.135652149907264"><ele>610.5</ele><time>2026-04-26T08:25:44.94Z</time></trkpt><trkpt lat="38.01451090867285" lon="15.135757006510959"><ele>609.0</ele><time>2026-04-26T08:25:45.94Z</time></trkpt><trkpt lat="38.01452446156962" lon="15.135865436495086"><ele>607.5</ele><time>2026-04-26T08:25:46.94Z</time></trkpt><trkpt lat="38.01454270158821" lon="15.135972488938393"><ele>606.0</ele><time>2026-04-26T08:25:47.94Z</time></trkpt><trkpt lat="38.01457366477513" lon="15.136076418083912"><ele>604.3333333333334</ele><time>2026-04-26T08:25:48.939Z</time></trkpt><trkpt lat="38.01461383397183" lon="15.136180110381408"><ele>602.6666666666666</ele><time>2026-04-26T08:25:49.939Z</time></trkpt><trkpt lat="38.0146535216494" lon="15.136292683611698"><ele>601.0</ele><time>2026-04-26T08:25:50.939Z</time></trkpt><trkpt lat="38.01469156059227" lon="15.1363917197432"><ele>599.3333333333333</ele><time>2026-04-26T08:25:51.939Z</time></trkpt><trkpt lat="38.01473552579151" lon="15.136477277717152"><ele>597.6666666666666</ele><time>2026-04-26T08:25:52.939Z</time></trkpt><trkpt lat="38.014775038803855" lon="15.136561331963431"><ele>596.0</ele><time>2026-04-26T08:25:53.939Z</time></trkpt><trkpt lat="38.01485571935127" lon="15.136571420964989"><ele>595.0</ele><time>2026-04-26T08:25:54.939Z</time></trkpt><trkpt lat="38.01492353674041" lon="15.136582315370761"><ele>594.0</ele><time>2026-04-26T08:25:55.939Z</time></trkpt><trkpt lat="38.01499985527656" lon="15.136534921839514"><ele>593.0</ele><time>2026-04-26T08:25:56.939Z</time></trkpt><trkpt lat="38.01508025101637" lon="15.13650767014431"><ele>592.0</ele><time>2026-04-26T08:25:57.939Z</time></trkpt><trkpt lat="38.01517478575393" lon="15.136500420415532"><ele>591.0</ele><time>2026-04-26T08:25:58.939Z</time></trkpt><trkpt lat="38.01526638538661" lon="15.136479023573708"><ele>590.0</ele><time>2026-04-26T08:25:59.939Z</time></trkpt><trkpt lat="38.01535195688341" lon="15.136451287164677"><ele>588.0</ele><time>2026-04-26T08:26:00.939Z</time></trkpt><trkpt lat="38.01543878160157" lon="15.136424238136705"><ele>586.0</ele><time>2026-04-26T08:26:01.939Z</time></trkpt><trkpt lat="38.015526794380214" lon="15.136393165826423"><ele>584.0</ele><time>2026-04-26T08:26:02.939Z</time></trkpt><trkpt lat="38.01560724841411" lon="15.136358701554355"><ele>582.0</ele><time>2026-04-26T08:26:03.939Z</time></trkpt><trkpt lat="38.015679583566104" lon="15.136340873024869"><ele>580.0</ele><time>2026-04-26T08:26:04.939Z</time></trkpt><trkpt lat="38.01575435094699" lon="15.136352526208325"><ele>578.0</ele><time>2026-04-26T08:26:05.939Z</time></trkpt><trkpt lat="38.015807691877924" lon="15.136395716544506"><ele>578.6666666666666</ele><time>2026-04-26T08:26:06.939Z</time></trkpt><trkpt lat="38.0158416169565" lon="15.136464654807885"><ele>579.3333333333333</ele><time>2026-04-26T08:26:07.939Z</time></trkpt><trkpt lat="38.01587188291046" lon="15.136554613485089"><ele>580.0</ele><time>2026-04-26T08:26:08.939Z</time></trkpt><trkpt lat="38.01590644921445" lon="15.136662595590227"><ele>580.6666666666666</ele><time>2026-04-26T08:26:09.939Z</time></trkpt><trkpt lat="38.01594303185252" lon="15.136774547256296"><ele>581.3333333333334</ele><time>2026-04-26T08:26:10.939Z</time></trkpt><trkpt lat="38.015975687876846" lon="15.13687412990703"><ele>582.0</ele><time>2026-04-26T08:26:11.939Z</time></trkpt><trkpt lat="38.016007676622834" lon="15.136978237620845"><ele>582.0</ele><time>2026-04-26T08:26:12.939Z</time></trkpt><trkpt lat="38.01605365396896" lon="15.13707276236838"><ele>582.0</ele><time>2026-04-26T08:26:13.939Z</time></trkpt><trkpt lat="38.01611906457579" lon="15.137142791085807"><ele>582.0</ele><time>2026-04-26T08:26:14.939Z</time></trkpt><trkpt lat="38.01619291105599" lon="15.137181620555348"><ele>582.0</ele><time>2026-04-26T08:26:15.939Z</time></trkpt><trkpt lat="38.01628147480619" lon="15.137133079731534"><ele>582.0</ele><time>2026-04-26T08:26:16.939Z</time></trkpt><trkpt lat="38.01634723278637" lon="15.137098394623106"><ele>582.0</ele><time>2026-04-26T08:26:17.939Z</time></trkpt><trkpt lat="38.016411517943666" lon="15.137066902694475"><ele>582.0</ele><time>2026-04-26T08:26:18.939Z</time></trkpt><trkpt lat="38.016480383613924" lon="15.137036999169425"><ele>582.0</ele><time>2026-04-26T08:26:19.939Z</time></trkpt><trkpt lat="38.016564280559415" lon="15.137013174266404"><ele>582.0</ele><time>2026-04-26T08:26:20.939Z</time></trkpt><trkpt lat="38.01665466199848" lon="15.137015736900498"><ele>582.0</ele><time>2026-04-26T08:26:21.939Z</time></trkpt><trkpt lat="38.016745515374176" lon="15.137026110773412"><ele>582.0</ele><time>2026-04-26T08:26:22.939Z</time></trkpt><trkpt lat="38.01682200348904" lon="15.137069967043908"><ele>582.0</ele><time>2026-04-26T08:26:23.939Z</time></trkpt><trkpt lat="38.01690121210039" lon="15.137126740507451"><ele>580.6</ele><time>2026-04-26T08:26:24.938Z</time></trkpt><trkpt lat="38.01699147355219" lon="15.137186113950394"><ele>579.2</ele><time>2026-04-26T08:26:25.938Z</time></trkpt><trkpt lat="38.01708185470552" lon="15.13723847972598"><ele>577.8</ele><time>2026-04-26T08:26:26.938Z</time></trkpt><trkpt lat="38.01717412895652" lon="15.137275542569174"><ele>576.4</ele><time>2026-04-26T08:26:27.938Z</time></trkpt><trkpt lat="38.01729166436082" lon="15.137267430146895"><ele>575.0</ele><time>2026-04-26T08:26:28.938Z</time></trkpt><trkpt lat="38.01742080313052" lon="15.137250701430212"><ele>574.75</ele><time>2026-04-26T08:26:29.938Z</time></trkpt><trkpt lat="38.01754638451197" lon="15.137237346212572"><ele>574.5</ele><time>2026-04-26T08:26:30.938Z</time></trkpt><trkpt lat="38.01765495806795" lon="15.13717761353831"><ele>574.25</ele><time>2026-04-26T08:26:31.938Z</time></trkpt><trkpt lat="38.01776439236327" lon="15.137084208751332"><ele>574.0</ele><time>2026-04-26T08:26:32.938Z</time></trkpt><trkpt lat="38.017874488619675" lon="15.136975097268722"><ele>574.0</ele><time>2026-04-26T08:26:33.938Z</time></trkpt><trkpt lat="38.01798613552732" lon="15.136889713685393"><ele>574.0</ele><time>2026-04-26T08:26:34.938Z</time></trkpt><trkpt lat="38.018092014209145" lon="15.13682502640701"><ele>574.0</ele><time>2026-04-26T08:26:35.938Z</time></trkpt><trkpt lat="38.018200676789434" lon="15.13675600618496"><ele>574.0</ele><time>2026-04-26T08:26:36.938Z</time></trkpt><trkpt lat="38.018322538294754" lon="15.136724181973051"><ele>575.5</ele><time>2026-04-26T08:26:37.938Z</time></trkpt><trkpt lat="38.018443796618584" lon="15.136727548845428"><ele>577.0</ele><time>2026-04-26T08:26:38.939Z</time></trkpt><trkpt lat="38.018566883160005" lon="15.136733891438915"><ele>578.5</ele><time>2026-04-26T08:26:39.938Z</time></trkpt><trkpt lat="38.01869850465374" lon="15.136737355662918"><ele>580.0</ele><time>2026-04-26T08:26:40.938Z</time></trkpt><trkpt lat="38.01881894661899" lon="15.136795149920728"><ele>580.0</ele><time>2026-04-26T08:26:41.938Z</time></trkpt><trkpt lat="38.01894246240177" lon="15.136850181019472"><ele>580.0</ele><time>2026-04-26T08:26:42.939Z</time></trkpt><trkpt lat="38.01906570338599" lon="15.136897777473692"><ele>580.0</ele><time>2026-04-26T08:26:43.939Z</time></trkpt><trkpt lat="38.01919229285843" lon="15.13694499856728"><ele>580.0</ele><time>2026-04-26T08:26:44.938Z</time></trkpt><trkpt lat="38.01931712503073" lon="15.136991148224046"><ele>579.5</ele><time>2026-04-26T08:26:45.938Z</time></trkpt><trkpt lat="38.01942518687461" lon="15.137038325238775"><ele>579.0</ele><time>2026-04-26T08:26:46.938Z</time></trkpt><trkpt lat="38.019532936134866" lon="15.137085097634575"><ele>578.5</ele><time>2026-04-26T08:26:47.938Z</time></trkpt><trkpt lat="38.01963442120191" lon="15.137144819042861"><ele>578.0</ele><time>2026-04-26T08:26:48.938Z</time></trkpt><trkpt lat="38.019718566423165" lon="15.137234686962802"><ele>578.0</ele><time>2026-04-26T08:26:49.938Z</time></trkpt><trkpt lat="38.01977869195537" lon="15.13734791262124"><ele>578.0</ele><time>2026-04-26T08:26:50.938Z</time></trkpt><trkpt lat="38.019820236141236" lon="15.137482185302833"><ele>578.0</ele><time>2026-04-26T08:26:51.938Z</time></trkpt><trkpt lat="38.019844929350164" lon="15.137615070812684"><ele>578.0</ele><time>2026-04-26T08:26:52.938Z</time></trkpt><trkpt lat="38.019865510987614" lon="15.13773133179562"><ele>578.0</ele><time>2026-04-26T08:26:53.938Z</time></trkpt><trkpt lat="38.01990757405371" lon="15.137837563045764"><ele>579.8</ele><time>2026-04-26T08:26:54.938Z</time></trkpt><trkpt lat="38.019988958379535" lon="15.13793587713654"><ele>581.5999999999999</ele><time>2026-04-26T08:26:55.938Z</time></trkpt><trkpt lat="38.02008310627579" lon="15.138005907728196"><ele>583.4000000000001</ele><time>2026-04-26T08:26:56.938Z</time></trkpt><trkpt lat="38.02017737466596" lon="15.138044489775954"><ele>585.2</ele><time>2026-04-26T08:26:57.938Z</time></trkpt><trkpt lat="38.020269367010656" lon="15.138088027839622"><ele>587.0</ele><time>2026-04-26T08:26:58.938Z</time></trkpt><trkpt lat="38.02038027142248" lon="15.138054399882058"><ele>587.0</ele><time>2026-04-26T08:26:59.938Z</time></trkpt><trkpt lat="38.020491425947064" lon="15.13802807426615"><ele>587.0</ele><time>2026-04-26T08:27:00.938Z</time></trkpt><trkpt lat="38.020589332066066" lon="15.137991440025706"><ele>587.0</ele><time>2026-04-26T08:27:01.938Z</time></trkpt><trkpt lat="38.020692463031665" lon="15.137975627690485"><ele>587.0</ele><time>2026-04-26T08:27:02.938Z</time></trkpt><trkpt lat="38.020787033132954" lon="15.137909969642324"><ele>587.0</ele><time>2026-04-26T08:27:03.938Z</time></trkpt><trkpt lat="38.02083545905964" lon="15.13779750608959"><ele>586.8333333333333</ele><time>2026-04-26T08:27:04.938Z</time></trkpt><trkpt lat="38.02085777349019" lon="15.137689800027234"><ele>586.6666666666666</ele><time>2026-04-26T08:27:05.938Z</time></trkpt><trkpt lat="38.02087623558904" lon="15.1375808421467"><ele>586.5</ele><time>2026-04-26T08:27:06.938Z</time></trkpt><trkpt lat="38.02089692654266" lon="15.137474929688263"><ele>586.3333333333334</ele><time>2026-04-26T08:27:07.938Z</time></trkpt><trkpt lat="38.020927460088956" lon="15.137360956141459"><ele>586.1666666666667</ele><time>2026-04-26T08:27:08.938Z</time></trkpt><trkpt lat="38.020978880552136" lon="15.137272123454405"><ele>586.0</ele><time>2026-04-26T08:27:09.938Z</time></trkpt><trkpt lat="38.02105234558945" lon="15.137202556488074"><ele>584.2</ele><time>2026-04-26T08:27:10.938Z</time></trkpt><trkpt lat="38.021104257288535" lon="15.13712869116711"><ele>582.4000000000001</ele><time>2026-04-26T08:27:11.938Z</time></trkpt><trkpt lat="38.02113555263857" lon="15.13701567831044"><ele>580.6</ele><time>2026-04-26T08:27:13.938Z</time></trkpt><trkpt lat="38.02113788503659" lon="15.136887609071985"><ele>578.8000000000001</ele><time>2026-04-26T08:28:15.936Z</time></trkpt><trkpt lat="38.02113168183529" lon="15.13674032485832"><ele>577.0</ele><time>2026-04-26T08:28:17.936Z</time></trkpt><trkpt lat="38.021130781931" lon="15.136644458571467"><ele>574.2</ele><time>2026-04-26T08:28:18.936Z</time></trkpt><trkpt lat="38.02113441120472" lon="15.136531699478079"><ele>571.4000000000001</ele><time>2026-04-26T08:28:19.936Z</time></trkpt><trkpt lat="38.02114362169248" lon="15.136417162073768"><ele>568.5999999999999</ele><time>2026-04-26T08:28:20.936Z</time></trkpt><trkpt lat="38.0211550774695" lon="15.136280506734453"><ele>565.8</ele><time>2026-04-26T08:28:21.936Z</time></trkpt><trkpt lat="38.02109934532003" lon="15.136131071627913"><ele>563.0</ele><time>2026-04-26T08:28:22.936Z</time></trkpt><trkpt lat="38.02112394301692" lon="15.135970254744944"><ele>563.0</ele><time>2026-04-26T08:28:23.936Z</time></trkpt><trkpt lat="38.02116600791495" lon="15.13580981905666"><ele>563.0</ele><time>2026-04-26T08:28:24.936Z</time></trkpt><trkpt lat="38.021220145700326" lon="15.135664465661332"><ele>563.0</ele><time>2026-04-26T08:28:25.936Z</time></trkpt><trkpt lat="38.021321349997926" lon="15.135578126120622"><ele>563.0</ele><time>2026-04-26T08:28:26.936Z</time></trkpt><trkpt lat="38.021365779111136" lon="15.135484178044"><ele>565.0</ele><time>2026-04-26T08:28:27.936Z</time></trkpt><trkpt lat="38.02141479818972" lon="15.135418330031278"><ele>567.0</ele><time>2026-04-26T08:28:28.936Z</time></trkpt><trkpt lat="38.02148418851" lon="15.135372791474353"><ele>569.0</ele><time>2026-04-26T08:28:29.936Z</time></trkpt><trkpt lat="38.021577722457806" lon="15.135322284376496"><ele>571.0</ele><time>2026-04-26T08:28:30.936Z</time></trkpt><trkpt lat="38.02167427361431" lon="15.135252626089027"><ele>573.0</ele><time>2026-04-26T08:28:31.936Z</time></trkpt><trkpt lat="38.021768738834574" lon="15.135167207911598"><ele>573.0</ele><time>2026-04-26T08:28:32.936Z</time></trkpt><trkpt lat="38.021886202658216" lon="15.135118520554256"><ele>573.0</ele><time>2026-04-26T08:28:33.936Z</time></trkpt><trkpt lat="38.02199893967832" lon="15.135054156731613"><ele>573.0</ele><time>2026-04-26T08:28:34.936Z</time></trkpt><trkpt lat="38.02210800102511" lon="15.134983606155648"><ele>573.0</ele><time>2026-04-26T08:28:35.936Z</time></trkpt><trkpt lat="38.022210438062075" lon="15.13489678202036"><ele>574.25</ele><time>2026-04-26T08:28:36.936Z</time></trkpt><trkpt lat="38.02229430315611" lon="15.134757783549638"><ele>575.5</ele><time>2026-04-26T08:28:37.935Z</time></trkpt><trkpt lat="38.02236953656647" lon="15.134598643809868"><ele>576.75</ele><time>2026-04-26T08:28:38.935Z</time></trkpt><trkpt lat="38.02244396489729" lon="15.134460926066089"><ele>578.0</ele><time>2026-04-26T08:28:39.935Z</time></trkpt><trkpt lat="38.02252745040406" lon="15.134336616631678"><ele>578.0</ele><time>2026-04-26T08:28:40.935Z</time></trkpt><trkpt lat="38.02263087212438" lon="15.134244647495354"><ele>578.0</ele><time>2026-04-26T08:28:41.935Z</time></trkpt><trkpt lat="38.0227415759751" lon="15.134194325375569"><ele>578.0</ele><time>2026-04-26T08:28:42.935Z</time></trkpt><trkpt lat="38.022847685263386" lon="15.134159597735936"><ele>578.0</ele><time>2026-04-26T08:28:43.935Z</time></trkpt><trkpt lat="38.022938591026595" lon="15.134114152126616"><ele>578.0</ele><time>2026-04-26T08:28:44.936Z</time></trkpt><trkpt lat="38.02302549761487" lon="15.134065197070894"><ele>578.0</ele><time>2026-04-26T08:28:45.936Z</time></trkpt><trkpt lat="38.02305554911239" lon="15.133924653710464"><ele>578.0</ele><time>2026-04-26T08:28:46.936Z</time></trkpt><trkpt lat="38.02306802361347" lon="15.133798514464699"><ele>578.0</ele><time>2026-04-26T08:28:47.936Z</time></trkpt><trkpt lat="38.02306106749603" lon="15.133672486819663"><ele>578.0</ele><time>2026-04-26T08:28:48.935Z</time></trkpt><trkpt lat="38.023049465393505" lon="15.133530331727988"><ele>572.25</ele><time>2026-04-26T08:28:49.935Z</time></trkpt><trkpt lat="38.02302568328889" lon="15.133398821578279"><ele>566.5</ele><time>2026-04-26T08:28:50.936Z</time></trkpt><trkpt lat="38.02301790047591" lon="15.133268292236751"><ele>560.75</ele><time>2026-04-26T08:28:51.936Z</time></trkpt><trkpt lat="38.02303964200684" lon="15.133108178848012"><ele>555.0</ele><time>2026-04-26T08:28:52.936Z</time></trkpt><trkpt lat="38.02314499028987" lon="15.133012123147108"><ele>557.25</ele><time>2026-04-26T08:28:53.936Z</time></trkpt><trkpt lat="38.02323197029579" lon="15.132976017322983"><ele>559.5</ele><time>2026-04-26T08:28:54.935Z</time></trkpt><trkpt lat="38.02332783409975" lon="15.132938401809394"><ele>561.75</ele><time>2026-04-26T08:28:55.935Z</time></trkpt><trkpt lat="38.023451854975086" lon="15.132892350623399"><ele>564.0</ele><time>2026-04-26T08:28:56.935Z</time></trkpt><trkpt lat="38.02361996342376" lon="15.132826046972959"><ele>564.0</ele><time>2026-04-26T08:28:57.935Z</time></trkpt><trkpt lat="38.023800453843414" lon="15.132684655318993"><ele>564.0</ele><time>2026-04-26T08:28:58.935Z</time></trkpt><trkpt lat="38.023929411736866" lon="15.132552172759155"><ele>564.0</ele><time>2026-04-26T08:28:59.935Z</time></trkpt><trkpt lat="38.024053649812" lon="15.132424509778586"><ele>563.0</ele><time>2026-04-26T08:29:00.935Z</time></trkpt><trkpt lat="38.024173028030845" lon="15.132303207982899"><ele>562.0</ele><time>2026-04-26T08:29:01.935Z</time></trkpt><trkpt lat="38.024315364042955" lon="15.132155360474423"><ele>561.0</ele><time>2026-04-26T08:29:02.935Z</time></trkpt><trkpt lat="38.02446047921738" lon="15.132010082783497"><ele>561.0</ele><time>2026-04-26T08:29:03.935Z</time></trkpt><trkpt lat="38.02460368977832" lon="15.131852487747683"><ele>561.0</ele><time>2026-04-26T08:29:04.935Z</time></trkpt><trkpt lat="38.02472843279824" lon="15.13170468233641"><ele>561.0</ele><time>2026-04-26T08:29:05.935Z</time></trkpt><trkpt lat="38.024847777200065" lon="15.131572440375646"><ele>560.0</ele><time>2026-04-26T08:29:06.935Z</time></trkpt><trkpt lat="38.02496484783097" lon="15.131451409560096"><ele>559.0</ele><time>2026-04-26T08:29:07.935Z</time></trkpt><trkpt lat="38.025078979485755" lon="15.13134089007035"><ele>558.0</ele><time>2026-04-26T08:29:08.935Z</time></trkpt><trkpt lat="38.025194291384175" lon="15.131254485668638"><ele>557.0</ele><time>2026-04-26T08:29:09.934Z</time></trkpt><trkpt lat="38.02532946464574" lon="15.131173734308293"><ele>557.0</ele><time>2026-04-26T08:29:10.934Z</time></trkpt><trkpt lat="38.02546560086345" lon="15.131077072484102"><ele>557.0</ele><time>2026-04-26T08:29:11.934Z</time></trkpt><trkpt lat="38.02558689485522" lon="15.130975594987344"><ele>557.0</ele><time>2026-04-26T08:29:12.934Z</time></trkpt><trkpt lat="38.02567379549091" lon="15.130818604050924"><ele>555.75</ele><time>2026-04-26T08:29:13.934Z</time></trkpt><trkpt lat="38.025762123663974" lon="15.130705423062125"><ele>554.5</ele><time>2026-04-26T08:29:14.934Z</time></trkpt><trkpt lat="38.02586601012072" lon="15.13060893369452"><ele>553.25</ele><time>2026-04-26T08:29:15.934Z</time></trkpt><trkpt lat="38.02601175464027" lon="15.130582774839523"><ele>552.0</ele><time>2026-04-26T08:29:16.934Z</time></trkpt><trkpt lat="38.026161938951745" lon="15.130590041195326"><ele>552.0</ele><time>2026-04-26T08:29:17.934Z</time></trkpt><trkpt lat="38.02630342911039" lon="15.130637374643646"><ele>552.0</ele><time>2026-04-26T08:29:18.934Z</time></trkpt><trkpt lat="38.02642559473631" lon="15.130672521915743"><ele>552.0</ele><time>2026-04-26T08:29:19.934Z</time></trkpt><trkpt lat="38.02656724375292" lon="15.130717713644973"><ele>552.0</ele><time>2026-04-26T08:29:20.934Z</time></trkpt><trkpt lat="38.02671037425131" lon="15.130733285417632"><ele>552.6666666666666</ele><time>2026-04-26T08:29:21.934Z</time></trkpt><trkpt lat="38.026868233996225" lon="15.130703946329817"><ele>553.3333333333333</ele><time>2026-04-26T08:29:22.934Z</time></trkpt><trkpt lat="38.02702288316945" lon="15.130643064128012"><ele>554.0</ele><time>2026-04-26T08:29:23.934Z</time></trkpt><trkpt lat="38.0271789762841" lon="15.130595495440748"><ele>554.0</ele><time>2026-04-26T08:29:24.934Z</time></trkpt><trkpt lat="38.027320898968355" lon="15.130488989479423"><ele>554.0</ele><time>2026-04-26T08:29:25.934Z</time></trkpt><trkpt lat="38.027467558255445" lon="15.130401681083047"><ele>554.0</ele><time>2026-04-26T08:29:26.934Z</time></trkpt><trkpt lat="38.02761269093902" lon="15.130333781425252"><ele>556.75</ele><time>2026-04-26T08:29:27.934Z</time></trkpt><trkpt lat="38.02774734753423" lon="15.130267456357432"><ele>559.5</ele><time>2026-04-26T08:29:28.934Z</time></trkpt><trkpt lat="38.02788313612813" lon="15.13022385419505"><ele>562.25</ele><time>2026-04-26T08:29:29.934Z</time></trkpt><trkpt lat="38.02801000202911" lon="15.130168673268829"><ele>565.0</ele><time>2026-04-26T08:29:30.934Z</time></trkpt><trkpt lat="38.02813260324395" lon="15.130116801834136"><ele>565.0</ele><time>2026-04-26T08:29:31.934Z</time></trkpt><trkpt lat="38.02824715519587" lon="15.130068335968542"><ele>565.0</ele><time>2026-04-26T08:29:32.934Z</time></trkpt><trkpt lat="38.028352250499104" lon="15.130032613585971"><ele>565.0</ele><time>2026-04-26T08:29:33.934Z</time></trkpt><trkpt lat="38.02845640171168" lon="15.130050265797495"><ele>565.0</ele><time>2026-04-26T08:29:34.934Z</time></trkpt><trkpt lat="38.02857399305915" lon="15.130128922293405"><ele>567.25</ele><time>2026-04-26T08:29:35.934Z</time></trkpt><trkpt lat="38.02868812731833" lon="15.130242046055042"><ele>569.5</ele><time>2026-04-26T08:29:36.934Z</time></trkpt><trkpt lat="38.02878626249789" lon="15.130361078886407"><ele>571.75</ele><time>2026-04-26T08:29:37.934Z</time></trkpt><trkpt lat="38.028864769332294" lon="15.13048109212971"><ele>574.0</ele><time>2026-04-26T08:29:38.934Z</time></trkpt><trkpt lat="38.02893462346087" lon="15.130595837235163"><ele>574.0</ele><time>2026-04-26T08:29:39.934Z</time></trkpt><trkpt lat="38.02901772230712" lon="15.130666547053353"><ele>574.0</ele><time>2026-04-26T08:29:40.934Z</time></trkpt><trkpt lat="38.02910994616734" lon="15.130681412098722"><ele>574.0</ele><time>2026-04-26T08:29:41.934Z</time></trkpt><trkpt lat="38.02922033008237" lon="15.13066580740397"><ele>574.0</ele><time>2026-04-26T08:29:42.934Z</time></trkpt><trkpt lat="38.02933178163147" lon="15.130612702176293"><ele>574.0</ele><time>2026-04-26T08:29:43.934Z</time></trkpt><trkpt lat="38.02943539281531" lon="15.13055920262747"><ele>569.75</ele><time>2026-04-26T08:29:44.934Z</time></trkpt><trkpt lat="38.02953610291493" lon="15.1305250519324"><ele>565.5</ele><time>2026-04-26T08:29:45.933Z</time></trkpt><trkpt lat="38.029674352055444" lon="15.130452363091353"><ele>561.25</ele><time>2026-04-26T08:29:46.933Z</time></trkpt><trkpt lat="38.029761599673094" lon="15.13036938944854"><ele>557.0</ele><time>2026-04-26T08:29:47.933Z</time></trkpt><trkpt lat="38.02983382046878" lon="15.130305817057453"><ele>557.0</ele><time>2026-04-26T08:29:48.933Z</time></trkpt><trkpt lat="38.02989287716437" lon="15.130254214552117"><ele>557.0</ele><time>2026-04-26T08:29:49.933Z</time></trkpt><trkpt lat="38.029995453021584" lon="15.130167793164649"><ele>557.0</ele><time>2026-04-26T08:29:51.933Z</time></trkpt><trkpt lat="38.030379181815405" lon="15.129851207397078"><ele>551.25</ele><time>2026-04-26T08:29:53.933Z</time></trkpt><trkpt lat="38.03047607964666" lon="15.129761595165219"><ele>545.5</ele><time>2026-04-26T08:29:54.933Z</time></trkpt><trkpt lat="38.03057341099126" lon="15.12965449700224"><ele>539.75</ele><time>2026-04-26T08:29:55.933Z</time></trkpt><trkpt lat="38.030669297194" lon="15.129544396034188"><ele>534.0</ele><time>2026-04-26T08:29:56.933Z</time></trkpt><trkpt lat="38.03074516508927" lon="15.129405767827869"><ele>534.0</ele><time>2026-04-26T08:29:57.933Z</time></trkpt><trkpt lat="38.03080707952417" lon="15.129267546587618"><ele>534.0</ele><time>2026-04-26T08:29:58.933Z</time></trkpt><trkpt lat="38.03089342434141" lon="15.129157791704671"><ele>534.0</ele><time>2026-04-26T08:29:59.933Z</time></trkpt><trkpt lat="38.031018556965044" lon="15.129105529366383"><ele>534.0</ele><time>2026-04-26T08:30:00.933Z</time></trkpt><trkpt lat="38.03116154514413" lon="15.129052877385192"><ele>534.5</ele><time>2026-04-26T08:30:01.933Z</time></trkpt><trkpt lat="38.03131068298607" lon="15.128998981747152"><ele>535.0</ele><time>2026-04-26T08:30:02.933Z</time></trkpt><trkpt lat="38.03144507624941" lon="15.128917114556865"><ele>535.5</ele><time>2026-04-26T08:30:03.933Z</time></trkpt><trkpt lat="38.03156861098755" lon="15.128829460908905"><ele>536.0</ele><time>2026-04-26T08:30:04.933Z</time></trkpt><trkpt lat="38.031689293220936" lon="15.12871809782497"><ele>539.3333333333333</ele><time>2026-04-26T08:30:05.933Z</time></trkpt><trkpt lat="38.03182112931069" lon="15.128602510537677"><ele>542.6666666666666</ele><time>2026-04-26T08:30:06.933Z</time></trkpt><trkpt lat="38.031964001921466" lon="15.128499323241968"><ele>546.0</ele><time>2026-04-26T08:30:07.933Z</time></trkpt><trkpt lat="38.03210110503496" lon="15.128409421859105"><ele>546.0</ele><time>2026-04-26T08:30:08.933Z</time></trkpt><trkpt lat="38.03224245481247" lon="15.12835385125173"><ele>546.0</ele><time>2026-04-26T08:30:09.933Z</time></trkpt><trkpt lat="38.032394847789654" lon="15.128314934118652"><ele>546.0</ele><time>2026-04-26T08:30:10.933Z</time></trkpt><trkpt lat="38.03255425352135" lon="15.12830745381989"><ele>550.3333333333334</ele><time>2026-04-26T08:30:11.933Z</time></trkpt><trkpt lat="38.03272116992269" lon="15.128333572440502"><ele>554.6666666666667</ele><time>2026-04-26T08:30:12.933Z</time></trkpt><trkpt lat="38.032868652164524" lon="15.128388765424797"><ele>559.0</ele><time>2026-04-26T08:30:13.933Z</time></trkpt><trkpt lat="38.032998464540945" lon="15.128466669368168"><ele>559.0</ele><time>2026-04-26T08:30:14.933Z</time></trkpt><trkpt lat="38.03309535852902" lon="15.12857898487556"><ele>559.0</ele><time>2026-04-26T08:30:15.933Z</time></trkpt><trkpt lat="38.033186192845704" lon="15.128647972505512"><ele>559.0</ele><time>2026-04-26T08:30:16.933Z</time></trkpt><trkpt lat="38.033255851488285" lon="15.12866127814531"><ele>559.0</ele><time>2026-04-26T08:30:17.933Z</time></trkpt><trkpt lat="38.03335693470447" lon="15.12861480545611"><ele>559.0</ele><time>2026-04-26T08:30:18.933Z</time></trkpt><trkpt lat="38.03345560396948" lon="15.128500672184249"><ele>558.6</ele><time>2026-04-26T08:30:19.933Z</time></trkpt><trkpt lat="38.03354091546915" lon="15.128379335591877"><ele>558.2</ele><time>2026-04-26T08:30:20.933Z</time></trkpt><trkpt lat="38.03362460756342" lon="15.128299309976152"><ele>557.8000000000001</ele><time>2026-04-26T08:30:21.932Z</time></trkpt><trkpt lat="38.03372056173855" lon="15.128262238326187"><ele>557.4</ele><time>2026-04-26T08:30:22.932Z</time></trkpt><trkpt lat="38.03380336518981" lon="15.128338161241423"><ele>557.0</ele><time>2026-04-26T08:30:23.932Z</time></trkpt><trkpt lat="38.03383259946995" lon="15.128471560165012"><ele>557.0</ele><time>2026-04-26T08:30:24.932Z</time></trkpt><trkpt lat="38.03389187393142" lon="15.128614863291535"><ele>557.0</ele><time>2026-04-26T08:30:25.932Z</time></trkpt><trkpt lat="38.03398097923058" lon="15.128747567242259"><ele>557.0</ele><time>2026-04-26T08:30:26.932Z</time></trkpt><trkpt lat="38.03405699798777" lon="15.128867318282419"><ele>557.0</ele><time>2026-04-26T08:30:27.932Z</time></trkpt><trkpt lat="38.03414559985749" lon="15.128959675466948"><ele>559.6666666666666</ele><time>2026-04-26T08:30:28.932Z</time></trkpt><trkpt lat="38.03428106520548" lon="15.128979112097575"><ele>562.3333333333334</ele><time>2026-04-26T08:30:29.932Z</time></trkpt><trkpt lat="38.0344362001001" lon="15.129002838046887"><ele>565.0</ele><time>2026-04-26T08:30:30.932Z</time></trkpt><trkpt lat="38.03459022523664" lon="15.129102839574445"><ele>565.0</ele><time>2026-04-26T08:30:31.932Z</time></trkpt><trkpt lat="38.034759893775" lon="15.129205447515213"><ele>565.0</ele><time>2026-04-26T08:30:32.932Z</time></trkpt><trkpt lat="38.034915198445844" lon="15.129296706606558"><ele>565.0</ele><time>2026-04-26T08:30:33.932Z</time></trkpt><trkpt lat="38.03505526023512" lon="15.129385299812226"><ele>563.2</ele><time>2026-04-26T08:30:34.932Z</time></trkpt><trkpt lat="38.03517223361234" lon="15.129457442564158"><ele>561.4</ele><time>2026-04-26T08:30:35.932Z</time></trkpt><trkpt lat="38.035216437693144" lon="15.129591897216486"><ele>559.6</ele><time>2026-04-26T08:30:36.932Z</time></trkpt><trkpt lat="38.03523009695025" lon="15.129714268006042"><ele>557.8</ele><time>2026-04-26T08:30:37.932Z</time></trkpt><trkpt lat="38.03520411509339" lon="15.129844069011627"><ele>556.0</ele><time>2026-04-26T08:30:38.932Z</time></trkpt><trkpt lat="38.035179108629194" lon="15.129987545940503"><ele>556.0</ele><time>2026-04-26T08:30:39.932Z</time></trkpt><trkpt lat="38.03515467624221" lon="15.130114778063742"><ele>556.0</ele><time>2026-04-26T08:30:40.932Z</time></trkpt><trkpt lat="38.03512905643411" lon="15.13024550653264"><ele>556.0</ele><time>2026-04-26T08:30:41.932Z</time></trkpt><trkpt lat="38.03512607344825" lon="15.130367728158312"><ele>556.0</ele><time>2026-04-26T08:30:42.932Z</time></trkpt><trkpt lat="38.03510947329294" lon="15.13048062608068"><ele>556.0</ele><time>2026-04-26T08:30:43.932Z</time></trkpt><trkpt lat="38.03513676331802" lon="15.130586120623084"><ele>556.0</ele><time>2026-04-26T08:30:44.932Z</time></trkpt><trkpt lat="38.03521907205331" lon="15.130657991902781"><ele>556.0</ele><time>2026-04-26T08:30:45.932Z</time></trkpt><trkpt lat="38.035385199835126" lon="15.130669042592114"><ele>556.0</ele><time>2026-04-26T08:30:46.932Z</time></trkpt><trkpt lat="38.03550775791092" lon="15.13068607227183"><ele>556.0</ele><time>2026-04-26T08:30:47.932Z</time></trkpt><trkpt lat="38.03561030348798" lon="15.130694768199493"><ele>556.0</ele><time>2026-04-26T08:30:48.932Z</time></trkpt><trkpt lat="38.03572588594053" lon="15.130682372436173"><ele>556.0</ele><time>2026-04-26T08:30:49.932Z</time></trkpt><trkpt lat="38.03583513837387" lon="15.130634649639179"><ele>556.0</ele><time>2026-04-26T08:30:50.933Z</time></trkpt><trkpt lat="38.03593382051537" lon="15.130549406113866"><ele>556.0</ele><time>2026-04-26T08:30:51.932Z</time></trkpt><trkpt lat="38.03600575916136" lon="15.130446290848086"><ele>550.4</ele><time>2026-04-26T08:30:52.932Z</time></trkpt><trkpt lat="38.03607214002607" lon="15.130362637609677"><ele>544.8</ele><time>2026-04-26T08:30:53.932Z</time></trkpt><trkpt lat="38.03615146482164" lon="15.130287758484432"><ele>539.1999999999999</ele><time>2026-04-26T08:30:54.933Z</time></trkpt><trkpt lat="38.03625003890221" lon="15.13024424061256"><ele>533.6</ele><time>2026-04-26T08:30:55.933Z</time></trkpt><trkpt lat="38.03636250293699" lon="15.130198939316681"><ele>528.0</ele><time>2026-04-26T08:30:56.933Z</time></trkpt><trkpt lat="38.03647857629973" lon="15.130199163345276"><ele>528.0</ele><time>2026-04-26T08:30:57.932Z</time></trkpt><trkpt lat="38.03659963729192" lon="15.130192396972568"><ele>528.0</ele><time>2026-04-26T08:30:58.932Z</time></trkpt><trkpt lat="38.03670365933313" lon="15.130207249500026"><ele>528.0</ele><time>2026-04-26T08:30:59.932Z</time></trkpt><trkpt lat="38.03680601053844" lon="15.130256347472391"><ele>528.0</ele><time>2026-04-26T08:31:00.933Z</time></trkpt><trkpt lat="38.03691034014146" lon="15.130302708146793"><ele>528.0</ele><time>2026-04-26T08:31:01.932Z</time></trkpt><trkpt lat="38.03702522233929" lon="15.130352729181181"><ele>526.6</ele><time>2026-04-26T08:31:02.932Z</time></trkpt><trkpt lat="38.037121861956834" lon="15.13043307687842"><ele>525.1999999999999</ele><time>2026-04-26T08:31:03.932Z</time></trkpt><trkpt lat="38.03718180559076" lon="15.130541508241997"><ele>523.8</ele><time>2026-04-26T08:31:04.932Z</time></trkpt><trkpt lat="38.03722733492918" lon="15.130656347185312"><ele>522.4</ele><time>2026-04-26T08:31:05.932Z</time></trkpt><trkpt lat="38.03728451839215" lon="15.130761022430777"><ele>521.0</ele><time>2026-04-26T08:31:06.932Z</time></trkpt><trkpt lat="38.03734973231228" lon="15.130846543762958"><ele>519.25</ele><time>2026-04-26T08:31:07.932Z</time></trkpt><trkpt lat="38.03742872339705" lon="15.13089694653143"><ele>517.5</ele><time>2026-04-26T08:31:08.932Z</time></trkpt><trkpt lat="38.03754810611569" lon="15.130891260768252"><ele>515.75</ele><time>2026-04-26T08:31:09.931Z</time></trkpt><trkpt lat="38.03766721439947" lon="15.13081737125347"><ele>514.0</ele><time>2026-04-26T08:31:10.931Z</time></trkpt><trkpt lat="38.03777421323988" lon="15.130690830353714"><ele>514.0</ele><time>2026-04-26T08:31:11.931Z</time></trkpt><trkpt lat="38.03786920319883" lon="15.130544752906678"><ele>514.0</ele><time>2026-04-26T08:31:12.931Z</time></trkpt><trkpt lat="38.037962911802985" lon="15.130383487597493"><ele>514.0</ele><time>2026-04-26T08:31:13.931Z</time></trkpt><trkpt lat="38.038040171127406" lon="15.130220242968605"><ele>514.0</ele><time>2026-04-26T08:31:14.931Z</time></trkpt><trkpt lat="38.038080071783185" lon="15.130026830073726"><ele>514.0</ele><time>2026-04-26T08:31:15.931Z</time></trkpt><trkpt lat="38.03809800481337" lon="15.129829750489403"><ele>514.0</ele><time>2026-04-26T08:31:16.931Z</time></trkpt><trkpt lat="38.038109385943265" lon="15.129620276719436"><ele>507.33333333333337</ele><time>2026-04-26T08:31:17.931Z</time></trkpt><trkpt lat="38.03816764078129" lon="15.129386488893033"><ele>500.66666666666663</ele><time>2026-04-26T08:31:18.931Z</time></trkpt><trkpt lat="38.03828384077174" lon="15.129116587437487"><ele>494.0</ele><time>2026-04-26T08:31:19.931Z</time></trkpt><trkpt lat="38.03841214179759" lon="15.128826011437802"><ele>494.0</ele><time>2026-04-26T08:31:20.931Z</time></trkpt><trkpt lat="38.038574915653605" lon="15.128548457211304"><ele>494.0</ele><time>2026-04-26T08:31:21.931Z</time></trkpt><trkpt lat="38.038737040227076" lon="15.128289819732384"><ele>485.3333333333333</ele><time>2026-04-26T08:31:22.931Z</time></trkpt><trkpt lat="38.038856180591885" lon="15.128040037924206"><ele>476.66666666666663</ele><time>2026-04-26T08:31:23.931Z</time></trkpt><trkpt lat="38.03894521713323" lon="15.127839174482665"><ele>468.0</ele><time>2026-04-26T08:31:24.931Z</time></trkpt><trkpt lat="38.03901235298101" lon="15.127682935511006"><ele>468.0</ele><time>2026-04-26T08:31:25.931Z</time></trkpt><trkpt lat="38.03907730432234" lon="15.12756407264335"><ele>468.0</ele><time>2026-04-26T08:31:26.931Z</time></trkpt><trkpt lat="38.03917290072486" lon="15.127499219884603"><ele>468.0</ele><time>2026-04-26T08:31:27.931Z</time></trkpt><trkpt lat="38.03928486687966" lon="15.127466052547504"><ele>468.0</ele><time>2026-04-26T08:31:28.931Z</time></trkpt><trkpt lat="38.03941233799349" lon="15.127491315259814"><ele>475.5</ele><time>2026-04-26T08:31:29.931Z</time></trkpt><trkpt lat="38.03951583137586" lon="15.127588431455544"><ele>483.0</ele><time>2026-04-26T08:31:30.931Z</time></trkpt><trkpt lat="38.03963003490396" lon="15.127711649419398"><ele>490.5</ele><time>2026-04-26T08:31:31.931Z</time></trkpt><trkpt lat="38.039733076389965" lon="15.127831799927474"><ele>498.0</ele><time>2026-04-26T08:31:32.931Z</time></trkpt><trkpt lat="38.03984225449939" lon="15.127887217775111"><ele>498.0</ele><time>2026-04-26T08:31:33.931Z</time></trkpt><trkpt lat="38.039962443080526" lon="15.127928788940183"><ele>498.0</ele><time>2026-04-26T08:31:34.931Z</time></trkpt><trkpt lat="38.040118319024636" lon="15.127932295591341"><ele>498.0</ele><time>2026-04-26T08:31:35.931Z</time></trkpt><trkpt lat="38.0402177903454" lon="15.127870251414002"><ele>498.0</ele><time>2026-04-26T08:31:36.931Z</time></trkpt><trkpt lat="38.04033801507858" lon="15.127836479577889"><ele>495.0</ele><time>2026-04-26T08:31:37.931Z</time></trkpt><trkpt lat="38.04045342451471" lon="15.127926738839157"><ele>492.0</ele><time>2026-04-26T08:31:38.931Z</time></trkpt><trkpt lat="38.04059046052829" lon="15.128035111984234"><ele>489.0</ele><time>2026-04-26T08:31:39.931Z</time></trkpt><trkpt lat="38.04074571682486" lon="15.12809893056309"><ele>486.66666666666663</ele><time>2026-04-26T08:31:40.931Z</time></trkpt><trkpt lat="38.040897193151395" lon="15.128119243493902"><ele>484.3333333333333</ele><time>2026-04-26T08:31:41.931Z</time></trkpt><trkpt lat="38.0410464250056" lon="15.128144900655823"><ele>482.0</ele><time>2026-04-26T08:31:42.931Z</time></trkpt><trkpt lat="38.04118154754089" lon="15.128217775553821"><ele>488.66666666666663</ele><time>2026-04-26T08:31:43.931Z</time></trkpt><trkpt lat="38.04129836056783" lon="15.128327982350982"><ele>495.33333333333337</ele><time>2026-04-26T08:31:44.931Z</time></trkpt><trkpt lat="38.04142213110609" lon="15.128458783281069"><ele>502.0</ele><time>2026-04-26T08:31:45.931Z</time></trkpt><trkpt lat="38.04153695616409" lon="15.128594945736364"><ele>503.25</ele><time>2026-04-26T08:31:46.93Z</time></trkpt><trkpt lat="38.04164398578737" lon="15.128734068216557"><ele>504.5</ele><time>2026-04-26T08:31:47.93Z</time></trkpt><trkpt lat="38.04172841757778" lon="15.12885578918249"><ele>505.75</ele><time>2026-04-26T08:31:48.93Z</time></trkpt><trkpt lat="38.041761042272526" lon="15.128997113367037"><ele>507.0</ele><time>2026-04-26T08:31:49.93Z</time></trkpt><trkpt lat="38.04181399356895" lon="15.12912272622461"><ele>507.0</ele><time>2026-04-26T08:31:50.93Z</time></trkpt><trkpt lat="38.04188209955696" lon="15.129209239834008"><ele>507.0</ele><time>2026-04-26T08:31:51.93Z</time></trkpt><trkpt lat="38.04200051661141" lon="15.129245943857185"><ele>507.0</ele><time>2026-04-26T08:31:52.93Z</time></trkpt><trkpt lat="38.042133227376475" lon="15.129184863525083"><ele>507.0</ele><time>2026-04-26T08:31:53.93Z</time></trkpt><trkpt lat="38.042319078991035" lon="15.12909302572456"><ele>485.0</ele><time>2026-04-26T08:31:54.93Z</time></trkpt><trkpt lat="38.042530673963036" lon="15.128972334912472"><ele>463.0</ele><time>2026-04-26T08:31:55.93Z</time></trkpt><trkpt lat="38.04275438179082" lon="15.128869518491886"><ele>463.0</ele><time>2026-04-26T08:31:56.93Z</time></trkpt><trkpt lat="38.043001013267244" lon="15.128809467664327"><ele>463.0</ele><time>2026-04-26T08:31:57.93Z</time></trkpt><trkpt lat="38.043234189402924" lon="15.12878071305385"><ele>466.0</ele><time>2026-04-26T08:31:58.93Z</time></trkpt><trkpt lat="38.04344177452451" lon="15.128754231925747"><ele>469.0</ele><time>2026-04-26T08:31:59.93Z</time></trkpt><trkpt lat="38.04361651064207" lon="15.12866936965828"><ele>472.0</ele><time>2026-04-26T08:32:00.93Z</time></trkpt><trkpt lat="38.04376477307139" lon="15.128594556565455"><ele>472.0</ele><time>2026-04-26T08:32:01.93Z</time></trkpt><trkpt lat="38.04389406683904" lon="15.128513804787913"><ele>472.0</ele><time>2026-04-26T08:32:02.93Z</time></trkpt><trkpt lat="38.04399005452199" lon="15.128444851510919"><ele>472.0</ele><time>2026-04-26T08:32:03.93Z</time></trkpt><trkpt lat="38.04405984364178" lon="15.12835374145102"><ele>472.0</ele><time>2026-04-26T08:32:04.93Z</time></trkpt><trkpt lat="38.044088164159085" lon="15.128215925197264"><ele>467.33333333333337</ele><time>2026-04-26T08:32:05.93Z</time></trkpt><trkpt lat="38.044067265056846" lon="15.128062673589028"><ele>462.66666666666663</ele><time>2026-04-26T08:32:06.93Z</time></trkpt><trkpt lat="38.04398259530938" lon="15.127902149910387"><ele>458.0</ele><time>2026-04-26T08:32:07.93Z</time></trkpt><trkpt lat="38.043820579133666" lon="15.127698108941695"><ele>458.0</ele><time>2026-04-26T08:32:08.93Z</time></trkpt><trkpt lat="38.04371437934534" lon="15.127454390805317"><ele>458.0</ele><time>2026-04-26T08:32:09.93Z</time></trkpt><trkpt lat="38.043662197684455" lon="15.127173829734508"><ele>458.0</ele><time>2026-04-26T08:32:10.93Z</time></trkpt><trkpt lat="38.04357551971028" lon="15.126939795103223"><ele>459.0</ele><time>2026-04-26T08:32:11.93Z</time></trkpt><trkpt lat="38.04351246714451" lon="15.126745714912234"><ele>460.0</ele><time>2026-04-26T08:32:12.93Z</time></trkpt><trkpt lat="38.04348013897705" lon="15.126561368829194"><ele>461.0</ele><time>2026-04-26T08:32:13.93Z</time></trkpt><trkpt lat="38.04344856806206" lon="15.12635341974807"><ele>459.0</ele><time>2026-04-26T08:32:14.93Z</time></trkpt><trkpt lat="38.04344340442025" lon="15.126116303518332"><ele>457.0</ele><time>2026-04-26T08:32:15.93Z</time></trkpt><trkpt lat="38.04344504591495" lon="15.125878290883648"><ele>455.0</ele><time>2026-04-26T08:32:16.93Z</time></trkpt><trkpt lat="38.043457777289646" lon="15.125667472421583"><ele>450.0</ele><time>2026-04-26T08:32:17.93Z</time></trkpt><trkpt lat="38.04352397498056" lon="15.125484830336562"><ele>445.0</ele><time>2026-04-26T08:32:18.93Z</time></trkpt><trkpt lat="38.04356968121197" lon="15.125288926703398"><ele>440.0</ele><time>2026-04-26T08:32:19.93Z</time></trkpt><trkpt lat="38.04360143969756" lon="15.12511697281533"><ele>440.0</ele><time>2026-04-26T08:32:20.93Z</time></trkpt><trkpt lat="38.04364470992804" lon="15.124982394012294"><ele>440.0</ele><time>2026-04-26T08:32:21.93Z</time></trkpt><trkpt lat="38.04373874058539" lon="15.124922744040255"><ele>440.0</ele><time>2026-04-26T08:32:22.929Z</time></trkpt><trkpt lat="38.04386637322764" lon="15.124925882820524"><ele>440.0</ele><time>2026-04-26T08:32:23.929Z</time></trkpt><trkpt lat="38.044035714243165" lon="15.124905840449253"><ele>435.66666666666663</ele><time>2026-04-26T08:32:24.929Z</time></trkpt><trkpt lat="38.044236398565424" lon="15.12485793022488"><ele>431.33333333333337</ele><time>2026-04-26T08:32:25.929Z</time></trkpt><trkpt lat="38.04445341523437" lon="15.124788372279362"><ele>427.0</ele><time>2026-04-26T08:32:26.929Z</time></trkpt><trkpt lat="38.04469298475603" lon="15.124747412274703"><ele>427.0</ele><time>2026-04-26T08:32:27.929Z</time></trkpt><trkpt lat="38.04490153643251" lon="15.12473798181755"><ele>427.0</ele><time>2026-04-26T08:32:28.929Z</time></trkpt><trkpt lat="38.04506364225694" lon="15.12475316747872"><ele>427.0</ele><time>2026-04-26T08:32:29.929Z</time></trkpt><trkpt lat="38.04520076402309" lon="15.124745121578961"><ele>430.5</ele><time>2026-04-26T08:32:30.929Z</time></trkpt><trkpt lat="38.04529945371055" lon="15.124716545877675"><ele>434.0</ele><time>2026-04-26T08:32:31.929Z</time></trkpt><trkpt lat="38.04537828832893" lon="15.124635209326119"><ele>437.5</ele><time>2026-04-26T08:32:32.929Z</time></trkpt><trkpt lat="38.045433591308345" lon="15.12447594921683"><ele>441.0</ele><time>2026-04-26T08:32:33.929Z</time></trkpt><trkpt lat="38.04545825879303" lon="15.1242865773482"><ele>441.0</ele><time>2026-04-26T08:32:34.929Z</time></trkpt><trkpt lat="38.04541268019469" lon="15.124090230687893"><ele>441.0</ele><time>2026-04-26T08:32:35.929Z</time></trkpt><trkpt lat="38.04536607297346" lon="15.123834169658606"><ele>441.0</ele><time>2026-04-26T08:32:36.929Z</time></trkpt><trkpt lat="38.045394456268745" lon="15.123577055960128"><ele>440.0</ele><time>2026-04-26T08:32:37.929Z</time></trkpt><trkpt lat="38.045436230220524" lon="15.12337763348288"><ele>439.0</ele><time>2026-04-26T08:32:38.929Z</time></trkpt><trkpt lat="38.04544473294167" lon="15.123210958575743"><ele>438.0</ele><time>2026-04-26T08:32:39.929Z</time></trkpt><trkpt lat="38.045443690267305" lon="15.123085391471987"><ele>437.0</ele><time>2026-04-26T08:32:40.929Z</time></trkpt><trkpt lat="38.04535109833685" lon="15.12297219386731"><ele>437.0</ele><time>2026-04-26T08:32:41.929Z</time></trkpt><trkpt lat="38.0452079056325" lon="15.122844842216383"><ele>437.0</ele><time>2026-04-26T08:32:42.929Z</time></trkpt><trkpt lat="38.045079136745585" lon="15.122723655617706"><ele>437.0</ele><time>2026-04-26T08:32:43.929Z</time></trkpt><trkpt lat="38.04499106546774" lon="15.122602665977954"><ele>436.75</ele><time>2026-04-26T08:32:44.929Z</time></trkpt><trkpt lat="38.04494850913638" lon="15.122466925145732"><ele>436.5</ele><time>2026-04-26T08:32:45.929Z</time></trkpt><trkpt lat="38.04497066592668" lon="15.122325856428693"><ele>436.25</ele><time>2026-04-26T08:32:46.929Z</time></trkpt><trkpt lat="38.045022991644764" lon="15.122196095562703"><ele>436.0</ele><time>2026-04-26T08:32:47.929Z</time></trkpt><trkpt lat="38.04512626270373" lon="15.122157611278203"><ele>436.0</ele><time>2026-04-26T08:32:48.929Z</time></trkpt><trkpt lat="38.045232082451285" lon="15.122067517969498"><ele>436.0</ele><time>2026-04-26T08:32:49.929Z</time></trkpt><trkpt lat="38.04535524779935" lon="15.121958755721423"><ele>436.0</ele><time>2026-04-26T08:32:50.929Z</time></trkpt><trkpt lat="38.04545044392212" lon="15.121834028032323"><ele>436.0</ele><time>2026-04-26T08:32:51.929Z</time></trkpt><trkpt lat="38.045469949139715" lon="15.121662885312166"><ele>433.6666666666667</ele><time>2026-04-26T08:32:52.929Z</time></trkpt><trkpt lat="38.04544501152838" lon="15.121505137412672"><ele>431.33333333333337</ele><time>2026-04-26T08:32:53.929Z</time></trkpt><trkpt lat="38.045358813025366" lon="15.12132759876102"><ele>429.0</ele><time>2026-04-26T08:32:54.929Z</time></trkpt><trkpt lat="38.04526680694947" lon="15.121108182362075"><ele>429.0</ele><time>2026-04-26T08:32:55.929Z</time></trkpt><trkpt lat="38.04517251537226" lon="15.12084823786664"><ele>429.0</ele><time>2026-04-26T08:32:56.93Z</time></trkpt><trkpt lat="38.04511394924247" lon="15.120598994571774"><ele>429.0</ele><time>2026-04-26T08:32:57.93Z</time></trkpt><trkpt lat="38.045085971777134" lon="15.120368586387722"><ele>428.66666666666663</ele><time>2026-04-26T08:32:58.93Z</time></trkpt><trkpt lat="38.04506099999351" lon="15.12014792458857"><ele>428.3333333333333</ele><time>2026-04-26T08:32:59.93Z</time></trkpt><trkpt lat="38.0450377831547" lon="15.119936580311665"><ele>428.0</ele><time>2026-04-26T08:33:00.929Z</time></trkpt><trkpt lat="38.04501852371975" lon="15.119736452136063"><ele>425.66666666666663</ele><time>2026-04-26T08:33:01.929Z</time></trkpt><trkpt lat="38.04504315992072" lon="15.11952353965583"><ele>423.33333333333337</ele><time>2026-04-26T08:33:02.929Z</time></trkpt><trkpt lat="38.045127362592595" lon="15.11932312487266"><ele>421.0</ele><time>2026-04-26T08:33:03.93Z</time></trkpt><trkpt lat="38.04523779518115" lon="15.11912317647445"><ele>414.6666666666667</ele><time>2026-04-26T08:33:04.93Z</time></trkpt><trkpt lat="38.04534946136876" lon="15.118923113923145"><ele>408.33333333333337</ele><time>2026-04-26T08:33:05.93Z</time></trkpt><trkpt lat="38.0454435595158" lon="15.118727922981956"><ele>402.0</ele><time>2026-04-26T08:33:06.93Z</time></trkpt><trkpt lat="38.045558824171785" lon="15.118567345398569"><ele>402.0</ele><time>2026-04-26T08:33:07.93Z</time></trkpt><trkpt lat="38.04569069483049" lon="15.118430484553011"><ele>402.0</ele><time>2026-04-26T08:33:08.93Z</time></trkpt><trkpt lat="38.045807951714195" lon="15.11828815954458"><ele>402.0</ele><time>2026-04-26T08:33:09.929Z</time></trkpt><trkpt lat="38.045939868762524" lon="15.118146336912433"><ele>398.33333333333337</ele><time>2026-04-26T08:33:10.929Z</time></trkpt><trkpt lat="38.04610240376256" lon="15.118001568848154"><ele>394.6666666666667</ele><time>2026-04-26T08:33:11.929Z</time></trkpt><trkpt lat="38.04628903431425" lon="15.117840258195203"><ele>391.0</ele><time>2026-04-26T08:33:12.929Z</time></trkpt><trkpt lat="38.046450651633556" lon="15.117701775321807"><ele>391.0</ele><time>2026-04-26T08:33:13.929Z</time></trkpt><trkpt lat="38.046577335523736" lon="15.117590952943136"><ele>391.0</ele><time>2026-04-26T08:33:14.929Z</time></trkpt><trkpt lat="38.04670213606329" lon="15.117536840456511"><ele>391.0</ele><time>2026-04-26T08:33:15.929Z</time></trkpt><trkpt lat="38.046835434829035" lon="15.117565861571826"><ele>391.0</ele><time>2026-04-26T08:33:16.929Z</time></trkpt><trkpt lat="38.046987612071284" lon="15.117613552716499"><ele>396.33333333333337</ele><time>2026-04-26T08:33:17.929Z</time></trkpt><trkpt lat="38.047168755434726" lon="15.117641150109515"><ele>401.66666666666663</ele><time>2026-04-26T08:33:18.929Z</time></trkpt><trkpt lat="38.04734612414831" lon="15.117666075205879"><ele>407.0</ele><time>2026-04-26T08:33:19.929Z</time></trkpt><trkpt lat="38.04751541818154" lon="15.117627567348064"><ele>407.0</ele><time>2026-04-26T08:33:20.929Z</time></trkpt><trkpt lat="38.047666632922" lon="15.11751448362791"><ele>407.0</ele><time>2026-04-26T08:33:21.929Z</time></trkpt><trkpt lat="38.047814597769936" lon="15.11738465453409"><ele>407.0</ele><time>2026-04-26T08:33:22.929Z</time></trkpt><trkpt lat="38.04797966773206" lon="15.117280346309556"><ele>396.66666666666663</ele><time>2026-04-26T08:33:23.929Z</time></trkpt><trkpt lat="38.0481484101544" lon="15.117244850799848"><ele>386.3333333333333</ele><time>2026-04-26T08:33:24.929Z</time></trkpt><trkpt lat="38.04832228146168" lon="15.11723701791637"><ele>376.0</ele><time>2026-04-26T08:33:25.929Z</time></trkpt><trkpt lat="38.04846666719358" lon="15.117257591639413"><ele>374.66666666666663</ele><time>2026-04-26T08:33:26.929Z</time></trkpt><trkpt lat="38.04858037952931" lon="15.117324049115114"><ele>373.3333333333333</ele><time>2026-04-26T08:33:27.929Z</time></trkpt><trkpt lat="38.04871416587456" lon="15.117417072498915"><ele>372.0</ele><time>2026-04-26T08:33:28.929Z</time></trkpt><trkpt lat="38.04889013113593" lon="15.117473821726032"><ele>381.66666666666663</ele><time>2026-04-26T08:33:29.929Z</time></trkpt><trkpt lat="38.04907413372691" lon="15.11750473203485"><ele>391.3333333333333</ele><time>2026-04-26T08:33:30.929Z</time></trkpt><trkpt lat="38.0492828232172" lon="15.117540543110165"><ele>401.0</ele><time>2026-04-26T08:33:31.929Z</time></trkpt><trkpt lat="38.04951191992985" lon="15.11757966530144"><ele>401.0</ele><time>2026-04-26T08:33:32.928Z</time></trkpt><trkpt lat="38.04974207269082" lon="15.117618402158087"><ele>401.0</ele><time>2026-04-26T08:33:33.928Z</time></trkpt><trkpt lat="38.04998374672896" lon="15.117659078196844"><ele>397.3333333333333</ele><time>2026-04-26T08:33:34.928Z</time></trkpt><trkpt lat="38.0501999914506" lon="15.117677807211539"><ele>393.66666666666663</ele><time>2026-04-26T08:33:35.928Z</time></trkpt><trkpt lat="38.05038477021246" lon="15.11773189112348"><ele>390.0</ele><time>2026-04-26T08:33:36.928Z</time></trkpt><trkpt lat="38.05054577247326" lon="15.117759653259721"><ele>390.0</ele><time>2026-04-26T08:33:37.928Z</time></trkpt><trkpt lat="38.05068043929931" lon="15.117749333180186"><ele>390.0</ele><time>2026-04-26T08:33:38.928Z</time></trkpt><trkpt lat="38.05081294565901" lon="15.117690263713921"><ele>390.0</ele><time>2026-04-26T08:33:39.928Z</time></trkpt><trkpt lat="38.05091297124808" lon="15.117548658148854"><ele>390.0</ele><time>2026-04-26T08:33:40.928Z</time></trkpt><trkpt lat="38.0509832166626" lon="15.117341811861456"><ele>382.6666666666667</ele><time>2026-04-26T08:33:41.928Z</time></trkpt><trkpt lat="38.05105955182017" lon="15.117162536866063"><ele>375.33333333333337</ele><time>2026-04-26T08:33:42.928Z</time></trkpt><trkpt lat="38.051151426311634" lon="15.11701033257635"><ele>368.0</ele><time>2026-04-26T08:33:43.928Z</time></trkpt><trkpt lat="38.05126799469638" lon="15.116896912467089"><ele>368.0</ele><time>2026-04-26T08:33:44.928Z</time></trkpt><trkpt lat="38.05140697049653" lon="15.116859511805819"><ele>368.0</ele><time>2026-04-26T08:33:45.928Z</time></trkpt><trkpt lat="38.051559803351935" lon="15.116851277214515"><ele>368.0</ele><time>2026-04-26T08:33:46.928Z</time></trkpt><trkpt lat="38.05172640157833" lon="15.116930404330752"><ele>368.6666666666667</ele><time>2026-04-26T08:33:47.928Z</time></trkpt><trkpt lat="38.05188937286493" lon="15.117053707726509"><ele>369.3333333333333</ele><time>2026-04-26T08:33:48.928Z</time></trkpt><trkpt lat="38.05204785346835" lon="15.117157273378707"><ele>370.0</ele><time>2026-04-26T08:33:49.928Z</time></trkpt><trkpt lat="38.052184440413875" lon="15.117300304174906"><ele>373.0</ele><time>2026-04-26T08:33:50.928Z</time></trkpt><trkpt lat="38.05231173919529" lon="15.117434824058082"><ele>376.0</ele><time>2026-04-26T08:33:51.928Z</time></trkpt><trkpt lat="38.05243895926147" lon="15.11751637488417"><ele>379.0</ele><time>2026-04-26T08:33:52.928Z</time></trkpt><trkpt lat="38.052586709119474" lon="15.117550262266814"><ele>379.0</ele><time>2026-04-26T08:33:53.928Z</time></trkpt><trkpt lat="38.05276623667199" lon="15.117531463969609"><ele>379.0</ele><time>2026-04-26T08:33:54.928Z</time></trkpt><trkpt lat="38.0529262169431" lon="15.117470972091473"><ele>379.0</ele><time>2026-04-26T08:33:55.928Z</time></trkpt><trkpt lat="38.05306421673445" lon="15.11741837444845"><ele>379.0</ele><time>2026-04-26T08:33:56.928Z</time></trkpt><trkpt lat="38.053176851610836" lon="15.117383140208345"><ele>379.0</ele><time>2026-04-26T08:33:57.928Z</time></trkpt><trkpt lat="38.05326974270903" lon="15.117403783321283"><ele>379.0</ele><time>2026-04-26T08:33:58.928Z</time></trkpt><trkpt lat="38.05333646256659" lon="15.117482035641295"><ele>379.0</ele><time>2026-04-26T08:33:59.928Z</time></trkpt><trkpt lat="38.053380587993175" lon="15.117631736656827"><ele>379.0</ele><time>2026-04-26T08:34:00.928Z</time></trkpt><trkpt lat="38.05344617507647" lon="15.117803905874078"><ele>377.66666666666663</ele><time>2026-04-26T08:34:01.928Z</time></trkpt><trkpt lat="38.05352633352605" lon="15.117994143488485"><ele>376.3333333333333</ele><time>2026-04-26T08:34:02.928Z</time></trkpt><trkpt lat="38.0536156841347" lon="15.118157628508524"><ele>375.0</ele><time>2026-04-26T08:34:03.928Z</time></trkpt><trkpt lat="38.05374415297242" lon="15.118266588316526"><ele>370.6666666666667</ele><time>2026-04-26T08:34:04.928Z</time></trkpt><trkpt lat="38.053883762126745" lon="15.118358095128334"><ele>366.33333333333337</ele><time>2026-04-26T08:34:05.928Z</time></trkpt><trkpt lat="38.054022757603455" lon="15.118445961796159"><ele>362.0</ele><time>2026-04-26T08:34:06.928Z</time></trkpt><trkpt lat="38.05415219453937" lon="15.11853636638449"><ele>362.0</ele><time>2026-04-26T08:34:07.927Z</time></trkpt><trkpt lat="38.05426027801405" lon="15.11864799672538"><ele>362.0</ele><time>2026-04-26T08:34:08.927Z</time></trkpt><trkpt lat="38.05434272820855" lon="15.118794726074894"><ele>362.0</ele><time>2026-04-26T08:34:09.927Z</time></trkpt><trkpt lat="38.054393075179206" lon="15.118955661603502"><ele>362.0</ele><time>2026-04-26T08:34:10.927Z</time></trkpt><trkpt lat="38.05440164349057" lon="15.119156489900005"><ele>366.6666666666667</ele><time>2026-04-26T08:34:11.927Z</time></trkpt><trkpt lat="38.05438645302822" lon="15.119389567894512"><ele>371.3333333333333</ele><time>2026-04-26T08:34:12.927Z</time></trkpt><trkpt lat="38.054408282346344" lon="15.11965217600923"><ele>376.0</ele><time>2026-04-26T08:34:13.927Z</time></trkpt><trkpt lat="38.05444637917633" lon="15.119883168680227"><ele>375.66666666666663</ele><time>2026-04-26T08:34:14.927Z</time></trkpt><trkpt lat="38.05448808801712" lon="15.120099271104726"><ele>375.3333333333333</ele><time>2026-04-26T08:34:15.927Z</time></trkpt><trkpt lat="38.05457310555394" lon="15.120280322651219"><ele>375.0</ele><time>2026-04-26T08:34:16.927Z</time></trkpt><trkpt lat="38.0546328202278" lon="15.12046254714008"><ele>375.0</ele><time>2026-04-26T08:34:17.927Z</time></trkpt><trkpt lat="38.054677423956676" lon="15.120625933557783"><ele>375.0</ele><time>2026-04-26T08:34:18.927Z</time></trkpt><trkpt lat="38.05467746320059" lon="15.120795032819888"><ele>375.0</ele><time>2026-04-26T08:34:19.927Z</time></trkpt><trkpt lat="38.05465254794628" lon="15.120958502870693"><ele>375.0</ele><time>2026-04-26T08:34:20.927Z</time></trkpt><trkpt lat="38.054582533465044" lon="15.121111520411077"><ele>374.25</ele><time>2026-04-26T08:34:21.927Z</time></trkpt><trkpt lat="38.05455218006373" lon="15.121274102118557"><ele>373.5</ele><time>2026-04-26T08:34:22.927Z</time></trkpt><trkpt lat="38.054608570506964" lon="15.121405791755661"><ele>372.75</ele><time>2026-04-26T08:34:23.927Z</time></trkpt><trkpt lat="38.05471320220367" lon="15.121515365409264"><ele>372.0</ele><time>2026-04-26T08:34:24.927Z</time></trkpt><trkpt lat="38.05486119236816" lon="15.121607231350781"><ele>367.0</ele><time>2026-04-26T08:34:25.927Z</time></trkpt><trkpt lat="38.055026308495904" lon="15.121664340653957"><ele>362.0</ele><time>2026-04-26T08:34:26.927Z</time></trkpt><trkpt lat="38.0551979203193" lon="15.121769093831254"><ele>357.0</ele><time>2026-04-26T08:34:27.927Z</time></trkpt><trkpt lat="38.05538198720266" lon="15.12183037886171"><ele>357.0</ele><time>2026-04-26T08:34:28.927Z</time></trkpt><trkpt lat="38.05555721533853" lon="15.121860451106075"><ele>357.0</ele><time>2026-04-26T08:34:29.927Z</time></trkpt><trkpt lat="38.0557116458486" lon="15.121888943298508"><ele>357.0</ele><time>2026-04-26T08:34:30.927Z</time></trkpt><trkpt lat="38.0558651843229" lon="15.12193238056803"><ele>350.3333333333333</ele><time>2026-04-26T08:34:31.927Z</time></trkpt><trkpt lat="38.05599865819733" lon="15.122013698137646"><ele>343.66666666666663</ele><time>2026-04-26T08:34:32.927Z</time></trkpt><trkpt lat="38.05614140515361" lon="15.122099402837655"><ele>337.0</ele><time>2026-04-26T08:34:33.927Z</time></trkpt><trkpt lat="38.056287701391575" lon="15.122181958793716"><ele>337.0</ele><time>2026-04-26T08:34:34.927Z</time></trkpt><trkpt lat="38.05641466066091" lon="15.122266921693893"><ele>337.0</ele><time>2026-04-26T08:34:35.927Z</time></trkpt><trkpt lat="38.056528407586235" lon="15.122311811709107"><ele>337.0</ele><time>2026-04-26T08:34:36.927Z</time></trkpt><trkpt lat="38.05662746613216" lon="15.122289292427736"><ele>337.0</ele><time>2026-04-26T08:34:37.927Z</time></trkpt><trkpt lat="38.05670574677804" lon="15.122225376081852"><ele>337.0</ele><time>2026-04-26T08:34:38.927Z</time></trkpt><trkpt lat="38.05675431095069" lon="15.122118153890293"><ele>337.0</ele><time>2026-04-26T08:34:39.927Z</time></trkpt><trkpt lat="38.056756771342485" lon="15.121990263705177"><ele>337.0</ele><time>2026-04-26T08:34:40.927Z</time></trkpt><trkpt lat="38.056703498657825" lon="15.121862142729736"><ele>337.0</ele><time>2026-04-26T08:34:41.927Z</time></trkpt><trkpt lat="38.05659979076043" lon="15.121746027654423"><ele>337.0</ele><time>2026-04-26T08:34:42.927Z</time></trkpt><trkpt lat="38.05646786256058" lon="15.121665677596448"><ele>337.0</ele><time>2026-04-26T08:34:43.926Z</time></trkpt><trkpt lat="38.05632704278301" lon="15.121644901063787"><ele>337.0</ele><time>2026-04-26T08:34:44.926Z</time></trkpt><trkpt lat="38.05617929154265" lon="15.121661388455408"><ele>337.0</ele><time>2026-04-26T08:34:45.926Z</time></trkpt><trkpt lat="38.05603052568817" lon="15.121643934986695"><ele>337.0</ele><time>2026-04-26T08:34:46.926Z</time></trkpt><trkpt lat="38.05588178992782" lon="15.12157669311401"><ele>337.0</ele><time>2026-04-26T08:34:47.926Z</time></trkpt><trkpt lat="38.05576646454974" lon="15.121477615979677"><ele>337.0</ele><time>2026-04-26T08:34:48.926Z</time></trkpt><trkpt lat="38.055688627025965" lon="15.121381459436366"><ele>337.0</ele><time>2026-04-26T08:34:49.926Z</time></trkpt><trkpt lat="38.05565506636376" lon="15.12127159900692"><ele>339.25</ele><time>2026-04-26T08:34:50.926Z</time></trkpt><trkpt lat="38.05567110950647" lon="15.121148327286715"><ele>341.5</ele><time>2026-04-26T08:34:51.926Z</time></trkpt><trkpt lat="38.055753310188514" lon="15.121014055498188"><ele>343.75</ele><time>2026-04-26T08:34:52.926Z</time></trkpt><trkpt lat="38.055866484071466" lon="15.120871391376138"><ele>346.0</ele><time>2026-04-26T08:34:53.926Z</time></trkpt><trkpt lat="38.055962179660675" lon="15.120716001544583"><ele>337.66666666666663</ele><time>2026-04-26T08:34:54.926Z</time></trkpt><trkpt lat="38.05601230043752" lon="15.1205286636859"><ele>329.3333333333333</ele><time>2026-04-26T08:34:55.926Z</time></trkpt><trkpt lat="38.05601532844482" lon="15.120333182584341"><ele>321.0</ele><time>2026-04-26T08:34:56.926Z</time></trkpt><trkpt lat="38.05598943628508" lon="15.12011722962398"><ele>321.0</ele><time>2026-04-26T08:34:57.926Z</time></trkpt><trkpt lat="38.05595875978611" lon="15.119906601915808"><ele>321.0</ele><time>2026-04-26T08:34:58.926Z</time></trkpt><trkpt lat="38.055948148078976" lon="15.119714713019025"><ele>321.0</ele><time>2026-04-26T08:34:59.926Z</time></trkpt><trkpt lat="38.05599276362061" lon="15.119549013983011"><ele>321.0</ele><time>2026-04-26T08:35:00.926Z</time></trkpt><trkpt lat="38.0560717115122" lon="15.119375548449959"><ele>321.0</ele><time>2026-04-26T08:35:01.926Z</time></trkpt><trkpt lat="38.05614065342247" lon="15.119162653038257"><ele>321.0</ele><time>2026-04-26T08:35:02.928Z</time></trkpt><trkpt lat="38.05619219370324" lon="15.118914232940737"><ele>321.0</ele><time>2026-04-26T08:35:03.928Z</time></trkpt><trkpt lat="38.0562399349809" lon="15.118670917239108"><ele>321.0</ele><time>2026-04-26T08:35:04.928Z</time></trkpt><trkpt lat="38.05630227024057" lon="15.118452640459324"><ele>321.0</ele><time>2026-04-26T08:35:05.928Z</time></trkpt><trkpt lat="38.056408293158555" lon="15.118285203574391"><ele>315.25</ele><time>2026-04-26T08:35:06.928Z</time></trkpt><trkpt lat="38.05652260250371" lon="15.118143172746159"><ele>309.5</ele><time>2026-04-26T08:35:07.928Z</time></trkpt><trkpt lat="38.05662854892413" lon="15.11801495304283"><ele>303.75</ele><time>2026-04-26T08:35:08.927Z</time></trkpt><trkpt lat="38.05671781337631" lon="15.117907030358154"><ele>298.0</ele><time>2026-04-26T08:35:09.928Z</time></trkpt><trkpt lat="38.05678628815993" lon="15.117845126704411"><ele>298.0</ele><time>2026-04-26T08:35:10.928Z</time></trkpt><trkpt lat="38.05689465835095" lon="15.117875901163794"><ele>298.0</ele><time>2026-04-26T08:35:12.927Z</time></trkpt><trkpt lat="38.05691869710778" lon="15.11796727190708"><ele>298.0</ele><time>2026-04-26T08:35:13.927Z</time></trkpt><trkpt lat="38.056900568577596" lon="15.118059436748217"><ele>298.0</ele><time>2026-04-26T08:35:14.928Z</time></trkpt><trkpt lat="38.0567723022776" lon="15.11815265488916"><ele>298.0</ele><time>2026-04-26T08:35:15.927Z</time></trkpt><trkpt lat="38.05663506613245" lon="15.118245813946059"><ele>305.66666666666663</ele><time>2026-04-26T08:35:16.927Z</time></trkpt><trkpt lat="38.05652401053128" lon="15.118364485708781"><ele>313.3333333333333</ele><time>2026-04-26T08:35:17.927Z</time></trkpt><trkpt lat="38.05646787209688" lon="15.118540019184804"><ele>321.0</ele><time>2026-04-26T08:35:18.927Z</time></trkpt><trkpt lat="38.05640595499957" lon="15.118727368432674"><ele>321.0</ele><time>2026-04-26T08:35:19.927Z</time></trkpt><trkpt lat="38.05638738457557" lon="15.118964766817207"><ele>321.0</ele><time>2026-04-26T08:35:20.927Z</time></trkpt><trkpt lat="38.056395118584255" lon="15.119178197806066"><ele>321.0</ele><time>2026-04-26T08:35:21.927Z</time></trkpt><trkpt lat="38.05638124622568" lon="15.119377679812343"><ele>321.0</ele><time>2026-04-26T08:35:22.927Z</time></trkpt><trkpt lat="38.0563844300764" lon="15.11955800771048"><ele>321.0</ele><time>2026-04-26T08:35:23.927Z</time></trkpt><trkpt lat="38.056381631143665" lon="15.119728630900507"><ele>321.0</ele><time>2026-04-26T08:35:24.927Z</time></trkpt><trkpt lat="38.05641197064228" lon="15.119879040367408"><ele>321.0</ele><time>2026-04-26T08:35:25.927Z</time></trkpt><trkpt lat="38.05647422617159" lon="15.120011341985787"><ele>321.0</ele><time>2026-04-26T08:35:26.927Z</time></trkpt><trkpt lat="38.05657681049952" lon="15.120083938001752"><ele>321.0</ele><time>2026-04-26T08:35:27.927Z</time></trkpt><trkpt lat="38.056718253095404" lon="15.120120985359906"><ele>321.0</ele><time>2026-04-26T08:35:28.927Z</time></trkpt><trkpt lat="38.05687773450593" lon="15.12016454540352"><ele>321.0</ele><time>2026-04-26T08:35:29.927Z</time></trkpt><trkpt lat="38.05702251688816" lon="15.120206636923426"><ele>311.3333333333333</ele><time>2026-04-26T08:35:30.927Z</time></trkpt><trkpt lat="38.05716777935154" lon="15.120304437697138"><ele>301.66666666666663</ele><time>2026-04-26T08:35:31.927Z</time></trkpt><trkpt lat="38.05730239052833" lon="15.120425017577494"><ele>292.0</ele><time>2026-04-26T08:35:32.927Z</time></trkpt><trkpt lat="38.057447891410185" lon="15.12055163567245"><ele>289.3333333333333</ele><time>2026-04-26T08:35:33.927Z</time></trkpt><trkpt lat="38.05760368514716" lon="15.120693512598834"><ele>286.6666666666667</ele><time>2026-04-26T08:35:34.927Z</time></trkpt><trkpt lat="38.057764979860295" lon="15.120830813078939"><ele>284.0</ele><time>2026-04-26T08:35:35.927Z</time></trkpt><trkpt lat="38.05792946869352" lon="15.120981367619116"><ele>284.0</ele><time>2026-04-26T08:35:36.927Z</time></trkpt><trkpt lat="38.05809012376289" lon="15.121130197106213"><ele>284.0</ele><time>2026-04-26T08:35:37.926Z</time></trkpt><trkpt lat="38.058254604116925" lon="15.12127234741926"><ele>284.0</ele><time>2026-04-26T08:35:38.926Z</time></trkpt><trkpt lat="38.058414556222125" lon="15.121409258886512"><ele>281.6666666666667</ele><time>2026-04-26T08:35:39.926Z</time></trkpt><trkpt lat="38.058560635699905" lon="15.121541062626775"><ele>279.3333333333333</ele><time>2026-04-26T08:35:40.926Z</time></trkpt><trkpt lat="38.05871981390099" lon="15.121646529288364"><ele>277.0</ele><time>2026-04-26T08:35:41.926Z</time></trkpt><trkpt lat="38.058882380998085" lon="15.121733931526853"><ele>277.0</ele><time>2026-04-26T08:35:42.926Z</time></trkpt><trkpt lat="38.059054901343174" lon="15.121813550696075"><ele>277.0</ele><time>2026-04-26T08:35:43.926Z</time></trkpt><trkpt lat="38.05921826915975" lon="15.121886576825807"><ele>277.0</ele><time>2026-04-26T08:35:44.926Z</time></trkpt><trkpt lat="38.05937111125313" lon="15.121968788397671"><ele>270.75</ele><time>2026-04-26T08:35:45.926Z</time></trkpt><trkpt lat="38.059503095708735" lon="15.122065899516025"><ele>264.5</ele><time>2026-04-26T08:35:46.926Z</time></trkpt><trkpt lat="38.05961583787394" lon="15.122145789528993"><ele>258.25</ele><time>2026-04-26T08:35:47.926Z</time></trkpt><trkpt lat="38.05969640646138" lon="15.122241478311324"><ele>252.0</ele><time>2026-04-26T08:35:48.926Z</time></trkpt><trkpt lat="38.059724829543406" lon="15.122364145367674"><ele>255.25</ele><time>2026-04-26T08:35:49.926Z</time></trkpt><trkpt lat="38.059695027363944" lon="15.122480739086551"><ele>258.5</ele><time>2026-04-26T08:35:50.926Z</time></trkpt><trkpt lat="38.05961131218167" lon="15.122538390967264"><ele>261.75</ele><time>2026-04-26T08:35:51.926Z</time></trkpt><trkpt lat="38.059508937776265" lon="15.12260989268233"><ele>265.0</ele><time>2026-04-26T08:35:52.926Z</time></trkpt><trkpt lat="38.059397770190955" lon="15.122749258957272"><ele>265.0</ele><time>2026-04-26T08:35:53.926Z</time></trkpt><trkpt lat="38.059275584932635" lon="15.122865720763237"><ele>265.0</ele><time>2026-04-26T08:35:54.926Z</time></trkpt><trkpt lat="38.059116034492924" lon="15.122965631165583"><ele>265.0</ele><time>2026-04-26T08:35:55.926Z</time></trkpt><trkpt lat="38.05893007653107" lon="15.123062532547145"><ele>263.66666666666663</ele><time>2026-04-26T08:35:56.926Z</time></trkpt><trkpt lat="38.058760816661994" lon="15.12316141437218"><ele>262.3333333333333</ele><time>2026-04-26T08:35:57.926Z</time></trkpt><trkpt lat="38.058628869793296" lon="15.123261742528445"><ele>261.0</ele><time>2026-04-26T08:35:58.926Z</time></trkpt><trkpt lat="38.05853157123703" lon="15.123400674178987"><ele>261.0</ele><time>2026-04-26T08:35:59.926Z</time></trkpt><trkpt lat="38.05846513952781" lon="15.123618223981172"><ele>261.0</ele><time>2026-04-26T08:36:00.926Z</time></trkpt><trkpt lat="38.05841549889749" lon="15.123839104341998"><ele>261.0</ele><time>2026-04-26T08:36:01.926Z</time></trkpt><trkpt lat="38.0583800137021" lon="15.124079942051909"><ele>257.25</ele><time>2026-04-26T08:36:02.926Z</time></trkpt><trkpt lat="38.05834149051438" lon="15.12426816865175"><ele>253.5</ele><time>2026-04-26T08:36:03.926Z</time></trkpt><trkpt lat="38.05831241657675" lon="15.124441009832374"><ele>249.75</ele><time>2026-04-26T08:36:04.926Z</time></trkpt><trkpt lat="38.058340902176724" lon="15.124602252219434"><ele>246.0</ele><time>2026-04-26T08:36:05.926Z</time></trkpt><trkpt lat="38.05841329044426" lon="15.124735941803607"><ele>246.0</ele><time>2026-04-26T08:36:06.926Z</time></trkpt><trkpt lat="38.058521693003584" lon="15.124813771906998"><ele>246.0</ele><time>2026-04-26T08:36:07.926Z</time></trkpt><trkpt lat="38.05867163946616" lon="15.12484329772389"><ele>246.0</ele><time>2026-04-26T08:36:08.926Z</time></trkpt><trkpt lat="38.05884929477202" lon="15.124812330540992"><ele>246.0</ele><time>2026-04-26T08:36:09.926Z</time></trkpt><trkpt lat="38.05903600856207" lon="15.124749539384137"><ele>246.0</ele><time>2026-04-26T08:36:10.926Z</time></trkpt><trkpt lat="38.059234767512905" lon="15.124663355170213"><ele>246.0</ele><time>2026-04-26T08:36:11.926Z</time></trkpt><trkpt lat="38.059423727216256" lon="15.124601948309433"><ele>242.60000000000002</ele><time>2026-04-26T08:36:12.925Z</time></trkpt><trkpt lat="38.05958015410582" lon="15.124570435879331"><ele>239.20000000000002</ele><time>2026-04-26T08:36:13.925Z</time></trkpt><trkpt lat="38.05971123653906" lon="15.124556609479484"><ele>235.79999999999998</ele><time>2026-04-26T08:36:14.925Z</time></trkpt><trkpt lat="38.05978925345734" lon="15.124600248886932"><ele>232.39999999999998</ele><time>2026-04-26T08:36:15.925Z</time></trkpt><trkpt lat="38.05983985196287" lon="15.12466852996377"><ele>229.0</ele><time>2026-04-26T08:36:16.925Z</time></trkpt><trkpt lat="38.05982897295794" lon="15.124793747248567"><ele>240.0</ele><time>2026-04-26T08:36:17.925Z</time></trkpt><trkpt lat="38.059777198498914" lon="15.124984309889962"><ele>251.0</ele><time>2026-04-26T08:36:18.925Z</time></trkpt><trkpt lat="38.05975211286355" lon="15.125238047184714"><ele>262.0</ele><time>2026-04-26T08:36:19.925Z</time></trkpt><trkpt lat="38.05973466140628" lon="15.12546312965589"><ele>262.0</ele><time>2026-04-26T08:36:20.925Z</time></trkpt><trkpt lat="38.05975645423457" lon="15.125646185949154"><ele>262.0</ele><time>2026-04-26T08:36:21.925Z</time></trkpt><trkpt lat="38.05975779415056" lon="15.12576942097973"><ele>262.0</ele><time>2026-04-26T08:36:22.925Z</time></trkpt><trkpt lat="38.05980433974926" lon="15.125853746889145"><ele>262.0</ele><time>2026-04-26T08:36:23.925Z</time></trkpt><trkpt lat="38.05992646640773" lon="15.125921985885352"><ele>256.25</ele><time>2026-04-26T08:36:24.925Z</time></trkpt><trkpt lat="38.06004139554483" lon="15.125970751611263"><ele>250.5</ele><time>2026-04-26T08:36:25.925Z</time></trkpt><trkpt lat="38.06014917839715" lon="15.12596484693051"><ele>244.75</ele><time>2026-04-26T08:36:26.925Z</time></trkpt><trkpt lat="38.06024511655594" lon="15.125884065951531"><ele>239.0</ele><time>2026-04-26T08:36:27.925Z</time></trkpt><trkpt lat="38.06032432927246" lon="15.12570460113523"><ele>233.66666666666669</ele><time>2026-04-26T08:36:28.925Z</time></trkpt><trkpt lat="38.06040633788078" lon="15.12550927268699"><ele>228.33333333333331</ele><time>2026-04-26T08:36:29.925Z</time></trkpt><trkpt lat="38.0605275273782" lon="15.125320578723864"><ele>223.0</ele><time>2026-04-26T08:36:30.925Z</time></trkpt><trkpt lat="38.06066498780308" lon="15.12516282953009"><ele>223.0</ele><time>2026-04-26T08:36:31.925Z</time></trkpt><trkpt lat="38.06076218863266" lon="15.124991664542014"><ele>223.0</ele><time>2026-04-26T08:36:32.925Z</time></trkpt><trkpt lat="38.060834811896534" lon="15.12480508042789"><ele>223.0</ele><time>2026-04-26T08:36:33.925Z</time></trkpt><trkpt lat="38.060912579590536" lon="15.124653422226439"><ele>218.75</ele><time>2026-04-26T08:36:34.925Z</time></trkpt><trkpt lat="38.0610006683407" lon="15.124525192225033"><ele>214.5</ele><time>2026-04-26T08:36:35.925Z</time></trkpt><trkpt lat="38.06110198089486" lon="15.12442272919244"><ele>210.25</ele><time>2026-04-26T08:36:36.925Z</time></trkpt><trkpt lat="38.061222096528155" lon="15.1243962681651"><ele>206.0</ele><time>2026-04-26T08:36:37.925Z</time></trkpt><trkpt lat="38.06137466056351" lon="15.12437946988668"><ele>206.0</ele><time>2026-04-26T08:36:38.925Z</time></trkpt><trkpt lat="38.06155742090749" lon="15.124344725182887"><ele>206.0</ele><time>2026-04-26T08:36:39.925Z</time></trkpt><trkpt lat="38.06168865166678" lon="15.124233822153302"><ele>206.0</ele><time>2026-04-26T08:36:40.925Z</time></trkpt><trkpt lat="38.06178539976407" lon="15.12415225877522"><ele>202.0</ele><time>2026-04-26T08:36:41.925Z</time></trkpt><trkpt lat="38.061882960279114" lon="15.12406003523202"><ele>198.0</ele><time>2026-04-26T08:36:42.925Z</time></trkpt><trkpt lat="38.06200662456624" lon="15.123970768660008"><ele>194.0</ele><time>2026-04-26T08:36:43.925Z</time></trkpt><trkpt lat="38.06213868499871" lon="15.123918980031544"><ele>190.0</ele><time>2026-04-26T08:36:44.925Z</time></trkpt><trkpt lat="38.06223095026595" lon="15.1238596318811"><ele>190.0</ele><time>2026-04-26T08:36:45.925Z</time></trkpt><trkpt lat="38.062330781020655" lon="15.123863498895401"><ele>190.0</ele><time>2026-04-26T08:36:46.925Z</time></trkpt><trkpt lat="38.06246154883129" lon="15.123893717936294"><ele>190.0</ele><time>2026-04-26T08:36:47.925Z</time></trkpt><trkpt lat="38.06259148577093" lon="15.123935708495964"><ele>190.0</ele><time>2026-04-26T08:36:48.924Z</time></trkpt><trkpt lat="38.06273071198209" lon="15.124027883975534"><ele>203.33333333333334</ele><time>2026-04-26T08:36:49.924Z</time></trkpt><trkpt lat="38.06287247966023" lon="15.124138013657456"><ele>216.66666666666669</ele><time>2026-04-26T08:36:50.924Z</time></trkpt><trkpt lat="38.06301135598465" lon="15.124246534577528"><ele>230.0</ele><time>2026-04-26T08:36:51.924Z</time></trkpt><trkpt lat="38.063127805656485" lon="15.124358727093789"><ele>230.0</ele><time>2026-04-26T08:36:52.924Z</time></trkpt><trkpt lat="38.063209128778254" lon="15.124473738777787"><ele>230.0</ele><time>2026-04-26T08:36:53.924Z</time></trkpt><trkpt lat="38.06326172386403" lon="15.124593869449424"><ele>230.0</ele><time>2026-04-26T08:36:54.924Z</time></trkpt><trkpt lat="38.06327846209057" lon="15.12475600283124"><ele>230.0</ele><time>2026-04-26T08:36:55.924Z</time></trkpt><trkpt lat="38.063360268947335" lon="15.124887648932992"><ele>232.5</ele><time>2026-04-26T08:36:56.924Z</time></trkpt><trkpt lat="38.06347431127333" lon="15.12499236700855"><ele>235.0</ele><time>2026-04-26T08:36:57.924Z</time></trkpt><trkpt lat="38.063595889376806" lon="15.12507577050228"><ele>237.5</ele><time>2026-04-26T08:36:58.924Z</time></trkpt><trkpt lat="38.0637182924126" lon="15.125185459534991"><ele>240.0</ele><time>2026-04-26T08:36:59.924Z</time></trkpt><trkpt lat="38.063834284678215" lon="15.125332504235763"><ele>240.0</ele><time>2026-04-26T08:37:00.924Z</time></trkpt><trkpt lat="38.063942871752225" lon="15.125518109664123"><ele>240.0</ele><time>2026-04-26T08:37:01.924Z</time></trkpt><trkpt lat="38.06403616352756" lon="15.125686077144042"><ele>240.0</ele><time>2026-04-26T08:37:02.924Z</time></trkpt><trkpt lat="38.06412373185228" lon="15.125834060063822"><ele>236.0</ele><time>2026-04-26T08:37:03.924Z</time></trkpt><trkpt lat="38.064179288716986" lon="15.126006718897402"><ele>232.0</ele><time>2026-04-26T08:37:04.924Z</time></trkpt><trkpt lat="38.06422438907968" lon="15.126191480827638"><ele>228.0</ele><time>2026-04-26T08:37:05.924Z</time></trkpt><trkpt lat="38.06427316198983" lon="15.126368780107168"><ele>224.0</ele><time>2026-04-26T08:37:06.924Z</time></trkpt><trkpt lat="38.064308542484795" lon="15.126523385472424"><ele>224.0</ele><time>2026-04-26T08:37:07.924Z</time></trkpt><trkpt lat="38.06435507324351" lon="15.12663804238124"><ele>223.99999999999997</ele><time>2026-04-26T08:37:08.926Z</time></trkpt><trkpt lat="38.064438268602956" lon="15.126711120781282"><ele>223.99999999999997</ele><time>2026-04-26T08:37:09.925Z</time></trkpt><trkpt lat="38.06453654882727" lon="15.12672343067262"><ele>224.0</ele><time>2026-04-26T08:37:10.925Z</time></trkpt><trkpt lat="38.06466206566253" lon="15.1266868149192"><ele>224.0</ele><time>2026-04-26T08:37:11.925Z</time></trkpt><trkpt lat="38.064778527699374" lon="15.126551194579148"><ele>224.0</ele><time>2026-04-26T08:37:12.925Z</time></trkpt><trkpt lat="38.06487162624326" lon="15.126403469655019"><ele>224.0</ele><time>2026-04-26T08:37:13.925Z</time></trkpt><trkpt lat="38.0649825564442" lon="15.126267711084585"><ele>224.0</ele><time>2026-04-26T08:37:14.925Z</time></trkpt><trkpt lat="38.06512591195872" lon="15.126212222309771"><ele>226.0</ele><time>2026-04-26T08:37:15.925Z</time></trkpt><trkpt lat="38.06524493368211" lon="15.126187562947349"><ele>227.99999999999997</ele><time>2026-04-26T08:37:16.925Z</time></trkpt><trkpt lat="38.06533082699638" lon="15.126212018105672"><ele>229.99999999999997</ele><time>2026-04-26T08:37:17.926Z</time></trkpt><trkpt lat="38.065404765787434" lon="15.126294127397518"><ele>232.0</ele><time>2026-04-26T08:37:18.926Z</time></trkpt><trkpt lat="38.0654320946498" lon="15.12645542976838"><ele>234.0</ele><time>2026-04-26T08:37:19.926Z</time></trkpt><trkpt lat="38.06543396050941" lon="15.126669801867747"><ele>234.0</ele><time>2026-04-26T08:37:20.926Z</time></trkpt><trkpt lat="38.065442345843" lon="15.12686988412307"><ele>234.0</ele><time>2026-04-26T08:37:21.925Z</time></trkpt><trkpt lat="38.06547391085961" lon="15.127006135490332"><ele>234.0</ele><time>2026-04-26T08:37:22.925Z</time></trkpt><trkpt lat="38.06554844072221" lon="15.127090519889574"><ele>234.0</ele><time>2026-04-26T08:37:23.925Z</time></trkpt><trkpt lat="38.06564908179593" lon="15.127113675452124"><ele>230.75</ele><time>2026-04-26T08:37:24.925Z</time></trkpt><trkpt lat="38.065779142626866" lon="15.12709910430916"><ele>227.5</ele><time>2026-04-26T08:37:25.925Z</time></trkpt><trkpt lat="38.065942128190734" lon="15.127087960553249"><ele>224.25</ele><time>2026-04-26T08:37:26.925Z</time></trkpt><trkpt lat="38.066064796467764" lon="15.127156285839485"><ele>221.0</ele><time>2026-04-26T08:37:27.925Z</time></trkpt><trkpt lat="38.06619910596975" lon="15.127272651418833"><ele>221.0</ele><time>2026-04-26T08:37:28.925Z</time></trkpt><trkpt lat="38.066293283912735" lon="15.12736406424543"><ele>221.0</ele><time>2026-04-26T08:37:29.925Z</time></trkpt><trkpt lat="38.06638981273348" lon="15.12746417236661"><ele>221.0</ele><time>2026-04-26T08:37:30.925Z</time></trkpt><trkpt lat="38.06648543977725" lon="15.127519287966061"><ele>221.0</ele><time>2026-04-26T08:37:31.925Z</time></trkpt><trkpt lat="38.06659941463129" lon="15.12752732017185"><ele>217.5</ele><time>2026-04-26T08:37:32.925Z</time></trkpt><trkpt lat="38.066692064566254" lon="15.127447568217539"><ele>214.0</ele><time>2026-04-26T08:37:33.925Z</time></trkpt><trkpt lat="38.06672839204154" lon="15.127318607280964"><ele>210.5</ele><time>2026-04-26T08:37:34.925Z</time></trkpt><trkpt lat="38.06672871574264" lon="15.127157248856326"><ele>207.0</ele><time>2026-04-26T08:37:35.925Z</time></trkpt><trkpt lat="38.0667293066195" lon="15.126996679533216"><ele>207.0</ele><time>2026-04-26T08:37:36.925Z</time></trkpt><trkpt lat="38.06675811244081" lon="15.126818970566573"><ele>207.0</ele><time>2026-04-26T08:37:37.925Z</time></trkpt><trkpt lat="38.066821422614886" lon="15.126702574925837"><ele>207.0</ele><time>2026-04-26T08:37:38.925Z</time></trkpt><trkpt lat="38.06690625979657" lon="15.126667580325947"><ele>207.0</ele><time>2026-04-26T08:37:39.925Z</time></trkpt><trkpt lat="38.06701521221549" lon="15.126694424619282"><ele>207.0</ele><time>2026-04-26T08:37:40.925Z</time></trkpt><trkpt lat="38.067128113164195" lon="15.12677790585878"><ele>207.0</ele><time>2026-04-26T08:37:41.925Z</time></trkpt><trkpt lat="38.067230690613776" lon="15.126891730414595"><ele>207.0</ele><time>2026-04-26T08:37:42.925Z</time></trkpt><trkpt lat="38.06734493975025" lon="15.126942555845282"><ele>207.0</ele><time>2026-04-26T08:37:43.925Z</time></trkpt><trkpt lat="38.067460350482264" lon="15.12692277480469"><ele>208.5</ele><time>2026-04-26T08:37:44.925Z</time></trkpt><trkpt lat="38.067595171481216" lon="15.126845628687066"><ele>210.0</ele><time>2026-04-26T08:37:45.925Z</time></trkpt><trkpt lat="38.0677123396335" lon="15.126762310288393"><ele>211.5</ele><time>2026-04-26T08:37:46.925Z</time></trkpt><trkpt lat="38.06783419123125" lon="15.126720819341342"><ele>213.0</ele><time>2026-04-26T08:37:47.925Z</time></trkpt><trkpt lat="38.067978187248585" lon="15.12672347012753"><ele>213.0</ele><time>2026-04-26T08:37:48.925Z</time></trkpt><trkpt lat="38.06811629665367" lon="15.126785066889505"><ele>213.0</ele><time>2026-04-26T08:37:49.925Z</time></trkpt><trkpt lat="38.06824398859787" lon="15.126875873926274"><ele>213.0</ele><time>2026-04-26T08:37:50.925Z</time></trkpt><trkpt lat="38.06834056604883" lon="15.12701144256194"><ele>213.0</ele><time>2026-04-26T08:37:51.925Z</time></trkpt><trkpt lat="38.06840046404563" lon="15.127179094105127"><ele>212.0</ele><time>2026-04-26T08:37:52.925Z</time></trkpt><trkpt lat="38.068467298604034" lon="15.127284516760328"><ele>211.0</ele><time>2026-04-26T08:37:53.924Z</time></trkpt><trkpt lat="38.06856216778486" lon="15.127352470792488"><ele>210.0</ele><time>2026-04-26T08:37:54.924Z</time></trkpt><trkpt lat="38.068690887109796" lon="15.127366364880766"><ele>209.0</ele><time>2026-04-26T08:37:55.924Z</time></trkpt><trkpt lat="38.068817727577475" lon="15.127363126502287"><ele>209.0</ele><time>2026-04-26T08:37:56.924Z</time></trkpt><trkpt lat="38.06892509777435" lon="15.127306162107494"><ele>209.0</ele><time>2026-04-26T08:37:57.924Z</time></trkpt><trkpt lat="38.069010465601195" lon="15.127199905736244"><ele>209.0</ele><time>2026-04-26T08:37:58.924Z</time></trkpt><trkpt lat="38.06910273530564" lon="15.127132302537538"><ele>209.0</ele><time>2026-04-26T08:37:59.924Z</time></trkpt><trkpt lat="38.06920646915681" lon="15.12711990767813"><ele>209.0</ele><time>2026-04-26T08:38:00.924Z</time></trkpt><trkpt lat="38.06931372160233" lon="15.127193545073021"><ele>210.75</ele><time>2026-04-26T08:38:01.924Z</time></trkpt><trkpt lat="38.06944025391339" lon="15.127274997930932"><ele>212.5</ele><time>2026-04-26T08:38:02.924Z</time></trkpt><trkpt lat="38.06958401776172" lon="15.127285639716636"><ele>214.25</ele><time>2026-04-26T08:38:03.924Z</time></trkpt><trkpt lat="38.06972583761772" lon="15.127308726369488"><ele>216.0</ele><time>2026-04-26T08:38:04.924Z</time></trkpt><trkpt lat="38.06987120161549" lon="15.127423720617745"><ele>212.0</ele><time>2026-04-26T08:38:05.924Z</time></trkpt><trkpt lat="38.07002126882124" lon="15.127536055574486"><ele>208.0</ele><time>2026-04-26T08:38:06.924Z</time></trkpt><trkpt lat="38.070170092859755" lon="15.127605797985298"><ele>204.0</ele><time>2026-04-26T08:38:07.924Z</time></trkpt><trkpt lat="38.07030178179591" lon="15.127607752907632"><ele>204.0</ele><time>2026-04-26T08:38:08.924Z</time></trkpt><trkpt lat="38.07041120008973" lon="15.127612806825075"><ele>204.0</ele><time>2026-04-26T08:38:09.924Z</time></trkpt><trkpt lat="38.070490283280314" lon="15.127671036640672"><ele>204.0</ele><time>2026-04-26T08:38:10.924Z</time></trkpt><trkpt lat="38.0705718633061" lon="15.127783564479213"><ele>204.0</ele><time>2026-04-26T08:38:11.924Z</time></trkpt><trkpt lat="38.07056867970539" lon="15.127970784287637"><ele>204.0</ele><time>2026-04-26T08:38:12.924Z</time></trkpt><trkpt lat="38.0705891797794" lon="15.128166895573056"><ele>204.0</ele><time>2026-04-26T08:38:13.924Z</time></trkpt><trkpt lat="38.07063637786769" lon="15.12827445309477"><ele>204.0</ele><time>2026-04-26T08:38:14.924Z</time></trkpt><trkpt lat="38.070682145303195" lon="15.128343043539314"><ele>204.0</ele><time>2026-04-26T08:38:16.924Z</time></trkpt><trkpt lat="38.07080138087376" lon="15.128323487077672"><ele>204.0</ele><time>2026-04-26T08:39:17.924Z</time></trkpt><trkpt lat="38.07087558062242" lon="15.128319794913757"><ele>202.16666666666666</ele><time>2026-04-26T08:39:18.924Z</time></trkpt><trkpt lat="38.07094668640518" lon="15.128296644797365"><ele>200.33333333333331</ele><time>2026-04-26T08:39:19.924Z</time></trkpt><trkpt lat="38.071014734516666" lon="15.12829758861067"><ele>198.5</ele><time>2026-04-26T08:39:20.924Z</time></trkpt><trkpt lat="38.071128165805305" lon="15.128370802560653"><ele>196.66666666666666</ele><time>2026-04-26T08:39:22.924Z</time></trkpt><trkpt lat="38.07116942105192" lon="15.128451533315575"><ele>194.83333333333331</ele><time>2026-04-26T08:39:23.924Z</time></trkpt><trkpt lat="38.07119719493301" lon="15.128558418471988"><ele>193.0</ele><time>2026-04-26T08:39:24.923Z</time></trkpt><trkpt lat="38.071270751244995" lon="15.128619621849063"><ele>192.99999999999997</ele><time>2026-04-26T08:39:25.923Z</time></trkpt><trkpt lat="38.071354694398366" lon="15.128641666446049"><ele>193.0</ele><time>2026-04-26T08:39:26.923Z</time></trkpt><trkpt lat="38.07143203857309" lon="15.128650729915588"><ele>193.0</ele><time>2026-04-26T08:39:27.924Z</time></trkpt><trkpt lat="38.071506822172886" lon="15.12863920815153"><ele>193.0</ele><time>2026-04-26T08:39:28.923Z</time></trkpt><trkpt lat="38.0715833522242" lon="15.12863434738275"><ele>192.99999999999997</ele><time>2026-04-26T08:39:29.923Z</time></trkpt><trkpt lat="38.07167615190762" lon="15.128625666278047"><ele>193.0</ele><time>2026-04-26T08:39:30.923Z</time></trkpt><trkpt lat="38.071777380056666" lon="15.128665027081846"><ele>185.75</ele><time>2026-04-26T08:39:31.923Z</time></trkpt><trkpt lat="38.071891087236665" lon="15.128693261727781"><ele>178.5</ele><time>2026-04-26T08:39:32.923Z</time></trkpt><trkpt lat="38.072011246360745" lon="15.128723206985402"><ele>171.25</ele><time>2026-04-26T08:39:33.923Z</time></trkpt><trkpt lat="38.07213482740491" lon="15.128753876842227"><ele>164.0</ele><time>2026-04-26T08:39:34.923Z</time></trkpt><trkpt lat="38.07225341247252" lon="15.128783306836834"><ele>164.0</ele><time>2026-04-26T08:39:35.923Z</time></trkpt><trkpt lat="38.07236843255612" lon="15.128811852074584"><ele>164.0</ele><time>2026-04-26T08:39:36.923Z</time></trkpt><trkpt lat="38.07248540348963" lon="15.128840881536659"><ele>164.0</ele><time>2026-04-26T08:39:37.923Z</time></trkpt><trkpt lat="38.072604903451825" lon="15.12887053860342"><ele>164.0</ele><time>2026-04-26T08:39:38.923Z</time></trkpt><trkpt lat="38.072728962306066" lon="15.128901453622797"><ele>165.75</ele><time>2026-04-26T08:39:39.923Z</time></trkpt><trkpt lat="38.072864124343475" lon="15.128916750618483"><ele>167.5</ele><time>2026-04-26T08:39:40.923Z</time></trkpt><trkpt lat="38.07299230285768" lon="15.1289751376514"><ele>169.25</ele><time>2026-04-26T08:39:41.923Z</time></trkpt><trkpt lat="38.07312117589058" lon="15.129022619100676"><ele>171.0</ele><time>2026-04-26T08:39:42.923Z</time></trkpt><trkpt lat="38.07324021073669" lon="15.129062324043629"><ele>170.16666666666666</ele><time>2026-04-26T08:39:43.923Z</time></trkpt><trkpt lat="38.0733426960851" lon="15.129092821757997"><ele>169.33333333333334</ele><time>2026-04-26T08:39:44.923Z</time></trkpt><trkpt lat="38.073422058648426" lon="15.129113170863603"><ele>168.5</ele><time>2026-04-26T08:39:45.923Z</time></trkpt><trkpt lat="38.073486225308095" lon="15.129124734757431"><ele>167.66666666666669</ele><time>2026-04-26T08:39:46.923Z</time></trkpt><trkpt lat="38.073574284751764" lon="15.129151306285733"><ele>166.83333333333334</ele><time>2026-04-26T08:39:48.923Z</time></trkpt><trkpt lat="38.073659556507955" lon="15.129162162334492"><ele>166.0</ele><time>2026-04-26T08:39:51.923Z</time></trkpt><trkpt lat="38.07373445164783" lon="15.129152577728254"><ele>166.0</ele><time>2026-04-26T08:40:20.922Z</time></trkpt><trkpt lat="38.07384058608866" lon="15.129210506409873"><ele>166.0</ele><time>2026-04-26T08:40:22.922Z</time></trkpt><trkpt lat="38.073909408127" lon="15.129244865477112"><ele>166.0</ele><time>2026-04-26T08:40:23.922Z</time></trkpt><trkpt lat="38.07397254249291" lon="15.129297844809537"><ele>166.0</ele><time>2026-04-26T08:40:24.922Z</time></trkpt><trkpt lat="38.074034797442415" lon="15.129349014500928"><ele>166.0</ele><time>2026-04-26T08:40:25.922Z</time></trkpt><trkpt lat="38.07408817956059" lon="15.12941892777182"><ele>166.0</ele><time>2026-04-26T08:40:26.922Z</time></trkpt><trkpt lat="38.07417139656063" lon="15.12947049341711"><ele>164.33333333333334</ele><time>2026-04-26T08:40:27.922Z</time></trkpt><trkpt lat="38.07425899477777" lon="15.129505653287259"><ele>162.66666666666669</ele><time>2026-04-26T08:40:28.922Z</time></trkpt><trkpt lat="38.074348314613744" lon="15.129525796824556"><ele>161.0</ele><time>2026-04-26T08:40:29.922Z</time></trkpt><trkpt lat="38.07443706695567" lon="15.129515529884713"><ele>159.33333333333334</ele><time>2026-04-26T08:40:30.922Z</time></trkpt><trkpt lat="38.07451933483101" lon="15.129520734060279"><ele>157.66666666666666</ele><time>2026-04-26T08:40:31.922Z</time></trkpt><trkpt lat="38.07459828052282" lon="15.129530482534552"><ele>156.0</ele><time>2026-04-26T08:40:32.922Z</time></trkpt><trkpt lat="38.074674864115515" lon="15.129530584090423"><ele>156.0</ele><time>2026-04-26T08:40:33.922Z</time></trkpt><trkpt lat="38.07475410087259" lon="15.129535744536767"><ele>156.0</ele><time>2026-04-26T08:40:34.922Z</time></trkpt><trkpt lat="38.07484168396352" lon="15.129546452675182"><ele>156.0</ele><time>2026-04-26T08:40:35.922Z</time></trkpt><trkpt lat="38.07492229515298" lon="15.129559917148125"><ele>156.0</ele><time>2026-04-26T08:40:36.922Z</time></trkpt><trkpt lat="38.07500349067317" lon="15.129553792457772"><ele>156.0</ele><time>2026-04-26T08:40:37.922Z</time></trkpt><trkpt lat="38.07509248094714" lon="15.129539751068727"><ele>156.0</ele><time>2026-04-26T08:40:38.922Z</time></trkpt><trkpt lat="38.07518562245657" lon="15.129523370541328"><ele>154.16666666666666</ele><time>2026-04-26T08:40:39.921Z</time></trkpt><trkpt lat="38.07528406786015" lon="15.129509593308766"><ele>152.33333333333334</ele><time>2026-04-26T08:40:40.921Z</time></trkpt><trkpt lat="38.07537526073655" lon="15.129516738965082"><ele>150.5</ele><time>2026-04-26T08:40:41.921Z</time></trkpt><trkpt lat="38.075457506670986" lon="15.12954400608385"><ele>148.66666666666669</ele><time>2026-04-26T08:40:42.921Z</time></trkpt><trkpt lat="38.07552851996729" lon="15.129590053375031"><ele>146.83333333333334</ele><time>2026-04-26T08:40:43.921Z</time></trkpt><trkpt lat="38.0756070434358" lon="15.129649687728062"><ele>145.0</ele><time>2026-04-26T08:40:44.921Z</time></trkpt><trkpt lat="38.075695337840756" lon="15.129710070732228"><ele>144.5</ele><time>2026-04-26T08:40:45.921Z</time></trkpt><trkpt lat="38.075804837833026" lon="15.129732423704311"><ele>144.0</ele><time>2026-04-26T08:40:46.921Z</time></trkpt><trkpt lat="38.07591866549863" lon="15.129743398350211"><ele>143.5</ele><time>2026-04-26T08:40:47.921Z</time></trkpt><trkpt lat="38.07603928480835" lon="15.129731705255285"><ele>143.0</ele><time>2026-04-26T08:40:48.921Z</time></trkpt><trkpt lat="38.07615657954242" lon="15.129741494608115"><ele>143.0</ele><time>2026-04-26T08:40:49.921Z</time></trkpt><trkpt lat="38.07626546049809" lon="15.12976596934821"><ele>143.0</ele><time>2026-04-26T08:40:50.921Z</time></trkpt><trkpt lat="38.07635383439594" lon="15.12981501999175"><ele>143.0</ele><time>2026-04-26T08:40:51.921Z</time></trkpt><trkpt lat="38.07644636754683" lon="15.129865495124353"><ele>143.0</ele><time>2026-04-26T08:40:52.921Z</time></trkpt><trkpt lat="38.07652510036797" lon="15.129966999030975"><ele>143.0</ele><time>2026-04-26T08:40:53.921Z</time></trkpt><trkpt lat="38.076604113668935" lon="15.130060768528324"><ele>146.0</ele><time>2026-04-26T08:40:54.921Z</time></trkpt><trkpt lat="38.076677240984694" lon="15.13016753390174"><ele>149.0</ele><time>2026-04-26T08:40:55.921Z</time></trkpt><trkpt lat="38.07674991253775" lon="15.130277082370904"><ele>152.0</ele><time>2026-04-26T08:40:56.921Z</time></trkpt><trkpt lat="38.07682233514729" lon="15.130393963341698"><ele>155.0</ele><time>2026-04-26T08:40:57.921Z</time></trkpt><trkpt lat="38.076956134528125" lon="15.130421951773389"><ele>155.0</ele><time>2026-04-26T08:40:58.921Z</time></trkpt><trkpt lat="38.077084135873534" lon="15.130434778186698"><ele>155.0</ele><time>2026-04-26T08:40:59.921Z</time></trkpt><trkpt lat="38.07719684981289" lon="15.130452280212303"><ele>155.0</ele><time>2026-04-26T08:41:00.921Z</time></trkpt><trkpt lat="38.07730633600103" lon="15.130483174844107"><ele>155.0</ele><time>2026-04-26T08:41:01.921Z</time></trkpt><trkpt lat="38.07741701878708" lon="15.130523397818221"><ele>152.25</ele><time>2026-04-26T08:41:02.921Z</time></trkpt><trkpt lat="38.07752520993586" lon="15.130588230848874"><ele>149.5</ele><time>2026-04-26T08:41:03.921Z</time></trkpt><trkpt lat="38.07764167247369" lon="15.13062219897588"><ele>146.75</ele><time>2026-04-26T08:41:04.921Z</time></trkpt><trkpt lat="38.07776502018572" lon="15.130625905643296"><ele>144.0</ele><time>2026-04-26T08:41:05.921Z</time></trkpt><trkpt lat="38.07789497400975" lon="15.130611613719077"><ele>144.0</ele><time>2026-04-26T08:41:06.921Z</time></trkpt><trkpt lat="38.07801885730846" lon="15.13059610883791"><ele>144.0</ele><time>2026-04-26T08:41:07.921Z</time></trkpt><trkpt lat="38.0781417927902" lon="15.130571349649482"><ele>144.0</ele><time>2026-04-26T08:41:08.921Z</time></trkpt><trkpt lat="38.078257598751954" lon="15.130547719499505"><ele>144.0</ele><time>2026-04-26T08:41:09.921Z</time></trkpt><trkpt lat="38.07837255199987" lon="15.130522794060774"><ele>145.0</ele><time>2026-04-26T08:41:10.921Z</time></trkpt><trkpt lat="38.07849315794066" lon="15.13054410914098"><ele>146.0</ele><time>2026-04-26T08:41:11.921Z</time></trkpt><trkpt lat="38.07861525250895" lon="15.13048739013514"><ele>147.0</ele><time>2026-04-26T08:41:12.921Z</time></trkpt><trkpt lat="38.078738046024554" lon="15.130420226990164"><ele>148.0</ele><time>2026-04-26T08:41:13.921Z</time></trkpt><trkpt lat="38.07885850584246" lon="15.13035362896005"><ele>148.0</ele><time>2026-04-26T08:41:14.921Z</time></trkpt><trkpt lat="38.07898347320128" lon="15.130292941284923"><ele>148.0</ele><time>2026-04-26T08:41:15.92Z</time></trkpt><trkpt lat="38.07911302667598" lon="15.13022962399897"><ele>148.0</ele><time>2026-04-26T08:41:16.92Z</time></trkpt><trkpt lat="38.07923691010383" lon="15.130168811691956"><ele>148.0</ele><time>2026-04-26T08:41:17.92Z</time></trkpt><trkpt lat="38.07936651995642" lon="15.130112208603737"><ele>149.75</ele><time>2026-04-26T08:41:18.92Z</time></trkpt><trkpt lat="38.07950717223338" lon="15.130065154009191"><ele>151.5</ele><time>2026-04-26T08:41:19.92Z</time></trkpt><trkpt lat="38.07965146172274" lon="15.130054526690305"><ele>153.25</ele><time>2026-04-26T08:41:20.922Z</time></trkpt><trkpt lat="38.07980181410152" lon="15.130069343696082"><ele>155.0</ele><time>2026-04-26T08:41:21.922Z</time></trkpt><trkpt lat="38.07995683091349" lon="15.130076058697723"><ele>156.5</ele><time>2026-04-26T08:41:22.922Z</time></trkpt><trkpt lat="38.08008740400057" lon="15.130090472358237"><ele>158.0</ele><time>2026-04-26T08:41:23.922Z</time></trkpt><trkpt lat="38.08020916395582" lon="15.130107246315065"><ele>159.5</ele><time>2026-04-26T08:41:24.922Z</time></trkpt><trkpt lat="38.08031634921279" lon="15.130153108380853"><ele>161.0</ele><time>2026-04-26T08:41:25.922Z</time></trkpt><trkpt lat="38.08040906052021" lon="15.130221164740073"><ele>161.0</ele><time>2026-04-26T08:41:26.921Z</time></trkpt><trkpt lat="38.080497162533646" lon="15.130322670209976"><ele>161.0</ele><time>2026-04-26T08:41:27.922Z</time></trkpt><trkpt lat="38.08058338498795" lon="15.130435888359996"><ele>161.0</ele><time>2026-04-26T08:41:28.922Z</time></trkpt><trkpt lat="38.080673636326104" lon="15.130545420030007"><ele>161.0</ele><time>2026-04-26T08:41:29.922Z</time></trkpt><trkpt lat="38.080765215282526" lon="15.130655807247695"><ele>160.0</ele><time>2026-04-26T08:41:30.922Z</time></trkpt><trkpt lat="38.08084609964041" lon="15.130763201218173"><ele>159.0</ele><time>2026-04-26T08:41:31.922Z</time></trkpt><trkpt lat="38.08092009309227" lon="15.130864778609611"><ele>158.0</ele><time>2026-04-26T08:41:32.921Z</time></trkpt><trkpt lat="38.08099847481389" lon="15.130968263686585"><ele>157.0</ele><time>2026-04-26T08:41:33.922Z</time></trkpt><trkpt lat="38.081078629445145" lon="15.131070568168909"><ele>157.0</ele><time>2026-04-26T08:41:34.922Z</time></trkpt><trkpt lat="38.08116043960414" lon="15.131180948722669"><ele>157.0</ele><time>2026-04-26T08:41:35.922Z</time></trkpt><trkpt lat="38.08124542999069" lon="15.131293127683152"><ele>157.0</ele><time>2026-04-26T08:41:36.922Z</time></trkpt><trkpt lat="38.08132924880974" lon="15.131403808940195"><ele>157.0</ele><time>2026-04-26T08:41:37.922Z</time></trkpt><trkpt lat="38.081413046281476" lon="15.131505914289193"><ele>157.0</ele><time>2026-04-26T08:41:38.922Z</time></trkpt><trkpt lat="38.08148302290243" lon="15.13161168899203"><ele>157.0</ele><time>2026-04-26T08:41:39.922Z</time></trkpt><trkpt lat="38.081568148124106" lon="15.131681458183898"><ele>157.0</ele><time>2026-04-26T08:41:40.922Z</time></trkpt><trkpt lat="38.08164908090954" lon="15.131752485726736"><ele>157.0</ele><time>2026-04-26T08:41:41.922Z</time></trkpt><trkpt lat="38.081720235074066" lon="15.131822821173266"><ele>157.0</ele><time>2026-04-26T08:41:42.922Z</time></trkpt><trkpt lat="38.08178495652481" lon="15.1318923103509"><ele>157.0</ele><time>2026-04-26T08:41:43.922Z</time></trkpt><trkpt lat="38.08182205525421" lon="15.131985053773857"><ele>157.0</ele><time>2026-04-26T08:41:44.922Z</time></trkpt><trkpt lat="38.081886739328816" lon="15.132067108685854"><ele>157.0</ele><time>2026-04-26T08:41:45.922Z</time></trkpt><trkpt lat="38.081959714969564" lon="15.132160378930198"><ele>157.0</ele><time>2026-04-26T08:41:46.922Z</time></trkpt><trkpt lat="38.082035612935734" lon="15.132262666461024"><ele>157.0</ele><time>2026-04-26T08:41:47.922Z</time></trkpt><trkpt lat="38.08210620775593" lon="15.132361732975392"><ele>155.79999999999998</ele><time>2026-04-26T08:41:48.922Z</time></trkpt><trkpt lat="38.082172087655806" lon="15.132449647080252"><ele>154.6</ele><time>2026-04-26T08:41:49.922Z</time></trkpt><trkpt lat="38.082236284547356" lon="15.132523514682058"><ele>153.39999999999998</ele><time>2026-04-26T08:41:50.921Z</time></trkpt><trkpt lat="38.082305802218954" lon="15.132626842111568"><ele>152.2</ele><time>2026-04-26T08:41:51.921Z</time></trkpt><trkpt lat="38.08237649480244" lon="15.13272017644632"><ele>151.0</ele><time>2026-04-26T08:41:52.921Z</time></trkpt><trkpt lat="38.082440798075915" lon="15.132806753141486"><ele>151.0</ele><time>2026-04-26T08:41:53.921Z</time></trkpt><trkpt lat="38.082505269638936" lon="15.13288923124987"><ele>151.0</ele><time>2026-04-26T08:41:54.921Z</time></trkpt><trkpt lat="38.0825887337082" lon="15.13295150757503"><ele>151.0</ele><time>2026-04-26T08:41:55.921Z</time></trkpt><trkpt lat="38.082692411477346" lon="15.132985592034956"><ele>151.0</ele><time>2026-04-26T08:41:56.921Z</time></trkpt><trkpt lat="38.08278969532557" lon="15.132995813567664"><ele>151.0</ele><time>2026-04-26T08:41:57.921Z</time></trkpt><trkpt lat="38.08288454383594" lon="15.132997454283542"><ele>151.0</ele><time>2026-04-26T08:41:58.921Z</time></trkpt><trkpt lat="38.08297548823598" lon="15.132997852034725"><ele>151.0</ele><time>2026-04-26T08:41:59.921Z</time></trkpt><trkpt lat="38.083084185431645" lon="15.13298655206706"><ele>151.0</ele><time>2026-04-26T08:42:00.921Z</time></trkpt><trkpt lat="38.083196846807326" lon="15.132973224660415"><ele>151.0</ele><time>2026-04-26T08:42:01.921Z</time></trkpt><trkpt lat="38.08330922138968" lon="15.133011051368898"><ele>151.0</ele><time>2026-04-26T08:42:02.921Z</time></trkpt><trkpt lat="38.08342683567826" lon="15.132994835522721"><ele>147.5</ele><time>2026-04-26T08:42:03.921Z</time></trkpt><trkpt lat="38.08355007051034" lon="15.132982958939277"><ele>144.0</ele><time>2026-04-26T08:42:04.921Z</time></trkpt><trkpt lat="38.0836761441879" lon="15.132971015950961"><ele>140.5</ele><time>2026-04-26T08:42:05.921Z</time></trkpt><trkpt lat="38.083819474586" lon="15.132963984844602"><ele>137.0</ele><time>2026-04-26T08:42:06.921Z</time></trkpt><trkpt lat="38.08396287105756" lon="15.132968445096322"><ele>135.25</ele><time>2026-04-26T08:42:07.921Z</time></trkpt><trkpt lat="38.08409693177584" lon="15.132987401302412"><ele>133.5</ele><time>2026-04-26T08:42:08.921Z</time></trkpt><trkpt lat="38.08423092850407" lon="15.133003539325077"><ele>131.75</ele><time>2026-04-26T08:42:09.921Z</time></trkpt><trkpt lat="38.08435694719694" lon="15.13299962770608"><ele>130.0</ele><time>2026-04-26T08:42:10.921Z</time></trkpt><trkpt lat="38.0844792515521" lon="15.133011203517885"><ele>130.0</ele><time>2026-04-26T08:42:11.921Z</time></trkpt><trkpt lat="38.0845992689718" lon="15.133051864505248"><ele>130.0</ele><time>2026-04-26T08:42:12.921Z</time></trkpt><trkpt lat="38.084720953138124" lon="15.13314075363065"><ele>130.0</ele><time>2026-04-26T08:42:13.921Z</time></trkpt><trkpt lat="38.08483655121941" lon="15.133259320458793"><ele>130.0</ele><time>2026-04-26T08:42:14.921Z</time></trkpt><trkpt lat="38.084951334269775" lon="15.13338775671792"><ele>132.0</ele><time>2026-04-26T08:42:15.921Z</time></trkpt><trkpt lat="38.08506498547372" lon="15.133500187052118"><ele>134.0</ele><time>2026-04-26T08:42:16.921Z</time></trkpt><trkpt lat="38.08517164146749" lon="15.133606149347186"><ele>136.0</ele><time>2026-04-26T08:42:17.921Z</time></trkpt><trkpt lat="38.08526894716668" lon="15.133692734575126"><ele>138.0</ele><time>2026-04-26T08:42:18.921Z</time></trkpt><trkpt lat="38.0853845396677" lon="15.133736345368318"><ele>138.0</ele><time>2026-04-26T08:42:19.921Z</time></trkpt><trkpt lat="38.08551218153281" lon="15.133724278506914"><ele>138.0</ele><time>2026-04-26T08:42:20.921Z</time></trkpt><trkpt lat="38.085642422279214" lon="15.133698511986681"><ele>138.0</ele><time>2026-04-26T08:42:21.921Z</time></trkpt><trkpt lat="38.08578859848758" lon="15.133668506151599"><ele>138.0</ele><time>2026-04-26T08:42:22.921Z</time></trkpt><trkpt lat="38.08592209485905" lon="15.133615143234454"><ele>136.25</ele><time>2026-04-26T08:42:23.921Z</time></trkpt><trkpt lat="38.08604455429369" lon="15.133539431286932"><ele>134.5</ele><time>2026-04-26T08:42:24.921Z</time></trkpt><trkpt lat="38.08616694830705" lon="15.133486573560399"><ele>132.75</ele><time>2026-04-26T08:42:25.921Z</time></trkpt><trkpt lat="38.0862663743188" lon="15.133403150003472"><ele>131.0</ele><time>2026-04-26T08:42:26.92Z</time></trkpt><trkpt lat="38.08635204754173" lon="15.133305115132844"><ele>128.0</ele><time>2026-04-26T08:42:27.92Z</time></trkpt><trkpt lat="38.086429917197606" lon="15.133216997062581"><ele>125.0</ele><time>2026-04-26T08:42:28.92Z</time></trkpt><trkpt lat="38.08650621571433" lon="15.133118744287149"><ele>122.0</ele><time>2026-04-26T08:42:29.92Z</time></trkpt><trkpt lat="38.08657129585727" lon="15.133017921416254"><ele>119.0</ele><time>2026-04-26T08:42:30.92Z</time></trkpt><trkpt lat="38.08663467904431" lon="15.132911385059781"><ele>116.0</ele><time>2026-04-26T08:42:31.92Z</time></trkpt><trkpt lat="38.086696299144556" lon="15.132820223985872"><ele>116.0</ele><time>2026-04-26T08:42:32.92Z</time></trkpt><trkpt lat="38.08676047844591" lon="15.132742249367624"><ele>116.0</ele><time>2026-04-26T08:42:33.92Z</time></trkpt><trkpt lat="38.08683469244778" lon="15.132683751008067"><ele>116.0</ele><time>2026-04-26T08:42:34.92Z</time></trkpt><trkpt lat="38.08693286543677" lon="15.132665590314728"><ele>116.0</ele><time>2026-04-26T08:42:35.92Z</time></trkpt><trkpt lat="38.087023321790575" lon="15.13270733117791"><ele>116.0</ele><time>2026-04-26T08:42:36.92Z</time></trkpt><trkpt lat="38.08712366339922" lon="15.132730662511493"><ele>115.99999999999999</ele><time>2026-04-26T08:42:37.92Z</time></trkpt><trkpt lat="38.08721448864016" lon="15.132753120392888"><ele>116.0</ele><time>2026-04-26T08:42:38.92Z</time></trkpt><trkpt lat="38.08730633797247" lon="15.132775831505796"><ele>116.0</ele><time>2026-04-26T08:42:39.92Z</time></trkpt><trkpt lat="38.08739652738016" lon="15.132798132218063"><ele>116.0</ele><time>2026-04-26T08:42:40.92Z</time></trkpt><trkpt lat="38.087474137584664" lon="15.132819226672758"><ele>115.99999999999999</ele><time>2026-04-26T08:42:41.92Z</time></trkpt><trkpt lat="38.08755845815132" lon="15.132842824271627"><ele>116.0</ele><time>2026-04-26T08:42:42.92Z</time></trkpt><trkpt lat="38.08764758420821" lon="15.132869400573668"><ele>115.66666666666666</ele><time>2026-04-26T08:42:43.92Z</time></trkpt><trkpt lat="38.08773158664234" lon="15.132895777691017"><ele>115.33333333333333</ele><time>2026-04-26T08:42:44.92Z</time></trkpt><trkpt lat="38.087819734253124" lon="15.132923490308231"><ele>115.0</ele><time>2026-04-26T08:42:45.92Z</time></trkpt><trkpt lat="38.08790682249462" lon="15.132952618633741"><ele>114.66666666666666</ele><time>2026-04-26T08:42:46.92Z</time></trkpt><trkpt lat="38.087989898918266" lon="15.132982780166175"><ele>114.33333333333333</ele><time>2026-04-26T08:42:47.92Z</time></trkpt><trkpt lat="38.08805781937064" lon="15.13301337026316"><ele>114.0</ele><time>2026-04-26T08:42:48.92Z</time></trkpt><trkpt lat="38.088114676350045" lon="15.13304797993855"><ele>114.0</ele><time>2026-04-26T08:42:49.92Z</time></trkpt><trkpt lat="38.08820281709633" lon="15.133128347047695"><ele>114.0</ele><time>2026-04-26T08:42:51.92Z</time></trkpt><trkpt lat="38.08828617977101" lon="15.133218735476591"><ele>114.0</ele><time>2026-04-26T08:42:53.92Z</time></trkpt><trkpt lat="38.088340675384536" lon="15.133341927249232"><ele>114.0</ele><time>2026-04-26T08:42:55.92Z</time></trkpt><trkpt lat="38.088371833415025" lon="15.133468878986735"><ele>114.0</ele><time>2026-04-26T08:42:57.92Z</time></trkpt><trkpt lat="38.088378329461385" lon="15.133609139093384"><ele>116.0</ele><time>2026-04-26T08:42:59.92Z</time></trkpt><trkpt lat="38.08837134128711" lon="15.13377110373449"><ele>118.0</ele><time>2026-04-26T08:43:01.919Z</time></trkpt><trkpt lat="38.08829846871751" lon="15.133873497164714"><ele>120.0</ele><time>2026-04-26T08:43:03.919Z</time></trkpt><trkpt lat="38.088229860193834" lon="15.133918253914818"><ele>122.0</ele><time>2026-04-26T08:43:04.919Z</time></trkpt><trkpt lat="38.08815163966237" lon="15.133962283803342"><ele>124.0</ele><time>2026-04-26T08:43:05.919Z</time></trkpt><trkpt lat="38.088076798965076" lon="15.134021374435275"><ele>125.6</ele><time>2026-04-26T08:43:06.919Z</time></trkpt><trkpt lat="38.08799548496801" lon="15.134074613108474"><ele>127.2</ele><time>2026-04-26T08:43:07.919Z</time></trkpt><trkpt lat="38.087918080855516" lon="15.134130335683688"><ele>128.79999999999998</ele><time>2026-04-26T08:43:08.919Z</time></trkpt><trkpt lat="38.08785767741521" lon="15.134187284778276"><ele>130.4</ele><time>2026-04-26T08:43:09.919Z</time></trkpt><trkpt lat="38.08776545016872" lon="15.134266111847152"><ele>132.0</ele><time>2026-04-26T08:43:11.919Z</time></trkpt><trkpt lat="38.087700882290584" lon="15.134365021212512"><ele>132.0</ele><time>2026-04-26T08:43:13.919Z</time></trkpt><trkpt lat="38.08764562893904" lon="15.134436990055455"><ele>132.0</ele><time>2026-04-26T08:43:14.919Z</time></trkpt><trkpt lat="38.08756885683183" lon="15.134537397570872"><ele>132.0</ele><time>2026-04-26T08:43:15.919Z</time></trkpt><trkpt lat="38.08751592178923" lon="15.134660872184162"><ele>132.0</ele><time>2026-04-26T08:43:16.919Z</time></trkpt><trkpt lat="38.08747291546372" lon="15.134799400120935"><ele>132.0</ele><time>2026-04-26T08:43:17.919Z</time></trkpt><trkpt lat="38.08742103131856" lon="15.134940374466135"><ele>135.75</ele><time>2026-04-26T08:43:18.919Z</time></trkpt><trkpt lat="38.08735365606325" lon="15.135083459974442"><ele>139.5</ele><time>2026-04-26T08:43:19.919Z</time></trkpt><trkpt lat="38.08730185527424" lon="15.135228817845828"><ele>143.25</ele><time>2026-04-26T08:43:20.919Z</time></trkpt><trkpt lat="38.0872733150977" lon="15.135380923131104"><ele>147.0</ele><time>2026-04-26T08:43:21.919Z</time></trkpt><trkpt lat="38.08726841048928" lon="15.135531745086164"><ele>147.0</ele><time>2026-04-26T08:43:22.919Z</time></trkpt><trkpt lat="38.08730044191897" lon="15.135672907389123"><ele>147.0</ele><time>2026-04-26T08:43:23.919Z</time></trkpt><trkpt lat="38.08736943516019" lon="15.135780580084374"><ele>147.0</ele><time>2026-04-26T08:43:24.919Z</time></trkpt><trkpt lat="38.087455218552414" lon="15.13585648289387"><ele>147.0</ele><time>2026-04-26T08:43:25.919Z</time></trkpt><trkpt lat="38.08751899944661" lon="15.135931689717278"><ele>147.0</ele><time>2026-04-26T08:43:26.919Z</time></trkpt><trkpt lat="38.08761636432706" lon="15.136013091178981"><ele>140.2</ele><time>2026-04-26T08:43:27.919Z</time></trkpt><trkpt lat="38.087702709235245" lon="15.136076288125178"><ele>133.39999999999998</ele><time>2026-04-26T08:43:28.919Z</time></trkpt><trkpt lat="38.08778967696726" lon="15.136100118584972"><ele>126.60000000000001</ele><time>2026-04-26T08:43:29.919Z</time></trkpt><trkpt lat="38.087882709699535" lon="15.136099026639089"><ele>119.80000000000001</ele><time>2026-04-26T08:43:30.919Z</time></trkpt><trkpt lat="38.087987279576595" lon="15.136111496778078"><ele>113.0</ele><time>2026-04-26T08:43:31.919Z</time></trkpt><trkpt lat="38.088096497760766" lon="15.136111623960696"><ele>112.99999999999999</ele><time>2026-04-26T08:43:32.919Z</time></trkpt><trkpt lat="38.08818016530815" lon="15.136125233174868"><ele>113.0</ele><time>2026-04-26T08:43:33.919Z</time></trkpt><trkpt lat="38.08825393487154" lon="15.136105278573515"><ele>113.0</ele><time>2026-04-26T08:43:34.919Z</time></trkpt><trkpt lat="38.08832409171878" lon="15.136106486717424"><ele>113.0</ele><time>2026-04-26T08:43:35.919Z</time></trkpt><trkpt lat="38.08839481043251" lon="15.136127312627133"><ele>112.99999999999999</ele><time>2026-04-26T08:43:36.918Z</time></trkpt><trkpt lat="38.08847682828942" lon="15.136132422667984"><ele>113.0</ele><time>2026-04-26T08:43:37.918Z</time></trkpt><trkpt lat="38.08854214946632" lon="15.136151195621757"><ele>112.99999999999999</ele><time>2026-04-26T08:43:38.919Z</time></trkpt><trkpt lat="38.08861857862646" lon="15.136180392771173"><ele>113.0</ele><time>2026-04-26T08:43:39.919Z</time></trkpt><trkpt lat="38.08869038122092" lon="15.136228550870468"><ele>113.0</ele><time>2026-04-26T08:43:40.919Z</time></trkpt><trkpt lat="38.08874926672741" lon="15.136285800349054"><ele>113.0</ele><time>2026-04-26T08:43:41.919Z</time></trkpt><trkpt lat="38.08881397495645" lon="15.136366150945543"><ele>112.99999999999999</ele><time>2026-04-26T08:43:42.919Z</time></trkpt><trkpt lat="38.088886729185454" lon="15.136479878609627"><ele>113.0</ele><time>2026-04-26T08:43:43.919Z</time></trkpt><trkpt lat="38.08901074920815" lon="15.136678438046527"><ele>113.0</ele><time>2026-04-26T08:43:45.919Z</time></trkpt><trkpt lat="38.089067156320965" lon="15.136769054521565"><ele>113.00000000000001</ele><time>2026-04-26T08:43:46.919Z</time></trkpt><trkpt lat="38.08911990820617" lon="15.136853798906813"><ele>113.00000000000001</ele><time>2026-04-26T08:43:47.919Z</time></trkpt><trkpt lat="38.08917584431442" lon="15.136943658579868"><ele>113.0</ele><time>2026-04-26T08:43:48.919Z</time></trkpt><trkpt lat="38.08923914033037" lon="15.13704534179678"><ele>113.0</ele><time>2026-04-26T08:43:49.919Z</time></trkpt><trkpt lat="38.089315561041374" lon="15.137168109292631"><ele>112.2</ele><time>2026-04-26T08:43:50.919Z</time></trkpt><trkpt lat="38.0893883821237" lon="15.137285094290219"><ele>111.4</ele><time>2026-04-26T08:43:51.919Z</time></trkpt><trkpt lat="38.08945317995361" lon="15.13738919018605"><ele>110.60000000000001</ele><time>2026-04-26T08:43:52.919Z</time></trkpt><trkpt lat="38.08951405179054" lon="15.13748697879225"><ele>109.80000000000001</ele><time>2026-04-26T08:43:53.919Z</time></trkpt><trkpt lat="38.089566086439035" lon="15.137570569675995"><ele>109.0</ele><time>2026-04-26T08:43:54.919Z</time></trkpt><trkpt lat="38.089619176121225" lon="15.137655786065038"><ele>109.00000000000001</ele><time>2026-04-26T08:43:55.919Z</time></trkpt><trkpt lat="38.08968101230627" lon="15.137733336562109"><ele>109.0</ele><time>2026-04-26T08:43:56.919Z</time></trkpt><trkpt lat="38.089726447997066" lon="15.137823419743922"><ele>109.0</ele><time>2026-04-26T08:43:57.919Z</time></trkpt><trkpt lat="38.08976994795694" lon="15.1379100069455"><ele>109.0</ele><time>2026-04-26T08:43:58.919Z</time></trkpt><trkpt lat="38.08981442379793" lon="15.137998228883182"><ele>109.00000000000001</ele><time>2026-04-26T08:43:59.918Z</time></trkpt><trkpt lat="38.08986478046633" lon="15.138093151588938"><ele>109.0</ele><time>2026-04-26T08:44:00.918Z</time></trkpt><trkpt lat="38.08991906820853" lon="15.138198637585177"><ele>107.80000000000001</ele><time>2026-04-26T08:44:01.918Z</time></trkpt><trkpt lat="38.0899769578184" lon="15.138303851595584"><ele>106.60000000000001</ele><time>2026-04-26T08:44:02.918Z</time></trkpt><trkpt lat="38.09004193454067" lon="15.138406738311701"><ele>105.4</ele><time>2026-04-26T08:44:03.918Z</time></trkpt><trkpt lat="38.090109094679484" lon="15.138506573263273"><ele>104.2</ele><time>2026-04-26T08:44:04.918Z</time></trkpt><trkpt lat="38.09018602026721" lon="15.138598948301246"><ele>103.0</ele><time>2026-04-26T08:44:05.918Z</time></trkpt><trkpt lat="38.09024938220707" lon="15.138702242433881"><ele>103.00000000000001</ele><time>2026-04-26T08:44:06.918Z</time></trkpt><trkpt lat="38.09030311050073" lon="15.138796380438315"><ele>103.0</ele><time>2026-04-26T08:44:07.918Z</time></trkpt><trkpt lat="38.090349871208495" lon="15.13887586215091"><ele>103.0</ele><time>2026-04-26T08:44:08.918Z</time></trkpt><trkpt lat="38.09039218711838" lon="15.138943416422267"><ele>103.0</ele><time>2026-04-26T08:44:09.918Z</time></trkpt><trkpt lat="38.090446133543296" lon="15.139017256717956"><ele>103.00000000000001</ele><time>2026-04-26T08:44:10.918Z</time></trkpt><trkpt lat="38.09049572298615" lon="15.139089626943745"><ele>103.0</ele><time>2026-04-26T08:44:11.918Z</time></trkpt><trkpt lat="38.09054853553181" lon="15.139147194784947"><ele>101.33333333333334</ele><time>2026-04-26T08:44:12.918Z</time></trkpt><trkpt lat="38.09059223133111" lon="15.139225050959547"><ele>99.66666666666667</ele><time>2026-04-26T08:44:13.918Z</time></trkpt><trkpt lat="38.090619642387125" lon="15.139332522229052"><ele>98.0</ele><time>2026-04-26T08:44:14.918Z</time></trkpt><trkpt lat="38.090666107785886" lon="15.13942194093109"><ele>96.33333333333334</ele><time>2026-04-26T08:44:15.918Z</time></trkpt><trkpt lat="38.09070166106281" lon="15.139514340581083"><ele>94.66666666666667</ele><time>2026-04-26T08:44:16.918Z</time></trkpt><trkpt lat="38.09074414145254" lon="15.139606569645323"><ele>93.0</ele><time>2026-04-26T08:44:17.918Z</time></trkpt><trkpt lat="38.09079606128353" lon="15.139692267904403"><ele>93.0</ele><time>2026-04-26T08:44:18.918Z</time></trkpt><trkpt lat="38.0908601065927" lon="15.139785237713708"><ele>93.0</ele><time>2026-04-26T08:44:19.918Z</time></trkpt><trkpt lat="38.09091364395213" lon="15.139883582403712"><ele>93.0</ele><time>2026-04-26T08:44:20.918Z</time></trkpt><trkpt lat="38.09095715134547" lon="15.139980161336366"><ele>93.0</ele><time>2026-04-26T08:44:21.918Z</time></trkpt><trkpt lat="38.09099520122382" lon="15.140077594307664"><ele>93.0</ele><time>2026-04-26T08:44:22.918Z</time></trkpt><trkpt lat="38.09102567330407" lon="15.140183608891475"><ele>94.4</ele><time>2026-04-26T08:44:23.918Z</time></trkpt><trkpt lat="38.09105475743937" lon="15.140302466052429"><ele>95.80000000000001</ele><time>2026-04-26T08:44:24.918Z</time></trkpt><trkpt lat="38.0910793939068" lon="15.140440369886878"><ele>97.2</ele><time>2026-04-26T08:44:25.918Z</time></trkpt><trkpt lat="38.09109900312851" lon="15.140583661722196"><ele>98.6</ele><time>2026-04-26T08:44:26.918Z</time></trkpt><trkpt lat="38.091112871689795" lon="15.140724957370011"><ele>100.0</ele><time>2026-04-26T08:44:27.918Z</time></trkpt><trkpt lat="38.09113465269723" lon="15.140855656738971"><ele>100.00000000000001</ele><time>2026-04-26T08:44:28.918Z</time></trkpt><trkpt lat="38.09115203375544" lon="15.140979787979319"><ele>100.0</ele><time>2026-04-26T08:44:29.918Z</time></trkpt><trkpt lat="38.091176517913155" lon="15.141089013464574"><ele>100.0</ele><time>2026-04-26T08:44:30.918Z</time></trkpt><trkpt lat="38.09120485641841" lon="15.141193233290918"><ele>100.0</ele><time>2026-04-26T08:44:31.918Z</time></trkpt><trkpt lat="38.091234258258105" lon="15.141283950594016"><ele>100.00000000000001</ele><time>2026-04-26T08:44:32.918Z</time></trkpt><trkpt lat="38.091255845991164" lon="15.141360855542171"><ele>100.0</ele><time>2026-04-26T08:44:33.918Z</time></trkpt><trkpt lat="38.09129752963109" lon="15.14151969831715"><ele>100.33333333333334</ele><time>2026-04-26T08:44:35.917Z</time></trkpt><trkpt lat="38.09127991502322" lon="15.1416291868654"><ele>100.66666666666667</ele><time>2026-04-26T08:44:36.917Z</time></trkpt><trkpt lat="38.09129862111752" lon="15.141728474767504"><ele>101.0</ele><time>2026-04-26T08:44:37.917Z</time></trkpt><trkpt lat="38.0913035160603" lon="15.141826769596708"><ele>101.33333333333334</ele><time>2026-04-26T08:44:38.917Z</time></trkpt><trkpt lat="38.09128784592136" lon="15.14191679825933"><ele>101.66666666666667</ele><time>2026-04-26T08:44:39.917Z</time></trkpt><trkpt lat="38.09123514461997" lon="15.142000657224393"><ele>102.0</ele><time>2026-04-26T08:44:40.917Z</time></trkpt><trkpt lat="38.091187164254755" lon="15.142113260668305"><ele>102.0</ele><time>2026-04-26T08:44:41.917Z</time></trkpt><trkpt lat="38.091149371595655" lon="15.142224163863897"><ele>102.0</ele><time>2026-04-26T08:44:42.917Z</time></trkpt><trkpt lat="38.0911211834269" lon="15.142333814355045"><ele>102.0</ele><time>2026-04-26T08:44:43.917Z</time></trkpt><trkpt lat="38.091061230602854" lon="15.142420731754044"><ele>102.0</ele><time>2026-04-26T08:44:44.917Z</time></trkpt><trkpt lat="38.09102744854425" lon="15.142519254222812"><ele>102.0</ele><time>2026-04-26T08:44:45.917Z</time></trkpt><trkpt lat="38.090996736296944" lon="15.142615355633705"><ele>102.0</ele><time>2026-04-26T08:44:46.917Z</time></trkpt><trkpt lat="38.090978256217575" lon="15.142714022470624"><ele>102.0</ele><time>2026-04-26T08:44:47.917Z</time></trkpt><trkpt lat="38.090964857731215" lon="15.14281629386929"><ele>102.0</ele><time>2026-04-26T08:44:48.917Z</time></trkpt><trkpt lat="38.09096671659572" lon="15.1429183584814"><ele>102.0</ele><time>2026-04-26T08:44:49.917Z</time></trkpt><trkpt lat="38.09098316161975" lon="15.143014813697734"><ele>102.0</ele><time>2026-04-26T08:44:50.917Z</time></trkpt><trkpt lat="38.09102497587817" lon="15.143098129726049"><ele>102.0</ele><time>2026-04-26T08:44:51.917Z</time></trkpt><trkpt lat="38.09107642037743" lon="15.143185103091897"><ele>102.0</ele><time>2026-04-26T08:44:52.917Z</time></trkpt><trkpt lat="38.09113809460247" lon="15.14326665130226"><ele>102.0</ele><time>2026-04-26T08:44:53.917Z</time></trkpt><trkpt lat="38.09119892558919" lon="15.143347715336956"><ele>102.0</ele><time>2026-04-26T08:44:54.917Z</time></trkpt><trkpt lat="38.09125501516011" lon="15.143428580093937"><ele>102.0</ele><time>2026-04-26T08:44:55.917Z</time></trkpt><trkpt lat="38.09131812802639" lon="15.143512027828537"><ele>102.0</ele><time>2026-04-26T08:44:56.917Z</time></trkpt><trkpt lat="38.09138979008029" lon="15.143599177306726"><ele>102.0</ele><time>2026-04-26T08:44:57.917Z</time></trkpt><trkpt lat="38.09146035668937" lon="15.143688288439488"><ele>102.0</ele><time>2026-04-26T08:44:58.917Z</time></trkpt><trkpt lat="38.09153285456248" lon="15.143780385784334"><ele>102.0</ele><time>2026-04-26T08:44:59.917Z</time></trkpt><trkpt lat="38.09160522569889" lon="15.14386311746113"><ele>102.0</ele><time>2026-04-26T08:45:00.917Z</time></trkpt><trkpt lat="38.091675270359374" lon="15.143943806708288"><ele>102.0</ele><time>2026-04-26T08:45:01.917Z</time></trkpt><trkpt lat="38.09174583319277" lon="15.144022306708365"><ele>102.0</ele><time>2026-04-26T08:45:02.917Z</time></trkpt><trkpt lat="38.09181238776581" lon="15.144099417604687"><ele>102.0</ele><time>2026-04-26T08:45:03.917Z</time></trkpt><trkpt lat="38.09187183342516" lon="15.1441847081428"><ele>102.0</ele><time>2026-04-26T08:45:04.917Z</time></trkpt><trkpt lat="38.091940352625336" lon="15.14426484483554"><ele>102.0</ele><time>2026-04-26T08:45:05.917Z</time></trkpt><trkpt lat="38.09200539856927" lon="15.14434217830908"><ele>102.0</ele><time>2026-04-26T08:45:06.917Z</time></trkpt><trkpt lat="38.092066601461546" lon="15.144411083522698"><ele>102.0</ele><time>2026-04-26T08:45:07.917Z</time></trkpt><trkpt lat="38.092120936672956" lon="15.144474816553869"><ele>102.0</ele><time>2026-04-26T08:45:08.917Z</time></trkpt><trkpt lat="38.09217443853754" lon="15.144540062304163"><ele>102.0</ele><time>2026-04-26T08:45:09.917Z</time></trkpt><trkpt lat="38.09223105359664" lon="15.144611697646152"><ele>102.0</ele><time>2026-04-26T08:45:10.916Z</time></trkpt><trkpt lat="38.09228711008477" lon="15.14468026403235"><ele>102.0</ele><time>2026-04-26T08:45:11.916Z</time></trkpt><trkpt lat="38.092338980950736" lon="15.144751055038615"><ele>102.0</ele><time>2026-04-26T08:45:12.916Z</time></trkpt><trkpt lat="38.09238488972582" lon="15.144818046902365"><ele>102.0</ele><time>2026-04-26T08:45:13.916Z</time></trkpt><trkpt lat="38.09244061355038" lon="15.144881727611734"><ele>102.0</ele><time>2026-04-26T08:45:14.916Z</time></trkpt><trkpt lat="38.09248333571574" lon="15.144944411500681"><ele>102.0</ele><time>2026-04-26T08:45:15.916Z</time></trkpt><trkpt lat="38.092530489298206" lon="15.145009180523857"><ele>101.71428571428572</ele><time>2026-04-26T08:45:16.916Z</time></trkpt><trkpt lat="38.09258594828221" lon="15.145082798598034"><ele>101.42857142857143</ele><time>2026-04-26T08:45:17.916Z</time></trkpt><trkpt lat="38.092641474576766" lon="15.145153782309492"><ele>101.14285714285714</ele><time>2026-04-26T08:45:18.916Z</time></trkpt><trkpt lat="38.09268766223937" lon="15.14521569041602"><ele>100.85714285714286</ele><time>2026-04-26T08:45:19.916Z</time></trkpt><trkpt lat="38.092731744437216" lon="15.14528245185318"><ele>100.57142857142857</ele><time>2026-04-26T08:45:20.916Z</time></trkpt><trkpt lat="38.09277696312448" lon="15.145348510297834"><ele>100.28571428571429</ele><time>2026-04-26T08:45:21.916Z</time></trkpt><trkpt lat="38.092837352391896" lon="15.145421067212435"><ele>100.0</ele><time>2026-04-26T08:45:22.916Z</time></trkpt><trkpt lat="38.09289545816154" lon="15.145492149339766"><ele>100.00000000000001</ele><time>2026-04-26T08:45:23.916Z</time></trkpt><trkpt lat="38.09295969050083" lon="15.14556040357193"><ele>100.0</ele><time>2026-04-26T08:45:24.916Z</time></trkpt><trkpt lat="38.09302715303922" lon="15.145621194816595"><ele>100.0</ele><time>2026-04-26T08:45:25.916Z</time></trkpt><trkpt lat="38.09308775835148" lon="15.14568119663788"><ele>100.0</ele><time>2026-04-26T08:45:26.916Z</time></trkpt><trkpt lat="38.09315305845644" lon="15.145728499846829"><ele>100.00000000000001</ele><time>2026-04-26T08:45:27.916Z</time></trkpt><trkpt lat="38.09322172902037" lon="15.145771643723986"><ele>100.0</ele><time>2026-04-26T08:45:28.916Z</time></trkpt><trkpt lat="38.093307496129874" lon="15.145804505040008"><ele>100.16666666666667</ele><time>2026-04-26T08:45:29.916Z</time></trkpt><trkpt lat="38.09339083088773" lon="15.14583621679926"><ele>100.33333333333334</ele><time>2026-04-26T08:45:30.916Z</time></trkpt><trkpt lat="38.093481265860376" lon="15.145855215193384"><ele>100.5</ele><time>2026-04-26T08:45:31.916Z</time></trkpt><trkpt lat="38.09356366248555" lon="15.145862176329759"><ele>100.66666666666666</ele><time>2026-04-26T08:45:32.917Z</time></trkpt><trkpt lat="38.093638767272246" lon="15.145868574008103"><ele>100.83333333333333</ele><time>2026-04-26T08:45:33.917Z</time></trkpt><trkpt lat="38.093702830989386" lon="15.145867433270027"><ele>101.0</ele><time>2026-04-26T08:45:34.917Z</time></trkpt><trkpt lat="38.09381599990749" lon="15.145849699215356"><ele>101.0</ele><time>2026-04-26T08:45:36.916Z</time></trkpt><trkpt lat="38.09390312610262" lon="15.145832679577666"><ele>101.0</ele><time>2026-04-26T08:45:38.917Z</time></trkpt><trkpt lat="38.0939512157679" lon="15.145886286593248"><ele>101.0</ele><time>2026-04-26T08:45:40.916Z</time></trkpt><trkpt lat="38.0940064283615" lon="15.14579894007356"><ele>101.0</ele><time>2026-04-26T08:46:33.889Z</time></trkpt><trkpt lat="38.09412022376978" lon="15.145719348771964"><ele>101.0</ele><time>2026-04-26T08:46:35.888Z</time></trkpt><trkpt lat="38.094213990933376" lon="15.145685124750628"><ele>99.0</ele><time>2026-04-26T08:46:36.888Z</time></trkpt><trkpt lat="38.094309272034984" lon="15.14563829590668"><ele>97.0</ele><time>2026-04-26T08:46:37.888Z</time></trkpt><trkpt lat="38.09441248069074" lon="15.145589072356382"><ele>95.0</ele><time>2026-04-26T08:46:38.887Z</time></trkpt><trkpt lat="38.09453341939712" lon="15.145545619856989"><ele>93.0</ele><time>2026-04-26T08:46:39.887Z</time></trkpt><trkpt lat="38.09466899905014" lon="15.145528114943179"><ele>93.0</ele><time>2026-04-26T08:46:40.887Z</time></trkpt><trkpt lat="38.09481492474534" lon="15.145529574244556"><ele>93.0</ele><time>2026-04-26T08:46:41.887Z</time></trkpt><trkpt lat="38.09496723831544" lon="15.145557488742226"><ele>93.0</ele><time>2026-04-26T08:46:42.886Z</time></trkpt><trkpt lat="38.09513203072711" lon="15.145586032620566"><ele>92.66666666666667</ele><time>2026-04-26T08:46:43.886Z</time></trkpt><trkpt lat="38.09531211093468" lon="15.145613490081187"><ele>92.33333333333334</ele><time>2026-04-26T08:46:44.886Z</time></trkpt><trkpt lat="38.095493513207664" lon="15.145631400425788"><ele>92.0</ele><time>2026-04-26T08:46:45.886Z</time></trkpt><trkpt lat="38.0956640818919" lon="15.145653708567034"><ele>92.0</ele><time>2026-04-26T08:46:46.886Z</time></trkpt><trkpt lat="38.09581373622102" lon="15.145615300709197"><ele>92.0</ele><time>2026-04-26T08:46:47.886Z</time></trkpt><trkpt lat="38.09595871588195" lon="15.14551358764806"><ele>92.0</ele><time>2026-04-26T08:46:48.885Z</time></trkpt><trkpt lat="38.096099110745314" lon="15.145383251910303"><ele>92.0</ele><time>2026-04-26T08:46:49.885Z</time></trkpt><trkpt lat="38.09623351970182" lon="15.145287812869494"><ele>92.0</ele><time>2026-04-26T08:46:50.885Z</time></trkpt><trkpt lat="38.09636480438955" lon="15.145247694220833"><ele>92.0</ele><time>2026-04-26T08:46:51.885Z</time></trkpt><trkpt lat="38.09651795620294" lon="15.14527390275748"><ele>92.0</ele><time>2026-04-26T08:46:52.885Z</time></trkpt><trkpt lat="38.096698875507464" lon="15.145314050585046"><ele>92.33333333333334</ele><time>2026-04-26T08:46:53.885Z</time></trkpt><trkpt lat="38.09689490937806" lon="15.145302303179626"><ele>92.66666666666667</ele><time>2026-04-26T08:46:54.885Z</time></trkpt><trkpt lat="38.09711226560334" lon="15.145235149655072"><ele>93.0</ele><time>2026-04-26T08:46:55.884Z</time></trkpt><trkpt lat="38.097310789956126" lon="15.145141944607932"><ele>92.33333333333333</ele><time>2026-04-26T08:46:56.884Z</time></trkpt><trkpt lat="38.09748498209269" lon="15.145052725391793"><ele>91.66666666666666</ele><time>2026-04-26T08:46:57.884Z</time></trkpt><trkpt lat="38.09763743526583" lon="15.144949442151521"><ele>91.0</ele><time>2026-04-26T08:46:58.884Z</time></trkpt><trkpt lat="38.09776146097947" lon="15.144791192186842"><ele>91.0</ele><time>2026-04-26T08:46:59.884Z</time></trkpt><trkpt lat="38.09788759813469" lon="15.144621258232018"><ele>91.0</ele><time>2026-04-26T08:47:00.884Z</time></trkpt><trkpt lat="38.09799580648034" lon="15.144453510006567"><ele>91.0</ele><time>2026-04-26T08:47:01.884Z</time></trkpt><trkpt lat="38.09808642194547" lon="15.144300214868727"><ele>91.0</ele><time>2026-04-26T08:47:02.884Z</time></trkpt><trkpt lat="38.0981300346995" lon="15.144144591631365"><ele>91.0</ele><time>2026-04-26T08:47:03.884Z</time></trkpt><trkpt lat="38.09814627098066" lon="15.143984872616928"><ele>91.0</ele><time>2026-04-26T08:47:04.884Z</time></trkpt><trkpt lat="38.09811074676545" lon="15.14379824163432"><ele>91.0</ele><time>2026-04-26T08:47:05.884Z</time></trkpt><trkpt lat="38.09804034198865" lon="15.143626141424095"><ele>90.0</ele><time>2026-04-26T08:47:06.884Z</time></trkpt><trkpt lat="38.09799132408518" lon="15.143494731445044"><ele>89.0</ele><time>2026-04-26T08:47:07.883Z</time></trkpt><trkpt lat="38.09797733701986" lon="15.14337848779023"><ele>88.0</ele><time>2026-04-26T08:47:08.883Z</time></trkpt><trkpt lat="38.09800767913272" lon="15.143291352204127"><ele>87.0</ele><time>2026-04-26T08:47:09.883Z</time></trkpt><trkpt lat="38.0981007529888" lon="15.143237580497921"><ele>86.0</ele><time>2026-04-26T08:47:10.883Z</time></trkpt><trkpt lat="38.09822625649636" lon="15.143168785898089"><ele>85.0</ele><time>2026-04-26T08:47:11.883Z</time></trkpt><trkpt lat="38.0983748433525" lon="15.14305787219941"><ele>84.0</ele><time>2026-04-26T08:47:12.883Z</time></trkpt><trkpt lat="38.098521262998666" lon="15.142949486203287"><ele>83.0</ele><time>2026-04-26T08:47:13.883Z</time></trkpt><trkpt lat="38.09865083644623" lon="15.142854753595712"><ele>83.0</ele><time>2026-04-26T08:47:14.883Z</time></trkpt><trkpt lat="38.098746944626825" lon="15.142802163178727"><ele>83.0</ele><time>2026-04-26T08:47:15.883Z</time></trkpt><trkpt lat="38.098837413471834" lon="15.142808320836036"><ele>83.0</ele><time>2026-04-26T08:47:16.883Z</time></trkpt><trkpt lat="38.098936759186294" lon="15.142925307811518"><ele>83.0</ele><time>2026-04-26T08:47:17.883Z</time></trkpt><trkpt lat="38.0990755848662" lon="15.143070236435928"><ele>84.66666666666667</ele><time>2026-04-26T08:47:18.883Z</time></trkpt><trkpt lat="38.09921642621608" lon="15.14322128402147"><ele>86.33333333333333</ele><time>2026-04-26T08:47:19.883Z</time></trkpt><trkpt lat="38.099343597665694" lon="15.143358758286306"><ele>88.0</ele><time>2026-04-26T08:47:20.883Z</time></trkpt><trkpt lat="38.09946931039844" lon="15.143464527926106"><ele>88.0</ele><time>2026-04-26T08:47:21.883Z</time></trkpt><trkpt lat="38.09958556260254" lon="15.143563556177794"><ele>88.0</ele><time>2026-04-26T08:47:22.883Z</time></trkpt><trkpt lat="38.09972090990686" lon="15.143628781853291"><ele>88.0</ele><time>2026-04-26T08:47:23.883Z</time></trkpt><trkpt lat="38.099868316944985" lon="15.14364832722225"><ele>88.0</ele><time>2026-04-26T08:47:24.883Z</time></trkpt><trkpt lat="38.10002513042377" lon="15.14364437289157"><ele>86.75</ele><time>2026-04-26T08:47:25.883Z</time></trkpt><trkpt lat="38.10017993147591" lon="15.143609049451607"><ele>85.5</ele><time>2026-04-26T08:47:26.882Z</time></trkpt><trkpt lat="38.10032202630627" lon="15.143588406404126"><ele>84.25</ele><time>2026-04-26T08:47:27.882Z</time></trkpt><trkpt lat="38.1004545322373" lon="15.143558912009233"><ele>83.0</ele><time>2026-04-26T08:47:28.882Z</time></trkpt><trkpt lat="38.10057144764161" lon="15.14356817963198"><ele>83.0</ele><time>2026-04-26T08:47:29.882Z</time></trkpt><trkpt lat="38.100664861401356" lon="15.143620508499174"><ele>83.0</ele><time>2026-04-26T08:47:30.882Z</time></trkpt><trkpt lat="38.10072894755316" lon="15.143709756285869"><ele>83.0</ele><time>2026-04-26T08:47:31.882Z</time></trkpt><trkpt lat="38.10076702188329" lon="15.143831926932204"><ele>83.0</ele><time>2026-04-26T08:47:32.882Z</time></trkpt><trkpt lat="38.100776934575336" lon="15.143984734567074"><ele>83.0</ele><time>2026-04-26T08:47:33.882Z</time></trkpt><trkpt lat="38.10082975415613" lon="15.144124630217943"><ele>83.0</ele><time>2026-04-26T08:47:34.882Z</time></trkpt><trkpt lat="38.10091712708707" lon="15.14423898178549"><ele>83.0</ele><time>2026-04-26T08:47:35.882Z</time></trkpt><trkpt lat="38.10100159773556" lon="15.144359884537222"><ele>83.0</ele><time>2026-04-26T08:47:36.882Z</time></trkpt><trkpt lat="38.10113616320994" lon="15.144451357024815"><ele>83.0</ele><time>2026-04-26T08:47:37.882Z</time></trkpt><trkpt lat="38.101281237048546" lon="15.144505209895636"><ele>83.0</ele><time>2026-04-26T08:47:38.884Z</time></trkpt><trkpt lat="38.10141926124921" lon="15.14455779125931"><ele>83.0</ele><time>2026-04-26T08:47:39.883Z</time></trkpt><trkpt lat="38.10154582947635" lon="15.144636518091586"><ele>83.0</ele><time>2026-04-26T08:47:40.883Z</time></trkpt><trkpt lat="38.10166476847525" lon="15.144757808390388"><ele>83.0</ele><time>2026-04-26T08:47:41.883Z</time></trkpt><trkpt lat="38.10178948233007" lon="15.144895884459268"><ele>82.33333333333334</ele><time>2026-04-26T08:47:42.883Z</time></trkpt><trkpt lat="38.10191757252735" lon="15.145014383744545"><ele>81.66666666666667</ele><time>2026-04-26T08:47:43.883Z</time></trkpt><trkpt lat="38.102032612782885" lon="15.145140711757803"><ele>81.0</ele><time>2026-04-26T08:47:44.883Z</time></trkpt><trkpt lat="38.10214159457807" lon="15.145258041573348"><ele>81.0</ele><time>2026-04-26T08:47:45.883Z</time></trkpt><trkpt lat="38.102240621080554" lon="15.14537760917524"><ele>81.0</ele><time>2026-04-26T08:47:46.883Z</time></trkpt><trkpt lat="38.10231709701337" lon="15.145522715893083"><ele>81.0</ele><time>2026-04-26T08:47:47.883Z</time></trkpt><trkpt lat="38.102368366189125" lon="15.14570352779958"><ele>81.0</ele><time>2026-04-26T08:47:48.883Z</time></trkpt><trkpt lat="38.1024003901775" lon="15.145876124762294"><ele>79.8</ele><time>2026-04-26T08:47:49.883Z</time></trkpt><trkpt lat="38.10244951983201" lon="15.146023003999975"><ele>78.6</ele><time>2026-04-26T08:47:50.883Z</time></trkpt><trkpt lat="38.102523996272446" lon="15.146121699534591"><ele>77.4</ele><time>2026-04-26T08:47:51.883Z</time></trkpt><trkpt lat="38.10262331856107" lon="15.146162804635512"><ele>76.2</ele><time>2026-04-26T08:47:52.883Z</time></trkpt><trkpt lat="38.102732167848444" lon="15.146175171715898"><ele>75.0</ele><time>2026-04-26T08:47:53.883Z</time></trkpt><trkpt lat="38.10285415998365" lon="15.146093228524634"><ele>75.0</ele><time>2026-04-26T08:47:54.883Z</time></trkpt><trkpt lat="38.102941841132214" lon="15.14595630412873"><ele>75.0</ele><time>2026-04-26T08:47:55.883Z</time></trkpt><trkpt lat="38.10305379012196" lon="15.145849052081829"><ele>75.0</ele><time>2026-04-26T08:47:56.883Z</time></trkpt><trkpt lat="38.10314045414335" lon="15.145733091494801"><ele>75.0</ele><time>2026-04-26T08:47:57.883Z</time></trkpt><trkpt lat="38.103243646523055" lon="15.145677285562865"><ele>74.0</ele><time>2026-04-26T08:47:58.883Z</time></trkpt><trkpt lat="38.10336058008074" lon="15.14567734654287"><ele>73.0</ele><time>2026-04-26T08:47:59.882Z</time></trkpt><trkpt lat="38.10348918950998" lon="15.145726338757719"><ele>72.0</ele><time>2026-04-26T08:48:00.882Z</time></trkpt><trkpt lat="38.10359851028764" lon="15.145802273536958"><ele>71.0</ele><time>2026-04-26T08:48:01.882Z</time></trkpt><trkpt lat="38.103689819625" lon="15.145874476588446"><ele>71.0</ele><time>2026-04-26T08:48:02.882Z</time></trkpt><trkpt lat="38.10376536647673" lon="15.145958022400551"><ele>71.0</ele><time>2026-04-26T08:48:03.882Z</time></trkpt><trkpt lat="38.10382971393536" lon="15.146057805426953"><ele>71.0</ele><time>2026-04-26T08:48:04.882Z</time></trkpt><trkpt lat="38.103900971276346" lon="15.146176740368196"><ele>71.0</ele><time>2026-04-26T08:48:05.882Z</time></trkpt><trkpt lat="38.10398950760602" lon="15.14629307084924"><ele>71.0</ele><time>2026-04-26T08:48:06.882Z</time></trkpt><trkpt lat="38.104086216914936" lon="15.146394911278437"><ele>71.75</ele><time>2026-04-26T08:48:07.882Z</time></trkpt><trkpt lat="38.104179032300635" lon="15.146498743202496"><ele>72.5</ele><time>2026-04-26T08:48:08.882Z</time></trkpt><trkpt lat="38.104254003230224" lon="15.146618213295753"><ele>73.25</ele><time>2026-04-26T08:48:09.882Z</time></trkpt><trkpt lat="38.1043126203319" lon="15.146755458918634"><ele>74.0</ele><time>2026-04-26T08:48:10.882Z</time></trkpt><trkpt lat="38.10435696871215" lon="15.146880958767458"><ele>74.0</ele><time>2026-04-26T08:48:11.882Z</time></trkpt><trkpt lat="38.10442728505471" lon="15.146969609787313"><ele>74.0</ele><time>2026-04-26T08:48:12.882Z</time></trkpt><trkpt lat="38.104516929862775" lon="15.146992942098858"><ele>74.0</ele><time>2026-04-26T08:48:13.882Z</time></trkpt><trkpt lat="38.104610403245445" lon="15.146982986345614"><ele>74.0</ele><time>2026-04-26T08:48:14.882Z</time></trkpt><trkpt lat="38.10468716600997" lon="15.146869165007168"><ele>74.0</ele><time>2026-04-26T08:48:15.882Z</time></trkpt><trkpt lat="38.10473730251435" lon="15.146746819538293"><ele>74.0</ele><time>2026-04-26T08:48:16.882Z</time></trkpt><trkpt lat="38.1047961805535" lon="15.146580023555448"><ele>74.0</ele><time>2026-04-26T08:48:17.882Z</time></trkpt><trkpt lat="38.10480463441938" lon="15.146367443873459"><ele>74.0</ele><time>2026-04-26T08:48:18.882Z</time></trkpt><trkpt lat="38.10478583176966" lon="15.146195961967285"><ele>74.0</ele><time>2026-04-26T08:48:19.882Z</time></trkpt><trkpt lat="38.10475671862058" lon="15.146043788894092"><ele>72.83333333333334</ele><time>2026-04-26T08:48:20.882Z</time></trkpt><trkpt lat="38.104733262798085" lon="15.145927244179333"><ele>71.66666666666667</ele><time>2026-04-26T08:48:21.882Z</time></trkpt><trkpt lat="38.10472498741806" lon="15.14582701498228"><ele>70.5</ele><time>2026-04-26T08:48:22.882Z</time></trkpt><trkpt lat="38.10475646940915" lon="15.145733329041345"><ele>69.33333333333333</ele><time>2026-04-26T08:48:23.882Z</time></trkpt><trkpt lat="38.10484567426764" lon="15.145688455131642"><ele>68.16666666666666</ele><time>2026-04-26T08:48:24.882Z</time></trkpt><trkpt lat="38.10492926933673" lon="15.145637317581823"><ele>67.0</ele><time>2026-04-26T08:48:25.882Z</time></trkpt><trkpt lat="38.105019124794175" lon="15.145583898187704"><ele>66.25</ele><time>2026-04-26T08:48:26.882Z</time></trkpt><trkpt lat="38.10512017069369" lon="15.145526773215822"><ele>65.5</ele><time>2026-04-26T08:48:27.882Z</time></trkpt><trkpt lat="38.10522633161478" lon="15.14547720419565"><ele>64.75</ele><time>2026-04-26T08:48:28.882Z</time></trkpt><trkpt lat="38.105339494045154" lon="15.14544239973324"><ele>64.0</ele><time>2026-04-26T08:48:29.881Z</time></trkpt><trkpt lat="38.10547371098616" lon="15.145492829132564"><ele>64.0</ele><time>2026-04-26T08:48:30.881Z</time></trkpt><trkpt lat="38.10559667048684" lon="15.145577837294299"><ele>64.0</ele><time>2026-04-26T08:48:31.881Z</time></trkpt><trkpt lat="38.105702653061755" lon="15.145689801636987"><ele>64.0</ele><time>2026-04-26T08:48:32.881Z</time></trkpt><trkpt lat="38.10581610053997" lon="15.145803724575822"><ele>64.0</ele><time>2026-04-26T08:48:33.881Z</time></trkpt><trkpt lat="38.1059321879311" lon="15.145926672489681"><ele>66.0</ele><time>2026-04-26T08:48:34.881Z</time></trkpt><trkpt lat="38.1060425972275" lon="15.146062822441305"><ele>68.0</ele><time>2026-04-26T08:48:35.881Z</time></trkpt><trkpt lat="38.10614238192094" lon="15.146213472625316"><ele>70.0</ele><time>2026-04-26T08:48:36.881Z</time></trkpt><trkpt lat="38.10623735517764" lon="15.146371329821337"><ele>70.0</ele><time>2026-04-26T08:48:37.881Z</time></trkpt><trkpt lat="38.10633605899729" lon="15.146534913423572"><ele>70.0</ele><time>2026-04-26T08:48:38.881Z</time></trkpt><trkpt lat="38.10643037905201" lon="15.146695874741303"><ele>70.0</ele><time>2026-04-26T08:48:39.881Z</time></trkpt><trkpt lat="38.106529373413764" lon="15.146847501892221"><ele>69.75</ele><time>2026-04-26T08:48:40.881Z</time></trkpt><trkpt lat="38.106640039156744" lon="15.146972971543837"><ele>69.5</ele><time>2026-04-26T08:48:41.881Z</time></trkpt><trkpt lat="38.10676588339829" lon="15.147062021872705"><ele>69.25</ele><time>2026-04-26T08:48:42.881Z</time></trkpt><trkpt lat="38.1068942802463" lon="15.147123725021142"><ele>69.0</ele><time>2026-04-26T08:48:43.881Z</time></trkpt><trkpt lat="38.10701393829402" lon="15.147188282641034"><ele>69.0</ele><time>2026-04-26T08:48:44.881Z</time></trkpt><trkpt lat="38.1071223717187" lon="15.147286880873414"><ele>69.0</ele><time>2026-04-26T08:48:45.881Z</time></trkpt><trkpt lat="38.10722959289672" lon="15.147411079288405"><ele>69.0</ele><time>2026-04-26T08:48:46.881Z</time></trkpt><trkpt lat="38.10733611769565" lon="15.147549153130244"><ele>69.0</ele><time>2026-04-26T08:48:47.881Z</time></trkpt><trkpt lat="38.10742083055011" lon="15.147702156164048"><ele>68.0</ele><time>2026-04-26T08:48:48.881Z</time></trkpt><trkpt lat="38.10751343914392" lon="15.14783582106411"><ele>67.0</ele><time>2026-04-26T08:48:49.881Z</time></trkpt><trkpt lat="38.10760488651874" lon="15.147967809936851"><ele>66.0</ele><time>2026-04-26T08:48:50.881Z</time></trkpt><trkpt lat="38.10768791405353" lon="15.148089221780225"><ele>65.0</ele><time>2026-04-26T08:48:51.881Z</time></trkpt><trkpt lat="38.107762759028425" lon="15.148205557738699"><ele>67.0</ele><time>2026-04-26T08:48:52.881Z</time></trkpt><trkpt lat="38.10779368415405" lon="15.148342731209485"><ele>69.0</ele><time>2026-04-26T08:48:53.881Z</time></trkpt><trkpt lat="38.10777535343779" lon="15.148498117424179"><ele>71.0</ele><time>2026-04-26T08:48:54.881Z</time></trkpt><trkpt lat="38.107720528074275" lon="15.148673521644882"><ele>73.0</ele><time>2026-04-26T08:48:55.881Z</time></trkpt><trkpt lat="38.10769244124352" lon="15.148849628559516"><ele>73.0</ele><time>2026-04-26T08:48:56.881Z</time></trkpt><trkpt lat="38.10770034100357" lon="15.14902761801165"><ele>73.0</ele><time>2026-04-26T08:48:57.881Z</time></trkpt><trkpt lat="38.10773599520305" lon="15.149191348385461"><ele>73.0</ele><time>2026-04-26T08:48:58.881Z</time></trkpt><trkpt lat="38.107800312400904" lon="15.149329174836037"><ele>73.0</ele><time>2026-04-26T08:48:59.881Z</time></trkpt><trkpt lat="38.107894603711784" lon="15.149416479299243"><ele>72.5</ele><time>2026-04-26T08:49:00.88Z</time></trkpt><trkpt lat="38.108004633085585" lon="15.149451875388042"><ele>72.0</ele><time>2026-04-26T08:49:01.88Z</time></trkpt><trkpt lat="38.108120416321356" lon="15.14943640887056"><ele>71.5</ele><time>2026-04-26T08:49:02.88Z</time></trkpt><trkpt lat="38.10823503654482" lon="15.149366407382214"><ele>71.0</ele><time>2026-04-26T08:49:03.88Z</time></trkpt><trkpt lat="38.108342172434334" lon="15.149266386667545"><ele>71.0</ele><time>2026-04-26T08:49:04.88Z</time></trkpt><trkpt lat="38.10845573614513" lon="15.149173668173534"><ele>71.0</ele><time>2026-04-26T08:49:05.88Z</time></trkpt><trkpt lat="38.10856834562116" lon="15.149123010482928"><ele>71.0</ele><time>2026-04-26T08:49:06.88Z</time></trkpt><trkpt lat="38.108670911218304" lon="15.149101853643927"><ele>71.0</ele><time>2026-04-26T08:49:07.88Z</time></trkpt><trkpt lat="38.108754307450674" lon="15.149103444551256"><ele>71.0</ele><time>2026-04-26T08:49:08.88Z</time></trkpt><trkpt lat="38.108830219637134" lon="15.149090182450946"><ele>69.8</ele><time>2026-04-26T08:49:09.88Z</time></trkpt><trkpt lat="38.10890066054549" lon="15.149025333339559"><ele>68.6</ele><time>2026-04-26T08:49:10.88Z</time></trkpt><trkpt lat="38.10893718651411" lon="15.148912560063053"><ele>67.4</ele><time>2026-04-26T08:49:11.88Z</time></trkpt><trkpt lat="38.10895065884265" lon="15.148763538851046"><ele>66.2</ele><time>2026-04-26T08:49:12.88Z</time></trkpt><trkpt lat="38.10899837256285" lon="15.148596850938612"><ele>65.0</ele><time>2026-04-26T08:49:13.88Z</time></trkpt><trkpt lat="38.109073060632056" lon="15.14843582857125"><ele>65.33333333333334</ele><time>2026-04-26T08:49:14.88Z</time></trkpt><trkpt lat="38.1091557796161" lon="15.148277666185889"><ele>65.66666666666667</ele><time>2026-04-26T08:49:15.88Z</time></trkpt><trkpt lat="38.10923799152077" lon="15.148121867130241"><ele>66.0</ele><time>2026-04-26T08:49:16.88Z</time></trkpt><trkpt lat="38.109357653803066" lon="15.14799758627334"><ele>66.0</ele><time>2026-04-26T08:49:17.88Z</time></trkpt><trkpt lat="38.10944479476271" lon="15.147845933015471"><ele>66.0</ele><time>2026-04-26T08:49:18.88Z</time></trkpt><trkpt lat="38.10953438644677" lon="15.147701042974713"><ele>66.0</ele><time>2026-04-26T08:49:19.88Z</time></trkpt><trkpt lat="38.10963967714807" lon="15.147568257987619"><ele>66.0</ele><time>2026-04-26T08:49:20.88Z</time></trkpt><trkpt lat="38.10976627749022" lon="15.14745740534347"><ele>67.0</ele><time>2026-04-26T08:49:21.88Z</time></trkpt><trkpt lat="38.109890203668904" lon="15.14736534821907"><ele>68.0</ele><time>2026-04-26T08:49:22.88Z</time></trkpt><trkpt lat="38.110014176805585" lon="15.147274754576063"><ele>69.0</ele><time>2026-04-26T08:49:23.88Z</time></trkpt><trkpt lat="38.11013921365665" lon="15.147178088343932"><ele>70.0</ele><time>2026-04-26T08:49:24.88Z</time></trkpt><trkpt lat="38.110247803044594" lon="15.14705736095047"><ele>70.0</ele><time>2026-04-26T08:49:25.88Z</time></trkpt><trkpt lat="38.110332051637165" lon="15.14690294452022"><ele>70.0</ele><time>2026-04-26T08:49:26.88Z</time></trkpt><trkpt lat="38.11041031648896" lon="15.146753095915248"><ele>70.0</ele><time>2026-04-26T08:49:27.88Z</time></trkpt><trkpt lat="38.11049087803853" lon="15.146645229485456"><ele>70.0</ele><time>2026-04-26T08:49:28.88Z</time></trkpt><trkpt lat="38.110588641604174" lon="15.146583320892617"><ele>68.25</ele><time>2026-04-26T08:49:29.88Z</time></trkpt><trkpt lat="38.110693125407465" lon="15.146511137034276"><ele>66.5</ele><time>2026-04-26T08:49:30.879Z</time></trkpt><trkpt lat="38.11081908933154" lon="15.1464634166959"><ele>64.75</ele><time>2026-04-26T08:49:31.879Z</time></trkpt><trkpt lat="38.1109410211526" lon="15.146375117919993"><ele>63.0</ele><time>2026-04-26T08:49:32.879Z</time></trkpt><trkpt lat="38.11104297539475" lon="15.14628001338116"><ele>63.0</ele><time>2026-04-26T08:49:33.879Z</time></trkpt><trkpt lat="38.11115841012202" lon="15.146245114467614"><ele>63.0</ele><time>2026-04-26T08:49:34.879Z</time></trkpt><trkpt lat="38.11128232685893" lon="15.146264362932248"><ele>63.0</ele><time>2026-04-26T08:49:35.879Z</time></trkpt><trkpt lat="38.111416324725305" lon="15.146282324738403"><ele>63.0</ele><time>2026-04-26T08:49:36.879Z</time></trkpt><trkpt lat="38.111559901138136" lon="15.146301452331635"><ele>64.33333333333333</ele><time>2026-04-26T08:49:37.879Z</time></trkpt><trkpt lat="38.1117249379134" lon="15.14632193494377"><ele>65.66666666666666</ele><time>2026-04-26T08:49:38.879Z</time></trkpt><trkpt lat="38.11191570910169" lon="15.146333511324867"><ele>67.0</ele><time>2026-04-26T08:49:39.879Z</time></trkpt><trkpt lat="38.11210093535866" lon="15.146287513194123"><ele>67.0</ele><time>2026-04-26T08:49:40.879Z</time></trkpt><trkpt lat="38.112266751856666" lon="15.146201002011924"><ele>67.0</ele><time>2026-04-26T08:49:41.879Z</time></trkpt><trkpt lat="38.112381236438345" lon="15.146135580397033"><ele>67.0</ele><time>2026-04-26T08:49:42.879Z</time></trkpt><trkpt lat="38.1124732786582" lon="15.14607630950097"><ele>67.0</ele><time>2026-04-26T08:49:43.879Z</time></trkpt><trkpt lat="38.11254641268739" lon="15.145993573528395"><ele>69.2</ele><time>2026-04-26T08:49:44.881Z</time></trkpt><trkpt lat="38.11258345586028" lon="15.14588688884541"><ele>71.4</ele><time>2026-04-26T08:49:45.881Z</time></trkpt><trkpt lat="38.11260658584684" lon="15.145760850380597"><ele>73.6</ele><time>2026-04-26T08:49:46.881Z</time></trkpt><trkpt lat="38.112625403419344" lon="15.145616367831618"><ele>75.8</ele><time>2026-04-26T08:49:47.881Z</time></trkpt><trkpt lat="38.112661826631545" lon="15.145475004306027"><ele>78.0</ele><time>2026-04-26T08:49:48.881Z</time></trkpt><trkpt lat="38.11275073075039" lon="15.145365157366243"><ele>72.0</ele><time>2026-04-26T08:49:49.881Z</time></trkpt><trkpt lat="38.112850439390336" lon="15.145298588386424"><ele>66.0</ele><time>2026-04-26T08:49:50.882Z</time></trkpt><trkpt lat="38.1129670040441" lon="15.145274746478771"><ele>60.0</ele><time>2026-04-26T08:49:51.881Z</time></trkpt><trkpt lat="38.11308170027133" lon="15.145279591376783"><ele>54.0</ele><time>2026-04-26T08:49:52.881Z</time></trkpt><trkpt lat="38.11317442149332" lon="15.14540396325627"><ele>54.0</ele><time>2026-04-26T08:49:53.881Z</time></trkpt><trkpt lat="38.11326156447058" lon="15.14554007126836"><ele>54.0</ele><time>2026-04-26T08:49:54.881Z</time></trkpt><trkpt lat="38.11335724093181" lon="15.145664231438138"><ele>54.0</ele><time>2026-04-26T08:49:55.881Z</time></trkpt><trkpt lat="38.11345831473451" lon="15.145788568941073"><ele>54.0</ele><time>2026-04-26T08:49:56.881Z</time></trkpt><trkpt lat="38.11357928172823" lon="15.145883238233578"><ele>59.0</ele><time>2026-04-26T08:49:57.881Z</time></trkpt><trkpt lat="38.11371414403804" lon="15.145942045791157"><ele>64.0</ele><time>2026-04-26T08:49:58.881Z</time></trkpt><trkpt lat="38.11385869634073" lon="15.1459896280655"><ele>69.0</ele><time>2026-04-26T08:49:59.881Z</time></trkpt><trkpt lat="38.11400473865356" lon="15.145950829910173"><ele>74.0</ele><time>2026-04-26T08:50:00.881Z</time></trkpt><trkpt lat="38.114151115912556" lon="15.145915877405592"><ele>74.0</ele><time>2026-04-26T08:50:01.881Z</time></trkpt><trkpt lat="38.114296725203694" lon="15.145901303281493"><ele>74.0</ele><time>2026-04-26T08:50:02.881Z</time></trkpt><trkpt lat="38.11443803845997" lon="15.145946636851384"><ele>74.0</ele><time>2026-04-26T08:50:03.881Z</time></trkpt><trkpt lat="38.11458254324337" lon="15.145973785212583"><ele>74.0</ele><time>2026-04-26T08:50:04.881Z</time></trkpt><trkpt lat="38.11473434379638" lon="15.145981297320246"><ele>74.0</ele><time>2026-04-26T08:50:05.881Z</time></trkpt><trkpt lat="38.11489852177663" lon="15.14597560518749"><ele>74.0</ele><time>2026-04-26T08:50:06.881Z</time></trkpt><trkpt lat="38.115072195836035" lon="15.145945626083046"><ele>74.0</ele><time>2026-04-26T08:50:07.881Z</time></trkpt><trkpt lat="38.115252662687546" lon="15.14595712411012"><ele>75.0</ele><time>2026-04-26T08:50:08.881Z</time></trkpt><trkpt lat="38.115427233123654" lon="15.145943641437409"><ele>76.0</ele><time>2026-04-26T08:50:09.881Z</time></trkpt><trkpt lat="38.115587773027194" lon="15.145933084732349"><ele>77.0</ele><time>2026-04-26T08:50:10.881Z</time></trkpt><trkpt lat="38.11575204817286" lon="15.145921603395175"><ele>77.66666666666667</ele><time>2026-04-26T08:50:11.881Z</time></trkpt><trkpt lat="38.115926207937065" lon="15.145850266226676"><ele>78.33333333333333</ele><time>2026-04-26T08:50:12.88Z</time></trkpt><trkpt lat="38.116104818116426" lon="15.14571449511432"><ele>79.0</ele><time>2026-04-26T08:50:13.88Z</time></trkpt><trkpt lat="38.11627165883861" lon="15.14555813653481"><ele>78.33333333333333</ele><time>2026-04-26T08:50:14.88Z</time></trkpt><trkpt lat="38.11642301849447" lon="15.145392882797127"><ele>77.66666666666667</ele><time>2026-04-26T08:50:15.88Z</time></trkpt><trkpt lat="38.11654234918628" lon="15.145208386590987"><ele>77.0</ele><time>2026-04-26T08:50:16.88Z</time></trkpt><trkpt lat="38.11663916358219" lon="15.145003068389666"><ele>70.66666666666667</ele><time>2026-04-26T08:50:17.88Z</time></trkpt><trkpt lat="38.116748709670645" lon="15.144829595583193"><ele>64.33333333333333</ele><time>2026-04-26T08:50:18.88Z</time></trkpt><trkpt lat="38.11688095564294" lon="15.144690189733561"><ele>58.0</ele><time>2026-04-26T08:50:19.88Z</time></trkpt><trkpt lat="38.11702241850066" lon="15.144552505488162"><ele>58.0</ele><time>2026-04-26T08:50:20.88Z</time></trkpt><trkpt lat="38.117148053530094" lon="15.144407004159206"><ele>58.0</ele><time>2026-04-26T08:50:21.88Z</time></trkpt><trkpt lat="38.117251383499095" lon="15.14425627915265"><ele>58.0</ele><time>2026-04-26T08:50:22.88Z</time></trkpt><trkpt lat="38.117338122532054" lon="15.144141862995353"><ele>62.0</ele><time>2026-04-26T08:50:23.88Z</time></trkpt><trkpt lat="38.117441058083855" lon="15.144074561455701"><ele>66.0</ele><time>2026-04-26T08:50:24.88Z</time></trkpt><trkpt lat="38.11756741050895" lon="15.144091695506178"><ele>70.0</ele><time>2026-04-26T08:50:25.88Z</time></trkpt><trkpt lat="38.11771472522337" lon="15.144094121621352"><ele>74.0</ele><time>2026-04-26T08:50:26.88Z</time></trkpt><trkpt lat="38.11786736543275" lon="15.144059012821536"><ele>69.0</ele><time>2026-04-26T08:50:27.88Z</time></trkpt><trkpt lat="38.11802210802791" lon="15.1439745162508"><ele>64.0</ele><time>2026-04-26T08:50:28.88Z</time></trkpt><trkpt lat="38.11815338076577" lon="15.143883148503038"><ele>59.0</ele><time>2026-04-26T08:50:29.88Z</time></trkpt><trkpt lat="38.118280164490685" lon="15.143794629692223"><ele>59.0</ele><time>2026-04-26T08:50:30.88Z</time></trkpt><trkpt lat="38.118409804983855" lon="15.143712199146378"><ele>59.0</ele><time>2026-04-26T08:50:31.88Z</time></trkpt><trkpt lat="38.11854093635195" lon="15.143660470052104"><ele>59.0</ele><time>2026-04-26T08:50:32.88Z</time></trkpt><trkpt lat="38.11867559370187" lon="15.143626526688092"><ele>59.0</ele><time>2026-04-26T08:50:33.88Z</time></trkpt><trkpt lat="38.11880590316193" lon="15.143612004726398"><ele>59.0</ele><time>2026-04-26T08:50:34.88Z</time></trkpt><trkpt lat="38.11893670837117" lon="15.14359491697829"><ele>59.00000000000001</ele><time>2026-04-26T08:50:35.88Z</time></trkpt><trkpt lat="38.119047792167684" lon="15.143573267759017"><ele>59.00000000000001</ele><time>2026-04-26T08:50:36.88Z</time></trkpt><trkpt lat="38.11913269013687" lon="15.143498152707265"><ele>59.0</ele><time>2026-04-26T08:50:37.88Z</time></trkpt><trkpt lat="38.11918904933763" lon="15.143404001614922"><ele>59.0</ele><time>2026-04-26T08:50:38.88Z</time></trkpt><trkpt lat="38.11921635773847" lon="15.143260803916904"><ele>58.2</ele><time>2026-04-26T08:50:39.88Z</time></trkpt><trkpt lat="38.119201326239875" lon="15.143103655662362"><ele>57.400000000000006</ele><time>2026-04-26T08:50:40.88Z</time></trkpt><trkpt lat="38.119183402361934" lon="15.14296845360502"><ele>56.6</ele><time>2026-04-26T08:50:41.88Z</time></trkpt><trkpt lat="38.11921462243427" lon="15.142816722552842"><ele>55.8</ele><time>2026-04-26T08:50:42.88Z</time></trkpt><trkpt lat="38.11926997889787" lon="15.142720761254626"><ele>55.0</ele><time>2026-04-26T08:50:43.879Z</time></trkpt><trkpt lat="38.11937088141327" lon="15.142641895040752"><ele>55.0</ele><time>2026-04-26T08:50:44.879Z</time></trkpt><trkpt lat="38.11946942406456" lon="15.142525820401021"><ele>55.0</ele><time>2026-04-26T08:50:45.879Z</time></trkpt><trkpt lat="38.119517608022754" lon="15.142377781537183"><ele>55.0</ele><time>2026-04-26T08:50:46.879Z</time></trkpt><trkpt lat="38.11951795274815" lon="15.14222767898869"><ele>55.0</ele><time>2026-04-26T08:50:47.879Z</time></trkpt><trkpt lat="38.11948627944528" lon="15.142101279072943"><ele>52.6</ele><time>2026-04-26T08:50:48.879Z</time></trkpt><trkpt lat="38.11946110797329" lon="15.14196468780293"><ele>50.2</ele><time>2026-04-26T08:50:49.879Z</time></trkpt><trkpt lat="38.11947697125197" lon="15.141834762440958"><ele>47.8</ele><time>2026-04-26T08:50:50.879Z</time></trkpt><trkpt lat="38.11953770273358" lon="15.141742989778711"><ele>45.4</ele><time>2026-04-26T08:50:51.879Z</time></trkpt><trkpt lat="38.11964200213213" lon="15.141678889060604"><ele>43.0</ele><time>2026-04-26T08:50:52.879Z</time></trkpt><trkpt lat="38.11976100248481" lon="15.141609375359497"><ele>42.75</ele><time>2026-04-26T08:50:53.879Z</time></trkpt><trkpt lat="38.11990171426937" lon="15.141560213537433"><ele>42.5</ele><time>2026-04-26T08:50:54.879Z</time></trkpt><trkpt lat="38.12003160731832" lon="15.141483415874088"><ele>42.25</ele><time>2026-04-26T08:50:55.879Z</time></trkpt><trkpt lat="38.120160967326484" lon="15.14140738299832"><ele>42.0</ele><time>2026-04-26T08:50:56.879Z</time></trkpt><trkpt lat="38.12030061742249" lon="15.141340792414956"><ele>42.0</ele><time>2026-04-26T08:50:57.879Z</time></trkpt><trkpt lat="38.1204472095234" lon="15.141292125138186"><ele>42.0</ele><time>2026-04-26T08:50:58.879Z</time></trkpt><trkpt lat="38.12059461670642" lon="15.141264856991821"><ele>42.0</ele><time>2026-04-26T08:50:59.879Z</time></trkpt><trkpt lat="38.12073790485955" lon="15.141264874923563"><ele>42.0</ele><time>2026-04-26T08:51:00.879Z</time></trkpt><trkpt lat="38.120875748623256" lon="15.141281535474679"><ele>43.0</ele><time>2026-04-26T08:51:01.879Z</time></trkpt><trkpt lat="38.12099016392507" lon="15.141317837661532"><ele>44.0</ele><time>2026-04-26T08:51:02.879Z</time></trkpt><trkpt lat="38.121083697785735" lon="15.141318219676451"><ele>45.0</ele><time>2026-04-26T08:51:03.879Z</time></trkpt><trkpt lat="38.121158476038765" lon="15.141275198873261"><ele>46.0</ele><time>2026-04-26T08:51:04.879Z</time></trkpt><trkpt lat="38.1212002498874" lon="15.141189440479776"><ele>47.0</ele><time>2026-04-26T08:51:05.879Z</time></trkpt><trkpt lat="38.121224234308784" lon="15.141087553788989"><ele>47.0</ele><time>2026-04-26T08:51:06.879Z</time></trkpt><trkpt lat="38.121204161852845" lon="15.140966098803311"><ele>47.0</ele><time>2026-04-26T08:51:07.879Z</time></trkpt><trkpt lat="38.1211583773386" lon="15.140855649472845"><ele>47.0</ele><time>2026-04-26T08:51:08.879Z</time></trkpt><trkpt lat="38.12112167167388" lon="15.140757064800395"><ele>47.0</ele><time>2026-04-26T08:51:09.879Z</time></trkpt><trkpt lat="38.1211180047456" lon="15.14065556206088"><ele>47.0</ele><time>2026-04-26T08:51:10.879Z</time></trkpt><trkpt lat="38.12118619981192" lon="15.14054796710109"><ele>45.0</ele><time>2026-04-26T08:51:11.879Z</time></trkpt><trkpt lat="38.12129617538281" lon="15.140446457072715"><ele>43.0</ele><time>2026-04-26T08:51:12.879Z</time></trkpt><trkpt lat="38.121403049001096" lon="15.140387501853429"><ele>41.0</ele><time>2026-04-26T08:51:13.878Z</time></trkpt><trkpt lat="38.121522848849956" lon="15.140347624965258"><ele>39.0</ele><time>2026-04-26T08:51:14.878Z</time></trkpt><trkpt lat="38.121647827430664" lon="15.140345038445677"><ele>39.0</ele><time>2026-04-26T08:51:15.878Z</time></trkpt><trkpt lat="38.12178159962515" lon="15.140360957757455"><ele>39.0</ele><time>2026-04-26T08:51:16.878Z</time></trkpt><trkpt lat="38.12190964120907" lon="15.140372886314927"><ele>39.0</ele><time>2026-04-26T08:51:17.878Z</time></trkpt><trkpt lat="38.12202326971543" lon="15.140378081945126"><ele>39.0</ele><time>2026-04-26T08:51:18.878Z</time></trkpt><trkpt lat="38.122127314035026" lon="15.140381726832768"><ele>39.0</ele><time>2026-04-26T08:51:19.878Z</time></trkpt><trkpt lat="38.12222383555496" lon="15.14038683250085"><ele>39.0</ele><time>2026-04-26T08:51:20.878Z</time></trkpt><trkpt lat="38.12232140256451" lon="15.140395199804082"><ele>39.0</ele><time>2026-04-26T08:51:21.878Z</time></trkpt><trkpt lat="38.12241351002368" lon="15.140397489498286"><ele>39.0</ele><time>2026-04-26T08:51:22.878Z</time></trkpt><trkpt lat="38.12251682333291" lon="15.140409068763281"><ele>39.0</ele><time>2026-04-26T08:51:23.878Z</time></trkpt><trkpt lat="38.12263141815202" lon="15.140434257708156"><ele>38.4</ele><time>2026-04-26T08:51:24.878Z</time></trkpt><trkpt lat="38.12274415761896" lon="15.140483421278562"><ele>37.8</ele><time>2026-04-26T08:51:25.878Z</time></trkpt><trkpt lat="38.12284176461952" lon="15.140534627724561"><ele>37.2</ele><time>2026-04-26T08:51:26.878Z</time></trkpt><trkpt lat="38.122920813489614" lon="15.14061556093182"><ele>36.6</ele><time>2026-04-26T08:51:27.878Z</time></trkpt><trkpt lat="38.12298257243372" lon="15.140710921130122"><ele>36.0</ele><time>2026-04-26T08:51:28.878Z</time></trkpt><trkpt lat="38.12302865027621" lon="15.140824743827295"><ele>37.0</ele><time>2026-04-26T08:51:29.878Z</time></trkpt><trkpt lat="38.1231097730173" lon="15.140904215046579"><ele>38.0</ele><time>2026-04-26T08:51:30.878Z</time></trkpt><trkpt lat="38.1232195944849" lon="15.140953523300299"><ele>39.0</ele><time>2026-04-26T08:51:31.878Z</time></trkpt><trkpt lat="38.12334083818563" lon="15.140959078222311"><ele>40.0</ele><time>2026-04-26T08:51:32.878Z</time></trkpt><trkpt lat="38.123431342543185" lon="15.141013296622162"><ele>41.0</ele><time>2026-04-26T08:51:33.878Z</time></trkpt><trkpt lat="38.12354501699049" lon="15.141013112943211"><ele>41.0</ele><time>2026-04-26T08:51:34.878Z</time></trkpt><trkpt lat="38.12364923572447" lon="15.141018611042364"><ele>41.0</ele><time>2026-04-26T08:51:35.878Z</time></trkpt><trkpt lat="38.12371256917605" lon="15.141020168421658"><ele>41.0</ele><time>2026-04-26T08:51:36.878Z</time></trkpt><trkpt lat="38.1237934626369" lon="15.141053058377828"><ele>41.0</ele><time>2026-04-26T08:51:37.878Z</time></trkpt><trkpt lat="38.1238943644855" lon="15.141045978254152"><ele>41.0</ele><time>2026-04-26T08:51:39.878Z</time></trkpt><trkpt lat="38.12400524108791" lon="15.141039686030437"><ele>39.599999999999994</ele><time>2026-04-26T08:51:41.878Z</time></trkpt><trkpt lat="38.124089979958235" lon="15.141045821055586"><ele>38.199999999999996</ele><time>2026-04-26T08:51:42.878Z</time></trkpt><trkpt lat="38.12419872863326" lon="15.14105451527748"><ele>36.8</ele><time>2026-04-26T08:51:43.878Z</time></trkpt><trkpt lat="38.12431340386029" lon="15.14106523094863"><ele>35.4</ele><time>2026-04-26T08:51:44.877Z</time></trkpt><trkpt lat="38.12444267657608" lon="15.1410737810279"><ele>34.0</ele><time>2026-04-26T08:51:45.877Z</time></trkpt><trkpt lat="38.124576438885725" lon="15.141093351949532"><ele>34.0</ele><time>2026-04-26T08:51:46.877Z</time></trkpt><trkpt lat="38.12470486816697" lon="15.14110721911603"><ele>34.0</ele><time>2026-04-26T08:51:47.877Z</time></trkpt><trkpt lat="38.12483509707951" lon="15.141087681470157"><ele>34.0</ele><time>2026-04-26T08:51:48.877Z</time></trkpt><trkpt lat="38.12497557827598" lon="15.141047454432696"><ele>34.0</ele><time>2026-04-26T08:51:49.877Z</time></trkpt><trkpt lat="38.125119514277635" lon="15.141021193142572"><ele>33.0</ele><time>2026-04-26T08:51:50.879Z</time></trkpt><trkpt lat="38.12525824578035" lon="15.140969688742791"><ele>32.0</ele><time>2026-04-26T08:51:51.88Z</time></trkpt><trkpt lat="38.125387380773574" lon="15.140916712262777"><ele>31.0</ele><time>2026-04-26T08:51:52.88Z</time></trkpt><trkpt lat="38.12551157998336" lon="15.14088371083634"><ele>30.0</ele><time>2026-04-26T08:51:53.879Z</time></trkpt><trkpt lat="38.12562973703141" lon="15.14083079475487"><ele>30.75</ele><time>2026-04-26T08:51:54.879Z</time></trkpt><trkpt lat="38.12573949039691" lon="15.14078044638181"><ele>31.5</ele><time>2026-04-26T08:51:55.879Z</time></trkpt><trkpt lat="38.125852120742636" lon="15.140723280004686"><ele>32.25</ele><time>2026-04-26T08:51:56.879Z</time></trkpt><trkpt lat="38.12596301355781" lon="15.140666418807378"><ele>33.0</ele><time>2026-04-26T08:51:57.88Z</time></trkpt><trkpt lat="38.12607183834503" lon="15.140614179538234"><ele>30.75</ele><time>2026-04-26T08:51:58.88Z</time></trkpt><trkpt lat="38.126181426582455" lon="15.140572658334913"><ele>28.5</ele><time>2026-04-26T08:51:59.88Z</time></trkpt><trkpt lat="38.126294364057266" lon="15.140524031993856"><ele>26.25</ele><time>2026-04-26T08:52:00.88Z</time></trkpt><trkpt lat="38.12641550167647" lon="15.14046906764307"><ele>24.0</ele><time>2026-04-26T08:52:01.88Z</time></trkpt><trkpt lat="38.126518610970415" lon="15.140414518797757"><ele>24.0</ele><time>2026-04-26T08:52:02.879Z</time></trkpt><trkpt lat="38.12659823180343" lon="15.140359408142645"><ele>24.0</ele><time>2026-04-26T08:52:03.88Z</time></trkpt><trkpt lat="38.12664824605109" lon="15.140286616386918"><ele>24.0</ele><time>2026-04-26T08:52:04.88Z</time></trkpt><trkpt lat="38.12667473252907" lon="15.14020641277416"><ele>24.0</ele><time>2026-04-26T08:52:05.88Z</time></trkpt><trkpt lat="38.126674573050956" lon="15.140099357181033"><ele>24.0</ele><time>2026-04-26T08:52:06.88Z</time></trkpt><trkpt lat="38.126653430115546" lon="15.139976464992051"><ele>24.0</ele><time>2026-04-26T08:52:07.88Z</time></trkpt><trkpt lat="38.1266161527053" lon="15.139856770406524"><ele>24.0</ele><time>2026-04-26T08:52:08.88Z</time></trkpt><trkpt lat="38.12658834405517" lon="15.139680196955197"><ele>24.0</ele><time>2026-04-26T08:52:09.88Z</time></trkpt><trkpt lat="38.126534368214585" lon="15.13949022631066"><ele>24.0</ele><time>2026-04-26T08:52:10.88Z</time></trkpt><trkpt lat="38.126476804010885" lon="15.13931554908856"><ele>24.0</ele><time>2026-04-26T08:52:11.88Z</time></trkpt><trkpt lat="38.126404477173196" lon="15.139175358432503"><ele>24.0</ele><time>2026-04-26T08:52:12.88Z</time></trkpt><trkpt lat="38.12633681098368" lon="15.13906565804842"><ele>24.0</ele><time>2026-04-26T08:52:13.88Z</time></trkpt><trkpt lat="38.126293709329104" lon="15.13896133497866"><ele>24.0</ele><time>2026-04-26T08:52:14.88Z</time></trkpt><trkpt lat="38.12630160740883" lon="15.138864024807425"><ele>24.0</ele><time>2026-04-26T08:52:15.88Z</time></trkpt><trkpt lat="38.12635055642912" lon="15.138766064732716"><ele>24.0</ele><time>2026-04-26T08:52:16.88Z</time></trkpt><trkpt lat="38.12644662402805" lon="15.138729688649102"><ele>24.0</ele><time>2026-04-26T08:52:17.88Z</time></trkpt><trkpt lat="38.126535252464855" lon="15.138733016776252"><ele>24.0</ele><time>2026-04-26T08:52:18.879Z</time></trkpt><trkpt lat="38.126611589115754" lon="15.138707293337642"><ele>24.0</ele><time>2026-04-26T08:52:19.879Z</time></trkpt><trkpt lat="38.12670874119598" lon="15.138666361520682"><ele>24.0</ele><time>2026-04-26T08:52:20.879Z</time></trkpt><trkpt lat="38.126833302555504" lon="15.138614543086154"><ele>24.0</ele><time>2026-04-26T08:52:21.879Z</time></trkpt><trkpt lat="38.12706147134083" lon="15.138533064849653"><ele>24.0</ele><time>2026-04-26T08:52:22.879Z</time></trkpt><trkpt lat="38.127240113361125" lon="15.138511394391411"><ele>24.0</ele><time>2026-04-26T08:52:23.879Z</time></trkpt><trkpt lat="38.12735579658417" lon="15.138505223453572"><ele>23.833333333333332</ele><time>2026-04-26T08:52:24.879Z</time></trkpt><trkpt lat="38.127439624012595" lon="15.138456304912852"><ele>23.666666666666668</ele><time>2026-04-26T08:52:25.879Z</time></trkpt><trkpt lat="38.12749840089058" lon="15.138413042678707"><ele>23.5</ele><time>2026-04-26T08:52:26.879Z</time></trkpt><trkpt lat="38.12751479242229" lon="15.138321738949294"><ele>23.333333333333336</ele><time>2026-04-26T08:52:27.879Z</time></trkpt><trkpt lat="38.127483602742466" lon="15.138204379175303"><ele>23.166666666666668</ele><time>2026-04-26T08:52:28.879Z</time></trkpt><trkpt lat="38.127418334491516" lon="15.13815386215812"><ele>23.0</ele><time>2026-04-26T08:52:29.879Z</time></trkpt><trkpt lat="38.12732544871276" lon="15.138158575160293"><ele>23.25</ele><time>2026-04-26T08:52:30.879Z</time></trkpt><trkpt lat="38.12720898620855" lon="15.138197694365765"><ele>23.5</ele><time>2026-04-26T08:52:31.879Z</time></trkpt><trkpt lat="38.12708095824031" lon="15.138260335773978"><ele>23.75</ele><time>2026-04-26T08:52:32.879Z</time></trkpt><trkpt lat="38.12696072716426" lon="15.138307622100362"><ele>24.0</ele><time>2026-04-26T08:52:33.879Z</time></trkpt><trkpt lat="38.12686070499189" lon="15.1383371148638"><ele>24.0</ele><time>2026-04-26T08:52:34.879Z</time></trkpt><trkpt lat="38.12677940192698" lon="15.138364345758799"><ele>24.0</ele><time>2026-04-26T08:52:35.879Z</time></trkpt><trkpt lat="38.126684414334015" lon="15.13839471886888"><ele>24.0</ele><time>2026-04-26T08:52:37.879Z</time></trkpt><trkpt lat="38.12661941019159" lon="15.138419227348871"><ele>24.0</ele><time>2026-04-26T08:52:40.879Z</time></trkpt><trkpt lat="38.12656091186251" lon="15.138460054959916"><ele>24.0</ele><time>2026-04-26T08:53:10.878Z</time></trkpt><trkpt lat="38.126484018503945" lon="15.138483039980445"><ele>24.0</ele><time>2026-04-26T08:53:13.878Z</time></trkpt><trkpt lat="38.12651761526365" lon="15.1386524570515"><ele>24.0</ele><time>2026-04-26T08:53:14.878Z</time></trkpt><trkpt lat="38.126553890272206" lon="15.13875958954993"><ele>24.0</ele><time>2026-04-26T08:53:15.878Z</time></trkpt><trkpt lat="38.12659470286406" lon="15.13888290283673"><ele>24.0</ele><time>2026-04-26T08:53:16.878Z</time></trkpt><trkpt lat="38.12663791220098" lon="15.139020795355993"><ele>24.0</ele><time>2026-04-26T08:53:17.878Z</time></trkpt><trkpt lat="38.12669023685517" lon="15.139140646369293"><ele>24.0</ele><time>2026-04-26T08:53:18.878Z</time></trkpt><trkpt lat="38.12675819678343" lon="15.139254600387481"><ele>24.0</ele><time>2026-04-26T08:53:19.877Z</time></trkpt><trkpt lat="38.12683872367821" lon="15.139357208959257"><ele>24.0</ele><time>2026-04-26T08:53:20.877Z</time></trkpt><trkpt lat="38.12693600237852" lon="15.139460011451332"><ele>24.0</ele><time>2026-04-26T08:53:21.877Z</time></trkpt><trkpt lat="38.127054182196595" lon="15.139557245318976"><ele>24.0</ele><time>2026-04-26T08:53:22.877Z</time></trkpt><trkpt lat="38.12717968357521" lon="15.139649958112075"><ele>24.0</ele><time>2026-04-26T08:53:23.877Z</time></trkpt><trkpt lat="38.12729456065989" lon="15.13974646957792"><ele>24.0</ele><time>2026-04-26T08:53:24.877Z</time></trkpt><trkpt lat="38.12739986416319" lon="15.139842440761537"><ele>24.0</ele><time>2026-04-26T08:53:25.877Z</time></trkpt><trkpt lat="38.127479501051866" lon="15.139958072834203"><ele>24.0</ele><time>2026-04-26T08:53:26.877Z</time></trkpt><trkpt lat="38.127536676251985" lon="15.140083008010714"><ele>23.75</ele><time>2026-04-26T08:53:27.877Z</time></trkpt><trkpt lat="38.12756838561334" lon="15.140218106949542"><ele>23.5</ele><time>2026-04-26T08:53:28.877Z</time></trkpt><trkpt lat="38.12760717814715" lon="15.14035866695827"><ele>23.25</ele><time>2026-04-26T08:53:29.877Z</time></trkpt><trkpt lat="38.12765822120875" lon="15.14050368855621"><ele>23.0</ele><time>2026-04-26T08:53:30.877Z</time></trkpt><trkpt lat="38.127697052082816" lon="15.140666039324358"><ele>22.25</ele><time>2026-04-26T08:53:31.877Z</time></trkpt><trkpt lat="38.127746053214075" lon="15.140833972066686"><ele>21.5</ele><time>2026-04-26T08:53:32.877Z</time></trkpt><trkpt lat="38.12779948192787" lon="15.14100842489502"><ele>20.75</ele><time>2026-04-26T08:53:33.877Z</time></trkpt><trkpt lat="38.127849963718276" lon="15.141189946388987"><ele>20.0</ele><time>2026-04-26T08:53:34.877Z</time></trkpt><trkpt lat="38.12789788635263" lon="15.141357548633787"><ele>20.0</ele><time>2026-04-26T08:53:35.877Z</time></trkpt><trkpt lat="38.12794616955662" lon="15.141515789081708"><ele>20.0</ele><time>2026-04-26T08:53:36.877Z</time></trkpt><trkpt lat="38.1279966005467" lon="15.141658466222747"><ele>20.0</ele><time>2026-04-26T08:53:37.877Z</time></trkpt><trkpt lat="38.128025388117514" lon="15.141801654162236"><ele>20.0</ele><time>2026-04-26T08:53:38.877Z</time></trkpt><trkpt lat="38.12807257861206" lon="15.141922386946964"><ele>20.0</ele><time>2026-04-26T08:53:39.877Z</time></trkpt><trkpt lat="38.12810410544357" lon="15.142041309961883"><ele>20.0</ele><time>2026-04-26T08:53:40.877Z</time></trkpt><trkpt lat="38.12812729316466" lon="15.14214337934296"><ele>20.0</ele><time>2026-04-26T08:53:41.877Z</time></trkpt><trkpt lat="38.128152669069934" lon="15.142238101973211"><ele>20.0</ele><time>2026-04-26T08:53:42.877Z</time></trkpt><trkpt lat="38.12818603159594" lon="15.142321549726182"><ele>20.0</ele><time>2026-04-26T08:53:43.877Z</time></trkpt><trkpt lat="38.12817909728721" lon="15.14241155063282"><ele>20.0</ele><time>2026-04-26T08:53:44.877Z</time></trkpt><trkpt lat="38.12823439580801" lon="15.142492103810207"><ele>19.25</ele><time>2026-04-26T08:53:46.877Z</time></trkpt><trkpt lat="38.12834123241475" lon="15.142555966059323"><ele>18.5</ele><time>2026-04-26T08:53:48.877Z</time></trkpt><trkpt lat="38.12839651529053" lon="15.142635075822009"><ele>17.75</ele><time>2026-04-26T08:53:50.876Z</time></trkpt><trkpt lat="38.12831151502111" lon="15.142711492379378"><ele>17.0</ele><time>2026-04-26T08:53:51.876Z</time></trkpt><trkpt lat="38.12847069929964" lon="15.142615533934277"><ele>17.0</ele><time>2026-04-26T08:53:53.876Z</time></trkpt><trkpt lat="38.12837329460311" lon="15.142537161551452"><ele>17.0</ele><time>2026-04-26T08:59:06.874Z</time></trkpt><trkpt lat="38.12831668916048" lon="15.142597316967027"><ele>17.0</ele><time>2026-04-26T08:59:09.874Z</time></trkpt><trkpt lat="38.12832106874697" lon="15.142690580635202"><ele>17.0</ele><time>2026-04-26T08:59:14.874Z</time></trkpt><trkpt lat="38.128347304203785" lon="15.142792623021329"><ele>17.0</ele><time>2026-04-26T08:59:16.874Z</time></trkpt><trkpt lat="38.12838239947541" lon="15.142908909186552"><ele>17.0</ele><time>2026-04-26T08:59:18.874Z</time></trkpt><trkpt lat="38.12841762991645" lon="15.14306517901995"><ele>17.0</ele><time>2026-04-26T08:59:20.874Z</time></trkpt><trkpt lat="38.12844032740151" lon="15.143204919738839"><ele>17.0</ele><time>2026-04-26T08:59:22.874Z</time></trkpt><trkpt lat="38.128503776327605" lon="15.143354918869615"><ele>17.0</ele><time>2026-04-26T08:59:24.874Z</time></trkpt><trkpt lat="38.128527829243744" lon="15.143440943186718"><ele>17.0</ele><time>2026-04-26T08:59:25.873Z</time></trkpt><trkpt lat="38.12855483820691" lon="15.143516506846229"><ele>17.0</ele><time>2026-04-26T08:59:26.873Z</time></trkpt><trkpt lat="38.12856973747969" lon="15.14359748472595"><ele>17.0</ele><time>2026-04-26T08:59:27.873Z</time></trkpt><trkpt lat="38.12863742204697" lon="15.143721213572872"><ele>17.0</ele><time>2026-04-26T08:59:29.873Z</time></trkpt><trkpt lat="38.128659496475755" lon="15.143796459579214"><ele>17.0</ele><time>2026-04-26T08:59:30.873Z</time></trkpt><trkpt lat="38.128713819274274" lon="15.143955566020034"><ele>17.0</ele><time>2026-04-26T08:59:32.873Z</time></trkpt><trkpt lat="38.12872780396206" lon="15.144038393093933"><ele>17.0</ele><time>2026-04-26T08:59:33.873Z</time></trkpt><trkpt lat="38.128752696968384" lon="15.144131081485984"><ele>17.0</ele><time>2026-04-26T08:59:34.873Z</time></trkpt><trkpt lat="38.128796772881486" lon="15.144278172167084"><ele>17.333333333333336</ele><time>2026-04-26T08:59:36.873Z</time></trkpt><trkpt lat="38.128843727936754" lon="15.144426524132292"><ele>17.666666666666668</ele><time>2026-04-26T08:59:38.873Z</time></trkpt><trkpt lat="38.12887452107748" lon="15.14451001462238"><ele>18.0</ele><time>2026-04-26T08:59:39.873Z</time></trkpt><trkpt lat="38.128908319299065" lon="15.144593811146555"><ele>18.333333333333332</ele><time>2026-04-26T08:59:40.873Z</time></trkpt><trkpt lat="38.12895008668598" lon="15.144678503568048"><ele>18.666666666666664</ele><time>2026-04-26T08:59:41.873Z</time></trkpt><trkpt lat="38.129000896415945" lon="15.14476720192038"><ele>19.0</ele><time>2026-04-26T08:59:42.873Z</time></trkpt><trkpt lat="38.12904153094208" lon="15.144852694917786"><ele>18.333333333333332</ele><time>2026-04-26T08:59:43.873Z</time></trkpt><trkpt lat="38.129076537544435" lon="15.144939434197356"><ele>17.666666666666664</ele><time>2026-04-26T08:59:44.873Z</time></trkpt><trkpt lat="38.12910875427981" lon="15.145017322457937"><ele>17.0</ele><time>2026-04-26T08:59:45.873Z</time></trkpt><trkpt lat="38.12914177364211" lon="15.14509992441485"><ele>16.333333333333332</ele><time>2026-04-26T08:59:46.873Z</time></trkpt><trkpt lat="38.129173691366766" lon="15.145188857748197"><ele>15.666666666666666</ele><time>2026-04-26T08:59:47.873Z</time></trkpt><trkpt lat="38.129203573661144" lon="15.145278221342883"><ele>15.0</ele><time>2026-04-26T08:59:48.873Z</time></trkpt><trkpt lat="38.129236589679095" lon="15.145368038435086"><ele>15.0</ele><time>2026-04-26T08:59:49.873Z</time></trkpt><trkpt lat="38.12927303514985" lon="15.145458980849103"><ele>15.0</ele><time>2026-04-26T08:59:50.873Z</time></trkpt><trkpt lat="38.12931099202639" lon="15.145548865445742"><ele>15.0</ele><time>2026-04-26T08:59:51.873Z</time></trkpt><trkpt lat="38.12934578300011" lon="15.145635020820672"><ele>15.0</ele><time>2026-04-26T08:59:52.873Z</time></trkpt><trkpt lat="38.12938007025415" lon="15.145720597602965"><ele>15.0</ele><time>2026-04-26T08:59:53.873Z</time></trkpt><trkpt lat="38.129423441457305" lon="15.145811406998051"><ele>15.0</ele><time>2026-04-26T08:59:54.873Z</time></trkpt><trkpt lat="38.12945830492241" lon="15.145887536502737"><ele>15.285714285714286</ele><time>2026-04-26T08:59:55.873Z</time></trkpt><trkpt lat="38.129492871886434" lon="15.145960681805468"><ele>15.57142857142857</ele><time>2026-04-26T08:59:56.872Z</time></trkpt><trkpt lat="38.129524696587296" lon="15.146045701388081"><ele>15.857142857142856</ele><time>2026-04-26T08:59:57.872Z</time></trkpt><trkpt lat="38.12955602976926" lon="15.146131697824673"><ele>16.142857142857142</ele><time>2026-04-26T08:59:58.872Z</time></trkpt><trkpt lat="38.12958661283626" lon="15.146217037618312"><ele>16.428571428571427</ele><time>2026-04-26T08:59:59.872Z</time></trkpt><trkpt lat="38.129621659130905" lon="15.146301853729714"><ele>16.71428571428571</ele><time>2026-04-26T09:00:00.872Z</time></trkpt><trkpt lat="38.129631305190905" lon="15.14640097731491"><ele>17.0</ele><time>2026-04-26T09:00:01.872Z</time></trkpt><trkpt lat="38.129684181629344" lon="15.146475933220952"><ele>17.833333333333336</ele><time>2026-04-26T09:00:02.872Z</time></trkpt><trkpt lat="38.12971630125969" lon="15.146557596837821"><ele>18.666666666666668</ele><time>2026-04-26T09:00:03.872Z</time></trkpt><trkpt lat="38.129751763276445" lon="15.146661694800105"><ele>19.5</ele><time>2026-04-26T09:00:04.872Z</time></trkpt><trkpt lat="38.129791011774195" lon="15.146740397805361"><ele>20.333333333333332</ele><time>2026-04-26T09:00:05.872Z</time></trkpt><trkpt lat="38.12982601845165" lon="15.146819364694926"><ele>21.166666666666664</ele><time>2026-04-26T09:00:06.872Z</time></trkpt><trkpt lat="38.129850029502286" lon="15.146898227428833"><ele>22.0</ele><time>2026-04-26T09:00:07.872Z</time></trkpt><trkpt lat="38.12989064499059" lon="15.14701882353173"><ele>20.75</ele><time>2026-04-26T09:00:09.872Z</time></trkpt><trkpt lat="38.12993848641658" lon="15.147114305089348"><ele>19.5</ele><time>2026-04-26T09:00:12.872Z</time></trkpt><trkpt lat="38.13000004006063" lon="15.147254173722777"><ele>18.25</ele><time>2026-04-26T09:00:14.874Z</time></trkpt><trkpt lat="38.13004100402818" lon="15.147401382007189"><ele>17.0</ele><time>2026-04-26T09:00:15.874Z</time></trkpt><trkpt lat="38.130090555413354" lon="15.147589533591495"><ele>17.0</ele><time>2026-04-26T09:00:16.874Z</time></trkpt><trkpt lat="38.13014689761059" lon="15.147786687951431"><ele>17.0</ele><time>2026-04-26T09:00:17.874Z</time></trkpt><trkpt lat="38.13020908909718" lon="15.147972253900582"><ele>17.0</ele><time>2026-04-26T09:00:18.874Z</time></trkpt><trkpt lat="38.13025783773814" lon="15.148133134078979"><ele>16.75</ele><time>2026-04-26T09:00:19.874Z</time></trkpt><trkpt lat="38.130291430503426" lon="15.148290001261683"><ele>16.5</ele><time>2026-04-26T09:00:20.874Z</time></trkpt><trkpt lat="38.130315379236805" lon="15.148433743005308"><ele>16.25</ele><time>2026-04-26T09:00:21.874Z</time></trkpt><trkpt lat="38.13032971948646" lon="15.148566599616151"><ele>16.0</ele><time>2026-04-26T09:00:22.874Z</time></trkpt><trkpt lat="38.13033367524436" lon="15.148697983211227"><ele>16.0</ele><time>2026-04-26T09:00:23.874Z</time></trkpt><trkpt lat="38.130350688974744" lon="15.148826766483051"><ele>16.0</ele><time>2026-04-26T09:00:24.874Z</time></trkpt><trkpt lat="38.130374010105726" lon="15.148975481519289"><ele>16.0</ele><time>2026-04-26T09:00:25.874Z</time></trkpt><trkpt lat="38.13039902839919" lon="15.149115113652714"><ele>16.0</ele><time>2026-04-26T09:00:26.874Z</time></trkpt><trkpt lat="38.13042705492988" lon="15.149239643296225"><ele>16.0</ele><time>2026-04-26T09:00:27.874Z</time></trkpt><trkpt lat="38.130467761940885" lon="15.149363621819953"><ele>16.25</ele><time>2026-04-26T09:00:28.874Z</time></trkpt><trkpt lat="38.130532046088824" lon="15.149487029509205"><ele>16.5</ele><time>2026-04-26T09:00:29.874Z</time></trkpt><trkpt lat="38.13059077040025" lon="15.149626421142921"><ele>16.75</ele><time>2026-04-26T09:00:30.874Z</time></trkpt><trkpt lat="38.13068344407071" lon="15.14974936018712"><ele>17.0</ele><time>2026-04-26T09:00:31.874Z</time></trkpt><trkpt lat="38.130799506261916" lon="15.149882446750933"><ele>17.0</ele><time>2026-04-26T09:00:32.873Z</time></trkpt><trkpt lat="38.130913360032984" lon="15.150038406308049"><ele>17.0</ele><time>2026-04-26T09:00:33.873Z</time></trkpt><trkpt lat="38.131037368168535" lon="15.150172201222329"><ele>17.0</ele><time>2026-04-26T09:00:34.873Z</time></trkpt><trkpt lat="38.131153981698674" lon="15.150303162112206"><ele>17.0</ele><time>2026-04-26T09:00:35.873Z</time></trkpt><trkpt lat="38.13127909312198" lon="15.150445474475491"><ele>17.0</ele><time>2026-04-26T09:00:36.873Z</time></trkpt><trkpt lat="38.131401544695386" lon="15.150602212090178"><ele>17.0</ele><time>2026-04-26T09:00:37.873Z</time></trkpt><trkpt lat="38.131497140775885" lon="15.150758383700476"><ele>17.0</ele><time>2026-04-26T09:00:38.873Z</time></trkpt><trkpt lat="38.13159239457368" lon="15.15091851830092"><ele>17.0</ele><time>2026-04-26T09:00:39.873Z</time></trkpt><trkpt lat="38.131684129266525" lon="15.151079697115932"><ele>17.0</ele><time>2026-04-26T09:00:40.873Z</time></trkpt><trkpt lat="38.13176707656228" lon="15.151248409309739"><ele>17.0</ele><time>2026-04-26T09:00:41.873Z</time></trkpt><trkpt lat="38.13184295068286" lon="15.151441249136525"><ele>17.0</ele><time>2026-04-26T09:00:42.873Z</time></trkpt><trkpt lat="38.131928728741904" lon="15.151640484206212"><ele>17.0</ele><time>2026-04-26T09:00:43.873Z</time></trkpt><trkpt lat="38.132013185867464" lon="15.151843709280913"><ele>16.666666666666668</ele><time>2026-04-26T09:00:44.873Z</time></trkpt><trkpt lat="38.1320856511833" lon="15.152056207373116"><ele>16.333333333333332</ele><time>2026-04-26T09:00:45.873Z</time></trkpt><trkpt lat="38.13217222570646" lon="15.152263287748653"><ele>16.0</ele><time>2026-04-26T09:00:46.873Z</time></trkpt><trkpt lat="38.13226246251073" lon="15.152465761538547"><ele>16.0</ele><time>2026-04-26T09:00:47.873Z</time></trkpt><trkpt lat="38.13235462531074" lon="15.152671566115364"><ele>16.0</ele><time>2026-04-26T09:00:48.873Z</time></trkpt><trkpt lat="38.13245234426865" lon="15.152875188236221"><ele>16.0</ele><time>2026-04-26T09:00:49.873Z</time></trkpt><trkpt lat="38.13255228584067" lon="15.15308543992275"><ele>16.333333333333332</ele><time>2026-04-26T09:00:50.873Z</time></trkpt><trkpt lat="38.13266116147083" lon="15.153299854356302"><ele>16.666666666666668</ele><time>2026-04-26T09:00:51.873Z</time></trkpt><trkpt lat="38.132768047826275" lon="15.153511151862029"><ele>17.0</ele><time>2026-04-26T09:00:52.873Z</time></trkpt><trkpt lat="38.132843069812616" lon="15.153755202986275"><ele>17.0</ele><time>2026-04-26T09:00:53.873Z</time></trkpt><trkpt lat="38.13294413918489" lon="15.153960502774236"><ele>17.0</ele><time>2026-04-26T09:00:54.873Z</time></trkpt><trkpt lat="38.133049201414266" lon="15.154172961563411"><ele>17.0</ele><time>2026-04-26T09:00:55.873Z</time></trkpt><trkpt lat="38.13315525189711" lon="15.154389346562033"><ele>16.0</ele><time>2026-04-26T09:00:56.873Z</time></trkpt><trkpt lat="38.13327130109246" lon="15.15461892330604"><ele>15.0</ele><time>2026-04-26T09:00:57.873Z</time></trkpt><trkpt lat="38.13340687528329" lon="15.15488142192344"><ele>17.666666666666668</ele><time>2026-04-26T09:00:58.873Z</time></trkpt><trkpt lat="38.133537007875915" lon="15.155122013109379"><ele>20.333333333333336</ele><time>2026-04-26T09:00:59.873Z</time></trkpt><trkpt lat="38.13364574783423" lon="15.155355425973578"><ele>23.0</ele><time>2026-04-26T09:01:00.873Z</time></trkpt><trkpt lat="38.13374604839574" lon="15.155578069773012"><ele>25.0</ele><time>2026-04-26T09:01:01.873Z</time></trkpt><trkpt lat="38.133842058042" lon="15.155791767843162"><ele>27.0</ele><time>2026-04-26T09:01:02.872Z</time></trkpt><trkpt lat="38.13392877923944" lon="15.15599083756973"><ele>29.0</ele><time>2026-04-26T09:01:03.872Z</time></trkpt><trkpt lat="38.13401043369317" lon="15.156181831463725"><ele>26.0</ele><time>2026-04-26T09:01:04.872Z</time></trkpt><trkpt lat="38.13408530305214" lon="15.15636019314338"><ele>23.0</ele><time>2026-04-26T09:01:05.872Z</time></trkpt><trkpt lat="38.13415834499034" lon="15.15653366540544"><ele>20.0</ele><time>2026-04-26T09:01:06.872Z</time></trkpt><trkpt lat="38.13421181835324" lon="15.156706773694971"><ele>20.0</ele><time>2026-04-26T09:01:07.872Z</time></trkpt><trkpt lat="38.13422500475897" lon="15.156875493195605"><ele>20.0</ele><time>2026-04-26T09:01:08.872Z</time></trkpt><trkpt lat="38.13418514253757" lon="15.157011619540897"><ele>20.0</ele><time>2026-04-26T09:01:09.872Z</time></trkpt><trkpt lat="38.134098626604505" lon="15.157110456339165"><ele>20.0</ele><time>2026-04-26T09:01:10.872Z</time></trkpt><trkpt lat="38.13399318491075" lon="15.157122378281855"><ele>20.25</ele><time>2026-04-26T09:01:11.872Z</time></trkpt><trkpt lat="38.13388050970746" lon="15.157120420095874"><ele>20.5</ele><time>2026-04-26T09:01:12.872Z</time></trkpt><trkpt lat="38.13376240711549" lon="15.15712171222462"><ele>20.75</ele><time>2026-04-26T09:01:13.872Z</time></trkpt><trkpt lat="38.13363619470802" lon="15.15718910267207"><ele>21.0</ele><time>2026-04-26T09:01:14.872Z</time></trkpt><trkpt lat="38.13355867418506" lon="15.157381772364833"><ele>21.0</ele><time>2026-04-26T09:01:15.872Z</time></trkpt><trkpt lat="38.1335159873914" lon="15.157554123704738"><ele>21.0</ele><time>2026-04-26T09:01:16.872Z</time></trkpt><trkpt lat="38.13345494445398" lon="15.157737161485912"><ele>21.0</ele><time>2026-04-26T09:01:17.872Z</time></trkpt><trkpt lat="38.13340708105473" lon="15.157925598376968"><ele>21.0</ele><time>2026-04-26T09:01:18.872Z</time></trkpt><trkpt lat="38.13333639842665" lon="15.158095134417666"><ele>21.0</ele><time>2026-04-26T09:01:19.872Z</time></trkpt><trkpt lat="38.133294645731134" lon="15.158281281221937"><ele>21.0</ele><time>2026-04-26T09:01:20.872Z</time></trkpt><trkpt lat="38.13323252476403" lon="15.158478414574455"><ele>22.333333333333336</ele><time>2026-04-26T09:01:21.872Z</time></trkpt><trkpt lat="38.133165099277335" lon="15.158673974848234"><ele>23.666666666666668</ele><time>2026-04-26T09:01:22.872Z</time></trkpt><trkpt lat="38.13310355410217" lon="15.158862006845666"><ele>25.0</ele><time>2026-04-26T09:01:23.872Z</time></trkpt><trkpt lat="38.133044262137574" lon="15.15904279415279"><ele>25.25</ele><time>2026-04-26T09:01:24.872Z</time></trkpt><trkpt lat="38.132990984573205" lon="15.159216637503519"><ele>25.5</ele><time>2026-04-26T09:01:25.872Z</time></trkpt><trkpt lat="38.13294156969706" lon="15.159395504673517"><ele>25.75</ele><time>2026-04-26T09:01:26.872Z</time></trkpt><trkpt lat="38.1328996779373" lon="15.159572567089135"><ele>26.0</ele><time>2026-04-26T09:01:27.872Z</time></trkpt><trkpt lat="38.132873885303646" lon="15.159757649109915"><ele>25.75</ele><time>2026-04-26T09:01:28.872Z</time></trkpt><trkpt lat="38.132855507816075" lon="15.159941262242933"><ele>25.5</ele><time>2026-04-26T09:01:29.872Z</time></trkpt><trkpt lat="38.13285706291705" lon="15.160135794689605"><ele>25.25</ele><time>2026-04-26T09:01:30.872Z</time></trkpt><trkpt lat="38.13285883938173" lon="15.160324392427722"><ele>25.0</ele><time>2026-04-26T09:01:31.872Z</time></trkpt><trkpt lat="38.13286753019911" lon="15.160512260821037"><ele>24.666666666666668</ele><time>2026-04-26T09:01:32.872Z</time></trkpt><trkpt lat="38.13290842182637" lon="15.160703739304152"><ele>24.333333333333336</ele><time>2026-04-26T09:01:33.871Z</time></trkpt><trkpt lat="38.13296538559674" lon="15.16090769015126"><ele>24.0</ele><time>2026-04-26T09:01:34.871Z</time></trkpt><trkpt lat="38.13301637831533" lon="15.161142064394214"><ele>24.0</ele><time>2026-04-26T09:01:35.871Z</time></trkpt><trkpt lat="38.133035793930716" lon="15.161429426777175"><ele>24.0</ele><time>2026-04-26T09:01:36.871Z</time></trkpt><trkpt lat="38.13307071365336" lon="15.161665939040741"><ele>24.0</ele><time>2026-04-26T09:01:37.871Z</time></trkpt><trkpt lat="38.133085961953896" lon="15.161907442797304"><ele>26.666666666666664</ele><time>2026-04-26T09:01:38.871Z</time></trkpt><trkpt lat="38.13311542471731" lon="15.162168600082236"><ele>29.333333333333332</ele><time>2026-04-26T09:01:39.871Z</time></trkpt><trkpt lat="38.133144416849404" lon="15.162425198237486"><ele>32.0</ele><time>2026-04-26T09:01:40.871Z</time></trkpt><trkpt lat="38.133172805457235" lon="15.162666361350018"><ele>30.333333333333332</ele><time>2026-04-26T09:01:41.871Z</time></trkpt><trkpt lat="38.133202347065435" lon="15.162912571537953"><ele>28.666666666666664</ele><time>2026-04-26T09:01:42.871Z</time></trkpt><trkpt lat="38.13323022707549" lon="15.163151955267818"><ele>27.0</ele><time>2026-04-26T09:01:43.871Z</time></trkpt><trkpt lat="38.13325835076492" lon="15.16337841056261"><ele>27.0</ele><time>2026-04-26T09:01:44.871Z</time></trkpt><trkpt lat="38.13328555953296" lon="15.163596691276357"><ele>27.0</ele><time>2026-04-26T09:01:45.871Z</time></trkpt><trkpt lat="38.1333076832317" lon="15.16380157527315"><ele>27.0</ele><time>2026-04-26T09:01:46.871Z</time></trkpt><trkpt lat="38.133331727004474" lon="15.164000803266026"><ele>27.0</ele><time>2026-04-26T09:01:47.871Z</time></trkpt><trkpt lat="38.13335808414897" lon="15.164187839446452"><ele>27.0</ele><time>2026-04-26T09:01:48.871Z</time></trkpt><trkpt lat="38.133385590194735" lon="15.164373359057446"><ele>27.0</ele><time>2026-04-26T09:01:49.871Z</time></trkpt><trkpt lat="38.133408593351376" lon="15.164551341386202"><ele>27.0</ele><time>2026-04-26T09:01:50.871Z</time></trkpt><trkpt lat="38.1334292090643" lon="15.164733715593893"><ele>27.666666666666664</ele><time>2026-04-26T09:01:51.871Z</time></trkpt><trkpt lat="38.13346437103389" lon="15.164914637711723"><ele>28.333333333333332</ele><time>2026-04-26T09:01:52.871Z</time></trkpt><trkpt lat="38.13351570283217" lon="15.165089558554074"><ele>29.0</ele><time>2026-04-26T09:01:53.871Z</time></trkpt><trkpt lat="38.13364482695494" lon="15.16527432748869"><ele>29.0</ele><time>2026-04-26T09:01:54.871Z</time></trkpt><trkpt lat="38.13374482258049" lon="15.165406162841487"><ele>29.0</ele><time>2026-04-26T09:01:55.871Z</time></trkpt><trkpt lat="38.13380038118693" lon="15.165549982126578"><ele>29.0</ele><time>2026-04-26T09:01:56.871Z</time></trkpt><trkpt lat="38.13386183534536" lon="15.165684649379306"><ele>29.0</ele><time>2026-04-26T09:01:57.871Z</time></trkpt><trkpt lat="38.133921391551546" lon="15.165815157726373"><ele>29.2</ele><time>2026-04-26T09:01:58.871Z</time></trkpt><trkpt lat="38.13397963790572" lon="15.16594279539756"><ele>29.4</ele><time>2026-04-26T09:01:59.871Z</time></trkpt><trkpt lat="38.13403191574746" lon="15.166057354295125"><ele>29.6</ele><time>2026-04-26T09:02:00.871Z</time></trkpt><trkpt lat="38.134077058437626" lon="15.166156277506154"><ele>29.8</ele><time>2026-04-26T09:02:01.871Z</time></trkpt><trkpt lat="38.13413183741897" lon="15.16627626689186"><ele>30.0</ele><time>2026-04-26T09:02:02.872Z</time></trkpt><trkpt lat="38.13418684032295" lon="15.16639436123392"><ele>30.0</ele><time>2026-04-26T09:02:03.874Z</time></trkpt><trkpt lat="38.1342589887212" lon="15.166517027536774"><ele>30.0</ele><time>2026-04-26T09:02:04.877Z</time></trkpt><trkpt lat="38.1343207957243" lon="15.166653322840837"><ele>30.0</ele><time>2026-04-26T09:02:05.879Z</time></trkpt><trkpt lat="38.13438186875988" lon="15.166776408864841"><ele>30.0</ele><time>2026-04-26T09:02:06.881Z</time></trkpt><trkpt lat="38.134414819797705" lon="15.166872450815534"><ele>30.0</ele><time>2026-04-26T09:02:07.883Z</time></trkpt><trkpt lat="38.13445860421054" lon="15.166961403643855"><ele>29.8</ele><time>2026-04-26T09:02:08.885Z</time></trkpt><trkpt lat="38.13450059183631" lon="15.167043709232802"><ele>29.6</ele><time>2026-04-26T09:02:09.887Z</time></trkpt><trkpt lat="38.13455383035634" lon="15.167145311099217"><ele>29.4</ele><time>2026-04-26T09:02:10.888Z</time></trkpt><trkpt lat="38.13461965948367" lon="15.167270247856484"><ele>29.2</ele><time>2026-04-26T09:02:11.89Z</time></trkpt><trkpt lat="38.13469810962983" lon="15.167404735230454"><ele>29.0</ele><time>2026-04-26T09:02:12.891Z</time></trkpt><trkpt lat="38.13477630600676" lon="15.167534066639183"><ele>29.0</ele><time>2026-04-26T09:02:13.893Z</time></trkpt><trkpt lat="38.13486095605256" lon="15.167640677514543"><ele>29.0</ele><time>2026-04-26T09:02:14.894Z</time></trkpt><trkpt lat="38.134912933360255" lon="15.167760038526806"><ele>29.0</ele><time>2026-04-26T09:02:15.895Z</time></trkpt><trkpt lat="38.1349713293467" lon="15.16785528916072"><ele>29.0</ele><time>2026-04-26T09:02:16.896Z</time></trkpt><trkpt lat="38.135020437358044" lon="15.16794931957434"><ele>29.0</ele><time>2026-04-26T09:02:17.897Z</time></trkpt><trkpt lat="38.13507085572272" lon="15.168045905257937"><ele>29.0</ele><time>2026-04-26T09:02:18.898Z</time></trkpt><trkpt lat="38.1351360096855" lon="15.168164842542394"><ele>29.0</ele><time>2026-04-26T09:02:19.9Z</time></trkpt><trkpt lat="38.1352109996524" lon="15.16829216102024"><ele>29.0</ele><time>2026-04-26T09:02:20.901Z</time></trkpt><trkpt lat="38.13530739608447" lon="15.168451382513183"><ele>29.0</ele><time>2026-04-26T09:02:21.902Z</time></trkpt><trkpt lat="38.135417873828175" lon="15.168618369548433"><ele>29.0</ele><time>2026-04-26T09:02:22.903Z</time></trkpt><trkpt lat="38.13554015691124" lon="15.168812572462626"><ele>29.0</ele><time>2026-04-26T09:02:23.903Z</time></trkpt><trkpt lat="38.13566518484123" lon="15.169002464805478"><ele>29.0</ele><time>2026-04-26T09:02:24.904Z</time></trkpt><trkpt lat="38.13580175920238" lon="15.169185657318526"><ele>30.333333333333332</ele><time>2026-04-26T09:02:25.905Z</time></trkpt><trkpt lat="38.1359309071163" lon="15.169358321980594"><ele>31.666666666666664</ele><time>2026-04-26T09:02:26.906Z</time></trkpt><trkpt lat="38.13604947870902" lon="15.16951680012095"><ele>33.0</ele><time>2026-04-26T09:02:27.906Z</time></trkpt><trkpt lat="38.13614659884232" lon="15.169672542450416"><ele>33.0</ele><time>2026-04-26T09:02:28.907Z</time></trkpt><trkpt lat="38.13622810635869" lon="15.169842171414789"><ele>33.0</ele><time>2026-04-26T09:02:29.907Z</time></trkpt><trkpt lat="38.13628753185081" lon="15.170026586462871"><ele>33.0</ele><time>2026-04-26T09:02:30.908Z</time></trkpt><trkpt lat="38.1363282257744" lon="15.170233672272026"><ele>36.0</ele><time>2026-04-26T09:02:31.908Z</time></trkpt><trkpt lat="38.136361793612345" lon="15.170451377644792"><ele>39.0</ele><time>2026-04-26T09:02:32.908Z</time></trkpt><trkpt lat="38.13639969112299" lon="15.170671479588279"><ele>42.0</ele><time>2026-04-26T09:02:33.908Z</time></trkpt><trkpt lat="38.1364314184592" lon="15.170890173205075"><ele>45.33333333333333</ele><time>2026-04-26T09:02:34.908Z</time></trkpt><trkpt lat="38.13645371829411" lon="15.17110851394043"><ele>48.666666666666664</ele><time>2026-04-26T09:02:35.909Z</time></trkpt><trkpt lat="38.13645732368232" lon="15.17133423202597"><ele>52.0</ele><time>2026-04-26T09:02:36.909Z</time></trkpt><trkpt lat="38.13644543363873" lon="15.171558455991438"><ele>52.0</ele><time>2026-04-26T09:02:37.909Z</time></trkpt><trkpt lat="38.1363945523347" lon="15.171786962599406"><ele>52.0</ele><time>2026-04-26T09:02:38.909Z</time></trkpt><trkpt lat="38.13635506481759" lon="15.172019922302411"><ele>52.0</ele><time>2026-04-26T09:02:39.91Z</time></trkpt><trkpt lat="38.13633301467062" lon="15.172241932767735"><ele>51.33333333333333</ele><time>2026-04-26T09:02:40.91Z</time></trkpt><trkpt lat="38.13629698319111" lon="15.172444578488225"><ele>50.66666666666667</ele><time>2026-04-26T09:02:41.91Z</time></trkpt><trkpt lat="38.13625156780556" lon="15.172627689322027"><ele>50.0</ele><time>2026-04-26T09:02:42.91Z</time></trkpt><trkpt lat="38.136223332244704" lon="15.172799213406298"><ele>50.0</ele><time>2026-04-26T09:02:43.91Z</time></trkpt><trkpt lat="38.136196152114124" lon="15.17296271062571"><ele>50.0</ele><time>2026-04-26T09:02:44.91Z</time></trkpt><trkpt lat="38.13617320199331" lon="15.173100760506971"><ele>50.0</ele><time>2026-04-26T09:02:45.911Z</time></trkpt><trkpt lat="38.13615055683998" lon="15.173234598228136"><ele>50.0</ele><time>2026-04-26T09:02:46.911Z</time></trkpt><trkpt lat="38.1361418406677" lon="15.173373001485798"><ele>50.333333333333336</ele><time>2026-04-26T09:02:47.911Z</time></trkpt><trkpt lat="38.13611738606799" lon="15.17354678893177"><ele>50.66666666666667</ele><time>2026-04-26T09:02:48.911Z</time></trkpt><trkpt lat="38.136075072232906" lon="15.173752363347619"><ele>51.0</ele><time>2026-04-26T09:02:49.911Z</time></trkpt><trkpt lat="38.136059539484336" lon="15.173992642046636"><ele>51.0</ele><time>2026-04-26T09:02:50.911Z</time></trkpt><trkpt lat="38.13602518073747" lon="15.174249588417696"><ele>51.0</ele><time>2026-04-26T09:02:51.911Z</time></trkpt><trkpt lat="38.13599252160091" lon="15.174574343901387"><ele>51.0</ele><time>2026-04-26T09:02:52.911Z</time></trkpt><trkpt lat="38.13595777091177" lon="15.174840033385134"><ele>51.0</ele><time>2026-04-26T09:02:53.911Z</time></trkpt><trkpt lat="38.13590836057575" lon="15.175078953163387"><ele>51.0</ele><time>2026-04-26T09:02:54.912Z</time></trkpt><trkpt lat="38.13585465330968" lon="15.175301700868316"><ele>50.66666666666667</ele><time>2026-04-26T09:02:55.912Z</time></trkpt><trkpt lat="38.1358013855638" lon="15.175516129133737"><ele>50.333333333333336</ele><time>2026-04-26T09:02:56.912Z</time></trkpt><trkpt lat="38.1357447042883" lon="15.175734413821967"><ele>50.0</ele><time>2026-04-26T09:02:57.912Z</time></trkpt><trkpt lat="38.135680315694614" lon="15.175958945847432"><ele>50.0</ele><time>2026-04-26T09:02:58.912Z</time></trkpt><trkpt lat="38.13561264554332" lon="15.176180997900058"><ele>50.0</ele><time>2026-04-26T09:02:59.912Z</time></trkpt><trkpt lat="38.13554270262824" lon="15.17639973029252"><ele>50.0</ele><time>2026-04-26T09:03:00.912Z</time></trkpt><trkpt lat="38.135474785001406" lon="15.176612018661407"><ele>49.333333333333336</ele><time>2026-04-26T09:03:01.912Z</time></trkpt><trkpt lat="38.13540858009535" lon="15.176818953499708"><ele>48.66666666666667</ele><time>2026-04-26T09:03:02.912Z</time></trkpt><trkpt lat="38.13534251516662" lon="15.177025450925603"><ele>48.0</ele><time>2026-04-26T09:03:03.912Z</time></trkpt><trkpt lat="38.135271776668105" lon="15.17722354627858"><ele>46.333333333333336</ele><time>2026-04-26T09:03:04.912Z</time></trkpt><trkpt lat="38.13518214906926" lon="15.177411543680046"><ele>44.66666666666667</ele><time>2026-04-26T09:03:05.912Z</time></trkpt><trkpt lat="38.13510128178166" lon="15.177651411581024"><ele>43.0</ele><time>2026-04-26T09:03:06.912Z</time></trkpt><trkpt lat="38.134945206124236" lon="15.177864051755973"><ele>46.333333333333336</ele><time>2026-04-26T09:03:07.912Z</time></trkpt><trkpt lat="38.13479207257879" lon="15.178044644360126"><ele>49.66666666666667</ele><time>2026-04-26T09:03:08.912Z</time></trkpt><trkpt lat="38.13465403138927" lon="15.178204671191812"><ele>53.0</ele><time>2026-04-26T09:03:09.912Z</time></trkpt><trkpt lat="38.13453725900073" lon="15.178346131415323"><ele>53.0</ele><time>2026-04-26T09:03:10.912Z</time></trkpt><trkpt lat="38.13441331281244" lon="15.178455534910965"><ele>53.0</ele><time>2026-04-26T09:03:11.912Z</time></trkpt><trkpt lat="38.134364065696005" lon="15.1786604167311"><ele>53.0</ele><time>2026-04-26T09:03:12.912Z</time></trkpt><trkpt lat="38.13432674771835" lon="15.178856533584385"><ele>52.0</ele><time>2026-04-26T09:03:13.912Z</time></trkpt><trkpt lat="38.134318786770834" lon="15.179088733479214"><ele>51.0</ele><time>2026-04-26T09:03:14.912Z</time></trkpt><trkpt lat="38.13430897960836" lon="15.179305025614148"><ele>50.0</ele><time>2026-04-26T09:03:15.912Z</time></trkpt><trkpt lat="38.13427903639431" lon="15.179473064710114"><ele>50.0</ele><time>2026-04-26T09:03:16.912Z</time></trkpt><trkpt lat="38.13423965879175" lon="15.179580779032491"><ele>50.0</ele><time>2026-04-26T09:03:17.912Z</time></trkpt><trkpt lat="38.13416991795348" lon="15.17966165996388"><ele>50.0</ele><time>2026-04-26T09:03:18.912Z</time></trkpt><trkpt lat="38.13405435381502" lon="15.179705415359352"><ele>50.0</ele><time>2026-04-26T09:03:19.912Z</time></trkpt><trkpt lat="38.133941175513726" lon="15.17968498140528"><ele>50.0</ele><time>2026-04-26T09:03:20.912Z</time></trkpt><trkpt lat="38.133794646598865" lon="15.179622177845136"><ele>52.333333333333336</ele><time>2026-04-26T09:03:21.912Z</time></trkpt><trkpt lat="38.133599703368894" lon="15.179545064585652"><ele>54.66666666666667</ele><time>2026-04-26T09:03:22.912Z</time></trkpt><trkpt lat="38.13345172310249" lon="15.17947705469505"><ele>57.0</ele><time>2026-04-26T09:03:23.912Z</time></trkpt><trkpt lat="38.13330511500763" lon="15.179414200196067"><ele>60.0</ele><time>2026-04-26T09:03:24.912Z</time></trkpt><trkpt lat="38.133162029447305" lon="15.179396454619132"><ele>63.0</ele><time>2026-04-26T09:03:25.912Z</time></trkpt><trkpt lat="38.1330250554932" lon="15.179446903644454"><ele>66.0</ele><time>2026-04-26T09:03:26.912Z</time></trkpt><trkpt lat="38.132913393866964" lon="15.179575446547746"><ele>69.0</ele><time>2026-04-26T09:03:27.912Z</time></trkpt><trkpt lat="38.13280892459224" lon="15.179696354675192"><ele>69.0</ele><time>2026-04-26T09:03:28.912Z</time></trkpt><trkpt lat="38.13269494382368" lon="15.179835646736434"><ele>69.0</ele><time>2026-04-26T09:03:29.912Z</time></trkpt><trkpt lat="38.132630750802534" lon="15.180019379002307"><ele>69.0</ele><time>2026-04-26T09:03:30.912Z</time></trkpt><trkpt lat="38.13260221038021" lon="15.180267538105"><ele>66.75</ele><time>2026-04-26T09:03:31.912Z</time></trkpt><trkpt lat="38.13257500931376" lon="15.180454392265927"><ele>64.5</ele><time>2026-04-26T09:03:32.912Z</time></trkpt><trkpt lat="38.13256807682149" lon="15.180643019481364"><ele>62.25</ele><time>2026-04-26T09:03:33.912Z</time></trkpt><trkpt lat="38.132572585745734" lon="15.180831408084524"><ele>60.0</ele><time>2026-04-26T09:03:34.912Z</time></trkpt><trkpt lat="38.132599975157014" lon="15.181032761147742"><ele>59.0</ele><time>2026-04-26T09:03:35.912Z</time></trkpt><trkpt lat="38.1326367524412" lon="15.181239938206968"><ele>58.0</ele><time>2026-04-26T09:03:36.912Z</time></trkpt><trkpt lat="38.13268008909168" lon="15.181450860475593"><ele>57.0</ele><time>2026-04-26T09:03:37.912Z</time></trkpt><trkpt lat="38.13275502635062" lon="15.18165948565097"><ele>54.33333333333333</ele><time>2026-04-26T09:03:38.912Z</time></trkpt><trkpt lat="38.1328459396808" lon="15.181843682751415"><ele>51.666666666666664</ele><time>2026-04-26T09:03:39.912Z</time></trkpt><trkpt lat="38.132940684141225" lon="15.182000730425054"><ele>49.0</ele><time>2026-04-26T09:03:40.912Z</time></trkpt><trkpt lat="38.133014030621716" lon="15.182131140316274"><ele>49.0</ele><time>2026-04-26T09:03:41.912Z</time></trkpt><trkpt lat="38.13307783373021" lon="15.182242953414343"><ele>49.0</ele><time>2026-04-26T09:03:42.912Z</time></trkpt><trkpt lat="38.133131248239394" lon="15.182350687134942"><ele>49.0</ele><time>2026-04-26T09:03:43.912Z</time></trkpt><trkpt lat="38.133186517223514" lon="15.182470589219923"><ele>49.0</ele><time>2026-04-26T09:03:44.912Z</time></trkpt><trkpt lat="38.13326206956536" lon="15.182606299015491"><ele>49.0</ele><time>2026-04-26T09:03:45.912Z</time></trkpt><trkpt lat="38.13334804167183" lon="15.182773831583903"><ele>49.25</ele><time>2026-04-26T09:03:46.912Z</time></trkpt><trkpt lat="38.1334364860348" lon="15.182932898128593"><ele>49.5</ele><time>2026-04-26T09:03:47.912Z</time></trkpt><trkpt lat="38.13351195922797" lon="15.183072148924694"><ele>49.75</ele><time>2026-04-26T09:03:48.911Z</time></trkpt><trkpt lat="38.13360474435959" lon="15.183224967925959"><ele>50.0</ele><time>2026-04-26T09:03:49.911Z</time></trkpt><trkpt lat="38.133699957729206" lon="15.183403527578692"><ele>49.333333333333336</ele><time>2026-04-26T09:03:50.911Z</time></trkpt><trkpt lat="38.13380419213841" lon="15.183599617099011"><ele>48.66666666666667</ele><time>2026-04-26T09:03:51.911Z</time></trkpt><trkpt lat="38.13390933472941" lon="15.183797414935505"><ele>48.0</ele><time>2026-04-26T09:03:52.911Z</time></trkpt><trkpt lat="38.13402727320448" lon="15.184019266280803"><ele>46.666666666666664</ele><time>2026-04-26T09:03:53.911Z</time></trkpt><trkpt lat="38.13415461196132" lon="15.18425786909871"><ele>45.33333333333333</ele><time>2026-04-26T09:03:54.911Z</time></trkpt><trkpt lat="38.13426525696596" lon="15.184436414396512"><ele>44.0</ele><time>2026-04-26T09:03:55.911Z</time></trkpt><trkpt lat="38.13434700700555" lon="15.184603194795322"><ele>44.0</ele><time>2026-04-26T09:03:56.911Z</time></trkpt><trkpt lat="38.13439931073867" lon="15.184767259950927"><ele>44.0</ele><time>2026-04-26T09:03:57.911Z</time></trkpt><trkpt lat="38.13446652837476" lon="15.184898232879874"><ele>44.0</ele><time>2026-04-26T09:03:58.911Z</time></trkpt><trkpt lat="38.134532976804294" lon="15.185016794141283"><ele>44.0</ele><time>2026-04-26T09:03:59.911Z</time></trkpt><trkpt lat="38.13460287793065" lon="15.185120012433757"><ele>45.75</ele><time>2026-04-26T09:04:00.911Z</time></trkpt><trkpt lat="38.134678693123725" lon="15.185208679115991"><ele>47.5</ele><time>2026-04-26T09:04:01.911Z</time></trkpt><trkpt lat="38.13477133256585" lon="15.185294409900223"><ele>49.25</ele><time>2026-04-26T09:04:02.911Z</time></trkpt><trkpt lat="38.13487835825623" lon="15.1853665940318"><ele>51.0</ele><time>2026-04-26T09:04:03.911Z</time></trkpt><trkpt lat="38.13497764622158" lon="15.185442270542877"><ele>51.0</ele><time>2026-04-26T09:04:04.911Z</time></trkpt><trkpt lat="38.13507081153052" lon="15.185517892657352"><ele>51.0</ele><time>2026-04-26T09:04:05.911Z</time></trkpt><trkpt lat="38.135176206623086" lon="15.185593542130952"><ele>51.0</ele><time>2026-04-26T09:04:06.911Z</time></trkpt><trkpt lat="38.13528271170463" lon="15.185675801584399"><ele>51.0</ele><time>2026-04-26T09:04:07.911Z</time></trkpt><trkpt lat="38.1353846615856" lon="15.185748649103079"><ele>50.75</ele><time>2026-04-26T09:04:08.911Z</time></trkpt><trkpt lat="38.13548527310663" lon="15.185830717501428"><ele>50.5</ele><time>2026-04-26T09:04:09.911Z</time></trkpt><trkpt lat="38.13558768769106" lon="15.185917096982669"><ele>50.25</ele><time>2026-04-26T09:04:10.911Z</time></trkpt><trkpt lat="38.13569761474951" lon="15.186004648398459"><ele>50.0</ele><time>2026-04-26T09:04:11.911Z</time></trkpt><trkpt lat="38.135813714903854" lon="15.186102229057095"><ele>50.0</ele><time>2026-04-26T09:04:12.911Z</time></trkpt><trkpt lat="38.135953294060386" lon="15.186216292178907"><ele>50.0</ele><time>2026-04-26T09:04:13.911Z</time></trkpt><trkpt lat="38.13611478057205" lon="15.186342175477051"><ele>50.0</ele><time>2026-04-26T09:04:14.911Z</time></trkpt><trkpt lat="38.13627854739767" lon="15.186481788489807"><ele>50.66666666666667</ele><time>2026-04-26T09:04:15.911Z</time></trkpt><trkpt lat="38.1364524350211" lon="15.186631806413974"><ele>51.33333333333333</ele><time>2026-04-26T09:04:16.911Z</time></trkpt><trkpt lat="38.13663783147911" lon="15.186787078059941"><ele>52.0</ele><time>2026-04-26T09:04:17.911Z</time></trkpt><trkpt lat="38.13680493396993" lon="15.186935004061953"><ele>52.0</ele><time>2026-04-26T09:04:18.911Z</time></trkpt><trkpt lat="38.136972186757966" lon="15.187067359143352"><ele>52.0</ele><time>2026-04-26T09:04:19.911Z</time></trkpt><trkpt lat="38.13713233984569" lon="15.187193205767825"><ele>52.0</ele><time>2026-04-26T09:04:20.911Z</time></trkpt><trkpt lat="38.13727950773822" lon="15.187312952886144"><ele>51.666666666666664</ele><time>2026-04-26T09:04:21.911Z</time></trkpt><trkpt lat="38.137427313062794" lon="15.187419263177082"><ele>51.33333333333333</ele><time>2026-04-26T09:04:22.911Z</time></trkpt><trkpt lat="38.137576562586815" lon="15.187505187151881"><ele>51.0</ele><time>2026-04-26T09:04:23.911Z</time></trkpt><trkpt lat="38.137748437753835" lon="15.187551766228298"><ele>51.0</ele><time>2026-04-26T09:04:24.911Z</time></trkpt><trkpt lat="38.13792751322775" lon="15.1875855604231"><ele>51.0</ele><time>2026-04-26T09:04:25.912Z</time></trkpt><trkpt lat="38.138099088743004" lon="15.187606938974573"><ele>51.0</ele><time>2026-04-26T09:04:26.912Z</time></trkpt><trkpt lat="38.13827122093437" lon="15.18764647254808"><ele>48.0</ele><time>2026-04-26T09:04:27.912Z</time></trkpt><trkpt lat="38.138449576653535" lon="15.187707176502402"><ele>45.0</ele><time>2026-04-26T09:04:28.912Z</time></trkpt><trkpt lat="38.13860231352388" lon="15.187771379568925"><ele>42.0</ele><time>2026-04-26T09:04:29.912Z</time></trkpt><trkpt lat="38.138743570660765" lon="15.187824068412894"><ele>42.0</ele><time>2026-04-26T09:04:30.912Z</time></trkpt><trkpt lat="38.138901789972046" lon="15.187857409299287"><ele>42.0</ele><time>2026-04-26T09:04:31.912Z</time></trkpt><trkpt lat="38.1391005120475" lon="15.187884930421653"><ele>42.0</ele><time>2026-04-26T09:04:32.912Z</time></trkpt><trkpt lat="38.13932939096153" lon="15.187896987199732"><ele>40.0</ele><time>2026-04-26T09:04:33.912Z</time></trkpt><trkpt lat="38.139580999013845" lon="15.187943460649901"><ele>38.0</ele><time>2026-04-26T09:04:34.912Z</time></trkpt><trkpt lat="38.139835149173216" lon="15.188010322683484"><ele>37.5</ele><time>2026-04-26T09:04:35.912Z</time></trkpt><trkpt lat="38.140084402064375" lon="15.18809002466859"><ele>37.0</ele><time>2026-04-26T09:04:36.912Z</time></trkpt><trkpt lat="38.140323894562016" lon="15.188160450422076"><ele>38.333333333333336</ele><time>2026-04-26T09:04:37.912Z</time></trkpt><trkpt lat="38.14054796853413" lon="15.188197179593097"><ele>39.666666666666664</ele><time>2026-04-26T09:04:38.912Z</time></trkpt><trkpt lat="38.140762131131396" lon="15.18821870234612"><ele>41.0</ele><time>2026-04-26T09:04:39.912Z</time></trkpt><trkpt lat="38.140971169158" lon="15.188225283597916"><ele>41.0</ele><time>2026-04-26T09:04:40.912Z</time></trkpt><trkpt lat="38.141162125439145" lon="15.188202529401245"><ele>41.0</ele><time>2026-04-26T09:04:41.912Z</time></trkpt><trkpt lat="38.14134964302745" lon="15.188191322961995"><ele>41.0</ele><time>2026-04-26T09:04:42.912Z</time></trkpt><trkpt lat="38.141527990659476" lon="15.18817397579268"><ele>41.0</ele><time>2026-04-26T09:04:43.912Z</time></trkpt><trkpt lat="38.14169851893431" lon="15.188164087118054"><ele>41.0</ele><time>2026-04-26T09:04:44.912Z</time></trkpt><trkpt lat="38.14186740462859" lon="15.188177394342258"><ele>41.0</ele><time>2026-04-26T09:04:45.912Z</time></trkpt><trkpt lat="38.14204207185284" lon="15.188211547080998"><ele>41.0</ele><time>2026-04-26T09:04:46.912Z</time></trkpt><trkpt lat="38.14222608054304" lon="15.188251494417072"><ele>41.0</ele><time>2026-04-26T09:04:47.912Z</time></trkpt><trkpt lat="38.14241480025334" lon="15.188302570714969"><ele>41.0</ele><time>2026-04-26T09:04:48.912Z</time></trkpt><trkpt lat="38.14261435602552" lon="15.188357210379047"><ele>38.666666666666664</ele><time>2026-04-26T09:04:49.912Z</time></trkpt><trkpt lat="38.14282152103947" lon="15.188414345289528"><ele>36.333333333333336</ele><time>2026-04-26T09:04:50.912Z</time></trkpt><trkpt lat="38.1430078481484" lon="15.188470811016753"><ele>34.0</ele><time>2026-04-26T09:04:51.912Z</time></trkpt><trkpt lat="38.143192178407006" lon="15.188530481915917"><ele>33.0</ele><time>2026-04-26T09:04:52.912Z</time></trkpt><trkpt lat="38.1433604701198" lon="15.188647618715002"><ele>32.0</ele><time>2026-04-26T09:04:53.912Z</time></trkpt><trkpt lat="38.14353366981491" lon="15.188799571957436"><ele>31.0</ele><time>2026-04-26T09:04:54.912Z</time></trkpt><trkpt lat="38.14368323016537" lon="15.188990650845192"><ele>32.0</ele><time>2026-04-26T09:04:55.912Z</time></trkpt><trkpt lat="38.14379502201803" lon="15.189207977641685"><ele>33.0</ele><time>2026-04-26T09:04:56.912Z</time></trkpt><trkpt lat="38.14387520574963" lon="15.189441088267566"><ele>34.0</ele><time>2026-04-26T09:04:57.912Z</time></trkpt><trkpt lat="38.14391834447133" lon="15.189689534761099"><ele>34.333333333333336</ele><time>2026-04-26T09:04:58.912Z</time></trkpt><trkpt lat="38.143926305388305" lon="15.189941255314379"><ele>34.666666666666664</ele><time>2026-04-26T09:04:59.911Z</time></trkpt><trkpt lat="38.14393174585646" lon="15.190186152695018"><ele>35.0</ele><time>2026-04-26T09:05:00.911Z</time></trkpt><trkpt lat="38.14393524833405" lon="15.190401235506757"><ele>35.0</ele><time>2026-04-26T09:05:01.911Z</time></trkpt><trkpt lat="38.14393884887863" lon="15.190613004487998"><ele>35.0</ele><time>2026-04-26T09:05:02.911Z</time></trkpt><trkpt lat="38.14394265383305" lon="15.190827624869183"><ele>35.0</ele><time>2026-04-26T09:05:03.911Z</time></trkpt><trkpt lat="38.143946395014176" lon="15.191038648364058"><ele>39.666666666666664</ele><time>2026-04-26T09:05:04.911Z</time></trkpt><trkpt lat="38.143950171111456" lon="15.191251641161447"><ele>44.33333333333333</ele><time>2026-04-26T09:05:05.911Z</time></trkpt><trkpt lat="38.14395389859502" lon="15.191461891892631"><ele>49.0</ele><time>2026-04-26T09:05:06.911Z</time></trkpt><trkpt lat="38.14395734971063" lon="15.191674311142645"><ele>51.33333333333333</ele><time>2026-04-26T09:05:07.911Z</time></trkpt><trkpt lat="38.143960532924865" lon="15.191879406653557"><ele>53.66666666666667</ele><time>2026-04-26T09:05:08.911Z</time></trkpt><trkpt lat="38.143963765599686" lon="15.19208768891627"><ele>56.0</ele><time>2026-04-26T09:05:09.911Z</time></trkpt><trkpt lat="38.14397500910754" lon="15.192910513662238"><ele>56.0</ele><time>2026-04-26T09:05:14.911Z</time></trkpt><trkpt lat="38.14396518218332" lon="15.193103280001832"><ele>56.0</ele><time>2026-04-26T09:05:15.911Z</time></trkpt><trkpt lat="38.14394029622797" lon="15.19333272365442"><ele>56.0</ele><time>2026-04-26T09:05:16.911Z</time></trkpt><trkpt lat="38.14390701493322" lon="15.193539854866303"><ele>52.66666666666667</ele><time>2026-04-26T09:05:17.911Z</time></trkpt><trkpt lat="38.14386299403873" lon="15.193760790719711"><ele>49.333333333333336</ele><time>2026-04-26T09:05:18.911Z</time></trkpt><trkpt lat="38.14380091663021" lon="15.19399833731317"><ele>46.0</ele><time>2026-04-26T09:05:19.911Z</time></trkpt><trkpt lat="38.14369164170948" lon="15.194326597781291"><ele>45.333333333333336</ele><time>2026-04-26T09:05:20.911Z</time></trkpt><trkpt lat="38.14359439925497" lon="15.194595762895231"><ele>44.666666666666664</ele><time>2026-04-26T09:05:21.911Z</time></trkpt><trkpt lat="38.143505583933454" lon="15.194841978518856"><ele>44.0</ele><time>2026-04-26T09:05:22.911Z</time></trkpt><trkpt lat="38.143413914396966" lon="15.195094823809125"><ele>43.0</ele><time>2026-04-26T09:05:23.911Z</time></trkpt><trkpt lat="38.14330999004493" lon="15.195380516154195"><ele>42.0</ele><time>2026-04-26T09:05:24.911Z</time></trkpt><trkpt lat="38.143195220561886" lon="15.195696022146647"><ele>44.0</ele><time>2026-04-26T09:05:25.911Z</time></trkpt><trkpt lat="38.14307050649869" lon="15.196034384484904"><ele>46.0</ele><time>2026-04-26T09:05:26.911Z</time></trkpt><trkpt lat="38.1429473400563" lon="15.196372093969467"><ele>45.0</ele><time>2026-04-26T09:05:27.911Z</time></trkpt><trkpt lat="38.14285344002481" lon="15.196701433066728"><ele>44.0</ele><time>2026-04-26T09:05:28.911Z</time></trkpt><trkpt lat="38.142789744522055" lon="15.197012961006589"><ele>44.0</ele><time>2026-04-26T09:05:29.911Z</time></trkpt><trkpt lat="38.14274897368667" lon="15.197305639489837"><ele>44.0</ele><time>2026-04-26T09:05:30.911Z</time></trkpt><trkpt lat="38.14273136950067" lon="15.197592406867347"><ele>44.0</ele><time>2026-04-26T09:05:31.911Z</time></trkpt><trkpt lat="38.14272363741619" lon="15.19787045355855"><ele>44.0</ele><time>2026-04-26T09:05:32.911Z</time></trkpt><trkpt lat="38.14272617638773" lon="15.198127722766227"><ele>44.0</ele><time>2026-04-26T09:05:33.911Z</time></trkpt><trkpt lat="38.14273402629766" lon="15.198385284838569"><ele>43.666666666666664</ele><time>2026-04-26T09:05:34.911Z</time></trkpt><trkpt lat="38.14273586413485" lon="15.198650185094047"><ele>43.333333333333336</ele><time>2026-04-26T09:05:35.911Z</time></trkpt><trkpt lat="38.142739541505414" lon="15.198914131410799"><ele>43.0</ele><time>2026-04-26T09:05:36.91Z</time></trkpt><trkpt lat="38.14273896224986" lon="15.199194194557318"><ele>42.5</ele><time>2026-04-26T09:05:37.91Z</time></trkpt><trkpt lat="38.14273949196264" lon="15.199479433391875"><ele>42.0</ele><time>2026-04-26T09:05:38.91Z</time></trkpt><trkpt lat="38.142743536749144" lon="15.199767750424773"><ele>41.333333333333336</ele><time>2026-04-26T09:05:39.91Z</time></trkpt><trkpt lat="38.142747054892865" lon="15.200049021858447"><ele>40.66666666666667</ele><time>2026-04-26T09:05:40.91Z</time></trkpt><trkpt lat="38.14275229454665" lon="15.200312043277227"><ele>40.0</ele><time>2026-04-26T09:05:41.91Z</time></trkpt><trkpt lat="38.14275079925983" lon="15.20057596457055"><ele>40.0</ele><time>2026-04-26T09:05:42.91Z</time></trkpt><trkpt lat="38.142751007921326" lon="15.200835442302342"><ele>40.0</ele><time>2026-04-26T09:05:43.91Z</time></trkpt><trkpt lat="38.14274922010582" lon="15.201087335166553"><ele>40.0</ele><time>2026-04-26T09:05:44.91Z</time></trkpt><trkpt lat="38.142751151797526" lon="15.201337048994851"><ele>39.333333333333336</ele><time>2026-04-26T09:05:45.91Z</time></trkpt><trkpt lat="38.142774228336954" lon="15.201578104351595"><ele>38.666666666666664</ele><time>2026-04-26T09:05:46.91Z</time></trkpt><trkpt lat="38.14281950506839" lon="15.20180164256539"><ele>38.0</ele><time>2026-04-26T09:05:47.91Z</time></trkpt><trkpt lat="38.14288005727187" lon="15.202013714765727"><ele>38.0</ele><time>2026-04-26T09:05:48.91Z</time></trkpt><trkpt lat="38.14294570645756" lon="15.202211181626454"><ele>38.0</ele><time>2026-04-26T09:05:49.91Z</time></trkpt><trkpt lat="38.14300985910666" lon="15.202396579869237"><ele>38.0</ele><time>2026-04-26T09:05:50.91Z</time></trkpt><trkpt lat="38.1430956642008" lon="15.202581811381185"><ele>38.0</ele><time>2026-04-26T09:05:51.91Z</time></trkpt><trkpt lat="38.14319388213994" lon="15.20275148145958"><ele>38.0</ele><time>2026-04-26T09:05:52.91Z</time></trkpt><trkpt lat="38.14329901384871" lon="15.202904248705057"><ele>38.0</ele><time>2026-04-26T09:05:53.91Z</time></trkpt><trkpt lat="38.14339909934906" lon="15.203051464880023"><ele>39.0</ele><time>2026-04-26T09:05:54.91Z</time></trkpt><trkpt lat="38.143502808966076" lon="15.203193032032658"><ele>40.0</ele><time>2026-04-26T09:05:55.91Z</time></trkpt><trkpt lat="38.143608296348475" lon="15.203341065002855"><ele>41.0</ele><time>2026-04-26T09:05:56.91Z</time></trkpt><trkpt lat="38.143708216834426" lon="15.203485506524306"><ele>41.0</ele><time>2026-04-26T09:05:57.91Z</time></trkpt><trkpt lat="38.14380818896042" lon="15.2036383978565"><ele>41.0</ele><time>2026-04-26T09:05:58.91Z</time></trkpt><trkpt lat="38.143901970216774" lon="15.2037873939438"><ele>41.0</ele><time>2026-04-26T09:05:59.91Z</time></trkpt><trkpt lat="38.14399099194648" lon="15.203954758790404"><ele>41.0</ele><time>2026-04-26T09:06:00.91Z</time></trkpt><trkpt lat="38.14407021795932" lon="15.204132471245936"><ele>41.0</ele><time>2026-04-26T09:06:01.91Z</time></trkpt><trkpt lat="38.144132307641115" lon="15.204298670239064"><ele>41.0</ele><time>2026-04-26T09:06:02.91Z</time></trkpt><trkpt lat="38.14417828367767" lon="15.204444370880005"><ele>41.0</ele><time>2026-04-26T09:06:03.91Z</time></trkpt><trkpt lat="38.14421163439163" lon="15.204593734577896"><ele>41.0</ele><time>2026-04-26T09:06:04.91Z</time></trkpt><trkpt lat="38.144246620754814" lon="15.204725433733618"><ele>41.0</ele><time>2026-04-26T09:06:05.91Z</time></trkpt><trkpt lat="38.14426963413978" lon="15.204853787492718"><ele>41.0</ele><time>2026-04-26T09:06:06.91Z</time></trkpt><trkpt lat="38.144281055704376" lon="15.204963405120372"><ele>41.0</ele><time>2026-04-26T09:06:07.91Z</time></trkpt><trkpt lat="38.144281381143" lon="15.20507343844933"><ele>41.0</ele><time>2026-04-26T09:06:08.91Z</time></trkpt><trkpt lat="38.14428535172314" lon="15.205178381530914"><ele>41.25</ele><time>2026-04-26T09:06:09.91Z</time></trkpt><trkpt lat="38.144310746910485" lon="15.205287326490158"><ele>41.5</ele><time>2026-04-26T09:06:10.91Z</time></trkpt><trkpt lat="38.14436310310514" lon="15.205408478339216"><ele>41.75</ele><time>2026-04-26T09:06:11.91Z</time></trkpt><trkpt lat="38.144431746766195" lon="15.205569284636967"><ele>42.0</ele><time>2026-04-26T09:06:12.91Z</time></trkpt><trkpt lat="38.14448377754953" lon="15.205752269003321"><ele>42.5</ele><time>2026-04-26T09:06:13.91Z</time></trkpt><trkpt lat="38.14452861152892" lon="15.20596682890935"><ele>43.0</ele><time>2026-04-26T09:06:14.909Z</time></trkpt><trkpt lat="38.14456387486164" lon="15.206156942758986"><ele>43.5</ele><time>2026-04-26T09:06:15.909Z</time></trkpt><trkpt lat="38.144590017831916" lon="15.206293730996148"><ele>44.0</ele><time>2026-04-26T09:06:16.909Z</time></trkpt><trkpt lat="38.144611501283535" lon="15.206399898295642"><ele>44.2</ele><time>2026-04-26T09:06:17.909Z</time></trkpt><trkpt lat="38.144632951753486" lon="15.206494977577522"><ele>44.400000000000006</ele><time>2026-04-26T09:06:19.909Z</time></trkpt><trkpt lat="38.144618624204284" lon="15.20662239780259"><ele>44.6</ele><time>2026-04-26T09:06:23.909Z</time></trkpt><trkpt lat="38.1446383408373" lon="15.206720631803202"><ele>44.8</ele><time>2026-04-26T09:06:24.909Z</time></trkpt><trkpt lat="38.14467675730399" lon="15.20686356085277"><ele>45.0</ele><time>2026-04-26T09:06:25.909Z</time></trkpt><trkpt lat="38.14472752007464" lon="15.207076455155807"><ele>46.0</ele><time>2026-04-26T09:06:26.909Z</time></trkpt><trkpt lat="38.14477888612219" lon="15.207336299600781"><ele>47.0</ele><time>2026-04-26T09:06:27.909Z</time></trkpt><trkpt lat="38.14482651709488" lon="15.207632206173594"><ele>48.0</ele><time>2026-04-26T09:06:28.909Z</time></trkpt><trkpt lat="38.14487195947898" lon="15.207903900909471"><ele>48.0</ele><time>2026-04-26T09:06:29.909Z</time></trkpt><trkpt lat="38.14491252765955" lon="15.208145285051442"><ele>48.0</ele><time>2026-04-26T09:06:30.909Z</time></trkpt><trkpt lat="38.14495292812792" lon="15.208365038624178"><ele>48.0</ele><time>2026-04-26T09:06:31.91Z</time></trkpt><trkpt lat="38.14499733560667" lon="15.208548228156388"><ele>48.0</ele><time>2026-04-26T09:06:32.91Z</time></trkpt><trkpt lat="38.14504021428718" lon="15.208698430786523"><ele>48.0</ele><time>2026-04-26T09:06:33.91Z</time></trkpt><trkpt lat="38.14508079295837" lon="15.208837988901312"><ele>48.0</ele><time>2026-04-26T09:06:34.91Z</time></trkpt><trkpt lat="38.145096614233104" lon="15.208966540399487"><ele>48.0</ele><time>2026-04-26T09:06:35.91Z</time></trkpt><trkpt lat="38.14507409089956" lon="15.209099011863454"><ele>48.4</ele><time>2026-04-26T09:06:36.91Z</time></trkpt><trkpt lat="38.145043748729144" lon="15.209243409398338"><ele>48.8</ele><time>2026-04-26T09:06:37.91Z</time></trkpt><trkpt lat="38.145025709707916" lon="15.209368466490256"><ele>49.2</ele><time>2026-04-26T09:06:38.91Z</time></trkpt><trkpt lat="38.14498679870184" lon="15.209462232598563"><ele>49.6</ele><time>2026-04-26T09:06:39.91Z</time></trkpt><trkpt lat="38.1449636874607" lon="15.209550592041065"><ele>50.0</ele><time>2026-04-26T09:06:40.909Z</time></trkpt><trkpt lat="38.14493911786666" lon="15.20967664187793"><ele>50.00000000000001</ele><time>2026-04-26T09:06:42.91Z</time></trkpt><trkpt lat="38.14492583647598" lon="15.20979565482015"><ele>50.0</ele><time>2026-04-26T09:06:44.91Z</time></trkpt><trkpt lat="38.14495555037325" lon="15.209916020546645"><ele>50.0</ele><time>2026-04-26T09:06:46.91Z</time></trkpt><trkpt lat="38.144993560417205" lon="15.210040081065861"><ele>50.0</ele><time>2026-04-26T09:06:48.91Z</time></trkpt><trkpt lat="38.14502734170971" lon="15.210112827526496"><ele>50.00000000000001</ele><time>2026-04-26T09:06:49.91Z</time></trkpt><trkpt lat="38.14506902375507" lon="15.21019919178546"><ele>50.0</ele><time>2026-04-26T09:06:50.91Z</time></trkpt><trkpt lat="38.145110123978206" lon="15.210304598019755"><ele>50.333333333333336</ele><time>2026-04-26T09:06:51.91Z</time></trkpt><trkpt lat="38.14515161567003" lon="15.210428872161412"><ele>50.66666666666667</ele><time>2026-04-26T09:06:52.91Z</time></trkpt><trkpt lat="38.14519841353314" lon="15.210536888540608"><ele>51.0</ele><time>2026-04-26T09:06:53.91Z</time></trkpt><trkpt lat="38.14523798923257" lon="15.210628979281674"><ele>51.33333333333333</ele><time>2026-04-26T09:06:54.91Z</time></trkpt><trkpt lat="38.14526488519295" lon="15.210713250760996"><ele>51.666666666666664</ele><time>2026-04-26T09:06:55.91Z</time></trkpt><trkpt lat="38.14530546710268" lon="15.210809453733539"><ele>52.0</ele><time>2026-04-26T09:06:56.91Z</time></trkpt><trkpt lat="38.14535011512609" lon="15.210916567773396"><ele>52.166666666666664</ele><time>2026-04-26T09:06:57.91Z</time></trkpt><trkpt lat="38.145388951780944" lon="15.211026917137502"><ele>52.33333333333333</ele><time>2026-04-26T09:06:58.91Z</time></trkpt><trkpt lat="38.14541942221659" lon="15.211112505368698"><ele>52.5</ele><time>2026-04-26T09:06:59.91Z</time></trkpt><trkpt lat="38.145450911847654" lon="15.211202057758271"><ele>52.66666666666667</ele><time>2026-04-26T09:07:00.909Z</time></trkpt><trkpt lat="38.145482657197086" lon="15.211286008733916"><ele>52.833333333333336</ele><time>2026-04-26T09:07:01.909Z</time></trkpt><trkpt lat="38.14551654285939" lon="15.211375324062578"><ele>53.0</ele><time>2026-04-26T09:07:02.909Z</time></trkpt><trkpt lat="38.1455741188765" lon="15.21150962212296"><ele>53.2</ele><time>2026-04-26T09:07:04.909Z</time></trkpt><trkpt lat="38.145637663399214" lon="15.211652795520383"><ele>53.4</ele><time>2026-04-26T09:07:06.909Z</time></trkpt><trkpt lat="38.14565985935159" lon="15.211728097706851"><ele>53.60000000000001</ele><time>2026-04-26T09:07:07.909Z</time></trkpt><trkpt lat="38.14570623885076" lon="15.211863369084588"><ele>53.800000000000004</ele><time>2026-04-26T09:07:09.909Z</time></trkpt><trkpt lat="38.14573390246516" lon="15.211939505491038"><ele>54.0</ele><time>2026-04-26T09:07:10.909Z</time></trkpt><trkpt lat="38.14576413930983" lon="15.21203684624578"><ele>54.166666666666664</ele><time>2026-04-26T09:07:11.909Z</time></trkpt><trkpt lat="38.145796017544384" lon="15.212136439441522"><ele>54.33333333333333</ele><time>2026-04-26T09:07:12.909Z</time></trkpt><trkpt lat="38.14583165286446" lon="15.212220897425794"><ele>54.5</ele><time>2026-04-26T09:07:13.909Z</time></trkpt><trkpt lat="38.14586693121441" lon="15.21231033954156"><ele>54.666666666666664</ele><time>2026-04-26T09:07:14.909Z</time></trkpt><trkpt lat="38.145901854421446" lon="15.21240286931485"><ele>54.83333333333333</ele><time>2026-04-26T09:07:15.909Z</time></trkpt><trkpt lat="38.14595765578733" lon="15.212514673055722"><ele>55.0</ele><time>2026-04-26T09:07:16.909Z</time></trkpt><trkpt lat="38.1460128269567" lon="15.212649706154956"><ele>55.0</ele><time>2026-04-26T09:07:17.909Z</time></trkpt><trkpt lat="38.14604462287699" lon="15.21277081142582"><ele>55.0</ele><time>2026-04-26T09:07:18.909Z</time></trkpt><trkpt lat="38.146077755253856" lon="15.212879246821116"><ele>55.0</ele><time>2026-04-26T09:07:19.909Z</time></trkpt><trkpt lat="38.14610862140709" lon="15.212957836226531"><ele>55.0</ele><time>2026-04-26T09:07:20.909Z</time></trkpt><trkpt lat="38.14613758479641" lon="15.213046889876585"><ele>55.0</ele><time>2026-04-26T09:07:21.909Z</time></trkpt><trkpt lat="38.14618962926333" lon="15.213179375457536"><ele>55.0</ele><time>2026-04-26T09:07:23.909Z</time></trkpt><trkpt lat="38.146242766260045" lon="15.213296591947513"><ele>55.0</ele><time>2026-04-26T09:07:25.909Z</time></trkpt><trkpt lat="38.146280173186895" lon="15.213377072276469"><ele>55.0</ele><time>2026-04-26T09:07:26.909Z</time></trkpt><trkpt lat="38.146324447899765" lon="15.213483794540315"><ele>55.0</ele><time>2026-04-26T09:07:27.909Z</time></trkpt><trkpt lat="38.146362093390245" lon="15.213594332620715"><ele>55.0</ele><time>2026-04-26T09:07:28.909Z</time></trkpt><trkpt lat="38.14640618027998" lon="15.213708348184182"><ele>55.0</ele><time>2026-04-26T09:07:29.909Z</time></trkpt><trkpt lat="38.14645191194968" lon="15.21382598664716"><ele>55.0</ele><time>2026-04-26T09:07:30.909Z</time></trkpt><trkpt lat="38.14650397842854" lon="15.213961670611859"><ele>55.0</ele><time>2026-04-26T09:07:31.909Z</time></trkpt><trkpt lat="38.146559527481465" lon="15.2140969979562"><ele>55.0</ele><time>2026-04-26T09:07:32.909Z</time></trkpt><trkpt lat="38.146611859183444" lon="15.214207809015964"><ele>55.0</ele><time>2026-04-26T09:07:33.909Z</time></trkpt><trkpt lat="38.146651619074696" lon="15.214316164042113"><ele>55.0</ele><time>2026-04-26T09:07:34.909Z</time></trkpt><trkpt lat="38.1466909561591" lon="15.214419267616885"><ele>55.0</ele><time>2026-04-26T09:07:35.909Z</time></trkpt><trkpt lat="38.146736194099596" lon="15.2145235939025"><ele>55.0</ele><time>2026-04-26T09:07:36.909Z</time></trkpt><trkpt lat="38.14678202655149" lon="15.214652550729708"><ele>55.0</ele><time>2026-04-26T09:07:37.908Z</time></trkpt><trkpt lat="38.14682169086632" lon="15.214769198416892"><ele>55.0</ele><time>2026-04-26T09:07:38.908Z</time></trkpt><trkpt lat="38.14685524605837" lon="15.214886675687229"><ele>55.0</ele><time>2026-04-26T09:07:39.908Z</time></trkpt><trkpt lat="38.14690220067088" lon="15.215013082887861"><ele>55.0</ele><time>2026-04-26T09:07:40.908Z</time></trkpt><trkpt lat="38.14694810934869" lon="15.215135193341556"><ele>55.0</ele><time>2026-04-26T09:07:41.908Z</time></trkpt><trkpt lat="38.14701309308033" lon="15.21527158146772"><ele>55.0</ele><time>2026-04-26T09:07:42.908Z</time></trkpt><trkpt lat="38.14707274364869" lon="15.215405227862401"><ele>55.0</ele><time>2026-04-26T09:07:43.908Z</time></trkpt><trkpt lat="38.14712462020169" lon="15.215497648984117"><ele>55.0</ele><time>2026-04-26T09:07:44.908Z</time></trkpt><trkpt lat="38.147181738096364" lon="15.215640398757568"><ele>55.0</ele><time>2026-04-26T09:07:46.908Z</time></trkpt><trkpt lat="38.14720950229887" lon="15.215731205305781"><ele>55.0</ele><time>2026-04-26T09:07:47.908Z</time></trkpt><trkpt lat="38.147249609967446" lon="15.215833975711794"><ele>55.0</ele><time>2026-04-26T09:07:48.908Z</time></trkpt><trkpt lat="38.14728581539148" lon="15.215928292792546"><ele>55.0</ele><time>2026-04-26T09:07:49.908Z</time></trkpt><trkpt lat="38.147317342012826" lon="15.216007843345963"><ele>55.0</ele><time>2026-04-26T09:07:50.908Z</time></trkpt><trkpt lat="38.14736095696091" lon="15.216139741559035"><ele>55.0</ele><time>2026-04-26T09:07:52.908Z</time></trkpt><trkpt lat="38.14741463974962" lon="15.216280765056938"><ele>55.0</ele><time>2026-04-26T09:07:54.908Z</time></trkpt><trkpt lat="38.14745308003692" lon="15.216379796629878"><ele>55.0</ele><time>2026-04-26T09:07:55.908Z</time></trkpt><trkpt lat="38.14749797680722" lon="15.216485864446165"><ele>55.0</ele><time>2026-04-26T09:07:56.908Z</time></trkpt><trkpt lat="38.147535599460596" lon="15.216591900969856"><ele>55.0</ele><time>2026-04-26T09:07:57.908Z</time></trkpt><trkpt lat="38.147576350051516" lon="15.216700467535132"><ele>55.0</ele><time>2026-04-26T09:07:58.908Z</time></trkpt><trkpt lat="38.147623487303036" lon="15.21680499900361"><ele>55.0</ele><time>2026-04-26T09:07:59.908Z</time></trkpt><trkpt lat="38.14766280489735" lon="15.216896248404526"><ele>55.0</ele><time>2026-04-26T09:08:00.908Z</time></trkpt><trkpt lat="38.147707770152934" lon="15.217019908871057"><ele>54.99999999999999</ele><time>2026-04-26T09:08:02.908Z</time></trkpt><trkpt lat="38.14772685780118" lon="15.217120594869574"><ele>55.0</ele><time>2026-04-26T09:08:04.908Z</time></trkpt><trkpt lat="38.147787184394424" lon="15.217262160701404"><ele>55.0</ele><time>2026-04-26T09:08:06.908Z</time></trkpt><trkpt lat="38.147826660163446" lon="15.21733714641685"><ele>55.0</ele><time>2026-04-26T09:08:07.908Z</time></trkpt><trkpt lat="38.14785778323079" lon="15.217412820603496"><ele>54.99999999999999</ele><time>2026-04-26T09:08:08.908Z</time></trkpt><trkpt lat="38.14789910011473" lon="15.217508695233413"><ele>55.0</ele><time>2026-04-26T09:08:09.908Z</time></trkpt><trkpt lat="38.14794479655265" lon="15.217622863683"><ele>54.25</ele><time>2026-04-26T09:08:10.908Z</time></trkpt><trkpt lat="38.14800113712992" lon="15.217764732434663"><ele>53.5</ele><time>2026-04-26T09:08:11.908Z</time></trkpt><trkpt lat="38.148062084384456" lon="15.217931052348874"><ele>52.75</ele><time>2026-04-26T09:08:12.908Z</time></trkpt><trkpt lat="38.14811752746623" lon="15.218094726086779"><ele>52.0</ele><time>2026-04-26T09:08:13.908Z</time></trkpt><trkpt lat="38.148181944788675" lon="15.218251896076023"><ele>52.0</ele><time>2026-04-26T09:08:14.908Z</time></trkpt><trkpt lat="38.148249168840096" lon="15.218408290045971"><ele>52.0</ele><time>2026-04-26T09:08:15.907Z</time></trkpt><trkpt lat="38.14830629091157" lon="15.218562542477438"><ele>52.0</ele><time>2026-04-26T09:08:16.907Z</time></trkpt><trkpt lat="38.14835663834167" lon="15.218714230607777"><ele>52.0</ele><time>2026-04-26T09:08:17.907Z</time></trkpt><trkpt lat="38.148415537952665" lon="15.218860645434969"><ele>52.0</ele><time>2026-04-26T09:08:18.907Z</time></trkpt><trkpt lat="38.14846881084535" lon="15.219001666654002"><ele>52.0</ele><time>2026-04-26T09:08:19.907Z</time></trkpt><trkpt lat="38.14852174796467" lon="15.219134209566601"><ele>52.0</ele><time>2026-04-26T09:08:20.907Z</time></trkpt><trkpt lat="38.14857171328741" lon="15.219251245167337"><ele>52.0</ele><time>2026-04-26T09:08:21.907Z</time></trkpt><trkpt lat="38.148626899510084" lon="15.219366931225856"><ele>52.0</ele><time>2026-04-26T09:08:22.907Z</time></trkpt><trkpt lat="38.14866267221162" lon="15.21948922431261"><ele>52.0</ele><time>2026-04-26T09:08:23.907Z</time></trkpt><trkpt lat="38.14869672576635" lon="15.219629881322698"><ele>52.0</ele><time>2026-04-26T09:08:24.907Z</time></trkpt><trkpt lat="38.14875823396404" lon="15.219789201047686"><ele>52.0</ele><time>2026-04-26T09:08:25.907Z</time></trkpt><trkpt lat="38.148832450693384" lon="15.21996742394409"><ele>52.0</ele><time>2026-04-26T09:08:26.907Z</time></trkpt><trkpt lat="38.14889094515219" lon="15.220130457286357"><ele>52.0</ele><time>2026-04-26T09:08:27.907Z</time></trkpt><trkpt lat="38.148945254686694" lon="15.220280288712498"><ele>52.0</ele><time>2026-04-26T09:08:28.907Z</time></trkpt><trkpt lat="38.14899743838988" lon="15.220419789611599"><ele>52.0</ele><time>2026-04-26T09:08:29.907Z</time></trkpt><trkpt lat="38.14905890015712" lon="15.220574184216048"><ele>51.5</ele><time>2026-04-26T09:08:30.907Z</time></trkpt><trkpt lat="38.149123861359826" lon="15.220727330762081"><ele>51.0</ele><time>2026-04-26T09:08:31.907Z</time></trkpt><trkpt lat="38.14920404142103" lon="15.220890464610116"><ele>50.5</ele><time>2026-04-26T09:08:32.907Z</time></trkpt><trkpt lat="38.14927418706412" lon="15.221048607411507"><ele>50.0</ele><time>2026-04-26T09:08:33.907Z</time></trkpt><trkpt lat="38.149323487742066" lon="15.221205743299151"><ele>50.0</ele><time>2026-04-26T09:08:34.907Z</time></trkpt><trkpt lat="38.14936900835141" lon="15.221330121914171"><ele>50.0</ele><time>2026-04-26T09:08:35.907Z</time></trkpt><trkpt lat="38.149420667900245" lon="15.221458314389885"><ele>50.0</ele><time>2026-04-26T09:08:36.907Z</time></trkpt><trkpt lat="38.14947029474905" lon="15.221596736283573"><ele>50.0</ele><time>2026-04-26T09:08:37.908Z</time></trkpt><trkpt lat="38.14952440594692" lon="15.221745489147322"><ele>50.25</ele><time>2026-04-26T09:08:38.908Z</time></trkpt><trkpt lat="38.14958038674984" lon="15.22190158891727"><ele>50.5</ele><time>2026-04-26T09:08:39.908Z</time></trkpt><trkpt lat="38.14964296548342" lon="15.222058901135725"><ele>50.75</ele><time>2026-04-26T09:08:40.908Z</time></trkpt><trkpt lat="38.14970946183897" lon="15.222227847116926"><ele>51.0</ele><time>2026-04-26T09:08:41.908Z</time></trkpt><trkpt lat="38.1497744122182" lon="15.22240131063374"><ele>51.0</ele><time>2026-04-26T09:08:42.908Z</time></trkpt><trkpt lat="38.14984195760862" lon="15.222579185230236"><ele>51.0</ele><time>2026-04-26T09:08:43.908Z</time></trkpt><trkpt lat="38.149912656407835" lon="15.222750021958127"><ele>51.0</ele><time>2026-04-26T09:08:44.907Z</time></trkpt><trkpt lat="38.14997145949359" lon="15.222922627764737"><ele>51.5</ele><time>2026-04-26T09:08:45.907Z</time></trkpt><trkpt lat="38.15003673990323" lon="15.22308944025722"><ele>52.0</ele><time>2026-04-26T09:08:46.907Z</time></trkpt><trkpt lat="38.150100520000606" lon="15.223258365901343"><ele>52.5</ele><time>2026-04-26T09:08:47.908Z</time></trkpt><trkpt lat="38.15016924740329" lon="15.223426996064763"><ele>53.0</ele><time>2026-04-26T09:08:48.908Z</time></trkpt><trkpt lat="38.15023896067706" lon="15.223587852149437"><ele>53.0</ele><time>2026-04-26T09:08:49.908Z</time></trkpt><trkpt lat="38.150297283848076" lon="15.2237381235733"><ele>53.0</ele><time>2026-04-26T09:08:50.907Z</time></trkpt><trkpt lat="38.150336799962396" lon="15.223855431159157"><ele>53.0</ele><time>2026-04-26T09:08:51.907Z</time></trkpt><trkpt lat="38.15038294388318" lon="15.22396206099884"><ele>53.0</ele><time>2026-04-26T09:08:52.907Z</time></trkpt><trkpt lat="38.15043034911178" lon="15.224084010893655"><ele>53.0</ele><time>2026-04-26T09:08:53.907Z</time></trkpt><trkpt lat="38.15048030586843" lon="15.224231528710074"><ele>53.0</ele><time>2026-04-26T09:08:54.907Z</time></trkpt><trkpt lat="38.150539868441236" lon="15.224369684111252"><ele>53.0</ele><time>2026-04-26T09:08:55.907Z</time></trkpt><trkpt lat="38.15059518679234" lon="15.224513729390047"><ele>53.0</ele><time>2026-04-26T09:08:56.907Z</time></trkpt><trkpt lat="38.150650003989185" lon="15.224647017477311"><ele>53.0</ele><time>2026-04-26T09:08:57.907Z</time></trkpt><trkpt lat="38.15070566421167" lon="15.224757374126348"><ele>53.2</ele><time>2026-04-26T09:08:58.907Z</time></trkpt><trkpt lat="38.150741799682216" lon="15.224833842191515"><ele>53.4</ele><time>2026-04-26T09:08:59.907Z</time></trkpt><trkpt lat="38.15074391076932" lon="15.224953490372071"><ele>53.60000000000001</ele><time>2026-04-26T09:09:01.907Z</time></trkpt><trkpt lat="38.15078344844686" lon="15.225051935984228"><ele>53.800000000000004</ele><time>2026-04-26T09:09:03.907Z</time></trkpt><trkpt lat="38.15082918255555" lon="15.225176590865695"><ele>54.0</ele><time>2026-04-26T09:09:05.907Z</time></trkpt><trkpt lat="38.15088074996409" lon="15.225300557727996"><ele>54.0</ele><time>2026-04-26T09:09:07.907Z</time></trkpt><trkpt lat="38.15091254241649" lon="15.225394294361497"><ele>54.0</ele><time>2026-04-26T09:09:09.907Z</time></trkpt><trkpt lat="38.15094919369374" lon="15.225485003799253"><ele>54.0</ele><time>2026-04-26T09:09:11.907Z</time></trkpt><trkpt lat="38.15099515794335" lon="15.225617449654742"><ele>54.0</ele><time>2026-04-26T09:09:13.907Z</time></trkpt><trkpt lat="38.151025568763636" lon="15.225705236548693"><ele>54.0</ele><time>2026-04-26T09:09:14.907Z</time></trkpt><trkpt lat="38.15106241309502" lon="15.22581244498815"><ele>54.0</ele><time>2026-04-26T09:09:15.907Z</time></trkpt><trkpt lat="38.15110087737344" lon="15.225931782408963"><ele>54.5</ele><time>2026-04-26T09:09:16.907Z</time></trkpt><trkpt lat="38.15114548069576" lon="15.226040926670004"><ele>55.0</ele><time>2026-04-26T09:09:17.907Z</time></trkpt><trkpt lat="38.15119645418237" lon="15.226152455702703"><ele>55.5</ele><time>2026-04-26T09:09:18.907Z</time></trkpt><trkpt lat="38.151232324327644" lon="15.226250781258734"><ele>56.0</ele><time>2026-04-26T09:09:19.907Z</time></trkpt><trkpt lat="38.15126255690652" lon="15.226344845611814"><ele>56.5</ele><time>2026-04-26T09:09:20.907Z</time></trkpt><trkpt lat="38.151297276245444" lon="15.226428529002378"><ele>57.0</ele><time>2026-04-26T09:09:21.907Z</time></trkpt><trkpt lat="38.151334670970535" lon="15.226523337991429"><ele>57.0</ele><time>2026-04-26T09:09:22.907Z</time></trkpt><trkpt lat="38.15138315968325" lon="15.226639156159976"><ele>57.0</ele><time>2026-04-26T09:09:23.907Z</time></trkpt><trkpt lat="38.15144091845292" lon="15.226778692472479"><ele>57.0</ele><time>2026-04-26T09:09:24.907Z</time></trkpt><trkpt lat="38.15150040024206" lon="15.226918460047946"><ele>57.0</ele><time>2026-04-26T09:09:25.907Z</time></trkpt><trkpt lat="38.15156652767902" lon="15.227064811834667"><ele>57.0</ele><time>2026-04-26T09:09:26.907Z</time></trkpt><trkpt lat="38.151636025430086" lon="15.227200191594674"><ele>57.0</ele><time>2026-04-26T09:09:27.907Z</time></trkpt><trkpt lat="38.15169824360783" lon="15.227322916528054"><ele>57.0</ele><time>2026-04-26T09:09:28.906Z</time></trkpt><trkpt lat="38.151734818975065" lon="15.2274552667551"><ele>57.0</ele><time>2026-04-26T09:09:29.906Z</time></trkpt><trkpt lat="38.15178163667246" lon="15.227589287084792"><ele>57.75</ele><time>2026-04-26T09:09:30.906Z</time></trkpt><trkpt lat="38.15182950363476" lon="15.227717928291307"><ele>58.5</ele><time>2026-04-26T09:09:31.906Z</time></trkpt><trkpt lat="38.15188115978838" lon="15.227860287658455"><ele>59.25</ele><time>2026-04-26T09:09:32.906Z</time></trkpt><trkpt lat="38.1519507483434" lon="15.228015796271986"><ele>60.0</ele><time>2026-04-26T09:09:33.906Z</time></trkpt><trkpt lat="38.15202682454625" lon="15.228176778438407"><ele>60.5</ele><time>2026-04-26T09:09:34.906Z</time></trkpt><trkpt lat="38.15210029626275" lon="15.228336563991386"><ele>61.0</ele><time>2026-04-26T09:09:35.906Z</time></trkpt><trkpt lat="38.15214421586348" lon="15.228497236409448"><ele>61.5</ele><time>2026-04-26T09:09:36.906Z</time></trkpt><trkpt lat="38.15220356437144" lon="15.22864918800925"><ele>62.0</ele><time>2026-04-26T09:09:37.906Z</time></trkpt><trkpt lat="38.15225862698846" lon="15.22879030771009"><ele>62.0</ele><time>2026-04-26T09:09:38.906Z</time></trkpt><trkpt lat="38.15231030904582" lon="15.228922763170155"><ele>62.0</ele><time>2026-04-26T09:09:39.906Z</time></trkpt><trkpt lat="38.152362397821946" lon="15.229056261008868"><ele>62.0</ele><time>2026-04-26T09:09:40.906Z</time></trkpt><trkpt lat="38.152413509415965" lon="15.229187254221586"><ele>62.0</ele><time>2026-04-26T09:09:41.906Z</time></trkpt><trkpt lat="38.15246733429001" lon="15.22932836024903"><ele>62.0</ele><time>2026-04-26T09:09:42.906Z</time></trkpt><trkpt lat="38.15251968072631" lon="15.22946542995066"><ele>62.0</ele><time>2026-04-26T09:09:43.906Z</time></trkpt><trkpt lat="38.15257647503556" lon="15.22961414644386"><ele>62.0</ele><time>2026-04-26T09:09:44.906Z</time></trkpt><trkpt lat="38.152629767675336" lon="15.229759621622453"><ele>62.0</ele><time>2026-04-26T09:09:45.906Z</time></trkpt><trkpt lat="38.15268008324175" lon="15.229887396695814"><ele>62.0</ele><time>2026-04-26T09:09:46.906Z</time></trkpt><trkpt lat="38.152742344609884" lon="15.2299935242821"><ele>62.0</ele><time>2026-04-26T09:09:47.906Z</time></trkpt><trkpt lat="38.15277189055309" lon="15.23011887459222"><ele>62.0</ele><time>2026-04-26T09:09:48.906Z</time></trkpt><trkpt lat="38.15281752664568" lon="15.230218698216309"><ele>62.0</ele><time>2026-04-26T09:09:49.906Z</time></trkpt><trkpt lat="38.15287010536726" lon="15.230315486261556"><ele>62.0</ele><time>2026-04-26T09:09:50.906Z</time></trkpt><trkpt lat="38.15293181755005" lon="15.230400624329151"><ele>62.0</ele><time>2026-04-26T09:09:51.906Z</time></trkpt><trkpt lat="38.152990729831984" lon="15.2304853261356"><ele>62.0</ele><time>2026-04-26T09:09:52.906Z</time></trkpt><trkpt lat="38.15305554872502" lon="15.230581204650296"><ele>62.0</ele><time>2026-04-26T09:09:53.906Z</time></trkpt><trkpt lat="38.15310103959289" lon="15.230696143119664"><ele>62.0</ele><time>2026-04-26T09:09:54.906Z</time></trkpt><trkpt lat="38.15317187136101" lon="15.230798997892515"><ele>62.0</ele><time>2026-04-26T09:09:55.906Z</time></trkpt><trkpt lat="38.15324665630992" lon="15.23090636043204"><ele>61.75</ele><time>2026-04-26T09:09:56.906Z</time></trkpt><trkpt lat="38.15332725261985" lon="15.231023468517408"><ele>61.5</ele><time>2026-04-26T09:09:57.906Z</time></trkpt><trkpt lat="38.153422874129205" lon="15.231159808474173"><ele>61.25</ele><time>2026-04-26T09:09:58.906Z</time></trkpt><trkpt lat="38.15350798954969" lon="15.231286818077832"><ele>61.0</ele><time>2026-04-26T09:09:59.906Z</time></trkpt><trkpt lat="38.153592331719864" lon="15.231383708598646"><ele>61.0</ele><time>2026-04-26T09:10:00.906Z</time></trkpt><trkpt lat="38.15364948877422" lon="15.231468281981394"><ele>60.99999999999999</ele><time>2026-04-26T09:10:01.906Z</time></trkpt><trkpt lat="38.15368151917427" lon="15.231546250445533"><ele>60.99999999999999</ele><time>2026-04-26T09:10:02.906Z</time></trkpt><trkpt lat="38.153734791311166" lon="15.23162046523933"><ele>61.0</ele><time>2026-04-26T09:10:03.906Z</time></trkpt><trkpt lat="38.153802070732" lon="15.231708917757869"><ele>61.0</ele><time>2026-04-26T09:10:04.906Z</time></trkpt><trkpt lat="38.1538831180005" lon="15.231819646201714"><ele>60.5</ele><time>2026-04-26T09:10:05.906Z</time></trkpt><trkpt lat="38.15396636624247" lon="15.231943060120857"><ele>60.0</ele><time>2026-04-26T09:10:06.905Z</time></trkpt><trkpt lat="38.15406128271001" lon="15.232090253853725"><ele>59.5</ele><time>2026-04-26T09:10:07.905Z</time></trkpt><trkpt lat="38.15415593640739" lon="15.232262111148922"><ele>59.0</ele><time>2026-04-26T09:10:08.905Z</time></trkpt><trkpt lat="38.154240863983425" lon="15.232440493706006"><ele>57.66666666666667</ele><time>2026-04-26T09:10:09.905Z</time></trkpt><trkpt lat="38.15432631030328" lon="15.232627308460417"><ele>56.33333333333333</ele><time>2026-04-26T09:10:10.905Z</time></trkpt><trkpt lat="38.1544094777973" lon="15.232813189185007"><ele>55.0</ele><time>2026-04-26T09:10:11.905Z</time></trkpt><trkpt lat="38.15448897163787" lon="15.233003456084832"><ele>54.666666666666664</ele><time>2026-04-26T09:10:12.905Z</time></trkpt><trkpt lat="38.15459767276799" lon="15.233169790259298"><ele>54.33333333333333</ele><time>2026-04-26T09:10:13.905Z</time></trkpt><trkpt lat="38.15471256037475" lon="15.233328365787303"><ele>54.0</ele><time>2026-04-26T09:10:14.905Z</time></trkpt><trkpt lat="38.15483364120016" lon="15.233479932003078"><ele>53.66666666666667</ele><time>2026-04-26T09:10:15.905Z</time></trkpt><trkpt lat="38.15497045225234" lon="15.233618773064979"><ele>53.333333333333336</ele><time>2026-04-26T09:10:16.905Z</time></trkpt><trkpt lat="38.15510337442659" lon="15.233763559394339"><ele>53.0</ele><time>2026-04-26T09:10:17.905Z</time></trkpt><trkpt lat="38.155225670950834" lon="15.233920509262967"><ele>52.66666666666667</ele><time>2026-04-26T09:10:18.905Z</time></trkpt><trkpt lat="38.15534007896191" lon="15.234081360127389"><ele>52.33333333333333</ele><time>2026-04-26T09:10:19.905Z</time></trkpt><trkpt lat="38.155450340231454" lon="15.234249369167584"><ele>52.0</ele><time>2026-04-26T09:10:20.905Z</time></trkpt><trkpt lat="38.15554928905217" lon="15.234429668872632"><ele>52.0</ele><time>2026-04-26T09:10:21.905Z</time></trkpt><trkpt lat="38.15564874596293" lon="15.2346319951525"><ele>52.0</ele><time>2026-04-26T09:10:22.905Z</time></trkpt><trkpt lat="38.15573862005579" lon="15.234837959903427"><ele>52.0</ele><time>2026-04-26T09:10:23.905Z</time></trkpt><trkpt lat="38.155830608607786" lon="15.235054301464029"><ele>51.33333333333333</ele><time>2026-04-26T09:10:24.905Z</time></trkpt><trkpt lat="38.155926053247846" lon="15.235265419042603"><ele>50.66666666666667</ele><time>2026-04-26T09:10:25.905Z</time></trkpt><trkpt lat="38.156012414246604" lon="15.235473602916999"><ele>50.0</ele><time>2026-04-26T09:10:26.905Z</time></trkpt><trkpt lat="38.15609272642634" lon="15.235675371514613"><ele>50.0</ele><time>2026-04-26T09:10:27.905Z</time></trkpt><trkpt lat="38.15617591652295" lon="15.235884256205546"><ele>50.0</ele><time>2026-04-26T09:10:28.905Z</time></trkpt><trkpt lat="38.15626741072445" lon="15.236088474290534"><ele>50.0</ele><time>2026-04-26T09:10:29.905Z</time></trkpt><trkpt lat="38.15636007047557" lon="15.236285080862531"><ele>50.0</ele><time>2026-04-26T09:10:30.905Z</time></trkpt><trkpt lat="38.1564471515621" lon="15.236455648232921"><ele>50.0</ele><time>2026-04-26T09:10:31.905Z</time></trkpt><trkpt lat="38.156520436418525" lon="15.23659768877674"><ele>50.0</ele><time>2026-04-26T09:10:32.905Z</time></trkpt><trkpt lat="38.15657800820037" lon="15.236721502374625"><ele>50.0</ele><time>2026-04-26T09:10:33.905Z</time></trkpt><trkpt lat="38.15663101587177" lon="15.236811171608588"><ele>49.833333333333336</ele><time>2026-04-26T09:10:34.905Z</time></trkpt><trkpt lat="38.15667424229941" lon="15.236885732827435"><ele>49.66666666666667</ele><time>2026-04-26T09:10:35.905Z</time></trkpt><trkpt lat="38.15672069292087" lon="15.236963669222357"><ele>49.5</ele><time>2026-04-26T09:10:36.905Z</time></trkpt><trkpt lat="38.15676058230673" lon="15.237030706903571"><ele>49.33333333333333</ele><time>2026-04-26T09:10:37.905Z</time></trkpt><trkpt lat="38.15679415713764" lon="15.237107673525998"><ele>49.166666666666664</ele><time>2026-04-26T09:10:38.905Z</time></trkpt><trkpt lat="38.15684567929977" lon="15.237218398839296"><ele>49.0</ele><time>2026-04-26T09:10:39.905Z</time></trkpt><trkpt lat="38.15691922946229" lon="15.237346766211145"><ele>49.666666666666664</ele><time>2026-04-26T09:10:40.905Z</time></trkpt><trkpt lat="38.157001659310026" lon="15.237512117569656"><ele>50.33333333333333</ele><time>2026-04-26T09:10:41.905Z</time></trkpt><trkpt lat="38.15711095552479" lon="15.23767778652777"><ele>51.0</ele><time>2026-04-26T09:10:42.905Z</time></trkpt><trkpt lat="38.15722427822078" lon="15.237862117068872"><ele>51.0</ele><time>2026-04-26T09:10:43.905Z</time></trkpt><trkpt lat="38.15733991875213" lon="15.238041590592763"><ele>51.0</ele><time>2026-04-26T09:10:44.905Z</time></trkpt><trkpt lat="38.15746606664127" lon="15.238212163205132"><ele>51.0</ele><time>2026-04-26T09:10:45.905Z</time></trkpt><trkpt lat="38.15757813791812" lon="15.238393338831068"><ele>50.0</ele><time>2026-04-26T09:10:46.905Z</time></trkpt><trkpt lat="38.157693607093385" lon="15.238578954334733"><ele>49.0</ele><time>2026-04-26T09:10:47.905Z</time></trkpt><trkpt lat="38.15781310680748" lon="15.238757285398009"><ele>48.0</ele><time>2026-04-26T09:10:48.905Z</time></trkpt><trkpt lat="38.157945077556604" lon="15.238937806013157"><ele>48.0</ele><time>2026-04-26T09:10:49.905Z</time></trkpt><trkpt lat="38.158087374227385" lon="15.239102864156257"><ele>48.0</ele><time>2026-04-26T09:10:50.905Z</time></trkpt><trkpt lat="38.15822583932743" lon="15.239269079922044"><ele>48.0</ele><time>2026-04-26T09:10:51.905Z</time></trkpt><trkpt lat="38.15836330651126" lon="15.239432168203303"><ele>48.0</ele><time>2026-04-26T09:10:52.905Z</time></trkpt><trkpt lat="38.15848086425648" lon="15.239612054467214"><ele>48.0</ele><time>2026-04-26T09:10:53.905Z</time></trkpt><trkpt lat="38.15859663888724" lon="15.23977010904785"><ele>48.0</ele><time>2026-04-26T09:10:54.905Z</time></trkpt><trkpt lat="38.1586931201598" lon="15.239905794740729"><ele>48.25</ele><time>2026-04-26T09:10:55.905Z</time></trkpt><trkpt lat="38.15877584230742" lon="15.240033207669656"><ele>48.5</ele><time>2026-04-26T09:10:56.905Z</time></trkpt><trkpt lat="38.158852910837275" lon="15.240164645184096"><ele>48.75</ele><time>2026-04-26T09:10:57.905Z</time></trkpt><trkpt lat="38.158920419690965" lon="15.240286439285066"><ele>49.0</ele><time>2026-04-26T09:10:58.905Z</time></trkpt><trkpt lat="38.158985500450896" lon="15.24040428986307"><ele>49.25</ele><time>2026-04-26T09:10:59.905Z</time></trkpt><trkpt lat="38.159052000470005" lon="15.240524710403303"><ele>49.5</ele><time>2026-04-26T09:11:00.905Z</time></trkpt><trkpt lat="38.15912215927018" lon="15.240656878222595"><ele>49.75</ele><time>2026-04-26T09:11:01.905Z</time></trkpt><trkpt lat="38.15919735061603" lon="15.240806825374891"><ele>50.0</ele><time>2026-04-26T09:11:02.905Z</time></trkpt><trkpt lat="38.159274463459454" lon="15.240968922454549"><ele>50.0</ele><time>2026-04-26T09:11:03.905Z</time></trkpt><trkpt lat="38.15934154708782" lon="15.241137105236229"><ele>50.0</ele><time>2026-04-26T09:11:04.905Z</time></trkpt><trkpt lat="38.15938306479889" lon="15.241319718081105"><ele>50.0</ele><time>2026-04-26T09:11:05.905Z</time></trkpt><trkpt lat="38.15944604433441" lon="15.241486162773885"><ele>50.0</ele><time>2026-04-26T09:11:06.905Z</time></trkpt><trkpt lat="38.15950924674904" lon="15.241630204563014"><ele>50.6</ele><time>2026-04-26T09:11:07.905Z</time></trkpt><trkpt lat="38.15955380149446" lon="15.241726368551037"><ele>51.2</ele><time>2026-04-26T09:11:08.905Z</time></trkpt><trkpt lat="38.15959463116731" lon="15.241805375279469"><ele>51.8</ele><time>2026-04-26T09:11:09.905Z</time></trkpt><trkpt lat="38.15967704331999" lon="15.241941188989166"><ele>52.4</ele><time>2026-04-26T09:11:11.905Z</time></trkpt><trkpt lat="38.15972166878686" lon="15.242013699495642"><ele>53.0</ele><time>2026-04-26T09:11:12.905Z</time></trkpt><trkpt lat="38.15977922761081" lon="15.242099745954773"><ele>53.0</ele><time>2026-04-26T09:11:13.905Z</time></trkpt><trkpt lat="38.15983630668944" lon="15.24218460798073"><ele>53.0</ele><time>2026-04-26T09:11:14.905Z</time></trkpt><trkpt lat="38.159899545193966" lon="15.242278630273697"><ele>53.0</ele><time>2026-04-26T09:11:15.905Z</time></trkpt><trkpt lat="38.15996263764188" lon="15.242375126425884"><ele>53.0</ele><time>2026-04-26T09:11:16.905Z</time></trkpt><trkpt lat="38.160030679109695" lon="15.242473899835026"><ele>53.0</ele><time>2026-04-26T09:11:17.905Z</time></trkpt><trkpt lat="38.16012454450771" lon="15.242538560217259"><ele>52.5</ele><time>2026-04-26T09:11:18.905Z</time></trkpt><trkpt lat="38.16019162353917" lon="15.24262164674875"><ele>52.0</ele><time>2026-04-26T09:11:19.905Z</time></trkpt><trkpt lat="38.160274984045564" lon="15.24271926205884"><ele>51.5</ele><time>2026-04-26T09:11:20.905Z</time></trkpt><trkpt lat="38.16040972632345" lon="15.242813370194133"><ele>51.0</ele><time>2026-04-26T09:11:21.905Z</time></trkpt><trkpt lat="38.16054290693314" lon="15.242909353089235"><ele>51.0</ele><time>2026-04-26T09:11:22.905Z</time></trkpt><trkpt lat="38.16067980237301" lon="15.243023633424665"><ele>51.0</ele><time>2026-04-26T09:11:23.905Z</time></trkpt><trkpt lat="38.160819839803885" lon="15.243137046605764"><ele>51.0</ele><time>2026-04-26T09:11:24.905Z</time></trkpt><trkpt lat="38.160958782757604" lon="15.243253163790147"><ele>50.0</ele><time>2026-04-26T09:11:25.905Z</time></trkpt><trkpt lat="38.161096705563" lon="15.243373432077693"><ele>49.0</ele><time>2026-04-26T09:11:26.904Z</time></trkpt><trkpt lat="38.16122424860898" lon="15.243492644250644"><ele>48.0</ele><time>2026-04-26T09:11:27.904Z</time></trkpt><trkpt lat="38.161342039863534" lon="15.243617648711377"><ele>48.0</ele><time>2026-04-26T09:11:28.904Z</time></trkpt><trkpt lat="38.16145485164026" lon="15.243735902298567"><ele>48.0</ele><time>2026-04-26T09:11:29.904Z</time></trkpt><trkpt lat="38.16155797480292" lon="15.243843234533111"><ele>48.0</ele><time>2026-04-26T09:11:30.904Z</time></trkpt><trkpt lat="38.16165188853166" lon="15.24394957776501"><ele>48.0</ele><time>2026-04-26T09:11:31.904Z</time></trkpt><trkpt lat="38.16173894246131" lon="15.244061841394617"><ele>48.25</ele><time>2026-04-26T09:11:32.904Z</time></trkpt><trkpt lat="38.16182011736067" lon="15.244159442488339"><ele>48.5</ele><time>2026-04-26T09:11:33.904Z</time></trkpt><trkpt lat="38.161909728691704" lon="15.244255270281574"><ele>48.75</ele><time>2026-04-26T09:11:34.904Z</time></trkpt><trkpt lat="38.1620147121382" lon="15.24437243120899"><ele>49.0</ele><time>2026-04-26T09:11:35.904Z</time></trkpt><trkpt lat="38.162141288632675" lon="15.244499333224482"><ele>49.0</ele><time>2026-04-26T09:11:36.904Z</time></trkpt><trkpt lat="38.16228240177984" lon="15.244617655460956"><ele>49.0</ele><time>2026-04-26T09:11:37.904Z</time></trkpt><trkpt lat="38.162396284391384" lon="15.24473447836318"><ele>49.0</ele><time>2026-04-26T09:11:38.904Z</time></trkpt><trkpt lat="38.16247046836419" lon="15.244845448052436"><ele>49.0</ele><time>2026-04-26T09:11:39.904Z</time></trkpt><trkpt lat="38.162550104635656" lon="15.24494244136993"><ele>50.0</ele><time>2026-04-26T09:11:40.904Z</time></trkpt><trkpt lat="38.16262132359345" lon="15.245037200085045"><ele>51.0</ele><time>2026-04-26T09:11:41.904Z</time></trkpt><trkpt lat="38.16268657299832" lon="15.245127210358685"><ele>52.00000000000001</ele><time>2026-04-26T09:11:42.904Z</time></trkpt><trkpt lat="38.16275820987088" lon="15.245226746550467"><ele>53.0</ele><time>2026-04-26T09:11:43.904Z</time></trkpt><trkpt lat="38.16284530869646" lon="15.24534775256508"><ele>54.0</ele><time>2026-04-26T09:11:44.904Z</time></trkpt><trkpt lat="38.162937069578675" lon="15.245476599001677"><ele>54.0</ele><time>2026-04-26T09:11:45.904Z</time></trkpt><trkpt lat="38.1630377552378" lon="15.24561797625206"><ele>54.0</ele><time>2026-04-26T09:11:46.904Z</time></trkpt><trkpt lat="38.163123619961205" lon="15.245743399072639"><ele>54.0</ele><time>2026-04-26T09:11:47.904Z</time></trkpt><trkpt lat="38.1631997354738" lon="15.24585759902321"><ele>54.0</ele><time>2026-04-26T09:11:48.904Z</time></trkpt><trkpt lat="38.163272021078434" lon="15.245967842260455"><ele>54.400000000000006</ele><time>2026-04-26T09:11:49.904Z</time></trkpt><trkpt lat="38.16334024602028" lon="15.246074882374595"><ele>54.800000000000004</ele><time>2026-04-26T09:11:50.904Z</time></trkpt><trkpt lat="38.163407133437666" lon="15.246187115922988"><ele>55.199999999999996</ele><time>2026-04-26T09:11:51.904Z</time></trkpt><trkpt lat="38.16347314492663" lon="15.246300123766126"><ele>55.599999999999994</ele><time>2026-04-26T09:11:52.904Z</time></trkpt><trkpt lat="38.163542046739686" lon="15.246413723890669"><ele>56.0</ele><time>2026-04-26T09:11:53.904Z</time></trkpt><trkpt lat="38.16362410868739" lon="15.246514298575837"><ele>56.0</ele><time>2026-04-26T09:11:54.904Z</time></trkpt><trkpt lat="38.163696607775385" lon="15.246633271490227"><ele>56.0</ele><time>2026-04-26T09:11:55.904Z</time></trkpt><trkpt lat="38.16376857455498" lon="15.246749260195921"><ele>56.0</ele><time>2026-04-26T09:11:56.904Z</time></trkpt><trkpt lat="38.16384631335062" lon="15.246864925785138"><ele>56.0</ele><time>2026-04-26T09:11:57.904Z</time></trkpt><trkpt lat="38.16392176104416" lon="15.246981759207424"><ele>56.0</ele><time>2026-04-26T09:11:58.904Z</time></trkpt><trkpt lat="38.16401834650537" lon="15.247081578125318"><ele>56.0</ele><time>2026-04-26T09:11:59.904Z</time></trkpt><trkpt lat="38.164109746619545" lon="15.247197428782457"><ele>56.0</ele><time>2026-04-26T09:12:00.904Z</time></trkpt><trkpt lat="38.16420647057491" lon="15.247325080874573"><ele>56.0</ele><time>2026-04-26T09:12:01.904Z</time></trkpt><trkpt lat="38.164312853412255" lon="15.247460056464528"><ele>56.5</ele><time>2026-04-26T09:12:02.904Z</time></trkpt><trkpt lat="38.164404516935576" lon="15.247593643217549"><ele>57.0</ele><time>2026-04-26T09:12:03.904Z</time></trkpt><trkpt lat="38.16450021554766" lon="15.247702736531654"><ele>57.5</ele><time>2026-04-26T09:12:04.903Z</time></trkpt><trkpt lat="38.164580876322454" lon="15.247788924043077"><ele>58.0</ele><time>2026-04-26T09:12:05.903Z</time></trkpt><trkpt lat="38.1646421362374" lon="15.247854381435639"><ele>57.99999999999999</ele><time>2026-04-26T09:12:06.903Z</time></trkpt><trkpt lat="38.164702762688364" lon="15.24791916174464"><ele>58.0</ele><time>2026-04-26T09:12:07.903Z</time></trkpt><trkpt lat="38.164760563762464" lon="15.247980923110292"><ele>58.0</ele><time>2026-04-26T09:12:08.903Z</time></trkpt><trkpt lat="38.16481399336397" lon="15.248038013478542"><ele>58.0</ele><time>2026-04-26T09:12:09.903Z</time></trkpt><trkpt lat="38.16490853957837" lon="15.248142692196417"><ele>57.99999999999999</ele><time>2026-04-26T09:12:11.903Z</time></trkpt><trkpt lat="38.16496641830066" lon="15.248204306054818"><ele>58.0</ele><time>2026-04-26T09:12:12.903Z</time></trkpt><trkpt lat="38.165022544842095" lon="15.248271472463868"><ele>58.4</ele><time>2026-04-26T09:12:13.903Z</time></trkpt><trkpt lat="38.16508351115764" lon="15.248345782091327"><ele>58.8</ele><time>2026-04-26T09:12:14.903Z</time></trkpt><trkpt lat="38.165150605620994" lon="15.248433659524494"><ele>59.2</ele><time>2026-04-26T09:12:15.903Z</time></trkpt><trkpt lat="38.165219238714805" lon="15.24856257116643"><ele>59.6</ele><time>2026-04-26T09:12:16.903Z</time></trkpt><trkpt lat="38.16530404786712" lon="15.248692609350307"><ele>60.0</ele><time>2026-04-26T09:12:17.903Z</time></trkpt><trkpt lat="38.16541346497054" lon="15.24883788552582"><ele>60.0</ele><time>2026-04-26T09:12:18.903Z</time></trkpt><trkpt lat="38.1655370716549" lon="15.248956522927314"><ele>60.0</ele><time>2026-04-26T09:12:19.903Z</time></trkpt><trkpt lat="38.165638322282184" lon="15.249097785248027"><ele>60.0</ele><time>2026-04-26T09:12:20.903Z</time></trkpt><trkpt lat="38.16573236485615" lon="15.249235537633641"><ele>60.0</ele><time>2026-04-26T09:12:21.903Z</time></trkpt><trkpt lat="38.16582249014911" lon="15.249378216421777"><ele>60.5</ele><time>2026-04-26T09:12:22.903Z</time></trkpt><trkpt lat="38.165906987535294" lon="15.249514518196419"><ele>61.0</ele><time>2026-04-26T09:12:23.903Z</time></trkpt><trkpt lat="38.16599616299942" lon="15.24963996078614"><ele>61.5</ele><time>2026-04-26T09:12:24.903Z</time></trkpt><trkpt lat="38.16607701298002" lon="15.24976144662724"><ele>62.0</ele><time>2026-04-26T09:12:25.903Z</time></trkpt><trkpt lat="38.16616301328606" lon="15.249849405080454"><ele>62.2</ele><time>2026-04-26T09:12:26.903Z</time></trkpt><trkpt lat="38.16621837284225" lon="15.24995017777982"><ele>62.400000000000006</ele><time>2026-04-26T09:12:27.903Z</time></trkpt><trkpt lat="38.16628034292386" lon="15.25000115924383"><ele>62.599999999999994</ele><time>2026-04-26T09:12:28.903Z</time></trkpt><trkpt lat="38.16632280196289" lon="15.250086162471641"><ele>62.8</ele><time>2026-04-26T09:12:30.903Z</time></trkpt><trkpt lat="38.1664130326329" lon="15.250181994638261"><ele>63.0</ele><time>2026-04-26T09:12:32.903Z</time></trkpt><trkpt lat="38.16648431204302" lon="15.250242923947392"><ele>63.0</ele><time>2026-04-26T09:12:33.903Z</time></trkpt><trkpt lat="38.16659650179338" lon="15.250327551553541"><ele>63.0</ele><time>2026-04-26T09:12:34.903Z</time></trkpt><trkpt lat="38.16671014759609" lon="15.250441560302557"><ele>63.0</ele><time>2026-04-26T09:12:35.903Z</time></trkpt><trkpt lat="38.16682344500936" lon="15.250570781317736"><ele>63.0</ele><time>2026-04-26T09:12:36.903Z</time></trkpt><trkpt lat="38.166925431951434" lon="15.250687609104048"><ele>64.0</ele><time>2026-04-26T09:12:37.903Z</time></trkpt><trkpt lat="38.167045161025584" lon="15.250829032761565"><ele>65.0</ele><time>2026-04-26T09:12:38.903Z</time></trkpt><trkpt lat="38.1671918522489" lon="15.250985090164635"><ele>66.0</ele><time>2026-04-26T09:12:39.903Z</time></trkpt><trkpt lat="38.16733075362188" lon="15.251115542575763"><ele>66.0</ele><time>2026-04-26T09:12:40.903Z</time></trkpt><trkpt lat="38.1674518781173" lon="15.251226617417684"><ele>66.0</ele><time>2026-04-26T09:12:41.902Z</time></trkpt><trkpt lat="38.16756168333776" lon="15.25132683474441"><ele>66.0</ele><time>2026-04-26T09:12:42.902Z</time></trkpt><trkpt lat="38.16768245148957" lon="15.25143705642988"><ele>66.0</ele><time>2026-04-26T09:12:43.902Z</time></trkpt><trkpt lat="38.167798898706934" lon="15.251543334640745"><ele>66.25</ele><time>2026-04-26T09:12:44.902Z</time></trkpt><trkpt lat="38.16792033919041" lon="15.251638856914896"><ele>66.5</ele><time>2026-04-26T09:12:45.902Z</time></trkpt><trkpt lat="38.1680227421214" lon="15.251738433705723"><ele>66.75</ele><time>2026-04-26T09:12:46.902Z</time></trkpt><trkpt lat="38.168123897290634" lon="15.251823917052013"><ele>67.0</ele><time>2026-04-26T09:12:47.902Z</time></trkpt><trkpt lat="38.168208178028834" lon="15.251940036790668"><ele>66.25</ele><time>2026-04-26T09:12:48.902Z</time></trkpt><trkpt lat="38.1683074812243" lon="15.252015613567737"><ele>65.5</ele><time>2026-04-26T09:12:49.903Z</time></trkpt><trkpt lat="38.168405209757275" lon="15.252095172466113"><ele>64.75</ele><time>2026-04-26T09:12:50.903Z</time></trkpt><trkpt lat="38.16850645809188" lon="15.252183230592417"><ele>64.0</ele><time>2026-04-26T09:12:51.903Z</time></trkpt><trkpt lat="38.168611982923466" lon="15.252283235997812"><ele>64.0</ele><time>2026-04-26T09:12:52.903Z</time></trkpt><trkpt lat="38.16871658227406" lon="15.252380122145626"><ele>64.0</ele><time>2026-04-26T09:12:53.903Z</time></trkpt><trkpt lat="38.1688156953259" lon="15.252476099005186"><ele>64.0</ele><time>2026-04-26T09:12:54.903Z</time></trkpt><trkpt lat="38.168912780029196" lon="15.25256154232724"><ele>64.0</ele><time>2026-04-26T09:12:55.902Z</time></trkpt><trkpt lat="38.169004838060715" lon="15.252643669653278"><ele>63.75</ele><time>2026-04-26T09:12:56.903Z</time></trkpt><trkpt lat="38.16910042147649" lon="15.252725488112413"><ele>63.5</ele><time>2026-04-26T09:12:57.903Z</time></trkpt><trkpt lat="38.16919930421236" lon="15.252821982317888"><ele>63.25</ele><time>2026-04-26T09:12:58.903Z</time></trkpt><trkpt lat="38.16929816599689" lon="15.25290098999956"><ele>63.0</ele><time>2026-04-26T09:12:59.903Z</time></trkpt><trkpt lat="38.169397921852436" lon="15.252990617563874"><ele>63.0</ele><time>2026-04-26T09:13:00.903Z</time></trkpt><trkpt lat="38.16949746388189" lon="15.253081947895572"><ele>63.0</ele><time>2026-04-26T09:13:01.903Z</time></trkpt><trkpt lat="38.16959568105656" lon="15.253176346357828"><ele>63.0</ele><time>2026-04-26T09:13:02.902Z</time></trkpt><trkpt lat="38.16969131414833" lon="15.253270785585912"><ele>63.0</ele><time>2026-04-26T09:13:03.902Z</time></trkpt><trkpt lat="38.16978118033571" lon="15.253371825881516"><ele>63.5</ele><time>2026-04-26T09:13:04.902Z</time></trkpt><trkpt lat="38.169853388679655" lon="15.253486221857495"><ele>64.0</ele><time>2026-04-26T09:13:05.902Z</time></trkpt><trkpt lat="38.16989965216213" lon="15.253622001099727"><ele>64.5</ele><time>2026-04-26T09:13:06.902Z</time></trkpt><trkpt lat="38.169928013558355" lon="15.253769569284948"><ele>65.0</ele><time>2026-04-26T09:13:07.902Z</time></trkpt><trkpt lat="38.16992179327108" lon="15.253928919396913"><ele>65.0</ele><time>2026-04-26T09:13:08.902Z</time></trkpt><trkpt lat="38.169924697387955" lon="15.254083667621725"><ele>65.0</ele><time>2026-04-26T09:13:09.902Z</time></trkpt><trkpt lat="38.16993047555771" lon="15.254232412629046"><ele>65.0</ele><time>2026-04-26T09:13:10.902Z</time></trkpt><trkpt lat="38.16993984414838" lon="15.254385454266021"><ele>65.0</ele><time>2026-04-26T09:13:11.902Z</time></trkpt><trkpt lat="38.169949693456886" lon="15.254533876524489"><ele>65.0</ele><time>2026-04-26T09:13:12.902Z</time></trkpt><trkpt lat="38.16995694464919" lon="15.254678608767403"><ele>65.0</ele><time>2026-04-26T09:13:13.902Z</time></trkpt><trkpt lat="38.16996736383329" lon="15.254822818033773"><ele>65.0</ele><time>2026-04-26T09:13:14.902Z</time></trkpt><trkpt lat="38.1699769841908" lon="15.254959440186715"><ele>65.0</ele><time>2026-04-26T09:13:15.902Z</time></trkpt><trkpt lat="38.16998544832033" lon="15.255097455895147"><ele>65.0</ele><time>2026-04-26T09:13:16.902Z</time></trkpt><trkpt lat="38.16999403609329" lon="15.255232834854393"><ele>65.2</ele><time>2026-04-26T09:13:17.902Z</time></trkpt><trkpt lat="38.17000207786097" lon="15.255365366434372"><ele>65.4</ele><time>2026-04-26T09:13:18.902Z</time></trkpt><trkpt lat="38.16998570113871" lon="15.255506452341425"><ele>65.6</ele><time>2026-04-26T09:13:19.902Z</time></trkpt><trkpt lat="38.170011183010814" lon="15.255634846475917"><ele>65.8</ele><time>2026-04-26T09:13:20.902Z</time></trkpt><trkpt lat="38.17005486885104" lon="15.255755320385333"><ele>66.0</ele><time>2026-04-26T09:13:21.902Z</time></trkpt><trkpt lat="38.17012142502546" lon="15.255858352662935"><ele>66.2</ele><time>2026-04-26T09:13:22.902Z</time></trkpt><trkpt lat="38.17020941661084" lon="15.255947010176042"><ele>66.39999999999999</ele><time>2026-04-26T09:13:23.902Z</time></trkpt><trkpt lat="38.17030577104231" lon="15.256028584977011"><ele>66.6</ele><time>2026-04-26T09:13:24.902Z</time></trkpt><trkpt lat="38.17040198953674" lon="15.256103585569731"><ele>66.8</ele><time>2026-04-26T09:13:25.902Z</time></trkpt><trkpt lat="38.17048735664116" lon="15.25618668424957"><ele>67.0</ele><time>2026-04-26T09:13:26.902Z</time></trkpt><trkpt lat="38.17057551143061" lon="15.256277556650096"><ele>67.0</ele><time>2026-04-26T09:13:27.902Z</time></trkpt><trkpt lat="38.17066876195866" lon="15.256370018581814"><ele>67.0</ele><time>2026-04-26T09:13:28.901Z</time></trkpt><trkpt lat="38.17077485559059" lon="15.256463675395256"><ele>67.0</ele><time>2026-04-26T09:13:29.901Z</time></trkpt><trkpt lat="38.17089159722993" lon="15.256545565035076"><ele>67.0</ele><time>2026-04-26T09:13:30.901Z</time></trkpt><trkpt lat="38.17101175216698" lon="15.25662333982741"><ele>66.25</ele><time>2026-04-26T09:13:31.901Z</time></trkpt><trkpt lat="38.17112993527796" lon="15.256693449468356"><ele>65.5</ele><time>2026-04-26T09:13:32.901Z</time></trkpt><trkpt lat="38.17124427356699" lon="15.25675685649211"><ele>64.75</ele><time>2026-04-26T09:13:33.901Z</time></trkpt><trkpt lat="38.17135612585602" lon="15.25681189625586"><ele>64.0</ele><time>2026-04-26T09:13:34.901Z</time></trkpt><trkpt lat="38.171460908341146" lon="15.256856716581632"><ele>64.0</ele><time>2026-04-26T09:13:35.901Z</time></trkpt><trkpt lat="38.171564900633754" lon="15.256893179819293"><ele>64.0</ele><time>2026-04-26T09:13:36.901Z</time></trkpt><trkpt lat="38.17167042539498" lon="15.256938040694846"><ele>64.0</ele><time>2026-04-26T09:13:37.901Z</time></trkpt><trkpt lat="38.171782025794684" lon="15.256977808707674"><ele>64.0</ele><time>2026-04-26T09:13:38.901Z</time></trkpt><trkpt lat="38.17190196000404" lon="15.25702216724577"><ele>64.0</ele><time>2026-04-26T09:13:39.901Z</time></trkpt><trkpt lat="38.17201510580867" lon="15.257063425190568"><ele>64.0</ele><time>2026-04-26T09:13:40.901Z</time></trkpt><trkpt lat="38.172122708453244" lon="15.257098650471931"><ele>64.0</ele><time>2026-04-26T09:13:41.901Z</time></trkpt><trkpt lat="38.17222467326286" lon="15.257130769028997"><ele>64.0</ele><time>2026-04-26T09:13:42.901Z</time></trkpt><trkpt lat="38.17233289059981" lon="15.257167234046879"><ele>64.0</ele><time>2026-04-26T09:13:43.901Z</time></trkpt><trkpt lat="38.172445743054375" lon="15.257210769942546"><ele>64.5</ele><time>2026-04-26T09:13:44.901Z</time></trkpt><trkpt lat="38.17255569989249" lon="15.257260987093247"><ele>65.0</ele><time>2026-04-26T09:13:45.901Z</time></trkpt><trkpt lat="38.172661026919364" lon="15.257312767104832"><ele>65.5</ele><time>2026-04-26T09:13:46.901Z</time></trkpt><trkpt lat="38.17276975323467" lon="15.257373722452204"><ele>66.0</ele><time>2026-04-26T09:13:47.901Z</time></trkpt><trkpt lat="38.17287944480826" lon="15.257447423695451"><ele>67.0</ele><time>2026-04-26T09:13:48.901Z</time></trkpt><trkpt lat="38.1729930310064" lon="15.257536868288726"><ele>68.0</ele><time>2026-04-26T09:13:49.901Z</time></trkpt><trkpt lat="38.17311133348462" lon="15.25762925728378"><ele>69.0</ele><time>2026-04-26T09:13:50.901Z</time></trkpt><trkpt lat="38.17323828631874" lon="15.25772745051384"><ele>70.0</ele><time>2026-04-26T09:13:51.901Z</time></trkpt><trkpt lat="38.17335963154958" lon="15.25783424137134"><ele>70.0</ele><time>2026-04-26T09:13:52.901Z</time></trkpt><trkpt lat="38.173481170251605" lon="15.25792402287792"><ele>70.0</ele><time>2026-04-26T09:13:53.901Z</time></trkpt><trkpt lat="38.173592072792076" lon="15.258015198817299"><ele>70.0</ele><time>2026-04-26T09:13:54.901Z</time></trkpt><trkpt lat="38.1737063985226" lon="15.258104704675326"><ele>70.0</ele><time>2026-04-26T09:13:55.901Z</time></trkpt><trkpt lat="38.173819379592665" lon="15.258201495710573"><ele>70.0</ele><time>2026-04-26T09:13:56.901Z</time></trkpt><trkpt lat="38.1739361550891" lon="15.258300142493383"><ele>70.0</ele><time>2026-04-26T09:13:57.901Z</time></trkpt><trkpt lat="38.17405694288521" lon="15.25840863086444"><ele>70.0</ele><time>2026-04-26T09:13:58.901Z</time></trkpt><trkpt lat="38.174190608170484" lon="15.258524029490651"><ele>69.33333333333333</ele><time>2026-04-26T09:13:59.901Z</time></trkpt><trkpt lat="38.17432506369417" lon="15.258671907492444"><ele>68.66666666666667</ele><time>2026-04-26T09:14:00.901Z</time></trkpt><trkpt lat="38.174478716921065" lon="15.258799202213638"><ele>68.0</ele><time>2026-04-26T09:14:01.901Z</time></trkpt><trkpt lat="38.17461815115956" lon="15.258943611902149"><ele>68.66666666666667</ele><time>2026-04-26T09:14:02.901Z</time></trkpt><trkpt lat="38.17475329452659" lon="15.25908646174116"><ele>69.33333333333333</ele><time>2026-04-26T09:14:03.901Z</time></trkpt><trkpt lat="38.17488814551712" lon="15.259235443424453"><ele>70.0</ele><time>2026-04-26T09:14:04.901Z</time></trkpt><trkpt lat="38.175023603542655" lon="15.25938798834134"><ele>70.0</ele><time>2026-04-26T09:14:05.9Z</time></trkpt><trkpt lat="38.175154064211725" lon="15.259558394609861"><ele>70.0</ele><time>2026-04-26T09:14:06.9Z</time></trkpt><trkpt lat="38.17527597900636" lon="15.259726186998613"><ele>70.0</ele><time>2026-04-26T09:14:07.9Z</time></trkpt><trkpt lat="38.175397311193755" lon="15.259892507597314"><ele>70.66666666666666</ele><time>2026-04-26T09:14:08.9Z</time></trkpt><trkpt lat="38.17552088251597" lon="15.260061337946553"><ele>71.33333333333333</ele><time>2026-04-26T09:14:09.9Z</time></trkpt><trkpt lat="38.175641224352184" lon="15.260226344108885"><ele>72.0</ele><time>2026-04-26T09:14:10.9Z</time></trkpt><trkpt lat="38.175752384948446" lon="15.26038389680735"><ele>71.33333333333333</ele><time>2026-04-26T09:14:11.9Z</time></trkpt><trkpt lat="38.17585831985364" lon="15.260534798035415"><ele>70.66666666666666</ele><time>2026-04-26T09:14:12.9Z</time></trkpt><trkpt lat="38.175949626235976" lon="15.26068511137967"><ele>70.0</ele><time>2026-04-26T09:14:13.9Z</time></trkpt><trkpt lat="38.17604821240366" lon="15.260814989045606"><ele>70.0</ele><time>2026-04-26T09:14:14.9Z</time></trkpt><trkpt lat="38.17614847801528" lon="15.260930952087195"><ele>70.0</ele><time>2026-04-26T09:14:15.9Z</time></trkpt><trkpt lat="38.17622637845717" lon="15.261071133894376"><ele>70.0</ele><time>2026-04-26T09:14:16.9Z</time></trkpt><trkpt lat="38.176300126844374" lon="15.261193876815254"><ele>70.0</ele><time>2026-04-26T09:14:17.9Z</time></trkpt><trkpt lat="38.17637560081331" lon="15.261326662265674"><ele>69.75</ele><time>2026-04-26T09:14:18.9Z</time></trkpt><trkpt lat="38.17645488099074" lon="15.261468154682548"><ele>69.5</ele><time>2026-04-26T09:14:19.9Z</time></trkpt><trkpt lat="38.176529045030584" lon="15.261600296066813"><ele>69.25</ele><time>2026-04-26T09:14:20.9Z</time></trkpt><trkpt lat="38.176600608739065" lon="15.26172428931974"><ele>69.0</ele><time>2026-04-26T09:14:21.9Z</time></trkpt><trkpt lat="38.17666698301319" lon="15.261838508942892"><ele>69.0</ele><time>2026-04-26T09:14:22.9Z</time></trkpt><trkpt lat="38.17673007850503" lon="15.261947286154976"><ele>69.0</ele><time>2026-04-26T09:14:23.9Z</time></trkpt><trkpt lat="38.1767906580908" lon="15.26205174080491"><ele>69.0</ele><time>2026-04-26T09:14:24.9Z</time></trkpt><trkpt lat="38.17685962772575" lon="15.262169550863865"><ele>69.0</ele><time>2026-04-26T09:14:25.9Z</time></trkpt><trkpt lat="38.17693842198909" lon="15.262295660128133"><ele>69.16666666666667</ele><time>2026-04-26T09:14:26.9Z</time></trkpt><trkpt lat="38.177026147989764" lon="15.262397913242886"><ele>69.33333333333333</ele><time>2026-04-26T09:14:27.9Z</time></trkpt><trkpt lat="38.177083934082496" lon="15.262513032386314"><ele>69.5</ele><time>2026-04-26T09:14:28.9Z</time></trkpt><trkpt lat="38.17714981024648" lon="15.26258518017301"><ele>69.66666666666666</ele><time>2026-04-26T09:14:29.9Z</time></trkpt><trkpt lat="38.17720517306666" lon="15.262625786726622"><ele>69.83333333333333</ele><time>2026-04-26T09:14:30.9Z</time></trkpt><trkpt lat="38.17725460180151" lon="15.262679314538884"><ele>70.0</ele><time>2026-04-26T09:14:31.9Z</time></trkpt><trkpt lat="38.177304104505964" lon="15.262749448046431"><ele>69.75</ele><time>2026-04-26T09:14:32.9Z</time></trkpt><trkpt lat="38.177386033351844" lon="15.262843128005679"><ele>69.5</ele><time>2026-04-26T09:14:33.9Z</time></trkpt><trkpt lat="38.17751082348315" lon="15.262971413683177"><ele>69.25</ele><time>2026-04-26T09:14:34.9Z</time></trkpt><trkpt lat="38.17760740970005" lon="15.26311393311324"><ele>69.0</ele><time>2026-04-26T09:14:35.9Z</time></trkpt><trkpt lat="38.17770374828805" lon="15.263254271127924"><ele>69.0</ele><time>2026-04-26T09:14:36.9Z</time></trkpt><trkpt lat="38.1777897892147" lon="15.263388517204788"><ele>69.0</ele><time>2026-04-26T09:14:37.9Z</time></trkpt><trkpt lat="38.177868981578136" lon="15.263515747481918"><ele>69.0</ele><time>2026-04-26T09:14:38.9Z</time></trkpt><trkpt lat="38.17794139566316" lon="15.263623392206473"><ele>69.0</ele><time>2026-04-26T09:14:39.9Z</time></trkpt><trkpt lat="38.17802264013998" lon="15.263726260178881"><ele>69.0</ele><time>2026-04-26T09:14:40.9Z</time></trkpt><trkpt lat="38.17810461973845" lon="15.26381743760343"><ele>69.0</ele><time>2026-04-26T09:14:41.9Z</time></trkpt><trkpt lat="38.17816442528904" lon="15.26392540464834"><ele>69.0</ele><time>2026-04-26T09:14:42.9Z</time></trkpt><trkpt lat="38.17824160997671" lon="15.264004287932709"><ele>69.0</ele><time>2026-04-26T09:14:43.899Z</time></trkpt><trkpt lat="38.17830273796422" lon="15.264090851703227"><ele>69.0</ele><time>2026-04-26T09:14:44.899Z</time></trkpt><trkpt lat="38.17836483877215" lon="15.264191369772877"><ele>69.0</ele><time>2026-04-26T09:14:45.899Z</time></trkpt><trkpt lat="38.1784532638045" lon="15.26429982215375"><ele>69.0</ele><time>2026-04-26T09:14:46.899Z</time></trkpt><trkpt lat="38.178532199581596" lon="15.264410762734943"><ele>69.0</ele><time>2026-04-26T09:14:47.899Z</time></trkpt><trkpt lat="38.17861003114279" lon="15.264520203158154"><ele>69.0</ele><time>2026-04-26T09:14:48.899Z</time></trkpt><trkpt lat="38.178656980509786" lon="15.264673918863151"><ele>69.0</ele><time>2026-04-26T09:14:49.899Z</time></trkpt><trkpt lat="38.17874092851474" lon="15.264789001125694"><ele>69.0</ele><time>2026-04-26T09:14:50.899Z</time></trkpt><trkpt lat="38.17881564930384" lon="15.264898161526535"><ele>69.0</ele><time>2026-04-26T09:14:51.899Z</time></trkpt><trkpt lat="38.17888485162282" lon="15.265004608593845"><ele>69.0</ele><time>2026-04-26T09:14:52.899Z</time></trkpt><trkpt lat="38.17894322291806" lon="15.265119893340442"><ele>69.0</ele><time>2026-04-26T09:14:53.899Z</time></trkpt><trkpt lat="38.17900002735665" lon="15.265232957335888"><ele>69.0</ele><time>2026-04-26T09:14:54.899Z</time></trkpt><trkpt lat="38.179053950772314" lon="15.265347034918152"><ele>69.0</ele><time>2026-04-26T09:14:55.9Z</time></trkpt><trkpt lat="38.17909955471405" lon="15.265472801423734"><ele>69.0</ele><time>2026-04-26T09:14:56.9Z</time></trkpt><trkpt lat="38.17914393509069" lon="15.265595366097067"><ele>69.0</ele><time>2026-04-26T09:14:57.9Z</time></trkpt><trkpt lat="38.17919704102518" lon="15.265709045823447"><ele>68.16666666666667</ele><time>2026-04-26T09:14:58.9Z</time></trkpt><trkpt lat="38.17924639200016" lon="15.265803005234906"><ele>67.33333333333333</ele><time>2026-04-26T09:14:59.901Z</time></trkpt><trkpt lat="38.17931008476552" lon="15.26587011836414"><ele>66.5</ele><time>2026-04-26T09:15:00.901Z</time></trkpt><trkpt lat="38.17935375019083" lon="15.265957729989196"><ele>65.66666666666666</ele><time>2026-04-26T09:15:01.9Z</time></trkpt><trkpt lat="38.1794035576086" lon="15.266051415533747"><ele>64.83333333333333</ele><time>2026-04-26T09:15:02.9Z</time></trkpt><trkpt lat="38.179439109099306" lon="15.266141906894422"><ele>64.0</ele><time>2026-04-26T09:15:03.9Z</time></trkpt><trkpt lat="38.179479085506" lon="15.266229197457335"><ele>63.99999999999999</ele><time>2026-04-26T09:15:04.9Z</time></trkpt><trkpt lat="38.179503709665966" lon="15.266303900556295"><ele>64.0</ele><time>2026-04-26T09:15:05.9Z</time></trkpt><trkpt lat="38.17951940721529" lon="15.2664360565409"><ele>64.0</ele><time>2026-04-26T09:15:07.9Z</time></trkpt><trkpt lat="38.17951361593797" lon="15.266564191615496"><ele>64.0</ele><time>2026-04-26T09:15:09.9Z</time></trkpt><trkpt lat="38.17952837096513" lon="15.266644847509678"><ele>63.99999999999999</ele><time>2026-04-26T09:15:10.9Z</time></trkpt><trkpt lat="38.17957138773571" lon="15.266716147176503"><ele>64.0</ele><time>2026-04-26T09:15:11.9Z</time></trkpt><trkpt lat="38.179675928572905" lon="15.266777304550253"><ele>64.0</ele><time>2026-04-26T09:15:13.9Z</time></trkpt><trkpt lat="38.179739492217735" lon="15.266806265812194"><ele>64.0</ele><time>2026-04-26T09:15:14.9Z</time></trkpt><trkpt lat="38.17981603426891" lon="15.266900779326214"><ele>64.0</ele><time>2026-04-26T09:15:15.9Z</time></trkpt><trkpt lat="38.179895250015704" lon="15.267034165966725"><ele>64.0</ele><time>2026-04-26T09:15:16.9Z</time></trkpt><trkpt lat="38.1799744678055" lon="15.267193069530919"><ele>64.0</ele><time>2026-04-26T09:15:17.9Z</time></trkpt><trkpt lat="38.1800655368284" lon="15.267366371653946"><ele>64.0</ele><time>2026-04-26T09:15:18.9Z</time></trkpt><trkpt lat="38.18017708772646" lon="15.267541395725578"><ele>64.0</ele><time>2026-04-26T09:15:19.9Z</time></trkpt><trkpt lat="38.18030198032519" lon="15.267699432713318"><ele>64.0</ele><time>2026-04-26T09:15:20.9Z</time></trkpt><trkpt lat="38.18046684946076" lon="15.267834903653712"><ele>64.0</ele><time>2026-04-26T09:15:21.9Z</time></trkpt><trkpt lat="38.180650576017875" lon="15.267950728213943"><ele>64.0</ele><time>2026-04-26T09:15:22.9Z</time></trkpt><trkpt lat="38.180843015922484" lon="15.26803632470871"><ele>62.0</ele><time>2026-04-26T09:15:23.9Z</time></trkpt><trkpt lat="38.180997964274574" lon="15.268115080114356"><ele>60.0</ele><time>2026-04-26T09:15:24.9Z</time></trkpt><trkpt lat="38.18113908946273" lon="15.268192717413932"><ele>58.0</ele><time>2026-04-26T09:15:25.9Z</time></trkpt><trkpt lat="38.18127169828547" lon="15.268267031389456"><ele>58.0</ele><time>2026-04-26T09:15:26.899Z</time></trkpt><trkpt lat="38.181395603108015" lon="15.268346300388918"><ele>58.0</ele><time>2026-04-26T09:15:27.899Z</time></trkpt><trkpt lat="38.181509894661104" lon="15.26841894535948"><ele>58.0</ele><time>2026-04-26T09:15:28.899Z</time></trkpt><trkpt lat="38.18162316484589" lon="15.268482901469197"><ele>58.0</ele><time>2026-04-26T09:15:29.899Z</time></trkpt><trkpt lat="38.1817293630221" lon="15.268540961072251"><ele>56.5</ele><time>2026-04-26T09:15:30.899Z</time></trkpt><trkpt lat="38.1818317134249" lon="15.268595933909536"><ele>55.0</ele><time>2026-04-26T09:15:31.899Z</time></trkpt><trkpt lat="38.181937091880755" lon="15.268652205182695"><ele>53.5</ele><time>2026-04-26T09:15:32.899Z</time></trkpt><trkpt lat="38.182037289556476" lon="15.268715081590244"><ele>52.0</ele><time>2026-04-26T09:15:33.899Z</time></trkpt><trkpt lat="38.182141915538615" lon="15.268772319179122"><ele>52.0</ele><time>2026-04-26T09:15:34.899Z</time></trkpt><trkpt lat="38.18224532308972" lon="15.26882988248341"><ele>52.0</ele><time>2026-04-26T09:15:35.899Z</time></trkpt><trkpt lat="38.18235198996292" lon="15.268891635777464"><ele>52.0</ele><time>2026-04-26T09:15:36.899Z</time></trkpt><trkpt lat="38.18246089215347" lon="15.268954075417659"><ele>52.0</ele><time>2026-04-26T09:15:37.899Z</time></trkpt><trkpt lat="38.1825795139247" lon="15.269023682744088"><ele>50.75</ele><time>2026-04-26T09:15:38.899Z</time></trkpt><trkpt lat="38.182706858672425" lon="15.26910262704052"><ele>49.5</ele><time>2026-04-26T09:15:39.899Z</time></trkpt><trkpt lat="38.18283999949603" lon="15.269179025035866"><ele>48.25</ele><time>2026-04-26T09:15:40.899Z</time></trkpt><trkpt lat="38.182967707001865" lon="15.269248797751063"><ele>47.0</ele><time>2026-04-26T09:15:41.899Z</time></trkpt><trkpt lat="38.18308369313908" lon="15.269315493921736"><ele>46.400000000000006</ele><time>2026-04-26T09:15:42.899Z</time></trkpt><trkpt lat="38.18319196632596" lon="15.26937313853412"><ele>45.800000000000004</ele><time>2026-04-26T09:15:43.899Z</time></trkpt><trkpt lat="38.1832823508255" lon="15.26942955969085"><ele>45.2</ele><time>2026-04-26T09:15:44.899Z</time></trkpt><trkpt lat="38.183374441729725" lon="15.26947705207165"><ele>44.6</ele><time>2026-04-26T09:15:45.899Z</time></trkpt><trkpt lat="38.18346041193173" lon="15.269524806244512"><ele>44.0</ele><time>2026-04-26T09:15:46.899Z</time></trkpt><trkpt lat="38.18352482093947" lon="15.269573251760738"><ele>44.0</ele><time>2026-04-26T09:15:47.899Z</time></trkpt><trkpt lat="38.18358551296308" lon="15.269686722131766"><ele>44.0</ele><time>2026-04-26T09:15:49.899Z</time></trkpt><trkpt lat="38.18361330860715" lon="15.269797494682416"><ele>44.0</ele><time>2026-04-26T09:15:50.899Z</time></trkpt><trkpt lat="38.183667448721806" lon="15.269898370530179"><ele>44.0</ele><time>2026-04-26T09:15:51.899Z</time></trkpt><trkpt lat="38.18374474571465" lon="15.269949282542262"><ele>44.0</ele><time>2026-04-26T09:15:52.899Z</time></trkpt><trkpt lat="38.18383751745546" lon="15.269960176423169"><ele>44.2</ele><time>2026-04-26T09:15:53.899Z</time></trkpt><trkpt lat="38.18393799154814" lon="15.269924508174775"><ele>44.400000000000006</ele><time>2026-04-26T09:15:54.899Z</time></trkpt><trkpt lat="38.18401973956485" lon="15.269885359231697"><ele>44.6</ele><time>2026-04-26T09:15:55.899Z</time></trkpt><trkpt lat="38.18409631907652" lon="15.26987015135968"><ele>44.8</ele><time>2026-04-26T09:15:56.899Z</time></trkpt><trkpt lat="38.184186431168605" lon="15.269896526069534"><ele>45.0</ele><time>2026-04-26T09:15:57.899Z</time></trkpt><trkpt lat="38.18430011907378" lon="15.269984035494222"><ele>45.0</ele><time>2026-04-26T09:15:58.899Z</time></trkpt><trkpt lat="38.18440206241534" lon="15.270057663450498"><ele>45.0</ele><time>2026-04-26T09:15:59.899Z</time></trkpt><trkpt lat="38.184523776243246" lon="15.270115680609235"><ele>45.0</ele><time>2026-04-26T09:16:00.899Z</time></trkpt><trkpt lat="38.18467532081765" lon="15.270176547319783"><ele>45.0</ele><time>2026-04-26T09:16:01.899Z</time></trkpt><trkpt lat="38.18483034777763" lon="15.270269117332532"><ele>44.333333333333336</ele><time>2026-04-26T09:16:02.899Z</time></trkpt><trkpt lat="38.18498517654136" lon="15.270373647210524"><ele>43.66666666666667</ele><time>2026-04-26T09:16:03.899Z</time></trkpt><trkpt lat="38.18513859800412" lon="15.270478236841619"><ele>43.0</ele><time>2026-04-26T09:16:04.898Z</time></trkpt><trkpt lat="38.185302606660194" lon="15.270572342096614"><ele>43.0</ele><time>2026-04-26T09:16:05.898Z</time></trkpt><trkpt lat="38.185471067991585" lon="15.270673394011105"><ele>43.0</ele><time>2026-04-26T09:16:06.898Z</time></trkpt><trkpt lat="38.18565201158064" lon="15.270777765338671"><ele>43.0</ele><time>2026-04-26T09:16:07.898Z</time></trkpt><trkpt lat="38.18584746387049" lon="15.270892936735846"><ele>42.66666666666667</ele><time>2026-04-26T09:16:08.898Z</time></trkpt><trkpt lat="38.18604251698468" lon="15.271019473547403"><ele>42.333333333333336</ele><time>2026-04-26T09:16:09.898Z</time></trkpt><trkpt lat="38.18621475774244" lon="15.271155691395373"><ele>42.0</ele><time>2026-04-26T09:16:10.898Z</time></trkpt><trkpt lat="38.18637170205702" lon="15.271295751382286"><ele>42.0</ele><time>2026-04-26T09:16:11.898Z</time></trkpt><trkpt lat="38.18651657208551" lon="15.271430697383792"><ele>42.0</ele><time>2026-04-26T09:16:12.898Z</time></trkpt><trkpt lat="38.18666739041547" lon="15.271566476224061"><ele>42.0</ele><time>2026-04-26T09:16:13.898Z</time></trkpt><trkpt lat="38.18682503334835" lon="15.27173665004532"><ele>42.0</ele><time>2026-04-26T09:16:14.898Z</time></trkpt><trkpt lat="38.186984444723514" lon="15.27193436851101"><ele>42.0</ele><time>2026-04-26T09:16:15.898Z</time></trkpt><trkpt lat="38.18714038404121" lon="15.272130769523248"><ele>42.0</ele><time>2026-04-26T09:16:16.898Z</time></trkpt><trkpt lat="38.187292585787716" lon="15.272316191406304"><ele>41.333333333333336</ele><time>2026-04-26T09:16:17.898Z</time></trkpt><trkpt lat="38.18743542739394" lon="15.272483294405541"><ele>40.66666666666667</ele><time>2026-04-26T09:16:18.898Z</time></trkpt><trkpt lat="38.18757003262425" lon="15.272628666288798"><ele>40.0</ele><time>2026-04-26T09:16:19.898Z</time></trkpt><trkpt lat="38.187704795504224" lon="15.272759775553961"><ele>40.0</ele><time>2026-04-26T09:16:20.898Z</time></trkpt><trkpt lat="38.18783337369049" lon="15.272878221753484"><ele>40.0</ele><time>2026-04-26T09:16:21.898Z</time></trkpt><trkpt lat="38.18795133537688" lon="15.27296472958913"><ele>40.0</ele><time>2026-04-26T09:16:22.898Z</time></trkpt><trkpt lat="38.188046031398684" lon="15.273037990718839"><ele>40.0</ele><time>2026-04-26T09:16:23.898Z</time></trkpt><trkpt lat="38.188130734603476" lon="15.273094776690714"><ele>40.333333333333336</ele><time>2026-04-26T09:16:24.898Z</time></trkpt><trkpt lat="38.18820048808663" lon="15.273153855231197"><ele>40.66666666666667</ele><time>2026-04-26T09:16:25.898Z</time></trkpt><trkpt lat="38.18825675773562" lon="15.27321787016262"><ele>41.0</ele><time>2026-04-26T09:16:26.898Z</time></trkpt><trkpt lat="38.18829541076866" lon="15.273292968731916"><ele>41.333333333333336</ele><time>2026-04-26T09:16:27.898Z</time></trkpt><trkpt lat="38.18832491724405" lon="15.273368368709964"><ele>41.666666666666664</ele><time>2026-04-26T09:16:28.898Z</time></trkpt><trkpt lat="38.18837923487173" lon="15.27349685201244"><ele>42.0</ele><time>2026-04-26T09:16:30.898Z</time></trkpt><trkpt lat="38.18842320648618" lon="15.273560236225443"><ele>42.0</ele><time>2026-04-26T09:16:31.898Z</time></trkpt><trkpt lat="38.18848772142561" lon="15.273628774239468"><ele>42.0</ele><time>2026-04-26T09:16:32.898Z</time></trkpt><trkpt lat="38.188559718576094" lon="15.273696060133476"><ele>42.0</ele><time>2026-04-26T09:16:33.898Z</time></trkpt><trkpt lat="38.18863376059964" lon="15.27375345514053"><ele>42.0</ele><time>2026-04-26T09:16:34.898Z</time></trkpt><trkpt lat="38.188706693581814" lon="15.273794209964445"><ele>42.0</ele><time>2026-04-26T09:16:35.898Z</time></trkpt><trkpt lat="38.18877869530185" lon="15.273832449359153"><ele>42.0</ele><time>2026-04-26T09:16:36.898Z</time></trkpt><trkpt lat="38.18884214593384" lon="15.273872453424971"><ele>42.0</ele><time>2026-04-26T09:16:37.898Z</time></trkpt><trkpt lat="38.1888970886279" lon="15.273911711338814"><ele>42.0</ele><time>2026-04-26T09:16:38.898Z</time></trkpt><trkpt lat="38.18897332632218" lon="15.274021762738364"><ele>42.0</ele><time>2026-04-26T09:16:40.898Z</time></trkpt><trkpt lat="38.18901936173046" lon="15.274097866782673"><ele>42.0</ele><time>2026-04-26T09:16:42.897Z</time></trkpt><trkpt lat="38.189086981356624" lon="15.274066954779212"><ele>42.0</ele><time>2026-04-26T09:17:34.897Z</time></trkpt><trkpt lat="38.18919653830019" lon="15.274135959086351"><ele>42.0</ele><time>2026-04-26T09:17:36.897Z</time></trkpt><trkpt lat="38.18929330378557" lon="15.274152920847492"><ele>41.5</ele><time>2026-04-26T09:17:38.896Z</time></trkpt><trkpt lat="38.18934140286352" lon="15.274244032257222"><ele>41.0</ele><time>2026-04-26T09:17:39.896Z</time></trkpt><trkpt lat="38.1894348986629" lon="15.274320405972055"><ele>40.5</ele><time>2026-04-26T09:17:41.896Z</time></trkpt><trkpt lat="38.18950555131906" lon="15.274368407648092"><ele>40.0</ele><time>2026-04-26T09:17:43.896Z</time></trkpt><trkpt lat="38.18957832133499" lon="15.274418058187115"><ele>39.5</ele><time>2026-04-26T09:17:45.896Z</time></trkpt><trkpt lat="38.189649034200286" lon="15.274475420488853"><ele>39.0</ele><time>2026-04-26T09:17:47.896Z</time></trkpt><trkpt lat="38.189710215435035" lon="15.274509253781527"><ele>39.0</ele><time>2026-04-26T09:17:49.896Z</time></trkpt><trkpt lat="38.18977267244961" lon="15.274527425814941"><ele>39.0</ele><time>2026-04-26T09:17:51.896Z</time></trkpt><trkpt lat="38.189849289669844" lon="15.274539534860361"><ele>39.0</ele><time>2026-04-26T09:17:53.896Z</time></trkpt><trkpt lat="38.18993970461189" lon="15.274554576886937"><ele>39.0</ele><time>2026-04-26T09:17:54.896Z</time></trkpt><trkpt lat="38.19004586664071" lon="15.274569482300757"><ele>39.0</ele><time>2026-04-26T09:17:55.896Z</time></trkpt><trkpt lat="38.1901703560351" lon="15.274590182206804"><ele>38.0</ele><time>2026-04-26T09:17:56.896Z</time></trkpt><trkpt lat="38.19029325415041" lon="15.274605518772006"><ele>37.0</ele><time>2026-04-26T09:17:57.896Z</time></trkpt><trkpt lat="38.190423569183416" lon="15.274623218059938"><ele>36.0</ele><time>2026-04-26T09:17:58.896Z</time></trkpt><trkpt lat="38.19056370197287" lon="15.274677236794387"><ele>35.0</ele><time>2026-04-26T09:17:59.896Z</time></trkpt><trkpt lat="38.190716458771305" lon="15.274708642014533"><ele>34.666666666666664</ele><time>2026-04-26T09:18:00.896Z</time></trkpt><trkpt lat="38.19087324266265" lon="15.274729985969666"><ele>34.333333333333336</ele><time>2026-04-26T09:18:01.896Z</time></trkpt><trkpt lat="38.19101856435676" lon="15.274747515918088"><ele>34.0</ele><time>2026-04-26T09:18:02.896Z</time></trkpt><trkpt lat="38.19116875158628" lon="15.274779237479063"><ele>34.0</ele><time>2026-04-26T09:18:03.896Z</time></trkpt><trkpt lat="38.19132248275754" lon="15.274810949405607"><ele>34.0</ele><time>2026-04-26T09:18:04.896Z</time></trkpt><trkpt lat="38.19146326113287" lon="15.2748514152947"><ele>34.0</ele><time>2026-04-26T09:18:05.896Z</time></trkpt><trkpt lat="38.191590346213026" lon="15.27489987015826"><ele>34.0</ele><time>2026-04-26T09:18:06.896Z</time></trkpt><trkpt lat="38.19170525616342" lon="15.27495235026065"><ele>33.0</ele><time>2026-04-26T09:18:07.896Z</time></trkpt><trkpt lat="38.19181419369076" lon="15.275015983154997"><ele>32.0</ele><time>2026-04-26T09:18:08.896Z</time></trkpt><trkpt lat="38.191934223353655" lon="15.275117627245947"><ele>31.0</ele><time>2026-04-26T09:18:09.896Z</time></trkpt><trkpt lat="38.19205398043053" lon="15.275265948560085"><ele>30.0</ele><time>2026-04-26T09:18:10.896Z</time></trkpt><trkpt lat="38.19216125886315" lon="15.275450673343425"><ele>30.0</ele><time>2026-04-26T09:18:11.896Z</time></trkpt><trkpt lat="38.19225123043944" lon="15.275655442643878"><ele>30.0</ele><time>2026-04-26T09:18:12.896Z</time></trkpt><trkpt lat="38.192316308819045" lon="15.27589205603979"><ele>30.0</ele><time>2026-04-26T09:18:13.896Z</time></trkpt><trkpt lat="38.19236126957804" lon="15.276167680297254"><ele>31.0</ele><time>2026-04-26T09:18:14.896Z</time></trkpt><trkpt lat="38.19239132654234" lon="15.27646843541427"><ele>32.0</ele><time>2026-04-26T09:18:15.896Z</time></trkpt><trkpt lat="38.19241522237331" lon="15.276791026259625"><ele>32.0</ele><time>2026-04-26T09:18:16.895Z</time></trkpt><trkpt lat="38.19244348609811" lon="15.277139867439194"><ele>32.0</ele><time>2026-04-26T09:18:17.895Z</time></trkpt><trkpt lat="38.19247972438433" lon="15.277521731894494"><ele>32.5</ele><time>2026-04-26T09:18:18.895Z</time></trkpt><trkpt lat="38.192504550539454" lon="15.277930718450452"><ele>33.0</ele><time>2026-04-26T09:18:19.895Z</time></trkpt><trkpt lat="38.19251197853135" lon="15.27835503133181"><ele>34.5</ele><time>2026-04-26T09:18:20.895Z</time></trkpt><trkpt lat="38.192507961538546" lon="15.278795910132045"><ele>36.0</ele><time>2026-04-26T09:18:21.895Z</time></trkpt><trkpt lat="38.192521008927734" lon="15.279248203240138"><ele>36.0</ele><time>2026-04-26T09:18:22.895Z</time></trkpt><trkpt lat="38.192547326902215" lon="15.279714926579933"><ele>36.0</ele><time>2026-04-26T09:18:23.895Z</time></trkpt><trkpt lat="38.19258740236543" lon="15.280192357028739"><ele>37.5</ele><time>2026-04-26T09:18:24.895Z</time></trkpt><trkpt lat="38.19264426819041" lon="15.28067063582458"><ele>39.0</ele><time>2026-04-26T09:18:25.895Z</time></trkpt><trkpt lat="38.192707214898604" lon="15.281152535346989"><ele>43.5</ele><time>2026-04-26T09:18:26.895Z</time></trkpt><trkpt lat="38.19279629522476" lon="15.281626701212927"><ele>48.0</ele><time>2026-04-26T09:18:27.895Z</time></trkpt><trkpt lat="38.19290342476506" lon="15.28210243628035"><ele>51.5</ele><time>2026-04-26T09:18:28.895Z</time></trkpt><trkpt lat="38.193019360745396" lon="15.282575070191026"><ele>55.0</ele><time>2026-04-26T09:18:29.895Z</time></trkpt><trkpt lat="38.19314868237218" lon="15.283048743303175"><ele>56.0</ele><time>2026-04-26T09:18:30.895Z</time></trkpt><trkpt lat="38.193282626911426" lon="15.28351427392611"><ele>57.0</ele><time>2026-04-26T09:18:31.896Z</time></trkpt><trkpt lat="38.19341265201549" lon="15.283975968400515"><ele>57.0</ele><time>2026-04-26T09:18:32.897Z</time></trkpt><trkpt lat="38.193535811814165" lon="15.28442759818141"><ele>57.0</ele><time>2026-04-26T09:18:33.898Z</time></trkpt><trkpt lat="38.193641018250275" lon="15.284869656458968"><ele>53.5</ele><time>2026-04-26T09:18:34.899Z</time></trkpt><trkpt lat="38.193740691132064" lon="15.285320097186466"><ele>50.0</ele><time>2026-04-26T09:18:35.899Z</time></trkpt><trkpt lat="38.1938303857984" lon="15.285781301564557"><ele>49.0</ele><time>2026-04-26T09:18:36.9Z</time></trkpt><trkpt lat="38.19391455000658" lon="15.286257612357348"><ele>48.0</ele><time>2026-04-26T09:18:37.901Z</time></trkpt><trkpt lat="38.19400098184566" lon="15.28672919053536"><ele>53.0</ele><time>2026-04-26T09:18:38.901Z</time></trkpt><trkpt lat="38.19408974901589" lon="15.287200591251624"><ele>58.0</ele><time>2026-04-26T09:18:39.902Z</time></trkpt><trkpt lat="38.194177154976444" lon="15.28767071383365"><ele>57.5</ele><time>2026-04-26T09:18:40.902Z</time></trkpt><trkpt lat="38.194260515200995" lon="15.288146940880853"><ele>57.0</ele><time>2026-04-26T09:18:41.903Z</time></trkpt><trkpt lat="38.19434644681874" lon="15.28863841750749"><ele>51.0</ele><time>2026-04-26T09:18:42.903Z</time></trkpt><trkpt lat="38.194440549582225" lon="15.2891397493766"><ele>45.0</ele><time>2026-04-26T09:18:43.904Z</time></trkpt><trkpt lat="38.19451352887951" lon="15.289649799051581"><ele>37.5</ele><time>2026-04-26T09:18:44.904Z</time></trkpt><trkpt lat="38.194571413190616" lon="15.290112289363465"><ele>30.0</ele><time>2026-04-26T09:18:45.904Z</time></trkpt><trkpt lat="38.194629069247135" lon="15.290585887001384"><ele>29.0</ele><time>2026-04-26T09:18:46.905Z</time></trkpt><trkpt lat="38.19470812178308" lon="15.291091124501987"><ele>28.0</ele><time>2026-04-26T09:18:47.905Z</time></trkpt><trkpt lat="38.19478591432993" lon="15.29158247830144"><ele>27.5</ele><time>2026-04-26T09:18:48.905Z</time></trkpt><trkpt lat="38.19486094914881" lon="15.292085090700517"><ele>27.0</ele><time>2026-04-26T09:18:49.906Z</time></trkpt><trkpt lat="38.19493190996843" lon="15.292595509033502"><ele>27.0</ele><time>2026-04-26T09:18:50.906Z</time></trkpt><trkpt lat="38.194989627473475" lon="15.293109422727008"><ele>27.0</ele><time>2026-04-26T09:18:51.906Z</time></trkpt><trkpt lat="38.195031219443486" lon="15.293635057287275"><ele>28.5</ele><time>2026-04-26T09:18:52.906Z</time></trkpt><trkpt lat="38.19505514964684" lon="15.294166879519588"><ele>30.0</ele><time>2026-04-26T09:18:53.907Z</time></trkpt><trkpt lat="38.1950578538542" lon="15.294697945526774"><ele>31.0</ele><time>2026-04-26T09:18:54.907Z</time></trkpt><trkpt lat="38.19504346983257" lon="15.2952262167995"><ele>32.0</ele><time>2026-04-26T09:18:55.907Z</time></trkpt><trkpt lat="38.19501864230616" lon="15.29574981706847"><ele>32.5</ele><time>2026-04-26T09:18:56.907Z</time></trkpt><trkpt lat="38.19498257832907" lon="15.296262290842607"><ele>33.0</ele><time>2026-04-26T09:18:57.907Z</time></trkpt><trkpt lat="38.19494633020125" lon="15.296764629988663"><ele>32.0</ele><time>2026-04-26T09:18:58.907Z</time></trkpt><trkpt lat="38.194907893821494" lon="15.297242488234199"><ele>31.0</ele><time>2026-04-26T09:18:59.908Z</time></trkpt><trkpt lat="38.19487457175882" lon="15.297692670733433"><ele>34.5</ele><time>2026-04-26T09:19:00.908Z</time></trkpt><trkpt lat="38.1948486607837" lon="15.298138586495492"><ele>38.0</ele><time>2026-04-26T09:19:01.908Z</time></trkpt><trkpt lat="38.19482642717225" lon="15.298576807900266"><ele>44.5</ele><time>2026-04-26T09:19:02.908Z</time></trkpt><trkpt lat="38.19479822797844" lon="15.298999039457765"><ele>51.0</ele><time>2026-04-26T09:19:03.908Z</time></trkpt><trkpt lat="38.19477328061418" lon="15.299436396301413"><ele>51.0</ele><time>2026-04-26T09:19:04.908Z</time></trkpt><trkpt lat="38.19475802833882" lon="15.299885210675832"><ele>51.0</ele><time>2026-04-26T09:19:05.908Z</time></trkpt><trkpt lat="38.19475657852637" lon="15.300345335937465"><ele>50.0</ele><time>2026-04-26T09:19:06.908Z</time></trkpt><trkpt lat="38.19477698578669" lon="15.300822396322728"><ele>49.0</ele><time>2026-04-26T09:19:07.91Z</time></trkpt><trkpt lat="38.194817707964475" lon="15.301303009027933"><ele>47.5</ele><time>2026-04-26T09:19:08.909Z</time></trkpt><trkpt lat="38.19487328716378" lon="15.301784262155206"><ele>46.0</ele><time>2026-04-26T09:19:09.909Z</time></trkpt><trkpt lat="38.19493592236591" lon="15.302267714790538"><ele>46.0</ele><time>2026-04-26T09:19:10.909Z</time></trkpt><trkpt lat="38.195009916322974" lon="15.302752294336607"><ele>46.0</ele><time>2026-04-26T09:19:11.909Z</time></trkpt><trkpt lat="38.195079498704" lon="15.30324586077864"><ele>46.5</ele><time>2026-04-26T09:19:12.909Z</time></trkpt><trkpt lat="38.19514957401313" lon="15.303746134837764"><ele>47.0</ele><time>2026-04-26T09:19:13.909Z</time></trkpt><trkpt lat="38.19522048387932" lon="15.304248178056362"><ele>47.0</ele><time>2026-04-26T09:19:14.909Z</time></trkpt><trkpt lat="38.19528985074149" lon="15.304740547042936"><ele>47.0</ele><time>2026-04-26T09:19:15.909Z</time></trkpt><trkpt lat="38.19536038907748" lon="15.305221265073122"><ele>48.5</ele><time>2026-04-26T09:19:16.91Z</time></trkpt><trkpt lat="38.19542736908637" lon="15.305691721479304"><ele>50.0</ele><time>2026-04-26T09:19:17.91Z</time></trkpt><trkpt lat="38.195491926541656" lon="15.306166553335217"><ele>50.0</ele><time>2026-04-26T09:19:18.91Z</time></trkpt><trkpt lat="38.195560002126186" lon="15.30662475356492"><ele>50.0</ele><time>2026-04-26T09:19:19.909Z</time></trkpt><trkpt lat="38.19562262677551" lon="15.307063795182165"><ele>54.0</ele><time>2026-04-26T09:19:20.91Z</time></trkpt><trkpt lat="38.195687910566235" lon="15.30749137223736"><ele>58.0</ele><time>2026-04-26T09:19:21.91Z</time></trkpt><trkpt lat="38.19574480966136" lon="15.307909409427888"><ele>59.0</ele><time>2026-04-26T09:19:22.91Z</time></trkpt><trkpt lat="38.19578948874769" lon="15.308331377134019"><ele>60.0</ele><time>2026-04-26T09:19:23.91Z</time></trkpt><trkpt lat="38.1958265425917" lon="15.308746549424459"><ele>59.0</ele><time>2026-04-26T09:19:24.91Z</time></trkpt><trkpt lat="38.19585093172323" lon="15.309177359997024"><ele>58.0</ele><time>2026-04-26T09:19:25.91Z</time></trkpt><trkpt lat="38.19584375244847" lon="15.309621941538099"><ele>57.0</ele><time>2026-04-26T09:19:26.91Z</time></trkpt><trkpt lat="38.19581993355801" lon="15.310065711829942"><ele>56.0</ele><time>2026-04-26T09:19:27.91Z</time></trkpt><trkpt lat="38.19579168414513" lon="15.310493431819868"><ele>55.5</ele><time>2026-04-26T09:19:28.91Z</time></trkpt><trkpt lat="38.195739743861985" lon="15.310891903301696"><ele>55.0</ele><time>2026-04-26T09:19:29.91Z</time></trkpt><trkpt lat="38.19569471014095" lon="15.311257130632347"><ele>61.0</ele><time>2026-04-26T09:19:30.91Z</time></trkpt><trkpt lat="38.195658514977694" lon="15.311589675021807"><ele>67.0</ele><time>2026-04-26T09:19:31.91Z</time></trkpt><trkpt lat="38.19562595344025" lon="15.3119084547551"><ele>67.0</ele><time>2026-04-26T09:19:32.91Z</time></trkpt><trkpt lat="38.19560208304877" lon="15.312221806870346"><ele>67.0</ele><time>2026-04-26T09:19:33.91Z</time></trkpt><trkpt lat="38.19558544271134" lon="15.312537841653763"><ele>68.5</ele><time>2026-04-26T09:19:34.91Z</time></trkpt><trkpt lat="38.19556897467416" lon="15.312852326776708"><ele>70.0</ele><time>2026-04-26T09:19:35.91Z</time></trkpt><trkpt lat="38.19554546824604" lon="15.313169909286165"><ele>65.5</ele><time>2026-04-26T09:19:36.91Z</time></trkpt><trkpt lat="38.195524350417614" lon="15.313491099920912"><ele>61.0</ele><time>2026-04-26T09:19:37.91Z</time></trkpt><trkpt lat="38.19550193514145" lon="15.313814582366023"><ele>55.5</ele><time>2026-04-26T09:19:38.91Z</time></trkpt><trkpt lat="38.19548204016146" lon="15.314135418502989"><ele>50.0</ele><time>2026-04-26T09:19:39.91Z</time></trkpt><trkpt lat="38.19546422740382" lon="15.314444857676948"><ele>43.5</ele><time>2026-04-26T09:19:40.91Z</time></trkpt><trkpt lat="38.195443379742954" lon="15.314800369759768"><ele>37.0</ele><time>2026-04-26T09:19:42.051Z</time></trkpt><trkpt lat="38.19563038090063" lon="15.315101792517808"><ele>37.5</ele><time>2026-04-26T09:19:43.91Z</time></trkpt><trkpt lat="38.19574512614528" lon="15.315168029763612"><ele>38.0</ele><time>2026-04-26T09:19:44.91Z</time></trkpt><trkpt lat="38.19579679347767" lon="15.315339335542994"><ele>38.5</ele><time>2026-04-26T09:19:45.91Z</time></trkpt><trkpt lat="38.19584939300493" lon="15.315521726954696"><ele>39.0</ele><time>2026-04-26T09:19:46.909Z</time></trkpt><trkpt lat="38.195892366777414" lon="15.315686126718472"><ele>37.0</ele><time>2026-04-26T09:19:47.909Z</time></trkpt><trkpt lat="38.1959588087288" lon="15.315831783579942"><ele>35.0</ele><time>2026-04-26T09:19:48.909Z</time></trkpt><trkpt lat="38.19602611295528" lon="15.315964050030567"><ele>33.0</ele><time>2026-04-26T09:19:49.909Z</time></trkpt><trkpt lat="38.196092944941114" lon="15.316094063105625"><ele>31.0</ele><time>2026-04-26T09:19:50.909Z</time></trkpt><trkpt lat="38.196161285363715" lon="15.316239496150612"><ele>31.0</ele><time>2026-04-26T09:19:51.909Z</time></trkpt><trkpt lat="38.196230082065824" lon="15.316395338133953"><ele>31.0</ele><time>2026-04-26T09:19:52.909Z</time></trkpt><trkpt lat="38.19630117384055" lon="15.316564386707846"><ele>31.0</ele><time>2026-04-26T09:19:53.909Z</time></trkpt><trkpt lat="38.196374402077446" lon="15.316768512310922"><ele>29.666666666666668</ele><time>2026-04-26T09:19:54.909Z</time></trkpt><trkpt lat="38.19644585214265" lon="15.316971342572156"><ele>28.333333333333336</ele><time>2026-04-26T09:19:55.909Z</time></trkpt><trkpt lat="38.19651257497128" lon="15.317154066392254"><ele>27.0</ele><time>2026-04-26T09:19:56.909Z</time></trkpt><trkpt lat="38.196579404658785" lon="15.317328853192288"><ele>26.0</ele><time>2026-04-26T09:19:57.909Z</time></trkpt><trkpt lat="38.196647951884714" lon="15.3175019426401"><ele>25.0</ele><time>2026-04-26T09:19:58.909Z</time></trkpt><trkpt lat="38.196718647998296" lon="15.317682207286998"><ele>24.0</ele><time>2026-04-26T09:19:59.909Z</time></trkpt><trkpt lat="38.196796347065494" lon="15.317878253713367"><ele>23.333333333333332</ele><time>2026-04-26T09:20:00.909Z</time></trkpt><trkpt lat="38.19688131669647" lon="15.31808357929085"><ele>22.666666666666664</ele><time>2026-04-26T09:20:01.909Z</time></trkpt><trkpt lat="38.196958986336796" lon="15.31829226485083"><ele>22.0</ele><time>2026-04-26T09:20:02.909Z</time></trkpt><trkpt lat="38.19703810676285" lon="15.318504532760802"><ele>22.0</ele><time>2026-04-26T09:20:03.909Z</time></trkpt><trkpt lat="38.197041541933224" lon="15.318768427574586"><ele>22.0</ele><time>2026-04-26T09:20:04.909Z</time></trkpt><trkpt lat="38.19712458821976" lon="15.318986298054933"><ele>22.0</ele><time>2026-04-26T09:20:05.909Z</time></trkpt><trkpt lat="38.19720673606209" lon="15.319201811240664"><ele>22.0</ele><time>2026-04-26T09:20:06.909Z</time></trkpt><trkpt lat="38.19729004064164" lon="15.319420359152673"><ele>22.0</ele><time>2026-04-26T09:20:07.909Z</time></trkpt><trkpt lat="38.19737377576395" lon="15.31964003695058"><ele>22.0</ele><time>2026-04-26T09:20:08.909Z</time></trkpt><trkpt lat="38.19746124201922" lon="15.319869503073777"><ele>22.0</ele><time>2026-04-26T09:20:09.909Z</time></trkpt><trkpt lat="38.19755434182095" lon="15.320113748738082"><ele>22.0</ele><time>2026-04-26T09:20:10.909Z</time></trkpt><trkpt lat="38.19764917211909" lon="15.32036253442721"><ele>22.0</ele><time>2026-04-26T09:20:11.909Z</time></trkpt><trkpt lat="38.1977433298729" lon="15.320609555510728"><ele>21.666666666666664</ele><time>2026-04-26T09:20:12.909Z</time></trkpt><trkpt lat="38.19783249534295" lon="15.320843479603417"><ele>21.333333333333332</ele><time>2026-04-26T09:20:13.909Z</time></trkpt><trkpt lat="38.19792453382832" lon="15.321084940893641"><ele>21.0</ele><time>2026-04-26T09:20:14.909Z</time></trkpt><trkpt lat="38.19801002651062" lon="15.3213102294358"><ele>20.666666666666668</ele><time>2026-04-26T09:20:15.909Z</time></trkpt><trkpt lat="38.198094354948594" lon="15.32153814205364"><ele>20.333333333333336</ele><time>2026-04-26T09:20:16.909Z</time></trkpt><trkpt lat="38.198179589574515" lon="15.321768503652397"><ele>20.0</ele><time>2026-04-26T09:20:17.909Z</time></trkpt><trkpt lat="38.198260741387145" lon="15.32199629344013"><ele>20.0</ele><time>2026-04-26T09:20:18.909Z</time></trkpt><trkpt lat="38.19833717842128" lon="15.32223272867981"><ele>20.0</ele><time>2026-04-26T09:20:19.909Z</time></trkpt><trkpt lat="38.198413989948776" lon="15.322478132991797"><ele>20.0</ele><time>2026-04-26T09:20:20.909Z</time></trkpt><trkpt lat="38.198487655128936" lon="15.322730481534384"><ele>20.0</ele><time>2026-04-26T09:20:21.909Z</time></trkpt><trkpt lat="38.19855736403027" lon="15.322988816842848"><ele>20.0</ele><time>2026-04-26T09:20:22.909Z</time></trkpt><trkpt lat="38.198623147200195" lon="15.323258131669244"><ele>20.0</ele><time>2026-04-26T09:20:23.909Z</time></trkpt><trkpt lat="38.1986840954354" lon="15.323523724918104"><ele>20.0</ele><time>2026-04-26T09:20:24.909Z</time></trkpt><trkpt lat="38.19873823604218" lon="15.32377735911769"><ele>20.0</ele><time>2026-04-26T09:20:25.909Z</time></trkpt><trkpt lat="38.19878584342054" lon="15.324023381675191"><ele>20.0</ele><time>2026-04-26T09:20:26.909Z</time></trkpt><trkpt lat="38.19882918076521" lon="15.324270464360131"><ele>20.666666666666668</ele><time>2026-04-26T09:20:27.909Z</time></trkpt><trkpt lat="38.198869266524966" lon="15.324539683182191"><ele>21.333333333333332</ele><time>2026-04-26T09:20:28.909Z</time></trkpt><trkpt lat="38.1989041025179" lon="15.324803644955699"><ele>22.0</ele><time>2026-04-26T09:20:29.909Z</time></trkpt><trkpt lat="38.198934455183576" lon="15.325055882675155"><ele>23.0</ele><time>2026-04-26T09:20:30.909Z</time></trkpt><trkpt lat="38.19895671135706" lon="15.325324636110139"><ele>24.0</ele><time>2026-04-26T09:20:31.909Z</time></trkpt><trkpt lat="38.19897886333673" lon="15.325593527137466"><ele>25.0</ele><time>2026-04-26T09:20:32.908Z</time></trkpt><trkpt lat="38.19899651794105" lon="15.325856995461022"><ele>28.666666666666668</ele><time>2026-04-26T09:20:33.908Z</time></trkpt><trkpt lat="38.19900923743175" lon="15.326130353664215"><ele>32.333333333333336</ele><time>2026-04-26T09:20:34.908Z</time></trkpt><trkpt lat="38.199021335353244" lon="15.326397950279656"><ele>36.0</ele><time>2026-04-26T09:20:35.908Z</time></trkpt><trkpt lat="38.19903360762139" lon="15.326669403163958"><ele>41.0</ele><time>2026-04-26T09:20:36.908Z</time></trkpt><trkpt lat="38.19904577998802" lon="15.326938664447821"><ele>46.0</ele><time>2026-04-26T09:20:37.908Z</time></trkpt><trkpt lat="38.1990576967406" lon="15.327202616765714"><ele>51.0</ele><time>2026-04-26T09:20:38.908Z</time></trkpt><trkpt lat="38.199069509799756" lon="15.327464271328708"><ele>56.66666666666667</ele><time>2026-04-26T09:20:39.908Z</time></trkpt><trkpt lat="38.19908114334804" lon="15.327721950512897"><ele>62.333333333333336</ele><time>2026-04-26T09:20:40.908Z</time></trkpt><trkpt lat="38.1990943392503" lon="15.32801423496659"><ele>68.0</ele><time>2026-04-26T09:20:42.05Z</time></trkpt><trkpt lat="38.19910625084857" lon="15.328273570202793"><ele>65.0</ele><time>2026-04-26T09:20:43.053Z</time></trkpt><trkpt lat="38.199181" lon="15.3300213"><ele>31.0</ele><time>2026-04-26T09:20:46.375Z</time></trkpt><trkpt lat="38.199769731700464" lon="15.331970427322748"><ele>31.0</ele><time>2026-04-26T09:20:58.908Z</time></trkpt><trkpt lat="38.199825879303205" lon="15.332136239510591"><ele>31.0</ele><time>2026-04-26T09:20:59.908Z</time></trkpt><trkpt lat="38.19987295406944" lon="15.332301114590111"><ele>31.0</ele><time>2026-04-26T09:21:00.908Z</time></trkpt><trkpt lat="38.19992425979846" lon="15.332474410921908"><ele>31.0</ele><time>2026-04-26T09:21:01.908Z</time></trkpt><trkpt lat="38.199982229310706" lon="15.332635087727128"><ele>29.4</ele><time>2026-04-26T09:21:02.908Z</time></trkpt><trkpt lat="38.20003295264229" lon="15.332758176824095"><ele>27.8</ele><time>2026-04-26T09:21:03.908Z</time></trkpt><trkpt lat="38.20007970151723" lon="15.332889948334827"><ele>26.2</ele><time>2026-04-26T09:21:04.908Z</time></trkpt><trkpt lat="38.20011287797426" lon="15.33298492230445"><ele>24.599999999999998</ele><time>2026-04-26T09:21:05.908Z</time></trkpt><trkpt lat="38.20014979503714" lon="15.333109724161798"><ele>23.0</ele><time>2026-04-26T09:21:06.908Z</time></trkpt><trkpt lat="38.20017056785249" lon="15.333249201235136"><ele>23.0</ele><time>2026-04-26T09:21:07.908Z</time></trkpt><trkpt lat="38.199904962277685" lon="15.333494947765379"><ele>23.0</ele><time>2026-04-26T09:21:08.908Z</time></trkpt><trkpt lat="38.199935688434245" lon="15.33366998773524"><ele>23.0</ele><time>2026-04-26T09:21:09.908Z</time></trkpt><trkpt lat="38.19999802927639" lon="15.333862055073297"><ele>23.0</ele><time>2026-04-26T09:21:10.908Z</time></trkpt><trkpt lat="38.200099064571866" lon="15.334054480746342"><ele>23.0</ele><time>2026-04-26T09:21:11.908Z</time></trkpt><trkpt lat="38.20020906556689" lon="15.334263269432903"><ele>23.0</ele><time>2026-04-26T09:21:12.908Z</time></trkpt><trkpt lat="38.200324973388945" lon="15.334511413569164"><ele>23.0</ele><time>2026-04-26T09:21:13.908Z</time></trkpt><trkpt lat="38.20045120301776" lon="15.33479632998831"><ele>22.0</ele><time>2026-04-26T09:21:14.909Z</time></trkpt><trkpt lat="38.20057300745005" lon="15.335100881697391"><ele>21.0</ele><time>2026-04-26T09:21:15.909Z</time></trkpt><trkpt lat="38.200704041835465" lon="15.335416717242746"><ele>21.5</ele><time>2026-04-26T09:21:16.909Z</time></trkpt><trkpt lat="38.200837982271956" lon="15.335757950359818"><ele>22.0</ele><time>2026-04-26T09:21:17.909Z</time></trkpt><trkpt lat="38.20097222934316" lon="15.336120960032051"><ele>21.5</ele><time>2026-04-26T09:21:18.909Z</time></trkpt><trkpt lat="38.20111773704724" lon="15.336501137992345"><ele>21.0</ele><time>2026-04-26T09:21:19.909Z</time></trkpt><trkpt lat="38.201269904098545" lon="15.336896332213042"><ele>20.5</ele><time>2026-04-26T09:21:20.909Z</time></trkpt><trkpt lat="38.20142239730718" lon="15.337305503329068"><ele>20.0</ele><time>2026-04-26T09:21:21.909Z</time></trkpt><trkpt lat="38.201572561465824" lon="15.337727782955646"><ele>19.5</ele><time>2026-04-26T09:21:22.909Z</time></trkpt><trkpt lat="38.20171573145612" lon="15.338163426845012"><ele>19.0</ele><time>2026-04-26T09:21:23.908Z</time></trkpt><trkpt lat="38.20186190005655" lon="15.338615084437052"><ele>19.0</ele><time>2026-04-26T09:21:24.908Z</time></trkpt><trkpt lat="38.20201198010959" lon="15.339069370281724"><ele>19.0</ele><time>2026-04-26T09:21:25.909Z</time></trkpt><trkpt lat="38.20215884373473" lon="15.339517802270917"><ele>19.5</ele><time>2026-04-26T09:21:26.908Z</time></trkpt><trkpt lat="38.20230429169371" lon="15.339974938267373"><ele>20.0</ele><time>2026-04-26T09:21:27.908Z</time></trkpt><trkpt lat="38.202454017571334" lon="15.340443778671775"><ele>20.5</ele><time>2026-04-26T09:21:28.908Z</time></trkpt><trkpt lat="38.20260932109421" lon="15.340910455824131"><ele>21.0</ele><time>2026-04-26T09:21:29.908Z</time></trkpt><trkpt lat="38.20277500453499" lon="15.341379589204676"><ele>21.0</ele><time>2026-04-26T09:21:30.908Z</time></trkpt><trkpt lat="38.20296496170966" lon="15.34183856035021"><ele>21.0</ele><time>2026-04-26T09:21:31.908Z</time></trkpt><trkpt lat="38.20317088822908" lon="15.342292920003633"><ele>20.0</ele><time>2026-04-26T09:21:32.908Z</time></trkpt><trkpt lat="38.20340746378033" lon="15.342732547470026"><ele>19.0</ele><time>2026-04-26T09:21:33.908Z</time></trkpt><trkpt lat="38.203653503008915" lon="15.343147776144024"><ele>19.0</ele><time>2026-04-26T09:21:34.908Z</time></trkpt><trkpt lat="38.203910019523235" lon="15.343565137315492"><ele>19.0</ele><time>2026-04-26T09:21:35.908Z</time></trkpt><trkpt lat="38.20418037570298" lon="15.343971506142568"><ele>19.0</ele><time>2026-04-26T09:21:36.908Z</time></trkpt><trkpt lat="38.20445126816827" lon="15.344381169635534"><ele>19.0</ele><time>2026-04-26T09:21:37.908Z</time></trkpt><trkpt lat="38.204720411835275" lon="15.34479459459674"><ele>18.5</ele><time>2026-04-26T09:21:38.908Z</time></trkpt><trkpt lat="38.20497868902616" lon="15.34521328973302"><ele>18.0</ele><time>2026-04-26T09:21:39.908Z</time></trkpt><trkpt lat="38.2052198230944" lon="15.34564157929874"><ele>18.0</ele><time>2026-04-26T09:21:40.908Z</time></trkpt><trkpt lat="38.20543338213338" lon="15.346072673992861"><ele>18.0</ele><time>2026-04-26T09:21:41.908Z</time></trkpt><trkpt lat="38.205609085090735" lon="15.346511950633973"><ele>18.0</ele><time>2026-04-26T09:21:42.908Z</time></trkpt><trkpt lat="38.20575827042933" lon="15.346959768487146"><ele>18.0</ele><time>2026-04-26T09:21:43.908Z</time></trkpt><trkpt lat="38.20588938476849" lon="15.347437029004308"><ele>17.5</ele><time>2026-04-26T09:21:44.908Z</time></trkpt><trkpt lat="38.20599858619298" lon="15.347924238702438"><ele>17.0</ele><time>2026-04-26T09:21:45.908Z</time></trkpt><trkpt lat="38.206082336623076" lon="15.348423816679029"><ele>18.5</ele><time>2026-04-26T09:21:46.908Z</time></trkpt><trkpt lat="38.206145362178155" lon="15.348934146395205"><ele>20.0</ele><time>2026-04-26T09:21:47.908Z</time></trkpt><trkpt lat="38.20618717052998" lon="15.349455955711154"><ele>20.0</ele><time>2026-04-26T09:21:48.908Z</time></trkpt><trkpt lat="38.20621560685119" lon="15.349980438337532"><ele>20.0</ele><time>2026-04-26T09:21:49.908Z</time></trkpt><trkpt lat="38.206233849828294" lon="15.350506412078287"><ele>20.0</ele><time>2026-04-26T09:21:50.908Z</time></trkpt><trkpt lat="38.20625732683833" lon="15.351033274865053"><ele>20.0</ele><time>2026-04-26T09:21:51.908Z</time></trkpt><trkpt lat="38.20627560056671" lon="15.351566525483676"><ele>20.0</ele><time>2026-04-26T09:21:52.908Z</time></trkpt><trkpt lat="38.20630048564959" lon="15.352084565219355"><ele>20.0</ele><time>2026-04-26T09:21:53.908Z</time></trkpt><trkpt lat="38.206337304884435" lon="15.35257179026457"><ele>23.5</ele><time>2026-04-26T09:21:54.908Z</time></trkpt><trkpt lat="38.206386286702205" lon="15.353047880890882"><ele>27.0</ele><time>2026-04-26T09:21:55.908Z</time></trkpt><trkpt lat="38.20646076822562" lon="15.353518713413518"><ele>30.0</ele><time>2026-04-26T09:21:56.908Z</time></trkpt><trkpt lat="38.20656711305682" lon="15.353993488252858"><ele>33.0</ele><time>2026-04-26T09:21:57.908Z</time></trkpt><trkpt lat="38.20668999284869" lon="15.354458767259803"><ele>32.5</ele><time>2026-04-26T09:21:58.908Z</time></trkpt><trkpt lat="38.20681209399506" lon="15.354926692617319"><ele>32.0</ele><time>2026-04-26T09:21:59.908Z</time></trkpt><trkpt lat="38.206927075659" lon="15.355398354773694"><ele>31.5</ele><time>2026-04-26T09:22:00.908Z</time></trkpt><trkpt lat="38.20702902922825" lon="15.355875998129816"><ele>31.0</ele><time>2026-04-26T09:22:01.908Z</time></trkpt><trkpt lat="38.207119463584306" lon="15.356358385749202"><ele>31.5</ele><time>2026-04-26T09:22:02.907Z</time></trkpt><trkpt lat="38.207211325282536" lon="15.35684679740632"><ele>32.0</ele><time>2026-04-26T09:22:03.907Z</time></trkpt><trkpt lat="38.20731591178428" lon="15.357341144899415"><ele>41.0</ele><time>2026-04-26T09:22:04.907Z</time></trkpt><trkpt lat="38.20743327131416" lon="15.357829644383651"><ele>50.0</ele><time>2026-04-26T09:22:05.907Z</time></trkpt><trkpt lat="38.207551422034605" lon="15.358309206939566"><ele>54.5</ele><time>2026-04-26T09:22:06.907Z</time></trkpt><trkpt lat="38.207668754537764" lon="15.358792249613353"><ele>59.0</ele><time>2026-04-26T09:22:07.907Z</time></trkpt><trkpt lat="38.20778372297614" lon="15.359276656638166"><ele>60.0</ele><time>2026-04-26T09:22:08.907Z</time></trkpt><trkpt lat="38.207903091833344" lon="15.359758431800529"><ele>61.0</ele><time>2026-04-26T09:22:09.907Z</time></trkpt><trkpt lat="38.20799059396439" lon="15.36024735000659"><ele>64.5</ele><time>2026-04-26T09:22:10.907Z</time></trkpt><trkpt lat="38.20804412959033" lon="15.360747563741286"><ele>68.0</ele><time>2026-04-26T09:22:11.907Z</time></trkpt><trkpt lat="38.20810072936788" lon="15.361297580346427"><ele>76.0</ele><time>2026-04-26T09:22:12.907Z</time></trkpt><trkpt lat="38.20815561525558" lon="15.361810311199216"><ele>84.0</ele><time>2026-04-26T09:22:13.907Z</time></trkpt><trkpt lat="38.20820341061071" lon="15.362318372165095"><ele>89.0</ele><time>2026-04-26T09:22:14.907Z</time></trkpt><trkpt lat="38.208262111387036" lon="15.36283531617655"><ele>94.0</ele><time>2026-04-26T09:22:15.907Z</time></trkpt><trkpt lat="38.208346716581964" lon="15.363341695734436"><ele>95.0</ele><time>2026-04-26T09:22:16.907Z</time></trkpt><trkpt lat="38.20842896535871" lon="15.363834311592221"><ele>96.0</ele><time>2026-04-26T09:22:17.907Z</time></trkpt><trkpt lat="38.20842373674945" lon="15.36436558920293"><ele>40.0</ele><time>2026-04-26T09:22:18.907Z</time></trkpt><trkpt lat="38.20914842761025" lon="15.365694643665108"><ele>40.0</ele><time>2026-04-26T09:22:21.907Z</time></trkpt><trkpt lat="38.20933512112042" lon="15.366165612794363"><ele>40.0</ele><time>2026-04-26T09:22:22.907Z</time></trkpt><trkpt lat="38.20948507943015" lon="15.36658927107888"><ele>43.0</ele><time>2026-04-26T09:22:23.907Z</time></trkpt><trkpt lat="38.20966300620838" lon="15.36700321746177"><ele>46.0</ele><time>2026-04-26T09:22:24.907Z</time></trkpt><trkpt lat="38.209829950574054" lon="15.367392112216423"><ele>52.0</ele><time>2026-04-26T09:22:25.907Z</time></trkpt><trkpt lat="38.210007924589455" lon="15.367797607043093"><ele>58.0</ele><time>2026-04-26T09:22:26.907Z</time></trkpt><trkpt lat="38.210176403147166" lon="15.36817571121673"><ele>62.5</ele><time>2026-04-26T09:22:27.907Z</time></trkpt><trkpt lat="38.21034542226822" lon="15.368574648752329"><ele>67.0</ele><time>2026-04-26T09:22:28.907Z</time></trkpt><trkpt lat="38.21049308410926" lon="15.368979892840091"><ele>70.5</ele><time>2026-04-26T09:22:29.907Z</time></trkpt><trkpt lat="38.21062894211106" lon="15.369405284865685"><ele>74.0</ele><time>2026-04-26T09:22:30.907Z</time></trkpt><trkpt lat="38.21073341954833" lon="15.36984107168345"><ele>67.0</ele><time>2026-04-26T09:22:31.907Z</time></trkpt><trkpt lat="38.21088449038356" lon="15.370247500924572"><ele>60.0</ele><time>2026-04-26T09:22:32.907Z</time></trkpt><trkpt lat="38.21098083638429" lon="15.370697145134413"><ele>60.0</ele><time>2026-04-26T09:22:33.907Z</time></trkpt><trkpt lat="38.21108894766274" lon="15.371156584820422"><ele>60.0</ele><time>2026-04-26T09:22:34.907Z</time></trkpt><trkpt lat="38.21118372977064" lon="15.371628098833805"><ele>68.5</ele><time>2026-04-26T09:22:35.907Z</time></trkpt><trkpt lat="38.21129344167865" lon="15.372095744099852"><ele>77.0</ele><time>2026-04-26T09:22:36.907Z</time></trkpt><trkpt lat="38.211404504912004" lon="15.372560428230356"><ele>73.5</ele><time>2026-04-26T09:22:37.907Z</time></trkpt><trkpt lat="38.21151971259466" lon="15.373023741747833"><ele>70.0</ele><time>2026-04-26T09:22:38.907Z</time></trkpt><trkpt lat="38.21163646821044" lon="15.373492422341062"><ele>61.0</ele><time>2026-04-26T09:22:39.907Z</time></trkpt><trkpt lat="38.21177489983144" lon="15.373983478460506"><ele>52.0</ele><time>2026-04-26T09:22:40.907Z</time></trkpt><trkpt lat="38.211952709808855" lon="15.374562275918356"><ele>50.5</ele><time>2026-04-26T09:22:41.907Z</time></trkpt><trkpt lat="38.21209648958062" lon="15.375075706783742"><ele>49.0</ele><time>2026-04-26T09:22:42.907Z</time></trkpt><trkpt lat="38.21223008081794" lon="15.375562759010332"><ele>51.0</ele><time>2026-04-26T09:22:43.907Z</time></trkpt><trkpt lat="38.212364069650405" lon="15.376027929021149"><ele>53.0</ele><time>2026-04-26T09:22:44.906Z</time></trkpt><trkpt lat="38.21250199125517" lon="15.376472835226373"><ele>63.5</ele><time>2026-04-26T09:22:45.906Z</time></trkpt><trkpt lat="38.212652584682985" lon="15.376925991855861"><ele>74.0</ele><time>2026-04-26T09:22:46.906Z</time></trkpt><trkpt lat="38.21280079641803" lon="15.377388222642068"><ele>82.0</ele><time>2026-04-26T09:22:47.906Z</time></trkpt><trkpt lat="38.212961769278586" lon="15.377838540131627"><ele>90.0</ele><time>2026-04-26T09:22:48.906Z</time></trkpt><trkpt lat="38.213165290368906" lon="15.378254532002101"><ele>90.0</ele><time>2026-04-26T09:22:49.906Z</time></trkpt><trkpt lat="38.213380061069294" lon="15.37865480135692"><ele>90.0</ele><time>2026-04-26T09:22:50.906Z</time></trkpt><trkpt lat="38.213607365239746" lon="15.379040604939933"><ele>89.5</ele><time>2026-04-26T09:22:51.906Z</time></trkpt><trkpt lat="38.213775702249464" lon="15.379319392062158"><ele>89.0</ele><time>2026-04-26T09:22:52.906Z</time></trkpt><trkpt lat="38.21438911967578" lon="15.380170721182177"><ele>62.0</ele><time>2026-04-26T09:22:54.906Z</time></trkpt><trkpt lat="38.21481990768218" lon="15.380659800216634"><ele>53.0</ele><time>2026-04-26T09:22:55.906Z</time></trkpt><trkpt lat="38.215246229986384" lon="15.380990173627746"><ele>53.0</ele><time>2026-04-26T09:22:56.906Z</time></trkpt><trkpt lat="38.21557601223481" lon="15.381339261731576"><ele>53.0</ele><time>2026-04-26T09:22:57.906Z</time></trkpt><trkpt lat="38.215919590905926" lon="15.381679537343643"><ele>55.5</ele><time>2026-04-26T09:22:58.906Z</time></trkpt><trkpt lat="38.21627402250211" lon="15.381991656365136"><ele>58.0</ele><time>2026-04-26T09:22:59.906Z</time></trkpt><trkpt lat="38.216597365168546" lon="15.382288796090291"><ele>58.0</ele><time>2026-04-26T09:23:00.906Z</time></trkpt><trkpt lat="38.21694517148376" lon="15.382610416464498"><ele>58.0</ele><time>2026-04-26T09:23:01.906Z</time></trkpt><trkpt lat="38.21729421162038" lon="15.382936935995868"><ele>53.5</ele><time>2026-04-26T09:23:02.906Z</time></trkpt><trkpt lat="38.217638976064734" lon="15.383270534446423"><ele>49.0</ele><time>2026-04-26T09:23:03.906Z</time></trkpt><trkpt lat="38.21797465986351" lon="15.383588200268077"><ele>50.5</ele><time>2026-04-26T09:23:04.906Z</time></trkpt><trkpt lat="38.21828848967409" lon="15.383882469859937"><ele>52.0</ele><time>2026-04-26T09:23:05.906Z</time></trkpt><trkpt lat="38.218601801836165" lon="15.384179506846621"><ele>52.0</ele><time>2026-04-26T09:23:06.906Z</time></trkpt><trkpt lat="38.218909459313714" lon="15.38446473341769"><ele>52.0</ele><time>2026-04-26T09:23:07.906Z</time></trkpt><trkpt lat="38.21921257719581" lon="15.384745439561843"><ele>53.0</ele><time>2026-04-26T09:23:08.906Z</time></trkpt><trkpt lat="38.21949772645296" lon="15.38502204085284"><ele>54.0</ele><time>2026-04-26T09:23:09.906Z</time></trkpt><trkpt lat="38.21977206330343" lon="15.385283882301358"><ele>55.5</ele><time>2026-04-26T09:23:10.906Z</time></trkpt><trkpt lat="38.22003390091105" lon="15.385534096367454"><ele>57.0</ele><time>2026-04-26T09:23:11.906Z</time></trkpt><trkpt lat="38.22026728383405" lon="15.385762540609882"><ele>57.0</ele><time>2026-04-26T09:23:12.906Z</time></trkpt><trkpt lat="38.22047559978003" lon="15.385966996213941"><ele>57.0</ele><time>2026-04-26T09:23:13.906Z</time></trkpt><trkpt lat="38.22066825702747" lon="15.386165361802071"><ele>59.0</ele><time>2026-04-26T09:23:14.906Z</time></trkpt><trkpt lat="38.220834826764694" lon="15.386344964077223"><ele>61.0</ele><time>2026-04-26T09:23:15.906Z</time></trkpt><trkpt lat="38.22099442833589" lon="15.386531652646829"><ele>63.0</ele><time>2026-04-26T09:23:16.906Z</time></trkpt><trkpt lat="38.22115743223218" lon="15.386721705344893"><ele>63.0</ele><time>2026-04-26T09:23:17.906Z</time></trkpt><trkpt lat="38.22132496703586" lon="15.38691356039652"><ele>63.0</ele><time>2026-04-26T09:23:18.906Z</time></trkpt><trkpt lat="38.221493352476855" lon="15.387106364571038"><ele>67.33333333333333</ele><time>2026-04-26T09:23:19.907Z</time></trkpt><trkpt lat="38.221656111568926" lon="15.387294421710969"><ele>71.66666666666666</ele><time>2026-04-26T09:23:20.907Z</time></trkpt><trkpt lat="38.22181875228657" lon="15.387479113978396"><ele>76.0</ele><time>2026-04-26T09:23:21.907Z</time></trkpt><trkpt lat="38.22195491375352" lon="15.387706740883077"><ele>76.0</ele><time>2026-04-26T09:23:22.907Z</time></trkpt><trkpt lat="38.222036440847994" lon="15.387841189776022"><ele>76.0</ele><time>2026-04-26T09:23:23.907Z</time></trkpt><trkpt lat="38.222774652998986" lon="15.38934862266669"><ele>65.66666666666666</ele><time>2026-04-26T09:23:30.907Z</time></trkpt><trkpt lat="38.2228752429193" lon="15.389573722391077"><ele>55.33333333333333</ele><time>2026-04-26T09:23:31.907Z</time></trkpt><trkpt lat="38.22294588754781" lon="15.389846078403782"><ele>45.0</ele><time>2026-04-26T09:23:32.907Z</time></trkpt><trkpt lat="38.22303922933003" lon="15.390089804147149"><ele>43.333333333333336</ele><time>2026-04-26T09:23:33.907Z</time></trkpt><trkpt lat="38.22313173418839" lon="15.390340036644174"><ele>41.66666666666667</ele><time>2026-04-26T09:23:34.907Z</time></trkpt><trkpt lat="38.22321915233291" lon="15.39058100361634"><ele>40.0</ele><time>2026-04-26T09:23:35.907Z</time></trkpt><trkpt lat="38.22329095015462" lon="15.390827671892549"><ele>40.0</ele><time>2026-04-26T09:23:36.907Z</time></trkpt><trkpt lat="38.22337747524669" lon="15.391081783524134"><ele>40.0</ele><time>2026-04-26T09:23:37.907Z</time></trkpt><trkpt lat="38.22345991618188" lon="15.391329377296143"><ele>40.0</ele><time>2026-04-26T09:23:38.907Z</time></trkpt><trkpt lat="38.22354131616212" lon="15.391572522642722"><ele>42.66666666666667</ele><time>2026-04-26T09:23:39.907Z</time></trkpt><trkpt lat="38.22362697765911" lon="15.391824356742058"><ele>45.333333333333336</ele><time>2026-04-26T09:23:40.907Z</time></trkpt><trkpt lat="38.223711598861854" lon="15.392066788252714"><ele>48.0</ele><time>2026-04-26T09:23:41.907Z</time></trkpt><trkpt lat="38.223791906085026" lon="15.392305751080649"><ele>46.333333333333336</ele><time>2026-04-26T09:23:42.907Z</time></trkpt><trkpt lat="38.22387046916158" lon="15.392550246179951"><ele>44.66666666666667</ele><time>2026-04-26T09:23:43.907Z</time></trkpt><trkpt lat="38.223944652928786" lon="15.392790494194209"><ele>43.0</ele><time>2026-04-26T09:23:44.907Z</time></trkpt><trkpt lat="38.22401408622589" lon="15.393024269453589"><ele>43.0</ele><time>2026-04-26T09:23:45.907Z</time></trkpt><trkpt lat="38.2240860933928" lon="15.393279682481596"><ele>43.0</ele><time>2026-04-26T09:23:46.907Z</time></trkpt><trkpt lat="38.224151727893315" lon="15.393475441628318"><ele>43.0</ele><time>2026-04-26T09:23:47.907Z</time></trkpt><trkpt lat="38.224226427114" lon="15.393699955458834"><ele>44.333333333333336</ele><time>2026-04-26T09:23:48.906Z</time></trkpt><trkpt lat="38.22428263585966" lon="15.393944954916199"><ele>45.666666666666664</ele><time>2026-04-26T09:23:49.906Z</time></trkpt><trkpt lat="38.22434456901529" lon="15.394195025062698"><ele>47.0</ele><time>2026-04-26T09:23:50.906Z</time></trkpt><trkpt lat="38.22440015945173" lon="15.394452433966727"><ele>39.666666666666664</ele><time>2026-04-26T09:23:51.906Z</time></trkpt><trkpt lat="38.22445467022404" lon="15.394699629729992"><ele>32.333333333333336</ele><time>2026-04-26T09:23:52.906Z</time></trkpt><trkpt lat="38.224501643292456" lon="15.394938391323816"><ele>25.0</ele><time>2026-04-26T09:23:53.906Z</time></trkpt><trkpt lat="38.224543064679516" lon="15.395180757568975"><ele>25.0</ele><time>2026-04-26T09:23:54.906Z</time></trkpt><trkpt lat="38.22458807717715" lon="15.395427513641712"><ele>25.0</ele><time>2026-04-26T09:23:55.906Z</time></trkpt><trkpt lat="38.22463566977004" lon="15.395692179586582"><ele>25.0</ele><time>2026-04-26T09:23:56.906Z</time></trkpt><trkpt lat="38.22468051869877" lon="15.395954919661092"><ele>24.666666666666668</ele><time>2026-04-26T09:23:57.906Z</time></trkpt><trkpt lat="38.22473477417904" lon="15.396218481480641"><ele>24.333333333333336</ele><time>2026-04-26T09:23:58.906Z</time></trkpt><trkpt lat="38.22478162299287" lon="15.396476591536429"><ele>24.0</ele><time>2026-04-26T09:23:59.906Z</time></trkpt><trkpt lat="38.22482686096102" lon="15.396728580676337"><ele>27.0</ele><time>2026-04-26T09:24:00.906Z</time></trkpt><trkpt lat="38.2248764887858" lon="15.396981081228189"><ele>30.0</ele><time>2026-04-26T09:24:01.906Z</time></trkpt><trkpt lat="38.22493248542905" lon="15.397239754150087"><ele>33.0</ele><time>2026-04-26T09:24:02.906Z</time></trkpt><trkpt lat="38.22498968248935" lon="15.397499557614585"><ele>41.33333333333333</ele><time>2026-04-26T09:24:03.906Z</time></trkpt><trkpt lat="38.2250478901267" lon="15.397762412861345"><ele>49.666666666666664</ele><time>2026-04-26T09:24:04.906Z</time></trkpt><trkpt lat="38.22510642620391" lon="15.398025564652036"><ele>58.0</ele><time>2026-04-26T09:24:05.906Z</time></trkpt><trkpt lat="38.22516330300407" lon="15.398289357217958"><ele>60.33333333333333</ele><time>2026-04-26T09:24:06.906Z</time></trkpt><trkpt lat="38.22522584167025" lon="15.398535208266155"><ele>62.66666666666667</ele><time>2026-04-26T09:24:07.906Z</time></trkpt><trkpt lat="38.22529919517241" lon="15.39875719065743"><ele>65.0</ele><time>2026-04-26T09:24:08.906Z</time></trkpt><trkpt lat="38.22538956496817" lon="15.399010403969955"><ele>65.0</ele><time>2026-04-26T09:24:10.047Z</time></trkpt><trkpt lat="38.2254800329367" lon="15.399252932868377"><ele>65.0</ele><time>2026-04-26T09:24:11.047Z</time></trkpt><trkpt lat="38.22614569486143" lon="15.400772719699637"><ele>57.0</ele><time>2026-04-26T09:24:13.906Z</time></trkpt><trkpt lat="38.226296549965156" lon="15.401167314258922"><ele>49.0</ele><time>2026-04-26T09:24:14.906Z</time></trkpt><trkpt lat="38.226455148955736" lon="15.401555088626948"><ele>42.0</ele><time>2026-04-26T09:24:15.906Z</time></trkpt><trkpt lat="38.22660553139962" lon="15.401943226490175"><ele>35.0</ele><time>2026-04-26T09:24:16.906Z</time></trkpt><trkpt lat="38.22676324525704" lon="15.402364607397631"><ele>35.0</ele><time>2026-04-26T09:24:17.906Z</time></trkpt><trkpt lat="38.22693745937415" lon="15.402812472387822"><ele>35.0</ele><time>2026-04-26T09:24:18.906Z</time></trkpt><trkpt lat="38.22709608340293" lon="15.403316409244306"><ele>39.5</ele><time>2026-04-26T09:24:19.906Z</time></trkpt><trkpt lat="38.22724040578842" lon="15.40377457808412"><ele>44.0</ele><time>2026-04-26T09:24:20.906Z</time></trkpt><trkpt lat="38.227373568473524" lon="15.404230189477001"><ele>36.5</ele><time>2026-04-26T09:24:21.906Z</time></trkpt><trkpt lat="38.227489051180505" lon="15.404696164432202"><ele>29.0</ele><time>2026-04-26T09:24:22.906Z</time></trkpt><trkpt lat="38.22759544998646" lon="15.40518163462652"><ele>34.0</ele><time>2026-04-26T09:24:23.906Z</time></trkpt><trkpt lat="38.22767414562443" lon="15.405674135719302"><ele>39.0</ele><time>2026-04-26T09:24:24.906Z</time></trkpt><trkpt lat="38.22774524981406" lon="15.406161659341514"><ele>50.5</ele><time>2026-04-26T09:24:25.906Z</time></trkpt><trkpt lat="38.22781172894715" lon="15.406646094657862"><ele>62.0</ele><time>2026-04-26T09:24:26.906Z</time></trkpt><trkpt lat="38.2279063302891" lon="15.407134493666447"><ele>65.5</ele><time>2026-04-26T09:24:27.906Z</time></trkpt><trkpt lat="38.22800745772777" lon="15.407625532838615"><ele>69.0</ele><time>2026-04-26T09:24:28.906Z</time></trkpt><trkpt lat="38.2281001290504" lon="15.40812147272829"><ele>55.5</ele><time>2026-04-26T09:24:29.905Z</time></trkpt><trkpt lat="38.22818720655596" lon="15.408605978894064"><ele>42.0</ele><time>2026-04-26T09:24:30.905Z</time></trkpt><trkpt lat="38.22828519229133" lon="15.409083542144328"><ele>34.5</ele><time>2026-04-26T09:24:31.905Z</time></trkpt><trkpt lat="38.2283884279963" lon="15.409540549867234"><ele>27.0</ele><time>2026-04-26T09:24:32.905Z</time></trkpt><trkpt lat="38.22857947883232" lon="15.410049841600683"><ele>24.0</ele><time>2026-04-26T09:24:33.905Z</time></trkpt><trkpt lat="38.22912332376462" lon="15.410187303461049"><ele>33.5</ele><time>2026-04-26T09:24:34.905Z</time></trkpt><trkpt lat="38.2294673246704" lon="15.410498291637573"><ele>43.0</ele><time>2026-04-26T09:24:35.905Z</time></trkpt><trkpt lat="38.22972422574454" lon="15.410909104268997"><ele>36.5</ele><time>2026-04-26T09:24:36.905Z</time></trkpt><trkpt lat="38.229972759237455" lon="15.411339194052067"><ele>30.0</ele><time>2026-04-26T09:24:37.905Z</time></trkpt><trkpt lat="38.23020899479422" lon="15.411779983335842"><ele>33.5</ele><time>2026-04-26T09:24:38.905Z</time></trkpt><trkpt lat="38.23043071345485" lon="15.412242998739455"><ele>37.0</ele><time>2026-04-26T09:24:39.905Z</time></trkpt><trkpt lat="38.23064830526858" lon="15.412694328384854"><ele>35.0</ele><time>2026-04-26T09:24:40.905Z</time></trkpt><trkpt lat="38.23085643009956" lon="15.413143709427718"><ele>33.0</ele><time>2026-04-26T09:24:41.905Z</time></trkpt><trkpt lat="38.2310522821905" lon="15.413587106295088"><ele>42.5</ele><time>2026-04-26T09:24:42.905Z</time></trkpt><trkpt lat="38.23124533846942" lon="15.414031012569714"><ele>52.0</ele><time>2026-04-26T09:24:43.905Z</time></trkpt><trkpt lat="38.231427695579214" lon="15.414481083686034"><ele>38.0</ele><time>2026-04-26T09:24:44.905Z</time></trkpt><trkpt lat="38.231583591328985" lon="15.414949996557734"><ele>24.0</ele><time>2026-04-26T09:24:45.905Z</time></trkpt><trkpt lat="38.23170295703686" lon="15.415430989142463"><ele>28.0</ele><time>2026-04-26T09:24:46.905Z</time></trkpt><trkpt lat="38.23179627964098" lon="15.415908344686313"><ele>32.0</ele><time>2026-04-26T09:24:47.905Z</time></trkpt><trkpt lat="38.231869677740214" lon="15.416391548743853"><ele>34.0</ele><time>2026-04-26T09:24:48.905Z</time></trkpt><trkpt lat="38.23190218122561" lon="15.416873808743098"><ele>36.0</ele><time>2026-04-26T09:24:49.905Z</time></trkpt><trkpt lat="38.23189995387511" lon="15.417338921465927"><ele>35.5</ele><time>2026-04-26T09:24:50.905Z</time></trkpt><trkpt lat="38.23188671432045" lon="15.417796473402733"><ele>35.0</ele><time>2026-04-26T09:24:51.905Z</time></trkpt><trkpt lat="38.231861684276076" lon="15.418260952865632"><ele>35.0</ele><time>2026-04-26T09:24:52.905Z</time></trkpt><trkpt lat="38.23179291139046" lon="15.418739090539253"><ele>35.0</ele><time>2026-04-26T09:24:53.905Z</time></trkpt><trkpt lat="38.2316864724052" lon="15.419215672761888"><ele>30.0</ele><time>2026-04-26T09:24:54.905Z</time></trkpt><trkpt lat="38.23155868884721" lon="15.419689671406095"><ele>25.0</ele><time>2026-04-26T09:24:55.905Z</time></trkpt><trkpt lat="38.23140085216381" lon="15.420164557528086"><ele>26.0</ele><time>2026-04-26T09:24:56.905Z</time></trkpt><trkpt lat="38.231245771035205" lon="15.420633813874817"><ele>27.0</ele><time>2026-04-26T09:24:57.905Z</time></trkpt><trkpt lat="38.23110174341359" lon="15.421105615449987"><ele>28.0</ele><time>2026-04-26T09:24:58.905Z</time></trkpt><trkpt lat="38.23096497119655" lon="15.42157565292788"><ele>29.0</ele><time>2026-04-26T09:24:59.905Z</time></trkpt><trkpt lat="38.230823770961905" lon="15.422038813954725"><ele>28.5</ele><time>2026-04-26T09:25:00.905Z</time></trkpt><trkpt lat="38.2306907657941" lon="15.422482370609812"><ele>28.0</ele><time>2026-04-26T09:25:01.905Z</time></trkpt><trkpt lat="38.23057466160809" lon="15.422897346499887"><ele>28.5</ele><time>2026-04-26T09:25:02.905Z</time></trkpt><trkpt lat="38.23046719556357" lon="15.42329166193625"><ele>29.0</ele><time>2026-04-26T09:25:03.905Z</time></trkpt><trkpt lat="38.23036935625591" lon="15.423686747894633"><ele>31.0</ele><time>2026-04-26T09:25:04.905Z</time></trkpt><trkpt lat="38.230293101197475" lon="15.424073199523937"><ele>33.0</ele><time>2026-04-26T09:25:05.905Z</time></trkpt><trkpt lat="38.2302294250626" lon="15.424455043479693"><ele>35.5</ele><time>2026-04-26T09:25:06.905Z</time></trkpt><trkpt lat="38.23018069694721" lon="15.424820818922194"><ele>38.0</ele><time>2026-04-26T09:25:07.905Z</time></trkpt><trkpt lat="38.230140595638474" lon="15.425174667993735"><ele>40.0</ele><time>2026-04-26T09:25:08.905Z</time></trkpt><trkpt lat="38.23010428298038" lon="15.425535348922288"><ele>42.0</ele><time>2026-04-26T09:25:09.905Z</time></trkpt><trkpt lat="38.230063197083744" lon="15.425902738403222"><ele>42.0</ele><time>2026-04-26T09:25:10.905Z</time></trkpt><trkpt lat="38.2300208337757" lon="15.426269866121308"><ele>42.0</ele><time>2026-04-26T09:25:11.904Z</time></trkpt><trkpt lat="38.2299787934637" lon="15.426641086969221"><ele>48.5</ele><time>2026-04-26T09:25:12.904Z</time></trkpt><trkpt lat="38.229937926664974" lon="15.427026746858134"><ele>55.0</ele><time>2026-04-26T09:25:13.904Z</time></trkpt><trkpt lat="38.22989166503629" lon="15.427412458947131"><ele>65.0</ele><time>2026-04-26T09:25:14.904Z</time></trkpt><trkpt lat="38.22984243377147" lon="15.427780354385014"><ele>75.0</ele><time>2026-04-26T09:25:15.904Z</time></trkpt><trkpt lat="38.22987423396587" lon="15.428115000775145"><ele>37.0</ele><time>2026-04-26T09:25:16.904Z</time></trkpt><trkpt lat="38.2318715005493" lon="15.432906659124095"><ele>37.5</ele><time>2026-04-26T09:25:29.904Z</time></trkpt><trkpt lat="38.23210296568757" lon="15.433199481403513"><ele>38.0</ele><time>2026-04-26T09:25:30.904Z</time></trkpt><trkpt lat="38.23231762895433" lon="15.433491785666021"><ele>36.0</ele><time>2026-04-26T09:25:31.904Z</time></trkpt><trkpt lat="38.23254521309429" lon="15.433784150231622"><ele>34.0</ele><time>2026-04-26T09:25:32.904Z</time></trkpt><trkpt lat="38.23277246790278" lon="15.434020129847772"><ele>33.5</ele><time>2026-04-26T09:25:33.904Z</time></trkpt><trkpt lat="38.23299775174075" lon="15.434262721218014"><ele>33.0</ele><time>2026-04-26T09:25:34.904Z</time></trkpt><trkpt lat="38.233207285926056" lon="15.434533183769128"><ele>33.5</ele><time>2026-04-26T09:25:35.906Z</time></trkpt><trkpt lat="38.23345619461134" lon="15.434782840268308"><ele>34.0</ele><time>2026-04-26T09:25:36.906Z</time></trkpt><trkpt lat="38.23367880787008" lon="15.435037462690566"><ele>34.0</ele><time>2026-04-26T09:25:37.906Z</time></trkpt><trkpt lat="38.23393429855485" lon="15.43526698169254"><ele>34.0</ele><time>2026-04-26T09:25:38.905Z</time></trkpt><trkpt lat="38.23418717612535" lon="15.435494355839419"><ele>37.0</ele><time>2026-04-26T09:25:39.905Z</time></trkpt><trkpt lat="38.23445389762904" lon="15.435703857231001"><ele>40.0</ele><time>2026-04-26T09:25:40.905Z</time></trkpt><trkpt lat="38.23470059363084" lon="15.43590887133768"><ele>40.5</ele><time>2026-04-26T09:25:41.905Z</time></trkpt><trkpt lat="38.23491510158922" lon="15.436091188668057"><ele>41.0</ele><time>2026-04-26T09:25:42.905Z</time></trkpt><trkpt lat="38.23508266717074" lon="15.436221928636627"><ele>44.33333333333333</ele><time>2026-04-26T09:25:43.905Z</time></trkpt><trkpt lat="38.23525970931509" lon="15.436417190114646"><ele>47.666666666666664</ele><time>2026-04-26T09:25:44.906Z</time></trkpt><trkpt lat="38.235415012279034" lon="15.436592674106103"><ele>51.0</ele><time>2026-04-26T09:25:45.905Z</time></trkpt><trkpt lat="38.23554821102522" lon="15.436734987094537"><ele>51.0</ele><time>2026-04-26T09:25:46.905Z</time></trkpt><trkpt lat="38.235636224882434" lon="15.436846565549462"><ele>51.0</ele><time>2026-04-26T09:25:47.905Z</time></trkpt><trkpt lat="38.235685243000404" lon="15.436940693373913"><ele>51.0</ele><time>2026-04-26T09:25:48.906Z</time></trkpt><trkpt lat="38.23576055776235" lon="15.437061431364553"><ele>51.0</ele><time>2026-04-26T09:25:49.906Z</time></trkpt><trkpt lat="38.23581129468654" lon="15.43717081194316"><ele>51.0</ele><time>2026-04-26T09:25:50.906Z</time></trkpt><trkpt lat="38.23589745538415" lon="15.43727849461483"><ele>52.599999999999994</ele><time>2026-04-26T09:25:51.906Z</time></trkpt><trkpt lat="38.23594932354323" lon="15.437398676024046"><ele>54.2</ele><time>2026-04-26T09:25:52.906Z</time></trkpt><trkpt lat="38.23591876621598" lon="15.437523021976983"><ele>55.800000000000004</ele><time>2026-04-26T09:25:53.906Z</time></trkpt><trkpt lat="38.2359985478086" lon="15.437617053207335"><ele>57.400000000000006</ele><time>2026-04-26T09:25:54.906Z</time></trkpt><trkpt lat="38.23604027415795" lon="15.437732131929756"><ele>59.0</ele><time>2026-04-26T09:25:55.905Z</time></trkpt><trkpt lat="38.23608851465232" lon="15.437823471355655"><ele>59.0</ele><time>2026-04-26T09:25:56.905Z</time></trkpt><trkpt lat="38.23611227685963" lon="15.437915221343642"><ele>59.00000000000001</ele><time>2026-04-26T09:25:57.905Z</time></trkpt><trkpt lat="38.2362096938871" lon="15.438030056613384"><ele>59.00000000000001</ele><time>2026-04-26T09:25:59.905Z</time></trkpt><trkpt lat="38.23625857360295" lon="15.438093296904764"><ele>59.0</ele><time>2026-04-26T09:26:00.905Z</time></trkpt><trkpt lat="38.236301030150464" lon="15.438160149518673"><ele>59.0</ele><time>2026-04-26T09:26:01.905Z</time></trkpt><trkpt lat="38.23637606067196" lon="15.438263139397536"><ele>58.333333333333336</ele><time>2026-04-26T09:26:03.905Z</time></trkpt><trkpt lat="38.23641418438848" lon="15.438336253876946"><ele>57.66666666666667</ele><time>2026-04-26T09:26:04.905Z</time></trkpt><trkpt lat="38.23645537626114" lon="15.438453966585453"><ele>57.0</ele><time>2026-04-26T09:26:06.905Z</time></trkpt><trkpt lat="38.23647106665912" lon="15.438564719752742"><ele>56.33333333333333</ele><time>2026-04-26T09:26:08.905Z</time></trkpt><trkpt lat="38.23646357956165" lon="15.438645481866773"><ele>55.666666666666664</ele><time>2026-04-26T09:26:09.905Z</time></trkpt><trkpt lat="38.23656094130706" lon="15.438604641418816"><ele>55.0</ele><time>2026-04-26T09:26:10.905Z</time></trkpt><trkpt lat="38.23660659777189" lon="15.43867597489823"><ele>54.99999999999999</ele><time>2026-04-26T09:26:26.905Z</time></trkpt><trkpt lat="38.23653716160766" lon="15.438569842621265"><ele>55.0</ele><time>2026-04-26T09:26:30.905Z</time></trkpt><trkpt lat="38.23645271480214" lon="15.43855953239233"><ele>55.0</ele><time>2026-04-26T09:26:31.905Z</time></trkpt><trkpt lat="38.23639390667076" lon="15.438471592803932"><ele>55.0</ele><time>2026-04-26T09:26:33.905Z</time></trkpt><trkpt lat="38.23645480417672" lon="15.438434683890653"><ele>54.99999999999999</ele><time>2026-04-26T09:26:35.905Z</time></trkpt><trkpt lat="38.23651089125027" lon="15.438504661615472"><ele>55.0</ele><time>2026-04-26T09:26:37.904Z</time></trkpt><trkpt lat="38.23653950974629" lon="15.438595796434432"><ele>55.0</ele><time>2026-04-26T09:26:39.904Z</time></trkpt><trkpt lat="38.23648040911315" lon="15.438650546555813"><ele>55.0</ele><time>2026-04-26T09:26:40.904Z</time></trkpt><trkpt lat="38.236476389483556" lon="15.438736984099716"><ele>55.0</ele><time>2026-04-26T09:26:43.904Z</time></trkpt><trkpt lat="38.23656981637107" lon="15.438618507780577"><ele>55.0</ele><time>2026-04-26T09:27:17.904Z</time></trkpt><trkpt lat="38.236467386549414" lon="15.438685288852659"><ele>55.0</ele><time>2026-04-26T09:32:20.903Z</time></trkpt><trkpt lat="38.23655525421617" lon="15.438595755928864"><ele>55.0</ele><time>2026-04-26T09:32:24.902Z</time></trkpt><trkpt lat="38.23666140804358" lon="15.438752445410978"><ele>55.0</ele><time>2026-04-26T09:32:36.902Z</time></trkpt><trkpt lat="38.23670997227352" lon="15.438822081911052"><ele>55.0</ele><time>2026-04-26T09:32:37.902Z</time></trkpt><trkpt lat="38.236763629664395" lon="15.438896665009052"><ele>55.0</ele><time>2026-04-26T09:32:38.902Z</time></trkpt><trkpt lat="38.23682192697612" lon="15.438988290052599"><ele>55.0</ele><time>2026-04-26T09:32:39.902Z</time></trkpt><trkpt lat="38.23689356988147" lon="15.439069228682042"><ele>56.2</ele><time>2026-04-26T09:32:40.902Z</time></trkpt><trkpt lat="38.236963262764895" lon="15.439148731375406"><ele>57.4</ele><time>2026-04-26T09:32:41.902Z</time></trkpt><trkpt lat="38.2370397200926" lon="15.439226357838933"><ele>58.599999999999994</ele><time>2026-04-26T09:32:42.902Z</time></trkpt><trkpt lat="38.23712079213522" lon="15.439301043022006"><ele>59.8</ele><time>2026-04-26T09:32:43.902Z</time></trkpt><trkpt lat="38.237185380657316" lon="15.439394341275145"><ele>61.0</ele><time>2026-04-26T09:32:44.902Z</time></trkpt><trkpt lat="38.237268360665006" lon="15.439470813843421"><ele>61.49999999999999</ele><time>2026-04-26T09:32:45.902Z</time></trkpt><trkpt lat="38.23733778527335" lon="15.439524539203804"><ele>62.0</ele><time>2026-04-26T09:32:46.902Z</time></trkpt><trkpt lat="38.23740252906677" lon="15.439564721034936"><ele>62.5</ele><time>2026-04-26T09:32:47.902Z</time></trkpt><trkpt lat="38.2374731247669" lon="15.439583002138859"><ele>63.0</ele><time>2026-04-26T09:32:48.902Z</time></trkpt><trkpt lat="38.23753611275702" lon="15.439646539449116"><ele>63.49999999999999</ele><time>2026-04-26T09:32:49.902Z</time></trkpt><trkpt lat="38.23761392661468" lon="15.439706552700125"><ele>64.0</ele><time>2026-04-26T09:32:50.902Z</time></trkpt><trkpt lat="38.23768420760949" lon="15.43979277755219"><ele>64.0</ele><time>2026-04-26T09:32:51.902Z</time></trkpt><trkpt lat="38.23776411233858" lon="15.439892550707082"><ele>64.0</ele><time>2026-04-26T09:32:52.902Z</time></trkpt><trkpt lat="38.237845278250134" lon="15.44001076758192"><ele>64.0</ele><time>2026-04-26T09:32:53.902Z</time></trkpt><trkpt lat="38.237946591537" lon="15.440135504497539"><ele>64.0</ele><time>2026-04-26T09:32:54.902Z</time></trkpt><trkpt lat="38.238026405543614" lon="15.440296111963884"><ele>65.0</ele><time>2026-04-26T09:32:55.902Z</time></trkpt><trkpt lat="38.23810278884181" lon="15.440474526321902"><ele>66.0</ele><time>2026-04-26T09:32:56.902Z</time></trkpt><trkpt lat="38.23818283676437" lon="15.440661079480487"><ele>67.0</ele><time>2026-04-26T09:32:57.902Z</time></trkpt><trkpt lat="38.23826255072186" lon="15.440857750930325"><ele>63.666666666666664</ele><time>2026-04-26T09:32:58.902Z</time></trkpt><trkpt lat="38.23834419620952" lon="15.441061404578877"><ele>60.33333333333333</ele><time>2026-04-26T09:32:59.902Z</time></trkpt><trkpt lat="38.238436510595946" lon="15.44126893184242"><ele>57.0</ele><time>2026-04-26T09:33:00.902Z</time></trkpt><trkpt lat="38.2385280324514" lon="15.441487002980077"><ele>53.666666666666664</ele><time>2026-04-26T09:33:01.902Z</time></trkpt><trkpt lat="38.23862630397152" lon="15.441720176785697"><ele>50.33333333333333</ele><time>2026-04-26T09:33:02.902Z</time></trkpt><trkpt lat="38.23872668860984" lon="15.441965689391633"><ele>47.0</ele><time>2026-04-26T09:33:03.902Z</time></trkpt><trkpt lat="38.23881466019755" lon="15.442210054611538"><ele>45.0</ele><time>2026-04-26T09:33:04.901Z</time></trkpt><trkpt lat="38.23891848038055" lon="15.442469421387344"><ele>43.0</ele><time>2026-04-26T09:33:05.901Z</time></trkpt><trkpt lat="38.239021769902216" lon="15.442728027893917"><ele>37.0</ele><time>2026-04-26T09:33:06.901Z</time></trkpt><trkpt lat="38.23912842255109" lon="15.442989879925133"><ele>31.0</ele><time>2026-04-26T09:33:07.901Z</time></trkpt><trkpt lat="38.23922820199924" lon="15.443252013599944"><ele>31.0</ele><time>2026-04-26T09:33:08.901Z</time></trkpt><trkpt lat="38.23933594854941" lon="15.443512469447263"><ele>31.0</ele><time>2026-04-26T09:33:09.901Z</time></trkpt><trkpt lat="38.23944688931946" lon="15.443792953613306"><ele>30.5</ele><time>2026-04-26T09:33:10.901Z</time></trkpt><trkpt lat="38.239557152610416" lon="15.44406855327736"><ele>30.0</ele><time>2026-04-26T09:33:11.901Z</time></trkpt><trkpt lat="38.239665191326566" lon="15.444342912710727"><ele>30.0</ele><time>2026-04-26T09:33:12.901Z</time></trkpt><trkpt lat="38.23977885260031" lon="15.444632513397911"><ele>30.0</ele><time>2026-04-26T09:33:13.901Z</time></trkpt><trkpt lat="38.239895284517836" lon="15.444917328312295"><ele>30.0</ele><time>2026-04-26T09:33:14.901Z</time></trkpt><trkpt lat="38.24001154828987" lon="15.445202099026519"><ele>30.0</ele><time>2026-04-26T09:33:15.901Z</time></trkpt><trkpt lat="38.24012882430424" lon="15.445494571495548"><ele>29.5</ele><time>2026-04-26T09:33:16.901Z</time></trkpt><trkpt lat="38.240252539455945" lon="15.445791920990334"><ele>29.0</ele><time>2026-04-26T09:33:17.901Z</time></trkpt><trkpt lat="38.24037024875349" lon="15.446085787070688"><ele>30.0</ele><time>2026-04-26T09:33:18.901Z</time></trkpt><trkpt lat="38.24050198983202" lon="15.446384260092351"><ele>31.0</ele><time>2026-04-26T09:33:19.901Z</time></trkpt><trkpt lat="38.240640332454845" lon="15.446675184958483"><ele>29.0</ele><time>2026-04-26T09:33:20.901Z</time></trkpt><trkpt lat="38.24078934924438" lon="15.446954256451718"><ele>27.0</ele><time>2026-04-26T09:33:21.901Z</time></trkpt><trkpt lat="38.24095243875804" lon="15.447214873663325"><ele>31.0</ele><time>2026-04-26T09:33:22.901Z</time></trkpt><trkpt lat="38.24113075977652" lon="15.447477564075006"><ele>35.0</ele><time>2026-04-26T09:33:23.901Z</time></trkpt><trkpt lat="38.241321270916565" lon="15.447722449916618"><ele>36.5</ele><time>2026-04-26T09:33:24.901Z</time></trkpt><trkpt lat="38.24152022888444" lon="15.447948675724547"><ele>38.0</ele><time>2026-04-26T09:33:25.901Z</time></trkpt><trkpt lat="38.24173075086031" lon="15.448155396710481"><ele>38.0</ele><time>2026-04-26T09:33:26.901Z</time></trkpt><trkpt lat="38.241947444670096" lon="15.44834961596177"><ele>38.0</ele><time>2026-04-26T09:33:27.901Z</time></trkpt><trkpt lat="38.24216770463824" lon="15.448512021795514"><ele>37.5</ele><time>2026-04-26T09:33:28.901Z</time></trkpt><trkpt lat="38.24239120143583" lon="15.448668793141193"><ele>37.0</ele><time>2026-04-26T09:33:29.901Z</time></trkpt><trkpt lat="38.242616809561504" lon="15.448822654024044"><ele>37.0</ele><time>2026-04-26T09:33:30.901Z</time></trkpt><trkpt lat="38.242838266686576" lon="15.448977476947691"><ele>37.0</ele><time>2026-04-26T09:33:31.901Z</time></trkpt><trkpt lat="38.2430527524535" lon="15.449129727790758"><ele>34.0</ele><time>2026-04-26T09:33:32.901Z</time></trkpt><trkpt lat="38.243264058535296" lon="15.449280474582785"><ele>31.0</ele><time>2026-04-26T09:33:33.901Z</time></trkpt><trkpt lat="38.24346088401387" lon="15.44941607174555"><ele>31.0</ele><time>2026-04-26T09:33:34.902Z</time></trkpt><trkpt lat="38.243642502146855" lon="15.449549326233527"><ele>31.0</ele><time>2026-04-26T09:33:35.903Z</time></trkpt><trkpt lat="38.243814463754035" lon="15.449683593928844"><ele>31.0</ele><time>2026-04-26T09:33:36.903Z</time></trkpt><trkpt lat="38.243975523565744" lon="15.44980913557865"><ele>29.666666666666668</ele><time>2026-04-26T09:33:37.904Z</time></trkpt><trkpt lat="38.24412632639935" lon="15.449930450568715"><ele>28.333333333333336</ele><time>2026-04-26T09:33:38.905Z</time></trkpt><trkpt lat="38.24427046567567" lon="15.45004316885508"><ele>27.0</ele><time>2026-04-26T09:33:39.905Z</time></trkpt><trkpt lat="38.24440645364274" lon="15.450157071020742"><ele>27.0</ele><time>2026-04-26T09:33:40.906Z</time></trkpt><trkpt lat="38.24453442495414" lon="15.450268345696644"><ele>27.0</ele><time>2026-04-26T09:33:41.906Z</time></trkpt><trkpt lat="38.24465256708005" lon="15.450377217791406"><ele>27.0</ele><time>2026-04-26T09:33:42.907Z</time></trkpt><trkpt lat="38.244781755154975" lon="15.450496998770031"><ele>28.666666666666664</ele><time>2026-04-26T09:33:43.907Z</time></trkpt><trkpt lat="38.244919403717944" lon="15.450630188485205"><ele>30.333333333333332</ele><time>2026-04-26T09:33:44.907Z</time></trkpt><trkpt lat="38.24506067575455" lon="15.450773191080822"><ele>32.0</ele><time>2026-04-26T09:33:45.908Z</time></trkpt><trkpt lat="38.24520751744267" lon="15.45093042301549"><ele>32.0</ele><time>2026-04-26T09:33:46.908Z</time></trkpt><trkpt lat="38.245347997207695" lon="15.451084579954705"><ele>32.0</ele><time>2026-04-26T09:33:47.909Z</time></trkpt><trkpt lat="38.24547421845918" lon="15.45122911960141"><ele>32.0</ele><time>2026-04-26T09:33:48.909Z</time></trkpt><trkpt lat="38.2455887433972" lon="15.45136709517329"><ele>33.25</ele><time>2026-04-26T09:33:49.909Z</time></trkpt><trkpt lat="38.24568409382927" lon="15.451495417301402"><ele>34.5</ele><time>2026-04-26T09:33:50.909Z</time></trkpt><trkpt lat="38.24577838161908" lon="15.451615166915857"><ele>35.75</ele><time>2026-04-26T09:33:51.91Z</time></trkpt><trkpt lat="38.24586656353913" lon="15.451722909946257"><ele>37.0</ele><time>2026-04-26T09:33:52.91Z</time></trkpt><trkpt lat="38.24594085598104" lon="15.451829584066092"><ele>37.0</ele><time>2026-04-26T09:33:53.91Z</time></trkpt><trkpt lat="38.24601229712939" lon="15.45192359999531"><ele>37.0</ele><time>2026-04-26T09:33:54.91Z</time></trkpt><trkpt lat="38.2460745860964" lon="15.452007128515422"><ele>37.0</ele><time>2026-04-26T09:33:55.91Z</time></trkpt><trkpt lat="38.24613106182562" lon="15.452070618709225"><ele>37.0</ele><time>2026-04-26T09:33:56.911Z</time></trkpt><trkpt lat="38.24618087501762" lon="15.452134330749617"><ele>37.0</ele><time>2026-04-26T09:33:57.911Z</time></trkpt><trkpt lat="38.24626040017305" lon="15.452233566849062"><ele>36.0</ele><time>2026-04-26T09:33:59.913Z</time></trkpt><trkpt lat="38.24633898418995" lon="15.452322501219571"><ele>35.0</ele><time>2026-04-26T09:34:01.912Z</time></trkpt><trkpt lat="38.24639075507696" lon="15.452393607067656"><ele>34.0</ele><time>2026-04-26T09:34:02.913Z</time></trkpt><trkpt lat="38.24645552007997" lon="15.45249412018045"><ele>33.0</ele><time>2026-04-26T09:34:03.913Z</time></trkpt><trkpt lat="38.24651557123482" lon="15.452599072903666"><ele>32.0</ele><time>2026-04-26T09:34:04.913Z</time></trkpt><trkpt lat="38.246573091906505" lon="15.452696459329697"><ele>31.999999999999996</ele><time>2026-04-26T09:34:05.914Z</time></trkpt><trkpt lat="38.246623255475896" lon="15.452779797217334"><ele>32.0</ele><time>2026-04-26T09:34:06.914Z</time></trkpt><trkpt lat="38.246669161365205" lon="15.4528529711546"><ele>32.0</ele><time>2026-04-26T09:34:07.914Z</time></trkpt><trkpt lat="38.24674714438064" lon="15.452958225681973"><ele>32.0</ele><time>2026-04-26T09:34:09.914Z</time></trkpt><trkpt lat="38.246805649691886" lon="15.45301260148585"><ele>31.999999999999996</ele><time>2026-04-26T09:34:11.914Z</time></trkpt><trkpt lat="38.246882499443394" lon="15.45306486702473"><ele>32.0</ele><time>2026-04-26T09:36:29.913Z</time></trkpt><trkpt lat="38.24694113312172" lon="15.45319010853104"><ele>31.200000000000003</ele><time>2026-04-26T09:36:31.913Z</time></trkpt><trkpt lat="38.2469964054842" lon="15.453250377261991"><ele>30.400000000000002</ele><time>2026-04-26T09:36:32.913Z</time></trkpt><trkpt lat="38.24711200754078" lon="15.453293598300341"><ele>29.599999999999998</ele><time>2026-04-26T09:36:33.913Z</time></trkpt><trkpt lat="38.247169841305286" lon="15.453378263333168"><ele>28.799999999999997</ele><time>2026-04-26T09:36:34.913Z</time></trkpt><trkpt lat="38.247256112605776" lon="15.453483282941434"><ele>28.0</ele><time>2026-04-26T09:36:35.913Z</time></trkpt><trkpt lat="38.24735502575704" lon="15.453640693355469"><ele>27.0</ele><time>2026-04-26T09:36:36.913Z</time></trkpt><trkpt lat="38.24748685696469" lon="15.453846389693375"><ele>26.0</ele><time>2026-04-26T09:36:37.913Z</time></trkpt><trkpt lat="38.24760745543549" lon="15.454097985725364"><ele>25.0</ele><time>2026-04-26T09:36:38.913Z</time></trkpt><trkpt lat="38.247700517624175" lon="15.454372823489384"><ele>26.5</ele><time>2026-04-26T09:36:39.913Z</time></trkpt><trkpt lat="38.24777994945906" lon="15.454653112533327"><ele>28.0</ele><time>2026-04-26T09:36:40.913Z</time></trkpt><trkpt lat="38.2478437490063" lon="15.454940787771898"><ele>28.0</ele><time>2026-04-26T09:36:41.913Z</time></trkpt><trkpt lat="38.247900892958434" lon="15.455217095485034"><ele>28.0</ele><time>2026-04-26T09:36:42.913Z</time></trkpt><trkpt lat="38.247955319944296" lon="15.455492478972154"><ele>28.0</ele><time>2026-04-26T09:36:43.913Z</time></trkpt><trkpt lat="38.24799520958039" lon="15.455772665962009"><ele>32.66666666666667</ele><time>2026-04-26T09:36:44.913Z</time></trkpt><trkpt lat="38.24803987211179" lon="15.456042486152402"><ele>37.333333333333336</ele><time>2026-04-26T09:36:45.913Z</time></trkpt><trkpt lat="38.24809014253001" lon="15.456309426885886"><ele>42.0</ele><time>2026-04-26T09:36:46.913Z</time></trkpt><trkpt lat="38.24813591728355" lon="15.456573105566923"><ele>48.66666666666667</ele><time>2026-04-26T09:36:47.912Z</time></trkpt><trkpt lat="38.24816514484648" lon="15.456837096728938"><ele>55.333333333333336</ele><time>2026-04-26T09:36:48.912Z</time></trkpt><trkpt lat="38.24817673166677" lon="15.457087899483984"><ele>62.0</ele><time>2026-04-26T09:36:49.912Z</time></trkpt><trkpt lat="38.24818728060355" lon="15.457316237192861"><ele>66.5</ele><time>2026-04-26T09:36:50.912Z</time></trkpt><trkpt lat="38.248199121186055" lon="15.457569002749837"><ele>71.0</ele><time>2026-04-26T09:36:51.912Z</time></trkpt><trkpt lat="38.248465353709754" lon="15.46007399280813"><ele>61.5</ele><time>2026-04-26T09:36:56.912Z</time></trkpt><trkpt lat="38.248569248205655" lon="15.460423902557993"><ele>52.0</ele><time>2026-04-26T09:36:57.912Z</time></trkpt><trkpt lat="38.248691307402844" lon="15.460770046514515"><ele>52.0</ele><time>2026-04-26T09:36:58.912Z</time></trkpt><trkpt lat="38.248808188524606" lon="15.461098790921547"><ele>52.0</ele><time>2026-04-26T09:36:59.912Z</time></trkpt><trkpt lat="38.248923127231926" lon="15.461421940640852"><ele>54.0</ele><time>2026-04-26T09:37:00.912Z</time></trkpt><trkpt lat="38.249061652684745" lon="15.461736567137327"><ele>56.0</ele><time>2026-04-26T09:37:01.912Z</time></trkpt><trkpt lat="38.24924897437544" lon="15.462000213495337"><ele>62.0</ele><time>2026-04-26T09:37:02.912Z</time></trkpt><trkpt lat="38.24942445632288" lon="15.4622977823991"><ele>68.0</ele><time>2026-04-26T09:37:03.912Z</time></trkpt><trkpt lat="38.24960063568557" lon="15.462584641975422"><ele>68.0</ele><time>2026-04-26T09:37:04.912Z</time></trkpt><trkpt lat="38.24977001787015" lon="15.462877812292655"><ele>68.0</ele><time>2026-04-26T09:37:05.912Z</time></trkpt><trkpt lat="38.24992859313644" lon="15.463181923692169"><ele>70.5</ele><time>2026-04-26T09:37:06.912Z</time></trkpt><trkpt lat="38.25008142609285" lon="15.463481807064037"><ele>73.0</ele><time>2026-04-26T09:37:07.912Z</time></trkpt><trkpt lat="38.25024863879654" lon="15.46378185333508"><ele>73.0</ele><time>2026-04-26T09:37:08.912Z</time></trkpt><trkpt lat="38.250411848124386" lon="15.464078039598146"><ele>73.0</ele><time>2026-04-26T09:37:09.912Z</time></trkpt><trkpt lat="38.250571419950305" lon="15.464377802506922"><ele>72.5</ele><time>2026-04-26T09:37:10.912Z</time></trkpt><trkpt lat="38.250720538011" lon="15.464689531992574"><ele>72.0</ele><time>2026-04-26T09:37:11.912Z</time></trkpt><trkpt lat="38.25086156406836" lon="15.465001046151345"><ele>72.0</ele><time>2026-04-26T09:37:12.912Z</time></trkpt><trkpt lat="38.25098558928924" lon="15.46531853873767"><ele>72.0</ele><time>2026-04-26T09:37:13.912Z</time></trkpt><trkpt lat="38.25109143865151" lon="15.465651355266688"><ele>75.5</ele><time>2026-04-26T09:37:14.912Z</time></trkpt><trkpt lat="38.251163920887144" lon="15.466005122739244"><ele>79.0</ele><time>2026-04-26T09:37:15.912Z</time></trkpt><trkpt lat="38.25123124912835" lon="15.466365011933602"><ele>82.5</ele><time>2026-04-26T09:37:16.912Z</time></trkpt><trkpt lat="38.25128410072653" lon="15.466745576035086"><ele>86.0</ele><time>2026-04-26T09:37:17.912Z</time></trkpt><trkpt lat="38.2513336219884" lon="15.467121266194718"><ele>89.5</ele><time>2026-04-26T09:37:18.912Z</time></trkpt><trkpt lat="38.25135364561591" lon="15.467487795435115"><ele>93.0</ele><time>2026-04-26T09:37:19.912Z</time></trkpt><trkpt lat="38.25134076650322" lon="15.467856421777682"><ele>93.5</ele><time>2026-04-26T09:37:20.912Z</time></trkpt><trkpt lat="38.25131785909215" lon="15.468233360624021"><ele>94.0</ele><time>2026-04-26T09:37:21.912Z</time></trkpt><trkpt lat="38.25127856716116" lon="15.468611713335626"><ele>87.5</ele><time>2026-04-26T09:37:22.912Z</time></trkpt><trkpt lat="38.25121584806472" lon="15.46899185028107"><ele>81.0</ele><time>2026-04-26T09:37:23.912Z</time></trkpt><trkpt lat="38.25112904109375" lon="15.469375915418466"><ele>75.0</ele><time>2026-04-26T09:37:24.912Z</time></trkpt><trkpt lat="38.251020151889406" lon="15.46973210548071"><ele>69.0</ele><time>2026-04-26T09:37:25.912Z</time></trkpt><trkpt lat="38.25089181467145" lon="15.470085524337305"><ele>69.0</ele><time>2026-04-26T09:37:26.912Z</time></trkpt><trkpt lat="38.25074937939081" lon="15.470426783248087"><ele>69.0</ele><time>2026-04-26T09:37:27.912Z</time></trkpt><trkpt lat="38.250588867346984" lon="15.470765217158743"><ele>69.0</ele><time>2026-04-26T09:37:28.912Z</time></trkpt><trkpt lat="38.250404176354344" lon="15.471073310659015"><ele>69.0</ele><time>2026-04-26T09:37:29.912Z</time></trkpt><trkpt lat="38.25019449296122" lon="15.471367260626355"><ele>69.0</ele><time>2026-04-26T09:37:30.912Z</time></trkpt><trkpt lat="38.249964179034976" lon="15.47164397373381"><ele>69.0</ele><time>2026-04-26T09:37:31.912Z</time></trkpt><trkpt lat="38.24972333414211" lon="15.471905580580431"><ele>74.5</ele><time>2026-04-26T09:37:32.911Z</time></trkpt><trkpt lat="38.249471887661926" lon="15.472150916763896"><ele>80.0</ele><time>2026-04-26T09:37:33.911Z</time></trkpt><trkpt lat="38.249209130107566" lon="15.472375644697008"><ele>80.5</ele><time>2026-04-26T09:37:34.911Z</time></trkpt><trkpt lat="38.24893030502891" lon="15.47257018067071"><ele>81.0</ele><time>2026-04-26T09:37:35.911Z</time></trkpt><trkpt lat="38.248642560865065" lon="15.47275582671255"><ele>81.0</ele><time>2026-04-26T09:37:36.911Z</time></trkpt><trkpt lat="38.24835591218747" lon="15.47293659570588"><ele>81.0</ele><time>2026-04-26T09:37:37.911Z</time></trkpt><trkpt lat="38.24806576510071" lon="15.473126646846548"><ele>89.0</ele><time>2026-04-26T09:37:38.911Z</time></trkpt><trkpt lat="38.24777716751133" lon="15.473309693774663"><ele>97.0</ele><time>2026-04-26T09:37:39.911Z</time></trkpt><trkpt lat="38.24749529375251" lon="15.473503789688126"><ele>95.5</ele><time>2026-04-26T09:37:40.911Z</time></trkpt><trkpt lat="38.247221648424976" lon="15.47370889279059"><ele>94.0</ele><time>2026-04-26T09:37:41.911Z</time></trkpt><trkpt lat="38.246951228792234" lon="15.473909010019078"><ele>90.5</ele><time>2026-04-26T09:37:42.911Z</time></trkpt><trkpt lat="38.24667917404558" lon="15.474116034085096"><ele>87.0</ele><time>2026-04-26T09:37:43.911Z</time></trkpt><trkpt lat="38.246413345549456" lon="15.47433732611245"><ele>87.0</ele><time>2026-04-26T09:37:44.911Z</time></trkpt><trkpt lat="38.246165296164264" lon="15.474593027299404"><ele>87.0</ele><time>2026-04-26T09:37:45.911Z</time></trkpt><trkpt lat="38.24593858105951" lon="15.474861912758215"><ele>91.0</ele><time>2026-04-26T09:37:46.911Z</time></trkpt><trkpt lat="38.245748540128155" lon="15.475173871197143"><ele>95.0</ele><time>2026-04-26T09:37:47.911Z</time></trkpt><trkpt lat="38.24556117782087" lon="15.475493010911212"><ele>95.0</ele><time>2026-04-26T09:37:48.911Z</time></trkpt><trkpt lat="38.245407723556546" lon="15.475834564812239"><ele>95.0</ele><time>2026-04-26T09:37:49.911Z</time></trkpt><trkpt lat="38.24525915187913" lon="15.4761824104109"><ele>106.0</ele><time>2026-04-26T09:37:50.911Z</time></trkpt><trkpt lat="38.245125075826" lon="15.47654004513625"><ele>117.0</ele><time>2026-04-26T09:37:51.911Z</time></trkpt><trkpt lat="38.24500741726611" lon="15.476896037523085"><ele>122.0</ele><time>2026-04-26T09:37:52.911Z</time></trkpt><trkpt lat="38.24488991077614" lon="15.477250073391081"><ele>127.0</ele><time>2026-04-26T09:37:53.911Z</time></trkpt><trkpt lat="38.244751807044274" lon="15.477585450848226"><ele>127.0</ele><time>2026-04-26T09:37:54.911Z</time></trkpt><trkpt lat="38.24460927665276" lon="15.477922747118354"><ele>127.0</ele><time>2026-04-26T09:37:55.911Z</time></trkpt><trkpt lat="38.24446539764163" lon="15.478258064360341"><ele>133.0</ele><time>2026-04-26T09:37:56.911Z</time></trkpt><trkpt lat="38.24433000688991" lon="15.478590668542509"><ele>139.0</ele><time>2026-04-26T09:37:57.911Z</time></trkpt><trkpt lat="38.24419961790713" lon="15.478929808882025"><ele>139.0</ele><time>2026-04-26T09:37:58.911Z</time></trkpt><trkpt lat="38.244065000794684" lon="15.479263407825167"><ele>139.0</ele><time>2026-04-26T09:37:59.911Z</time></trkpt><trkpt lat="38.243899829007844" lon="15.479755250972897"><ele>126.5</ele><time>2026-04-26T09:38:00.911Z</time></trkpt><trkpt lat="38.2434934379928" lon="15.479897562132555"><ele>114.0</ele><time>2026-04-26T09:38:01.911Z</time></trkpt><trkpt lat="38.24326342946198" lon="15.48012860610165"><ele>113.0</ele><time>2026-04-26T09:38:02.911Z</time></trkpt><trkpt lat="38.24304932592648" lon="15.48041746963251"><ele>112.0</ele><time>2026-04-26T09:38:03.911Z</time></trkpt><trkpt lat="38.24283126376921" lon="15.48070935964486"><ele>115.5</ele><time>2026-04-26T09:38:04.911Z</time></trkpt><trkpt lat="38.24263226896966" lon="15.481011352350556"><ele>119.0</ele><time>2026-04-26T09:38:05.911Z</time></trkpt><trkpt lat="38.24244527105124" lon="15.48132808343525"><ele>134.0</ele><time>2026-04-26T09:38:06.911Z</time></trkpt><trkpt lat="38.242271133637935" lon="15.481668473315885"><ele>149.0</ele><time>2026-04-26T09:38:07.911Z</time></trkpt><trkpt lat="38.24210562926631" lon="15.48203306675711"><ele>151.5</ele><time>2026-04-26T09:38:08.911Z</time></trkpt><trkpt lat="38.241957602307856" lon="15.482408656159484"><ele>154.0</ele><time>2026-04-26T09:38:09.912Z</time></trkpt><trkpt lat="38.24182149068464" lon="15.4828058417232"><ele>153.0</ele><time>2026-04-26T09:38:10.912Z</time></trkpt><trkpt lat="38.24171041504838" lon="15.483214986606901"><ele>152.0</ele><time>2026-04-26T09:38:11.912Z</time></trkpt><trkpt lat="38.241624279327134" lon="15.483634353699136"><ele>151.5</ele><time>2026-04-26T09:38:12.912Z</time></trkpt><trkpt lat="38.241562897389464" lon="15.484061641285285"><ele>151.0</ele><time>2026-04-26T09:38:13.911Z</time></trkpt><trkpt lat="38.241513717077694" lon="15.484483505925981"><ele>153.0</ele><time>2026-04-26T09:38:14.911Z</time></trkpt><trkpt lat="38.2414491808542" lon="15.484909893186114"><ele>155.0</ele><time>2026-04-26T09:38:15.912Z</time></trkpt><trkpt lat="38.241380295531286" lon="15.485334286656045"><ele>157.0</ele><time>2026-04-26T09:38:16.912Z</time></trkpt><trkpt lat="38.241309567452724" lon="15.485760353756914"><ele>159.0</ele><time>2026-04-26T09:38:17.912Z</time></trkpt><trkpt lat="38.241244898760954" lon="15.486168805796089"><ele>160.5</ele><time>2026-04-26T09:38:18.911Z</time></trkpt><trkpt lat="38.24117342165799" lon="15.486588031651243"><ele>162.0</ele><time>2026-04-26T09:38:19.912Z</time></trkpt><trkpt lat="38.2410796175991" lon="15.48700435511804"><ele>163.0</ele><time>2026-04-26T09:38:20.912Z</time></trkpt><trkpt lat="38.240975471773844" lon="15.487419932770838"><ele>164.0</ele><time>2026-04-26T09:38:21.912Z</time></trkpt><trkpt lat="38.24086109613439" lon="15.487837354447826"><ele>161.0</ele><time>2026-04-26T09:38:22.912Z</time></trkpt><trkpt lat="38.240732808778795" lon="15.488250989894254"><ele>158.0</ele><time>2026-04-26T09:38:23.912Z</time></trkpt><trkpt lat="38.24059164940046" lon="15.488658331939384"><ele>159.0</ele><time>2026-04-26T09:38:24.912Z</time></trkpt><trkpt lat="38.240457766866214" lon="15.489055895865988"><ele>160.0</ele><time>2026-04-26T09:38:25.912Z</time></trkpt><trkpt lat="38.24031852242133" lon="15.489454391798926"><ele>164.0</ele><time>2026-04-26T09:38:26.912Z</time></trkpt><trkpt lat="38.240185817544" lon="15.48986120690917"><ele>168.0</ele><time>2026-04-26T09:38:27.912Z</time></trkpt><trkpt lat="38.24005277349102" lon="15.490264001565171"><ele>172.5</ele><time>2026-04-26T09:38:28.912Z</time></trkpt><trkpt lat="38.23993190782564" lon="15.490675487008623"><ele>177.0</ele><time>2026-04-26T09:38:29.912Z</time></trkpt><trkpt lat="38.23983016939509" lon="15.491088561647251"><ele>170.5</ele><time>2026-04-26T09:38:30.912Z</time></trkpt><trkpt lat="38.23974305290189" lon="15.491511910280053"><ele>164.0</ele><time>2026-04-26T09:38:31.912Z</time></trkpt><trkpt lat="38.23966823376291" lon="15.491930702357228"><ele>167.0</ele><time>2026-04-26T09:38:32.912Z</time></trkpt><trkpt lat="38.239611205554674" lon="15.492347580448232"><ele>170.0</ele><time>2026-04-26T09:38:33.912Z</time></trkpt><trkpt lat="38.23956851236861" lon="15.492762427766948"><ele>175.0</ele><time>2026-04-26T09:38:34.912Z</time></trkpt><trkpt lat="38.23952234890855" lon="15.493181198106168"><ele>180.0</ele><time>2026-04-26T09:38:35.912Z</time></trkpt><trkpt lat="38.23948439444427" lon="15.4935966136657"><ele>181.0</ele><time>2026-04-26T09:38:36.912Z</time></trkpt><trkpt lat="38.239440326432906" lon="15.494017966669388"><ele>182.0</ele><time>2026-04-26T09:38:37.912Z</time></trkpt><trkpt lat="38.23939119757651" lon="15.494447459712147"><ele>183.5</ele><time>2026-04-26T09:38:38.912Z</time></trkpt><trkpt lat="38.2393470675846" lon="15.494886928542677"><ele>185.0</ele><time>2026-04-26T09:38:39.911Z</time></trkpt><trkpt lat="38.239286777805354" lon="15.495329937192452"><ele>191.0</ele><time>2026-04-26T09:38:40.911Z</time></trkpt><trkpt lat="38.23922394156289" lon="15.495775444446819"><ele>197.0</ele><time>2026-04-26T09:38:41.911Z</time></trkpt><trkpt lat="38.23913184573966" lon="15.496220729031533"><ele>198.0</ele><time>2026-04-26T09:38:42.911Z</time></trkpt><trkpt lat="38.23902321579282" lon="15.496662266859568"><ele>199.0</ele><time>2026-04-26T09:38:43.911Z</time></trkpt><trkpt lat="38.23887149447246" lon="15.497086367471976"><ele>199.0</ele><time>2026-04-26T09:38:44.911Z</time></trkpt><trkpt lat="38.23867157881239" lon="15.497486820220283"><ele>199.0</ele><time>2026-04-26T09:38:45.911Z</time></trkpt><trkpt lat="38.23846003704478" lon="15.497871771195227"><ele>199.0</ele><time>2026-04-26T09:38:46.911Z</time></trkpt><trkpt lat="38.23822902020306" lon="15.498237853289023"><ele>199.0</ele><time>2026-04-26T09:38:47.911Z</time></trkpt><trkpt lat="38.237959450681096" lon="15.498564239987347"><ele>202.5</ele><time>2026-04-26T09:38:48.911Z</time></trkpt><trkpt lat="38.23768674673939" lon="15.498879069993917"><ele>206.0</ele><time>2026-04-26T09:38:49.911Z</time></trkpt><trkpt lat="38.237392969671696" lon="15.499143732936473"><ele>204.0</ele><time>2026-04-26T09:38:50.911Z</time></trkpt><trkpt lat="38.237082222385496" lon="15.499388514650052"><ele>202.0</ele><time>2026-04-26T09:38:51.911Z</time></trkpt><trkpt lat="38.2367670666947" lon="15.499607080915592"><ele>205.0</ele><time>2026-04-26T09:38:52.911Z</time></trkpt><trkpt lat="38.236440778129825" lon="15.499824653500715"><ele>208.0</ele><time>2026-04-26T09:38:53.911Z</time></trkpt><trkpt lat="38.236099315670685" lon="15.499998605418684"><ele>208.0</ele><time>2026-04-26T09:38:54.911Z</time></trkpt><trkpt lat="38.235768607569376" lon="15.500181818771635"><ele>208.0</ele><time>2026-04-26T09:38:55.911Z</time></trkpt><trkpt lat="38.23545271802941" lon="15.5003904977067"><ele>213.0</ele><time>2026-04-26T09:38:56.911Z</time></trkpt><trkpt lat="38.235160131099924" lon="15.500618702113572"><ele>218.0</ele><time>2026-04-26T09:38:57.911Z</time></trkpt><trkpt lat="38.234873705114545" lon="15.500873180387744"><ele>218.0</ele><time>2026-04-26T09:38:58.911Z</time></trkpt><trkpt lat="38.234586890248714" lon="15.501114267274767"><ele>218.0</ele><time>2026-04-26T09:38:59.911Z</time></trkpt><trkpt lat="38.23431448562443" lon="15.501389625668141"><ele>218.0</ele><time>2026-04-26T09:39:00.911Z</time></trkpt><trkpt lat="38.23404680789414" lon="15.501684617478851"><ele>218.0</ele><time>2026-04-26T09:39:01.911Z</time></trkpt><trkpt lat="38.233758779981976" lon="15.501943877361185"><ele>222.0</ele><time>2026-04-26T09:39:02.911Z</time></trkpt><trkpt lat="38.23346757310519" lon="15.502184952157648"><ele>226.0</ele><time>2026-04-26T09:39:03.911Z</time></trkpt><trkpt lat="38.233170346400286" lon="15.50241565719556"><ele>227.0</ele><time>2026-04-26T09:39:04.911Z</time></trkpt><trkpt lat="38.232869090093885" lon="15.502648286350645"><ele>228.0</ele><time>2026-04-26T09:39:05.911Z</time></trkpt><trkpt lat="38.23256604725787" lon="15.502879725247569"><ele>232.0</ele><time>2026-04-26T09:39:06.911Z</time></trkpt><trkpt lat="38.23224322651157" lon="15.503114898903457"><ele>236.0</ele><time>2026-04-26T09:39:07.911Z</time></trkpt><trkpt lat="38.23193401374165" lon="15.503364464435977"><ele>236.0</ele><time>2026-04-26T09:39:08.911Z</time></trkpt><trkpt lat="38.23163509055306" lon="15.503654152391134"><ele>236.0</ele><time>2026-04-26T09:39:09.911Z</time></trkpt><trkpt lat="38.231352293267214" lon="15.503985432911382"><ele>238.5</ele><time>2026-04-26T09:39:10.911Z</time></trkpt><trkpt lat="38.23110050034055" lon="15.504343685366301"><ele>241.0</ele><time>2026-04-26T09:39:11.911Z</time></trkpt><trkpt lat="38.23084863855458" lon="15.504682705900802"><ele>246.0</ele><time>2026-04-26T09:39:12.911Z</time></trkpt><trkpt lat="38.23065080649357" lon="15.50507800835019"><ele>251.0</ele><time>2026-04-26T09:39:13.911Z</time></trkpt><trkpt lat="38.230483246715565" lon="15.505494413307826"><ele>251.5</ele><time>2026-04-26T09:39:14.911Z</time></trkpt><trkpt lat="38.23033290598531" lon="15.505914098269999"><ele>252.0</ele><time>2026-04-26T09:39:15.911Z</time></trkpt><trkpt lat="38.23019603841618" lon="15.506334755285549"><ele>253.0</ele><time>2026-04-26T09:39:16.911Z</time></trkpt><trkpt lat="38.23004865166101" lon="15.506738186739335"><ele>254.0</ele><time>2026-04-26T09:39:17.911Z</time></trkpt><trkpt lat="38.22990341895618" lon="15.507138738964441"><ele>257.5</ele><time>2026-04-26T09:39:18.911Z</time></trkpt><trkpt lat="38.22976515233533" lon="15.507536228530043"><ele>261.0</ele><time>2026-04-26T09:39:19.911Z</time></trkpt><trkpt lat="38.22961895352217" lon="15.507925779682472"><ele>267.0</ele><time>2026-04-26T09:39:20.911Z</time></trkpt><trkpt lat="38.229474971192026" lon="15.508309709244202"><ele>273.0</ele><time>2026-04-26T09:39:21.911Z</time></trkpt><trkpt lat="38.22933188185073" lon="15.508703683889065"><ele>279.5</ele><time>2026-04-26T09:39:22.911Z</time></trkpt><trkpt lat="38.22919065342157" lon="15.509084994577577"><ele>286.0</ele><time>2026-04-26T09:39:23.911Z</time></trkpt><trkpt lat="38.22904825095617" lon="15.509482311834399"><ele>304.5</ele><time>2026-04-26T09:39:24.91Z</time></trkpt><trkpt lat="38.228904877951805" lon="15.5098710825393"><ele>323.0</ele><time>2026-04-26T09:39:25.91Z</time></trkpt><trkpt lat="38.22876056539535" lon="15.510257170867028"><ele>332.5</ele><time>2026-04-26T09:39:26.91Z</time></trkpt><trkpt lat="38.22861648238459" lon="15.510647140778506"><ele>342.0</ele><time>2026-04-26T09:39:27.91Z</time></trkpt><trkpt lat="38.22847563656663" lon="15.511028040901143"><ele>354.5</ele><time>2026-04-26T09:39:28.91Z</time></trkpt><trkpt lat="38.2284275716021" lon="15.511550072288838"><ele>367.0</ele><time>2026-04-26T09:39:29.91Z</time></trkpt><trkpt lat="38.228271002692686" lon="15.512009221210139"><ele>262.0</ele><time>2026-04-26T09:39:31.051Z</time></trkpt><trkpt lat="38.222056442213926" lon="15.524621522639436"><ele>262.0</ele><time>2026-04-26T09:40:05.91Z</time></trkpt><trkpt lat="38.22190086977393" lon="15.525003665179298"><ele>262.0</ele><time>2026-04-26T09:40:06.91Z</time></trkpt><trkpt lat="38.221730133301214" lon="15.525327881084687"><ele>262.0</ele><time>2026-04-26T09:40:07.91Z</time></trkpt><trkpt lat="38.221495399112605" lon="15.5256351133507"><ele>262.0</ele><time>2026-04-26T09:40:08.91Z</time></trkpt><trkpt lat="38.221260205381824" lon="15.525952745716712"><ele>259.0</ele><time>2026-04-26T09:40:09.909Z</time></trkpt><trkpt lat="38.221022399467834" lon="15.526263418687524"><ele>256.0</ele><time>2026-04-26T09:40:10.909Z</time></trkpt><trkpt lat="38.2207802150005" lon="15.526591939648105"><ele>254.5</ele><time>2026-04-26T09:40:11.909Z</time></trkpt><trkpt lat="38.22053306448766" lon="15.526935200054336"><ele>253.0</ele><time>2026-04-26T09:40:12.909Z</time></trkpt><trkpt lat="38.22029173305035" lon="15.527258231022829"><ele>253.0</ele><time>2026-04-26T09:40:13.909Z</time></trkpt><trkpt lat="38.22030280186656" lon="15.527867553170994"><ele>237.5</ele><time>2026-04-26T09:40:14.909Z</time></trkpt><trkpt lat="38.22014685156446" lon="15.528254348109906"><ele>222.0</ele><time>2026-04-26T09:40:15.91Z</time></trkpt><trkpt lat="38.21995222191655" lon="15.528602013289099"><ele>228.0</ele><time>2026-04-26T09:40:16.91Z</time></trkpt><trkpt lat="38.219700592277526" lon="15.528912752598966"><ele>234.0</ele><time>2026-04-26T09:40:17.91Z</time></trkpt><trkpt lat="38.21942327567338" lon="15.529187159126199"><ele>234.0</ele><time>2026-04-26T09:40:18.91Z</time></trkpt><trkpt lat="38.21915109739785" lon="15.529459769615167"><ele>234.0</ele><time>2026-04-26T09:40:19.91Z</time></trkpt><trkpt lat="38.21882766107229" lon="15.529627449861279"><ele>248.5</ele><time>2026-04-26T09:40:20.91Z</time></trkpt><trkpt lat="38.218536008610315" lon="15.529811768122494"><ele>263.0</ele><time>2026-04-26T09:40:21.91Z</time></trkpt><trkpt lat="38.218232357362695" lon="15.529993235709236"><ele>268.5</ele><time>2026-04-26T09:40:22.91Z</time></trkpt><trkpt lat="38.21793348977837" lon="15.530168511023149"><ele>274.0</ele><time>2026-04-26T09:40:23.91Z</time></trkpt><trkpt lat="38.217620877815534" lon="15.530349515341372"><ele>257.0</ele><time>2026-04-26T09:40:24.91Z</time></trkpt><trkpt lat="38.21731947193496" lon="15.53053217389394"><ele>240.0</ele><time>2026-04-26T09:40:25.91Z</time></trkpt><trkpt lat="38.217004065867094" lon="15.530731362575194"><ele>240.0</ele><time>2026-04-26T09:40:26.91Z</time></trkpt><trkpt lat="38.21669503925593" lon="15.53094798814807"><ele>240.0</ele><time>2026-04-26T09:40:27.91Z</time></trkpt><trkpt lat="38.216360272701294" lon="15.53120184103077"><ele>169.0</ele><time>2026-04-26T09:40:29.053Z</time></trkpt><trkpt lat="38.21523670252481" lon="15.53219829089586"><ele>169.0</ele><time>2026-04-26T09:40:32.91Z</time></trkpt><trkpt lat="38.21495836138237" lon="15.53248207717379"><ele>169.0</ele><time>2026-04-26T09:40:33.91Z</time></trkpt><trkpt lat="38.21467979427687" lon="15.532787578245442"><ele>164.0</ele><time>2026-04-26T09:40:34.91Z</time></trkpt><trkpt lat="38.21440772555466" lon="15.53310365823478"><ele>159.0</ele><time>2026-04-26T09:40:35.91Z</time></trkpt><trkpt lat="38.21416251628431" lon="15.533416155771832"><ele>151.0</ele><time>2026-04-26T09:40:36.91Z</time></trkpt><trkpt lat="38.21391931306236" lon="15.533754796354573"><ele>143.0</ele><time>2026-04-26T09:40:37.91Z</time></trkpt><trkpt lat="38.213657259794296" lon="15.534087605489278"><ele>143.0</ele><time>2026-04-26T09:40:38.91Z</time></trkpt><trkpt lat="38.21342103102134" lon="15.53445031404046"><ele>143.0</ele><time>2026-04-26T09:40:39.91Z</time></trkpt><trkpt lat="38.21317974204114" lon="15.534816532107474"><ele>144.0</ele><time>2026-04-26T09:40:40.91Z</time></trkpt><trkpt lat="38.21295473690733" lon="15.535197401904863"><ele>145.0</ele><time>2026-04-26T09:40:41.91Z</time></trkpt><trkpt lat="38.212740554119684" lon="15.535604757308752"><ele>145.0</ele><time>2026-04-26T09:40:42.91Z</time></trkpt><trkpt lat="38.21253424628688" lon="15.536019181453995"><ele>145.0</ele><time>2026-04-26T09:40:43.91Z</time></trkpt><trkpt lat="38.21232951193955" lon="15.536441788371219"><ele>134.0</ele><time>2026-04-26T09:40:44.91Z</time></trkpt><trkpt lat="38.21212596355984" lon="15.536856107196433"><ele>123.0</ele><time>2026-04-26T09:40:45.91Z</time></trkpt><trkpt lat="38.211915643025144" lon="15.537265372694923"><ele>121.5</ele><time>2026-04-26T09:40:46.91Z</time></trkpt><trkpt lat="38.21171016229775" lon="15.537663506590969"><ele>120.0</ele><time>2026-04-26T09:40:47.91Z</time></trkpt><trkpt lat="38.211505187979874" lon="15.538064517828872"><ele>140.0</ele><time>2026-04-26T09:40:48.91Z</time></trkpt><trkpt lat="38.21130007062632" lon="15.538464676618533"><ele>160.0</ele><time>2026-04-26T09:40:49.91Z</time></trkpt><trkpt lat="38.21109316776269" lon="15.538861209742178"><ele>160.5</ele><time>2026-04-26T09:40:50.91Z</time></trkpt><trkpt lat="38.21088590045748" lon="15.539258327449922"><ele>161.0</ele><time>2026-04-26T09:40:51.91Z</time></trkpt><trkpt lat="38.210674307570514" lon="15.539666276319018"><ele>163.5</ele><time>2026-04-26T09:40:52.91Z</time></trkpt><trkpt lat="38.21046650442115" lon="15.540069732630457"><ele>166.0</ele><time>2026-04-26T09:40:53.91Z</time></trkpt><trkpt lat="38.21025567446256" lon="15.540475032719232"><ele>166.0</ele><time>2026-04-26T09:40:54.91Z</time></trkpt><trkpt lat="38.21005334438466" lon="15.540870723020824"><ele>166.0</ele><time>2026-04-26T09:40:55.909Z</time></trkpt><trkpt lat="38.20985744897608" lon="15.541265758137724"><ele>163.0</ele><time>2026-04-26T09:40:56.909Z</time></trkpt><trkpt lat="38.20966819360355" lon="15.54166184397249"><ele>160.0</ele><time>2026-04-26T09:40:57.909Z</time></trkpt><trkpt lat="38.20948814228649" lon="15.542061697884929"><ele>156.5</ele><time>2026-04-26T09:40:58.909Z</time></trkpt><trkpt lat="38.209313975781185" lon="15.542471164520554"><ele>153.0</ele><time>2026-04-26T09:40:59.909Z</time></trkpt><trkpt lat="38.2091529415939" lon="15.5428785332818"><ele>148.0</ele><time>2026-04-26T09:41:00.909Z</time></trkpt><trkpt lat="38.20900306797928" lon="15.543282217244604"><ele>143.0</ele><time>2026-04-26T09:41:01.909Z</time></trkpt><trkpt lat="38.20885537527" lon="15.543675587038685"><ele>143.5</ele><time>2026-04-26T09:41:02.909Z</time></trkpt><trkpt lat="38.20871976269091" lon="15.54405631626037"><ele>144.0</ele><time>2026-04-26T09:41:03.909Z</time></trkpt><trkpt lat="38.20858338642615" lon="15.544429348908388"><ele>142.5</ele><time>2026-04-26T09:41:04.909Z</time></trkpt><trkpt lat="38.20844044230762" lon="15.544784929849609"><ele>141.0</ele><time>2026-04-26T09:41:05.909Z</time></trkpt><trkpt lat="38.20828665752734" lon="15.545140775733019"><ele>137.0</ele><time>2026-04-26T09:41:06.909Z</time></trkpt><trkpt lat="38.20810471292025" lon="15.545465674532025"><ele>133.0</ele><time>2026-04-26T09:41:07.909Z</time></trkpt><trkpt lat="38.207884533559884" lon="15.545767694708056"><ele>133.0</ele><time>2026-04-26T09:41:08.909Z</time></trkpt><trkpt lat="38.20763329281425" lon="15.54605033764442"><ele>133.0</ele><time>2026-04-26T09:41:09.909Z</time></trkpt><trkpt lat="38.20735699944006" lon="15.546305333067036"><ele>120.0</ele><time>2026-04-26T09:41:10.909Z</time></trkpt><trkpt lat="38.207066727520136" lon="15.546547660097039"><ele>107.0</ele><time>2026-04-26T09:41:11.909Z</time></trkpt><trkpt lat="38.20674582483673" lon="15.546736495978989"><ele>93.0</ele><time>2026-04-26T09:41:12.909Z</time></trkpt><trkpt lat="38.206414137981525" lon="15.54689802304763"><ele>79.0</ele><time>2026-04-26T09:41:13.909Z</time></trkpt><trkpt lat="38.20607202980398" lon="15.547025638178171"><ele>79.5</ele><time>2026-04-26T09:41:14.909Z</time></trkpt><trkpt lat="38.20571604178033" lon="15.547102172174089"><ele>80.0</ele><time>2026-04-26T09:41:15.909Z</time></trkpt><trkpt lat="38.20536649285722" lon="15.547143050669865"><ele>80.0</ele><time>2026-04-26T09:41:16.909Z</time></trkpt><trkpt lat="38.20501473606955" lon="15.547126540995704"><ele>80.0</ele><time>2026-04-26T09:41:17.909Z</time></trkpt><trkpt lat="38.204658812541034" lon="15.547075088453266"><ele>96.0</ele><time>2026-04-26T09:41:18.909Z</time></trkpt><trkpt lat="38.20431667734928" lon="15.54697083714535"><ele>112.0</ele><time>2026-04-26T09:41:19.909Z</time></trkpt><trkpt lat="38.20398101893538" lon="15.546836242717378"><ele>112.0</ele><time>2026-04-26T09:41:20.909Z</time></trkpt><trkpt lat="38.203660563363165" lon="15.546666221011549"><ele>112.0</ele><time>2026-04-26T09:41:21.909Z</time></trkpt><trkpt lat="38.203358140631316" lon="15.546441815864712"><ele>122.0</ele><time>2026-04-26T09:41:22.909Z</time></trkpt><trkpt lat="38.20306707923048" lon="15.546209088714791"><ele>132.0</ele><time>2026-04-26T09:41:23.909Z</time></trkpt><trkpt lat="38.20278428676483" lon="15.545960143367703"><ele>132.0</ele><time>2026-04-26T09:41:24.909Z</time></trkpt><trkpt lat="38.20249900757309" lon="15.545712951804589"><ele>132.0</ele><time>2026-04-26T09:41:25.909Z</time></trkpt><trkpt lat="38.20221151495372" lon="15.545474210748814"><ele>144.5</ele><time>2026-04-26T09:41:26.909Z</time></trkpt><trkpt lat="38.201923042948266" lon="15.545234650162095"><ele>157.0</ele><time>2026-04-26T09:41:27.909Z</time></trkpt><trkpt lat="38.20162950388875" lon="15.544972932503669"><ele>147.0</ele><time>2026-04-26T09:41:28.909Z</time></trkpt><trkpt lat="38.20132534788508" lon="15.544719657342519"><ele>137.0</ele><time>2026-04-26T09:41:29.909Z</time></trkpt><trkpt lat="38.2010217127772" lon="15.544486378624715"><ele>137.0</ele><time>2026-04-26T09:41:30.909Z</time></trkpt><trkpt lat="38.20074853282401" lon="15.544218715488926"><ele>137.0</ele><time>2026-04-26T09:41:32.05Z</time></trkpt><trkpt lat="38.20005125023477" lon="15.54295360808436"><ele>121.0</ele><time>2026-04-26T09:41:35.909Z</time></trkpt><trkpt lat="38.19987107909307" lon="15.542708652696625"><ele>105.0</ele><time>2026-04-26T09:41:36.909Z</time></trkpt><trkpt lat="38.19967014088243" lon="15.54234645068933"><ele>107.0</ele><time>2026-04-26T09:41:37.909Z</time></trkpt><trkpt lat="38.19948776816012" lon="15.542013721709482"><ele>109.0</ele><time>2026-04-26T09:41:38.909Z</time></trkpt><trkpt lat="38.199298121239664" lon="15.541672256141291"><ele>109.0</ele><time>2026-04-26T09:41:39.909Z</time></trkpt><trkpt lat="38.199113077893976" lon="15.541312410082071"><ele>109.0</ele><time>2026-04-26T09:41:40.908Z</time></trkpt><trkpt lat="38.19893899119334" lon="15.54093744193158"><ele>107.0</ele><time>2026-04-26T09:41:41.908Z</time></trkpt><trkpt lat="38.19876208421383" lon="15.540559351422425"><ele>105.0</ele><time>2026-04-26T09:41:42.908Z</time></trkpt><trkpt lat="38.19859308502897" lon="15.540184101088148"><ele>106.0</ele><time>2026-04-26T09:41:43.908Z</time></trkpt><trkpt lat="38.19842170801972" lon="15.539812366694102"><ele>107.0</ele><time>2026-04-26T09:41:44.908Z</time></trkpt><trkpt lat="38.19826056541241" lon="15.539442968933807"><ele>103.5</ele><time>2026-04-26T09:41:45.908Z</time></trkpt><trkpt lat="38.19809664315395" lon="15.539076484797798"><ele>100.0</ele><time>2026-04-26T09:41:46.908Z</time></trkpt><trkpt lat="38.197934489676015" lon="15.53870544294109"><ele>100.0</ele><time>2026-04-26T09:41:47.908Z</time></trkpt><trkpt lat="38.197767544799454" lon="15.538332273969118"><ele>100.0</ele><time>2026-04-26T09:41:48.908Z</time></trkpt><trkpt lat="38.1976077642654" lon="15.537962337120577"><ele>96.0</ele><time>2026-04-26T09:41:49.908Z</time></trkpt><trkpt lat="38.19743990015273" lon="15.537585182148627"><ele>92.0</ele><time>2026-04-26T09:41:50.908Z</time></trkpt><trkpt lat="38.19727593809059" lon="15.537209983295776"><ele>99.0</ele><time>2026-04-26T09:41:51.908Z</time></trkpt><trkpt lat="38.19710921558508" lon="15.536833211358564"><ele>106.0</ele><time>2026-04-26T09:41:52.908Z</time></trkpt><trkpt lat="38.196942918254344" lon="15.536458855006368"><ele>114.5</ele><time>2026-04-26T09:41:53.908Z</time></trkpt><trkpt lat="38.196776465175645" lon="15.536092651670126"><ele>123.0</ele><time>2026-04-26T09:41:54.908Z</time></trkpt><trkpt lat="38.19661141036535" lon="15.535723612874605"><ele>128.0</ele><time>2026-04-26T09:41:55.908Z</time></trkpt><trkpt lat="38.1964461838715" lon="15.535357655974229"><ele>133.0</ele><time>2026-04-26T09:41:56.908Z</time></trkpt><trkpt lat="38.19626601343325" lon="15.534960560370948"><ele>133.0</ele><time>2026-04-26T09:41:57.908Z</time></trkpt><trkpt lat="38.196113694451064" lon="15.534575254844587"><ele>133.0</ele><time>2026-04-26T09:41:58.908Z</time></trkpt><trkpt lat="38.19595502638447" lon="15.53420447157398"><ele>138.5</ele><time>2026-04-26T09:41:59.908Z</time></trkpt><trkpt lat="38.19578693625952" lon="15.53384938370503"><ele>144.0</ele><time>2026-04-26T09:42:00.908Z</time></trkpt><trkpt lat="38.19561820131793" lon="15.533493880789855"><ele>165.5</ele><time>2026-04-26T09:42:01.908Z</time></trkpt><trkpt lat="38.19545385933553" lon="15.533119614694447"><ele>187.0</ele><time>2026-04-26T09:42:02.908Z</time></trkpt><trkpt lat="38.19528900895042" lon="15.532736983424128"><ele>190.0</ele><time>2026-04-26T09:42:03.908Z</time></trkpt><trkpt lat="38.19512259332748" lon="15.532352796414694"><ele>193.0</ele><time>2026-04-26T09:42:04.908Z</time></trkpt><trkpt lat="38.19495902863266" lon="15.53197665192855"><ele>162.5</ele><time>2026-04-26T09:42:05.908Z</time></trkpt><trkpt lat="38.1947932687073" lon="15.531605933120451"><ele>132.0</ele><time>2026-04-26T09:42:06.908Z</time></trkpt><trkpt lat="38.19374513148097" lon="15.53072867938046"><ele>132.0</ele><time>2026-04-26T09:42:10.908Z</time></trkpt><trkpt lat="38.19337751492623" lon="15.530628835061725"><ele>132.0</ele><time>2026-04-26T09:42:11.908Z</time></trkpt><trkpt lat="38.19312782154673" lon="15.530394448042816"><ele>145.0</ele><time>2026-04-26T09:42:12.908Z</time></trkpt><trkpt lat="38.19286711312068" lon="15.530160120310127"><ele>158.0</ele><time>2026-04-26T09:42:13.908Z</time></trkpt><trkpt lat="38.192610568444955" lon="15.52993264806455"><ele>158.0</ele><time>2026-04-26T09:42:14.908Z</time></trkpt><trkpt lat="38.192351199961266" lon="15.529703875503865"><ele>158.0</ele><time>2026-04-26T09:42:15.908Z</time></trkpt><trkpt lat="38.19209021500319" lon="15.529471698508965"><ele>175.0</ele><time>2026-04-26T09:42:16.908Z</time></trkpt><trkpt lat="38.19183195634302" lon="15.529224436683306"><ele>192.0</ele><time>2026-04-26T09:42:17.908Z</time></trkpt><trkpt lat="38.18936218399545" lon="15.52842952206247"><ele>107.0</ele><time>2026-04-26T09:42:25.907Z</time></trkpt><trkpt lat="38.188763824358944" lon="15.528596835234367"><ele>107.0</ele><time>2026-04-26T09:42:26.907Z</time></trkpt><trkpt lat="38.18842700312924" lon="15.528556060741833"><ele>107.0</ele><time>2026-04-26T09:42:27.907Z</time></trkpt><trkpt lat="38.18813835118153" lon="15.52841958773238"><ele>107.5</ele><time>2026-04-26T09:42:28.909Z</time></trkpt><trkpt lat="38.18788526485487" lon="15.528193167375415"><ele>108.0</ele><time>2026-04-26T09:42:29.909Z</time></trkpt><trkpt lat="38.18765478830848" lon="15.527923372997778"><ele>111.5</ele><time>2026-04-26T09:42:30.909Z</time></trkpt><trkpt lat="38.18742731391269" lon="15.527641864741026"><ele>115.0</ele><time>2026-04-26T09:42:31.909Z</time></trkpt><trkpt lat="38.18719377651502" lon="15.527370703223164"><ele>123.0</ele><time>2026-04-26T09:42:32.909Z</time></trkpt><trkpt lat="38.1869965932049" lon="15.52707484381369"><ele>131.0</ele><time>2026-04-26T09:42:33.909Z</time></trkpt><trkpt lat="38.18679283985733" lon="15.526790736904802"><ele>131.0</ele><time>2026-04-26T09:42:34.909Z</time></trkpt><trkpt lat="38.186586833087176" lon="15.526502049966039"><ele>131.0</ele><time>2026-04-26T09:42:35.909Z</time></trkpt><trkpt lat="38.18637511412352" lon="15.526223920375195"><ele>134.0</ele><time>2026-04-26T09:42:36.909Z</time></trkpt><trkpt lat="38.186142683293184" lon="15.525969485016619"><ele>137.0</ele><time>2026-04-26T09:42:37.909Z</time></trkpt><trkpt lat="38.18589953329748" lon="15.525744437418023"><ele>140.5</ele><time>2026-04-26T09:42:38.909Z</time></trkpt><trkpt lat="38.18563846020455" lon="15.525531533332993"><ele>144.0</ele><time>2026-04-26T09:42:39.909Z</time></trkpt><trkpt lat="38.18536594883329" lon="15.525350555422337"><ele>144.0</ele><time>2026-04-26T09:42:40.909Z</time></trkpt><trkpt lat="38.18508609752709" lon="15.525164224634013"><ele>144.0</ele><time>2026-04-26T09:42:41.909Z</time></trkpt><trkpt lat="38.184783179576364" lon="15.525024408676984"><ele>150.5</ele><time>2026-04-26T09:42:42.909Z</time></trkpt><trkpt lat="38.18446795831762" lon="15.52491888482379"><ele>157.0</ele><time>2026-04-26T09:42:43.908Z</time></trkpt><trkpt lat="38.18415822134839" lon="15.524828449373416"><ele>166.0</ele><time>2026-04-26T09:42:44.908Z</time></trkpt><trkpt lat="38.18385098516494" lon="15.524717362513995"><ele>175.0</ele><time>2026-04-26T09:42:45.908Z</time></trkpt><trkpt lat="38.183541798607564" lon="15.52471415004019"><ele>175.0</ele><time>2026-04-26T09:42:46.908Z</time></trkpt><trkpt lat="38.18323510629861" lon="15.524714937234188"><ele>175.0</ele><time>2026-04-26T09:42:47.908Z</time></trkpt><trkpt lat="38.182931911568595" lon="15.524742707318318"><ele>183.5</ele><time>2026-04-26T09:42:48.908Z</time></trkpt><trkpt lat="38.18261680179487" lon="15.524781705008891"><ele>192.0</ele><time>2026-04-26T09:42:49.908Z</time></trkpt><trkpt lat="38.18231487960677" lon="15.524824454716434"><ele>192.0</ele><time>2026-04-26T09:42:50.908Z</time></trkpt><trkpt lat="38.18197316782659" lon="15.524835312559512"><ele>192.0</ele><time>2026-04-26T09:42:52.049Z</time></trkpt><trkpt lat="38.17992923041851" lon="15.524624590995494"><ele>168.5</ele><time>2026-04-26T09:42:57.908Z</time></trkpt><trkpt lat="38.17958653121194" lon="15.524594705081734"><ele>145.0</ele><time>2026-04-26T09:42:58.908Z</time></trkpt><trkpt lat="38.17922266355241" lon="15.524811837777333"><ele>148.0</ele><time>2026-04-26T09:42:59.908Z</time></trkpt><trkpt lat="38.17888252402182" lon="15.524794632119475"><ele>151.0</ele><time>2026-04-26T09:43:00.908Z</time></trkpt><trkpt lat="38.17853441576808" lon="15.524691898331914"><ele>158.5</ele><time>2026-04-26T09:43:01.908Z</time></trkpt><trkpt lat="38.178237914770214" lon="15.52453769296767"><ele>166.0</ele><time>2026-04-26T09:43:02.908Z</time></trkpt><trkpt lat="38.17794651424783" lon="15.524392912259332"><ele>175.0</ele><time>2026-04-26T09:43:03.908Z</time></trkpt><trkpt lat="38.177643053367994" lon="15.524233931477106"><ele>184.0</ele><time>2026-04-26T09:43:04.908Z</time></trkpt><trkpt lat="38.17736827881784" lon="15.524018108490193"><ele>164.5</ele><time>2026-04-26T09:43:05.908Z</time></trkpt><trkpt lat="38.17712126902879" lon="15.52377711816384"><ele>145.0</ele><time>2026-04-26T09:43:06.908Z</time></trkpt><trkpt lat="38.17688468983082" lon="15.523523489610465"><ele>140.0</ele><time>2026-04-26T09:43:07.908Z</time></trkpt><trkpt lat="38.17667167506734" lon="15.523276906339254"><ele>135.0</ele><time>2026-04-26T09:43:08.908Z</time></trkpt><trkpt lat="38.17646941171374" lon="15.523011847105096"><ele>124.5</ele><time>2026-04-26T09:43:09.908Z</time></trkpt><trkpt lat="38.176291291333165" lon="15.522740734676951"><ele>114.0</ele><time>2026-04-26T09:43:10.908Z</time></trkpt><trkpt lat="38.176105736572055" lon="15.522436578832842"><ele>114.0</ele><time>2026-04-26T09:43:11.908Z</time></trkpt><trkpt lat="38.175927383378685" lon="15.522114419345469"><ele>114.0</ele><time>2026-04-26T09:43:12.908Z</time></trkpt><trkpt lat="38.175752948763076" lon="15.521753202195436"><ele>114.5</ele><time>2026-04-26T09:43:13.908Z</time></trkpt><trkpt lat="38.175579620726275" lon="15.521356990230938"><ele>115.0</ele><time>2026-04-26T09:43:14.908Z</time></trkpt><trkpt lat="38.175399464088876" lon="15.520989218787491"><ele>118.0</ele><time>2026-04-26T09:43:15.908Z</time></trkpt><trkpt lat="38.175228365314105" lon="15.5206191725545"><ele>121.0</ele><time>2026-04-26T09:43:16.908Z</time></trkpt><trkpt lat="38.175056959117775" lon="15.520265713286726"><ele>124.5</ele><time>2026-04-26T09:43:17.908Z</time></trkpt><trkpt lat="38.174893412311036" lon="15.519933535448503"><ele>128.0</ele><time>2026-04-26T09:43:18.908Z</time></trkpt><trkpt lat="38.174728861818565" lon="15.51962168795989"><ele>131.0</ele><time>2026-04-26T09:43:19.908Z</time></trkpt><trkpt lat="38.17457447146296" lon="15.519323451997705"><ele>134.0</ele><time>2026-04-26T09:43:20.908Z</time></trkpt><trkpt lat="38.17442920297274" lon="15.519052305441658"><ele>134.0</ele><time>2026-04-26T09:43:21.908Z</time></trkpt><trkpt lat="38.17428133567843" lon="15.518781791631168"><ele>134.0</ele><time>2026-04-26T09:43:22.908Z</time></trkpt><trkpt lat="38.17413882808612" lon="15.518501614451884"><ele>135.5</ele><time>2026-04-26T09:43:23.908Z</time></trkpt><trkpt lat="38.17399514772022" lon="15.518220317654128"><ele>137.0</ele><time>2026-04-26T09:43:24.908Z</time></trkpt><trkpt lat="38.17384794737763" lon="15.517959832434059"><ele>140.0</ele><time>2026-04-26T09:43:25.908Z</time></trkpt><trkpt lat="38.17368894863258" lon="15.51773269729783"><ele>143.0</ele><time>2026-04-26T09:43:26.908Z</time></trkpt><trkpt lat="38.17352650128887" lon="15.517509291458776"><ele>143.0</ele><time>2026-04-26T09:43:27.908Z</time></trkpt><trkpt lat="38.173356808291324" lon="15.517308017962835"><ele>143.0</ele><time>2026-04-26T09:43:28.907Z</time></trkpt><trkpt lat="38.173181359724786" lon="15.517127520170959"><ele>143.5</ele><time>2026-04-26T09:43:29.907Z</time></trkpt><trkpt lat="38.173003021007105" lon="15.5169513830116"><ele>144.0</ele><time>2026-04-26T09:43:30.907Z</time></trkpt><trkpt lat="38.17282117138631" lon="15.516784775772786"><ele>144.0</ele><time>2026-04-26T09:43:31.907Z</time></trkpt><trkpt lat="38.172634378712274" lon="15.516617816915085"><ele>144.0</ele><time>2026-04-26T09:43:32.907Z</time></trkpt><trkpt lat="38.172438167939" lon="15.516469002738804"><ele>142.5</ele><time>2026-04-26T09:43:33.907Z</time></trkpt><trkpt lat="38.1722387570796" lon="15.516325111839338"><ele>141.0</ele><time>2026-04-26T09:43:34.907Z</time></trkpt><trkpt lat="38.172029290038026" lon="15.516193284073358"><ele>145.5</ele><time>2026-04-26T09:43:35.907Z</time></trkpt><trkpt lat="38.171813221911066" lon="15.516070852143141"><ele>150.0</ele><time>2026-04-26T09:43:36.907Z</time></trkpt><trkpt lat="38.17158597470658" lon="15.515972857692773"><ele>153.5</ele><time>2026-04-26T09:43:37.907Z</time></trkpt><trkpt lat="38.171356252266484" lon="15.51587169505964"><ele>157.0</ele><time>2026-04-26T09:43:38.907Z</time></trkpt><trkpt lat="38.17112331306493" lon="15.515782243271177"><ele>157.0</ele><time>2026-04-26T09:43:39.907Z</time></trkpt><trkpt lat="38.170878565702964" lon="15.515699572852997"><ele>157.0</ele><time>2026-04-26T09:43:40.907Z</time></trkpt><trkpt lat="38.17061915542801" lon="15.515640813671672"><ele>164.0</ele><time>2026-04-26T09:43:41.907Z</time></trkpt><trkpt lat="38.17036299247423" lon="15.515561992805946"><ele>171.0</ele><time>2026-04-26T09:43:42.907Z</time></trkpt><trkpt lat="38.17010811000309" lon="15.515488157141446"><ele>175.5</ele><time>2026-04-26T09:43:43.907Z</time></trkpt><trkpt lat="38.16984918834301" lon="15.515417003467714"><ele>180.0</ele><time>2026-04-26T09:43:44.907Z</time></trkpt><trkpt lat="38.16959335592792" lon="15.515337244471178"><ele>184.5</ele><time>2026-04-26T09:43:45.907Z</time></trkpt><trkpt lat="38.169343947415165" lon="15.515259015431681"><ele>189.0</ele><time>2026-04-26T09:43:46.907Z</time></trkpt><trkpt lat="38.169081995510034" lon="15.515183718139665"><ele>198.0</ele><time>2026-04-26T09:43:47.907Z</time></trkpt><trkpt lat="38.168909092015085" lon="15.515010293147279"><ele>207.0</ele><time>2026-04-26T09:43:48.907Z</time></trkpt><trkpt lat="38.16862499629064" lon="15.514914473280394"><ele>183.0</ele><time>2026-04-26T09:43:50.05Z</time></trkpt><trkpt lat="38.16651738408745" lon="15.514648708808073"><ele>156.0</ele><time>2026-04-26T09:44:00.383Z</time></trkpt><trkpt lat="38.16421105753703" lon="15.514607512693631"><ele>154.0</ele><time>2026-04-26T09:44:02.907Z</time></trkpt><trkpt lat="38.163892688810506" lon="15.514673863392003"><ele>152.0</ele><time>2026-04-26T09:44:03.907Z</time></trkpt><trkpt lat="38.16351827306021" lon="15.51466355302937"><ele>148.0</ele><time>2026-04-26T09:44:04.907Z</time></trkpt><trkpt lat="38.163180165930775" lon="15.514652962105508"><ele>144.0</ele><time>2026-04-26T09:44:05.907Z</time></trkpt><trkpt lat="38.16284290694413" lon="15.51464026744946"><ele>144.0</ele><time>2026-04-26T09:44:06.907Z</time></trkpt><trkpt lat="38.162518394638155" lon="15.51462287444281"><ele>144.0</ele><time>2026-04-26T09:44:07.907Z</time></trkpt><trkpt lat="38.16219975625125" lon="15.514609532986647"><ele>141.5</ele><time>2026-04-26T09:44:08.907Z</time></trkpt><trkpt lat="38.16188803492448" lon="15.514595029269943"><ele>139.0</ele><time>2026-04-26T09:44:09.907Z</time></trkpt><trkpt lat="38.16159073355262" lon="15.514578196379993"><ele>144.0</ele><time>2026-04-26T09:44:10.907Z</time></trkpt><trkpt lat="38.16129887957138" lon="15.514563168578665"><ele>149.0</ele><time>2026-04-26T09:44:11.907Z</time></trkpt><trkpt lat="38.16102453628736" lon="15.51454437801367"><ele>149.0</ele><time>2026-04-26T09:44:12.907Z</time></trkpt><trkpt lat="38.160774177084" lon="15.514516362502402"><ele>149.0</ele><time>2026-04-26T09:44:13.906Z</time></trkpt><trkpt lat="38.16054864140547" lon="15.514485120618998"><ele>146.66666666666666</ele><time>2026-04-26T09:44:14.906Z</time></trkpt><trkpt lat="38.16033516772925" lon="15.514442827265881"><ele>144.33333333333334</ele><time>2026-04-26T09:44:15.906Z</time></trkpt><trkpt lat="38.16013356088271" lon="15.514398616809215"><ele>142.0</ele><time>2026-04-26T09:44:16.906Z</time></trkpt><trkpt lat="38.159945583918635" lon="15.514355028237542"><ele>137.0</ele><time>2026-04-26T09:44:17.906Z</time></trkpt><trkpt lat="38.15976042027032" lon="15.514309846157326"><ele>132.0</ele><time>2026-04-26T09:44:18.906Z</time></trkpt><trkpt lat="38.159587006571826" lon="15.514248178353744"><ele>127.0</ele><time>2026-04-26T09:44:19.906Z</time></trkpt><trkpt lat="38.159405564787946" lon="15.514181031304245"><ele>127.0</ele><time>2026-04-26T09:44:20.906Z</time></trkpt><trkpt lat="38.15922525714367" lon="15.51411707021091"><ele>127.0</ele><time>2026-04-26T09:44:21.906Z</time></trkpt><trkpt lat="38.15904565994689" lon="15.514046713562944"><ele>127.0</ele><time>2026-04-26T09:44:22.906Z</time></trkpt><trkpt lat="38.15885872843616" lon="15.513969950649216"><ele>124.0</ele><time>2026-04-26T09:44:23.906Z</time></trkpt><trkpt lat="38.15864419880414" lon="15.513881845653469"><ele>121.0</ele><time>2026-04-26T09:44:24.906Z</time></trkpt><trkpt lat="38.15840769334689" lon="15.513762628314987"><ele>126.5</ele><time>2026-04-26T09:44:25.906Z</time></trkpt><trkpt lat="38.15815279592738" lon="15.5136232262045"><ele>132.0</ele><time>2026-04-26T09:44:26.906Z</time></trkpt><trkpt lat="38.157883400155036" lon="15.513462488059838"><ele>132.0</ele><time>2026-04-26T09:44:27.906Z</time></trkpt><trkpt lat="38.15759620803673" lon="15.513297991881737"><ele>132.0</ele><time>2026-04-26T09:44:28.906Z</time></trkpt><trkpt lat="38.15729939253663" lon="15.513124554088071"><ele>134.0</ele><time>2026-04-26T09:44:29.906Z</time></trkpt><trkpt lat="38.156992340135695" lon="15.512937874612838"><ele>136.0</ele><time>2026-04-26T09:44:30.906Z</time></trkpt><trkpt lat="38.15667491506677" lon="15.51274174458681"><ele>131.5</ele><time>2026-04-26T09:44:31.906Z</time></trkpt><trkpt lat="38.15635516013753" lon="15.512544326627935"><ele>127.0</ele><time>2026-04-26T09:44:32.906Z</time></trkpt><trkpt lat="38.15603013473558" lon="15.512345616221713"><ele>128.5</ele><time>2026-04-26T09:44:33.906Z</time></trkpt><trkpt lat="38.15570340468893" lon="15.5121450841703"><ele>130.0</ele><time>2026-04-26T09:44:34.908Z</time></trkpt><trkpt lat="38.15537818615831" lon="15.511952926691364"><ele>130.0</ele><time>2026-04-26T09:44:35.908Z</time></trkpt><trkpt lat="38.155054308314604" lon="15.51176301325987"><ele>130.0</ele><time>2026-04-26T09:44:36.908Z</time></trkpt><trkpt lat="38.1547332310047" lon="15.51157505540205"><ele>131.0</ele><time>2026-04-26T09:44:37.908Z</time></trkpt><trkpt lat="38.15441652557289" lon="15.511385576981326"><ele>132.0</ele><time>2026-04-26T09:44:38.908Z</time></trkpt><trkpt lat="38.154100119975624" lon="15.511198489389677"><ele>127.5</ele><time>2026-04-26T09:44:39.908Z</time></trkpt><trkpt lat="38.15378534913741" lon="15.511012325644055"><ele>123.0</ele><time>2026-04-26T09:44:40.908Z</time></trkpt><trkpt lat="38.15347593745792" lon="15.510827739679748"><ele>119.0</ele><time>2026-04-26T09:44:41.908Z</time></trkpt><trkpt lat="38.15317300370143" lon="15.510647105347529"><ele>115.0</ele><time>2026-04-26T09:44:42.907Z</time></trkpt><trkpt lat="38.152866610126004" lon="15.510477003391605"><ele>114.5</ele><time>2026-04-26T09:44:43.908Z</time></trkpt><trkpt lat="38.1525433204381" lon="15.510340169975398"><ele>114.0</ele><time>2026-04-26T09:44:44.908Z</time></trkpt><trkpt lat="38.15221619613975" lon="15.510243656384752"><ele>111.5</ele><time>2026-04-26T09:44:45.908Z</time></trkpt><trkpt lat="38.15188699065368" lon="15.510195331534582"><ele>109.0</ele><time>2026-04-26T09:44:46.908Z</time></trkpt><trkpt lat="38.15155148330907" lon="15.510194850854962"><ele>106.0</ele><time>2026-04-26T09:44:47.907Z</time></trkpt><trkpt lat="38.15121432047099" lon="15.510224165618101"><ele>103.0</ele><time>2026-04-26T09:44:48.907Z</time></trkpt><trkpt lat="38.15087430342614" lon="15.510296074606414"><ele>104.0</ele><time>2026-04-26T09:44:49.907Z</time></trkpt><trkpt lat="38.150548442025766" lon="15.510404427928734"><ele>105.0</ele><time>2026-04-26T09:44:50.907Z</time></trkpt><trkpt lat="38.15022561650638" lon="15.510545966532863"><ele>102.0</ele><time>2026-04-26T09:44:51.907Z</time></trkpt><trkpt lat="38.14991746612283" lon="15.51071791242996"><ele>99.0</ele><time>2026-04-26T09:44:52.907Z</time></trkpt><trkpt lat="38.14961529721421" lon="15.510924359792403"><ele>98.5</ele><time>2026-04-26T09:44:53.907Z</time></trkpt><trkpt lat="38.14933631082615" lon="15.511141221477226"><ele>98.0</ele><time>2026-04-26T09:44:54.907Z</time></trkpt><trkpt lat="38.14910973907642" lon="15.511411770529755"><ele>99.0</ele><time>2026-04-26T09:44:55.907Z</time></trkpt><trkpt lat="38.148910103880475" lon="15.51168874735437"><ele>100.0</ele><time>2026-04-26T09:44:56.907Z</time></trkpt><trkpt lat="38.14871020723515" lon="15.511956357207337"><ele>98.5</ele><time>2026-04-26T09:44:57.907Z</time></trkpt><trkpt lat="38.14853145237126" lon="15.51226078199668"><ele>97.0</ele><time>2026-04-26T09:44:58.907Z</time></trkpt><trkpt lat="38.148360420838316" lon="15.51259759198545"><ele>101.5</ele><time>2026-04-26T09:44:59.907Z</time></trkpt><trkpt lat="38.14819233971033" lon="15.512968424138828"><ele>106.0</ele><time>2026-04-26T09:45:00.907Z</time></trkpt><trkpt lat="38.14801487899554" lon="15.513353321766683"><ele>99.0</ele><time>2026-04-26T09:45:01.907Z</time></trkpt><trkpt lat="38.14783623994249" lon="15.513747604941296"><ele>92.0</ele><time>2026-04-26T09:45:02.907Z</time></trkpt><trkpt lat="38.14765041825216" lon="15.514149640347643"><ele>87.5</ele><time>2026-04-26T09:45:03.907Z</time></trkpt><trkpt lat="38.14747215005291" lon="15.514571590693917"><ele>83.0</ele><time>2026-04-26T09:45:04.907Z</time></trkpt><trkpt lat="38.14728743532429" lon="15.514975031471005"><ele>83.0</ele><time>2026-04-26T09:45:05.907Z</time></trkpt><trkpt lat="38.14710542524502" lon="15.515363761815035"><ele>83.0</ele><time>2026-04-26T09:45:06.907Z</time></trkpt><trkpt lat="38.14691981351752" lon="15.515729349131297"><ele>84.5</ele><time>2026-04-26T09:45:07.907Z</time></trkpt><trkpt lat="38.146729091174834" lon="15.516075973852361"><ele>86.0</ele><time>2026-04-26T09:45:08.907Z</time></trkpt><trkpt lat="38.1465272214638" lon="15.516373816338328"><ele>86.0</ele><time>2026-04-26T09:45:09.907Z</time></trkpt><trkpt lat="38.14631379086428" lon="15.516649200362854"><ele>86.0</ele><time>2026-04-26T09:45:10.907Z</time></trkpt><trkpt lat="38.14608576711839" lon="15.516913122772454"><ele>80.0</ele><time>2026-04-26T09:45:11.907Z</time></trkpt><trkpt lat="38.14585240805103" lon="15.517146038373683"><ele>74.0</ele><time>2026-04-26T09:45:12.907Z</time></trkpt><trkpt lat="38.14560837644566" lon="15.517373887246508"><ele>74.0</ele><time>2026-04-26T09:45:13.907Z</time></trkpt><trkpt lat="38.14533694988294" lon="15.517576150435373"><ele>74.0</ele><time>2026-04-26T09:45:14.907Z</time></trkpt><trkpt lat="38.145046470811266" lon="15.517740970942503"><ele>69.5</ele><time>2026-04-26T09:45:15.907Z</time></trkpt><trkpt lat="38.14473813269638" lon="15.517890718581029"><ele>65.0</ele><time>2026-04-26T09:45:16.907Z</time></trkpt><trkpt lat="38.14442182959725" lon="15.51801277891177"><ele>61.5</ele><time>2026-04-26T09:45:17.907Z</time></trkpt><trkpt lat="38.144104620280956" lon="15.5180950280404"><ele>58.0</ele><time>2026-04-26T09:45:18.907Z</time></trkpt><trkpt lat="38.1437776908211" lon="15.518142197060653"><ele>58.0</ele><time>2026-04-26T09:45:19.907Z</time></trkpt><trkpt lat="38.14344953917409" lon="15.518172889211135"><ele>58.0</ele><time>2026-04-26T09:45:20.907Z</time></trkpt><trkpt lat="38.143116316539604" lon="15.518171175215668"><ele>55.5</ele><time>2026-04-26T09:45:21.907Z</time></trkpt><trkpt lat="38.14278471271118" lon="15.518156569494508"><ele>53.0</ele><time>2026-04-26T09:45:22.907Z</time></trkpt><trkpt lat="38.142450904262425" lon="15.518101601289892"><ele>52.5</ele><time>2026-04-26T09:45:23.907Z</time></trkpt><trkpt lat="38.14213007891191" lon="15.51805290820789"><ele>52.0</ele><time>2026-04-26T09:45:24.907Z</time></trkpt><trkpt lat="38.14182253497359" lon="15.51802132340424"><ele>51.0</ele><time>2026-04-26T09:45:25.907Z</time></trkpt><trkpt lat="38.14153168460643" lon="15.518013949042729"><ele>50.0</ele><time>2026-04-26T09:45:26.907Z</time></trkpt><trkpt lat="38.14125987967605" lon="15.518023997325338"><ele>50.0</ele><time>2026-04-26T09:45:27.907Z</time></trkpt><trkpt lat="38.14100649549095" lon="15.518056598296859"><ele>50.0</ele><time>2026-04-26T09:45:28.907Z</time></trkpt><trkpt lat="38.14076812436959" lon="15.518109476418264"><ele>51.0</ele><time>2026-04-26T09:45:29.907Z</time></trkpt><trkpt lat="38.14053395076551" lon="15.51818026427898"><ele>52.0</ele><time>2026-04-26T09:45:30.906Z</time></trkpt><trkpt lat="38.14030604033765" lon="15.518272677202905"><ele>52.0</ele><time>2026-04-26T09:45:31.906Z</time></trkpt><trkpt lat="38.140082447856955" lon="15.518374974531989"><ele>52.0</ele><time>2026-04-26T09:45:32.906Z</time></trkpt><trkpt lat="38.139875369015655" lon="15.518471353602362"><ele>52.0</ele><time>2026-04-26T09:45:33.906Z</time></trkpt><trkpt lat="38.1396828975616" lon="15.518565642971426"><ele>52.0</ele><time>2026-04-26T09:45:34.906Z</time></trkpt><trkpt lat="38.13949816617299" lon="15.518666692936186"><ele>52.0</ele><time>2026-04-26T09:45:35.906Z</time></trkpt><trkpt lat="38.139326835839185" lon="15.518789095107058"><ele>49.33333333333333</ele><time>2026-04-26T09:45:36.906Z</time></trkpt><trkpt lat="38.139152593882656" lon="15.518911192338049"><ele>46.666666666666664</ele><time>2026-04-26T09:45:37.906Z</time></trkpt><trkpt lat="38.13898100132909" lon="15.519013793732812"><ele>44.0</ele><time>2026-04-26T09:45:38.906Z</time></trkpt><trkpt lat="38.1387992732313" lon="15.519095807953908"><ele>43.0</ele><time>2026-04-26T09:45:39.906Z</time></trkpt><trkpt lat="38.13860627441199" lon="15.519169642166727"><ele>42.0</ele><time>2026-04-26T09:45:40.906Z</time></trkpt><trkpt lat="38.13841046184595" lon="15.519221062658865"><ele>41.0</ele><time>2026-04-26T09:45:41.906Z</time></trkpt><trkpt lat="38.13822541847834" lon="15.519235151464326"><ele>41.0</ele><time>2026-04-26T09:45:42.906Z</time></trkpt><trkpt lat="38.138045901019254" lon="15.519233711579341"><ele>41.0</ele><time>2026-04-26T09:45:43.906Z</time></trkpt><trkpt lat="38.13787730809766" lon="15.519198677449781"><ele>41.0</ele><time>2026-04-26T09:45:44.906Z</time></trkpt><trkpt lat="38.13770452894149" lon="15.519167952709328"><ele>41.0</ele><time>2026-04-26T09:45:45.906Z</time></trkpt><trkpt lat="38.13754254678479" lon="15.519144536576178"><ele>41.0</ele><time>2026-04-26T09:45:46.906Z</time></trkpt><trkpt lat="38.13738137346828" lon="15.519151842616397"><ele>41.0</ele><time>2026-04-26T09:45:47.906Z</time></trkpt><trkpt lat="38.137216825576196" lon="15.51919578617551"><ele>40.0</ele><time>2026-04-26T09:45:48.906Z</time></trkpt><trkpt lat="38.13705279018861" lon="15.519290779251834"><ele>39.0</ele><time>2026-04-26T09:45:49.906Z</time></trkpt><trkpt lat="38.136904051425695" lon="15.519416585454081"><ele>38.0</ele><time>2026-04-26T09:45:50.906Z</time></trkpt><trkpt lat="38.13678312270529" lon="15.519565591942149"><ele>36.666666666666664</ele><time>2026-04-26T09:45:51.906Z</time></trkpt><trkpt lat="38.13665642087102" lon="15.519718546206308"><ele>35.333333333333336</ele><time>2026-04-26T09:45:52.906Z</time></trkpt><trkpt lat="38.136505462880415" lon="15.519875476827053"><ele>34.0</ele><time>2026-04-26T09:45:53.906Z</time></trkpt><trkpt lat="38.13633956525498" lon="15.520039138015749"><ele>34.0</ele><time>2026-04-26T09:45:54.906Z</time></trkpt><trkpt lat="38.136178212965554" lon="15.520190774392722"><ele>34.0</ele><time>2026-04-26T09:45:55.906Z</time></trkpt><trkpt lat="38.13601963916563" lon="15.520343070445529"><ele>34.0</ele><time>2026-04-26T09:45:56.906Z</time></trkpt><trkpt lat="38.135863565810965" lon="15.520493488414571"><ele>33.333333333333336</ele><time>2026-04-26T09:45:57.906Z</time></trkpt><trkpt lat="38.13565729441574" lon="15.520606028103947"><ele>32.666666666666664</ele><time>2026-04-26T09:45:58.906Z</time></trkpt><trkpt lat="38.135448192334586" lon="15.520617497897742"><ele>32.0</ele><time>2026-04-26T09:45:59.906Z</time></trkpt><trkpt lat="38.1352676875269" lon="15.520656428919882"><ele>32.0</ele><time>2026-04-26T09:46:00.906Z</time></trkpt><trkpt lat="38.13508515834242" lon="15.520699108641166"><ele>32.0</ele><time>2026-04-26T09:46:01.906Z</time></trkpt><trkpt lat="38.134911269978595" lon="15.520762806901049"><ele>32.0</ele><time>2026-04-26T09:46:02.906Z</time></trkpt><trkpt lat="38.13474318690121" lon="15.520813437658045"><ele>31.0</ele><time>2026-04-26T09:46:03.906Z</time></trkpt><trkpt lat="38.134573943271896" lon="15.520847949387337"><ele>30.0</ele><time>2026-04-26T09:46:04.906Z</time></trkpt><trkpt lat="38.134418558120835" lon="15.520841814545498"><ele>29.0</ele><time>2026-04-26T09:46:05.906Z</time></trkpt><trkpt lat="38.134268327860326" lon="15.520799708679878"><ele>29.0</ele><time>2026-04-26T09:46:06.906Z</time></trkpt><trkpt lat="38.13411786789765" lon="15.520709585443281"><ele>29.0</ele><time>2026-04-26T09:46:07.906Z</time></trkpt><trkpt lat="38.133973765848744" lon="15.520570507336238"><ele>29.0</ele><time>2026-04-26T09:46:08.906Z</time></trkpt><trkpt lat="38.13384546941711" lon="15.520436504983033"><ele>30.0</ele><time>2026-04-26T09:46:09.906Z</time></trkpt><trkpt lat="38.13372118601306" lon="15.520331527819149"><ele>31.0</ele><time>2026-04-26T09:46:10.906Z</time></trkpt><trkpt lat="38.133586075717226" lon="15.52026408353508"><ele>32.0</ele><time>2026-04-26T09:46:11.906Z</time></trkpt><trkpt lat="38.13344738619011" lon="15.520224631990317"><ele>33.0</ele><time>2026-04-26T09:46:12.906Z</time></trkpt><trkpt lat="38.13330563012218" lon="15.52024343831819"><ele>31.25</ele><time>2026-04-26T09:46:13.906Z</time></trkpt><trkpt lat="38.133180791227474" lon="15.520350311084442"><ele>29.5</ele><time>2026-04-26T09:46:14.906Z</time></trkpt><trkpt lat="38.13307533098944" lon="15.520491535226355"><ele>27.75</ele><time>2026-04-26T09:46:15.905Z</time></trkpt><trkpt lat="38.13299621124745" lon="15.520643470390334"><ele>26.0</ele><time>2026-04-26T09:46:16.905Z</time></trkpt><trkpt lat="38.13295302566826" lon="15.520826135918536"><ele>25.0</ele><time>2026-04-26T09:46:17.905Z</time></trkpt><trkpt lat="38.13293411264795" lon="15.520990781392145"><ele>24.0</ele><time>2026-04-26T09:46:18.905Z</time></trkpt><trkpt lat="38.132945213905366" lon="15.52113453478055"><ele>23.0</ele><time>2026-04-26T09:46:19.905Z</time></trkpt><trkpt lat="38.1329492856016" lon="15.521261247172902"><ele>22.0</ele><time>2026-04-26T09:46:20.905Z</time></trkpt><trkpt lat="38.132936621389575" lon="15.521380040356933"><ele>21.0</ele><time>2026-04-26T09:46:21.905Z</time></trkpt><trkpt lat="38.132923702339845" lon="15.521508186039682"><ele>20.8</ele><time>2026-04-26T09:46:22.905Z</time></trkpt><trkpt lat="38.13290625340491" lon="15.521632058373697"><ele>20.6</ele><time>2026-04-26T09:46:23.905Z</time></trkpt><trkpt lat="38.132880427801396" lon="15.521745643911647"><ele>20.4</ele><time>2026-04-26T09:46:24.905Z</time></trkpt><trkpt lat="38.13284121783265" lon="15.521848843508508"><ele>20.2</ele><time>2026-04-26T09:46:25.905Z</time></trkpt><trkpt lat="38.13278560335997" lon="15.521941746693612"><ele>20.0</ele><time>2026-04-26T09:46:26.905Z</time></trkpt><trkpt lat="38.132705143710034" lon="15.522012135666508"><ele>20.0</ele><time>2026-04-26T09:46:27.905Z</time></trkpt><trkpt lat="38.1326164809431" lon="15.522056655950717"><ele>20.0</ele><time>2026-04-26T09:46:28.905Z</time></trkpt><trkpt lat="38.13252202757061" lon="15.522074535446132"><ele>20.0</ele><time>2026-04-26T09:46:29.905Z</time></trkpt><trkpt lat="38.132422172992285" lon="15.522052877144853"><ele>20.0</ele><time>2026-04-26T09:46:30.905Z</time></trkpt><trkpt lat="38.13232576915892" lon="15.52202027417206"><ele>20.0</ele><time>2026-04-26T09:46:31.905Z</time></trkpt><trkpt lat="38.132240272575025" lon="15.521983753402276"><ele>19.0</ele><time>2026-04-26T09:46:32.905Z</time></trkpt><trkpt lat="38.132150472434205" lon="15.521951680477104"><ele>18.0</ele><time>2026-04-26T09:46:33.905Z</time></trkpt><trkpt lat="38.13206516042492" lon="15.521927667510148"><ele>17.0</ele><time>2026-04-26T09:46:34.905Z</time></trkpt><trkpt lat="38.13198194828584" lon="15.521905334958594"><ele>16.0</ele><time>2026-04-26T09:46:35.905Z</time></trkpt><trkpt lat="38.13189928717521" lon="15.521879695891158"><ele>15.000000000000002</ele><time>2026-04-26T09:46:36.905Z</time></trkpt><trkpt lat="38.13182552846294" lon="15.521850746301203"><ele>14.0</ele><time>2026-04-26T09:46:37.905Z</time></trkpt><trkpt lat="38.131755821066356" lon="15.521820728071704"><ele>14.0</ele><time>2026-04-26T09:46:38.905Z</time></trkpt><trkpt lat="38.131659018973735" lon="15.52177925496462"><ele>13.999999999999998</ele><time>2026-04-26T09:46:40.907Z</time></trkpt><trkpt lat="38.131564082394824" lon="15.52176424908108"><ele>13.999999999999998</ele><time>2026-04-26T09:46:43.906Z</time></trkpt><trkpt lat="38.1314432088722" lon="15.521735664488775"><ele>14.0</ele><time>2026-04-26T09:46:45.907Z</time></trkpt><trkpt lat="38.13136191394339" lon="15.521710664557261"><ele>14.0</ele><time>2026-04-26T09:46:46.907Z</time></trkpt><trkpt lat="38.131259495488955" lon="15.521671538342963"><ele>13.25</ele><time>2026-04-26T09:46:47.907Z</time></trkpt><trkpt lat="38.13116513020621" lon="15.521638422577453"><ele>12.5</ele><time>2026-04-26T09:46:48.907Z</time></trkpt><trkpt lat="38.1310618452843" lon="15.5216022401999"><ele>11.75</ele><time>2026-04-26T09:46:49.907Z</time></trkpt><trkpt lat="38.13094387965107" lon="15.521560800894587"><ele>11.0</ele><time>2026-04-26T09:46:50.907Z</time></trkpt><trkpt lat="38.13081623765306" lon="15.521486402017368"><ele>10.25</ele><time>2026-04-26T09:46:51.907Z</time></trkpt><trkpt lat="38.13067951579328" lon="15.521428511173223"><ele>9.5</ele><time>2026-04-26T09:46:52.907Z</time></trkpt><trkpt lat="38.130542873423884" lon="15.521370907898161"><ele>8.75</ele><time>2026-04-26T09:46:53.907Z</time></trkpt><trkpt lat="38.13041101894413" lon="15.521330778836706"><ele>8.0</ele><time>2026-04-26T09:46:54.907Z</time></trkpt><trkpt lat="38.13027132183303" lon="15.521275077031573"><ele>9.666666666666666</ele><time>2026-04-26T09:46:55.907Z</time></trkpt><trkpt lat="38.1301233615996" lon="15.521217860897073"><ele>11.333333333333332</ele><time>2026-04-26T09:46:56.907Z</time></trkpt><trkpt lat="38.12995665615896" lon="15.521158214021948"><ele>13.0</ele><time>2026-04-26T09:46:57.907Z</time></trkpt><trkpt lat="38.12977322156069" lon="15.521090945629181"><ele>13.0</ele><time>2026-04-26T09:46:58.907Z</time></trkpt><trkpt lat="38.12958627588848" lon="15.52100090363916"><ele>13.0</ele><time>2026-04-26T09:46:59.907Z</time></trkpt><trkpt lat="38.12942403608317" lon="15.520909698874869"><ele>13.0</ele><time>2026-04-26T09:47:00.906Z</time></trkpt><trkpt lat="38.129278716410546" lon="15.520841806097478"><ele>13.0</ele><time>2026-04-26T09:47:01.906Z</time></trkpt><trkpt lat="38.12914013382661" lon="15.52078167943127"><ele>13.0</ele><time>2026-04-26T09:47:02.906Z</time></trkpt><trkpt lat="38.129013670748336" lon="15.520715155356205"><ele>13.0</ele><time>2026-04-26T09:47:03.906Z</time></trkpt><trkpt lat="38.12889118656545" lon="15.520638049892575"><ele>13.0</ele><time>2026-04-26T09:47:04.906Z</time></trkpt><trkpt lat="38.12879282266565" lon="15.52051838442001"><ele>12.4</ele><time>2026-04-26T09:47:05.906Z</time></trkpt><trkpt lat="38.12869012283785" lon="15.520417239001858"><ele>11.8</ele><time>2026-04-26T09:47:06.906Z</time></trkpt><trkpt lat="38.12860515642738" lon="15.520333464217492"><ele>11.2</ele><time>2026-04-26T09:47:07.906Z</time></trkpt><trkpt lat="38.12853572880275" lon="15.520265452695988"><ele>10.6</ele><time>2026-04-26T09:47:08.906Z</time></trkpt><trkpt lat="38.12847104389839" lon="15.520204061508547"><ele>10.0</ele><time>2026-04-26T09:47:09.906Z</time></trkpt><trkpt lat="38.12840826547024" lon="15.520150529751872"><ele>10.333333333333334</ele><time>2026-04-26T09:47:10.906Z</time></trkpt><trkpt lat="38.128347034268465" lon="15.52010165855821"><ele>10.666666666666668</ele><time>2026-04-26T09:47:11.906Z</time></trkpt><trkpt lat="38.1282776645467" lon="15.520079349402582"><ele>11.0</ele><time>2026-04-26T09:47:12.906Z</time></trkpt><trkpt lat="38.12821581354526" lon="15.520047470794857"><ele>11.333333333333334</ele><time>2026-04-26T09:47:13.906Z</time></trkpt><trkpt lat="38.12814801272947" lon="15.520017371001225"><ele>11.666666666666666</ele><time>2026-04-26T09:47:14.906Z</time></trkpt><trkpt lat="38.12807372087777" lon="15.519963636690886"><ele>12.0</ele><time>2026-04-26T09:47:15.906Z</time></trkpt><trkpt lat="38.12799644772667" lon="15.519925700514266"><ele>12.0</ele><time>2026-04-26T09:47:16.906Z</time></trkpt><trkpt lat="38.127911219131455" lon="15.519883737812371"><ele>12.0</ele><time>2026-04-26T09:47:17.906Z</time></trkpt><trkpt lat="38.12782189792484" lon="15.519871229013505"><ele>12.0</ele><time>2026-04-26T09:47:18.906Z</time></trkpt><trkpt lat="38.127743668484236" lon="15.519827966449114"><ele>12.0</ele><time>2026-04-26T09:47:19.906Z</time></trkpt><trkpt lat="38.12766430916757" lon="15.519791783650808"><ele>12.0</ele><time>2026-04-26T09:47:20.906Z</time></trkpt><trkpt lat="38.127576003966304" lon="15.519743222733704"><ele>12.0</ele><time>2026-04-26T09:47:21.906Z</time></trkpt><trkpt lat="38.12749282370365" lon="15.519668562838104"><ele>12.0</ele><time>2026-04-26T09:47:22.906Z</time></trkpt><trkpt lat="38.12739815041264" lon="15.519619141806288"><ele>12.0</ele><time>2026-04-26T09:47:23.906Z</time></trkpt><trkpt lat="38.12730172840975" lon="15.519568809225934"><ele>12.0</ele><time>2026-04-26T09:47:24.906Z</time></trkpt><trkpt lat="38.12720447563811" lon="15.519517683819004"><ele>12.0</ele><time>2026-04-26T09:47:25.906Z</time></trkpt><trkpt lat="38.1270921475232" lon="15.519458596031248"><ele>12.0</ele><time>2026-04-26T09:47:26.906Z</time></trkpt><trkpt lat="38.12697301131525" lon="15.519395971664748"><ele>11.75</ele><time>2026-04-26T09:47:27.906Z</time></trkpt><trkpt lat="38.12685219299539" lon="15.519332987944388"><ele>11.5</ele><time>2026-04-26T09:47:28.906Z</time></trkpt><trkpt lat="38.126735358810144" lon="15.519262255307265"><ele>11.25</ele><time>2026-04-26T09:47:29.906Z</time></trkpt><trkpt lat="38.12660758864196" lon="15.519198311246052"><ele>11.0</ele><time>2026-04-26T09:47:30.906Z</time></trkpt><trkpt lat="38.12647276109308" lon="15.51913283613731"><ele>10.75</ele><time>2026-04-26T09:47:31.906Z</time></trkpt><trkpt lat="38.12634229450348" lon="15.51905745522118"><ele>10.5</ele><time>2026-04-26T09:47:32.906Z</time></trkpt><trkpt lat="38.12621195919204" lon="15.518991837293177"><ele>10.25</ele><time>2026-04-26T09:47:33.906Z</time></trkpt><trkpt lat="38.12609723704745" lon="15.518928409939345"><ele>10.0</ele><time>2026-04-26T09:47:34.906Z</time></trkpt><trkpt lat="38.125999737877926" lon="15.518875138812264"><ele>10.0</ele><time>2026-04-26T09:47:35.906Z</time></trkpt><trkpt lat="38.12590962487937" lon="15.518836238834691"><ele>10.0</ele><time>2026-04-26T09:47:36.906Z</time></trkpt><trkpt lat="38.12582328736222" lon="15.518790616321724"><ele>10.0</ele><time>2026-04-26T09:47:37.906Z</time></trkpt><trkpt lat="38.125729682857795" lon="15.518740626349885"><ele>10.0</ele><time>2026-04-26T09:47:38.906Z</time></trkpt><trkpt lat="38.125626222545144" lon="15.518685073510607"><ele>10.0</ele><time>2026-04-26T09:47:39.906Z</time></trkpt><trkpt lat="38.125516222375936" lon="15.518621482124312"><ele>10.5</ele><time>2026-04-26T09:47:40.906Z</time></trkpt><trkpt lat="38.12540400505257" lon="15.518572876622084"><ele>11.0</ele><time>2026-04-26T09:47:41.906Z</time></trkpt><trkpt lat="38.125293324156345" lon="15.518516300457646"><ele>11.5</ele><time>2026-04-26T09:47:42.906Z</time></trkpt><trkpt lat="38.125194614629876" lon="15.51846262308379"><ele>12.0</ele><time>2026-04-26T09:47:43.906Z</time></trkpt><trkpt lat="38.125090437806456" lon="15.518400268167493"><ele>12.0</ele><time>2026-04-26T09:47:44.906Z</time></trkpt><trkpt lat="38.12498921822195" lon="15.518319120423376"><ele>12.0</ele><time>2026-04-26T09:47:45.905Z</time></trkpt><trkpt lat="38.12489395757747" lon="15.518240082248548"><ele>12.0</ele><time>2026-04-26T09:47:46.905Z</time></trkpt><trkpt lat="38.12479972424519" lon="15.518168942379864"><ele>12.0</ele><time>2026-04-26T09:47:47.905Z</time></trkpt><trkpt lat="38.124702137301156" lon="15.518098391019718"><ele>11.25</ele><time>2026-04-26T09:47:48.905Z</time></trkpt><trkpt lat="38.12461347525714" lon="15.518023008765468"><ele>10.5</ele><time>2026-04-26T09:47:49.905Z</time></trkpt><trkpt lat="38.1245282683743" lon="15.517945624635615"><ele>9.75</ele><time>2026-04-26T09:47:50.905Z</time></trkpt><trkpt lat="38.12443934054463" lon="15.517847160654902"><ele>9.0</ele><time>2026-04-26T09:47:51.905Z</time></trkpt><trkpt lat="38.124347514053426" lon="15.517743054831422"><ele>11.0</ele><time>2026-04-26T09:47:52.905Z</time></trkpt><trkpt lat="38.12426344249174" lon="15.517646502314744"><ele>13.0</ele><time>2026-04-26T09:47:53.905Z</time></trkpt><trkpt lat="38.124182493698356" lon="15.51755213381867"><ele>15.0</ele><time>2026-04-26T09:47:54.905Z</time></trkpt><trkpt lat="38.12410143492647" lon="15.517443618938376"><ele>17.0</ele><time>2026-04-26T09:47:55.905Z</time></trkpt><trkpt lat="38.124027117282935" lon="15.517313670983407"><ele>17.0</ele><time>2026-04-26T09:47:56.905Z</time></trkpt><trkpt lat="38.123939850924" lon="15.517187740277578"><ele>17.0</ele><time>2026-04-26T09:47:57.905Z</time></trkpt><trkpt lat="38.12386197639899" lon="15.517074618872659"><ele>17.0</ele><time>2026-04-26T09:47:58.905Z</time></trkpt><trkpt lat="38.123777198733166" lon="15.516951469891897"><ele>17.0</ele><time>2026-04-26T09:47:59.905Z</time></trkpt><trkpt lat="38.12368322746333" lon="15.516813061575228"><ele>19.0</ele><time>2026-04-26T09:48:00.905Z</time></trkpt><trkpt lat="38.12357778233516" lon="15.51665390323377"><ele>21.0</ele><time>2026-04-26T09:48:01.905Z</time></trkpt><trkpt lat="38.1234609101808" lon="15.516477496998878"><ele>23.0</ele><time>2026-04-26T09:48:02.905Z</time></trkpt><trkpt lat="38.123336660616324" lon="15.51628995531064"><ele>21.333333333333336</ele><time>2026-04-26T09:48:03.905Z</time></trkpt><trkpt lat="38.12321514086795" lon="15.516108423446061"><ele>19.666666666666668</ele><time>2026-04-26T09:48:04.905Z</time></trkpt><trkpt lat="38.123083024352255" lon="15.515929926818192"><ele>18.0</ele><time>2026-04-26T09:48:05.905Z</time></trkpt><trkpt lat="38.122947682280916" lon="15.515758731848546"><ele>18.0</ele><time>2026-04-26T09:48:06.905Z</time></trkpt><trkpt lat="38.122804184904375" lon="15.515612628347785"><ele>18.0</ele><time>2026-04-26T09:48:07.905Z</time></trkpt><trkpt lat="38.122693202633755" lon="15.515426509657079"><ele>18.0</ele><time>2026-04-26T09:48:08.905Z</time></trkpt><trkpt lat="38.12257324076258" lon="15.515284382157187"><ele>18.666666666666668</ele><time>2026-04-26T09:48:09.905Z</time></trkpt><trkpt lat="38.12243249199811" lon="15.515177336205364"><ele>19.333333333333336</ele><time>2026-04-26T09:48:10.905Z</time></trkpt><trkpt lat="38.12225764063026" lon="15.51507115143129"><ele>20.0</ele><time>2026-04-26T09:48:11.905Z</time></trkpt><trkpt lat="38.12202558306096" lon="15.515018496383545"><ele>20.0</ele><time>2026-04-26T09:48:12.905Z</time></trkpt><trkpt lat="38.12179616916568" lon="15.5149368131138"><ele>20.0</ele><time>2026-04-26T09:48:13.905Z</time></trkpt><trkpt lat="38.121595012355286" lon="15.51484520563993"><ele>19.333333333333336</ele><time>2026-04-26T09:48:14.905Z</time></trkpt><trkpt lat="38.12140428222348" lon="15.514762288537282"><ele>18.666666666666668</ele><time>2026-04-26T09:48:15.905Z</time></trkpt><trkpt lat="38.121224425779666" lon="15.514678375992707"><ele>18.0</ele><time>2026-04-26T09:48:16.905Z</time></trkpt><trkpt lat="38.12104765787153" lon="15.514601920197965"><ele>20.666666666666664</ele><time>2026-04-26T09:48:17.905Z</time></trkpt><trkpt lat="38.120875668040256" lon="15.514524891086065"><ele>23.333333333333332</ele><time>2026-04-26T09:48:18.905Z</time></trkpt><trkpt lat="38.12069809006434" lon="15.514443838615737"><ele>26.0</ele><time>2026-04-26T09:48:19.905Z</time></trkpt><trkpt lat="38.12052358159972" lon="15.514364357120803"><ele>26.0</ele><time>2026-04-26T09:48:20.905Z</time></trkpt><trkpt lat="38.12033666371142" lon="15.514293740894182"><ele>26.0</ele><time>2026-04-26T09:48:21.905Z</time></trkpt><trkpt lat="38.1201558641199" lon="15.514198703985135"><ele>26.0</ele><time>2026-04-26T09:48:22.905Z</time></trkpt><trkpt lat="38.1199811272033" lon="15.514112296302528"><ele>24.0</ele><time>2026-04-26T09:48:23.905Z</time></trkpt><trkpt lat="38.11980886830805" lon="15.514027918446414"><ele>22.0</ele><time>2026-04-26T09:48:24.905Z</time></trkpt><trkpt lat="38.11962494938546" lon="15.513943772346792"><ele>20.0</ele><time>2026-04-26T09:48:25.905Z</time></trkpt><trkpt lat="38.119445997256854" lon="15.51381241829777"><ele>20.333333333333336</ele><time>2026-04-26T09:48:26.905Z</time></trkpt><trkpt lat="38.11926994956662" lon="15.513672305020235"><ele>20.666666666666668</ele><time>2026-04-26T09:48:27.905Z</time></trkpt><trkpt lat="38.11908264622575" lon="15.513515031107916"><ele>21.0</ele><time>2026-04-26T09:48:28.905Z</time></trkpt><trkpt lat="38.11888409575705" lon="15.513353810494484"><ele>21.0</ele><time>2026-04-26T09:48:29.905Z</time></trkpt><trkpt lat="38.118687610969204" lon="15.51320155767569"><ele>21.0</ele><time>2026-04-26T09:48:30.905Z</time></trkpt><trkpt lat="38.11848833914885" lon="15.51304617208364"><ele>21.333333333333332</ele><time>2026-04-26T09:48:31.904Z</time></trkpt><trkpt lat="38.118295170759545" lon="15.512890901124857"><ele>21.666666666666664</ele><time>2026-04-26T09:48:32.904Z</time></trkpt><trkpt lat="38.118113732739424" lon="15.51274441744837"><ele>22.0</ele><time>2026-04-26T09:48:33.904Z</time></trkpt><trkpt lat="38.11794701812875" lon="15.512610067575137"><ele>22.0</ele><time>2026-04-26T09:48:34.904Z</time></trkpt><trkpt lat="38.11780038514533" lon="15.512492116661388"><ele>22.0</ele><time>2026-04-26T09:48:35.904Z</time></trkpt><trkpt lat="38.11766416435603" lon="15.512383169395331"><ele>22.0</ele><time>2026-04-26T09:48:36.903Z</time></trkpt><trkpt lat="38.117528014112935" lon="15.512274941669734"><ele>22.0</ele><time>2026-04-26T09:48:37.901Z</time></trkpt><trkpt lat="38.117386689089294" lon="15.512160976474231"><ele>22.0</ele><time>2026-04-26T09:48:38.899Z</time></trkpt><trkpt lat="38.117240433951764" lon="15.512044986749027"><ele>22.0</ele><time>2026-04-26T09:48:39.896Z</time></trkpt><trkpt lat="38.11709108460501" lon="15.511927577691855"><ele>22.666666666666664</ele><time>2026-04-26T09:48:40.894Z</time></trkpt><trkpt lat="38.116929757154224" lon="15.51182353712496"><ele>23.333333333333332</ele><time>2026-04-26T09:48:41.892Z</time></trkpt><trkpt lat="38.11678884257222" lon="15.511705794360905"><ele>24.0</ele><time>2026-04-26T09:48:42.891Z</time></trkpt><trkpt lat="38.116665932946084" lon="15.511576219998709"><ele>23.0</ele><time>2026-04-26T09:48:43.889Z</time></trkpt><trkpt lat="38.11653178249224" lon="15.51149017836674"><ele>22.0</ele><time>2026-04-26T09:48:44.887Z</time></trkpt><trkpt lat="38.116394866450385" lon="15.51141633609483"><ele>21.0</ele><time>2026-04-26T09:48:45.886Z</time></trkpt><trkpt lat="38.11624159066617" lon="15.511348928618947"><ele>21.0</ele><time>2026-04-26T09:48:46.886Z</time></trkpt><trkpt lat="38.11606799407655" lon="15.51127278861122"><ele>21.0</ele><time>2026-04-26T09:48:47.885Z</time></trkpt><trkpt lat="38.11587868267043" lon="15.51119097025485"><ele>21.0</ele><time>2026-04-26T09:48:48.884Z</time></trkpt><trkpt lat="38.1156784869154" lon="15.511125980273585"><ele>20.666666666666668</ele><time>2026-04-26T09:48:49.883Z</time></trkpt><trkpt lat="38.1154867202323" lon="15.511076342971881"><ele>20.333333333333336</ele><time>2026-04-26T09:48:50.881Z</time></trkpt><trkpt lat="38.11530371363905" lon="15.511031296324473"><ele>20.0</ele><time>2026-04-26T09:48:51.88Z</time></trkpt><trkpt lat="38.115133352038534" lon="15.510979500928958"><ele>20.0</ele><time>2026-04-26T09:48:52.879Z</time></trkpt><trkpt lat="38.114963690686764" lon="15.510942069418245"><ele>20.0</ele><time>2026-04-26T09:48:53.878Z</time></trkpt><trkpt lat="38.11479866338622" lon="15.510907085390569"><ele>20.0</ele><time>2026-04-26T09:48:54.877Z</time></trkpt><trkpt lat="38.11464084882722" lon="15.510881985264778"><ele>19.5</ele><time>2026-04-26T09:48:55.876Z</time></trkpt><trkpt lat="38.114499921999844" lon="15.51086794906068"><ele>19.0</ele><time>2026-04-26T09:48:56.876Z</time></trkpt><trkpt lat="38.11435176270337" lon="15.510878865799073"><ele>18.5</ele><time>2026-04-26T09:48:57.875Z</time></trkpt><trkpt lat="38.11420116380851" lon="15.510880395990599"><ele>18.0</ele><time>2026-04-26T09:48:58.874Z</time></trkpt><trkpt lat="38.114053714298095" lon="15.510887424533657"><ele>17.0</ele><time>2026-04-26T09:48:59.874Z</time></trkpt><trkpt lat="38.11390669921166" lon="15.510925661045873"><ele>16.0</ele><time>2026-04-26T09:49:00.873Z</time></trkpt><trkpt lat="38.113774642991494" lon="15.510985427963462"><ele>15.0</ele><time>2026-04-26T09:49:01.873Z</time></trkpt><trkpt lat="38.11360905377917" lon="15.51105874944363"><ele>15.0</ele><time>2026-04-26T09:49:02.872Z</time></trkpt><trkpt lat="38.11347134826407" lon="15.51110750739745"><ele>15.0</ele><time>2026-04-26T09:49:03.872Z</time></trkpt><trkpt lat="38.11334037081486" lon="15.511126676340902"><ele>15.0</ele><time>2026-04-26T09:49:04.871Z</time></trkpt><trkpt lat="38.113202657684774" lon="15.511127643580716"><ele>15.0</ele><time>2026-04-26T09:49:05.871Z</time></trkpt><trkpt lat="38.11306888450349" lon="15.511110988023935"><ele>13.5</ele><time>2026-04-26T09:49:06.871Z</time></trkpt><trkpt lat="38.11294014468293" lon="15.511083880071455"><ele>12.0</ele><time>2026-04-26T09:49:07.87Z</time></trkpt><trkpt lat="38.11283032105402" lon="15.511013592011274"><ele>10.5</ele><time>2026-04-26T09:49:08.87Z</time></trkpt><trkpt lat="38.11271407589455" lon="15.510950082435254"><ele>9.0</ele><time>2026-04-26T09:49:09.869Z</time></trkpt><trkpt lat="38.112592047417955" lon="15.510879131164822"><ele>9.0</ele><time>2026-04-26T09:49:10.869Z</time></trkpt><trkpt lat="38.11247093562462" lon="15.51080521173548"><ele>9.0</ele><time>2026-04-26T09:49:11.869Z</time></trkpt><trkpt lat="38.11231828813271" lon="15.510734241859616"><ele>9.0</ele><time>2026-04-26T09:49:12.869Z</time></trkpt><trkpt lat="38.11216483139143" lon="15.510614654112416"><ele>8.666666666666666</ele><time>2026-04-26T09:49:13.868Z</time></trkpt><trkpt lat="38.11197556058732" lon="15.510525252026097"><ele>8.333333333333332</ele><time>2026-04-26T09:49:14.868Z</time></trkpt><trkpt lat="38.111773073931225" lon="15.510396889955897"><ele>8.0</ele><time>2026-04-26T09:49:15.868Z</time></trkpt><trkpt lat="38.111562458787574" lon="15.510259715804487"><ele>9.0</ele><time>2026-04-26T09:49:16.868Z</time></trkpt><trkpt lat="38.11135606076847" lon="15.51014374668668"><ele>10.0</ele><time>2026-04-26T09:49:17.867Z</time></trkpt><trkpt lat="38.11115350695952" lon="15.510015763122517"><ele>10.0</ele><time>2026-04-26T09:49:18.867Z</time></trkpt><trkpt lat="38.110954500825855" lon="15.509856112354925"><ele>10.0</ele><time>2026-04-26T09:49:19.867Z</time></trkpt><trkpt lat="38.11073739254827" lon="15.509722838596632"><ele>11.5</ele><time>2026-04-26T09:49:20.867Z</time></trkpt><trkpt lat="38.11052047891553" lon="15.509587962894996"><ele>13.0</ele><time>2026-04-26T09:49:21.867Z</time></trkpt><trkpt lat="38.110299434608805" lon="15.509466336771988"><ele>13.0</ele><time>2026-04-26T09:49:22.866Z</time></trkpt><trkpt lat="38.110090060650215" lon="15.509326817571894"><ele>13.0</ele><time>2026-04-26T09:49:23.866Z</time></trkpt><trkpt lat="38.10988624250523" lon="15.509206312176984"><ele>12.666666666666666</ele><time>2026-04-26T09:49:24.866Z</time></trkpt><trkpt lat="38.109685578788834" lon="15.509088831481952"><ele>12.333333333333332</ele><time>2026-04-26T09:49:25.866Z</time></trkpt><trkpt lat="38.109495478333244" lon="15.508947148060019"><ele>12.0</ele><time>2026-04-26T09:49:26.866Z</time></trkpt><trkpt lat="38.10930102259331" lon="15.508825893369725"><ele>12.0</ele><time>2026-04-26T09:49:27.866Z</time></trkpt><trkpt lat="38.10910198904236" lon="15.508702466250076"><ele>12.0</ele><time>2026-04-26T09:49:28.866Z</time></trkpt><trkpt lat="38.108903096725584" lon="15.508578005427653"><ele>12.0</ele><time>2026-04-26T09:49:29.865Z</time></trkpt><trkpt lat="38.108709332511495" lon="15.508455684421376"><ele>12.0</ele><time>2026-04-26T09:49:30.865Z</time></trkpt><trkpt lat="38.10852388872182" lon="15.508338658130107"><ele>12.0</ele><time>2026-04-26T09:49:31.865Z</time></trkpt><trkpt lat="38.108347528628954" lon="15.508229783201397"><ele>12.0</ele><time>2026-04-26T09:49:32.865Z</time></trkpt><trkpt lat="38.108168124448994" lon="15.508119718748008"><ele>12.0</ele><time>2026-04-26T09:49:33.865Z</time></trkpt><trkpt lat="38.107994117605905" lon="15.508011272455231"><ele>12.0</ele><time>2026-04-26T09:49:34.865Z</time></trkpt><trkpt lat="38.107822623914856" lon="15.507926773801758"><ele>12.0</ele><time>2026-04-26T09:49:35.865Z</time></trkpt><trkpt lat="38.1076579287423" lon="15.507819074291064"><ele>12.333333333333332</ele><time>2026-04-26T09:49:36.865Z</time></trkpt><trkpt lat="38.10749230142258" lon="15.507719585367028"><ele>12.666666666666666</ele><time>2026-04-26T09:49:37.865Z</time></trkpt><trkpt lat="38.10733103909446" lon="15.507619749144354"><ele>13.0</ele><time>2026-04-26T09:49:38.865Z</time></trkpt><trkpt lat="38.10717228351881" lon="15.507499255721095"><ele>13.0</ele><time>2026-04-26T09:49:39.865Z</time></trkpt><trkpt lat="38.10700613568901" lon="15.507395700107152"><ele>13.0</ele><time>2026-04-26T09:49:40.865Z</time></trkpt><trkpt lat="38.106838363640826" lon="15.507291132158091"><ele>13.0</ele><time>2026-04-26T09:49:41.864Z</time></trkpt><trkpt lat="38.10667571856245" lon="15.507189759715102"><ele>13.0</ele><time>2026-04-26T09:49:42.864Z</time></trkpt><trkpt lat="38.10651045273447" lon="15.507086753823511"><ele>13.0</ele><time>2026-04-26T09:49:43.864Z</time></trkpt><trkpt lat="38.10635012921293" lon="15.506986828351312"><ele>13.0</ele><time>2026-04-26T09:49:44.864Z</time></trkpt><trkpt lat="38.106181914918366" lon="15.506903512492487"><ele>13.0</ele><time>2026-04-26T09:49:45.864Z</time></trkpt><trkpt lat="38.1060302348203" lon="15.506788118397651"><ele>13.0</ele><time>2026-04-26T09:49:46.864Z</time></trkpt><trkpt lat="38.105873768085786" lon="15.506689841447681"><ele>13.0</ele><time>2026-04-26T09:49:47.864Z</time></trkpt><trkpt lat="38.105715918985965" lon="15.506596507809336"><ele>12.666666666666666</ele><time>2026-04-26T09:49:48.864Z</time></trkpt><trkpt lat="38.10555285797728" lon="15.506502554305301"><ele>12.333333333333332</ele><time>2026-04-26T09:49:49.864Z</time></trkpt><trkpt lat="38.105386785844935" lon="15.506393421449138"><ele>12.0</ele><time>2026-04-26T09:49:50.864Z</time></trkpt><trkpt lat="38.1052170361126" lon="15.506286899231627"><ele>13.333333333333332</ele><time>2026-04-26T09:49:51.864Z</time></trkpt><trkpt lat="38.105045127603844" lon="15.506178067385283"><ele>14.666666666666666</ele><time>2026-04-26T09:49:52.864Z</time></trkpt><trkpt lat="38.10487370024498" lon="15.50606788169608"><ele>16.0</ele><time>2026-04-26T09:49:53.864Z</time></trkpt><trkpt lat="38.10470483163302" lon="15.505959726633845"><ele>16.0</ele><time>2026-04-26T09:49:54.864Z</time></trkpt><trkpt lat="38.10453606519258" lon="15.50585365806484"><ele>16.0</ele><time>2026-04-26T09:49:55.864Z</time></trkpt><trkpt lat="38.10436239469619" lon="15.50574799061506"><ele>16.0</ele><time>2026-04-26T09:49:56.864Z</time></trkpt><trkpt lat="38.10419963647991" lon="15.505611821878489"><ele>16.0</ele><time>2026-04-26T09:49:57.864Z</time></trkpt><trkpt lat="38.10402128429211" lon="15.505522985591632"><ele>16.0</ele><time>2026-04-26T09:49:58.864Z</time></trkpt><trkpt lat="38.103853755010235" lon="15.505408254437247"><ele>16.0</ele><time>2026-04-26T09:49:59.864Z</time></trkpt><trkpt lat="38.10366873400226" lon="15.505341626050797"><ele>16.0</ele><time>2026-04-26T09:50:00.864Z</time></trkpt><trkpt lat="38.10349340539188" lon="15.50529214578065"><ele>16.0</ele><time>2026-04-26T09:50:01.863Z</time></trkpt><trkpt lat="38.10332147057356" lon="15.505251119075536"><ele>16.0</ele><time>2026-04-26T09:50:02.863Z</time></trkpt><trkpt lat="38.10314634408968" lon="15.50521587681742"><ele>15.333333333333332</ele><time>2026-04-26T09:50:03.863Z</time></trkpt><trkpt lat="38.10298107931173" lon="15.505173756244004"><ele>14.666666666666668</ele><time>2026-04-26T09:50:04.863Z</time></trkpt><trkpt lat="38.102810262976426" lon="15.505133770251941"><ele>14.0</ele><time>2026-04-26T09:50:05.863Z</time></trkpt><trkpt lat="38.102636430904674" lon="15.505087604757591"><ele>14.0</ele><time>2026-04-26T09:50:06.863Z</time></trkpt><trkpt lat="38.10245684723062" lon="15.505037283138565"><ele>14.0</ele><time>2026-04-26T09:50:07.863Z</time></trkpt><trkpt lat="38.1022723929585" lon="15.504990205674055"><ele>14.0</ele><time>2026-04-26T09:50:08.863Z</time></trkpt><trkpt lat="38.10209346120069" lon="15.504939742196276"><ele>13.333333333333334</ele><time>2026-04-26T09:50:09.863Z</time></trkpt><trkpt lat="38.10190928153968" lon="15.504883701654794"><ele>12.666666666666668</ele><time>2026-04-26T09:50:10.863Z</time></trkpt><trkpt lat="38.101738296827826" lon="15.504831136357694"><ele>12.0</ele><time>2026-04-26T09:50:11.863Z</time></trkpt><trkpt lat="38.10155622559677" lon="15.504788068293742"><ele>11.333333333333334</ele><time>2026-04-26T09:50:12.863Z</time></trkpt><trkpt lat="38.101373709382166" lon="15.504746978036591"><ele>10.666666666666668</ele><time>2026-04-26T09:50:13.863Z</time></trkpt><trkpt lat="38.101191224249284" lon="15.504714916021332"><ele>10.0</ele><time>2026-04-26T09:50:14.863Z</time></trkpt><trkpt lat="38.10101470528841" lon="15.50468384453958"><ele>10.0</ele><time>2026-04-26T09:50:15.863Z</time></trkpt><trkpt lat="38.10085209547244" lon="15.504661003126905"><ele>10.0</ele><time>2026-04-26T09:50:16.863Z</time></trkpt><trkpt lat="38.100692371081934" lon="15.504662019100406"><ele>10.0</ele><time>2026-04-26T09:50:17.863Z</time></trkpt><trkpt lat="38.100538415254434" lon="15.504676138484532"><ele>9.5</ele><time>2026-04-26T09:50:18.863Z</time></trkpt><trkpt lat="38.100392157281746" lon="15.504694879185106"><ele>9.0</ele><time>2026-04-26T09:50:19.863Z</time></trkpt><trkpt lat="38.100250532109186" lon="15.504717170936358"><ele>8.5</ele><time>2026-04-26T09:50:20.863Z</time></trkpt><trkpt lat="38.100120303133" lon="15.504743116412234"><ele>8.0</ele><time>2026-04-26T09:50:21.863Z</time></trkpt><trkpt lat="38.0999922741889" lon="15.504783717958961"><ele>8.0</ele><time>2026-04-26T09:50:22.863Z</time></trkpt><trkpt lat="38.09987574534736" lon="15.50483506901516"><ele>8.0</ele><time>2026-04-26T09:50:23.863Z</time></trkpt><trkpt lat="38.09976279768086" lon="15.504884795376542"><ele>8.0</ele><time>2026-04-26T09:50:24.863Z</time></trkpt><trkpt lat="38.09964978811712" lon="15.504929703250777"><ele>8.0</ele><time>2026-04-26T09:50:25.863Z</time></trkpt><trkpt lat="38.099534420792416" lon="15.504964888047803"><ele>8.0</ele><time>2026-04-26T09:50:26.863Z</time></trkpt><trkpt lat="38.09942503361333" lon="15.504999358835114"><ele>8.0</ele><time>2026-04-26T09:50:27.863Z</time></trkpt><trkpt lat="38.0993109263347" lon="15.505038035136984"><ele>8.0</ele><time>2026-04-26T09:50:28.863Z</time></trkpt><trkpt lat="38.099202349345" lon="15.50508252960642"><ele>8.0</ele><time>2026-04-26T09:50:29.863Z</time></trkpt><trkpt lat="38.099094447293176" lon="15.505119281364884"><ele>8.0</ele><time>2026-04-26T09:50:30.863Z</time></trkpt><trkpt lat="38.09897861677379" lon="15.505156289281839"><ele>8.0</ele><time>2026-04-26T09:50:31.862Z</time></trkpt><trkpt lat="38.09885081904362" lon="15.505182968805801"><ele>8.0</ele><time>2026-04-26T09:50:32.862Z</time></trkpt><trkpt lat="38.0987049587726" lon="15.505190729319791"><ele>8.0</ele><time>2026-04-26T09:50:33.862Z</time></trkpt><trkpt lat="38.09855388296548" lon="15.505182825796425"><ele>8.0</ele><time>2026-04-26T09:50:34.862Z</time></trkpt><trkpt lat="38.0984023789537" lon="15.50515359885796"><ele>8.0</ele><time>2026-04-26T09:50:35.862Z</time></trkpt><trkpt lat="38.09825810303273" lon="15.505119037910735"><ele>8.0</ele><time>2026-04-26T09:50:36.862Z</time></trkpt><trkpt lat="38.098114632207995" lon="15.505078389711471"><ele>8.0</ele><time>2026-04-26T09:50:37.862Z</time></trkpt><trkpt lat="38.097955377366965" lon="15.505021120823248"><ele>8.0</ele><time>2026-04-26T09:50:38.862Z</time></trkpt><trkpt lat="38.097772204538096" lon="15.504954345108622"><ele>8.0</ele><time>2026-04-26T09:50:39.862Z</time></trkpt><trkpt lat="38.09759103214667" lon="15.504874611179275"><ele>8.0</ele><time>2026-04-26T09:50:40.862Z</time></trkpt><trkpt lat="38.09739614321902" lon="15.504793585809534"><ele>8.0</ele><time>2026-04-26T09:50:41.862Z</time></trkpt><trkpt lat="38.09718552524328" lon="15.504710477694111"><ele>8.0</ele><time>2026-04-26T09:50:42.862Z</time></trkpt><trkpt lat="38.09697554376518" lon="15.504608414518646"><ele>8.0</ele><time>2026-04-26T09:50:43.862Z</time></trkpt><trkpt lat="38.096771682827175" lon="15.504505873917251"><ele>8.333333333333332</ele><time>2026-04-26T09:50:44.862Z</time></trkpt><trkpt lat="38.096571047900675" lon="15.504418105084843"><ele>8.666666666666666</ele><time>2026-04-26T09:50:45.862Z</time></trkpt><trkpt lat="38.0963692864228" lon="15.504340581040362"><ele>9.0</ele><time>2026-04-26T09:50:46.862Z</time></trkpt><trkpt lat="38.09617966211259" lon="15.504262490123343"><ele>9.0</ele><time>2026-04-26T09:50:47.862Z</time></trkpt><trkpt lat="38.09599353409462" lon="15.504185948793628"><ele>9.0</ele><time>2026-04-26T09:50:48.862Z</time></trkpt><trkpt lat="38.095813175031005" lon="15.504114582869486"><ele>9.0</ele><time>2026-04-26T09:50:49.862Z</time></trkpt><trkpt lat="38.09563752955889" lon="15.504045427142838"><ele>8.666666666666666</ele><time>2026-04-26T09:50:50.862Z</time></trkpt><trkpt lat="38.0954663198226" lon="15.503960297855876"><ele>8.333333333333332</ele><time>2026-04-26T09:50:51.862Z</time></trkpt><trkpt lat="38.09529734332977" lon="15.503884684949695"><ele>8.0</ele><time>2026-04-26T09:50:52.863Z</time></trkpt><trkpt lat="38.09513695702927" lon="15.5038189200608"><ele>8.0</ele><time>2026-04-26T09:50:53.863Z</time></trkpt><trkpt lat="38.09498247948072" lon="15.503759722334852"><ele>8.0</ele><time>2026-04-26T09:50:54.863Z</time></trkpt><trkpt lat="38.09483946414089" lon="15.503710416539581"><ele>8.0</ele><time>2026-04-26T09:50:55.863Z</time></trkpt><trkpt lat="38.09471118089046" lon="15.503663630575266"><ele>8.0</ele><time>2026-04-26T09:50:56.863Z</time></trkpt><trkpt lat="38.09458529626961" lon="15.503636624544356"><ele>8.200000000000001</ele><time>2026-04-26T09:50:57.863Z</time></trkpt><trkpt lat="38.09447263479878" lon="15.503604514210648"><ele>8.4</ele><time>2026-04-26T09:50:58.863Z</time></trkpt><trkpt lat="38.09436647978678" lon="15.50358732486133"><ele>8.600000000000001</ele><time>2026-04-26T09:50:59.863Z</time></trkpt><trkpt lat="38.09428221733388" lon="15.503562370997898"><ele>8.8</ele><time>2026-04-26T09:51:00.863Z</time></trkpt><trkpt lat="38.09417270088162" lon="15.503531035828027"><ele>9.0</ele><time>2026-04-26T09:51:02.863Z</time></trkpt><trkpt lat="38.09410872057143" lon="15.503521237469595"><ele>8.4</ele><time>2026-04-26T09:51:05.863Z</time></trkpt><trkpt lat="38.0940349312108" lon="15.50351035207558"><ele>7.800000000000001</ele><time>2026-04-26T09:51:15.863Z</time></trkpt><trkpt lat="38.093963868429775" lon="15.503493577769246"><ele>7.199999999999999</ele><time>2026-04-26T09:51:16.863Z</time></trkpt><trkpt lat="38.09386402151946" lon="15.503469739594909"><ele>6.6</ele><time>2026-04-26T09:51:17.863Z</time></trkpt><trkpt lat="38.09375583974397" lon="15.503443478388354"><ele>6.0</ele><time>2026-04-26T09:51:18.863Z</time></trkpt><trkpt lat="38.0936274476901" lon="15.503412349319587"><ele>6.0</ele><time>2026-04-26T09:51:19.863Z</time></trkpt><trkpt lat="38.09349533367562" lon="15.503379486082956"><ele>6.0</ele><time>2026-04-26T09:51:20.863Z</time></trkpt><trkpt lat="38.093348648103536" lon="15.503337774670133"><ele>6.0</ele><time>2026-04-26T09:51:21.863Z</time></trkpt><trkpt lat="38.09319345905956" lon="15.50329938998225"><ele>6.0</ele><time>2026-04-26T09:51:22.862Z</time></trkpt><trkpt lat="38.09303296613375" lon="15.503265880649375"><ele>6.0</ele><time>2026-04-26T09:51:23.862Z</time></trkpt><trkpt lat="38.09286595691884" lon="15.50322523044723"><ele>6.0</ele><time>2026-04-26T09:51:24.862Z</time></trkpt><trkpt lat="38.092699329531975" lon="15.503182805119708"><ele>6.0</ele><time>2026-04-26T09:51:25.862Z</time></trkpt><trkpt lat="38.09252934724835" lon="15.503134481122144"><ele>5.666666666666667</ele><time>2026-04-26T09:51:26.862Z</time></trkpt><trkpt lat="38.09236145004907" lon="15.50309296225041"><ele>5.333333333333334</ele><time>2026-04-26T09:51:27.862Z</time></trkpt><trkpt lat="38.092189475510466" lon="15.503044520563881"><ele>5.0</ele><time>2026-04-26T09:51:28.862Z</time></trkpt><trkpt lat="38.092015166794766" lon="15.503009977400696"><ele>5.0</ele><time>2026-04-26T09:51:29.862Z</time></trkpt><trkpt lat="38.091841103949164" lon="15.502965864598387"><ele>5.0</ele><time>2026-04-26T09:51:30.862Z</time></trkpt><trkpt lat="38.09166966667812" lon="15.502924083411783"><ele>5.0</ele><time>2026-04-26T09:51:31.862Z</time></trkpt><trkpt lat="38.09149591978021" lon="15.502875220400076"><ele>5.0</ele><time>2026-04-26T09:51:32.862Z</time></trkpt><trkpt lat="38.091322390773094" lon="15.502816198462149"><ele>5.0</ele><time>2026-04-26T09:51:33.862Z</time></trkpt><trkpt lat="38.09114914661654" lon="15.502753645010218"><ele>5.0</ele><time>2026-04-26T09:51:34.862Z</time></trkpt><trkpt lat="38.09097934352263" lon="15.502688997297533"><ele>5.0</ele><time>2026-04-26T09:51:35.862Z</time></trkpt><trkpt lat="38.09080810285722" lon="15.502618572313224"><ele>5.0</ele><time>2026-04-26T09:51:36.862Z</time></trkpt><trkpt lat="38.09063794253382" lon="15.502542958445316"><ele>5.0</ele><time>2026-04-26T09:51:37.862Z</time></trkpt><trkpt lat="38.09047042268626" lon="15.50246116354225"><ele>4.0</ele><time>2026-04-26T09:51:38.862Z</time></trkpt><trkpt lat="38.09030657210371" lon="15.502372266657904"><ele>3.0</ele><time>2026-04-26T09:51:39.862Z</time></trkpt><trkpt lat="38.09014414104146" lon="15.502286466442659"><ele>2.0</ele><time>2026-04-26T09:51:40.862Z</time></trkpt><trkpt lat="38.08998977188497" lon="15.502197550271239"><ele>2.333333333333333</ele><time>2026-04-26T09:51:41.862Z</time></trkpt><trkpt lat="38.08984218972747" lon="15.502107424315886"><ele>2.6666666666666665</ele><time>2026-04-26T09:51:42.862Z</time></trkpt><trkpt lat="38.08970968315879" lon="15.502005792465695"><ele>3.0</ele><time>2026-04-26T09:51:43.862Z</time></trkpt><trkpt lat="38.089587428929214" lon="15.501909264029727"><ele>3.75</ele><time>2026-04-26T09:51:44.862Z</time></trkpt><trkpt lat="38.08947149100707" lon="15.501820204088215"><ele>4.5</ele><time>2026-04-26T09:51:45.862Z</time></trkpt><trkpt lat="38.08936078252271" lon="15.501736300815272"><ele>5.25</ele><time>2026-04-26T09:51:46.862Z</time></trkpt><trkpt lat="38.08925300938523" lon="15.501652521521011"><ele>6.0</ele><time>2026-04-26T09:51:47.862Z</time></trkpt><trkpt lat="38.08914718360918" lon="15.501559757449545"><ele>5.75</ele><time>2026-04-26T09:51:48.862Z</time></trkpt><trkpt lat="38.08904127781706" lon="15.501472059384623"><ele>5.5</ele><time>2026-04-26T09:51:49.862Z</time></trkpt><trkpt lat="38.088939527052" lon="15.50138267972692"><ele>5.25</ele><time>2026-04-26T09:51:50.862Z</time></trkpt><trkpt lat="38.08883936770322" lon="15.501295931582385"><ele>5.0</ele><time>2026-04-26T09:51:51.862Z</time></trkpt><trkpt lat="38.08873914386008" lon="15.501208693466227"><ele>5.0</ele><time>2026-04-26T09:51:52.862Z</time></trkpt><trkpt lat="38.088639450206436" lon="15.501124123198974"><ele>5.0</ele><time>2026-04-26T09:51:53.862Z</time></trkpt><trkpt lat="38.08853880909667" lon="15.501028483922342"><ele>5.0</ele><time>2026-04-26T09:51:54.862Z</time></trkpt><trkpt lat="38.08844867122804" lon="15.500945622951674"><ele>5.0</ele><time>2026-04-26T09:51:55.862Z</time></trkpt><trkpt lat="38.088362153560716" lon="15.50086995578492"><ele>5.0</ele><time>2026-04-26T09:51:56.862Z</time></trkpt><trkpt lat="38.08827908761801" lon="15.50079615111837"><ele>5.0</ele><time>2026-04-26T09:51:57.861Z</time></trkpt><trkpt lat="38.08819695056772" lon="15.500729661568075"><ele>5.0</ele><time>2026-04-26T09:51:58.861Z</time></trkpt><trkpt lat="38.0881151204548" lon="15.500661770544868"><ele>5.0</ele><time>2026-04-26T09:51:59.861Z</time></trkpt><trkpt lat="38.08802843993956" lon="15.500599230839116"><ele>5.0</ele><time>2026-04-26T09:52:00.861Z</time></trkpt><trkpt lat="38.087938435934745" lon="15.500535795136107"><ele>5.0</ele><time>2026-04-26T09:52:01.861Z</time></trkpt><trkpt lat="38.08784857144922" lon="15.500466500309424"><ele>5.0</ele><time>2026-04-26T09:52:02.861Z</time></trkpt><trkpt lat="38.08775739051035" lon="15.500398415042882"><ele>5.0</ele><time>2026-04-26T09:52:03.861Z</time></trkpt><trkpt lat="38.08766922287752" lon="15.500320807818294"><ele>5.0</ele><time>2026-04-26T09:52:04.861Z</time></trkpt><trkpt lat="38.08757953030707" lon="15.500242268336637"><ele>5.0</ele><time>2026-04-26T09:52:05.861Z</time></trkpt><trkpt lat="38.087485501211525" lon="15.500157912253933"><ele>4.5</ele><time>2026-04-26T09:52:06.861Z</time></trkpt><trkpt lat="38.087385209074384" lon="15.500079725349584"><ele>4.0</ele><time>2026-04-26T09:52:07.861Z</time></trkpt><trkpt lat="38.08728379382215" lon="15.500002624981725"><ele>3.5</ele><time>2026-04-26T09:52:08.861Z</time></trkpt><trkpt lat="38.087183574810794" lon="15.499935423584112"><ele>3.0</ele><time>2026-04-26T09:52:09.861Z</time></trkpt><trkpt lat="38.08708797234255" lon="15.49983829975648"><ele>3.0</ele><time>2026-04-26T09:52:10.861Z</time></trkpt><trkpt lat="38.08698841151407" lon="15.499751749259838"><ele>3.0</ele><time>2026-04-26T09:52:11.861Z</time></trkpt><trkpt lat="38.08689455792667" lon="15.499652108944227"><ele>3.0</ele><time>2026-04-26T09:52:12.861Z</time></trkpt><trkpt lat="38.086794973779746" lon="15.499574604339124"><ele>3.0</ele><time>2026-04-26T09:52:13.861Z</time></trkpt><trkpt lat="38.08669676528207" lon="15.499495462863194"><ele>3.75</ele><time>2026-04-26T09:52:14.861Z</time></trkpt><trkpt lat="38.08659328210846" lon="15.499413850607084"><ele>4.5</ele><time>2026-04-26T09:52:15.861Z</time></trkpt><trkpt lat="38.08648280314213" lon="15.499337941671136"><ele>5.25</ele><time>2026-04-26T09:52:16.861Z</time></trkpt><trkpt lat="38.08637218759464" lon="15.49925653696209"><ele>6.0</ele><time>2026-04-26T09:52:17.861Z</time></trkpt><trkpt lat="38.08628346661229" lon="15.499154949550606"><ele>6.0</ele><time>2026-04-26T09:52:18.861Z</time></trkpt><trkpt lat="38.0861804388821" lon="15.49906759401586"><ele>6.0</ele><time>2026-04-26T09:52:19.861Z</time></trkpt><trkpt lat="38.086072199936574" lon="15.49897582003547"><ele>6.0</ele><time>2026-04-26T09:52:20.861Z</time></trkpt><trkpt lat="38.085964696025975" lon="15.498884240198759"><ele>6.0</ele><time>2026-04-26T09:52:21.861Z</time></trkpt><trkpt lat="38.08585663445483" lon="15.498789052083096"><ele>6.0</ele><time>2026-04-26T09:52:22.861Z</time></trkpt><trkpt lat="38.08574784963847" lon="15.498695290758311"><ele>6.0</ele><time>2026-04-26T09:52:23.861Z</time></trkpt><trkpt lat="38.08563244314283" lon="15.49860210260278"><ele>6.0</ele><time>2026-04-26T09:52:24.861Z</time></trkpt><trkpt lat="38.08551574055647" lon="15.49850501867134"><ele>6.0</ele><time>2026-04-26T09:52:25.861Z</time></trkpt><trkpt lat="38.08540142964331" lon="15.498395665959794"><ele>6.0</ele><time>2026-04-26T09:52:26.861Z</time></trkpt><trkpt lat="38.08528335064061" lon="15.498299035387237"><ele>6.0</ele><time>2026-04-26T09:52:27.861Z</time></trkpt><trkpt lat="38.08517265233962" lon="15.498199416329175"><ele>6.0</ele><time>2026-04-26T09:52:28.861Z</time></trkpt><trkpt lat="38.085065187526084" lon="15.498105982804816"><ele>6.0</ele><time>2026-04-26T09:52:29.861Z</time></trkpt><trkpt lat="38.08496736106007" lon="15.498007065131928"><ele>6.0</ele><time>2026-04-26T09:52:30.861Z</time></trkpt><trkpt lat="38.08486700943793" lon="15.49792268340341"><ele>6.0</ele><time>2026-04-26T09:52:31.861Z</time></trkpt><trkpt lat="38.08477464299987" lon="15.497847422154251"><ele>6.0</ele><time>2026-04-26T09:52:32.86Z</time></trkpt><trkpt lat="38.08469792668478" lon="15.497781543096579"><ele>6.0</ele><time>2026-04-26T09:52:33.86Z</time></trkpt><trkpt lat="38.08463814359267" lon="15.497735045997914"><ele>6.0</ele><time>2026-04-26T09:52:34.86Z</time></trkpt><trkpt lat="38.08458147110761" lon="15.497683074573716"><ele>6.0</ele><time>2026-04-26T09:52:36.86Z</time></trkpt><trkpt lat="38.08457058225344" lon="15.497556591821748"><ele>6.0</ele><time>2026-04-26T09:53:15.86Z</time></trkpt><trkpt lat="38.08452498875845" lon="15.497328730010148"><ele>6.0</ele><time>2026-04-26T09:53:16.86Z</time></trkpt><trkpt lat="38.08460529927343" lon="15.497137869406632"><ele>7.333333333333334</ele><time>2026-04-26T09:53:17.86Z</time></trkpt><trkpt lat="38.084698989136726" lon="15.496915212464526"><ele>8.666666666666668</ele><time>2026-04-26T09:53:18.86Z</time></trkpt><trkpt lat="38.08478443004481" lon="15.496655850709596"><ele>10.0</ele><time>2026-04-26T09:53:19.86Z</time></trkpt><trkpt lat="38.08486330117559" lon="15.496386686565517"><ele>8.0</ele><time>2026-04-26T09:53:20.86Z</time></trkpt><trkpt lat="38.083384940221606" lon="15.49667514783132"><ele>7.5</ele><time>2026-04-26T09:53:21.86Z</time></trkpt><trkpt lat="38.08311523903133" lon="15.496450884256484"><ele>7.0</ele><time>2026-04-26T09:53:22.86Z</time></trkpt><trkpt lat="38.08284255142379" lon="15.496220921486465"><ele>7.0</ele><time>2026-04-26T09:53:23.86Z</time></trkpt><trkpt lat="38.08259262505091" lon="15.496018595645653"><ele>7.0</ele><time>2026-04-26T09:53:24.86Z</time></trkpt><trkpt lat="38.08232871594779" lon="15.49583008346605"><ele>5.5</ele><time>2026-04-26T09:53:25.86Z</time></trkpt><trkpt lat="38.08204311315114" lon="15.4956587184644"><ele>4.0</ele><time>2026-04-26T09:53:26.86Z</time></trkpt><trkpt lat="38.08175718547586" lon="15.49552335250287"><ele>8.0</ele><time>2026-04-26T09:53:27.86Z</time></trkpt><trkpt lat="38.0814678274343" lon="15.495407351478429"><ele>12.0</ele><time>2026-04-26T09:53:28.86Z</time></trkpt><trkpt lat="38.08118072926791" lon="15.495310393075483"><ele>12.0</ele><time>2026-04-26T09:53:29.86Z</time></trkpt><trkpt lat="38.08090286262929" lon="15.49521955730941"><ele>12.0</ele><time>2026-04-26T09:53:30.86Z</time></trkpt><trkpt lat="38.080643552576035" lon="15.495128749680688"><ele>10.5</ele><time>2026-04-26T09:53:31.86Z</time></trkpt><trkpt lat="38.08038309774795" lon="15.495039091003765"><ele>9.0</ele><time>2026-04-26T09:53:32.86Z</time></trkpt><trkpt lat="38.08013542165102" lon="15.494957888093309"><ele>7.5</ele><time>2026-04-26T09:53:33.86Z</time></trkpt><trkpt lat="38.07988978145779" lon="15.49488336046878"><ele>6.0</ele><time>2026-04-26T09:53:34.86Z</time></trkpt><trkpt lat="38.07965214435157" lon="15.49480306216765"><ele>6.0</ele><time>2026-04-26T09:53:35.859Z</time></trkpt><trkpt lat="38.07940353946243" lon="15.494711268472258"><ele>6.0</ele><time>2026-04-26T09:53:36.859Z</time></trkpt><trkpt lat="38.07914319443676" lon="15.49462461152475"><ele>8.0</ele><time>2026-04-26T09:53:37.859Z</time></trkpt><trkpt lat="38.07887792368459" lon="15.49453717689035"><ele>10.0</ele><time>2026-04-26T09:53:38.859Z</time></trkpt><trkpt lat="38.07861036763856" lon="15.494448558023267"><ele>10.0</ele><time>2026-04-26T09:53:39.859Z</time></trkpt><trkpt lat="38.07834626723644" lon="15.494360189150294"><ele>10.0</ele><time>2026-04-26T09:53:40.859Z</time></trkpt><trkpt lat="38.07806769175352" lon="15.49426050220771"><ele>9.0</ele><time>2026-04-26T09:53:41.859Z</time></trkpt><trkpt lat="38.07779209991586" lon="15.494160055714485"><ele>8.0</ele><time>2026-04-26T09:53:42.859Z</time></trkpt><trkpt lat="38.07751405871935" lon="15.494063345037071"><ele>6.5</ele><time>2026-04-26T09:53:43.859Z</time></trkpt><trkpt lat="38.07724091828259" lon="15.493967398294508"><ele>5.0</ele><time>2026-04-26T09:53:44.859Z</time></trkpt><trkpt lat="38.07697711623321" lon="15.493871369172082"><ele>5.0</ele><time>2026-04-26T09:53:45.859Z</time></trkpt><trkpt lat="38.07671020901541" lon="15.493773242218298"><ele>5.0</ele><time>2026-04-26T09:53:46.859Z</time></trkpt><trkpt lat="38.07643643101865" lon="15.493674343168436"><ele>7.5</ele><time>2026-04-26T09:53:47.859Z</time></trkpt><trkpt lat="38.076161473126" lon="15.493554216236427"><ele>10.0</ele><time>2026-04-26T09:53:48.859Z</time></trkpt><trkpt lat="38.075886686018315" lon="15.493466353737196"><ele>6.5</ele><time>2026-04-26T09:53:49.859Z</time></trkpt><trkpt lat="38.07564192952298" lon="15.493355872196773"><ele>3.0</ele><time>2026-04-26T09:53:50.859Z</time></trkpt><trkpt lat="38.07541415800773" lon="15.493220352675118"><ele>3.0</ele><time>2026-04-26T09:53:51.859Z</time></trkpt><trkpt lat="38.07518348194576" lon="15.49307872049985"><ele>3.0</ele><time>2026-04-26T09:53:52.859Z</time></trkpt><trkpt lat="38.07495337737734" lon="15.492933802038602"><ele>4.0</ele><time>2026-04-26T09:53:53.859Z</time></trkpt><trkpt lat="38.074726155653074" lon="15.492786254251763"><ele>5.0</ele><time>2026-04-26T09:53:54.859Z</time></trkpt><trkpt lat="38.07449854319163" lon="15.492638815385318"><ele>5.0</ele><time>2026-04-26T09:53:55.859Z</time></trkpt><trkpt lat="38.074272323066886" lon="15.492495978280079"><ele>5.0</ele><time>2026-04-26T09:53:56.859Z</time></trkpt><trkpt lat="38.0740435211953" lon="15.49235146939074"><ele>3.0</ele><time>2026-04-26T09:53:57.859Z</time></trkpt><trkpt lat="38.07380739642728" lon="15.4922123585533"><ele>1.0</ele><time>2026-04-26T09:53:58.859Z</time></trkpt><trkpt lat="38.07357826640508" lon="15.492064673697943"><ele>1.5</ele><time>2026-04-26T09:53:59.859Z</time></trkpt><trkpt lat="38.0733702132062" lon="15.491876778158229"><ele>2.0</ele><time>2026-04-26T09:54:00.859Z</time></trkpt><trkpt lat="38.07315853308547" lon="15.491681750321009"><ele>2.0</ele><time>2026-04-26T09:54:01.859Z</time></trkpt><trkpt lat="38.07294274369518" lon="15.491475032895506"><ele>2.0</ele><time>2026-04-26T09:54:02.859Z</time></trkpt><trkpt lat="38.07273327882081" lon="15.49126850650899"><ele>2.5</ele><time>2026-04-26T09:54:03.859Z</time></trkpt><trkpt lat="38.072515575437194" lon="15.49107064760981"><ele>3.0</ele><time>2026-04-26T09:54:04.859Z</time></trkpt><trkpt lat="38.07231011411694" lon="15.49086502046996"><ele>3.0</ele><time>2026-04-26T09:54:05.859Z</time></trkpt><trkpt lat="38.07211114320025" lon="15.49066442011534"><ele>3.0</ele><time>2026-04-26T09:54:06.859Z</time></trkpt><trkpt lat="38.071912569697716" lon="15.490468394187978"><ele>3.5</ele><time>2026-04-26T09:54:07.859Z</time></trkpt><trkpt lat="38.07172619442356" lon="15.490270051136529"><ele>4.0</ele><time>2026-04-26T09:54:08.859Z</time></trkpt><trkpt lat="38.071548418167886" lon="15.490074200791534"><ele>4.0</ele><time>2026-04-26T09:54:09.859Z</time></trkpt><trkpt lat="38.071412161226064" lon="15.48986252763806"><ele>4.0</ele><time>2026-04-26T09:54:10.858Z</time></trkpt><trkpt lat="38.07132659621676" lon="15.489614269073442"><ele>4.0</ele><time>2026-04-26T09:54:11.858Z</time></trkpt><trkpt lat="38.07124431334303" lon="15.489358217213521"><ele>5.666666666666666</ele><time>2026-04-26T09:54:12.858Z</time></trkpt><trkpt lat="38.071172914097126" lon="15.489096239114458"><ele>7.333333333333333</ele><time>2026-04-26T09:54:13.858Z</time></trkpt><trkpt lat="38.07109012626298" lon="15.488848056416055"><ele>9.0</ele><time>2026-04-26T09:54:14.858Z</time></trkpt><trkpt lat="38.07104556690311" lon="15.48860254887712"><ele>10.333333333333332</ele><time>2026-04-26T09:54:15.858Z</time></trkpt><trkpt lat="38.07097536342832" lon="15.488384514256717"><ele>11.666666666666666</ele><time>2026-04-26T09:54:16.858Z</time></trkpt><trkpt lat="38.070907421650524" lon="15.488183271094934"><ele>13.0</ele><time>2026-04-26T09:54:17.858Z</time></trkpt><trkpt lat="38.070830633957605" lon="15.488011152673623"><ele>13.0</ele><time>2026-04-26T09:54:18.858Z</time></trkpt><trkpt lat="38.07075483922977" lon="15.487880587235772"><ele>13.0</ele><time>2026-04-26T09:54:19.858Z</time></trkpt><trkpt lat="38.07068736081184" lon="15.487774686164844"><ele>13.0</ele><time>2026-04-26T09:54:20.858Z</time></trkpt><trkpt lat="38.07060875233965" lon="15.487690118856849"><ele>13.0</ele><time>2026-04-26T09:54:21.858Z</time></trkpt><trkpt lat="38.07053599891542" lon="15.48759897466355"><ele>13.0</ele><time>2026-04-26T09:54:22.858Z</time></trkpt><trkpt lat="38.070455653911324" lon="15.487523064092107"><ele>13.0</ele><time>2026-04-26T09:54:23.858Z</time></trkpt><trkpt lat="38.070381354961775" lon="15.487451873274722"><ele>13.0</ele><time>2026-04-26T09:54:24.858Z</time></trkpt><trkpt lat="38.07028659416057" lon="15.48736411486446"><ele>13.0</ele><time>2026-04-26T09:54:25.858Z</time></trkpt><trkpt lat="38.07017745459533" lon="15.487219472673365"><ele>13.0</ele><time>2026-04-26T09:54:26.858Z</time></trkpt><trkpt lat="38.07003990040673" lon="15.487069698294599"><ele>14.0</ele><time>2026-04-26T09:54:27.858Z</time></trkpt><trkpt lat="38.06988894609444" lon="15.486907102384807"><ele>15.0</ele><time>2026-04-26T09:54:28.858Z</time></trkpt><trkpt lat="38.06971761306576" lon="15.486743789715977"><ele>16.0</ele><time>2026-04-26T09:54:29.858Z</time></trkpt><trkpt lat="38.06954445319405" lon="15.486553377757433"><ele>16.0</ele><time>2026-04-26T09:54:30.858Z</time></trkpt><trkpt lat="38.06936462401806" lon="15.486356945391645"><ele>16.0</ele><time>2026-04-26T09:54:31.858Z</time></trkpt><trkpt lat="38.0692031296551" lon="15.48612582009088"><ele>15.0</ele><time>2026-04-26T09:54:32.858Z</time></trkpt><trkpt lat="38.069039121291254" lon="15.485903075138584"><ele>14.0</ele><time>2026-04-26T09:54:33.858Z</time></trkpt><trkpt lat="38.068874470298056" lon="15.48567017910657"><ele>14.0</ele><time>2026-04-26T09:54:34.858Z</time></trkpt><trkpt lat="38.068709047585195" lon="15.485431249672827"><ele>14.0</ele><time>2026-04-26T09:54:35.858Z</time></trkpt><trkpt lat="38.06853744879257" lon="15.485183197003865"><ele>15.0</ele><time>2026-04-26T09:54:36.858Z</time></trkpt><trkpt lat="38.06836328417863" lon="15.484931873427666"><ele>16.0</ele><time>2026-04-26T09:54:37.858Z</time></trkpt><trkpt lat="38.06818786832944" lon="15.484679432662363"><ele>15.0</ele><time>2026-04-26T09:54:38.858Z</time></trkpt><trkpt lat="38.06801633581006" lon="15.484432580409498"><ele>14.0</ele><time>2026-04-26T09:54:39.858Z</time></trkpt><trkpt lat="38.06784464640239" lon="15.484207765478844"><ele>14.0</ele><time>2026-04-26T09:54:40.858Z</time></trkpt><trkpt lat="38.067673713005135" lon="15.483970434595282"><ele>14.0</ele><time>2026-04-26T09:54:41.858Z</time></trkpt><trkpt lat="38.06750323076447" lon="15.483733448302287"><ele>13.5</ele><time>2026-04-26T09:54:42.858Z</time></trkpt><trkpt lat="38.06732640598719" lon="15.48349036223457"><ele>13.0</ele><time>2026-04-26T09:54:43.858Z</time></trkpt><trkpt lat="38.067162582186484" lon="15.483206155669308"><ele>13.0</ele><time>2026-04-26T09:54:44.858Z</time></trkpt><trkpt lat="38.066980761223235" lon="15.482945106902813"><ele>13.0</ele><time>2026-04-26T09:54:45.857Z</time></trkpt><trkpt lat="38.066789360550686" lon="15.482695942944003"><ele>12.5</ele><time>2026-04-26T09:54:46.857Z</time></trkpt><trkpt lat="38.066624718631445" lon="15.482451092749978"><ele>12.0</ele><time>2026-04-26T09:54:47.857Z</time></trkpt><trkpt lat="38.06646213058406" lon="15.48220189151654"><ele>13.5</ele><time>2026-04-26T09:54:48.857Z</time></trkpt><trkpt lat="38.06630979629984" lon="15.48198394159882"><ele>15.0</ele><time>2026-04-26T09:54:49.857Z</time></trkpt><trkpt lat="38.06615487483998" lon="15.481782300505616"><ele>15.0</ele><time>2026-04-26T09:54:50.857Z</time></trkpt><trkpt lat="38.06598796165079" lon="15.481600484450302"><ele>15.0</ele><time>2026-04-26T09:54:51.857Z</time></trkpt><trkpt lat="38.065793839793024" lon="15.481442765519484"><ele>15.0</ele><time>2026-04-26T09:54:52.857Z</time></trkpt><trkpt lat="38.06560903300049" lon="15.48125535662903"><ele>15.0</ele><time>2026-04-26T09:54:53.857Z</time></trkpt><trkpt lat="38.065397920932185" lon="15.481113977939957"><ele>15.0</ele><time>2026-04-26T09:54:54.857Z</time></trkpt><trkpt lat="38.065196824831034" lon="15.480986052923438"><ele>15.0</ele><time>2026-04-26T09:54:55.857Z</time></trkpt><trkpt lat="38.065003344029336" lon="15.480859503595575"><ele>15.0</ele><time>2026-04-26T09:54:56.857Z</time></trkpt><trkpt lat="38.064801806839945" lon="15.480721118295094"><ele>14.0</ele><time>2026-04-26T09:54:57.857Z</time></trkpt><trkpt lat="38.06459063209388" lon="15.480570475795304"><ele>13.0</ele><time>2026-04-26T09:54:58.857Z</time></trkpt><trkpt lat="38.064362944751544" lon="15.480415048834454"><ele>12.5</ele><time>2026-04-26T09:54:59.857Z</time></trkpt><trkpt lat="38.064125527780305" lon="15.48025455179759"><ele>12.0</ele><time>2026-04-26T09:55:00.857Z</time></trkpt><trkpt lat="38.063885459723245" lon="15.480092606322785"><ele>12.0</ele><time>2026-04-26T09:55:01.857Z</time></trkpt><trkpt lat="38.063666825619876" lon="15.479934784769176"><ele>12.0</ele><time>2026-04-26T09:55:02.857Z</time></trkpt><trkpt lat="38.06346861038611" lon="15.479797656737844"><ele>12.0</ele><time>2026-04-26T09:55:03.857Z</time></trkpt><trkpt lat="38.063268342139885" lon="15.479666880373609"><ele>12.0</ele><time>2026-04-26T09:55:04.858Z</time></trkpt><trkpt lat="38.06306252275144" lon="15.47952862890471"><ele>14.5</ele><time>2026-04-26T09:55:05.859Z</time></trkpt><trkpt lat="38.062856091425935" lon="15.479378368685646"><ele>17.0</ele><time>2026-04-26T09:55:06.859Z</time></trkpt><trkpt lat="38.062637495425896" lon="15.479230456297962"><ele>17.0</ele><time>2026-04-26T09:55:07.859Z</time></trkpt><trkpt lat="38.06240643594858" lon="15.479080401603794"><ele>17.0</ele><time>2026-04-26T09:55:08.858Z</time></trkpt><trkpt lat="38.062154827455224" lon="15.478925362877034"><ele>16.5</ele><time>2026-04-26T09:55:09.858Z</time></trkpt><trkpt lat="38.0618895296654" lon="15.478758570770694"><ele>16.0</ele><time>2026-04-26T09:55:10.858Z</time></trkpt><trkpt lat="38.061614479250544" lon="15.478594585410164"><ele>16.0</ele><time>2026-04-26T09:55:11.858Z</time></trkpt><trkpt lat="38.06133754994943" lon="15.478432002752706"><ele>16.0</ele><time>2026-04-26T09:55:12.858Z</time></trkpt><trkpt lat="38.06107687174959" lon="15.478290572677567"><ele>16.0</ele><time>2026-04-26T09:55:13.859Z</time></trkpt><trkpt lat="38.06084837455595" lon="15.478158703059673"><ele>16.0</ele><time>2026-04-26T09:55:14.858Z</time></trkpt><trkpt lat="38.06063330507247" lon="15.478038383008569"><ele>17.0</ele><time>2026-04-26T09:55:15.858Z</time></trkpt><trkpt lat="38.06042590592364" lon="15.477951657358467"><ele>18.0</ele><time>2026-04-26T09:55:16.858Z</time></trkpt><trkpt lat="38.060254814521606" lon="15.477880443204171"><ele>19.0</ele><time>2026-04-26T09:55:17.859Z</time></trkpt><trkpt lat="38.06008331956382" lon="15.477856804648052"><ele>18.333333333333332</ele><time>2026-04-26T09:55:18.859Z</time></trkpt><trkpt lat="38.05989267679574" lon="15.477882878892752"><ele>17.666666666666668</ele><time>2026-04-26T09:55:19.859Z</time></trkpt><trkpt lat="38.05968203718833" lon="15.477898154598758"><ele>17.0</ele><time>2026-04-26T09:55:20.859Z</time></trkpt><trkpt lat="38.05944811163763" lon="15.477879696728548"><ele>17.0</ele><time>2026-04-26T09:55:21.859Z</time></trkpt><trkpt lat="38.05919385335865" lon="15.477835344135547"><ele>17.0</ele><time>2026-04-26T09:55:22.859Z</time></trkpt><trkpt lat="38.0589409126307" lon="15.47778141632115"><ele>15.0</ele><time>2026-04-26T09:55:23.859Z</time></trkpt><trkpt lat="38.05868130628558" lon="15.47773927475686"><ele>13.0</ele><time>2026-04-26T09:55:24.859Z</time></trkpt><trkpt lat="38.058454885320145" lon="15.477681721846848"><ele>13.666666666666666</ele><time>2026-04-26T09:55:25.859Z</time></trkpt><trkpt lat="38.05824655180299" lon="15.477649873123099"><ele>14.333333333333332</ele><time>2026-04-26T09:55:26.859Z</time></trkpt><trkpt lat="38.05802698053185" lon="15.477579557448953"><ele>15.0</ele><time>2026-04-26T09:55:27.858Z</time></trkpt><trkpt lat="38.05777866554692" lon="15.47751636765117"><ele>15.0</ele><time>2026-04-26T09:55:28.858Z</time></trkpt><trkpt lat="38.057557425446255" lon="15.477396116737406"><ele>15.0</ele><time>2026-04-26T09:55:29.858Z</time></trkpt><trkpt lat="38.05736900127519" lon="15.477244909252263"><ele>15.666666666666668</ele><time>2026-04-26T09:55:30.858Z</time></trkpt><trkpt lat="38.05719604469822" lon="15.47710369632062"><ele>16.333333333333336</ele><time>2026-04-26T09:55:31.858Z</time></trkpt><trkpt lat="38.057026751008124" lon="15.476965474178975"><ele>17.0</ele><time>2026-04-26T09:55:32.858Z</time></trkpt><trkpt lat="38.056794165237164" lon="15.477000198165008"><ele>25.0</ele><time>2026-04-26T09:55:33.858Z</time></trkpt><trkpt lat="38.05656309756269" lon="15.477007042754007"><ele>33.0</ele><time>2026-04-26T09:55:34.858Z</time></trkpt><trkpt lat="38.056277141212135" lon="15.477067591642902"><ele>33.0</ele><time>2026-04-26T09:55:35.858Z</time></trkpt><trkpt lat="38.055996448067155" lon="15.477033177565488"><ele>33.0</ele><time>2026-04-26T09:55:36.858Z</time></trkpt><trkpt lat="38.055717474718556" lon="15.47696272120021"><ele>29.5</ele><time>2026-04-26T09:55:37.858Z</time></trkpt><trkpt lat="38.05544950373857" lon="15.476878091855701"><ele>26.0</ele><time>2026-04-26T09:55:38.858Z</time></trkpt><trkpt lat="38.055226799125414" lon="15.476772735417224"><ele>26.0</ele><time>2026-04-26T09:55:39.858Z</time></trkpt><trkpt lat="38.055024941223145" lon="15.476661002987848"><ele>26.0</ele><time>2026-04-26T09:55:40.858Z</time></trkpt><trkpt lat="38.05483836699917" lon="15.47649976747848"><ele>26.0</ele><time>2026-04-26T09:55:41.858Z</time></trkpt><trkpt lat="38.05462985702081" lon="15.47635574278151"><ele>28.666666666666664</ele><time>2026-04-26T09:55:42.858Z</time></trkpt><trkpt lat="38.05445203241756" lon="15.476276162855434"><ele>31.333333333333336</ele><time>2026-04-26T09:55:43.858Z</time></trkpt><trkpt lat="38.05430869450602" lon="15.476224025085846"><ele>34.0</ele><time>2026-04-26T09:55:44.858Z</time></trkpt><trkpt lat="38.05418647171927" lon="15.476148619058222"><ele>27.5</ele><time>2026-04-26T09:55:45.858Z</time></trkpt><trkpt lat="38.05408229791102" lon="15.476068476988273"><ele>21.0</ele><time>2026-04-26T09:55:46.858Z</time></trkpt><trkpt lat="38.05398590152803" lon="15.475989951025927"><ele>14.5</ele><time>2026-04-26T09:55:47.858Z</time></trkpt><trkpt lat="38.053891511476124" lon="15.475906939212157"><ele>8.0</ele><time>2026-04-26T09:55:48.858Z</time></trkpt><trkpt lat="38.053804414737854" lon="15.475825026130712"><ele>8.0</ele><time>2026-04-26T09:55:49.858Z</time></trkpt><trkpt lat="38.053738198315955" lon="15.475721778344761"><ele>8.0</ele><time>2026-04-26T09:55:50.858Z</time></trkpt><trkpt lat="38.053675676405874" lon="15.475584093372483"><ele>8.0</ele><time>2026-04-26T09:55:51.858Z</time></trkpt><trkpt lat="38.053611735871556" lon="15.475410409492762"><ele>8.0</ele><time>2026-04-26T09:55:52.858Z</time></trkpt><trkpt lat="38.053515660542764" lon="15.475247012891721"><ele>6.5</ele><time>2026-04-26T09:55:53.858Z</time></trkpt><trkpt lat="38.053351272294776" lon="15.475088855763808"><ele>5.0</ele><time>2026-04-26T09:55:54.858Z</time></trkpt><trkpt lat="38.053154005926785" lon="15.474905394524441"><ele>5.0</ele><time>2026-04-26T09:55:55.858Z</time></trkpt><trkpt lat="38.05296275406274" lon="15.474698807716925"><ele>5.0</ele><time>2026-04-26T09:55:56.858Z</time></trkpt><trkpt lat="38.052779625478315" lon="15.47448313760899"><ele>13.0</ele><time>2026-04-26T09:55:57.858Z</time></trkpt><trkpt lat="38.052625136698325" lon="15.474258048313741"><ele>21.0</ele><time>2026-04-26T09:55:58.858Z</time></trkpt><trkpt lat="38.052485222146856" lon="15.474040972074702"><ele>16.666666666666668</ele><time>2026-04-26T09:55:59.858Z</time></trkpt><trkpt lat="38.05235373046947" lon="15.473820901970043"><ele>12.333333333333332</ele><time>2026-04-26T09:56:00.858Z</time></trkpt><trkpt lat="38.05223188164046" lon="15.473590863471786"><ele>8.0</ele><time>2026-04-26T09:56:01.858Z</time></trkpt><trkpt lat="38.052117567530736" lon="15.473365363192102"><ele>8.0</ele><time>2026-04-26T09:56:02.858Z</time></trkpt><trkpt lat="38.05199121258289" lon="15.473160561086337"><ele>8.0</ele><time>2026-04-26T09:56:03.857Z</time></trkpt><trkpt lat="38.05185061135942" lon="15.47295412376133"><ele>8.0</ele><time>2026-04-26T09:56:04.857Z</time></trkpt><trkpt lat="38.05169620974754" lon="15.47277433356527"><ele>8.0</ele><time>2026-04-26T09:56:05.857Z</time></trkpt><trkpt lat="38.05155085433449" lon="15.472577940543648"><ele>8.0</ele><time>2026-04-26T09:56:06.857Z</time></trkpt><trkpt lat="38.051407527211616" lon="15.472380339525227"><ele>8.0</ele><time>2026-04-26T09:56:07.857Z</time></trkpt><trkpt lat="38.0512586729099" lon="15.472168815122975"><ele>12.5</ele><time>2026-04-26T09:56:08.857Z</time></trkpt><trkpt lat="38.051110036026465" lon="15.471926268909975"><ele>17.0</ele><time>2026-04-26T09:56:09.857Z</time></trkpt><trkpt lat="38.05096142794226" lon="15.471670597046481"><ele>17.0</ele><time>2026-04-26T09:56:10.857Z</time></trkpt><trkpt lat="38.050806320163964" lon="15.471442380815217"><ele>17.0</ele><time>2026-04-26T09:56:11.857Z</time></trkpt><trkpt lat="38.05066560742695" lon="15.47120999761116"><ele>15.0</ele><time>2026-04-26T09:56:12.857Z</time></trkpt><trkpt lat="38.05051989893491" lon="15.47096543580155"><ele>13.0</ele><time>2026-04-26T09:56:13.857Z</time></trkpt><trkpt lat="38.050361705625" lon="15.470725581584269"><ele>13.0</ele><time>2026-04-26T09:56:14.857Z</time></trkpt><trkpt lat="38.05018787699046" lon="15.470505890577737"><ele>13.0</ele><time>2026-04-26T09:56:15.857Z</time></trkpt><trkpt lat="38.050024547316994" lon="15.470302508789093"><ele>11.333333333333332</ele><time>2026-04-26T09:56:16.857Z</time></trkpt><trkpt lat="38.049862365315384" lon="15.470120647993134"><ele>9.666666666666666</ele><time>2026-04-26T09:56:17.857Z</time></trkpt><trkpt lat="38.04971458526765" lon="15.469957746401066"><ele>8.0</ele><time>2026-04-26T09:56:18.857Z</time></trkpt><trkpt lat="38.0495827980947" lon="15.469784158958305"><ele>11.333333333333332</ele><time>2026-04-26T09:56:19.857Z</time></trkpt><trkpt lat="38.04945240952842" lon="15.469604615269045"><ele>14.666666666666666</ele><time>2026-04-26T09:56:20.857Z</time></trkpt><trkpt lat="38.049328494638075" lon="15.469415352067445"><ele>18.0</ele><time>2026-04-26T09:56:21.857Z</time></trkpt><trkpt lat="38.049200537412375" lon="15.469238260576011"><ele>16.666666666666668</ele><time>2026-04-26T09:56:22.857Z</time></trkpt><trkpt lat="38.04908506509469" lon="15.469061518037112"><ele>15.333333333333334</ele><time>2026-04-26T09:56:23.857Z</time></trkpt><trkpt lat="38.04897818327683" lon="15.468899440671226"><ele>14.0</ele><time>2026-04-26T09:56:24.857Z</time></trkpt><trkpt lat="38.04887268609585" lon="15.46874456110096"><ele>14.0</ele><time>2026-04-26T09:56:25.857Z</time></trkpt><trkpt lat="38.048772283397625" lon="15.468559498913505"><ele>14.0</ele><time>2026-04-26T09:56:26.857Z</time></trkpt><trkpt lat="38.048650552348306" lon="15.468355905790595"><ele>14.0</ele><time>2026-04-26T09:56:27.857Z</time></trkpt><trkpt lat="38.04850761119616" lon="15.468139446093515"><ele>14.5</ele><time>2026-04-26T09:56:28.857Z</time></trkpt><trkpt lat="38.048360808332205" lon="15.467923804850027"><ele>15.0</ele><time>2026-04-26T09:56:29.857Z</time></trkpt><trkpt lat="38.04821234181974" lon="15.467696804383976"><ele>15.0</ele><time>2026-04-26T09:56:30.857Z</time></trkpt><trkpt lat="38.0480590996094" lon="15.467487885030494"><ele>15.0</ele><time>2026-04-26T09:56:31.857Z</time></trkpt><trkpt lat="38.04791639401979" lon="15.467281492812274"><ele>15.0</ele><time>2026-04-26T09:56:32.857Z</time></trkpt><trkpt lat="38.047771927743135" lon="15.467076331852866"><ele>16.333333333333332</ele><time>2026-04-26T09:56:33.857Z</time></trkpt><trkpt lat="38.04763271037728" lon="15.4668707590483"><ele>17.666666666666664</ele><time>2026-04-26T09:56:34.857Z</time></trkpt><trkpt lat="38.04749436244102" lon="15.466643904621403"><ele>19.0</ele><time>2026-04-26T09:56:35.857Z</time></trkpt><trkpt lat="38.04736215033423" lon="15.466426190711498"><ele>18.333333333333332</ele><time>2026-04-26T09:56:36.857Z</time></trkpt><trkpt lat="38.04723688446371" lon="15.466229402121543"><ele>17.666666666666668</ele><time>2026-04-26T09:56:37.857Z</time></trkpt><trkpt lat="38.0471440694255" lon="15.466019131137353"><ele>17.0</ele><time>2026-04-26T09:56:38.856Z</time></trkpt><trkpt lat="38.047027864320825" lon="15.4658347967934"><ele>17.0</ele><time>2026-04-26T09:56:39.856Z</time></trkpt><trkpt lat="38.04691536360335" lon="15.465656840356624"><ele>17.0</ele><time>2026-04-26T09:56:40.856Z</time></trkpt><trkpt lat="38.04680735653597" lon="15.465517529057887"><ele>17.0</ele><time>2026-04-26T09:56:41.856Z</time></trkpt><trkpt lat="38.046757777721815" lon="15.465364086682918"><ele>17.333333333333336</ele><time>2026-04-26T09:56:42.856Z</time></trkpt><trkpt lat="38.04669030220689" lon="15.465258310419214"><ele>17.666666666666668</ele><time>2026-04-26T09:56:43.856Z</time></trkpt><trkpt lat="38.046631403747746" lon="15.465182028888151"><ele>18.0</ele><time>2026-04-26T09:56:44.856Z</time></trkpt><trkpt lat="38.04658575185994" lon="15.46511355714209"><ele>18.333333333333332</ele><time>2026-04-26T09:56:45.856Z</time></trkpt><trkpt lat="38.04650312204413" lon="15.465035827808146"><ele>18.666666666666664</ele><time>2026-04-26T09:56:47.856Z</time></trkpt><trkpt lat="38.046488805338605" lon="15.464954315692113"><ele>19.0</ele><time>2026-04-26T09:56:50.856Z</time></trkpt><trkpt lat="38.04643296726537" lon="15.464890591914338"><ele>18.8</ele><time>2026-04-26T09:56:56.856Z</time></trkpt><trkpt lat="38.04637510220638" lon="15.464795988922955"><ele>18.599999999999998</ele><time>2026-04-26T09:56:59.856Z</time></trkpt><trkpt lat="38.04633396673552" lon="15.46472873696079"><ele>18.4</ele><time>2026-04-26T09:57:02.856Z</time></trkpt><trkpt lat="38.04622158482212" lon="15.464546225486266"><ele>18.2</ele><time>2026-04-26T09:58:38.853Z</time></trkpt><trkpt lat="38.04617211768834" lon="15.464466063526277"><ele>18.0</ele><time>2026-04-26T09:58:40.853Z</time></trkpt><trkpt lat="38.046132312373054" lon="15.464401558643111"><ele>18.0</ele><time>2026-04-26T09:58:52.853Z</time></trkpt><trkpt lat="38.04608148131689" lon="15.464317621947572"><ele>18.0</ele><time>2026-04-26T09:59:00.853Z</time></trkpt><trkpt lat="38.04603078363773" lon="15.464234362605344"><ele>18.0</ele><time>2026-04-26T09:59:01.853Z</time></trkpt><trkpt lat="38.04596927471448" lon="15.464134631174126"><ele>18.0</ele><time>2026-04-26T09:59:02.853Z</time></trkpt><trkpt lat="38.04589214432611" lon="15.464011834325463"><ele>18.0</ele><time>2026-04-26T09:59:03.852Z</time></trkpt><trkpt lat="38.04580847749347" lon="15.463904695618707"><ele>17.0</ele><time>2026-04-26T09:59:04.852Z</time></trkpt><trkpt lat="38.045762267631524" lon="15.463762333886331"><ele>16.0</ele><time>2026-04-26T09:59:05.852Z</time></trkpt><trkpt lat="38.045690776904415" lon="15.463627468372145"><ele>15.0</ele><time>2026-04-26T09:59:06.852Z</time></trkpt><trkpt lat="38.04562736532772" lon="15.46351388639294"><ele>14.0</ele><time>2026-04-26T09:59:07.852Z</time></trkpt><trkpt lat="38.04557552948894" lon="15.463407129380853"><ele>14.000000000000002</ele><time>2026-04-26T09:59:08.852Z</time></trkpt><trkpt lat="38.04553132282013" lon="15.463311179069871"><ele>14.0</ele><time>2026-04-26T09:59:09.852Z</time></trkpt><trkpt lat="38.04549473866929" lon="15.463237686995956"><ele>14.0</ele><time>2026-04-26T09:59:10.852Z</time></trkpt><trkpt lat="38.04543613145223" lon="15.463130778027509"><ele>14.0</ele><time>2026-04-26T09:59:12.852Z</time></trkpt><trkpt lat="38.045368536144814" lon="15.463059974753234"><ele>14.000000000000002</ele><time>2026-04-26T09:59:14.852Z</time></trkpt><trkpt lat="38.04530605906525" lon="15.46301756532017"><ele>14.0</ele><time>2026-04-26T09:59:16.854Z</time></trkpt><trkpt lat="38.04523929699139" lon="15.46294305327835"><ele>14.2</ele><time>2026-04-26T09:59:19.853Z</time></trkpt><trkpt lat="38.045188571010115" lon="15.462857728206684"><ele>14.399999999999999</ele><time>2026-04-26T09:59:21.854Z</time></trkpt><trkpt lat="38.04513028132732" lon="15.462761123657286"><ele>14.6</ele><time>2026-04-26T09:59:23.854Z</time></trkpt><trkpt lat="38.04505917019789" lon="15.462661418433155"><ele>14.8</ele><time>2026-04-26T09:59:25.853Z</time></trkpt><trkpt lat="38.045002617745496" lon="15.46258543359247"><ele>15.0</ele><time>2026-04-26T09:59:27.853Z</time></trkpt><trkpt lat="38.04493919781942" lon="15.462502871185727"><ele>15.2</ele><time>2026-04-26T09:59:29.854Z</time></trkpt><trkpt lat="38.04488061497338" lon="15.462450320929277"><ele>15.4</ele><time>2026-04-26T09:59:31.854Z</time></trkpt><trkpt lat="38.04482974176474" lon="15.462355775832826"><ele>15.600000000000001</ele><time>2026-04-26T09:59:34.854Z</time></trkpt><trkpt lat="38.04476035880232" lon="15.462263371502148"><ele>15.8</ele><time>2026-04-26T09:59:37.854Z</time></trkpt><trkpt lat="38.04469632741108" lon="15.462178960460392"><ele>16.0</ele><time>2026-04-26T09:59:39.853Z</time></trkpt><trkpt lat="38.044608884959736" lon="15.462067520725451"><ele>15.999999999999998</ele><time>2026-04-26T09:59:41.853Z</time></trkpt><trkpt lat="38.044543911644865" lon="15.46201799076548"><ele>16.0</ele><time>2026-04-26T09:59:42.853Z</time></trkpt><trkpt lat="38.044508069530714" lon="15.461931035648956"><ele>16.0</ele><time>2026-04-26T09:59:43.853Z</time></trkpt><trkpt lat="38.044467542832656" lon="15.461865338303408"><ele>16.0</ele><time>2026-04-26T09:59:44.853Z</time></trkpt><trkpt lat="38.04441117086168" lon="15.461778938923896"><ele>15.999999999999998</ele><time>2026-04-26T09:59:46.853Z</time></trkpt><trkpt lat="38.04432867088778" lon="15.4616725658722"><ele>16.0</ele><time>2026-04-26T09:59:48.853Z</time></trkpt><trkpt lat="38.04426825231551" lon="15.461602662021182"><ele>16.0</ele><time>2026-04-26T09:59:49.853Z</time></trkpt><trkpt lat="38.04420625971061" lon="15.461528415523974"><ele>16.0</ele><time>2026-04-26T09:59:50.853Z</time></trkpt><trkpt lat="38.04414398654148" lon="15.461449767622044"><ele>16.0</ele><time>2026-04-26T09:59:51.853Z</time></trkpt><trkpt lat="38.04407827806807" lon="15.461360856905836"><ele>16.0</ele><time>2026-04-26T09:59:52.853Z</time></trkpt><trkpt lat="38.044002345377464" lon="15.46124132158246"><ele>16.0</ele><time>2026-04-26T09:59:53.853Z</time></trkpt><trkpt lat="38.043916051836405" lon="15.46111470841817"><ele>15.200000000000001</ele><time>2026-04-26T09:59:54.853Z</time></trkpt><trkpt lat="38.04383034011604" lon="15.460998664343755"><ele>14.400000000000002</ele><time>2026-04-26T09:59:55.853Z</time></trkpt><trkpt lat="38.04376361753578" lon="15.460890840516866"><ele>13.6</ele><time>2026-04-26T09:59:56.853Z</time></trkpt><trkpt lat="38.043704880635715" lon="15.460807839826062"><ele>12.8</ele><time>2026-04-26T09:59:57.853Z</time></trkpt><trkpt lat="38.04362464740154" lon="15.460685922614578"><ele>12.0</ele><time>2026-04-26T09:59:59.853Z</time></trkpt><trkpt lat="38.04356289937803" lon="15.460625983207546"><ele>12.0</ele><time>2026-04-26T10:00:00.853Z</time></trkpt><trkpt lat="38.0435059382542" lon="15.460550941718653"><ele>12.0</ele><time>2026-04-26T10:00:01.853Z</time></trkpt><trkpt lat="38.043440546454434" lon="15.460491122329032"><ele>12.0</ele><time>2026-04-26T10:00:02.853Z</time></trkpt><trkpt lat="38.043391911993105" lon="15.460432152212066"><ele>12.0</ele><time>2026-04-26T10:00:03.853Z</time></trkpt><trkpt lat="38.043334616530785" lon="15.460373152976876"><ele>12.0</ele><time>2026-04-26T10:00:04.853Z</time></trkpt><trkpt lat="38.04328756984375" lon="15.460275776397216"><ele>12.0</ele><time>2026-04-26T10:00:05.853Z</time></trkpt><trkpt lat="38.04322230565638" lon="15.460183383890541"><ele>11.0</ele><time>2026-04-26T10:00:06.853Z</time></trkpt><trkpt lat="38.04314742924354" lon="15.460081636240453"><ele>10.0</ele><time>2026-04-26T10:00:07.853Z</time></trkpt><trkpt lat="38.04304243045502" lon="15.459968617808128"><ele>9.0</ele><time>2026-04-26T10:00:08.853Z</time></trkpt><trkpt lat="38.042967135006144" lon="15.459816565543006"><ele>8.0</ele><time>2026-04-26T10:00:09.853Z</time></trkpt><trkpt lat="38.04285630789498" lon="15.459669326799535"><ele>10.333333333333332</ele><time>2026-04-26T10:00:10.853Z</time></trkpt><trkpt lat="38.04273761172357" lon="15.459515643262383"><ele>12.666666666666666</ele><time>2026-04-26T10:00:11.853Z</time></trkpt><trkpt lat="38.04262302182902" lon="15.459355249413411"><ele>15.0</ele><time>2026-04-26T10:00:12.853Z</time></trkpt><trkpt lat="38.04249760235892" lon="15.459200781162659"><ele>14.666666666666668</ele><time>2026-04-26T10:00:13.853Z</time></trkpt><trkpt lat="38.042360605119576" lon="15.459046088207524"><ele>14.333333333333334</ele><time>2026-04-26T10:00:14.852Z</time></trkpt><trkpt lat="38.042228319165346" lon="15.458893957692391"><ele>14.0</ele><time>2026-04-26T10:00:15.852Z</time></trkpt><trkpt lat="38.04209527491073" lon="15.458745807989802"><ele>14.0</ele><time>2026-04-26T10:00:16.852Z</time></trkpt><trkpt lat="38.041959802612745" lon="15.458581527484945"><ele>14.0</ele><time>2026-04-26T10:00:17.852Z</time></trkpt><trkpt lat="38.04181406393477" lon="15.458428721802711"><ele>14.0</ele><time>2026-04-26T10:00:18.852Z</time></trkpt><trkpt lat="38.04169373092108" lon="15.458232850478273"><ele>13.333333333333334</ele><time>2026-04-26T10:00:19.852Z</time></trkpt><trkpt lat="38.041546895907665" lon="15.458061474323816"><ele>12.666666666666668</ele><time>2026-04-26T10:00:20.852Z</time></trkpt><trkpt lat="38.04141375122849" lon="15.457899950995111"><ele>12.0</ele><time>2026-04-26T10:00:21.852Z</time></trkpt><trkpt lat="38.04128816909587" lon="15.457746246993969"><ele>12.0</ele><time>2026-04-26T10:00:22.852Z</time></trkpt><trkpt lat="38.041159782902334" lon="15.4575945593974"><ele>12.0</ele><time>2026-04-26T10:00:23.852Z</time></trkpt><trkpt lat="38.041034380541426" lon="15.457443083665579"><ele>12.0</ele><time>2026-04-26T10:00:24.852Z</time></trkpt><trkpt lat="38.040906270602356" lon="15.45729373503593"><ele>13.0</ele><time>2026-04-26T10:00:25.852Z</time></trkpt><trkpt lat="38.040777557511966" lon="15.45714311115813"><ele>14.0</ele><time>2026-04-26T10:00:26.852Z</time></trkpt><trkpt lat="38.04063381936661" lon="15.457009077926685"><ele>15.0</ele><time>2026-04-26T10:00:27.852Z</time></trkpt><trkpt lat="38.04048901043585" lon="15.456884019561107"><ele>15.0</ele><time>2026-04-26T10:00:28.852Z</time></trkpt><trkpt lat="38.04035841720633" lon="15.456781606312742"><ele>15.0</ele><time>2026-04-26T10:00:29.852Z</time></trkpt><trkpt lat="38.040244955343184" lon="15.456668767847967"><ele>15.0</ele><time>2026-04-26T10:00:30.852Z</time></trkpt><trkpt lat="38.04013848853134" lon="15.456556335202087"><ele>15.0</ele><time>2026-04-26T10:00:31.852Z</time></trkpt><trkpt lat="38.04003612044646" lon="15.456453480071737"><ele>15.4</ele><time>2026-04-26T10:00:32.852Z</time></trkpt><trkpt lat="38.039938817362675" lon="15.456359570331827"><ele>15.8</ele><time>2026-04-26T10:00:33.852Z</time></trkpt><trkpt lat="38.03985605639601" lon="15.456269850536469"><ele>16.2</ele><time>2026-04-26T10:00:34.852Z</time></trkpt><trkpt lat="38.0397891729199" lon="15.456175827403605"><ele>16.6</ele><time>2026-04-26T10:00:35.852Z</time></trkpt><trkpt lat="38.03972566601865" lon="15.456080831940524"><ele>17.0</ele><time>2026-04-26T10:00:36.852Z</time></trkpt><trkpt lat="38.03965874348614" lon="15.45597542155171"><ele>17.0</ele><time>2026-04-26T10:00:37.852Z</time></trkpt><trkpt lat="38.039576797203594" lon="15.455886291552135"><ele>17.0</ele><time>2026-04-26T10:00:38.852Z</time></trkpt><trkpt lat="38.0394849210179" lon="15.455807009139512"><ele>17.0</ele><time>2026-04-26T10:00:39.852Z</time></trkpt><trkpt lat="38.03937875304444" lon="15.455705658814017"><ele>17.0</ele><time>2026-04-26T10:00:40.852Z</time></trkpt><trkpt lat="38.03927220116349" lon="15.455593946648445"><ele>17.0</ele><time>2026-04-26T10:00:41.852Z</time></trkpt><trkpt lat="38.03915824706633" lon="15.455507870155412"><ele>17.0</ele><time>2026-04-26T10:00:42.852Z</time></trkpt><trkpt lat="38.03906080483955" lon="15.45539811212974"><ele>17.0</ele><time>2026-04-26T10:00:43.852Z</time></trkpt><trkpt lat="38.03896862168982" lon="15.455289561808716"><ele>17.0</ele><time>2026-04-26T10:00:44.852Z</time></trkpt><trkpt lat="38.03886647418247" lon="15.455164063655191"><ele>16.5</ele><time>2026-04-26T10:00:45.852Z</time></trkpt><trkpt lat="38.03876407282466" lon="15.45503409668283"><ele>16.0</ele><time>2026-04-26T10:00:46.852Z</time></trkpt><trkpt lat="38.038664108828726" lon="15.454907138400769"><ele>15.5</ele><time>2026-04-26T10:00:47.852Z</time></trkpt><trkpt lat="38.038566758116076" lon="15.454779439385643"><ele>15.0</ele><time>2026-04-26T10:00:48.852Z</time></trkpt><trkpt lat="38.0384766254648" lon="15.45465925191479"><ele>14.4</ele><time>2026-04-26T10:00:49.851Z</time></trkpt><trkpt lat="38.03839686777198" lon="15.454546050393484"><ele>13.8</ele><time>2026-04-26T10:00:50.851Z</time></trkpt><trkpt lat="38.038344898700466" lon="15.45446363097588"><ele>13.2</ele><time>2026-04-26T10:00:51.851Z</time></trkpt><trkpt lat="38.0382991102982" lon="15.45438610288119"><ele>12.6</ele><time>2026-04-26T10:00:53.851Z</time></trkpt><trkpt lat="38.038240837928576" lon="15.454287503453724"><ele>12.0</ele><time>2026-04-26T10:00:55.851Z</time></trkpt><trkpt lat="38.038186633758016" lon="15.454191175365079"><ele>12.0</ele><time>2026-04-26T10:00:56.851Z</time></trkpt><trkpt lat="38.038119752441666" lon="15.454081333960842"><ele>12.0</ele><time>2026-04-26T10:00:57.851Z</time></trkpt><trkpt lat="38.03803262422726" lon="15.453965402070594"><ele>12.0</ele><time>2026-04-26T10:00:58.851Z</time></trkpt><trkpt lat="38.03791907850223" lon="15.453838731777763"><ele>12.0</ele><time>2026-04-26T10:00:59.851Z</time></trkpt><trkpt lat="38.03782899913855" lon="15.453666141877383"><ele>13.0</ele><time>2026-04-26T10:01:00.851Z</time></trkpt><trkpt lat="38.03770920192585" lon="15.453523461952354"><ele>14.0</ele><time>2026-04-26T10:01:01.851Z</time></trkpt><trkpt lat="38.03758334568563" lon="15.453377412033454"><ele>15.0</ele><time>2026-04-26T10:01:02.851Z</time></trkpt><trkpt lat="38.03745134887157" lon="15.4532357151866"><ele>15.333333333333332</ele><time>2026-04-26T10:01:03.851Z</time></trkpt><trkpt lat="38.03731503028272" lon="15.453097917125556"><ele>15.666666666666666</ele><time>2026-04-26T10:01:04.851Z</time></trkpt><trkpt lat="38.03716407030973" lon="15.452984302480951"><ele>16.0</ele><time>2026-04-26T10:01:05.851Z</time></trkpt><trkpt lat="38.03701267238736" lon="15.45285901215934"><ele>16.0</ele><time>2026-04-26T10:01:06.851Z</time></trkpt><trkpt lat="38.03685640329304" lon="15.452732079437258"><ele>16.0</ele><time>2026-04-26T10:01:07.851Z</time></trkpt><trkpt lat="38.03669741303718" lon="15.45259507333632"><ele>16.0</ele><time>2026-04-26T10:01:08.851Z</time></trkpt><trkpt lat="38.03654844908603" lon="15.45244941778679"><ele>15.666666666666666</ele><time>2026-04-26T10:01:09.851Z</time></trkpt><trkpt lat="38.03641311051033" lon="15.452316920688439"><ele>15.333333333333332</ele><time>2026-04-26T10:01:10.851Z</time></trkpt><trkpt lat="38.03628288414612" lon="15.452190286116352"><ele>15.0</ele><time>2026-04-26T10:01:11.851Z</time></trkpt><trkpt lat="38.036156866794755" lon="15.452074360184008"><ele>15.0</ele><time>2026-04-26T10:01:12.851Z</time></trkpt><trkpt lat="38.03604874876089" lon="15.451987711982422"><ele>15.0</ele><time>2026-04-26T10:01:13.851Z</time></trkpt><trkpt lat="38.03596096457072" lon="15.451864448452511"><ele>15.0</ele><time>2026-04-26T10:01:14.851Z</time></trkpt><trkpt lat="38.03586962673395" lon="15.451730383740067"><ele>15.0</ele><time>2026-04-26T10:01:15.851Z</time></trkpt><trkpt lat="38.035759135583426" lon="15.451573879288105"><ele>15.333333333333332</ele><time>2026-04-26T10:01:16.851Z</time></trkpt><trkpt lat="38.035640923486376" lon="15.451406539779653"><ele>15.666666666666666</ele><time>2026-04-26T10:01:17.851Z</time></trkpt><trkpt lat="38.03551758075175" lon="15.451227401429563"><ele>16.0</ele><time>2026-04-26T10:01:18.851Z</time></trkpt><trkpt lat="38.03539701142354" lon="15.451053731915872"><ele>16.0</ele><time>2026-04-26T10:01:19.851Z</time></trkpt><trkpt lat="38.03528260162461" lon="15.450906651474654"><ele>16.0</ele><time>2026-04-26T10:01:20.851Z</time></trkpt><trkpt lat="38.03518787190257" lon="15.4507633283198"><ele>16.0</ele><time>2026-04-26T10:01:21.851Z</time></trkpt><trkpt lat="38.03508933135675" lon="15.450613825117815"><ele>16.0</ele><time>2026-04-26T10:01:22.85Z</time></trkpt><trkpt lat="38.03497467452795" lon="15.450474189554281"><ele>16.0</ele><time>2026-04-26T10:01:23.85Z</time></trkpt><trkpt lat="38.034874007146016" lon="15.450307235231492"><ele>16.0</ele><time>2026-04-26T10:01:24.85Z</time></trkpt><trkpt lat="38.03476423558525" lon="15.450182091847829"><ele>15.666666666666666</ele><time>2026-04-26T10:01:25.851Z</time></trkpt><trkpt lat="38.03464022912136" lon="15.450039417291492"><ele>15.333333333333332</ele><time>2026-04-26T10:01:26.85Z</time></trkpt><trkpt lat="38.03450584762081" lon="15.449891614999354"><ele>15.0</ele><time>2026-04-26T10:01:27.85Z</time></trkpt><trkpt lat="38.03434055393688" lon="15.449724755001357"><ele>14.5</ele><time>2026-04-26T10:01:28.85Z</time></trkpt><trkpt lat="38.034133272504285" lon="15.449548725147602"><ele>14.0</ele><time>2026-04-26T10:01:29.85Z</time></trkpt><trkpt lat="38.03393113753382" lon="15.449357129476295"><ele>14.0</ele><time>2026-04-26T10:01:30.85Z</time></trkpt><trkpt lat="38.03371314388885" lon="15.449156301084848"><ele>14.0</ele><time>2026-04-26T10:01:31.85Z</time></trkpt><trkpt lat="38.03346562713573" lon="15.44895949398849"><ele>14.0</ele><time>2026-04-26T10:01:32.851Z</time></trkpt><trkpt lat="38.033214255714114" lon="15.44872916818081"><ele>14.0</ele><time>2026-04-26T10:01:33.851Z</time></trkpt><trkpt lat="38.03296577610873" lon="15.448510288717964"><ele>14.0</ele><time>2026-04-26T10:01:34.85Z</time></trkpt><trkpt lat="38.032733738394704" lon="15.44831324941001"><ele>14.0</ele><time>2026-04-26T10:01:35.85Z</time></trkpt><trkpt lat="38.03254830123739" lon="15.448081831284847"><ele>13.5</ele><time>2026-04-26T10:01:36.85Z</time></trkpt><trkpt lat="38.03235605728362" lon="15.44791827007146"><ele>13.0</ele><time>2026-04-26T10:01:37.85Z</time></trkpt><trkpt lat="38.032156621496966" lon="15.447762327006652"><ele>13.0</ele><time>2026-04-26T10:01:38.85Z</time></trkpt><trkpt lat="38.03193570015666" lon="15.447641889114362"><ele>13.0</ele><time>2026-04-26T10:01:39.85Z</time></trkpt><trkpt lat="38.031734542767985" lon="15.447481824061265"><ele>14.0</ele><time>2026-04-26T10:01:40.85Z</time></trkpt><trkpt lat="38.031578721350556" lon="15.44727674451829"><ele>15.0</ele><time>2026-04-26T10:01:41.85Z</time></trkpt><trkpt lat="38.03140432458849" lon="15.447092051781343"><ele>15.0</ele><time>2026-04-26T10:01:42.85Z</time></trkpt><trkpt lat="38.03122595298352" lon="15.446913887803937"><ele>15.0</ele><time>2026-04-26T10:01:43.85Z</time></trkpt><trkpt lat="38.0310529919254" lon="15.446718259855219"><ele>15.0</ele><time>2026-04-26T10:01:44.85Z</time></trkpt><trkpt lat="38.03087966807773" lon="15.446537756817136"><ele>15.0</ele><time>2026-04-26T10:01:45.85Z</time></trkpt><trkpt lat="38.0307144247385" lon="15.446351748743284"><ele>15.0</ele><time>2026-04-26T10:01:46.85Z</time></trkpt><trkpt lat="38.030539940174954" lon="15.446159956222626"><ele>15.0</ele><time>2026-04-26T10:01:47.85Z</time></trkpt><trkpt lat="38.03036572119515" lon="15.445958528448807"><ele>15.0</ele><time>2026-04-26T10:01:48.85Z</time></trkpt><trkpt lat="38.0301827294446" lon="15.445762284627957"><ele>15.0</ele><time>2026-04-26T10:01:49.85Z</time></trkpt><trkpt lat="38.029985509394805" lon="15.445565575437188"><ele>15.0</ele><time>2026-04-26T10:01:50.85Z</time></trkpt><trkpt lat="38.02978141073295" lon="15.445326701169622"><ele>13.5</ele><time>2026-04-26T10:01:51.85Z</time></trkpt><trkpt lat="38.02954725440663" lon="15.445075693802494"><ele>12.0</ele><time>2026-04-26T10:01:52.85Z</time></trkpt><trkpt lat="38.02931564423448" lon="15.44479659676075"><ele>11.0</ele><time>2026-04-26T10:01:53.85Z</time></trkpt><trkpt lat="38.029074770497964" lon="15.444524729295585"><ele>10.0</ele><time>2026-04-26T10:01:54.85Z</time></trkpt><trkpt lat="38.02881650092921" lon="15.444257632740959"><ele>10.0</ele><time>2026-04-26T10:01:55.85Z</time></trkpt><trkpt lat="38.02856008951177" lon="15.444001030719566"><ele>10.0</ele><time>2026-04-26T10:01:56.85Z</time></trkpt><trkpt lat="38.02829934849078" lon="15.443752187471452"><ele>12.0</ele><time>2026-04-26T10:01:57.85Z</time></trkpt><trkpt lat="38.028054862428704" lon="15.443495633659603"><ele>14.0</ele><time>2026-04-26T10:01:58.85Z</time></trkpt><trkpt lat="38.02783115942923" lon="15.44323941672392"><ele>16.0</ele><time>2026-04-26T10:01:59.85Z</time></trkpt><trkpt lat="38.02763673116317" lon="15.442961333943531"><ele>18.0</ele><time>2026-04-26T10:02:00.85Z</time></trkpt><trkpt lat="38.02742726950734" lon="15.442714692176192"><ele>18.0</ele><time>2026-04-26T10:02:01.85Z</time></trkpt><trkpt lat="38.02725824830517" lon="15.442464117396343"><ele>18.0</ele><time>2026-04-26T10:02:02.849Z</time></trkpt><trkpt lat="38.02709451330766" lon="15.442246110352698"><ele>22.333333333333336</ele><time>2026-04-26T10:02:03.849Z</time></trkpt><trkpt lat="38.02694540271065" lon="15.442048744669531"><ele>26.666666666666668</ele><time>2026-04-26T10:02:04.849Z</time></trkpt><trkpt lat="38.026839411232345" lon="15.441831683603342"><ele>31.0</ele><time>2026-04-26T10:02:05.849Z</time></trkpt><trkpt lat="38.026723645911346" lon="15.441640994995417"><ele>34.333333333333336</ele><time>2026-04-26T10:02:06.849Z</time></trkpt><trkpt lat="38.02659584286916" lon="15.441468583691522"><ele>37.666666666666664</ele><time>2026-04-26T10:02:07.849Z</time></trkpt><trkpt lat="38.02644949021228" lon="15.441329669652669"><ele>41.0</ele><time>2026-04-26T10:02:08.849Z</time></trkpt><trkpt lat="38.02628335817945" lon="15.44118716047821"><ele>41.0</ele><time>2026-04-26T10:02:09.849Z</time></trkpt><trkpt lat="38.026083280367175" lon="15.44107108226966"><ele>41.0</ele><time>2026-04-26T10:02:10.849Z</time></trkpt><trkpt lat="38.025858442918484" lon="15.441016978631769"><ele>41.0</ele><time>2026-04-26T10:02:11.849Z</time></trkpt><trkpt lat="38.025644846223614" lon="15.440964051173696"><ele>32.5</ele><time>2026-04-26T10:02:12.849Z</time></trkpt><trkpt lat="38.02542665335268" lon="15.440866051944967"><ele>24.0</ele><time>2026-04-26T10:02:13.849Z</time></trkpt><trkpt lat="38.025185753400216" lon="15.440702259248255"><ele>28.5</ele><time>2026-04-26T10:02:14.849Z</time></trkpt><trkpt lat="38.024933806919556" lon="15.440541474997275"><ele>33.0</ele><time>2026-04-26T10:02:15.849Z</time></trkpt><trkpt lat="38.0247049734143" lon="15.440369816137274"><ele>33.0</ele><time>2026-04-26T10:02:16.849Z</time></trkpt><trkpt lat="38.02451601636947" lon="15.440189818475188"><ele>33.0</ele><time>2026-04-26T10:02:17.849Z</time></trkpt><trkpt lat="38.024335027481804" lon="15.44006054355812"><ele>33.0</ele><time>2026-04-26T10:02:18.849Z</time></trkpt><trkpt lat="38.02415193182054" lon="15.43997057479873"><ele>33.333333333333336</ele><time>2026-04-26T10:02:19.849Z</time></trkpt><trkpt lat="38.02395116160741" lon="15.439948737657193"><ele>33.66666666666667</ele><time>2026-04-26T10:02:20.849Z</time></trkpt><trkpt lat="38.02372881287435" lon="15.439987059824748"><ele>34.0</ele><time>2026-04-26T10:02:21.849Z</time></trkpt><trkpt lat="38.02347624027928" lon="15.440039650690577"><ele>41.0</ele><time>2026-04-26T10:02:22.849Z</time></trkpt><trkpt lat="38.02321374375585" lon="15.44006280307264"><ele>48.0</ele><time>2026-04-26T10:02:23.849Z</time></trkpt><trkpt lat="38.022914864182546" lon="15.440079446878165"><ele>48.0</ele><time>2026-04-26T10:02:24.849Z</time></trkpt><trkpt lat="38.02260647222354" lon="15.440103863864522"><ele>48.0</ele><time>2026-04-26T10:02:25.849Z</time></trkpt><trkpt lat="38.02229732412792" lon="15.440152502846058"><ele>47.0</ele><time>2026-04-26T10:02:26.849Z</time></trkpt><trkpt lat="38.02197958817101" lon="15.44021152449527"><ele>46.0</ele><time>2026-04-26T10:02:27.849Z</time></trkpt><trkpt lat="38.02166166235137" lon="15.440267711170328"><ele>55.5</ele><time>2026-04-26T10:02:28.849Z</time></trkpt><trkpt lat="38.02136455312225" lon="15.44031841167569"><ele>65.0</ele><time>2026-04-26T10:02:29.849Z</time></trkpt><trkpt lat="38.021098750826496" lon="15.440363016683776"><ele>65.0</ele><time>2026-04-26T10:02:30.849Z</time></trkpt><trkpt lat="38.020850143494215" lon="15.440347120593449"><ele>65.0</ele><time>2026-04-26T10:02:31.849Z</time></trkpt><trkpt lat="38.02059181181491" lon="15.440367219624957"><ele>66.5</ele><time>2026-04-26T10:02:32.849Z</time></trkpt><trkpt lat="38.02031479966307" lon="15.440374983620446"><ele>68.0</ele><time>2026-04-26T10:02:33.849Z</time></trkpt><trkpt lat="38.02001022881968" lon="15.44037395159032"><ele>59.5</ele><time>2026-04-26T10:02:34.849Z</time></trkpt><trkpt lat="38.019708838715275" lon="15.44037225846613"><ele>51.0</ele><time>2026-04-26T10:02:35.849Z</time></trkpt><trkpt lat="38.01943152412484" lon="15.440383407362484"><ele>51.0</ele><time>2026-04-26T10:02:36.849Z</time></trkpt><trkpt lat="38.01921424142086" lon="15.440396139336631"><ele>51.0</ele><time>2026-04-26T10:02:37.848Z</time></trkpt><trkpt lat="38.01905814925038" lon="15.440404359438782"><ele>51.0</ele><time>2026-04-26T10:02:38.848Z</time></trkpt><trkpt lat="38.018933118966864" lon="15.440390150764335"><ele>43.75</ele><time>2026-04-26T10:02:39.848Z</time></trkpt><trkpt lat="38.0188288036473" lon="15.440349493287384"><ele>36.5</ele><time>2026-04-26T10:02:40.848Z</time></trkpt><trkpt lat="38.01874936125429" lon="15.440246000721235"><ele>29.25</ele><time>2026-04-26T10:02:41.848Z</time></trkpt><trkpt lat="38.01868171992398" lon="15.44006053652317"><ele>22.0</ele><time>2026-04-26T10:02:42.848Z</time></trkpt><trkpt lat="38.01857013007096" lon="15.439860484253398"><ele>22.0</ele><time>2026-04-26T10:02:43.848Z</time></trkpt><trkpt lat="38.0184207135089" lon="15.439656008179993"><ele>22.0</ele><time>2026-04-26T10:02:44.848Z</time></trkpt><trkpt lat="38.01823812801173" lon="15.439466890025587"><ele>18.333333333333332</ele><time>2026-04-26T10:02:45.848Z</time></trkpt><trkpt lat="38.0180945185747" lon="15.43925085457957"><ele>14.666666666666666</ele><time>2026-04-26T10:02:46.848Z</time></trkpt><trkpt lat="38.017969670762064" lon="15.439078079342316"><ele>11.0</ele><time>2026-04-26T10:02:47.848Z</time></trkpt><trkpt lat="38.017874873437826" lon="15.438909249455445"><ele>19.666666666666668</ele><time>2026-04-26T10:02:48.848Z</time></trkpt><trkpt lat="38.01780742416047" lon="15.43870689018332"><ele>28.333333333333336</ele><time>2026-04-26T10:02:49.848Z</time></trkpt><trkpt lat="38.01768961019059" lon="15.438553805408024"><ele>37.0</ele><time>2026-04-26T10:02:50.848Z</time></trkpt><trkpt lat="38.017528402542524" lon="15.438472763733529"><ele>27.666666666666668</ele><time>2026-04-26T10:02:51.848Z</time></trkpt><trkpt lat="38.01733862046264" lon="15.438441766918553"><ele>18.333333333333336</ele><time>2026-04-26T10:02:52.848Z</time></trkpt><trkpt lat="38.017129861276295" lon="15.438391021892587"><ele>9.0</ele><time>2026-04-26T10:02:53.848Z</time></trkpt><trkpt lat="38.01691571880624" lon="15.438234961982944"><ele>9.0</ele><time>2026-04-26T10:02:54.848Z</time></trkpt><trkpt lat="38.01667975019942" lon="15.438072424035957"><ele>9.0</ele><time>2026-04-26T10:02:55.848Z</time></trkpt><trkpt lat="38.016446361230834" lon="15.437878387158015"><ele>10.0</ele><time>2026-04-26T10:02:56.848Z</time></trkpt><trkpt lat="38.01625281559754" lon="15.437638625310605"><ele>11.0</ele><time>2026-04-26T10:02:57.848Z</time></trkpt><trkpt lat="38.016090504298084" lon="15.43738026947029"><ele>21.0</ele><time>2026-04-26T10:02:58.848Z</time></trkpt><trkpt lat="38.015945786520504" lon="15.437123536725323"><ele>31.0</ele><time>2026-04-26T10:02:59.848Z</time></trkpt><trkpt lat="38.0158264485185" lon="15.436906238311684"><ele>22.333333333333336</ele><time>2026-04-26T10:03:00.848Z</time></trkpt><trkpt lat="38.01575562389577" lon="15.4366679348462"><ele>13.666666666666668</ele><time>2026-04-26T10:03:01.848Z</time></trkpt><trkpt lat="38.01566300068004" lon="15.436468143408982"><ele>5.0</ele><time>2026-04-26T10:03:02.848Z</time></trkpt><trkpt lat="38.015528394150955" lon="15.43631809742829"><ele>19.5</ele><time>2026-04-26T10:03:03.848Z</time></trkpt><trkpt lat="38.015344837659434" lon="15.436183047735854"><ele>34.0</ele><time>2026-04-26T10:03:04.848Z</time></trkpt><trkpt lat="38.0151364163722" lon="15.436028356508778"><ele>20.5</ele><time>2026-04-26T10:03:05.848Z</time></trkpt><trkpt lat="38.01492307771935" lon="15.43583215963532"><ele>7.0</ele><time>2026-04-26T10:03:06.848Z</time></trkpt><trkpt lat="38.01471384544506" lon="15.435631132438187"><ele>21.5</ele><time>2026-04-26T10:03:07.848Z</time></trkpt><trkpt lat="38.01449670334967" lon="15.435428523052888"><ele>36.0</ele><time>2026-04-26T10:03:08.848Z</time></trkpt><trkpt lat="38.01427070857553" lon="15.435189641945572"><ele>22.0</ele><time>2026-04-26T10:03:09.848Z</time></trkpt><trkpt lat="38.014046885793476" lon="15.434958962870228"><ele>8.0</ele><time>2026-04-26T10:03:10.848Z</time></trkpt><trkpt lat="38.01383078792883" lon="15.434743757670008"><ele>22.5</ele><time>2026-04-26T10:03:11.848Z</time></trkpt><trkpt lat="38.013615760735256" lon="15.434553394933484"><ele>37.0</ele><time>2026-04-26T10:03:12.847Z</time></trkpt><trkpt lat="38.01341095422725" lon="15.434365377071995"><ele>23.5</ele><time>2026-04-26T10:03:13.847Z</time></trkpt><trkpt lat="38.0132252910387" lon="15.434188437440895"><ele>10.0</ele><time>2026-04-26T10:03:14.847Z</time></trkpt><trkpt lat="38.013050340229775" lon="15.433988973986251"><ele>18.0</ele><time>2026-04-26T10:03:15.847Z</time></trkpt><trkpt lat="38.012887077472385" lon="15.433746229113611"><ele>26.0</ele><time>2026-04-26T10:03:16.847Z</time></trkpt><trkpt lat="38.01271408797782" lon="15.433499015714991"><ele>26.0</ele><time>2026-04-26T10:03:17.847Z</time></trkpt><trkpt lat="38.012523706207155" lon="15.43325518946352"><ele>26.0</ele><time>2026-04-26T10:03:18.847Z</time></trkpt><trkpt lat="38.01233426417892" lon="15.433025522817186"><ele>25.5</ele><time>2026-04-26T10:03:19.847Z</time></trkpt><trkpt lat="38.01216114037293" lon="15.432796109773268"><ele>25.0</ele><time>2026-04-26T10:03:20.847Z</time></trkpt><trkpt lat="38.012013359093544" lon="15.432553310878433"><ele>25.0</ele><time>2026-04-26T10:03:21.847Z</time></trkpt><trkpt lat="38.01185632748861" lon="15.432336282804545"><ele>25.0</ele><time>2026-04-26T10:03:22.847Z</time></trkpt><trkpt lat="38.01170426898961" lon="15.432139143914846"><ele>21.0</ele><time>2026-04-26T10:03:23.847Z</time></trkpt><trkpt lat="38.01155513896394" lon="15.431938439481032"><ele>17.0</ele><time>2026-04-26T10:03:24.847Z</time></trkpt><trkpt lat="38.011397346161125" lon="15.431758268206535"><ele>13.0</ele><time>2026-04-26T10:03:25.847Z</time></trkpt><trkpt lat="38.01127244693019" lon="15.431581461182738"><ele>13.0</ele><time>2026-04-26T10:03:26.847Z</time></trkpt><trkpt lat="38.01115649244051" lon="15.431446308579709"><ele>13.0</ele><time>2026-04-26T10:03:27.847Z</time></trkpt><trkpt lat="38.011026096712" lon="15.431360792422524"><ele>13.0</ele><time>2026-04-26T10:03:28.847Z</time></trkpt><trkpt lat="38.01089156397238" lon="15.431309915404258"><ele>13.0</ele><time>2026-04-26T10:03:29.847Z</time></trkpt><trkpt lat="38.01074662360885" lon="15.431296213968817"><ele>11.666666666666666</ele><time>2026-04-26T10:03:30.847Z</time></trkpt><trkpt lat="38.01062432324131" lon="15.431241784605175"><ele>10.333333333333332</ele><time>2026-04-26T10:03:31.847Z</time></trkpt><trkpt lat="38.01049588827464" lon="15.431101976965362"><ele>9.0</ele><time>2026-04-26T10:03:32.847Z</time></trkpt><trkpt lat="38.01037207196251" lon="15.43087876806582"><ele>9.0</ele><time>2026-04-26T10:03:33.847Z</time></trkpt><trkpt lat="38.01026638544813" lon="15.430633685462825"><ele>9.0</ele><time>2026-04-26T10:03:34.847Z</time></trkpt><trkpt lat="38.010224250659526" lon="15.430356089150626"><ele>9.0</ele><time>2026-04-26T10:03:35.847Z</time></trkpt><trkpt lat="38.01016032486462" lon="15.43006931459849"><ele>10.0</ele><time>2026-04-26T10:03:36.847Z</time></trkpt><trkpt lat="38.01005438017958" lon="15.429808065323893"><ele>11.0</ele><time>2026-04-26T10:03:37.847Z</time></trkpt><trkpt lat="38.009965630387306" lon="15.429555326536978"><ele>12.0</ele><time>2026-04-26T10:03:38.847Z</time></trkpt><trkpt lat="38.00982829508546" lon="15.429327890285016"><ele>12.5</ele><time>2026-04-26T10:03:39.847Z</time></trkpt><trkpt lat="38.00966267695768" lon="15.42910670796457"><ele>13.0</ele><time>2026-04-26T10:03:40.847Z</time></trkpt><trkpt lat="38.009494692526765" lon="15.428892630598847"><ele>13.666666666666666</ele><time>2026-04-26T10:03:41.847Z</time></trkpt><trkpt lat="38.00933978611761" lon="15.428691179824522"><ele>14.333333333333332</ele><time>2026-04-26T10:03:42.847Z</time></trkpt><trkpt lat="38.00918756141118" lon="15.42852449315587"><ele>15.0</ele><time>2026-04-26T10:03:43.847Z</time></trkpt><trkpt lat="38.00903998766155" lon="15.428375975314221"><ele>15.0</ele><time>2026-04-26T10:03:44.847Z</time></trkpt><trkpt lat="38.008910784489366" lon="15.428211847217554"><ele>15.0</ele><time>2026-04-26T10:03:45.847Z</time></trkpt><trkpt lat="38.008805297086084" lon="15.42807576978821"><ele>15.0</ele><time>2026-04-26T10:03:46.847Z</time></trkpt><trkpt lat="38.00871353152619" lon="15.427975475503596"><ele>15.25</ele><time>2026-04-26T10:03:47.847Z</time></trkpt><trkpt lat="38.00862036330565" lon="15.427868509707158"><ele>15.5</ele><time>2026-04-26T10:03:48.847Z</time></trkpt><trkpt lat="38.008517378684466" lon="15.427742379669276"><ele>15.75</ele><time>2026-04-26T10:03:49.847Z</time></trkpt><trkpt lat="38.00840762494338" lon="15.427621012560984"><ele>16.0</ele><time>2026-04-26T10:03:50.847Z</time></trkpt><trkpt lat="38.00828873871132" lon="15.427475249676538"><ele>16.0</ele><time>2026-04-26T10:03:51.847Z</time></trkpt><trkpt lat="38.00817390118212" lon="15.42733585507583"><ele>16.0</ele><time>2026-04-26T10:03:52.847Z</time></trkpt><trkpt lat="38.008062035228605" lon="15.427205713576827"><ele>16.0</ele><time>2026-04-26T10:03:53.847Z</time></trkpt><trkpt lat="38.00799477847845" lon="15.427051318127852"><ele>16.0</ele><time>2026-04-26T10:03:54.847Z</time></trkpt><trkpt lat="38.00788533721083" lon="15.426948661973588"><ele>16.0</ele><time>2026-04-26T10:03:55.847Z</time></trkpt><trkpt lat="38.00775753456408" lon="15.426848507584456"><ele>16.0</ele><time>2026-04-26T10:03:56.847Z</time></trkpt><trkpt lat="38.00755629641794" lon="15.426811577511709"><ele>13.666666666666666</ele><time>2026-04-26T10:03:57.847Z</time></trkpt><trkpt lat="38.007370120107176" lon="15.426737466900537"><ele>11.333333333333332</ele><time>2026-04-26T10:03:58.847Z</time></trkpt><trkpt lat="38.007203504068414" lon="15.426595439662208"><ele>9.0</ele><time>2026-04-26T10:03:59.847Z</time></trkpt><trkpt lat="38.007069699870684" lon="15.426453506612132"><ele>9.0</ele><time>2026-04-26T10:04:00.847Z</time></trkpt><trkpt lat="38.00695790442009" lon="15.42632313350727"><ele>9.0</ele><time>2026-04-26T10:04:01.847Z</time></trkpt><trkpt lat="38.006873608450654" lon="15.426176518278256"><ele>9.0</ele><time>2026-04-26T10:04:02.847Z</time></trkpt><trkpt lat="38.00681958159429" lon="15.426013436350432"><ele>9.0</ele><time>2026-04-26T10:04:03.847Z</time></trkpt><trkpt lat="38.006767477848086" lon="15.425841931788424"><ele>9.666666666666666</ele><time>2026-04-26T10:04:04.847Z</time></trkpt><trkpt lat="38.00669411464944" lon="15.425688125248964"><ele>10.333333333333332</ele><time>2026-04-26T10:04:05.847Z</time></trkpt><trkpt lat="38.00661535127855" lon="15.425534159721357"><ele>11.0</ele><time>2026-04-26T10:04:06.848Z</time></trkpt><trkpt lat="38.00649833564754" lon="15.425380824651047"><ele>12.0</ele><time>2026-04-26T10:04:07.85Z</time></trkpt><trkpt lat="38.00634366696442" lon="15.425241100569922"><ele>13.0</ele><time>2026-04-26T10:04:08.852Z</time></trkpt><trkpt lat="38.006183607763106" lon="15.425088967842605"><ele>14.0</ele><time>2026-04-26T10:04:09.853Z</time></trkpt><trkpt lat="38.00602959293614" lon="15.424939827438983"><ele>14.0</ele><time>2026-04-26T10:04:10.854Z</time></trkpt><trkpt lat="38.0058785399376" lon="15.424786047353216"><ele>14.0</ele><time>2026-04-26T10:04:11.855Z</time></trkpt><trkpt lat="38.00572486821598" lon="15.424622881817399"><ele>14.0</ele><time>2026-04-26T10:04:12.857Z</time></trkpt><trkpt lat="38.005565769461086" lon="15.424460704472967"><ele>14.0</ele><time>2026-04-26T10:04:13.858Z</time></trkpt><trkpt lat="38.00541363058946" lon="15.424306789013796"><ele>14.0</ele><time>2026-04-26T10:04:14.859Z</time></trkpt><trkpt lat="38.00527184904775" lon="15.424164145348723"><ele>14.0</ele><time>2026-04-26T10:04:15.859Z</time></trkpt><trkpt lat="38.005127603166926" lon="15.424026256513375"><ele>14.0</ele><time>2026-04-26T10:04:16.86Z</time></trkpt><trkpt lat="38.00499436095255" lon="15.423885196463356"><ele>14.0</ele><time>2026-04-26T10:04:17.861Z</time></trkpt><trkpt lat="38.00486466349578" lon="15.423747392426103"><ele>14.0</ele><time>2026-04-26T10:04:18.862Z</time></trkpt><trkpt lat="38.00476624646257" lon="15.423576258308387"><ele>14.0</ele><time>2026-04-26T10:04:19.863Z</time></trkpt><trkpt lat="38.004636858107354" lon="15.423437423989329"><ele>14.0</ele><time>2026-04-26T10:04:20.863Z</time></trkpt><trkpt lat="38.00449727925932" lon="15.423293771265323"><ele>14.0</ele><time>2026-04-26T10:04:21.864Z</time></trkpt><trkpt lat="38.00434616047673" lon="15.423154307813723"><ele>14.0</ele><time>2026-04-26T10:04:22.864Z</time></trkpt><trkpt lat="38.00419917083401" lon="15.42299865665602"><ele>14.0</ele><time>2026-04-26T10:04:23.865Z</time></trkpt><trkpt lat="38.00406005111377" lon="15.422845008027956"><ele>14.0</ele><time>2026-04-26T10:04:24.866Z</time></trkpt><trkpt lat="38.003921053811894" lon="15.422700526682918"><ele>14.333333333333334</ele><time>2026-04-26T10:04:25.866Z</time></trkpt><trkpt lat="38.00379025450473" lon="15.422575263883868"><ele>14.666666666666668</ele><time>2026-04-26T10:04:26.866Z</time></trkpt><trkpt lat="38.003705453448035" lon="15.422408954043593"><ele>15.0</ele><time>2026-04-26T10:04:27.867Z</time></trkpt><trkpt lat="38.00359342907809" lon="15.422281825321297"><ele>15.0</ele><time>2026-04-26T10:04:28.867Z</time></trkpt><trkpt lat="38.00345141742292" lon="15.422168493030913"><ele>15.0</ele><time>2026-04-26T10:04:29.868Z</time></trkpt><trkpt lat="38.00331828015075" lon="15.422030849270392"><ele>15.0</ele><time>2026-04-26T10:04:30.868Z</time></trkpt><trkpt lat="38.003176636013514" lon="15.421887157257066"><ele>15.0</ele><time>2026-04-26T10:04:31.868Z</time></trkpt><trkpt lat="38.00301866038934" lon="15.421747216674484"><ele>15.0</ele><time>2026-04-26T10:04:32.869Z</time></trkpt><trkpt lat="38.002841749204265" lon="15.42160833879885"><ele>15.0</ele><time>2026-04-26T10:04:33.869Z</time></trkpt><trkpt lat="38.00265111704042" lon="15.4214918966905"><ele>15.333333333333332</ele><time>2026-04-26T10:04:34.869Z</time></trkpt><trkpt lat="38.00247099429089" lon="15.421371828427153"><ele>15.666666666666666</ele><time>2026-04-26T10:04:35.869Z</time></trkpt><trkpt lat="38.002298275795596" lon="15.42126269357803"><ele>16.0</ele><time>2026-04-26T10:04:36.87Z</time></trkpt><trkpt lat="38.002144759472365" lon="15.421119611233888"><ele>16.0</ele><time>2026-04-26T10:04:37.87Z</time></trkpt><trkpt lat="38.00198924695739" lon="15.420970768906876"><ele>16.0</ele><time>2026-04-26T10:04:38.87Z</time></trkpt><trkpt lat="38.00182691213795" lon="15.420813316777389"><ele>16.0</ele><time>2026-04-26T10:04:39.87Z</time></trkpt><trkpt lat="38.001668553196836" lon="15.420658606104933"><ele>16.0</ele><time>2026-04-26T10:04:40.87Z</time></trkpt><trkpt lat="38.00154113234481" lon="15.420480777588153"><ele>16.0</ele><time>2026-04-26T10:04:41.87Z</time></trkpt><trkpt lat="38.00140304334384" lon="15.420346236171303"><ele>16.0</ele><time>2026-04-26T10:04:42.871Z</time></trkpt><trkpt lat="38.001275299707096" lon="15.420224361279534"><ele>16.0</ele><time>2026-04-26T10:04:43.871Z</time></trkpt><trkpt lat="38.001155890704936" lon="15.42011741967701"><ele>16.0</ele><time>2026-04-26T10:04:44.871Z</time></trkpt><trkpt lat="38.00104924529604" lon="15.42000251688224"><ele>16.0</ele><time>2026-04-26T10:04:45.871Z</time></trkpt><trkpt lat="38.0009510166867" lon="15.419919683864585"><ele>16.0</ele><time>2026-04-26T10:04:46.871Z</time></trkpt><trkpt lat="38.000864235446215" lon="15.41984483852661"><ele>15.833333333333332</ele><time>2026-04-26T10:04:47.871Z</time></trkpt><trkpt lat="38.00078689481043" lon="15.419779181118422"><ele>15.666666666666666</ele><time>2026-04-26T10:04:48.871Z</time></trkpt><trkpt lat="38.000724160482164" lon="15.419725281146968"><ele>15.5</ele><time>2026-04-26T10:04:49.871Z</time></trkpt><trkpt lat="38.00066438944786" lon="15.419678181149987"><ele>15.333333333333332</ele><time>2026-04-26T10:04:50.871Z</time></trkpt><trkpt lat="38.000587630999135" lon="15.419608504855443"><ele>15.166666666666666</ele><time>2026-04-26T10:04:52.872Z</time></trkpt><trkpt lat="38.000596808112576" lon="15.419500454351532"><ele>15.0</ele><time>2026-04-26T10:04:57.872Z</time></trkpt><trkpt lat="38.00071390188816" lon="15.41945577118761"><ele>15.0</ele><time>2026-04-26T10:05:23.872Z</time></trkpt></trkseg></trk></gpx>